<?xml version="1.0" encoding="UTF-8" standalone="no" ?>
<gpx xmlns="http://www.topografix.com/GPX/1/1" xmlns:xsi="http://www.w3.org/2001/XMLSchema-instance" xsi:schemaLocation="http://www.topografix.com/GPX/1/1 http://www.topografix.com/GPX/1/1/gpx.xsd" version="1.1" creator="VisuGPX - https://www.visugpx.com">
  <metadata>
    <name>2018-02-02 Bike ride-Chatillon-Limas</name>
    <desc><![CDATA[2018-02-02 Bike ride-Chatillon-Limas]]></desc>
  </metadata>
  <wpt lat="45.92462" lon="4.73716">
    <ele>174</ele>
    <name><![CDATA[2018-02-02 10:34 (Start)]]></name>
  </wpt>
  <wpt lat="45.92462" lon="4.73709">
    <ele>174</ele>
    <name><![CDATA[2018-02-02 10:34 (End)]]></name>
  </wpt>
  <trk>
    <name><![CDATA[2018-02-02 10:34]]></name>
    <trkseg>
      <trkpt lat="45.92462" lon="4.73716">
        <ele>174</ele>
        <time>2018-02-02T09:34:55.748Z</time>
      </trkpt>
      <trkpt lat="45.9245" lon="4.73715">
        <ele>174</ele>
        <time>2018-02-02T09:34:55.771Z</time>
      </trkpt>
      <trkpt lat="45.92461" lon="4.73717">
        <ele>174</ele>
        <time>2018-02-02T09:34:56Z</time>
      </trkpt>
      <trkpt lat="45.92458" lon="4.73711">
        <ele>174</ele>
        <time>2018-02-02T09:35:14Z</time>
      </trkpt>
      <trkpt lat="45.92458" lon="4.7371">
        <ele>174</ele>
        <time>2018-02-02T09:35:15Z</time>
      </trkpt>
      <trkpt lat="45.92459" lon="4.73711">
        <ele>174</ele>
        <time>2018-02-02T09:35:16Z</time>
      </trkpt>
      <trkpt lat="45.92465" lon="4.73703">
        <ele>174</ele>
        <time>2018-02-02T09:35:21Z</time>
      </trkpt>
      <trkpt lat="45.92465" lon="4.73701">
        <ele>174</ele>
        <time>2018-02-02T09:35:22Z</time>
      </trkpt>
      <trkpt lat="45.92466" lon="4.73691">
        <ele>174</ele>
        <time>2018-02-02T09:35:25Z</time>
      </trkpt>
      <trkpt lat="45.92467" lon="4.73687">
        <ele>174</ele>
        <time>2018-02-02T09:35:26Z</time>
      </trkpt>
      <trkpt lat="45.92467" lon="4.73675">
        <ele>174</ele>
        <time>2018-02-02T09:35:29Z</time>
      </trkpt>
      <trkpt lat="45.92467" lon="4.73671">
        <ele>174</ele>
        <time>2018-02-02T09:35:30Z</time>
      </trkpt>
      <trkpt lat="45.92468" lon="4.73659">
        <ele>174</ele>
        <time>2018-02-02T09:35:33Z</time>
      </trkpt>
      <trkpt lat="45.92469" lon="4.73655">
        <ele>174</ele>
        <time>2018-02-02T09:35:34Z</time>
      </trkpt>
      <trkpt lat="45.92469" lon="4.73646">
        <ele>174</ele>
        <time>2018-02-02T09:35:36Z</time>
      </trkpt>
      <trkpt lat="45.9247" lon="4.73641">
        <ele>174</ele>
        <time>2018-02-02T09:35:37Z</time>
      </trkpt>
      <trkpt lat="45.9247" lon="4.73631">
        <ele>174</ele>
        <time>2018-02-02T09:35:39Z</time>
      </trkpt>
      <trkpt lat="45.9247" lon="4.73625">
        <ele>174</ele>
        <time>2018-02-02T09:35:40Z</time>
      </trkpt>
      <trkpt lat="45.9247" lon="4.73614">
        <ele>174</ele>
        <time>2018-02-02T09:35:42Z</time>
      </trkpt>
      <trkpt lat="45.9247" lon="4.73608">
        <ele>174</ele>
        <time>2018-02-02T09:35:43Z</time>
      </trkpt>
      <trkpt lat="45.92469" lon="4.73598">
        <ele>174</ele>
        <time>2018-02-02T09:35:45Z</time>
      </trkpt>
      <trkpt lat="45.92469" lon="4.73593">
        <ele>174</ele>
        <time>2018-02-02T09:35:46Z</time>
      </trkpt>
      <trkpt lat="45.92468" lon="4.73582">
        <ele>173</ele>
        <time>2018-02-02T09:35:48Z</time>
      </trkpt>
      <trkpt lat="45.92468" lon="4.73576">
        <ele>173</ele>
        <time>2018-02-02T09:35:49Z</time>
      </trkpt>
      <trkpt lat="45.92468" lon="4.73566">
        <ele>173</ele>
        <time>2018-02-02T09:35:51Z</time>
      </trkpt>
      <trkpt lat="45.92468" lon="4.73561">
        <ele>173</ele>
        <time>2018-02-02T09:35:52Z</time>
      </trkpt>
      <trkpt lat="45.92466" lon="4.73552">
        <ele>173</ele>
        <time>2018-02-02T09:35:54Z</time>
      </trkpt>
      <trkpt lat="45.92465" lon="4.73549">
        <ele>173</ele>
        <time>2018-02-02T09:35:55Z</time>
      </trkpt>
      <trkpt lat="45.92459" lon="4.73545">
        <ele>173</ele>
        <time>2018-02-02T09:35:57Z</time>
      </trkpt>
      <trkpt lat="45.92455" lon="4.73545">
        <ele>174</ele>
        <time>2018-02-02T09:35:58Z</time>
      </trkpt>
      <trkpt lat="45.92448" lon="4.73547">
        <ele>174</ele>
        <time>2018-02-02T09:36:00Z</time>
      </trkpt>
      <trkpt lat="45.92444" lon="4.73549">
        <ele>174</ele>
        <time>2018-02-02T09:36:01Z</time>
      </trkpt>
      <trkpt lat="45.92436" lon="4.73554">
        <ele>174</ele>
        <time>2018-02-02T09:36:03Z</time>
      </trkpt>
      <trkpt lat="45.92432" lon="4.73556">
        <ele>174</ele>
        <time>2018-02-02T09:36:04Z</time>
      </trkpt>
      <trkpt lat="45.92424" lon="4.7356">
        <ele>174</ele>
        <time>2018-02-02T09:36:06Z</time>
      </trkpt>
      <trkpt lat="45.9242" lon="4.73562">
        <ele>174</ele>
        <time>2018-02-02T09:36:07Z</time>
      </trkpt>
      <trkpt lat="45.92412" lon="4.73566">
        <ele>173</ele>
        <time>2018-02-02T09:36:09Z</time>
      </trkpt>
      <trkpt lat="45.92408" lon="4.73568">
        <ele>173</ele>
        <time>2018-02-02T09:36:10Z</time>
      </trkpt>
      <trkpt lat="45.92401" lon="4.73572">
        <ele>173</ele>
        <time>2018-02-02T09:36:12Z</time>
      </trkpt>
      <trkpt lat="45.92397" lon="4.73575">
        <ele>173</ele>
        <time>2018-02-02T09:36:13Z</time>
      </trkpt>
      <trkpt lat="45.92389" lon="4.7358">
        <ele>173</ele>
        <time>2018-02-02T09:36:15Z</time>
      </trkpt>
      <trkpt lat="45.92385" lon="4.73581">
        <ele>173</ele>
        <time>2018-02-02T09:36:16Z</time>
      </trkpt>
      <trkpt lat="45.9238" lon="4.73583">
        <ele>173</ele>
        <time>2018-02-02T09:36:17Z</time>
      </trkpt>
      <trkpt lat="45.92376" lon="4.73585">
        <ele>173</ele>
        <time>2018-02-02T09:36:18Z</time>
      </trkpt>
      <trkpt lat="45.92368" lon="4.73588">
        <ele>173</ele>
        <time>2018-02-02T09:36:20Z</time>
      </trkpt>
      <trkpt lat="45.92364" lon="4.7359">
        <ele>173</ele>
        <time>2018-02-02T09:36:21Z</time>
      </trkpt>
      <trkpt lat="45.92356" lon="4.73594">
        <ele>173</ele>
        <time>2018-02-02T09:36:23Z</time>
      </trkpt>
      <trkpt lat="45.92352" lon="4.73596">
        <ele>173</ele>
        <time>2018-02-02T09:36:24Z</time>
      </trkpt>
      <trkpt lat="45.92344" lon="4.736">
        <ele>173</ele>
        <time>2018-02-02T09:36:26Z</time>
      </trkpt>
      <trkpt lat="45.92339" lon="4.73603">
        <ele>173</ele>
        <time>2018-02-02T09:36:27Z</time>
      </trkpt>
      <trkpt lat="45.92332" lon="4.73608">
        <ele>172</ele>
        <time>2018-02-02T09:36:29Z</time>
      </trkpt>
      <trkpt lat="45.92327" lon="4.73611">
        <ele>172</ele>
        <time>2018-02-02T09:36:30Z</time>
      </trkpt>
      <trkpt lat="45.92322" lon="4.73613">
        <ele>172</ele>
        <time>2018-02-02T09:36:31Z</time>
      </trkpt>
      <trkpt lat="45.92318" lon="4.73615">
        <ele>172</ele>
        <time>2018-02-02T09:36:32Z</time>
      </trkpt>
      <trkpt lat="45.92314" lon="4.73618">
        <ele>172</ele>
        <time>2018-02-02T09:36:33Z</time>
      </trkpt>
      <trkpt lat="45.9231" lon="4.73621">
        <ele>172</ele>
        <time>2018-02-02T09:36:34Z</time>
      </trkpt>
      <trkpt lat="45.92305" lon="4.73623">
        <ele>172</ele>
        <time>2018-02-02T09:36:35Z</time>
      </trkpt>
      <trkpt lat="45.92301" lon="4.73625">
        <ele>172</ele>
        <time>2018-02-02T09:36:36Z</time>
      </trkpt>
      <trkpt lat="45.92296" lon="4.73628">
        <ele>172</ele>
        <time>2018-02-02T09:36:37Z</time>
      </trkpt>
      <trkpt lat="45.92292" lon="4.7363">
        <ele>172</ele>
        <time>2018-02-02T09:36:38Z</time>
      </trkpt>
      <trkpt lat="45.92287" lon="4.73633">
        <ele>172</ele>
        <time>2018-02-02T09:36:39Z</time>
      </trkpt>
      <trkpt lat="45.92283" lon="4.73636">
        <ele>172</ele>
        <time>2018-02-02T09:36:40Z</time>
      </trkpt>
      <trkpt lat="45.92278" lon="4.7364">
        <ele>172</ele>
        <time>2018-02-02T09:36:41Z</time>
      </trkpt>
      <trkpt lat="45.92273" lon="4.73641">
        <ele>172</ele>
        <time>2018-02-02T09:36:42Z</time>
      </trkpt>
      <trkpt lat="45.92269" lon="4.73644">
        <ele>172</ele>
        <time>2018-02-02T09:36:43Z</time>
      </trkpt>
      <trkpt lat="45.92264" lon="4.73647">
        <ele>171</ele>
        <time>2018-02-02T09:36:44Z</time>
      </trkpt>
      <trkpt lat="45.92259" lon="4.7365">
        <ele>171</ele>
        <time>2018-02-02T09:36:45Z</time>
      </trkpt>
      <trkpt lat="45.92255" lon="4.73652">
        <ele>171</ele>
        <time>2018-02-02T09:36:46Z</time>
      </trkpt>
      <trkpt lat="45.9225" lon="4.73655">
        <ele>171</ele>
        <time>2018-02-02T09:36:47Z</time>
      </trkpt>
      <trkpt lat="45.92245" lon="4.73657">
        <ele>171</ele>
        <time>2018-02-02T09:36:48Z</time>
      </trkpt>
      <trkpt lat="45.92237" lon="4.73661">
        <ele>171</ele>
        <time>2018-02-02T09:36:50Z</time>
      </trkpt>
      <trkpt lat="45.92233" lon="4.73664">
        <ele>171</ele>
        <time>2018-02-02T09:36:51Z</time>
      </trkpt>
      <trkpt lat="45.92228" lon="4.73666">
        <ele>171</ele>
        <time>2018-02-02T09:36:52Z</time>
      </trkpt>
      <trkpt lat="45.92223" lon="4.73669">
        <ele>171</ele>
        <time>2018-02-02T09:36:53Z</time>
      </trkpt>
      <trkpt lat="45.92219" lon="4.73672">
        <ele>171</ele>
        <time>2018-02-02T09:36:54Z</time>
      </trkpt>
      <trkpt lat="45.92214" lon="4.73675">
        <ele>171</ele>
        <time>2018-02-02T09:36:55Z</time>
      </trkpt>
      <trkpt lat="45.92209" lon="4.73678">
        <ele>171</ele>
        <time>2018-02-02T09:36:56Z</time>
      </trkpt>
      <trkpt lat="45.92204" lon="4.7368">
        <ele>171</ele>
        <time>2018-02-02T09:36:57Z</time>
      </trkpt>
      <trkpt lat="45.92199" lon="4.73682">
        <ele>171</ele>
        <time>2018-02-02T09:36:58Z</time>
      </trkpt>
      <trkpt lat="45.92194" lon="4.73685">
        <ele>171</ele>
        <time>2018-02-02T09:36:59Z</time>
      </trkpt>
      <trkpt lat="45.92189" lon="4.73687">
        <ele>171</ele>
        <time>2018-02-02T09:37:00Z</time>
      </trkpt>
      <trkpt lat="45.92185" lon="4.73688">
        <ele>171</ele>
        <time>2018-02-02T09:37:01Z</time>
      </trkpt>
      <trkpt lat="45.9218" lon="4.73691">
        <ele>171</ele>
        <time>2018-02-02T09:37:02Z</time>
      </trkpt>
      <trkpt lat="45.92176" lon="4.73694">
        <ele>171</ele>
        <time>2018-02-02T09:37:03Z</time>
      </trkpt>
      <trkpt lat="45.92171" lon="4.73697">
        <ele>171</ele>
        <time>2018-02-02T09:37:04Z</time>
      </trkpt>
      <trkpt lat="45.92166" lon="4.73699">
        <ele>171</ele>
        <time>2018-02-02T09:37:05Z</time>
      </trkpt>
      <trkpt lat="45.92162" lon="4.73702">
        <ele>171</ele>
        <time>2018-02-02T09:37:06Z</time>
      </trkpt>
      <trkpt lat="45.92156" lon="4.73704">
        <ele>171</ele>
        <time>2018-02-02T09:37:07Z</time>
      </trkpt>
      <trkpt lat="45.92151" lon="4.73706">
        <ele>171</ele>
        <time>2018-02-02T09:37:08Z</time>
      </trkpt>
      <trkpt lat="45.92146" lon="4.73708">
        <ele>171</ele>
        <time>2018-02-02T09:37:09Z</time>
      </trkpt>
      <trkpt lat="45.92141" lon="4.73709">
        <ele>171</ele>
        <time>2018-02-02T09:37:10Z</time>
      </trkpt>
      <trkpt lat="45.92135" lon="4.73711">
        <ele>171</ele>
        <time>2018-02-02T09:37:11Z</time>
      </trkpt>
      <trkpt lat="45.9213" lon="4.73713">
        <ele>171</ele>
        <time>2018-02-02T09:37:12Z</time>
      </trkpt>
      <trkpt lat="45.92125" lon="4.73715">
        <ele>171</ele>
        <time>2018-02-02T09:37:13Z</time>
      </trkpt>
      <trkpt lat="45.9212" lon="4.73716">
        <ele>171</ele>
        <time>2018-02-02T09:37:14Z</time>
      </trkpt>
      <trkpt lat="45.92115" lon="4.73718">
        <ele>171</ele>
        <time>2018-02-02T09:37:15Z</time>
      </trkpt>
      <trkpt lat="45.92109" lon="4.7372">
        <ele>171</ele>
        <time>2018-02-02T09:37:16Z</time>
      </trkpt>
      <trkpt lat="45.92104" lon="4.7372">
        <ele>171</ele>
        <time>2018-02-02T09:37:17Z</time>
      </trkpt>
      <trkpt lat="45.92099" lon="4.73721">
        <ele>171</ele>
        <time>2018-02-02T09:37:18Z</time>
      </trkpt>
      <trkpt lat="45.92094" lon="4.73722">
        <ele>171</ele>
        <time>2018-02-02T09:37:19Z</time>
      </trkpt>
      <trkpt lat="45.92089" lon="4.73723">
        <ele>171</ele>
        <time>2018-02-02T09:37:20Z</time>
      </trkpt>
      <trkpt lat="45.92084" lon="4.73725">
        <ele>171</ele>
        <time>2018-02-02T09:37:21Z</time>
      </trkpt>
      <trkpt lat="45.9208" lon="4.73725">
        <ele>171</ele>
        <time>2018-02-02T09:37:22Z</time>
      </trkpt>
      <trkpt lat="45.92075" lon="4.73726">
        <ele>171</ele>
        <time>2018-02-02T09:37:23Z</time>
      </trkpt>
      <trkpt lat="45.9207" lon="4.73726">
        <ele>171</ele>
        <time>2018-02-02T09:37:24Z</time>
      </trkpt>
      <trkpt lat="45.92065" lon="4.73726">
        <ele>171</ele>
        <time>2018-02-02T09:37:25Z</time>
      </trkpt>
      <trkpt lat="45.92059" lon="4.73726">
        <ele>171</ele>
        <time>2018-02-02T09:37:26Z</time>
      </trkpt>
      <trkpt lat="45.92054" lon="4.73726">
        <ele>171</ele>
        <time>2018-02-02T09:37:27Z</time>
      </trkpt>
      <trkpt lat="45.92049" lon="4.73726">
        <ele>171</ele>
        <time>2018-02-02T09:37:28Z</time>
      </trkpt>
      <trkpt lat="45.92044" lon="4.73726">
        <ele>171</ele>
        <time>2018-02-02T09:37:29Z</time>
      </trkpt>
      <trkpt lat="45.92039" lon="4.73727">
        <ele>171</ele>
        <time>2018-02-02T09:37:30Z</time>
      </trkpt>
      <trkpt lat="45.92034" lon="4.73726">
        <ele>171</ele>
        <time>2018-02-02T09:37:31Z</time>
      </trkpt>
      <trkpt lat="45.92028" lon="4.73725">
        <ele>171</ele>
        <time>2018-02-02T09:37:32Z</time>
      </trkpt>
      <trkpt lat="45.92023" lon="4.73725">
        <ele>171</ele>
        <time>2018-02-02T09:37:33Z</time>
      </trkpt>
      <trkpt lat="45.92019" lon="4.73724">
        <ele>171</ele>
        <time>2018-02-02T09:37:34Z</time>
      </trkpt>
      <trkpt lat="45.92014" lon="4.73724">
        <ele>171</ele>
        <time>2018-02-02T09:37:35Z</time>
      </trkpt>
      <trkpt lat="45.92008" lon="4.73724">
        <ele>171</ele>
        <time>2018-02-02T09:37:36Z</time>
      </trkpt>
      <trkpt lat="45.92003" lon="4.73724">
        <ele>171</ele>
        <time>2018-02-02T09:37:37Z</time>
      </trkpt>
      <trkpt lat="45.91998" lon="4.73724">
        <ele>171</ele>
        <time>2018-02-02T09:37:38Z</time>
      </trkpt>
      <trkpt lat="45.91993" lon="4.73725">
        <ele>171</ele>
        <time>2018-02-02T09:37:39Z</time>
      </trkpt>
      <trkpt lat="45.91988" lon="4.73726">
        <ele>171</ele>
        <time>2018-02-02T09:37:40Z</time>
      </trkpt>
      <trkpt lat="45.91983" lon="4.73725">
        <ele>171</ele>
        <time>2018-02-02T09:37:41Z</time>
      </trkpt>
      <trkpt lat="45.91974" lon="4.73725">
        <ele>171</ele>
        <time>2018-02-02T09:37:43Z</time>
      </trkpt>
      <trkpt lat="45.91968" lon="4.73726">
        <ele>171</ele>
        <time>2018-02-02T09:37:44Z</time>
      </trkpt>
      <trkpt lat="45.91963" lon="4.73726">
        <ele>171</ele>
        <time>2018-02-02T09:37:45Z</time>
      </trkpt>
      <trkpt lat="45.91958" lon="4.73725">
        <ele>170</ele>
        <time>2018-02-02T09:37:46Z</time>
      </trkpt>
      <trkpt lat="45.91953" lon="4.73726">
        <ele>170</ele>
        <time>2018-02-02T09:37:47Z</time>
      </trkpt>
      <trkpt lat="45.91947" lon="4.73726">
        <ele>170</ele>
        <time>2018-02-02T09:37:48Z</time>
      </trkpt>
      <trkpt lat="45.91942" lon="4.73726">
        <ele>170</ele>
        <time>2018-02-02T09:37:49Z</time>
      </trkpt>
      <trkpt lat="45.91937" lon="4.73727">
        <ele>170</ele>
        <time>2018-02-02T09:37:50Z</time>
      </trkpt>
      <trkpt lat="45.91931" lon="4.73727">
        <ele>170</ele>
        <time>2018-02-02T09:37:51Z</time>
      </trkpt>
      <trkpt lat="45.91926" lon="4.73728">
        <ele>170</ele>
        <time>2018-02-02T09:37:52Z</time>
      </trkpt>
      <trkpt lat="45.91921" lon="4.73728">
        <ele>170</ele>
        <time>2018-02-02T09:37:53Z</time>
      </trkpt>
      <trkpt lat="45.91915" lon="4.73728">
        <ele>171</ele>
        <time>2018-02-02T09:37:54Z</time>
      </trkpt>
      <trkpt lat="45.9191" lon="4.73729">
        <ele>171</ele>
        <time>2018-02-02T09:37:55Z</time>
      </trkpt>
      <trkpt lat="45.91904" lon="4.7373">
        <ele>171</ele>
        <time>2018-02-02T09:37:56Z</time>
      </trkpt>
      <trkpt lat="45.91899" lon="4.73729">
        <ele>171</ele>
        <time>2018-02-02T09:37:57Z</time>
      </trkpt>
      <trkpt lat="45.91894" lon="4.73729">
        <ele>171</ele>
        <time>2018-02-02T09:37:58Z</time>
      </trkpt>
      <trkpt lat="45.9189" lon="4.73729">
        <ele>171</ele>
        <time>2018-02-02T09:37:59Z</time>
      </trkpt>
      <trkpt lat="45.91885" lon="4.73729">
        <ele>171</ele>
        <time>2018-02-02T09:38:00Z</time>
      </trkpt>
      <trkpt lat="45.9188" lon="4.73729">
        <ele>171</ele>
        <time>2018-02-02T09:38:01Z</time>
      </trkpt>
      <trkpt lat="45.91875" lon="4.73729">
        <ele>171</ele>
        <time>2018-02-02T09:38:02Z</time>
      </trkpt>
      <trkpt lat="45.91867" lon="4.73728">
        <ele>171</ele>
        <time>2018-02-02T09:38:04Z</time>
      </trkpt>
      <trkpt lat="45.91862" lon="4.73727">
        <ele>171</ele>
        <time>2018-02-02T09:38:05Z</time>
      </trkpt>
      <trkpt lat="45.91856" lon="4.73727">
        <ele>171</ele>
        <time>2018-02-02T09:38:06Z</time>
      </trkpt>
      <trkpt lat="45.91851" lon="4.73727">
        <ele>171</ele>
        <time>2018-02-02T09:38:07Z</time>
      </trkpt>
      <trkpt lat="45.91845" lon="4.73727">
        <ele>172</ele>
        <time>2018-02-02T09:38:08Z</time>
      </trkpt>
      <trkpt lat="45.91841" lon="4.73728">
        <ele>172</ele>
        <time>2018-02-02T09:38:09Z</time>
      </trkpt>
      <trkpt lat="45.91836" lon="4.73729">
        <ele>172</ele>
        <time>2018-02-02T09:38:10Z</time>
      </trkpt>
      <trkpt lat="45.91831" lon="4.73729">
        <ele>172</ele>
        <time>2018-02-02T09:38:11Z</time>
      </trkpt>
      <trkpt lat="45.91826" lon="4.73729">
        <ele>172</ele>
        <time>2018-02-02T09:38:12Z</time>
      </trkpt>
      <trkpt lat="45.91821" lon="4.73729">
        <ele>172</ele>
        <time>2018-02-02T09:38:13Z</time>
      </trkpt>
      <trkpt lat="45.91815" lon="4.73729">
        <ele>172</ele>
        <time>2018-02-02T09:38:14Z</time>
      </trkpt>
      <trkpt lat="45.91811" lon="4.73729">
        <ele>172</ele>
        <time>2018-02-02T09:38:15Z</time>
      </trkpt>
      <trkpt lat="45.91806" lon="4.73729">
        <ele>172</ele>
        <time>2018-02-02T09:38:16Z</time>
      </trkpt>
      <trkpt lat="45.91801" lon="4.73728">
        <ele>172</ele>
        <time>2018-02-02T09:38:17Z</time>
      </trkpt>
      <trkpt lat="45.91793" lon="4.73727">
        <ele>172</ele>
        <time>2018-02-02T09:38:19Z</time>
      </trkpt>
      <trkpt lat="45.91789" lon="4.73728">
        <ele>173</ele>
        <time>2018-02-02T09:38:20Z</time>
      </trkpt>
      <trkpt lat="45.91782" lon="4.73727">
        <ele>173</ele>
        <time>2018-02-02T09:38:21Z</time>
      </trkpt>
      <trkpt lat="45.91778" lon="4.73726">
        <ele>173</ele>
        <time>2018-02-02T09:38:22Z</time>
      </trkpt>
      <trkpt lat="45.91772" lon="4.73726">
        <ele>173</ele>
        <time>2018-02-02T09:38:23Z</time>
      </trkpt>
      <trkpt lat="45.91767" lon="4.73726">
        <ele>173</ele>
        <time>2018-02-02T09:38:24Z</time>
      </trkpt>
      <trkpt lat="45.91761" lon="4.73726">
        <ele>173</ele>
        <time>2018-02-02T09:38:25Z</time>
      </trkpt>
      <trkpt lat="45.91756" lon="4.73726">
        <ele>173</ele>
        <time>2018-02-02T09:38:26Z</time>
      </trkpt>
      <trkpt lat="45.91751" lon="4.73727">
        <ele>173</ele>
        <time>2018-02-02T09:38:27Z</time>
      </trkpt>
      <trkpt lat="45.91745" lon="4.73729">
        <ele>173</ele>
        <time>2018-02-02T09:38:28Z</time>
      </trkpt>
      <trkpt lat="45.9174" lon="4.73729">
        <ele>173</ele>
        <time>2018-02-02T09:38:29Z</time>
      </trkpt>
      <trkpt lat="45.91735" lon="4.73728">
        <ele>173</ele>
        <time>2018-02-02T09:38:30Z</time>
      </trkpt>
      <trkpt lat="45.9173" lon="4.73729">
        <ele>173</ele>
        <time>2018-02-02T09:38:31Z</time>
      </trkpt>
      <trkpt lat="45.91725" lon="4.7373">
        <ele>173</ele>
        <time>2018-02-02T09:38:32Z</time>
      </trkpt>
      <trkpt lat="45.9172" lon="4.73731">
        <ele>173</ele>
        <time>2018-02-02T09:38:33Z</time>
      </trkpt>
      <trkpt lat="45.91714" lon="4.73732">
        <ele>173</ele>
        <time>2018-02-02T09:38:34Z</time>
      </trkpt>
      <trkpt lat="45.91709" lon="4.73732">
        <ele>173</ele>
        <time>2018-02-02T09:38:35Z</time>
      </trkpt>
      <trkpt lat="45.91703" lon="4.73732">
        <ele>172</ele>
        <time>2018-02-02T09:38:36Z</time>
      </trkpt>
      <trkpt lat="45.91698" lon="4.73732">
        <ele>172</ele>
        <time>2018-02-02T09:38:37Z</time>
      </trkpt>
      <trkpt lat="45.91693" lon="4.73731">
        <ele>172</ele>
        <time>2018-02-02T09:38:38Z</time>
      </trkpt>
      <trkpt lat="45.91688" lon="4.73732">
        <ele>172</ele>
        <time>2018-02-02T09:38:39Z</time>
      </trkpt>
      <trkpt lat="45.91683" lon="4.73732">
        <ele>172</ele>
        <time>2018-02-02T09:38:40Z</time>
      </trkpt>
      <trkpt lat="45.91678" lon="4.73732">
        <ele>172</ele>
        <time>2018-02-02T09:38:41Z</time>
      </trkpt>
      <trkpt lat="45.91673" lon="4.73731">
        <ele>172</ele>
        <time>2018-02-02T09:38:42Z</time>
      </trkpt>
      <trkpt lat="45.91669" lon="4.73732">
        <ele>172</ele>
        <time>2018-02-02T09:38:43Z</time>
      </trkpt>
      <trkpt lat="45.91663" lon="4.73732">
        <ele>172</ele>
        <time>2018-02-02T09:38:44Z</time>
      </trkpt>
      <trkpt lat="45.91658" lon="4.73732">
        <ele>172</ele>
        <time>2018-02-02T09:38:45Z</time>
      </trkpt>
      <trkpt lat="45.91653" lon="4.73733">
        <ele>172</ele>
        <time>2018-02-02T09:38:46Z</time>
      </trkpt>
      <trkpt lat="45.91644" lon="4.73732">
        <ele>172</ele>
        <time>2018-02-02T09:38:48Z</time>
      </trkpt>
      <trkpt lat="45.91639" lon="4.73733">
        <ele>172</ele>
        <time>2018-02-02T09:38:49Z</time>
      </trkpt>
      <trkpt lat="45.91633" lon="4.73733">
        <ele>172</ele>
        <time>2018-02-02T09:38:50Z</time>
      </trkpt>
      <trkpt lat="45.91627" lon="4.73734">
        <ele>172</ele>
        <time>2018-02-02T09:38:51Z</time>
      </trkpt>
      <trkpt lat="45.91622" lon="4.73734">
        <ele>173</ele>
        <time>2018-02-02T09:38:52Z</time>
      </trkpt>
      <trkpt lat="45.91617" lon="4.73733">
        <ele>173</ele>
        <time>2018-02-02T09:38:53Z</time>
      </trkpt>
      <trkpt lat="45.91612" lon="4.73734">
        <ele>173</ele>
        <time>2018-02-02T09:38:54Z</time>
      </trkpt>
      <trkpt lat="45.91608" lon="4.73733">
        <ele>173</ele>
        <time>2018-02-02T09:38:55Z</time>
      </trkpt>
      <trkpt lat="45.91602" lon="4.73733">
        <ele>173</ele>
        <time>2018-02-02T09:38:56Z</time>
      </trkpt>
      <trkpt lat="45.91596" lon="4.73733">
        <ele>173</ele>
        <time>2018-02-02T09:38:57Z</time>
      </trkpt>
      <trkpt lat="45.91591" lon="4.73734">
        <ele>173</ele>
        <time>2018-02-02T09:38:58Z</time>
      </trkpt>
      <trkpt lat="45.91586" lon="4.73734">
        <ele>173</ele>
        <time>2018-02-02T09:38:59Z</time>
      </trkpt>
      <trkpt lat="45.91581" lon="4.73734">
        <ele>173</ele>
        <time>2018-02-02T09:39:00Z</time>
      </trkpt>
      <trkpt lat="45.91576" lon="4.73734">
        <ele>173</ele>
        <time>2018-02-02T09:39:01Z</time>
      </trkpt>
      <trkpt lat="45.91571" lon="4.73734">
        <ele>173</ele>
        <time>2018-02-02T09:39:02Z</time>
      </trkpt>
      <trkpt lat="45.91565" lon="4.73733">
        <ele>173</ele>
        <time>2018-02-02T09:39:03Z</time>
      </trkpt>
      <trkpt lat="45.9156" lon="4.73733">
        <ele>174</ele>
        <time>2018-02-02T09:39:04Z</time>
      </trkpt>
      <trkpt lat="45.91555" lon="4.73734">
        <ele>174</ele>
        <time>2018-02-02T09:39:05Z</time>
      </trkpt>
      <trkpt lat="45.91549" lon="4.73734">
        <ele>174</ele>
        <time>2018-02-02T09:39:06Z</time>
      </trkpt>
      <trkpt lat="45.91545" lon="4.73735">
        <ele>174</ele>
        <time>2018-02-02T09:39:07Z</time>
      </trkpt>
      <trkpt lat="45.9154" lon="4.73735">
        <ele>174</ele>
        <time>2018-02-02T09:39:08Z</time>
      </trkpt>
      <trkpt lat="45.91534" lon="4.73735">
        <ele>174</ele>
        <time>2018-02-02T09:39:09Z</time>
      </trkpt>
      <trkpt lat="45.91528" lon="4.73735">
        <ele>174</ele>
        <time>2018-02-02T09:39:10Z</time>
      </trkpt>
      <trkpt lat="45.91522" lon="4.73735">
        <ele>174</ele>
        <time>2018-02-02T09:39:11Z</time>
      </trkpt>
      <trkpt lat="45.91516" lon="4.73735">
        <ele>174</ele>
        <time>2018-02-02T09:39:12Z</time>
      </trkpt>
      <trkpt lat="45.91511" lon="4.73735">
        <ele>174</ele>
        <time>2018-02-02T09:39:13Z</time>
      </trkpt>
      <trkpt lat="45.91505" lon="4.73736">
        <ele>174</ele>
        <time>2018-02-02T09:39:14Z</time>
      </trkpt>
      <trkpt lat="45.915" lon="4.73736">
        <ele>174</ele>
        <time>2018-02-02T09:39:15Z</time>
      </trkpt>
      <trkpt lat="45.91495" lon="4.73735">
        <ele>174</ele>
        <time>2018-02-02T09:39:16Z</time>
      </trkpt>
      <trkpt lat="45.91489" lon="4.73735">
        <ele>174</ele>
        <time>2018-02-02T09:39:17Z</time>
      </trkpt>
      <trkpt lat="45.91484" lon="4.73735">
        <ele>174</ele>
        <time>2018-02-02T09:39:18Z</time>
      </trkpt>
      <trkpt lat="45.91479" lon="4.73735">
        <ele>174</ele>
        <time>2018-02-02T09:39:19Z</time>
      </trkpt>
      <trkpt lat="45.91474" lon="4.73735">
        <ele>174</ele>
        <time>2018-02-02T09:39:20Z</time>
      </trkpt>
      <trkpt lat="45.91469" lon="4.73735">
        <ele>174</ele>
        <time>2018-02-02T09:39:21Z</time>
      </trkpt>
      <trkpt lat="45.91464" lon="4.73734">
        <ele>174</ele>
        <time>2018-02-02T09:39:22Z</time>
      </trkpt>
      <trkpt lat="45.91459" lon="4.73735">
        <ele>174</ele>
        <time>2018-02-02T09:39:23Z</time>
      </trkpt>
      <trkpt lat="45.91452" lon="4.73736">
        <ele>173</ele>
        <time>2018-02-02T09:39:24Z</time>
      </trkpt>
      <trkpt lat="45.91447" lon="4.73736">
        <ele>173</ele>
        <time>2018-02-02T09:39:25Z</time>
      </trkpt>
      <trkpt lat="45.91441" lon="4.73735">
        <ele>173</ele>
        <time>2018-02-02T09:39:26Z</time>
      </trkpt>
      <trkpt lat="45.91436" lon="4.73735">
        <ele>173</ele>
        <time>2018-02-02T09:39:27Z</time>
      </trkpt>
      <trkpt lat="45.9143" lon="4.73735">
        <ele>173</ele>
        <time>2018-02-02T09:39:28Z</time>
      </trkpt>
      <trkpt lat="45.91425" lon="4.73735">
        <ele>173</ele>
        <time>2018-02-02T09:39:29Z</time>
      </trkpt>
      <trkpt lat="45.9142" lon="4.73734">
        <ele>173</ele>
        <time>2018-02-02T09:39:30Z</time>
      </trkpt>
      <trkpt lat="45.91414" lon="4.73734">
        <ele>173</ele>
        <time>2018-02-02T09:39:31Z</time>
      </trkpt>
      <trkpt lat="45.91409" lon="4.73735">
        <ele>173</ele>
        <time>2018-02-02T09:39:32Z</time>
      </trkpt>
      <trkpt lat="45.91404" lon="4.73735">
        <ele>173</ele>
        <time>2018-02-02T09:39:33Z</time>
      </trkpt>
      <trkpt lat="45.91399" lon="4.73735">
        <ele>173</ele>
        <time>2018-02-02T09:39:34Z</time>
      </trkpt>
      <trkpt lat="45.91393" lon="4.73735">
        <ele>173</ele>
        <time>2018-02-02T09:39:35Z</time>
      </trkpt>
      <trkpt lat="45.91389" lon="4.73734">
        <ele>173</ele>
        <time>2018-02-02T09:39:36Z</time>
      </trkpt>
      <trkpt lat="45.91384" lon="4.73734">
        <ele>173</ele>
        <time>2018-02-02T09:39:37Z</time>
      </trkpt>
      <trkpt lat="45.91378" lon="4.73734">
        <ele>173</ele>
        <time>2018-02-02T09:39:38Z</time>
      </trkpt>
      <trkpt lat="45.91373" lon="4.73734">
        <ele>173</ele>
        <time>2018-02-02T09:39:39Z</time>
      </trkpt>
      <trkpt lat="45.91367" lon="4.73733">
        <ele>173</ele>
        <time>2018-02-02T09:39:40Z</time>
      </trkpt>
      <trkpt lat="45.91362" lon="4.73734">
        <ele>173</ele>
        <time>2018-02-02T09:39:41Z</time>
      </trkpt>
      <trkpt lat="45.91357" lon="4.73734">
        <ele>173</ele>
        <time>2018-02-02T09:39:42Z</time>
      </trkpt>
      <trkpt lat="45.91352" lon="4.73735">
        <ele>173</ele>
        <time>2018-02-02T09:39:43Z</time>
      </trkpt>
      <trkpt lat="45.91347" lon="4.73735">
        <ele>173</ele>
        <time>2018-02-02T09:39:44Z</time>
      </trkpt>
      <trkpt lat="45.91342" lon="4.73736">
        <ele>173</ele>
        <time>2018-02-02T09:39:45Z</time>
      </trkpt>
      <trkpt lat="45.91336" lon="4.73736">
        <ele>173</ele>
        <time>2018-02-02T09:39:46Z</time>
      </trkpt>
      <trkpt lat="45.91331" lon="4.73736">
        <ele>173</ele>
        <time>2018-02-02T09:39:47Z</time>
      </trkpt>
      <trkpt lat="45.91324" lon="4.73736">
        <ele>174</ele>
        <time>2018-02-02T09:39:48Z</time>
      </trkpt>
      <trkpt lat="45.9132" lon="4.73736">
        <ele>174</ele>
        <time>2018-02-02T09:39:49Z</time>
      </trkpt>
      <trkpt lat="45.91315" lon="4.73736">
        <ele>174</ele>
        <time>2018-02-02T09:39:50Z</time>
      </trkpt>
      <trkpt lat="45.91308" lon="4.73737">
        <ele>174</ele>
        <time>2018-02-02T09:39:51Z</time>
      </trkpt>
      <trkpt lat="45.91302" lon="4.73737">
        <ele>174</ele>
        <time>2018-02-02T09:39:52Z</time>
      </trkpt>
      <trkpt lat="45.91296" lon="4.73737">
        <ele>174</ele>
        <time>2018-02-02T09:39:53Z</time>
      </trkpt>
      <trkpt lat="45.9129" lon="4.73738">
        <ele>174</ele>
        <time>2018-02-02T09:39:54Z</time>
      </trkpt>
      <trkpt lat="45.91285" lon="4.73738">
        <ele>174</ele>
        <time>2018-02-02T09:39:55Z</time>
      </trkpt>
      <trkpt lat="45.91279" lon="4.73738">
        <ele>174</ele>
        <time>2018-02-02T09:39:56Z</time>
      </trkpt>
      <trkpt lat="45.91274" lon="4.73738">
        <ele>174</ele>
        <time>2018-02-02T09:39:57Z</time>
      </trkpt>
      <trkpt lat="45.91269" lon="4.73739">
        <ele>174</ele>
        <time>2018-02-02T09:39:58Z</time>
      </trkpt>
      <trkpt lat="45.91264" lon="4.73738">
        <ele>174</ele>
        <time>2018-02-02T09:39:59Z</time>
      </trkpt>
      <trkpt lat="45.91259" lon="4.73739">
        <ele>175</ele>
        <time>2018-02-02T09:40:00Z</time>
      </trkpt>
      <trkpt lat="45.91254" lon="4.73738">
        <ele>175</ele>
        <time>2018-02-02T09:40:01Z</time>
      </trkpt>
      <trkpt lat="45.91248" lon="4.73737">
        <ele>175</ele>
        <time>2018-02-02T09:40:02Z</time>
      </trkpt>
      <trkpt lat="45.91243" lon="4.73738">
        <ele>175</ele>
        <time>2018-02-02T09:40:03Z</time>
      </trkpt>
      <trkpt lat="45.91238" lon="4.73739">
        <ele>175</ele>
        <time>2018-02-02T09:40:04Z</time>
      </trkpt>
      <trkpt lat="45.91232" lon="4.73739">
        <ele>175</ele>
        <time>2018-02-02T09:40:05Z</time>
      </trkpt>
      <trkpt lat="45.91227" lon="4.73738">
        <ele>175</ele>
        <time>2018-02-02T09:40:06Z</time>
      </trkpt>
      <trkpt lat="45.91222" lon="4.73738">
        <ele>175</ele>
        <time>2018-02-02T09:40:07Z</time>
      </trkpt>
      <trkpt lat="45.91216" lon="4.73739">
        <ele>175</ele>
        <time>2018-02-02T09:40:08Z</time>
      </trkpt>
      <trkpt lat="45.91211" lon="4.73739">
        <ele>175</ele>
        <time>2018-02-02T09:40:09Z</time>
      </trkpt>
      <trkpt lat="45.91205" lon="4.73739">
        <ele>175</ele>
        <time>2018-02-02T09:40:10Z</time>
      </trkpt>
      <trkpt lat="45.91199" lon="4.73739">
        <ele>175</ele>
        <time>2018-02-02T09:40:11Z</time>
      </trkpt>
      <trkpt lat="45.91194" lon="4.73738">
        <ele>175</ele>
        <time>2018-02-02T09:40:12Z</time>
      </trkpt>
      <trkpt lat="45.91189" lon="4.73737">
        <ele>175</ele>
        <time>2018-02-02T09:40:13Z</time>
      </trkpt>
      <trkpt lat="45.91184" lon="4.73736">
        <ele>175</ele>
        <time>2018-02-02T09:40:14Z</time>
      </trkpt>
      <trkpt lat="45.91179" lon="4.73734">
        <ele>175</ele>
        <time>2018-02-02T09:40:15Z</time>
      </trkpt>
      <trkpt lat="45.91176" lon="4.73732">
        <ele>175</ele>
        <time>2018-02-02T09:40:16Z</time>
      </trkpt>
      <trkpt lat="45.91171" lon="4.7373">
        <ele>175</ele>
        <time>2018-02-02T09:40:17Z</time>
      </trkpt>
      <trkpt lat="45.91162" lon="4.73729">
        <ele>175</ele>
        <time>2018-02-02T09:40:19Z</time>
      </trkpt>
      <trkpt lat="45.91158" lon="4.73726">
        <ele>175</ele>
        <time>2018-02-02T09:40:20Z</time>
      </trkpt>
      <trkpt lat="45.9115" lon="4.7372">
        <ele>174</ele>
        <time>2018-02-02T09:40:22Z</time>
      </trkpt>
      <trkpt lat="45.91147" lon="4.73715">
        <ele>174</ele>
        <time>2018-02-02T09:40:23Z</time>
      </trkpt>
      <trkpt lat="45.91142" lon="4.73705">
        <ele>174</ele>
        <time>2018-02-02T09:40:25Z</time>
      </trkpt>
      <trkpt lat="45.9114" lon="4.73699">
        <ele>174</ele>
        <time>2018-02-02T09:40:26Z</time>
      </trkpt>
      <trkpt lat="45.91137" lon="4.73693">
        <ele>174</ele>
        <time>2018-02-02T09:40:27Z</time>
      </trkpt>
      <trkpt lat="45.91133" lon="4.73687">
        <ele>174</ele>
        <time>2018-02-02T09:40:28Z</time>
      </trkpt>
      <trkpt lat="45.91131" lon="4.73681">
        <ele>174</ele>
        <time>2018-02-02T09:40:29Z</time>
      </trkpt>
      <trkpt lat="45.91128" lon="4.73675">
        <ele>174</ele>
        <time>2018-02-02T09:40:30Z</time>
      </trkpt>
      <trkpt lat="45.91125" lon="4.73669">
        <ele>174</ele>
        <time>2018-02-02T09:40:31Z</time>
      </trkpt>
      <trkpt lat="45.91123" lon="4.73663">
        <ele>174</ele>
        <time>2018-02-02T09:40:32Z</time>
      </trkpt>
      <trkpt lat="45.9112" lon="4.73658">
        <ele>174</ele>
        <time>2018-02-02T09:40:33Z</time>
      </trkpt>
      <trkpt lat="45.91118" lon="4.73652">
        <ele>174</ele>
        <time>2018-02-02T09:40:34Z</time>
      </trkpt>
      <trkpt lat="45.91115" lon="4.73645">
        <ele>174</ele>
        <time>2018-02-02T09:40:35Z</time>
      </trkpt>
      <trkpt lat="45.91112" lon="4.7364">
        <ele>174</ele>
        <time>2018-02-02T09:40:36Z</time>
      </trkpt>
      <trkpt lat="45.9111" lon="4.73633">
        <ele>174</ele>
        <time>2018-02-02T09:40:37Z</time>
      </trkpt>
      <trkpt lat="45.91107" lon="4.73627">
        <ele>174</ele>
        <time>2018-02-02T09:40:38Z</time>
      </trkpt>
      <trkpt lat="45.91104" lon="4.73622">
        <ele>174</ele>
        <time>2018-02-02T09:40:39Z</time>
      </trkpt>
      <trkpt lat="45.91101" lon="4.73616">
        <ele>174</ele>
        <time>2018-02-02T09:40:40Z</time>
      </trkpt>
      <trkpt lat="45.91099" lon="4.73609">
        <ele>174</ele>
        <time>2018-02-02T09:40:41Z</time>
      </trkpt>
      <trkpt lat="45.91096" lon="4.73603">
        <ele>174</ele>
        <time>2018-02-02T09:40:42Z</time>
      </trkpt>
      <trkpt lat="45.91093" lon="4.73598">
        <ele>174</ele>
        <time>2018-02-02T09:40:43Z</time>
      </trkpt>
      <trkpt lat="45.9109" lon="4.73592">
        <ele>174</ele>
        <time>2018-02-02T09:40:44Z</time>
      </trkpt>
      <trkpt lat="45.91088" lon="4.73585">
        <ele>174</ele>
        <time>2018-02-02T09:40:45Z</time>
      </trkpt>
      <trkpt lat="45.91086" lon="4.73579">
        <ele>174</ele>
        <time>2018-02-02T09:40:46Z</time>
      </trkpt>
      <trkpt lat="45.91083" lon="4.73574">
        <ele>174</ele>
        <time>2018-02-02T09:40:47Z</time>
      </trkpt>
      <trkpt lat="45.9108" lon="4.73568">
        <ele>174</ele>
        <time>2018-02-02T09:40:48Z</time>
      </trkpt>
      <trkpt lat="45.91078" lon="4.73562">
        <ele>174</ele>
        <time>2018-02-02T09:40:49Z</time>
      </trkpt>
      <trkpt lat="45.91075" lon="4.73556">
        <ele>174</ele>
        <time>2018-02-02T09:40:50Z</time>
      </trkpt>
      <trkpt lat="45.91071" lon="4.73551">
        <ele>174</ele>
        <time>2018-02-02T09:40:51Z</time>
      </trkpt>
      <trkpt lat="45.91069" lon="4.73545">
        <ele>174</ele>
        <time>2018-02-02T09:40:52Z</time>
      </trkpt>
      <trkpt lat="45.91065" lon="4.73538">
        <ele>175</ele>
        <time>2018-02-02T09:40:53Z</time>
      </trkpt>
      <trkpt lat="45.91063" lon="4.73532">
        <ele>175</ele>
        <time>2018-02-02T09:40:54Z</time>
      </trkpt>
      <trkpt lat="45.91061" lon="4.73527">
        <ele>175</ele>
        <time>2018-02-02T09:40:55Z</time>
      </trkpt>
      <trkpt lat="45.91059" lon="4.73521">
        <ele>175</ele>
        <time>2018-02-02T09:40:56Z</time>
      </trkpt>
      <trkpt lat="45.91057" lon="4.73515">
        <ele>175</ele>
        <time>2018-02-02T09:40:57Z</time>
      </trkpt>
      <trkpt lat="45.91055" lon="4.73509">
        <ele>175</ele>
        <time>2018-02-02T09:40:58Z</time>
      </trkpt>
      <trkpt lat="45.91052" lon="4.73503">
        <ele>175</ele>
        <time>2018-02-02T09:40:59Z</time>
      </trkpt>
      <trkpt lat="45.91049" lon="4.73496">
        <ele>175</ele>
        <time>2018-02-02T09:41:00Z</time>
      </trkpt>
      <trkpt lat="45.91046" lon="4.73491">
        <ele>175</ele>
        <time>2018-02-02T09:41:01Z</time>
      </trkpt>
      <trkpt lat="45.91044" lon="4.73485">
        <ele>175</ele>
        <time>2018-02-02T09:41:02Z</time>
      </trkpt>
      <trkpt lat="45.91042" lon="4.7348">
        <ele>175</ele>
        <time>2018-02-02T09:41:03Z</time>
      </trkpt>
      <trkpt lat="45.91039" lon="4.73473">
        <ele>175</ele>
        <time>2018-02-02T09:41:04Z</time>
      </trkpt>
      <trkpt lat="45.91038" lon="4.73467">
        <ele>175</ele>
        <time>2018-02-02T09:41:05Z</time>
      </trkpt>
      <trkpt lat="45.91036" lon="4.7346">
        <ele>175</ele>
        <time>2018-02-02T09:41:06Z</time>
      </trkpt>
      <trkpt lat="45.91035" lon="4.73448">
        <ele>175</ele>
        <time>2018-02-02T09:41:08Z</time>
      </trkpt>
      <trkpt lat="45.91036" lon="4.73442">
        <ele>175</ele>
        <time>2018-02-02T09:41:09Z</time>
      </trkpt>
      <trkpt lat="45.91036" lon="4.73435">
        <ele>175</ele>
        <time>2018-02-02T09:41:10Z</time>
      </trkpt>
      <trkpt lat="45.91036" lon="4.73428">
        <ele>175</ele>
        <time>2018-02-02T09:41:11Z</time>
      </trkpt>
      <trkpt lat="45.91034" lon="4.73421">
        <ele>175</ele>
        <time>2018-02-02T09:41:12Z</time>
      </trkpt>
      <trkpt lat="45.91031" lon="4.73416">
        <ele>174</ele>
        <time>2018-02-02T09:41:13Z</time>
      </trkpt>
      <trkpt lat="45.91027" lon="4.73412">
        <ele>174</ele>
        <time>2018-02-02T09:41:14Z</time>
      </trkpt>
      <trkpt lat="45.91022" lon="4.7341">
        <ele>174</ele>
        <time>2018-02-02T09:41:15Z</time>
      </trkpt>
      <trkpt lat="45.91017" lon="4.73412">
        <ele>174</ele>
        <time>2018-02-02T09:41:16Z</time>
      </trkpt>
      <trkpt lat="45.91012" lon="4.73415">
        <ele>175</ele>
        <time>2018-02-02T09:41:17Z</time>
      </trkpt>
      <trkpt lat="45.91009" lon="4.7342">
        <ele>175</ele>
        <time>2018-02-02T09:41:18Z</time>
      </trkpt>
      <trkpt lat="45.91007" lon="4.73426">
        <ele>175</ele>
        <time>2018-02-02T09:41:19Z</time>
      </trkpt>
      <trkpt lat="45.91003" lon="4.73431">
        <ele>175</ele>
        <time>2018-02-02T09:41:20Z</time>
      </trkpt>
      <trkpt lat="45.90998" lon="4.73435">
        <ele>175</ele>
        <time>2018-02-02T09:41:21Z</time>
      </trkpt>
      <trkpt lat="45.90992" lon="4.7344">
        <ele>175</ele>
        <time>2018-02-02T09:41:22Z</time>
      </trkpt>
      <trkpt lat="45.90988" lon="4.73443">
        <ele>175</ele>
        <time>2018-02-02T09:41:23Z</time>
      </trkpt>
      <trkpt lat="45.90983" lon="4.73445">
        <ele>175</ele>
        <time>2018-02-02T09:41:24Z</time>
      </trkpt>
      <trkpt lat="45.90977" lon="4.73448">
        <ele>175</ele>
        <time>2018-02-02T09:41:25Z</time>
      </trkpt>
      <trkpt lat="45.90972" lon="4.73451">
        <ele>175</ele>
        <time>2018-02-02T09:41:26Z</time>
      </trkpt>
      <trkpt lat="45.90966" lon="4.73454">
        <ele>175</ele>
        <time>2018-02-02T09:41:27Z</time>
      </trkpt>
      <trkpt lat="45.90961" lon="4.73456">
        <ele>175</ele>
        <time>2018-02-02T09:41:28Z</time>
      </trkpt>
      <trkpt lat="45.90956" lon="4.73458">
        <ele>175</ele>
        <time>2018-02-02T09:41:29Z</time>
      </trkpt>
      <trkpt lat="45.9095" lon="4.7346">
        <ele>175</ele>
        <time>2018-02-02T09:41:30Z</time>
      </trkpt>
      <trkpt lat="45.90945" lon="4.73463">
        <ele>175</ele>
        <time>2018-02-02T09:41:31Z</time>
      </trkpt>
      <trkpt lat="45.90941" lon="4.73465">
        <ele>175</ele>
        <time>2018-02-02T09:41:32Z</time>
      </trkpt>
      <trkpt lat="45.90937" lon="4.73467">
        <ele>175</ele>
        <time>2018-02-02T09:41:33Z</time>
      </trkpt>
      <trkpt lat="45.90931" lon="4.73469">
        <ele>175</ele>
        <time>2018-02-02T09:41:34Z</time>
      </trkpt>
      <trkpt lat="45.90927" lon="4.73471">
        <ele>175</ele>
        <time>2018-02-02T09:41:35Z</time>
      </trkpt>
      <trkpt lat="45.90921" lon="4.73472">
        <ele>175</ele>
        <time>2018-02-02T09:41:36Z</time>
      </trkpt>
      <trkpt lat="45.90916" lon="4.73474">
        <ele>175</ele>
        <time>2018-02-02T09:41:37Z</time>
      </trkpt>
      <trkpt lat="45.90911" lon="4.73477">
        <ele>175</ele>
        <time>2018-02-02T09:41:38Z</time>
      </trkpt>
      <trkpt lat="45.90906" lon="4.73479">
        <ele>175</ele>
        <time>2018-02-02T09:41:39Z</time>
      </trkpt>
      <trkpt lat="45.90901" lon="4.73482">
        <ele>175</ele>
        <time>2018-02-02T09:41:40Z</time>
      </trkpt>
      <trkpt lat="45.90895" lon="4.73484">
        <ele>175</ele>
        <time>2018-02-02T09:41:41Z</time>
      </trkpt>
      <trkpt lat="45.9089" lon="4.73487">
        <ele>175</ele>
        <time>2018-02-02T09:41:42Z</time>
      </trkpt>
      <trkpt lat="45.90885" lon="4.73488">
        <ele>175</ele>
        <time>2018-02-02T09:41:43Z</time>
      </trkpt>
      <trkpt lat="45.9088" lon="4.7349">
        <ele>175</ele>
        <time>2018-02-02T09:41:44Z</time>
      </trkpt>
      <trkpt lat="45.90874" lon="4.73493">
        <ele>175</ele>
        <time>2018-02-02T09:41:45Z</time>
      </trkpt>
      <trkpt lat="45.90869" lon="4.73495">
        <ele>175</ele>
        <time>2018-02-02T09:41:46Z</time>
      </trkpt>
      <trkpt lat="45.90864" lon="4.73496">
        <ele>175</ele>
        <time>2018-02-02T09:41:47Z</time>
      </trkpt>
      <trkpt lat="45.90859" lon="4.73499">
        <ele>174</ele>
        <time>2018-02-02T09:41:48Z</time>
      </trkpt>
      <trkpt lat="45.90853" lon="4.73502">
        <ele>174</ele>
        <time>2018-02-02T09:41:49Z</time>
      </trkpt>
      <trkpt lat="45.90848" lon="4.73504">
        <ele>174</ele>
        <time>2018-02-02T09:41:50Z</time>
      </trkpt>
      <trkpt lat="45.90842" lon="4.73506">
        <ele>174</ele>
        <time>2018-02-02T09:41:51Z</time>
      </trkpt>
      <trkpt lat="45.90837" lon="4.73508">
        <ele>174</ele>
        <time>2018-02-02T09:41:52Z</time>
      </trkpt>
      <trkpt lat="45.90831" lon="4.73511">
        <ele>175</ele>
        <time>2018-02-02T09:41:53Z</time>
      </trkpt>
      <trkpt lat="45.90826" lon="4.73514">
        <ele>175</ele>
        <time>2018-02-02T09:41:54Z</time>
      </trkpt>
      <trkpt lat="45.90821" lon="4.73516">
        <ele>175</ele>
        <time>2018-02-02T09:41:55Z</time>
      </trkpt>
      <trkpt lat="45.90815" lon="4.73518">
        <ele>175</ele>
        <time>2018-02-02T09:41:56Z</time>
      </trkpt>
      <trkpt lat="45.9081" lon="4.73521">
        <ele>175</ele>
        <time>2018-02-02T09:41:57Z</time>
      </trkpt>
      <trkpt lat="45.90804" lon="4.73523">
        <ele>175</ele>
        <time>2018-02-02T09:41:58Z</time>
      </trkpt>
      <trkpt lat="45.90799" lon="4.73525">
        <ele>175</ele>
        <time>2018-02-02T09:41:59Z</time>
      </trkpt>
      <trkpt lat="45.90794" lon="4.73527">
        <ele>176</ele>
        <time>2018-02-02T09:42:00Z</time>
      </trkpt>
      <trkpt lat="45.90788" lon="4.73529">
        <ele>176</ele>
        <time>2018-02-02T09:42:01Z</time>
      </trkpt>
      <trkpt lat="45.90784" lon="4.73531">
        <ele>176</ele>
        <time>2018-02-02T09:42:02Z</time>
      </trkpt>
      <trkpt lat="45.9078" lon="4.73533">
        <ele>176</ele>
        <time>2018-02-02T09:42:03Z</time>
      </trkpt>
      <trkpt lat="45.90775" lon="4.73536">
        <ele>176</ele>
        <time>2018-02-02T09:42:04Z</time>
      </trkpt>
      <trkpt lat="45.9077" lon="4.73538">
        <ele>176</ele>
        <time>2018-02-02T09:42:05Z</time>
      </trkpt>
      <trkpt lat="45.90766" lon="4.73541">
        <ele>176</ele>
        <time>2018-02-02T09:42:06Z</time>
      </trkpt>
      <trkpt lat="45.90761" lon="4.73541">
        <ele>176</ele>
        <time>2018-02-02T09:42:07Z</time>
      </trkpt>
      <trkpt lat="45.90756" lon="4.73544">
        <ele>176</ele>
        <time>2018-02-02T09:42:08Z</time>
      </trkpt>
      <trkpt lat="45.90751" lon="4.73546">
        <ele>176</ele>
        <time>2018-02-02T09:42:09Z</time>
      </trkpt>
      <trkpt lat="45.90746" lon="4.73547">
        <ele>178</ele>
        <time>2018-02-02T09:42:10Z</time>
      </trkpt>
      <trkpt lat="45.90742" lon="4.7355">
        <ele>178</ele>
        <time>2018-02-02T09:42:11Z</time>
      </trkpt>
      <trkpt lat="45.90737" lon="4.73551">
        <ele>178</ele>
        <time>2018-02-02T09:42:12Z</time>
      </trkpt>
      <trkpt lat="45.90732" lon="4.73553">
        <ele>178</ele>
        <time>2018-02-02T09:42:13Z</time>
      </trkpt>
      <trkpt lat="45.90728" lon="4.73555">
        <ele>178</ele>
        <time>2018-02-02T09:42:14Z</time>
      </trkpt>
      <trkpt lat="45.90723" lon="4.73557">
        <ele>178</ele>
        <time>2018-02-02T09:42:15Z</time>
      </trkpt>
      <trkpt lat="45.90719" lon="4.73558">
        <ele>178</ele>
        <time>2018-02-02T09:42:16Z</time>
      </trkpt>
      <trkpt lat="45.90714" lon="4.7356">
        <ele>178</ele>
        <time>2018-02-02T09:42:17Z</time>
      </trkpt>
      <trkpt lat="45.90709" lon="4.73562">
        <ele>178</ele>
        <time>2018-02-02T09:42:18Z</time>
      </trkpt>
      <trkpt lat="45.90705" lon="4.73564">
        <ele>178</ele>
        <time>2018-02-02T09:42:19Z</time>
      </trkpt>
      <trkpt lat="45.90698" lon="4.73567">
        <ele>178</ele>
        <time>2018-02-02T09:42:21Z</time>
      </trkpt>
      <trkpt lat="45.90694" lon="4.73568">
        <ele>178</ele>
        <time>2018-02-02T09:42:22Z</time>
      </trkpt>
      <trkpt lat="45.90686" lon="4.73572">
        <ele>179</ele>
        <time>2018-02-02T09:42:24Z</time>
      </trkpt>
      <trkpt lat="45.90682" lon="4.73573">
        <ele>179</ele>
        <time>2018-02-02T09:42:25Z</time>
      </trkpt>
      <trkpt lat="45.90675" lon="4.73577">
        <ele>179</ele>
        <time>2018-02-02T09:42:27Z</time>
      </trkpt>
      <trkpt lat="45.90672" lon="4.73578">
        <ele>179</ele>
        <time>2018-02-02T09:42:28Z</time>
      </trkpt>
      <trkpt lat="45.90665" lon="4.73582">
        <ele>180</ele>
        <time>2018-02-02T09:42:30Z</time>
      </trkpt>
      <trkpt lat="45.90661" lon="4.73583">
        <ele>179</ele>
        <time>2018-02-02T09:42:31Z</time>
      </trkpt>
      <trkpt lat="45.90654" lon="4.73585">
        <ele>180</ele>
        <time>2018-02-02T09:42:33Z</time>
      </trkpt>
      <trkpt lat="45.90651" lon="4.73586">
        <ele>181</ele>
        <time>2018-02-02T09:42:34Z</time>
      </trkpt>
      <trkpt lat="45.90645" lon="4.73589">
        <ele>181</ele>
        <time>2018-02-02T09:42:36Z</time>
      </trkpt>
      <trkpt lat="45.90642" lon="4.7359">
        <ele>181</ele>
        <time>2018-02-02T09:42:37Z</time>
      </trkpt>
      <trkpt lat="45.90635" lon="4.73593">
        <ele>181</ele>
        <time>2018-02-02T09:42:39Z</time>
      </trkpt>
      <trkpt lat="45.90632" lon="4.73594">
        <ele>181</ele>
        <time>2018-02-02T09:42:40Z</time>
      </trkpt>
      <trkpt lat="45.90626" lon="4.73597">
        <ele>181</ele>
        <time>2018-02-02T09:42:42Z</time>
      </trkpt>
      <trkpt lat="45.90623" lon="4.73599">
        <ele>181</ele>
        <time>2018-02-02T09:42:43Z</time>
      </trkpt>
      <trkpt lat="45.90617" lon="4.73602">
        <ele>180</ele>
        <time>2018-02-02T09:42:45Z</time>
      </trkpt>
      <trkpt lat="45.90613" lon="4.73603">
        <ele>180</ele>
        <time>2018-02-02T09:42:46Z</time>
      </trkpt>
      <trkpt lat="45.90607" lon="4.73606">
        <ele>180</ele>
        <time>2018-02-02T09:42:48Z</time>
      </trkpt>
      <trkpt lat="45.90604" lon="4.73608">
        <ele>180</ele>
        <time>2018-02-02T09:42:49Z</time>
      </trkpt>
      <trkpt lat="45.90597" lon="4.73611">
        <ele>180</ele>
        <time>2018-02-02T09:42:51Z</time>
      </trkpt>
      <trkpt lat="45.90593" lon="4.73612">
        <ele>180</ele>
        <time>2018-02-02T09:42:52Z</time>
      </trkpt>
      <trkpt lat="45.90585" lon="4.73616">
        <ele>180</ele>
        <time>2018-02-02T09:42:54Z</time>
      </trkpt>
      <trkpt lat="45.90582" lon="4.73618">
        <ele>179</ele>
        <time>2018-02-02T09:42:55Z</time>
      </trkpt>
      <trkpt lat="45.90574" lon="4.73621">
        <ele>179</ele>
        <time>2018-02-02T09:42:57Z</time>
      </trkpt>
      <trkpt lat="45.9057" lon="4.73622">
        <ele>179</ele>
        <time>2018-02-02T09:42:58Z</time>
      </trkpt>
      <trkpt lat="45.90562" lon="4.73626">
        <ele>179</ele>
        <time>2018-02-02T09:43:00Z</time>
      </trkpt>
      <trkpt lat="45.90558" lon="4.73627">
        <ele>179</ele>
        <time>2018-02-02T09:43:01Z</time>
      </trkpt>
      <trkpt lat="45.90551" lon="4.7363">
        <ele>178</ele>
        <time>2018-02-02T09:43:03Z</time>
      </trkpt>
      <trkpt lat="45.90547" lon="4.73632">
        <ele>178</ele>
        <time>2018-02-02T09:43:04Z</time>
      </trkpt>
      <trkpt lat="45.90539" lon="4.73635">
        <ele>178</ele>
        <time>2018-02-02T09:43:06Z</time>
      </trkpt>
      <trkpt lat="45.90536" lon="4.73636">
        <ele>178</ele>
        <time>2018-02-02T09:43:07Z</time>
      </trkpt>
      <trkpt lat="45.90528" lon="4.7364">
        <ele>178</ele>
        <time>2018-02-02T09:43:09Z</time>
      </trkpt>
      <trkpt lat="45.90524" lon="4.73642">
        <ele>178</ele>
        <time>2018-02-02T09:43:10Z</time>
      </trkpt>
      <trkpt lat="45.90516" lon="4.73645">
        <ele>178</ele>
        <time>2018-02-02T09:43:12Z</time>
      </trkpt>
      <trkpt lat="45.90512" lon="4.73647">
        <ele>178</ele>
        <time>2018-02-02T09:43:13Z</time>
      </trkpt>
      <trkpt lat="45.90504" lon="4.7365">
        <ele>178</ele>
        <time>2018-02-02T09:43:15Z</time>
      </trkpt>
      <trkpt lat="45.905" lon="4.73652">
        <ele>178</ele>
        <time>2018-02-02T09:43:16Z</time>
      </trkpt>
      <trkpt lat="45.90492" lon="4.73655">
        <ele>177</ele>
        <time>2018-02-02T09:43:18Z</time>
      </trkpt>
      <trkpt lat="45.90489" lon="4.73657">
        <ele>177</ele>
        <time>2018-02-02T09:43:19Z</time>
      </trkpt>
      <trkpt lat="45.90481" lon="4.7366">
        <ele>177</ele>
        <time>2018-02-02T09:43:21Z</time>
      </trkpt>
      <trkpt lat="45.90477" lon="4.73661">
        <ele>177</ele>
        <time>2018-02-02T09:43:22Z</time>
      </trkpt>
      <trkpt lat="45.90469" lon="4.73665">
        <ele>177</ele>
        <time>2018-02-02T09:43:24Z</time>
      </trkpt>
      <trkpt lat="45.90465" lon="4.73667">
        <ele>176</ele>
        <time>2018-02-02T09:43:25Z</time>
      </trkpt>
      <trkpt lat="45.90456" lon="4.7367">
        <ele>176</ele>
        <time>2018-02-02T09:43:27Z</time>
      </trkpt>
      <trkpt lat="45.90451" lon="4.73672">
        <ele>176</ele>
        <time>2018-02-02T09:43:28Z</time>
      </trkpt>
      <trkpt lat="45.90446" lon="4.73674">
        <ele>176</ele>
        <time>2018-02-02T09:43:29Z</time>
      </trkpt>
      <trkpt lat="45.9044" lon="4.73676">
        <ele>176</ele>
        <time>2018-02-02T09:43:30Z</time>
      </trkpt>
      <trkpt lat="45.90435" lon="4.73678">
        <ele>176</ele>
        <time>2018-02-02T09:43:31Z</time>
      </trkpt>
      <trkpt lat="45.9043" lon="4.73681">
        <ele>177</ele>
        <time>2018-02-02T09:43:32Z</time>
      </trkpt>
      <trkpt lat="45.90425" lon="4.73682">
        <ele>177</ele>
        <time>2018-02-02T09:43:33Z</time>
      </trkpt>
      <trkpt lat="45.90419" lon="4.73685">
        <ele>177</ele>
        <time>2018-02-02T09:43:34Z</time>
      </trkpt>
      <trkpt lat="45.90413" lon="4.73687">
        <ele>177</ele>
        <time>2018-02-02T09:43:35Z</time>
      </trkpt>
      <trkpt lat="45.90408" lon="4.73689">
        <ele>177</ele>
        <time>2018-02-02T09:43:36Z</time>
      </trkpt>
      <trkpt lat="45.90402" lon="4.73691">
        <ele>177</ele>
        <time>2018-02-02T09:43:37Z</time>
      </trkpt>
      <trkpt lat="45.90396" lon="4.73694">
        <ele>177</ele>
        <time>2018-02-02T09:43:38Z</time>
      </trkpt>
      <trkpt lat="45.9039" lon="4.73695">
        <ele>177</ele>
        <time>2018-02-02T09:43:39Z</time>
      </trkpt>
      <trkpt lat="45.90386" lon="4.73696">
        <ele>177</ele>
        <time>2018-02-02T09:43:40Z</time>
      </trkpt>
      <trkpt lat="45.9038" lon="4.73699">
        <ele>177</ele>
        <time>2018-02-02T09:43:41Z</time>
      </trkpt>
      <trkpt lat="45.90374" lon="4.73702">
        <ele>177</ele>
        <time>2018-02-02T09:43:42Z</time>
      </trkpt>
      <trkpt lat="45.90368" lon="4.73706">
        <ele>177</ele>
        <time>2018-02-02T09:43:43Z</time>
      </trkpt>
      <trkpt lat="45.90362" lon="4.73709">
        <ele>177</ele>
        <time>2018-02-02T09:43:44Z</time>
      </trkpt>
      <trkpt lat="45.90355" lon="4.73712">
        <ele>177</ele>
        <time>2018-02-02T09:43:45Z</time>
      </trkpt>
      <trkpt lat="45.90349" lon="4.73715">
        <ele>177</ele>
        <time>2018-02-02T09:43:46Z</time>
      </trkpt>
      <trkpt lat="45.90342" lon="4.73717">
        <ele>177</ele>
        <time>2018-02-02T09:43:47Z</time>
      </trkpt>
      <trkpt lat="45.90335" lon="4.7372">
        <ele>177</ele>
        <time>2018-02-02T09:43:48Z</time>
      </trkpt>
      <trkpt lat="45.90329" lon="4.73724">
        <ele>177</ele>
        <time>2018-02-02T09:43:49Z</time>
      </trkpt>
      <trkpt lat="45.90322" lon="4.73727">
        <ele>177</ele>
        <time>2018-02-02T09:43:50Z</time>
      </trkpt>
      <trkpt lat="45.90315" lon="4.73729">
        <ele>177</ele>
        <time>2018-02-02T09:43:51Z</time>
      </trkpt>
      <trkpt lat="45.90309" lon="4.73732">
        <ele>177</ele>
        <time>2018-02-02T09:43:52Z</time>
      </trkpt>
      <trkpt lat="45.90303" lon="4.73735">
        <ele>177</ele>
        <time>2018-02-02T09:43:53Z</time>
      </trkpt>
      <trkpt lat="45.90297" lon="4.73738">
        <ele>177</ele>
        <time>2018-02-02T09:43:54Z</time>
      </trkpt>
      <trkpt lat="45.90291" lon="4.73741">
        <ele>177</ele>
        <time>2018-02-02T09:43:55Z</time>
      </trkpt>
      <trkpt lat="45.90284" lon="4.73743">
        <ele>177</ele>
        <time>2018-02-02T09:43:56Z</time>
      </trkpt>
      <trkpt lat="45.90277" lon="4.73745">
        <ele>177</ele>
        <time>2018-02-02T09:43:57Z</time>
      </trkpt>
      <trkpt lat="45.90271" lon="4.73748">
        <ele>177</ele>
        <time>2018-02-02T09:43:58Z</time>
      </trkpt>
      <trkpt lat="45.90265" lon="4.7375">
        <ele>178</ele>
        <time>2018-02-02T09:43:59Z</time>
      </trkpt>
      <trkpt lat="45.9026" lon="4.73752">
        <ele>178</ele>
        <time>2018-02-02T09:44:00Z</time>
      </trkpt>
      <trkpt lat="45.90255" lon="4.73754">
        <ele>178</ele>
        <time>2018-02-02T09:44:01Z</time>
      </trkpt>
      <trkpt lat="45.9025" lon="4.73757">
        <ele>178</ele>
        <time>2018-02-02T09:44:02Z</time>
      </trkpt>
      <trkpt lat="45.90245" lon="4.73759">
        <ele>178</ele>
        <time>2018-02-02T09:44:03Z</time>
      </trkpt>
      <trkpt lat="45.90241" lon="4.73762">
        <ele>178</ele>
        <time>2018-02-02T09:44:04Z</time>
      </trkpt>
      <trkpt lat="45.90236" lon="4.73764">
        <ele>177</ele>
        <time>2018-02-02T09:44:05Z</time>
      </trkpt>
      <trkpt lat="45.90231" lon="4.73766">
        <ele>177</ele>
        <time>2018-02-02T09:44:06Z</time>
      </trkpt>
      <trkpt lat="45.90226" lon="4.73769">
        <ele>177</ele>
        <time>2018-02-02T09:44:07Z</time>
      </trkpt>
      <trkpt lat="45.90221" lon="4.73772">
        <ele>177</ele>
        <time>2018-02-02T09:44:08Z</time>
      </trkpt>
      <trkpt lat="45.90215" lon="4.73774">
        <ele>177</ele>
        <time>2018-02-02T09:44:09Z</time>
      </trkpt>
      <trkpt lat="45.90209" lon="4.73776">
        <ele>177</ele>
        <time>2018-02-02T09:44:10Z</time>
      </trkpt>
      <trkpt lat="45.90204" lon="4.73778">
        <ele>177</ele>
        <time>2018-02-02T09:44:11Z</time>
      </trkpt>
      <trkpt lat="45.90199" lon="4.73781">
        <ele>177</ele>
        <time>2018-02-02T09:44:12Z</time>
      </trkpt>
      <trkpt lat="45.90194" lon="4.73783">
        <ele>177</ele>
        <time>2018-02-02T09:44:13Z</time>
      </trkpt>
      <trkpt lat="45.90189" lon="4.73785">
        <ele>177</ele>
        <time>2018-02-02T09:44:14Z</time>
      </trkpt>
      <trkpt lat="45.90183" lon="4.73788">
        <ele>177</ele>
        <time>2018-02-02T09:44:15Z</time>
      </trkpt>
      <trkpt lat="45.90177" lon="4.7379">
        <ele>177</ele>
        <time>2018-02-02T09:44:16Z</time>
      </trkpt>
      <trkpt lat="45.90172" lon="4.73792">
        <ele>177</ele>
        <time>2018-02-02T09:44:17Z</time>
      </trkpt>
      <trkpt lat="45.90168" lon="4.73795">
        <ele>177</ele>
        <time>2018-02-02T09:44:18Z</time>
      </trkpt>
      <trkpt lat="45.90163" lon="4.73798">
        <ele>176</ele>
        <time>2018-02-02T09:44:19Z</time>
      </trkpt>
      <trkpt lat="45.90157" lon="4.738">
        <ele>177</ele>
        <time>2018-02-02T09:44:20Z</time>
      </trkpt>
      <trkpt lat="45.90151" lon="4.73802">
        <ele>177</ele>
        <time>2018-02-02T09:44:21Z</time>
      </trkpt>
      <trkpt lat="45.90145" lon="4.73804">
        <ele>177</ele>
        <time>2018-02-02T09:44:22Z</time>
      </trkpt>
      <trkpt lat="45.9014" lon="4.73806">
        <ele>177</ele>
        <time>2018-02-02T09:44:23Z</time>
      </trkpt>
      <trkpt lat="45.90135" lon="4.73808">
        <ele>177</ele>
        <time>2018-02-02T09:44:24Z</time>
      </trkpt>
      <trkpt lat="45.9013" lon="4.73811">
        <ele>177</ele>
        <time>2018-02-02T09:44:25Z</time>
      </trkpt>
      <trkpt lat="45.90124" lon="4.73814">
        <ele>177</ele>
        <time>2018-02-02T09:44:26Z</time>
      </trkpt>
      <trkpt lat="45.90119" lon="4.73818">
        <ele>177</ele>
        <time>2018-02-02T09:44:27Z</time>
      </trkpt>
      <trkpt lat="45.90113" lon="4.73821">
        <ele>177</ele>
        <time>2018-02-02T09:44:28Z</time>
      </trkpt>
      <trkpt lat="45.90108" lon="4.73822">
        <ele>177</ele>
        <time>2018-02-02T09:44:29Z</time>
      </trkpt>
      <trkpt lat="45.90102" lon="4.73824">
        <ele>177</ele>
        <time>2018-02-02T09:44:30Z</time>
      </trkpt>
      <trkpt lat="45.90096" lon="4.73827">
        <ele>177</ele>
        <time>2018-02-02T09:44:31Z</time>
      </trkpt>
      <trkpt lat="45.90091" lon="4.73828">
        <ele>178</ele>
        <time>2018-02-02T09:44:32Z</time>
      </trkpt>
      <trkpt lat="45.90084" lon="4.7383">
        <ele>178</ele>
        <time>2018-02-02T09:44:33Z</time>
      </trkpt>
      <trkpt lat="45.90079" lon="4.73833">
        <ele>178</ele>
        <time>2018-02-02T09:44:34Z</time>
      </trkpt>
      <trkpt lat="45.90073" lon="4.73834">
        <ele>178</ele>
        <time>2018-02-02T09:44:35Z</time>
      </trkpt>
      <trkpt lat="45.90068" lon="4.73837">
        <ele>178</ele>
        <time>2018-02-02T09:44:36Z</time>
      </trkpt>
      <trkpt lat="45.90062" lon="4.73839">
        <ele>178</ele>
        <time>2018-02-02T09:44:37Z</time>
      </trkpt>
      <trkpt lat="45.90058" lon="4.73841">
        <ele>178</ele>
        <time>2018-02-02T09:44:38Z</time>
      </trkpt>
      <trkpt lat="45.90051" lon="4.73843">
        <ele>178</ele>
        <time>2018-02-02T09:44:39Z</time>
      </trkpt>
      <trkpt lat="45.90045" lon="4.73845">
        <ele>178</ele>
        <time>2018-02-02T09:44:40Z</time>
      </trkpt>
      <trkpt lat="45.9004" lon="4.73847">
        <ele>178</ele>
        <time>2018-02-02T09:44:41Z</time>
      </trkpt>
      <trkpt lat="45.90035" lon="4.73849">
        <ele>178</ele>
        <time>2018-02-02T09:44:42Z</time>
      </trkpt>
      <trkpt lat="45.90029" lon="4.73852">
        <ele>178</ele>
        <time>2018-02-02T09:44:43Z</time>
      </trkpt>
      <trkpt lat="45.90023" lon="4.73854">
        <ele>178</ele>
        <time>2018-02-02T09:44:44Z</time>
      </trkpt>
      <trkpt lat="45.90018" lon="4.73857">
        <ele>178</ele>
        <time>2018-02-02T09:44:45Z</time>
      </trkpt>
      <trkpt lat="45.90011" lon="4.73858">
        <ele>178</ele>
        <time>2018-02-02T09:44:46Z</time>
      </trkpt>
      <trkpt lat="45.90005" lon="4.73861">
        <ele>178</ele>
        <time>2018-02-02T09:44:47Z</time>
      </trkpt>
      <trkpt lat="45.9" lon="4.73863">
        <ele>178</ele>
        <time>2018-02-02T09:44:48Z</time>
      </trkpt>
      <trkpt lat="45.89994" lon="4.73864">
        <ele>178</ele>
        <time>2018-02-02T09:44:49Z</time>
      </trkpt>
      <trkpt lat="45.89989" lon="4.73866">
        <ele>178</ele>
        <time>2018-02-02T09:44:50Z</time>
      </trkpt>
      <trkpt lat="45.89983" lon="4.73868">
        <ele>178</ele>
        <time>2018-02-02T09:44:51Z</time>
      </trkpt>
      <trkpt lat="45.89978" lon="4.7387">
        <ele>178</ele>
        <time>2018-02-02T09:44:52Z</time>
      </trkpt>
      <trkpt lat="45.89972" lon="4.73873">
        <ele>178</ele>
        <time>2018-02-02T09:44:53Z</time>
      </trkpt>
      <trkpt lat="45.89968" lon="4.73875">
        <ele>178</ele>
        <time>2018-02-02T09:44:54Z</time>
      </trkpt>
      <trkpt lat="45.89963" lon="4.73877">
        <ele>178</ele>
        <time>2018-02-02T09:44:55Z</time>
      </trkpt>
      <trkpt lat="45.89958" lon="4.7388">
        <ele>178</ele>
        <time>2018-02-02T09:44:56Z</time>
      </trkpt>
      <trkpt lat="45.89953" lon="4.73882">
        <ele>178</ele>
        <time>2018-02-02T09:44:57Z</time>
      </trkpt>
      <trkpt lat="45.89948" lon="4.73885">
        <ele>178</ele>
        <time>2018-02-02T09:44:58Z</time>
      </trkpt>
      <trkpt lat="45.89943" lon="4.73887">
        <ele>178</ele>
        <time>2018-02-02T09:44:59Z</time>
      </trkpt>
      <trkpt lat="45.89938" lon="4.7389">
        <ele>178</ele>
        <time>2018-02-02T09:45:00Z</time>
      </trkpt>
      <trkpt lat="45.89933" lon="4.73892">
        <ele>178</ele>
        <time>2018-02-02T09:45:01Z</time>
      </trkpt>
      <trkpt lat="45.89928" lon="4.73894">
        <ele>178</ele>
        <time>2018-02-02T09:45:02Z</time>
      </trkpt>
      <trkpt lat="45.89923" lon="4.73895">
        <ele>178</ele>
        <time>2018-02-02T09:45:03Z</time>
      </trkpt>
      <trkpt lat="45.89917" lon="4.73898">
        <ele>178</ele>
        <time>2018-02-02T09:45:04Z</time>
      </trkpt>
      <trkpt lat="45.89912" lon="4.73899">
        <ele>178</ele>
        <time>2018-02-02T09:45:05Z</time>
      </trkpt>
      <trkpt lat="45.89906" lon="4.73902">
        <ele>178</ele>
        <time>2018-02-02T09:45:06Z</time>
      </trkpt>
      <trkpt lat="45.899" lon="4.73903">
        <ele>178</ele>
        <time>2018-02-02T09:45:07Z</time>
      </trkpt>
      <trkpt lat="45.89895" lon="4.73905">
        <ele>178</ele>
        <time>2018-02-02T09:45:08Z</time>
      </trkpt>
      <trkpt lat="45.89889" lon="4.73907">
        <ele>179</ele>
        <time>2018-02-02T09:45:09Z</time>
      </trkpt>
      <trkpt lat="45.89885" lon="4.73909">
        <ele>179</ele>
        <time>2018-02-02T09:45:10Z</time>
      </trkpt>
      <trkpt lat="45.8988" lon="4.73911">
        <ele>179</ele>
        <time>2018-02-02T09:45:11Z</time>
      </trkpt>
      <trkpt lat="45.89875" lon="4.73914">
        <ele>179</ele>
        <time>2018-02-02T09:45:12Z</time>
      </trkpt>
      <trkpt lat="45.89871" lon="4.73916">
        <ele>179</ele>
        <time>2018-02-02T09:45:13Z</time>
      </trkpt>
      <trkpt lat="45.89866" lon="4.73917">
        <ele>179</ele>
        <time>2018-02-02T09:45:14Z</time>
      </trkpt>
      <trkpt lat="45.89861" lon="4.7392">
        <ele>179</ele>
        <time>2018-02-02T09:45:15Z</time>
      </trkpt>
      <trkpt lat="45.89857" lon="4.73922">
        <ele>179</ele>
        <time>2018-02-02T09:45:16Z</time>
      </trkpt>
      <trkpt lat="45.89852" lon="4.73924">
        <ele>179</ele>
        <time>2018-02-02T09:45:17Z</time>
      </trkpt>
      <trkpt lat="45.89848" lon="4.73924">
        <ele>179</ele>
        <time>2018-02-02T09:45:18Z</time>
      </trkpt>
      <trkpt lat="45.89843" lon="4.73926">
        <ele>179</ele>
        <time>2018-02-02T09:45:19Z</time>
      </trkpt>
      <trkpt lat="45.89839" lon="4.73928">
        <ele>179</ele>
        <time>2018-02-02T09:45:20Z</time>
      </trkpt>
      <trkpt lat="45.89834" lon="4.73931">
        <ele>179</ele>
        <time>2018-02-02T09:45:21Z</time>
      </trkpt>
      <trkpt lat="45.89829" lon="4.73933">
        <ele>179</ele>
        <time>2018-02-02T09:45:22Z</time>
      </trkpt>
      <trkpt lat="45.89823" lon="4.73935">
        <ele>179</ele>
        <time>2018-02-02T09:45:23Z</time>
      </trkpt>
      <trkpt lat="45.89819" lon="4.73938">
        <ele>179</ele>
        <time>2018-02-02T09:45:24Z</time>
      </trkpt>
      <trkpt lat="45.89814" lon="4.73939">
        <ele>179</ele>
        <time>2018-02-02T09:45:25Z</time>
      </trkpt>
      <trkpt lat="45.89809" lon="4.73942">
        <ele>179</ele>
        <time>2018-02-02T09:45:26Z</time>
      </trkpt>
      <trkpt lat="45.89804" lon="4.73944">
        <ele>179</ele>
        <time>2018-02-02T09:45:27Z</time>
      </trkpt>
      <trkpt lat="45.89799" lon="4.73947">
        <ele>179</ele>
        <time>2018-02-02T09:45:28Z</time>
      </trkpt>
      <trkpt lat="45.89793" lon="4.73949">
        <ele>179</ele>
        <time>2018-02-02T09:45:29Z</time>
      </trkpt>
      <trkpt lat="45.89789" lon="4.73951">
        <ele>179</ele>
        <time>2018-02-02T09:45:30Z</time>
      </trkpt>
      <trkpt lat="45.89784" lon="4.73952">
        <ele>179</ele>
        <time>2018-02-02T09:45:31Z</time>
      </trkpt>
      <trkpt lat="45.89779" lon="4.73955">
        <ele>179</ele>
        <time>2018-02-02T09:45:32Z</time>
      </trkpt>
      <trkpt lat="45.89774" lon="4.73958">
        <ele>179</ele>
        <time>2018-02-02T09:45:33Z</time>
      </trkpt>
      <trkpt lat="45.89768" lon="4.73959">
        <ele>179</ele>
        <time>2018-02-02T09:45:34Z</time>
      </trkpt>
      <trkpt lat="45.89763" lon="4.73962">
        <ele>179</ele>
        <time>2018-02-02T09:45:35Z</time>
      </trkpt>
      <trkpt lat="45.89758" lon="4.73964">
        <ele>178</ele>
        <time>2018-02-02T09:45:36Z</time>
      </trkpt>
      <trkpt lat="45.89753" lon="4.73967">
        <ele>178</ele>
        <time>2018-02-02T09:45:37Z</time>
      </trkpt>
      <trkpt lat="45.89748" lon="4.73969">
        <ele>178</ele>
        <time>2018-02-02T09:45:38Z</time>
      </trkpt>
      <trkpt lat="45.89742" lon="4.7397">
        <ele>178</ele>
        <time>2018-02-02T09:45:39Z</time>
      </trkpt>
      <trkpt lat="45.89738" lon="4.73972">
        <ele>178</ele>
        <time>2018-02-02T09:45:40Z</time>
      </trkpt>
      <trkpt lat="45.89733" lon="4.73974">
        <ele>178</ele>
        <time>2018-02-02T09:45:41Z</time>
      </trkpt>
      <trkpt lat="45.89729" lon="4.73976">
        <ele>178</ele>
        <time>2018-02-02T09:45:42Z</time>
      </trkpt>
      <trkpt lat="45.89724" lon="4.73978">
        <ele>178</ele>
        <time>2018-02-02T09:45:43Z</time>
      </trkpt>
      <trkpt lat="45.89719" lon="4.7398">
        <ele>178</ele>
        <time>2018-02-02T09:45:44Z</time>
      </trkpt>
      <trkpt lat="45.89715" lon="4.73982">
        <ele>178</ele>
        <time>2018-02-02T09:45:45Z</time>
      </trkpt>
      <trkpt lat="45.8971" lon="4.73984">
        <ele>178</ele>
        <time>2018-02-02T09:45:46Z</time>
      </trkpt>
      <trkpt lat="45.89705" lon="4.73985">
        <ele>178</ele>
        <time>2018-02-02T09:45:47Z</time>
      </trkpt>
      <trkpt lat="45.89699" lon="4.73987">
        <ele>178</ele>
        <time>2018-02-02T09:45:48Z</time>
      </trkpt>
      <trkpt lat="45.89695" lon="4.73989">
        <ele>178</ele>
        <time>2018-02-02T09:45:49Z</time>
      </trkpt>
      <trkpt lat="45.8969" lon="4.73992">
        <ele>179</ele>
        <time>2018-02-02T09:45:50Z</time>
      </trkpt>
      <trkpt lat="45.89685" lon="4.73994">
        <ele>179</ele>
        <time>2018-02-02T09:45:51Z</time>
      </trkpt>
      <trkpt lat="45.89679" lon="4.73997">
        <ele>179</ele>
        <time>2018-02-02T09:45:52Z</time>
      </trkpt>
      <trkpt lat="45.89674" lon="4.73999">
        <ele>179</ele>
        <time>2018-02-02T09:45:53Z</time>
      </trkpt>
      <trkpt lat="45.89668" lon="4.74002">
        <ele>179</ele>
        <time>2018-02-02T09:45:54Z</time>
      </trkpt>
      <trkpt lat="45.89663" lon="4.74004">
        <ele>179</ele>
        <time>2018-02-02T09:45:55Z</time>
      </trkpt>
      <trkpt lat="45.89658" lon="4.74007">
        <ele>179</ele>
        <time>2018-02-02T09:45:56Z</time>
      </trkpt>
      <trkpt lat="45.89652" lon="4.74009">
        <ele>180</ele>
        <time>2018-02-02T09:45:57Z</time>
      </trkpt>
      <trkpt lat="45.89647" lon="4.74012">
        <ele>180</ele>
        <time>2018-02-02T09:45:58Z</time>
      </trkpt>
      <trkpt lat="45.89642" lon="4.74014">
        <ele>180</ele>
        <time>2018-02-02T09:45:59Z</time>
      </trkpt>
      <trkpt lat="45.89637" lon="4.74017">
        <ele>180</ele>
        <time>2018-02-02T09:46:00Z</time>
      </trkpt>
      <trkpt lat="45.89632" lon="4.7402">
        <ele>180</ele>
        <time>2018-02-02T09:46:01Z</time>
      </trkpt>
      <trkpt lat="45.89626" lon="4.74021">
        <ele>180</ele>
        <time>2018-02-02T09:46:02Z</time>
      </trkpt>
      <trkpt lat="45.89621" lon="4.74023">
        <ele>180</ele>
        <time>2018-02-02T09:46:03Z</time>
      </trkpt>
      <trkpt lat="45.89616" lon="4.74024">
        <ele>180</ele>
        <time>2018-02-02T09:46:04Z</time>
      </trkpt>
      <trkpt lat="45.89611" lon="4.74026">
        <ele>180</ele>
        <time>2018-02-02T09:46:05Z</time>
      </trkpt>
      <trkpt lat="45.89605" lon="4.74028">
        <ele>180</ele>
        <time>2018-02-02T09:46:06Z</time>
      </trkpt>
      <trkpt lat="45.89597" lon="4.74031">
        <ele>180</ele>
        <time>2018-02-02T09:46:08Z</time>
      </trkpt>
      <trkpt lat="45.89592" lon="4.74032">
        <ele>180</ele>
        <time>2018-02-02T09:46:09Z</time>
      </trkpt>
      <trkpt lat="45.89588" lon="4.74033">
        <ele>180</ele>
        <time>2018-02-02T09:46:10Z</time>
      </trkpt>
      <trkpt lat="45.89583" lon="4.74036">
        <ele>181</ele>
        <time>2018-02-02T09:46:11Z</time>
      </trkpt>
      <trkpt lat="45.89579" lon="4.74037">
        <ele>181</ele>
        <time>2018-02-02T09:46:12Z</time>
      </trkpt>
      <trkpt lat="45.89573" lon="4.7404">
        <ele>181</ele>
        <time>2018-02-02T09:46:13Z</time>
      </trkpt>
      <trkpt lat="45.89569" lon="4.74042">
        <ele>181</ele>
        <time>2018-02-02T09:46:14Z</time>
      </trkpt>
      <trkpt lat="45.89563" lon="4.74045">
        <ele>181</ele>
        <time>2018-02-02T09:46:15Z</time>
      </trkpt>
      <trkpt lat="45.89558" lon="4.74047">
        <ele>181</ele>
        <time>2018-02-02T09:46:16Z</time>
      </trkpt>
      <trkpt lat="45.89553" lon="4.74049">
        <ele>181</ele>
        <time>2018-02-02T09:46:17Z</time>
      </trkpt>
      <trkpt lat="45.89545" lon="4.74053">
        <ele>181</ele>
        <time>2018-02-02T09:46:19Z</time>
      </trkpt>
      <trkpt lat="45.89541" lon="4.74055">
        <ele>181</ele>
        <time>2018-02-02T09:46:20Z</time>
      </trkpt>
      <trkpt lat="45.89537" lon="4.74057">
        <ele>181</ele>
        <time>2018-02-02T09:46:21Z</time>
      </trkpt>
      <trkpt lat="45.89532" lon="4.7406">
        <ele>181</ele>
        <time>2018-02-02T09:46:22Z</time>
      </trkpt>
      <trkpt lat="45.89527" lon="4.74062">
        <ele>181</ele>
        <time>2018-02-02T09:46:23Z</time>
      </trkpt>
      <trkpt lat="45.89522" lon="4.74065">
        <ele>181</ele>
        <time>2018-02-02T09:46:24Z</time>
      </trkpt>
      <trkpt lat="45.89518" lon="4.74067">
        <ele>181</ele>
        <time>2018-02-02T09:46:25Z</time>
      </trkpt>
      <trkpt lat="45.89512" lon="4.74069">
        <ele>181</ele>
        <time>2018-02-02T09:46:26Z</time>
      </trkpt>
      <trkpt lat="45.89507" lon="4.7407">
        <ele>181</ele>
        <time>2018-02-02T09:46:27Z</time>
      </trkpt>
      <trkpt lat="45.89502" lon="4.74073">
        <ele>181</ele>
        <time>2018-02-02T09:46:28Z</time>
      </trkpt>
      <trkpt lat="45.89498" lon="4.74075">
        <ele>181</ele>
        <time>2018-02-02T09:46:29Z</time>
      </trkpt>
      <trkpt lat="45.89493" lon="4.74077">
        <ele>181</ele>
        <time>2018-02-02T09:46:30Z</time>
      </trkpt>
      <trkpt lat="45.89488" lon="4.7408">
        <ele>181</ele>
        <time>2018-02-02T09:46:31Z</time>
      </trkpt>
      <trkpt lat="45.89484" lon="4.74081">
        <ele>181</ele>
        <time>2018-02-02T09:46:32Z</time>
      </trkpt>
      <trkpt lat="45.89479" lon="4.74083">
        <ele>181</ele>
        <time>2018-02-02T09:46:33Z</time>
      </trkpt>
      <trkpt lat="45.89474" lon="4.74085">
        <ele>182</ele>
        <time>2018-02-02T09:46:34Z</time>
      </trkpt>
      <trkpt lat="45.8947" lon="4.74086">
        <ele>182</ele>
        <time>2018-02-02T09:46:35Z</time>
      </trkpt>
      <trkpt lat="45.89465" lon="4.74088">
        <ele>182</ele>
        <time>2018-02-02T09:46:36Z</time>
      </trkpt>
      <trkpt lat="45.89461" lon="4.7409">
        <ele>182</ele>
        <time>2018-02-02T09:46:37Z</time>
      </trkpt>
      <trkpt lat="45.89456" lon="4.74093">
        <ele>182</ele>
        <time>2018-02-02T09:46:38Z</time>
      </trkpt>
      <trkpt lat="45.89451" lon="4.74095">
        <ele>182</ele>
        <time>2018-02-02T09:46:39Z</time>
      </trkpt>
      <trkpt lat="45.89446" lon="4.74098">
        <ele>182</ele>
        <time>2018-02-02T09:46:40Z</time>
      </trkpt>
      <trkpt lat="45.89441" lon="4.741">
        <ele>182</ele>
        <time>2018-02-02T09:46:41Z</time>
      </trkpt>
      <trkpt lat="45.89436" lon="4.74101">
        <ele>182</ele>
        <time>2018-02-02T09:46:42Z</time>
      </trkpt>
      <trkpt lat="45.89431" lon="4.74104">
        <ele>182</ele>
        <time>2018-02-02T09:46:43Z</time>
      </trkpt>
      <trkpt lat="45.89427" lon="4.74107">
        <ele>183</ele>
        <time>2018-02-02T09:46:44Z</time>
      </trkpt>
      <trkpt lat="45.89421" lon="4.7411">
        <ele>183</ele>
        <time>2018-02-02T09:46:45Z</time>
      </trkpt>
      <trkpt lat="45.89417" lon="4.74112">
        <ele>183</ele>
        <time>2018-02-02T09:46:46Z</time>
      </trkpt>
      <trkpt lat="45.89412" lon="4.74114">
        <ele>183</ele>
        <time>2018-02-02T09:46:47Z</time>
      </trkpt>
      <trkpt lat="45.89407" lon="4.74116">
        <ele>184</ele>
        <time>2018-02-02T09:46:48Z</time>
      </trkpt>
      <trkpt lat="45.89401" lon="4.74117">
        <ele>184</ele>
        <time>2018-02-02T09:46:49Z</time>
      </trkpt>
      <trkpt lat="45.89396" lon="4.74119">
        <ele>184</ele>
        <time>2018-02-02T09:46:50Z</time>
      </trkpt>
      <trkpt lat="45.89392" lon="4.74121">
        <ele>184</ele>
        <time>2018-02-02T09:46:51Z</time>
      </trkpt>
      <trkpt lat="45.89388" lon="4.74123">
        <ele>184</ele>
        <time>2018-02-02T09:46:52Z</time>
      </trkpt>
      <trkpt lat="45.89383" lon="4.74125">
        <ele>184</ele>
        <time>2018-02-02T09:46:53Z</time>
      </trkpt>
      <trkpt lat="45.89378" lon="4.74127">
        <ele>184</ele>
        <time>2018-02-02T09:46:54Z</time>
      </trkpt>
      <trkpt lat="45.89374" lon="4.74129">
        <ele>184</ele>
        <time>2018-02-02T09:46:55Z</time>
      </trkpt>
      <trkpt lat="45.89369" lon="4.74131">
        <ele>184</ele>
        <time>2018-02-02T09:46:56Z</time>
      </trkpt>
      <trkpt lat="45.89365" lon="4.74134">
        <ele>184</ele>
        <time>2018-02-02T09:46:57Z</time>
      </trkpt>
      <trkpt lat="45.8936" lon="4.74135">
        <ele>184</ele>
        <time>2018-02-02T09:46:58Z</time>
      </trkpt>
      <trkpt lat="45.89356" lon="4.74138">
        <ele>184</ele>
        <time>2018-02-02T09:46:59Z</time>
      </trkpt>
      <trkpt lat="45.89352" lon="4.7414">
        <ele>185</ele>
        <time>2018-02-02T09:47:00Z</time>
      </trkpt>
      <trkpt lat="45.89347" lon="4.74141">
        <ele>185</ele>
        <time>2018-02-02T09:47:01Z</time>
      </trkpt>
      <trkpt lat="45.89343" lon="4.74143">
        <ele>185</ele>
        <time>2018-02-02T09:47:02Z</time>
      </trkpt>
      <trkpt lat="45.89338" lon="4.74143">
        <ele>185</ele>
        <time>2018-02-02T09:47:03Z</time>
      </trkpt>
      <trkpt lat="45.89333" lon="4.74145">
        <ele>185</ele>
        <time>2018-02-02T09:47:04Z</time>
      </trkpt>
      <trkpt lat="45.89329" lon="4.74147">
        <ele>185</ele>
        <time>2018-02-02T09:47:05Z</time>
      </trkpt>
      <trkpt lat="45.89324" lon="4.74149">
        <ele>185</ele>
        <time>2018-02-02T09:47:06Z</time>
      </trkpt>
      <trkpt lat="45.89319" lon="4.74151">
        <ele>185</ele>
        <time>2018-02-02T09:47:07Z</time>
      </trkpt>
      <trkpt lat="45.89315" lon="4.74153">
        <ele>185</ele>
        <time>2018-02-02T09:47:08Z</time>
      </trkpt>
      <trkpt lat="45.8931" lon="4.74155">
        <ele>185</ele>
        <time>2018-02-02T09:47:09Z</time>
      </trkpt>
      <trkpt lat="45.89305" lon="4.74158">
        <ele>185</ele>
        <time>2018-02-02T09:47:10Z</time>
      </trkpt>
      <trkpt lat="45.89301" lon="4.74161">
        <ele>185</ele>
        <time>2018-02-02T09:47:11Z</time>
      </trkpt>
      <trkpt lat="45.89296" lon="4.74163">
        <ele>185</ele>
        <time>2018-02-02T09:47:12Z</time>
      </trkpt>
      <trkpt lat="45.89291" lon="4.74164">
        <ele>185</ele>
        <time>2018-02-02T09:47:13Z</time>
      </trkpt>
      <trkpt lat="45.89286" lon="4.74165">
        <ele>185</ele>
        <time>2018-02-02T09:47:14Z</time>
      </trkpt>
      <trkpt lat="45.8928" lon="4.74168">
        <ele>186</ele>
        <time>2018-02-02T09:47:15Z</time>
      </trkpt>
      <trkpt lat="45.89275" lon="4.74169">
        <ele>186</ele>
        <time>2018-02-02T09:47:16Z</time>
      </trkpt>
      <trkpt lat="45.8927" lon="4.74171">
        <ele>186</ele>
        <time>2018-02-02T09:47:17Z</time>
      </trkpt>
      <trkpt lat="45.89265" lon="4.74173">
        <ele>185</ele>
        <time>2018-02-02T09:47:18Z</time>
      </trkpt>
      <trkpt lat="45.89259" lon="4.74175">
        <ele>185</ele>
        <time>2018-02-02T09:47:19Z</time>
      </trkpt>
      <trkpt lat="45.89254" lon="4.74177">
        <ele>185</ele>
        <time>2018-02-02T09:47:20Z</time>
      </trkpt>
      <trkpt lat="45.89249" lon="4.74179">
        <ele>185</ele>
        <time>2018-02-02T09:47:21Z</time>
      </trkpt>
      <trkpt lat="45.89243" lon="4.7418">
        <ele>185</ele>
        <time>2018-02-02T09:47:22Z</time>
      </trkpt>
      <trkpt lat="45.89238" lon="4.74182">
        <ele>186</ele>
        <time>2018-02-02T09:47:23Z</time>
      </trkpt>
      <trkpt lat="45.89233" lon="4.74185">
        <ele>186</ele>
        <time>2018-02-02T09:47:24Z</time>
      </trkpt>
      <trkpt lat="45.89225" lon="4.74189">
        <ele>186</ele>
        <time>2018-02-02T09:47:26Z</time>
      </trkpt>
      <trkpt lat="45.8922" lon="4.7419">
        <ele>186</ele>
        <time>2018-02-02T09:47:27Z</time>
      </trkpt>
      <trkpt lat="45.89212" lon="4.74194">
        <ele>186</ele>
        <time>2018-02-02T09:47:29Z</time>
      </trkpt>
      <trkpt lat="45.89207" lon="4.74196">
        <ele>186</ele>
        <time>2018-02-02T09:47:30Z</time>
      </trkpt>
      <trkpt lat="45.89203" lon="4.74197">
        <ele>186</ele>
        <time>2018-02-02T09:47:31Z</time>
      </trkpt>
      <trkpt lat="45.89198" lon="4.74199">
        <ele>186</ele>
        <time>2018-02-02T09:47:32Z</time>
      </trkpt>
      <trkpt lat="45.89193" lon="4.74202">
        <ele>186</ele>
        <time>2018-02-02T09:47:33Z</time>
      </trkpt>
      <trkpt lat="45.89188" lon="4.74205">
        <ele>186</ele>
        <time>2018-02-02T09:47:34Z</time>
      </trkpt>
      <trkpt lat="45.89182" lon="4.74207">
        <ele>186</ele>
        <time>2018-02-02T09:47:35Z</time>
      </trkpt>
      <trkpt lat="45.89177" lon="4.74208">
        <ele>186</ele>
        <time>2018-02-02T09:47:36Z</time>
      </trkpt>
      <trkpt lat="45.89172" lon="4.7421">
        <ele>186</ele>
        <time>2018-02-02T09:47:37Z</time>
      </trkpt>
      <trkpt lat="45.89168" lon="4.74212">
        <ele>186</ele>
        <time>2018-02-02T09:47:38Z</time>
      </trkpt>
      <trkpt lat="45.89163" lon="4.74214">
        <ele>186</ele>
        <time>2018-02-02T09:47:39Z</time>
      </trkpt>
      <trkpt lat="45.89158" lon="4.74218">
        <ele>186</ele>
        <time>2018-02-02T09:47:40Z</time>
      </trkpt>
      <trkpt lat="45.89153" lon="4.74222">
        <ele>186</ele>
        <time>2018-02-02T09:47:41Z</time>
      </trkpt>
      <trkpt lat="45.89147" lon="4.74224">
        <ele>186</ele>
        <time>2018-02-02T09:47:42Z</time>
      </trkpt>
      <trkpt lat="45.89142" lon="4.74227">
        <ele>186</ele>
        <time>2018-02-02T09:47:43Z</time>
      </trkpt>
      <trkpt lat="45.89138" lon="4.74229">
        <ele>186</ele>
        <time>2018-02-02T09:47:44Z</time>
      </trkpt>
      <trkpt lat="45.89133" lon="4.74231">
        <ele>186</ele>
        <time>2018-02-02T09:47:45Z</time>
      </trkpt>
      <trkpt lat="45.89128" lon="4.74233">
        <ele>186</ele>
        <time>2018-02-02T09:47:46Z</time>
      </trkpt>
      <trkpt lat="45.89119" lon="4.74234">
        <ele>186</ele>
        <time>2018-02-02T09:47:48Z</time>
      </trkpt>
      <trkpt lat="45.89115" lon="4.74235">
        <ele>186</ele>
        <time>2018-02-02T09:47:49Z</time>
      </trkpt>
      <trkpt lat="45.89109" lon="4.74237">
        <ele>186</ele>
        <time>2018-02-02T09:47:50Z</time>
      </trkpt>
      <trkpt lat="45.89106" lon="4.74238">
        <ele>186</ele>
        <time>2018-02-02T09:47:51Z</time>
      </trkpt>
      <trkpt lat="45.89101" lon="4.7424">
        <ele>186</ele>
        <time>2018-02-02T09:47:52Z</time>
      </trkpt>
      <trkpt lat="45.89096" lon="4.74241">
        <ele>186</ele>
        <time>2018-02-02T09:47:53Z</time>
      </trkpt>
      <trkpt lat="45.89091" lon="4.74244">
        <ele>186</ele>
        <time>2018-02-02T09:47:54Z</time>
      </trkpt>
      <trkpt lat="45.89086" lon="4.74246">
        <ele>186</ele>
        <time>2018-02-02T09:47:55Z</time>
      </trkpt>
      <trkpt lat="45.89081" lon="4.74248">
        <ele>186</ele>
        <time>2018-02-02T09:47:56Z</time>
      </trkpt>
      <trkpt lat="45.89076" lon="4.7425">
        <ele>186</ele>
        <time>2018-02-02T09:47:57Z</time>
      </trkpt>
      <trkpt lat="45.8907" lon="4.74254">
        <ele>186</ele>
        <time>2018-02-02T09:47:58Z</time>
      </trkpt>
      <trkpt lat="45.89065" lon="4.74256">
        <ele>186</ele>
        <time>2018-02-02T09:47:59Z</time>
      </trkpt>
      <trkpt lat="45.8906" lon="4.74258">
        <ele>186</ele>
        <time>2018-02-02T09:48:00Z</time>
      </trkpt>
      <trkpt lat="45.89055" lon="4.74258">
        <ele>187</ele>
        <time>2018-02-02T09:48:01Z</time>
      </trkpt>
      <trkpt lat="45.8905" lon="4.7426">
        <ele>187</ele>
        <time>2018-02-02T09:48:02Z</time>
      </trkpt>
      <trkpt lat="45.89045" lon="4.74262">
        <ele>187</ele>
        <time>2018-02-02T09:48:03Z</time>
      </trkpt>
      <trkpt lat="45.89041" lon="4.74264">
        <ele>187</ele>
        <time>2018-02-02T09:48:04Z</time>
      </trkpt>
      <trkpt lat="45.89035" lon="4.74266">
        <ele>187</ele>
        <time>2018-02-02T09:48:05Z</time>
      </trkpt>
      <trkpt lat="45.89031" lon="4.74267">
        <ele>187</ele>
        <time>2018-02-02T09:48:06Z</time>
      </trkpt>
      <trkpt lat="45.89025" lon="4.74269">
        <ele>187</ele>
        <time>2018-02-02T09:48:07Z</time>
      </trkpt>
      <trkpt lat="45.8902" lon="4.7427">
        <ele>187</ele>
        <time>2018-02-02T09:48:08Z</time>
      </trkpt>
      <trkpt lat="45.89015" lon="4.74271">
        <ele>187</ele>
        <time>2018-02-02T09:48:09Z</time>
      </trkpt>
      <trkpt lat="45.8901" lon="4.74272">
        <ele>187</ele>
        <time>2018-02-02T09:48:10Z</time>
      </trkpt>
      <trkpt lat="45.89004" lon="4.74274">
        <ele>187</ele>
        <time>2018-02-02T09:48:11Z</time>
      </trkpt>
      <trkpt lat="45.89" lon="4.74276">
        <ele>187</ele>
        <time>2018-02-02T09:48:12Z</time>
      </trkpt>
      <trkpt lat="45.88994" lon="4.74277">
        <ele>187</ele>
        <time>2018-02-02T09:48:13Z</time>
      </trkpt>
      <trkpt lat="45.88989" lon="4.74277">
        <ele>187</ele>
        <time>2018-02-02T09:48:14Z</time>
      </trkpt>
      <trkpt lat="45.88983" lon="4.74277">
        <ele>187</ele>
        <time>2018-02-02T09:48:15Z</time>
      </trkpt>
      <trkpt lat="45.88979" lon="4.74278">
        <ele>187</ele>
        <time>2018-02-02T09:48:16Z</time>
      </trkpt>
      <trkpt lat="45.88974" lon="4.74279">
        <ele>187</ele>
        <time>2018-02-02T09:48:17Z</time>
      </trkpt>
      <trkpt lat="45.88969" lon="4.74279">
        <ele>187</ele>
        <time>2018-02-02T09:48:18Z</time>
      </trkpt>
      <trkpt lat="45.88963" lon="4.7428">
        <ele>187</ele>
        <time>2018-02-02T09:48:19Z</time>
      </trkpt>
      <trkpt lat="45.88955" lon="4.74282">
        <ele>187</ele>
        <time>2018-02-02T09:48:21Z</time>
      </trkpt>
      <trkpt lat="45.88949" lon="4.74285">
        <ele>187</ele>
        <time>2018-02-02T09:48:22Z</time>
      </trkpt>
      <trkpt lat="45.88943" lon="4.74287">
        <ele>187</ele>
        <time>2018-02-02T09:48:23Z</time>
      </trkpt>
      <trkpt lat="45.88939" lon="4.74289">
        <ele>187</ele>
        <time>2018-02-02T09:48:24Z</time>
      </trkpt>
      <trkpt lat="45.8893" lon="4.7429">
        <ele>187</ele>
        <time>2018-02-02T09:48:26Z</time>
      </trkpt>
      <trkpt lat="45.88926" lon="4.7429">
        <ele>187</ele>
        <time>2018-02-02T09:48:27Z</time>
      </trkpt>
      <trkpt lat="45.88921" lon="4.74292">
        <ele>187</ele>
        <time>2018-02-02T09:48:28Z</time>
      </trkpt>
      <trkpt lat="45.88916" lon="4.74294">
        <ele>188</ele>
        <time>2018-02-02T09:48:29Z</time>
      </trkpt>
      <trkpt lat="45.88912" lon="4.74293">
        <ele>188</ele>
        <time>2018-02-02T09:48:30Z</time>
      </trkpt>
      <trkpt lat="45.88906" lon="4.74296">
        <ele>188</ele>
        <time>2018-02-02T09:48:31Z</time>
      </trkpt>
      <trkpt lat="45.88901" lon="4.74297">
        <ele>188</ele>
        <time>2018-02-02T09:48:32Z</time>
      </trkpt>
      <trkpt lat="45.88895" lon="4.74296">
        <ele>188</ele>
        <time>2018-02-02T09:48:33Z</time>
      </trkpt>
      <trkpt lat="45.88891" lon="4.74297">
        <ele>188</ele>
        <time>2018-02-02T09:48:34Z</time>
      </trkpt>
      <trkpt lat="45.88886" lon="4.74298">
        <ele>188</ele>
        <time>2018-02-02T09:48:35Z</time>
      </trkpt>
      <trkpt lat="45.88881" lon="4.743">
        <ele>188</ele>
        <time>2018-02-02T09:48:36Z</time>
      </trkpt>
      <trkpt lat="45.88875" lon="4.74302">
        <ele>188</ele>
        <time>2018-02-02T09:48:37Z</time>
      </trkpt>
      <trkpt lat="45.88871" lon="4.74306">
        <ele>188</ele>
        <time>2018-02-02T09:48:38Z</time>
      </trkpt>
      <trkpt lat="45.88866" lon="4.74307">
        <ele>188</ele>
        <time>2018-02-02T09:48:39Z</time>
      </trkpt>
      <trkpt lat="45.88857" lon="4.74307">
        <ele>188</ele>
        <time>2018-02-02T09:48:41Z</time>
      </trkpt>
      <trkpt lat="45.88852" lon="4.74309">
        <ele>188</ele>
        <time>2018-02-02T09:48:42Z</time>
      </trkpt>
      <trkpt lat="45.88847" lon="4.7431">
        <ele>188</ele>
        <time>2018-02-02T09:48:43Z</time>
      </trkpt>
      <trkpt lat="45.88841" lon="4.74312">
        <ele>188</ele>
        <time>2018-02-02T09:48:44Z</time>
      </trkpt>
      <trkpt lat="45.88833" lon="4.74315">
        <ele>188</ele>
        <time>2018-02-02T09:48:46Z</time>
      </trkpt>
      <trkpt lat="45.88829" lon="4.74318">
        <ele>188</ele>
        <time>2018-02-02T09:48:47Z</time>
      </trkpt>
      <trkpt lat="45.8882" lon="4.74321">
        <ele>188</ele>
        <time>2018-02-02T09:48:49Z</time>
      </trkpt>
      <trkpt lat="45.88816" lon="4.74322">
        <ele>188</ele>
        <time>2018-02-02T09:48:50Z</time>
      </trkpt>
      <trkpt lat="45.88811" lon="4.74324">
        <ele>188</ele>
        <time>2018-02-02T09:48:51Z</time>
      </trkpt>
      <trkpt lat="45.88807" lon="4.74325">
        <ele>188</ele>
        <time>2018-02-02T09:48:52Z</time>
      </trkpt>
      <trkpt lat="45.88798" lon="4.74328">
        <ele>188</ele>
        <time>2018-02-02T09:48:54Z</time>
      </trkpt>
      <trkpt lat="45.88793" lon="4.7433">
        <ele>188</ele>
        <time>2018-02-02T09:48:55Z</time>
      </trkpt>
      <trkpt lat="45.88789" lon="4.74332">
        <ele>188</ele>
        <time>2018-02-02T09:48:56Z</time>
      </trkpt>
      <trkpt lat="45.88783" lon="4.74333">
        <ele>188</ele>
        <time>2018-02-02T09:48:57Z</time>
      </trkpt>
      <trkpt lat="45.88779" lon="4.74334">
        <ele>188</ele>
        <time>2018-02-02T09:48:58Z</time>
      </trkpt>
      <trkpt lat="45.88774" lon="4.74337">
        <ele>188</ele>
        <time>2018-02-02T09:48:59Z</time>
      </trkpt>
      <trkpt lat="45.88769" lon="4.74338">
        <ele>188</ele>
        <time>2018-02-02T09:49:00Z</time>
      </trkpt>
      <trkpt lat="45.88764" lon="4.7434">
        <ele>188</ele>
        <time>2018-02-02T09:49:01Z</time>
      </trkpt>
      <trkpt lat="45.88759" lon="4.74341">
        <ele>188</ele>
        <time>2018-02-02T09:49:02Z</time>
      </trkpt>
      <trkpt lat="45.88755" lon="4.74343">
        <ele>188</ele>
        <time>2018-02-02T09:49:03Z</time>
      </trkpt>
      <trkpt lat="45.88747" lon="4.74345">
        <ele>188</ele>
        <time>2018-02-02T09:49:05Z</time>
      </trkpt>
      <trkpt lat="45.88744" lon="4.74347">
        <ele>188</ele>
        <time>2018-02-02T09:49:06Z</time>
      </trkpt>
      <trkpt lat="45.88737" lon="4.7435">
        <ele>188</ele>
        <time>2018-02-02T09:49:08Z</time>
      </trkpt>
      <trkpt lat="45.88734" lon="4.74351">
        <ele>188</ele>
        <time>2018-02-02T09:49:09Z</time>
      </trkpt>
      <trkpt lat="45.88727" lon="4.74352">
        <ele>188</ele>
        <time>2018-02-02T09:49:11Z</time>
      </trkpt>
      <trkpt lat="45.88723" lon="4.74353">
        <ele>188</ele>
        <time>2018-02-02T09:49:12Z</time>
      </trkpt>
      <trkpt lat="45.88715" lon="4.74356">
        <ele>189</ele>
        <time>2018-02-02T09:49:14Z</time>
      </trkpt>
      <trkpt lat="45.88712" lon="4.74357">
        <ele>189</ele>
        <time>2018-02-02T09:49:15Z</time>
      </trkpt>
      <trkpt lat="45.88706" lon="4.74354">
        <ele>188</ele>
        <time>2018-02-02T09:49:17Z</time>
      </trkpt>
      <trkpt lat="45.88704" lon="4.7435">
        <ele>188</ele>
        <time>2018-02-02T09:49:18Z</time>
      </trkpt>
      <trkpt lat="45.88702" lon="4.74345">
        <ele>188</ele>
        <time>2018-02-02T09:49:19Z</time>
      </trkpt>
      <trkpt lat="45.88705" lon="4.74336">
        <ele>188</ele>
        <time>2018-02-02T09:49:20Z</time>
      </trkpt>
      <trkpt lat="45.88706" lon="4.74324">
        <ele>188</ele>
        <time>2018-02-02T09:49:22Z</time>
      </trkpt>
      <trkpt lat="45.88706" lon="4.74316">
        <ele>188</ele>
        <time>2018-02-02T09:49:23Z</time>
      </trkpt>
      <trkpt lat="45.88706" lon="4.74308">
        <ele>188</ele>
        <time>2018-02-02T09:49:24Z</time>
      </trkpt>
      <trkpt lat="45.88707" lon="4.74299">
        <ele>188</ele>
        <time>2018-02-02T09:49:25Z</time>
      </trkpt>
      <trkpt lat="45.88706" lon="4.74291">
        <ele>188</ele>
        <time>2018-02-02T09:49:26Z</time>
      </trkpt>
      <trkpt lat="45.88706" lon="4.74283">
        <ele>188</ele>
        <time>2018-02-02T09:49:27Z</time>
      </trkpt>
      <trkpt lat="45.88706" lon="4.74274">
        <ele>188</ele>
        <time>2018-02-02T09:49:28Z</time>
      </trkpt>
      <trkpt lat="45.88706" lon="4.74266">
        <ele>188</ele>
        <time>2018-02-02T09:49:29Z</time>
      </trkpt>
      <trkpt lat="45.88705" lon="4.74258">
        <ele>188</ele>
        <time>2018-02-02T09:49:30Z</time>
      </trkpt>
      <trkpt lat="45.88705" lon="4.7425">
        <ele>188</ele>
        <time>2018-02-02T09:49:31Z</time>
      </trkpt>
      <trkpt lat="45.88703" lon="4.74242">
        <ele>188</ele>
        <time>2018-02-02T09:49:32Z</time>
      </trkpt>
      <trkpt lat="45.88703" lon="4.74235">
        <ele>188</ele>
        <time>2018-02-02T09:49:33Z</time>
      </trkpt>
      <trkpt lat="45.88702" lon="4.74227">
        <ele>188</ele>
        <time>2018-02-02T09:49:34Z</time>
      </trkpt>
      <trkpt lat="45.88701" lon="4.74221">
        <ele>188</ele>
        <time>2018-02-02T09:49:35Z</time>
      </trkpt>
      <trkpt lat="45.88701" lon="4.74213">
        <ele>188</ele>
        <time>2018-02-02T09:49:36Z</time>
      </trkpt>
      <trkpt lat="45.887" lon="4.74206">
        <ele>188</ele>
        <time>2018-02-02T09:49:37Z</time>
      </trkpt>
      <trkpt lat="45.88699" lon="4.74199">
        <ele>188</ele>
        <time>2018-02-02T09:49:38Z</time>
      </trkpt>
      <trkpt lat="45.88698" lon="4.74191">
        <ele>188</ele>
        <time>2018-02-02T09:49:39Z</time>
      </trkpt>
      <trkpt lat="45.88697" lon="4.74183">
        <ele>188</ele>
        <time>2018-02-02T09:49:40Z</time>
      </trkpt>
      <trkpt lat="45.88696" lon="4.74175">
        <ele>188</ele>
        <time>2018-02-02T09:49:41Z</time>
      </trkpt>
      <trkpt lat="45.88695" lon="4.74168">
        <ele>188</ele>
        <time>2018-02-02T09:49:42Z</time>
      </trkpt>
      <trkpt lat="45.88693" lon="4.74161">
        <ele>188</ele>
        <time>2018-02-02T09:49:43Z</time>
      </trkpt>
      <trkpt lat="45.88691" lon="4.74153">
        <ele>188</ele>
        <time>2018-02-02T09:49:44Z</time>
      </trkpt>
      <trkpt lat="45.8869" lon="4.74146">
        <ele>188</ele>
        <time>2018-02-02T09:49:45Z</time>
      </trkpt>
      <trkpt lat="45.88688" lon="4.7414">
        <ele>188</ele>
        <time>2018-02-02T09:49:46Z</time>
      </trkpt>
      <trkpt lat="45.88685" lon="4.74134">
        <ele>188</ele>
        <time>2018-02-02T09:49:47Z</time>
      </trkpt>
      <trkpt lat="45.88684" lon="4.74127">
        <ele>188</ele>
        <time>2018-02-02T09:49:48Z</time>
      </trkpt>
      <trkpt lat="45.88683" lon="4.7412">
        <ele>188</ele>
        <time>2018-02-02T09:49:49Z</time>
      </trkpt>
      <trkpt lat="45.8868" lon="4.74113">
        <ele>188</ele>
        <time>2018-02-02T09:49:50Z</time>
      </trkpt>
      <trkpt lat="45.88678" lon="4.74106">
        <ele>188</ele>
        <time>2018-02-02T09:49:51Z</time>
      </trkpt>
      <trkpt lat="45.88676" lon="4.74098">
        <ele>188</ele>
        <time>2018-02-02T09:49:52Z</time>
      </trkpt>
      <trkpt lat="45.88674" lon="4.7409">
        <ele>188</ele>
        <time>2018-02-02T09:49:53Z</time>
      </trkpt>
      <trkpt lat="45.88671" lon="4.74082">
        <ele>188</ele>
        <time>2018-02-02T09:49:54Z</time>
      </trkpt>
      <trkpt lat="45.88669" lon="4.74075">
        <ele>188</ele>
        <time>2018-02-02T09:49:55Z</time>
      </trkpt>
      <trkpt lat="45.88666" lon="4.74067">
        <ele>188</ele>
        <time>2018-02-02T09:49:56Z</time>
      </trkpt>
      <trkpt lat="45.88664" lon="4.7406">
        <ele>187</ele>
        <time>2018-02-02T09:49:57Z</time>
      </trkpt>
      <trkpt lat="45.88661" lon="4.74052">
        <ele>187</ele>
        <time>2018-02-02T09:49:58Z</time>
      </trkpt>
      <trkpt lat="45.88659" lon="4.74044">
        <ele>187</ele>
        <time>2018-02-02T09:49:59Z</time>
      </trkpt>
      <trkpt lat="45.88657" lon="4.74036">
        <ele>187</ele>
        <time>2018-02-02T09:50:00Z</time>
      </trkpt>
      <trkpt lat="45.88655" lon="4.74028">
        <ele>187</ele>
        <time>2018-02-02T09:50:01Z</time>
      </trkpt>
      <trkpt lat="45.88654" lon="4.7402">
        <ele>187</ele>
        <time>2018-02-02T09:50:02Z</time>
      </trkpt>
      <trkpt lat="45.88652" lon="4.74011">
        <ele>187</ele>
        <time>2018-02-02T09:50:03Z</time>
      </trkpt>
      <trkpt lat="45.88651" lon="4.74002">
        <ele>187</ele>
        <time>2018-02-02T09:50:04Z</time>
      </trkpt>
      <trkpt lat="45.8865" lon="4.73993">
        <ele>186</ele>
        <time>2018-02-02T09:50:05Z</time>
      </trkpt>
      <trkpt lat="45.88648" lon="4.73984">
        <ele>187</ele>
        <time>2018-02-02T09:50:06Z</time>
      </trkpt>
      <trkpt lat="45.88647" lon="4.73976">
        <ele>187</ele>
        <time>2018-02-02T09:50:07Z</time>
      </trkpt>
      <trkpt lat="45.88646" lon="4.73967">
        <ele>187</ele>
        <time>2018-02-02T09:50:08Z</time>
      </trkpt>
      <trkpt lat="45.88645" lon="4.73959">
        <ele>187</ele>
        <time>2018-02-02T09:50:09Z</time>
      </trkpt>
      <trkpt lat="45.88644" lon="4.7395">
        <ele>187</ele>
        <time>2018-02-02T09:50:10Z</time>
      </trkpt>
      <trkpt lat="45.88643" lon="4.73942">
        <ele>187</ele>
        <time>2018-02-02T09:50:11Z</time>
      </trkpt>
      <trkpt lat="45.88642" lon="4.73935">
        <ele>187</ele>
        <time>2018-02-02T09:50:12Z</time>
      </trkpt>
      <trkpt lat="45.88642" lon="4.73927">
        <ele>187</ele>
        <time>2018-02-02T09:50:13Z</time>
      </trkpt>
      <trkpt lat="45.88641" lon="4.7392">
        <ele>187</ele>
        <time>2018-02-02T09:50:14Z</time>
      </trkpt>
      <trkpt lat="45.8864" lon="4.73912">
        <ele>187</ele>
        <time>2018-02-02T09:50:15Z</time>
      </trkpt>
      <trkpt lat="45.88642" lon="4.73905">
        <ele>187</ele>
        <time>2018-02-02T09:50:16Z</time>
      </trkpt>
      <trkpt lat="45.88641" lon="4.73898">
        <ele>187</ele>
        <time>2018-02-02T09:50:17Z</time>
      </trkpt>
      <trkpt lat="45.88641" lon="4.7389">
        <ele>187</ele>
        <time>2018-02-02T09:50:18Z</time>
      </trkpt>
      <trkpt lat="45.88642" lon="4.73883">
        <ele>187</ele>
        <time>2018-02-02T09:50:19Z</time>
      </trkpt>
      <trkpt lat="45.88642" lon="4.73876">
        <ele>187</ele>
        <time>2018-02-02T09:50:20Z</time>
      </trkpt>
      <trkpt lat="45.88642" lon="4.73868">
        <ele>187</ele>
        <time>2018-02-02T09:50:21Z</time>
      </trkpt>
      <trkpt lat="45.88643" lon="4.73861">
        <ele>187</ele>
        <time>2018-02-02T09:50:22Z</time>
      </trkpt>
      <trkpt lat="45.88644" lon="4.73852">
        <ele>187</ele>
        <time>2018-02-02T09:50:23Z</time>
      </trkpt>
      <trkpt lat="45.88643" lon="4.73845">
        <ele>187</ele>
        <time>2018-02-02T09:50:24Z</time>
      </trkpt>
      <trkpt lat="45.88644" lon="4.73839">
        <ele>187</ele>
        <time>2018-02-02T09:50:25Z</time>
      </trkpt>
      <trkpt lat="45.88644" lon="4.73832">
        <ele>187</ele>
        <time>2018-02-02T09:50:26Z</time>
      </trkpt>
      <trkpt lat="45.88644" lon="4.73826">
        <ele>187</ele>
        <time>2018-02-02T09:50:27Z</time>
      </trkpt>
      <trkpt lat="45.88645" lon="4.73819">
        <ele>187</ele>
        <time>2018-02-02T09:50:28Z</time>
      </trkpt>
      <trkpt lat="45.88645" lon="4.73812">
        <ele>187</ele>
        <time>2018-02-02T09:50:29Z</time>
      </trkpt>
      <trkpt lat="45.88646" lon="4.73805">
        <ele>187</ele>
        <time>2018-02-02T09:50:30Z</time>
      </trkpt>
      <trkpt lat="45.88646" lon="4.73798">
        <ele>187</ele>
        <time>2018-02-02T09:50:31Z</time>
      </trkpt>
      <trkpt lat="45.88647" lon="4.73787">
        <ele>187</ele>
        <time>2018-02-02T09:50:33Z</time>
      </trkpt>
      <trkpt lat="45.88647" lon="4.7378">
        <ele>187</ele>
        <time>2018-02-02T09:50:34Z</time>
      </trkpt>
      <trkpt lat="45.88647" lon="4.73768">
        <ele>187</ele>
        <time>2018-02-02T09:50:36Z</time>
      </trkpt>
      <trkpt lat="45.88647" lon="4.73762">
        <ele>187</ele>
        <time>2018-02-02T09:50:37Z</time>
      </trkpt>
      <trkpt lat="45.88648" lon="4.73751">
        <ele>187</ele>
        <time>2018-02-02T09:50:39Z</time>
      </trkpt>
      <trkpt lat="45.88648" lon="4.73744">
        <ele>187</ele>
        <time>2018-02-02T09:50:40Z</time>
      </trkpt>
      <trkpt lat="45.88649" lon="4.73733">
        <ele>187</ele>
        <time>2018-02-02T09:50:42Z</time>
      </trkpt>
      <trkpt lat="45.88649" lon="4.73728">
        <ele>186</ele>
        <time>2018-02-02T09:50:43Z</time>
      </trkpt>
      <trkpt lat="45.88649" lon="4.73718">
        <ele>186</ele>
        <time>2018-02-02T09:50:45Z</time>
      </trkpt>
      <trkpt lat="45.88649" lon="4.73713">
        <ele>186</ele>
        <time>2018-02-02T09:50:46Z</time>
      </trkpt>
      <trkpt lat="45.88649" lon="4.73704">
        <ele>186</ele>
        <time>2018-02-02T09:50:48Z</time>
      </trkpt>
      <trkpt lat="45.88649" lon="4.73698">
        <ele>186</ele>
        <time>2018-02-02T09:50:49Z</time>
      </trkpt>
      <trkpt lat="45.88649" lon="4.73688">
        <ele>186</ele>
        <time>2018-02-02T09:50:51Z</time>
      </trkpt>
      <trkpt lat="45.88649" lon="4.73683">
        <ele>186</ele>
        <time>2018-02-02T09:50:52Z</time>
      </trkpt>
      <trkpt lat="45.88649" lon="4.73672">
        <ele>186</ele>
        <time>2018-02-02T09:50:54Z</time>
      </trkpt>
      <trkpt lat="45.8865" lon="4.73666">
        <ele>186</ele>
        <time>2018-02-02T09:50:55Z</time>
      </trkpt>
      <trkpt lat="45.8865" lon="4.73655">
        <ele>186</ele>
        <time>2018-02-02T09:50:57Z</time>
      </trkpt>
      <trkpt lat="45.8865" lon="4.73648">
        <ele>186</ele>
        <time>2018-02-02T09:50:58Z</time>
      </trkpt>
      <trkpt lat="45.8865" lon="4.73636">
        <ele>186</ele>
        <time>2018-02-02T09:51:00Z</time>
      </trkpt>
      <trkpt lat="45.8865" lon="4.73629">
        <ele>186</ele>
        <time>2018-02-02T09:51:01Z</time>
      </trkpt>
      <trkpt lat="45.8865" lon="4.73619">
        <ele>186</ele>
        <time>2018-02-02T09:51:03Z</time>
      </trkpt>
      <trkpt lat="45.88651" lon="4.73609">
        <ele>186</ele>
        <time>2018-02-02T09:51:04Z</time>
      </trkpt>
      <trkpt lat="45.8865" lon="4.73597">
        <ele>185</ele>
        <time>2018-02-02T09:51:06Z</time>
      </trkpt>
      <trkpt lat="45.8865" lon="4.73589">
        <ele>185</ele>
        <time>2018-02-02T09:51:07Z</time>
      </trkpt>
      <trkpt lat="45.8865" lon="4.73581">
        <ele>185</ele>
        <time>2018-02-02T09:51:08Z</time>
      </trkpt>
      <trkpt lat="45.8865" lon="4.73572">
        <ele>185</ele>
        <time>2018-02-02T09:51:09Z</time>
      </trkpt>
      <trkpt lat="45.8865" lon="4.73564">
        <ele>185</ele>
        <time>2018-02-02T09:51:10Z</time>
      </trkpt>
      <trkpt lat="45.88651" lon="4.73556">
        <ele>185</ele>
        <time>2018-02-02T09:51:11Z</time>
      </trkpt>
      <trkpt lat="45.88651" lon="4.73547">
        <ele>185</ele>
        <time>2018-02-02T09:51:12Z</time>
      </trkpt>
      <trkpt lat="45.88652" lon="4.73538">
        <ele>185</ele>
        <time>2018-02-02T09:51:13Z</time>
      </trkpt>
      <trkpt lat="45.88653" lon="4.7353">
        <ele>185</ele>
        <time>2018-02-02T09:51:14Z</time>
      </trkpt>
      <trkpt lat="45.88654" lon="4.73521">
        <ele>185</ele>
        <time>2018-02-02T09:51:15Z</time>
      </trkpt>
      <trkpt lat="45.88655" lon="4.73512">
        <ele>184</ele>
        <time>2018-02-02T09:51:16Z</time>
      </trkpt>
      <trkpt lat="45.88657" lon="4.73505">
        <ele>184</ele>
        <time>2018-02-02T09:51:17Z</time>
      </trkpt>
      <trkpt lat="45.88658" lon="4.73499">
        <ele>184</ele>
        <time>2018-02-02T09:51:18Z</time>
      </trkpt>
      <trkpt lat="45.88658" lon="4.73492">
        <ele>184</ele>
        <time>2018-02-02T09:51:19Z</time>
      </trkpt>
      <trkpt lat="45.88656" lon="4.73483">
        <ele>184</ele>
        <time>2018-02-02T09:51:20Z</time>
      </trkpt>
      <trkpt lat="45.88653" lon="4.73477">
        <ele>184</ele>
        <time>2018-02-02T09:51:21Z</time>
      </trkpt>
      <trkpt lat="45.88649" lon="4.73474">
        <ele>184</ele>
        <time>2018-02-02T09:51:22Z</time>
      </trkpt>
      <trkpt lat="45.88644" lon="4.73471">
        <ele>184</ele>
        <time>2018-02-02T09:51:23Z</time>
      </trkpt>
      <trkpt lat="45.88637" lon="4.73463">
        <ele>184</ele>
        <time>2018-02-02T09:51:25Z</time>
      </trkpt>
      <trkpt lat="45.88636" lon="4.73457">
        <ele>184</ele>
        <time>2018-02-02T09:51:26Z</time>
      </trkpt>
      <trkpt lat="45.88636" lon="4.73445">
        <ele>184</ele>
        <time>2018-02-02T09:51:28Z</time>
      </trkpt>
      <trkpt lat="45.88637" lon="4.73439">
        <ele>184</ele>
        <time>2018-02-02T09:51:29Z</time>
      </trkpt>
      <trkpt lat="45.88639" lon="4.73427">
        <ele>184</ele>
        <time>2018-02-02T09:51:31Z</time>
      </trkpt>
      <trkpt lat="45.88639" lon="4.73419">
        <ele>184</ele>
        <time>2018-02-02T09:51:32Z</time>
      </trkpt>
      <trkpt lat="45.88639" lon="4.73412">
        <ele>184</ele>
        <time>2018-02-02T09:51:33Z</time>
      </trkpt>
      <trkpt lat="45.88637" lon="4.73405">
        <ele>184</ele>
        <time>2018-02-02T09:51:34Z</time>
      </trkpt>
      <trkpt lat="45.88635" lon="4.73399">
        <ele>184</ele>
        <time>2018-02-02T09:51:35Z</time>
      </trkpt>
      <trkpt lat="45.88632" lon="4.73393">
        <ele>183</ele>
        <time>2018-02-02T09:51:36Z</time>
      </trkpt>
      <trkpt lat="45.88628" lon="4.7339">
        <ele>183</ele>
        <time>2018-02-02T09:51:37Z</time>
      </trkpt>
      <trkpt lat="45.88623" lon="4.73387">
        <ele>183</ele>
        <time>2018-02-02T09:51:38Z</time>
      </trkpt>
      <trkpt lat="45.88618" lon="4.73387">
        <ele>183</ele>
        <time>2018-02-02T09:51:39Z</time>
      </trkpt>
      <trkpt lat="45.88612" lon="4.73386">
        <ele>183</ele>
        <time>2018-02-02T09:51:40Z</time>
      </trkpt>
      <trkpt lat="45.88606" lon="4.73387">
        <ele>183</ele>
        <time>2018-02-02T09:51:41Z</time>
      </trkpt>
      <trkpt lat="45.88601" lon="4.73388">
        <ele>183</ele>
        <time>2018-02-02T09:51:42Z</time>
      </trkpt>
      <trkpt lat="45.88596" lon="4.7339">
        <ele>183</ele>
        <time>2018-02-02T09:51:43Z</time>
      </trkpt>
      <trkpt lat="45.88591" lon="4.73391">
        <ele>183</ele>
        <time>2018-02-02T09:51:44Z</time>
      </trkpt>
      <trkpt lat="45.88586" lon="4.73393">
        <ele>183</ele>
        <time>2018-02-02T09:51:45Z</time>
      </trkpt>
      <trkpt lat="45.88581" lon="4.73395">
        <ele>183</ele>
        <time>2018-02-02T09:51:46Z</time>
      </trkpt>
      <trkpt lat="45.88577" lon="4.73396">
        <ele>183</ele>
        <time>2018-02-02T09:51:47Z</time>
      </trkpt>
      <trkpt lat="45.88572" lon="4.73396">
        <ele>183</ele>
        <time>2018-02-02T09:51:48Z</time>
      </trkpt>
      <trkpt lat="45.88567" lon="4.73398">
        <ele>183</ele>
        <time>2018-02-02T09:51:49Z</time>
      </trkpt>
      <trkpt lat="45.88562" lon="4.73399">
        <ele>183</ele>
        <time>2018-02-02T09:51:50Z</time>
      </trkpt>
      <trkpt lat="45.88558" lon="4.734">
        <ele>183</ele>
        <time>2018-02-02T09:51:51Z</time>
      </trkpt>
      <trkpt lat="45.88553" lon="4.73403">
        <ele>183</ele>
        <time>2018-02-02T09:51:52Z</time>
      </trkpt>
      <trkpt lat="45.88544" lon="4.73404">
        <ele>183</ele>
        <time>2018-02-02T09:51:54Z</time>
      </trkpt>
      <trkpt lat="45.88539" lon="4.73406">
        <ele>183</ele>
        <time>2018-02-02T09:51:55Z</time>
      </trkpt>
      <trkpt lat="45.88534" lon="4.73406">
        <ele>183</ele>
        <time>2018-02-02T09:51:56Z</time>
      </trkpt>
      <trkpt lat="45.88529" lon="4.73408">
        <ele>183</ele>
        <time>2018-02-02T09:51:57Z</time>
      </trkpt>
      <trkpt lat="45.88524" lon="4.73409">
        <ele>183</ele>
        <time>2018-02-02T09:51:58Z</time>
      </trkpt>
      <trkpt lat="45.88519" lon="4.7341">
        <ele>184</ele>
        <time>2018-02-02T09:51:59Z</time>
      </trkpt>
      <trkpt lat="45.88514" lon="4.73411">
        <ele>184</ele>
        <time>2018-02-02T09:52:00Z</time>
      </trkpt>
      <trkpt lat="45.88509" lon="4.73412">
        <ele>184</ele>
        <time>2018-02-02T09:52:01Z</time>
      </trkpt>
      <trkpt lat="45.88501" lon="4.73415">
        <ele>184</ele>
        <time>2018-02-02T09:52:03Z</time>
      </trkpt>
      <trkpt lat="45.88496" lon="4.73417">
        <ele>184</ele>
        <time>2018-02-02T09:52:04Z</time>
      </trkpt>
      <trkpt lat="45.88491" lon="4.73418">
        <ele>184</ele>
        <time>2018-02-02T09:52:05Z</time>
      </trkpt>
      <trkpt lat="45.88486" lon="4.73421">
        <ele>184</ele>
        <time>2018-02-02T09:52:06Z</time>
      </trkpt>
      <trkpt lat="45.88481" lon="4.73422">
        <ele>184</ele>
        <time>2018-02-02T09:52:07Z</time>
      </trkpt>
      <trkpt lat="45.88476" lon="4.73424">
        <ele>184</ele>
        <time>2018-02-02T09:52:08Z</time>
      </trkpt>
      <trkpt lat="45.88471" lon="4.73425">
        <ele>184</ele>
        <time>2018-02-02T09:52:09Z</time>
      </trkpt>
      <trkpt lat="45.88466" lon="4.73426">
        <ele>184</ele>
        <time>2018-02-02T09:52:10Z</time>
      </trkpt>
      <trkpt lat="45.88461" lon="4.73428">
        <ele>184</ele>
        <time>2018-02-02T09:52:11Z</time>
      </trkpt>
      <trkpt lat="45.88456" lon="4.73429">
        <ele>184</ele>
        <time>2018-02-02T09:52:12Z</time>
      </trkpt>
      <trkpt lat="45.88451" lon="4.7343">
        <ele>184</ele>
        <time>2018-02-02T09:52:13Z</time>
      </trkpt>
      <trkpt lat="45.88446" lon="4.73431">
        <ele>184</ele>
        <time>2018-02-02T09:52:14Z</time>
      </trkpt>
      <trkpt lat="45.88441" lon="4.73434">
        <ele>184</ele>
        <time>2018-02-02T09:52:15Z</time>
      </trkpt>
      <trkpt lat="45.88437" lon="4.73435">
        <ele>184</ele>
        <time>2018-02-02T09:52:16Z</time>
      </trkpt>
      <trkpt lat="45.88432" lon="4.73437">
        <ele>184</ele>
        <time>2018-02-02T09:52:17Z</time>
      </trkpt>
      <trkpt lat="45.88426" lon="4.73439">
        <ele>184</ele>
        <time>2018-02-02T09:52:18Z</time>
      </trkpt>
      <trkpt lat="45.8842" lon="4.73441">
        <ele>184</ele>
        <time>2018-02-02T09:52:19Z</time>
      </trkpt>
      <trkpt lat="45.88415" lon="4.73443">
        <ele>184</ele>
        <time>2018-02-02T09:52:20Z</time>
      </trkpt>
      <trkpt lat="45.88411" lon="4.73444">
        <ele>184</ele>
        <time>2018-02-02T09:52:21Z</time>
      </trkpt>
      <trkpt lat="45.88406" lon="4.73444">
        <ele>184</ele>
        <time>2018-02-02T09:52:22Z</time>
      </trkpt>
      <trkpt lat="45.88401" lon="4.73445">
        <ele>184</ele>
        <time>2018-02-02T09:52:23Z</time>
      </trkpt>
      <trkpt lat="45.88395" lon="4.73446">
        <ele>184</ele>
        <time>2018-02-02T09:52:24Z</time>
      </trkpt>
      <trkpt lat="45.8839" lon="4.73448">
        <ele>184</ele>
        <time>2018-02-02T09:52:25Z</time>
      </trkpt>
      <trkpt lat="45.88386" lon="4.7345">
        <ele>184</ele>
        <time>2018-02-02T09:52:26Z</time>
      </trkpt>
      <trkpt lat="45.8838" lon="4.73451">
        <ele>184</ele>
        <time>2018-02-02T09:52:27Z</time>
      </trkpt>
      <trkpt lat="45.88375" lon="4.73453">
        <ele>184</ele>
        <time>2018-02-02T09:52:28Z</time>
      </trkpt>
      <trkpt lat="45.88369" lon="4.73454">
        <ele>184</ele>
        <time>2018-02-02T09:52:29Z</time>
      </trkpt>
      <trkpt lat="45.88364" lon="4.73456">
        <ele>184</ele>
        <time>2018-02-02T09:52:30Z</time>
      </trkpt>
      <trkpt lat="45.88359" lon="4.73456">
        <ele>184</ele>
        <time>2018-02-02T09:52:31Z</time>
      </trkpt>
      <trkpt lat="45.88354" lon="4.73457">
        <ele>184</ele>
        <time>2018-02-02T09:52:32Z</time>
      </trkpt>
      <trkpt lat="45.88349" lon="4.73458">
        <ele>184</ele>
        <time>2018-02-02T09:52:33Z</time>
      </trkpt>
      <trkpt lat="45.88344" lon="4.7346">
        <ele>184</ele>
        <time>2018-02-02T09:52:34Z</time>
      </trkpt>
      <trkpt lat="45.88339" lon="4.73462">
        <ele>184</ele>
        <time>2018-02-02T09:52:35Z</time>
      </trkpt>
      <trkpt lat="45.88334" lon="4.73463">
        <ele>184</ele>
        <time>2018-02-02T09:52:36Z</time>
      </trkpt>
      <trkpt lat="45.88329" lon="4.73464">
        <ele>184</ele>
        <time>2018-02-02T09:52:37Z</time>
      </trkpt>
      <trkpt lat="45.88324" lon="4.73465">
        <ele>184</ele>
        <time>2018-02-02T09:52:38Z</time>
      </trkpt>
      <trkpt lat="45.8832" lon="4.73467">
        <ele>184</ele>
        <time>2018-02-02T09:52:39Z</time>
      </trkpt>
      <trkpt lat="45.88315" lon="4.73469">
        <ele>184</ele>
        <time>2018-02-02T09:52:40Z</time>
      </trkpt>
      <trkpt lat="45.88311" lon="4.73471">
        <ele>184</ele>
        <time>2018-02-02T09:52:41Z</time>
      </trkpt>
      <trkpt lat="45.88306" lon="4.73473">
        <ele>184</ele>
        <time>2018-02-02T09:52:42Z</time>
      </trkpt>
      <trkpt lat="45.88301" lon="4.73475">
        <ele>184</ele>
        <time>2018-02-02T09:52:43Z</time>
      </trkpt>
      <trkpt lat="45.88296" lon="4.73478">
        <ele>184</ele>
        <time>2018-02-02T09:52:44Z</time>
      </trkpt>
      <trkpt lat="45.88292" lon="4.73481">
        <ele>184</ele>
        <time>2018-02-02T09:52:45Z</time>
      </trkpt>
      <trkpt lat="45.88287" lon="4.73484">
        <ele>184</ele>
        <time>2018-02-02T09:52:46Z</time>
      </trkpt>
      <trkpt lat="45.88282" lon="4.73487">
        <ele>184</ele>
        <time>2018-02-02T09:52:47Z</time>
      </trkpt>
      <trkpt lat="45.88277" lon="4.7349">
        <ele>184</ele>
        <time>2018-02-02T09:52:48Z</time>
      </trkpt>
      <trkpt lat="45.8827" lon="4.73495">
        <ele>184</ele>
        <time>2018-02-02T09:52:50Z</time>
      </trkpt>
      <trkpt lat="45.88266" lon="4.73498">
        <ele>185</ele>
        <time>2018-02-02T09:52:51Z</time>
      </trkpt>
      <trkpt lat="45.88257" lon="4.73503">
        <ele>185</ele>
        <time>2018-02-02T09:52:53Z</time>
      </trkpt>
      <trkpt lat="45.88254" lon="4.73506">
        <ele>185</ele>
        <time>2018-02-02T09:52:54Z</time>
      </trkpt>
      <trkpt lat="45.88249" lon="4.73509">
        <ele>185</ele>
        <time>2018-02-02T09:52:55Z</time>
      </trkpt>
      <trkpt lat="45.88245" lon="4.73513">
        <ele>185</ele>
        <time>2018-02-02T09:52:56Z</time>
      </trkpt>
      <trkpt lat="45.88241" lon="4.73515">
        <ele>185</ele>
        <time>2018-02-02T09:52:57Z</time>
      </trkpt>
      <trkpt lat="45.88237" lon="4.73518">
        <ele>185</ele>
        <time>2018-02-02T09:52:58Z</time>
      </trkpt>
      <trkpt lat="45.88233" lon="4.73521">
        <ele>185</ele>
        <time>2018-02-02T09:52:59Z</time>
      </trkpt>
      <trkpt lat="45.88228" lon="4.73525">
        <ele>185</ele>
        <time>2018-02-02T09:53:00Z</time>
      </trkpt>
      <trkpt lat="45.88223" lon="4.73527">
        <ele>185</ele>
        <time>2018-02-02T09:53:01Z</time>
      </trkpt>
      <trkpt lat="45.88219" lon="4.73529">
        <ele>185</ele>
        <time>2018-02-02T09:53:02Z</time>
      </trkpt>
      <trkpt lat="45.88214" lon="4.73532">
        <ele>185</ele>
        <time>2018-02-02T09:53:03Z</time>
      </trkpt>
      <trkpt lat="45.8821" lon="4.73536">
        <ele>185</ele>
        <time>2018-02-02T09:53:04Z</time>
      </trkpt>
      <trkpt lat="45.88205" lon="4.73539">
        <ele>186</ele>
        <time>2018-02-02T09:53:05Z</time>
      </trkpt>
      <trkpt lat="45.88201" lon="4.73542">
        <ele>186</ele>
        <time>2018-02-02T09:53:06Z</time>
      </trkpt>
      <trkpt lat="45.88196" lon="4.73544">
        <ele>186</ele>
        <time>2018-02-02T09:53:07Z</time>
      </trkpt>
      <trkpt lat="45.88192" lon="4.73547">
        <ele>186</ele>
        <time>2018-02-02T09:53:08Z</time>
      </trkpt>
      <trkpt lat="45.88184" lon="4.73552">
        <ele>186</ele>
        <time>2018-02-02T09:53:10Z</time>
      </trkpt>
      <trkpt lat="45.8818" lon="4.73554">
        <ele>186</ele>
        <time>2018-02-02T09:53:11Z</time>
      </trkpt>
      <trkpt lat="45.88176" lon="4.73558">
        <ele>186</ele>
        <time>2018-02-02T09:53:12Z</time>
      </trkpt>
      <trkpt lat="45.88171" lon="4.73561">
        <ele>186</ele>
        <time>2018-02-02T09:53:13Z</time>
      </trkpt>
      <trkpt lat="45.88167" lon="4.73564">
        <ele>186</ele>
        <time>2018-02-02T09:53:14Z</time>
      </trkpt>
      <trkpt lat="45.88163" lon="4.73566">
        <ele>186</ele>
        <time>2018-02-02T09:53:15Z</time>
      </trkpt>
      <trkpt lat="45.88159" lon="4.73569">
        <ele>186</ele>
        <time>2018-02-02T09:53:16Z</time>
      </trkpt>
      <trkpt lat="45.88155" lon="4.73573">
        <ele>186</ele>
        <time>2018-02-02T09:53:17Z</time>
      </trkpt>
      <trkpt lat="45.88151" lon="4.73576">
        <ele>186</ele>
        <time>2018-02-02T09:53:18Z</time>
      </trkpt>
      <trkpt lat="45.88147" lon="4.73578">
        <ele>186</ele>
        <time>2018-02-02T09:53:19Z</time>
      </trkpt>
      <trkpt lat="45.88139" lon="4.73583">
        <ele>186</ele>
        <time>2018-02-02T09:53:21Z</time>
      </trkpt>
      <trkpt lat="45.88135" lon="4.73586">
        <ele>187</ele>
        <time>2018-02-02T09:53:22Z</time>
      </trkpt>
      <trkpt lat="45.88131" lon="4.73589">
        <ele>187</ele>
        <time>2018-02-02T09:53:23Z</time>
      </trkpt>
      <trkpt lat="45.88126" lon="4.73592">
        <ele>187</ele>
        <time>2018-02-02T09:53:24Z</time>
      </trkpt>
      <trkpt lat="45.88122" lon="4.73593">
        <ele>187</ele>
        <time>2018-02-02T09:53:25Z</time>
      </trkpt>
      <trkpt lat="45.88118" lon="4.73597">
        <ele>187</ele>
        <time>2018-02-02T09:53:26Z</time>
      </trkpt>
      <trkpt lat="45.88111" lon="4.73602">
        <ele>188</ele>
        <time>2018-02-02T09:53:28Z</time>
      </trkpt>
      <trkpt lat="45.88107" lon="4.73606">
        <ele>188</ele>
        <time>2018-02-02T09:53:29Z</time>
      </trkpt>
      <trkpt lat="45.88103" lon="4.73608">
        <ele>188</ele>
        <time>2018-02-02T09:53:30Z</time>
      </trkpt>
      <trkpt lat="45.88098" lon="4.73612">
        <ele>188</ele>
        <time>2018-02-02T09:53:31Z</time>
      </trkpt>
      <trkpt lat="45.88094" lon="4.73615">
        <ele>188</ele>
        <time>2018-02-02T09:53:32Z</time>
      </trkpt>
      <trkpt lat="45.88089" lon="4.73617">
        <ele>188</ele>
        <time>2018-02-02T09:53:33Z</time>
      </trkpt>
      <trkpt lat="45.88082" lon="4.73622">
        <ele>189</ele>
        <time>2018-02-02T09:53:35Z</time>
      </trkpt>
      <trkpt lat="45.88078" lon="4.73625">
        <ele>189</ele>
        <time>2018-02-02T09:53:36Z</time>
      </trkpt>
      <trkpt lat="45.88073" lon="4.73627">
        <ele>189</ele>
        <time>2018-02-02T09:53:37Z</time>
      </trkpt>
      <trkpt lat="45.8807" lon="4.7363">
        <ele>189</ele>
        <time>2018-02-02T09:53:38Z</time>
      </trkpt>
      <trkpt lat="45.88061" lon="4.73634">
        <ele>189</ele>
        <time>2018-02-02T09:53:40Z</time>
      </trkpt>
      <trkpt lat="45.88057" lon="4.73637">
        <ele>189</ele>
        <time>2018-02-02T09:53:41Z</time>
      </trkpt>
      <trkpt lat="45.88052" lon="4.73639">
        <ele>189</ele>
        <time>2018-02-02T09:53:42Z</time>
      </trkpt>
      <trkpt lat="45.88048" lon="4.73642">
        <ele>189</ele>
        <time>2018-02-02T09:53:43Z</time>
      </trkpt>
      <trkpt lat="45.88044" lon="4.73645">
        <ele>189</ele>
        <time>2018-02-02T09:53:44Z</time>
      </trkpt>
      <trkpt lat="45.8804" lon="4.73648">
        <ele>189</ele>
        <time>2018-02-02T09:53:45Z</time>
      </trkpt>
      <trkpt lat="45.88032" lon="4.73654">
        <ele>189</ele>
        <time>2018-02-02T09:53:47Z</time>
      </trkpt>
      <trkpt lat="45.88027" lon="4.73655">
        <ele>189</ele>
        <time>2018-02-02T09:53:48Z</time>
      </trkpt>
      <trkpt lat="45.88023" lon="4.73655">
        <ele>189</ele>
        <time>2018-02-02T09:53:49Z</time>
      </trkpt>
      <trkpt lat="45.88018" lon="4.73655">
        <ele>189</ele>
        <time>2018-02-02T09:53:50Z</time>
      </trkpt>
      <trkpt lat="45.88013" lon="4.73654">
        <ele>189</ele>
        <time>2018-02-02T09:53:51Z</time>
      </trkpt>
      <trkpt lat="45.88008" lon="4.73653">
        <ele>189</ele>
        <time>2018-02-02T09:53:52Z</time>
      </trkpt>
      <trkpt lat="45.88003" lon="4.73653">
        <ele>189</ele>
        <time>2018-02-02T09:53:53Z</time>
      </trkpt>
      <trkpt lat="45.87998" lon="4.73651">
        <ele>190</ele>
        <time>2018-02-02T09:53:54Z</time>
      </trkpt>
      <trkpt lat="45.87994" lon="4.7365">
        <ele>190</ele>
        <time>2018-02-02T09:53:55Z</time>
      </trkpt>
      <trkpt lat="45.87989" lon="4.73649">
        <ele>190</ele>
        <time>2018-02-02T09:53:56Z</time>
      </trkpt>
      <trkpt lat="45.87983" lon="4.73647">
        <ele>190</ele>
        <time>2018-02-02T09:53:57Z</time>
      </trkpt>
      <trkpt lat="45.87978" lon="4.73646">
        <ele>190</ele>
        <time>2018-02-02T09:53:58Z</time>
      </trkpt>
      <trkpt lat="45.87973" lon="4.73645">
        <ele>189</ele>
        <time>2018-02-02T09:53:59Z</time>
      </trkpt>
      <trkpt lat="45.87968" lon="4.73644">
        <ele>189</ele>
        <time>2018-02-02T09:54:00Z</time>
      </trkpt>
      <trkpt lat="45.87964" lon="4.73643">
        <ele>189</ele>
        <time>2018-02-02T09:54:01Z</time>
      </trkpt>
      <trkpt lat="45.87959" lon="4.73642">
        <ele>189</ele>
        <time>2018-02-02T09:54:02Z</time>
      </trkpt>
      <trkpt lat="45.87951" lon="4.73639">
        <ele>189</ele>
        <time>2018-02-02T09:54:04Z</time>
      </trkpt>
      <trkpt lat="45.87947" lon="4.73637">
        <ele>189</ele>
        <time>2018-02-02T09:54:05Z</time>
      </trkpt>
      <trkpt lat="45.87942" lon="4.73635">
        <ele>189</ele>
        <time>2018-02-02T09:54:06Z</time>
      </trkpt>
      <trkpt lat="45.87938" lon="4.73633">
        <ele>189</ele>
        <time>2018-02-02T09:54:07Z</time>
      </trkpt>
      <trkpt lat="45.87933" lon="4.73631">
        <ele>189</ele>
        <time>2018-02-02T09:54:08Z</time>
      </trkpt>
      <trkpt lat="45.87928" lon="4.7363">
        <ele>189</ele>
        <time>2018-02-02T09:54:09Z</time>
      </trkpt>
      <trkpt lat="45.87923" lon="4.73629">
        <ele>189</ele>
        <time>2018-02-02T09:54:10Z</time>
      </trkpt>
      <trkpt lat="45.87918" lon="4.73627">
        <ele>189</ele>
        <time>2018-02-02T09:54:11Z</time>
      </trkpt>
      <trkpt lat="45.87913" lon="4.73626">
        <ele>190</ele>
        <time>2018-02-02T09:54:12Z</time>
      </trkpt>
      <trkpt lat="45.87907" lon="4.73625">
        <ele>190</ele>
        <time>2018-02-02T09:54:13Z</time>
      </trkpt>
      <trkpt lat="45.87902" lon="4.73623">
        <ele>190</ele>
        <time>2018-02-02T09:54:14Z</time>
      </trkpt>
      <trkpt lat="45.87897" lon="4.73621">
        <ele>190</ele>
        <time>2018-02-02T09:54:15Z</time>
      </trkpt>
      <trkpt lat="45.87892" lon="4.7362">
        <ele>190</ele>
        <time>2018-02-02T09:54:16Z</time>
      </trkpt>
      <trkpt lat="45.87887" lon="4.73618">
        <ele>190</ele>
        <time>2018-02-02T09:54:17Z</time>
      </trkpt>
      <trkpt lat="45.87881" lon="4.73617">
        <ele>190</ele>
        <time>2018-02-02T09:54:18Z</time>
      </trkpt>
      <trkpt lat="45.87876" lon="4.73616">
        <ele>190</ele>
        <time>2018-02-02T09:54:19Z</time>
      </trkpt>
      <trkpt lat="45.87872" lon="4.73616">
        <ele>190</ele>
        <time>2018-02-02T09:54:20Z</time>
      </trkpt>
      <trkpt lat="45.87867" lon="4.73618">
        <ele>190</ele>
        <time>2018-02-02T09:54:21Z</time>
      </trkpt>
      <trkpt lat="45.87863" lon="4.73621">
        <ele>190</ele>
        <time>2018-02-02T09:54:22Z</time>
      </trkpt>
      <trkpt lat="45.87858" lon="4.73624">
        <ele>190</ele>
        <time>2018-02-02T09:54:23Z</time>
      </trkpt>
      <trkpt lat="45.87851" lon="4.7363">
        <ele>191</ele>
        <time>2018-02-02T09:54:25Z</time>
      </trkpt>
      <trkpt lat="45.87848" lon="4.73637">
        <ele>191</ele>
        <time>2018-02-02T09:54:26Z</time>
      </trkpt>
      <trkpt lat="45.87842" lon="4.7364">
        <ele>191</ele>
        <time>2018-02-02T09:54:27Z</time>
      </trkpt>
      <trkpt lat="45.87838" lon="4.73639">
        <ele>191</ele>
        <time>2018-02-02T09:54:28Z</time>
      </trkpt>
      <trkpt lat="45.87833" lon="4.7363">
        <ele>190</ele>
        <time>2018-02-02T09:54:30Z</time>
      </trkpt>
      <trkpt lat="45.8783" lon="4.73625">
        <ele>190</ele>
        <time>2018-02-02T09:54:31Z</time>
      </trkpt>
      <trkpt lat="45.87828" lon="4.73619">
        <ele>190</ele>
        <time>2018-02-02T09:54:32Z</time>
      </trkpt>
      <trkpt lat="45.87826" lon="4.73612">
        <ele>190</ele>
        <time>2018-02-02T09:54:33Z</time>
      </trkpt>
      <trkpt lat="45.87823" lon="4.73607">
        <ele>190</ele>
        <time>2018-02-02T09:54:34Z</time>
      </trkpt>
      <trkpt lat="45.8782" lon="4.73601">
        <ele>190</ele>
        <time>2018-02-02T09:54:35Z</time>
      </trkpt>
      <trkpt lat="45.87817" lon="4.73594">
        <ele>190</ele>
        <time>2018-02-02T09:54:36Z</time>
      </trkpt>
      <trkpt lat="45.87815" lon="4.73588">
        <ele>190</ele>
        <time>2018-02-02T09:54:37Z</time>
      </trkpt>
      <trkpt lat="45.87812" lon="4.73581">
        <ele>189</ele>
        <time>2018-02-02T09:54:38Z</time>
      </trkpt>
      <trkpt lat="45.87809" lon="4.73575">
        <ele>189</ele>
        <time>2018-02-02T09:54:39Z</time>
      </trkpt>
      <trkpt lat="45.87806" lon="4.73568">
        <ele>189</ele>
        <time>2018-02-02T09:54:40Z</time>
      </trkpt>
      <trkpt lat="45.87803" lon="4.73562">
        <ele>189</ele>
        <time>2018-02-02T09:54:41Z</time>
      </trkpt>
      <trkpt lat="45.87799" lon="4.73556">
        <ele>189</ele>
        <time>2018-02-02T09:54:42Z</time>
      </trkpt>
      <trkpt lat="45.87796" lon="4.7355">
        <ele>189</ele>
        <time>2018-02-02T09:54:43Z</time>
      </trkpt>
      <trkpt lat="45.87793" lon="4.73545">
        <ele>189</ele>
        <time>2018-02-02T09:54:44Z</time>
      </trkpt>
      <trkpt lat="45.8779" lon="4.73539">
        <ele>189</ele>
        <time>2018-02-02T09:54:45Z</time>
      </trkpt>
      <trkpt lat="45.87787" lon="4.73532">
        <ele>189</ele>
        <time>2018-02-02T09:54:46Z</time>
      </trkpt>
      <trkpt lat="45.87784" lon="4.73526">
        <ele>189</ele>
        <time>2018-02-02T09:54:47Z</time>
      </trkpt>
      <trkpt lat="45.87781" lon="4.73521">
        <ele>189</ele>
        <time>2018-02-02T09:54:48Z</time>
      </trkpt>
      <trkpt lat="45.87778" lon="4.73515">
        <ele>189</ele>
        <time>2018-02-02T09:54:49Z</time>
      </trkpt>
      <trkpt lat="45.87776" lon="4.73509">
        <ele>189</ele>
        <time>2018-02-02T09:54:50Z</time>
      </trkpt>
      <trkpt lat="45.87774" lon="4.73503">
        <ele>189</ele>
        <time>2018-02-02T09:54:51Z</time>
      </trkpt>
      <trkpt lat="45.87771" lon="4.73496">
        <ele>189</ele>
        <time>2018-02-02T09:54:52Z</time>
      </trkpt>
      <trkpt lat="45.87768" lon="4.7349">
        <ele>189</ele>
        <time>2018-02-02T09:54:53Z</time>
      </trkpt>
      <trkpt lat="45.87766" lon="4.73484">
        <ele>189</ele>
        <time>2018-02-02T09:54:54Z</time>
      </trkpt>
      <trkpt lat="45.87763" lon="4.73479">
        <ele>188</ele>
        <time>2018-02-02T09:54:55Z</time>
      </trkpt>
      <trkpt lat="45.8776" lon="4.73473">
        <ele>188</ele>
        <time>2018-02-02T09:54:56Z</time>
      </trkpt>
      <trkpt lat="45.87757" lon="4.73467">
        <ele>188</ele>
        <time>2018-02-02T09:54:57Z</time>
      </trkpt>
      <trkpt lat="45.87755" lon="4.73462">
        <ele>188</ele>
        <time>2018-02-02T09:54:58Z</time>
      </trkpt>
      <trkpt lat="45.87752" lon="4.73455">
        <ele>188</ele>
        <time>2018-02-02T09:54:59Z</time>
      </trkpt>
      <trkpt lat="45.87749" lon="4.73449">
        <ele>189</ele>
        <time>2018-02-02T09:55:00Z</time>
      </trkpt>
      <trkpt lat="45.87746" lon="4.73443">
        <ele>189</ele>
        <time>2018-02-02T09:55:01Z</time>
      </trkpt>
      <trkpt lat="45.87742" lon="4.73435">
        <ele>188</ele>
        <time>2018-02-02T09:55:02Z</time>
      </trkpt>
      <trkpt lat="45.87739" lon="4.73428">
        <ele>188</ele>
        <time>2018-02-02T09:55:03Z</time>
      </trkpt>
      <trkpt lat="45.87735" lon="4.73422">
        <ele>188</ele>
        <time>2018-02-02T09:55:04Z</time>
      </trkpt>
      <trkpt lat="45.87732" lon="4.73415">
        <ele>188</ele>
        <time>2018-02-02T09:55:05Z</time>
      </trkpt>
      <trkpt lat="45.87729" lon="4.73408">
        <ele>188</ele>
        <time>2018-02-02T09:55:06Z</time>
      </trkpt>
      <trkpt lat="45.87726" lon="4.73401">
        <ele>188</ele>
        <time>2018-02-02T09:55:07Z</time>
      </trkpt>
      <trkpt lat="45.87723" lon="4.73395">
        <ele>188</ele>
        <time>2018-02-02T09:55:08Z</time>
      </trkpt>
      <trkpt lat="45.8772" lon="4.73389">
        <ele>188</ele>
        <time>2018-02-02T09:55:09Z</time>
      </trkpt>
      <trkpt lat="45.87717" lon="4.73382">
        <ele>188</ele>
        <time>2018-02-02T09:55:10Z</time>
      </trkpt>
      <trkpt lat="45.87714" lon="4.73376">
        <ele>187</ele>
        <time>2018-02-02T09:55:11Z</time>
      </trkpt>
      <trkpt lat="45.87711" lon="4.73371">
        <ele>187</ele>
        <time>2018-02-02T09:55:12Z</time>
      </trkpt>
      <trkpt lat="45.87708" lon="4.73365">
        <ele>187</ele>
        <time>2018-02-02T09:55:13Z</time>
      </trkpt>
      <trkpt lat="45.87706" lon="4.73358">
        <ele>187</ele>
        <time>2018-02-02T09:55:14Z</time>
      </trkpt>
      <trkpt lat="45.87703" lon="4.73352">
        <ele>187</ele>
        <time>2018-02-02T09:55:15Z</time>
      </trkpt>
      <trkpt lat="45.877" lon="4.73345">
        <ele>187</ele>
        <time>2018-02-02T09:55:16Z</time>
      </trkpt>
      <trkpt lat="45.87697" lon="4.73338">
        <ele>187</ele>
        <time>2018-02-02T09:55:17Z</time>
      </trkpt>
      <trkpt lat="45.87694" lon="4.73331">
        <ele>188</ele>
        <time>2018-02-02T09:55:18Z</time>
      </trkpt>
      <trkpt lat="45.87691" lon="4.73325">
        <ele>188</ele>
        <time>2018-02-02T09:55:19Z</time>
      </trkpt>
      <trkpt lat="45.87687" lon="4.73318">
        <ele>188</ele>
        <time>2018-02-02T09:55:20Z</time>
      </trkpt>
      <trkpt lat="45.87685" lon="4.73311">
        <ele>188</ele>
        <time>2018-02-02T09:55:21Z</time>
      </trkpt>
      <trkpt lat="45.87682" lon="4.73306">
        <ele>188</ele>
        <time>2018-02-02T09:55:22Z</time>
      </trkpt>
      <trkpt lat="45.87679" lon="4.73299">
        <ele>188</ele>
        <time>2018-02-02T09:55:23Z</time>
      </trkpt>
      <trkpt lat="45.87676" lon="4.73293">
        <ele>188</ele>
        <time>2018-02-02T09:55:24Z</time>
      </trkpt>
      <trkpt lat="45.87673" lon="4.73286">
        <ele>188</ele>
        <time>2018-02-02T09:55:25Z</time>
      </trkpt>
      <trkpt lat="45.8767" lon="4.73281">
        <ele>188</ele>
        <time>2018-02-02T09:55:26Z</time>
      </trkpt>
      <trkpt lat="45.87668" lon="4.73275">
        <ele>188</ele>
        <time>2018-02-02T09:55:27Z</time>
      </trkpt>
      <trkpt lat="45.87665" lon="4.73269">
        <ele>189</ele>
        <time>2018-02-02T09:55:28Z</time>
      </trkpt>
      <trkpt lat="45.87663" lon="4.73263">
        <ele>189</ele>
        <time>2018-02-02T09:55:29Z</time>
      </trkpt>
      <trkpt lat="45.8766" lon="4.73257">
        <ele>189</ele>
        <time>2018-02-02T09:55:30Z</time>
      </trkpt>
      <trkpt lat="45.87657" lon="4.73252">
        <ele>189</ele>
        <time>2018-02-02T09:55:31Z</time>
      </trkpt>
      <trkpt lat="45.87654" lon="4.73245">
        <ele>188</ele>
        <time>2018-02-02T09:55:32Z</time>
      </trkpt>
      <trkpt lat="45.87651" lon="4.73238">
        <ele>188</ele>
        <time>2018-02-02T09:55:33Z</time>
      </trkpt>
      <trkpt lat="45.87648" lon="4.73232">
        <ele>188</ele>
        <time>2018-02-02T09:55:34Z</time>
      </trkpt>
      <trkpt lat="45.87645" lon="4.73225">
        <ele>188</ele>
        <time>2018-02-02T09:55:35Z</time>
      </trkpt>
      <trkpt lat="45.87642" lon="4.73219">
        <ele>188</ele>
        <time>2018-02-02T09:55:36Z</time>
      </trkpt>
      <trkpt lat="45.87639" lon="4.73213">
        <ele>188</ele>
        <time>2018-02-02T09:55:37Z</time>
      </trkpt>
      <trkpt lat="45.87635" lon="4.73207">
        <ele>188</ele>
        <time>2018-02-02T09:55:38Z</time>
      </trkpt>
      <trkpt lat="45.87632" lon="4.732">
        <ele>188</ele>
        <time>2018-02-02T09:55:39Z</time>
      </trkpt>
      <trkpt lat="45.87629" lon="4.73194">
        <ele>188</ele>
        <time>2018-02-02T09:55:40Z</time>
      </trkpt>
      <trkpt lat="45.87626" lon="4.73189">
        <ele>188</ele>
        <time>2018-02-02T09:55:41Z</time>
      </trkpt>
      <trkpt lat="45.87623" lon="4.73183">
        <ele>188</ele>
        <time>2018-02-02T09:55:42Z</time>
      </trkpt>
      <trkpt lat="45.8762" lon="4.73178">
        <ele>188</ele>
        <time>2018-02-02T09:55:43Z</time>
      </trkpt>
      <trkpt lat="45.87617" lon="4.73172">
        <ele>187</ele>
        <time>2018-02-02T09:55:44Z</time>
      </trkpt>
      <trkpt lat="45.87615" lon="4.73166">
        <ele>187</ele>
        <time>2018-02-02T09:55:45Z</time>
      </trkpt>
      <trkpt lat="45.87612" lon="4.7316">
        <ele>187</ele>
        <time>2018-02-02T09:55:46Z</time>
      </trkpt>
      <trkpt lat="45.8761" lon="4.73155">
        <ele>187</ele>
        <time>2018-02-02T09:55:47Z</time>
      </trkpt>
      <trkpt lat="45.87607" lon="4.73149">
        <ele>187</ele>
        <time>2018-02-02T09:55:48Z</time>
      </trkpt>
      <trkpt lat="45.87604" lon="4.73144">
        <ele>187</ele>
        <time>2018-02-02T09:55:49Z</time>
      </trkpt>
      <trkpt lat="45.87602" lon="4.73137">
        <ele>187</ele>
        <time>2018-02-02T09:55:50Z</time>
      </trkpt>
      <trkpt lat="45.87598" lon="4.7313">
        <ele>187</ele>
        <time>2018-02-02T09:55:51Z</time>
      </trkpt>
      <trkpt lat="45.87594" lon="4.73123">
        <ele>188</ele>
        <time>2018-02-02T09:55:52Z</time>
      </trkpt>
      <trkpt lat="45.8759" lon="4.73115">
        <ele>188</ele>
        <time>2018-02-02T09:55:53Z</time>
      </trkpt>
      <trkpt lat="45.87586" lon="4.73107">
        <ele>188</ele>
        <time>2018-02-02T09:55:54Z</time>
      </trkpt>
      <trkpt lat="45.87583" lon="4.73099">
        <ele>188</ele>
        <time>2018-02-02T09:55:55Z</time>
      </trkpt>
      <trkpt lat="45.87579" lon="4.73091">
        <ele>188</ele>
        <time>2018-02-02T09:55:56Z</time>
      </trkpt>
      <trkpt lat="45.87575" lon="4.73083">
        <ele>188</ele>
        <time>2018-02-02T09:55:57Z</time>
      </trkpt>
      <trkpt lat="45.87571" lon="4.73076">
        <ele>188</ele>
        <time>2018-02-02T09:55:58Z</time>
      </trkpt>
      <trkpt lat="45.87568" lon="4.73069">
        <ele>188</ele>
        <time>2018-02-02T09:55:59Z</time>
      </trkpt>
      <trkpt lat="45.87565" lon="4.73062">
        <ele>188</ele>
        <time>2018-02-02T09:56:00Z</time>
      </trkpt>
      <trkpt lat="45.87561" lon="4.73056">
        <ele>188</ele>
        <time>2018-02-02T09:56:01Z</time>
      </trkpt>
      <trkpt lat="45.87558" lon="4.73051">
        <ele>188</ele>
        <time>2018-02-02T09:56:02Z</time>
      </trkpt>
      <trkpt lat="45.87555" lon="4.73044">
        <ele>188</ele>
        <time>2018-02-02T09:56:03Z</time>
      </trkpt>
      <trkpt lat="45.87552" lon="4.73039">
        <ele>188</ele>
        <time>2018-02-02T09:56:04Z</time>
      </trkpt>
      <trkpt lat="45.87549" lon="4.73032">
        <ele>188</ele>
        <time>2018-02-02T09:56:05Z</time>
      </trkpt>
      <trkpt lat="45.87546" lon="4.73026">
        <ele>188</ele>
        <time>2018-02-02T09:56:06Z</time>
      </trkpt>
      <trkpt lat="45.87543" lon="4.7302">
        <ele>188</ele>
        <time>2018-02-02T09:56:07Z</time>
      </trkpt>
      <trkpt lat="45.8754" lon="4.73015">
        <ele>187</ele>
        <time>2018-02-02T09:56:08Z</time>
      </trkpt>
      <trkpt lat="45.87537" lon="4.73009">
        <ele>187</ele>
        <time>2018-02-02T09:56:09Z</time>
      </trkpt>
      <trkpt lat="45.87533" lon="4.73003">
        <ele>187</ele>
        <time>2018-02-02T09:56:10Z</time>
      </trkpt>
      <trkpt lat="45.87531" lon="4.72996">
        <ele>187</ele>
        <time>2018-02-02T09:56:11Z</time>
      </trkpt>
      <trkpt lat="45.87529" lon="4.7299">
        <ele>187</ele>
        <time>2018-02-02T09:56:12Z</time>
      </trkpt>
      <trkpt lat="45.87526" lon="4.72984">
        <ele>187</ele>
        <time>2018-02-02T09:56:13Z</time>
      </trkpt>
      <trkpt lat="45.87523" lon="4.72977">
        <ele>187</ele>
        <time>2018-02-02T09:56:14Z</time>
      </trkpt>
      <trkpt lat="45.8752" lon="4.72971">
        <ele>187</ele>
        <time>2018-02-02T09:56:15Z</time>
      </trkpt>
      <trkpt lat="45.87517" lon="4.72965">
        <ele>187</ele>
        <time>2018-02-02T09:56:16Z</time>
      </trkpt>
      <trkpt lat="45.87513" lon="4.7296">
        <ele>187</ele>
        <time>2018-02-02T09:56:17Z</time>
      </trkpt>
      <trkpt lat="45.8751" lon="4.72956">
        <ele>187</ele>
        <time>2018-02-02T09:56:18Z</time>
      </trkpt>
      <trkpt lat="45.87506" lon="4.72951">
        <ele>187</ele>
        <time>2018-02-02T09:56:19Z</time>
      </trkpt>
      <trkpt lat="45.87502" lon="4.72948">
        <ele>187</ele>
        <time>2018-02-02T09:56:20Z</time>
      </trkpt>
      <trkpt lat="45.87498" lon="4.72945">
        <ele>188</ele>
        <time>2018-02-02T09:56:21Z</time>
      </trkpt>
      <trkpt lat="45.87494" lon="4.72942">
        <ele>188</ele>
        <time>2018-02-02T09:56:22Z</time>
      </trkpt>
      <trkpt lat="45.87489" lon="4.72939">
        <ele>188</ele>
        <time>2018-02-02T09:56:23Z</time>
      </trkpt>
      <trkpt lat="45.87484" lon="4.72936">
        <ele>188</ele>
        <time>2018-02-02T09:56:24Z</time>
      </trkpt>
      <trkpt lat="45.8748" lon="4.72932">
        <ele>188</ele>
        <time>2018-02-02T09:56:25Z</time>
      </trkpt>
      <trkpt lat="45.87476" lon="4.72928">
        <ele>188</ele>
        <time>2018-02-02T09:56:26Z</time>
      </trkpt>
      <trkpt lat="45.87473" lon="4.72924">
        <ele>188</ele>
        <time>2018-02-02T09:56:27Z</time>
      </trkpt>
      <trkpt lat="45.87469" lon="4.72913">
        <ele>188</ele>
        <time>2018-02-02T09:56:29Z</time>
      </trkpt>
      <trkpt lat="45.87468" lon="4.72908">
        <ele>188</ele>
        <time>2018-02-02T09:56:30Z</time>
      </trkpt>
      <trkpt lat="45.87465" lon="4.72899">
        <ele>188</ele>
        <time>2018-02-02T09:56:32Z</time>
      </trkpt>
      <trkpt lat="45.87463" lon="4.72894">
        <ele>188</ele>
        <time>2018-02-02T09:56:33Z</time>
      </trkpt>
      <trkpt lat="45.87461" lon="4.72882">
        <ele>188</ele>
        <time>2018-02-02T09:56:35Z</time>
      </trkpt>
      <trkpt lat="45.87459" lon="4.72875">
        <ele>188</ele>
        <time>2018-02-02T09:56:36Z</time>
      </trkpt>
      <trkpt lat="45.87457" lon="4.72868">
        <ele>188</ele>
        <time>2018-02-02T09:56:37Z</time>
      </trkpt>
      <trkpt lat="45.87454" lon="4.7286">
        <ele>188</ele>
        <time>2018-02-02T09:56:38Z</time>
      </trkpt>
      <trkpt lat="45.87452" lon="4.72853">
        <ele>188</ele>
        <time>2018-02-02T09:56:39Z</time>
      </trkpt>
      <trkpt lat="45.87448" lon="4.72846">
        <ele>188</ele>
        <time>2018-02-02T09:56:40Z</time>
      </trkpt>
      <trkpt lat="45.87445" lon="4.72838">
        <ele>188</ele>
        <time>2018-02-02T09:56:41Z</time>
      </trkpt>
      <trkpt lat="45.87443" lon="4.72832">
        <ele>189</ele>
        <time>2018-02-02T09:56:42Z</time>
      </trkpt>
      <trkpt lat="45.8744" lon="4.72826">
        <ele>189</ele>
        <time>2018-02-02T09:56:43Z</time>
      </trkpt>
      <trkpt lat="45.87437" lon="4.7282">
        <ele>189</ele>
        <time>2018-02-02T09:56:44Z</time>
      </trkpt>
      <trkpt lat="45.87434" lon="4.72813">
        <ele>189</ele>
        <time>2018-02-02T09:56:45Z</time>
      </trkpt>
      <trkpt lat="45.87432" lon="4.72807">
        <ele>189</ele>
        <time>2018-02-02T09:56:46Z</time>
      </trkpt>
      <trkpt lat="45.87429" lon="4.72801">
        <ele>189</ele>
        <time>2018-02-02T09:56:47Z</time>
      </trkpt>
      <trkpt lat="45.87426" lon="4.72794">
        <ele>189</ele>
        <time>2018-02-02T09:56:48Z</time>
      </trkpt>
      <trkpt lat="45.87422" lon="4.72788">
        <ele>189</ele>
        <time>2018-02-02T09:56:49Z</time>
      </trkpt>
      <trkpt lat="45.87419" lon="4.72781">
        <ele>189</ele>
        <time>2018-02-02T09:56:50Z</time>
      </trkpt>
      <trkpt lat="45.87416" lon="4.72775">
        <ele>189</ele>
        <time>2018-02-02T09:56:51Z</time>
      </trkpt>
      <trkpt lat="45.87412" lon="4.72769">
        <ele>189</ele>
        <time>2018-02-02T09:56:52Z</time>
      </trkpt>
      <trkpt lat="45.87409" lon="4.72762">
        <ele>189</ele>
        <time>2018-02-02T09:56:53Z</time>
      </trkpt>
      <trkpt lat="45.87407" lon="4.72757">
        <ele>189</ele>
        <time>2018-02-02T09:56:54Z</time>
      </trkpt>
      <trkpt lat="45.87404" lon="4.72751">
        <ele>189</ele>
        <time>2018-02-02T09:56:55Z</time>
      </trkpt>
      <trkpt lat="45.874" lon="4.72746">
        <ele>189</ele>
        <time>2018-02-02T09:56:56Z</time>
      </trkpt>
      <trkpt lat="45.87396" lon="4.72742">
        <ele>189</ele>
        <time>2018-02-02T09:56:57Z</time>
      </trkpt>
      <trkpt lat="45.87392" lon="4.72738">
        <ele>190</ele>
        <time>2018-02-02T09:56:58Z</time>
      </trkpt>
      <trkpt lat="45.87388" lon="4.72733">
        <ele>190</ele>
        <time>2018-02-02T09:56:59Z</time>
      </trkpt>
      <trkpt lat="45.87385" lon="4.72727">
        <ele>190</ele>
        <time>2018-02-02T09:57:00Z</time>
      </trkpt>
      <trkpt lat="45.87383" lon="4.72721">
        <ele>190</ele>
        <time>2018-02-02T09:57:01Z</time>
      </trkpt>
      <trkpt lat="45.87381" lon="4.72714">
        <ele>190</ele>
        <time>2018-02-02T09:57:02Z</time>
      </trkpt>
      <trkpt lat="45.87378" lon="4.72708">
        <ele>190</ele>
        <time>2018-02-02T09:57:03Z</time>
      </trkpt>
      <trkpt lat="45.87375" lon="4.72703">
        <ele>190</ele>
        <time>2018-02-02T09:57:04Z</time>
      </trkpt>
      <trkpt lat="45.87372" lon="4.72699">
        <ele>190</ele>
        <time>2018-02-02T09:57:05Z</time>
      </trkpt>
      <trkpt lat="45.87369" lon="4.72693">
        <ele>190</ele>
        <time>2018-02-02T09:57:06Z</time>
      </trkpt>
      <trkpt lat="45.87366" lon="4.72688">
        <ele>190</ele>
        <time>2018-02-02T09:57:07Z</time>
      </trkpt>
      <trkpt lat="45.87362" lon="4.72684">
        <ele>190</ele>
        <time>2018-02-02T09:57:08Z</time>
      </trkpt>
      <trkpt lat="45.8736" lon="4.72678">
        <ele>190</ele>
        <time>2018-02-02T09:57:09Z</time>
      </trkpt>
      <trkpt lat="45.87356" lon="4.72674">
        <ele>190</ele>
        <time>2018-02-02T09:57:10Z</time>
      </trkpt>
      <trkpt lat="45.87352" lon="4.72671">
        <ele>190</ele>
        <time>2018-02-02T09:57:11Z</time>
      </trkpt>
      <trkpt lat="45.87348" lon="4.72667">
        <ele>190</ele>
        <time>2018-02-02T09:57:12Z</time>
      </trkpt>
      <trkpt lat="45.87344" lon="4.72665">
        <ele>190</ele>
        <time>2018-02-02T09:57:13Z</time>
      </trkpt>
      <trkpt lat="45.8734" lon="4.7266">
        <ele>190</ele>
        <time>2018-02-02T09:57:14Z</time>
      </trkpt>
      <trkpt lat="45.87336" lon="4.72656">
        <ele>190</ele>
        <time>2018-02-02T09:57:15Z</time>
      </trkpt>
      <trkpt lat="45.87332" lon="4.72653">
        <ele>192</ele>
        <time>2018-02-02T09:57:16Z</time>
      </trkpt>
      <trkpt lat="45.87325" lon="4.72645">
        <ele>192</ele>
        <time>2018-02-02T09:57:18Z</time>
      </trkpt>
      <trkpt lat="45.87322" lon="4.7264">
        <ele>192</ele>
        <time>2018-02-02T09:57:19Z</time>
      </trkpt>
      <trkpt lat="45.87315" lon="4.72633">
        <ele>193</ele>
        <time>2018-02-02T09:57:21Z</time>
      </trkpt>
      <trkpt lat="45.87311" lon="4.72628">
        <ele>193</ele>
        <time>2018-02-02T09:57:22Z</time>
      </trkpt>
      <trkpt lat="45.87304" lon="4.7262">
        <ele>193</ele>
        <time>2018-02-02T09:57:24Z</time>
      </trkpt>
      <trkpt lat="45.87301" lon="4.72616">
        <ele>194</ele>
        <time>2018-02-02T09:57:25Z</time>
      </trkpt>
      <trkpt lat="45.87297" lon="4.72613">
        <ele>194</ele>
        <time>2018-02-02T09:57:26Z</time>
      </trkpt>
      <trkpt lat="45.87294" lon="4.72609">
        <ele>194</ele>
        <time>2018-02-02T09:57:27Z</time>
      </trkpt>
      <trkpt lat="45.87291" lon="4.72604">
        <ele>194</ele>
        <time>2018-02-02T09:57:28Z</time>
      </trkpt>
      <trkpt lat="45.87288" lon="4.72598">
        <ele>194</ele>
        <time>2018-02-02T09:57:29Z</time>
      </trkpt>
      <trkpt lat="45.87285" lon="4.7259">
        <ele>194</ele>
        <time>2018-02-02T09:57:30Z</time>
      </trkpt>
      <trkpt lat="45.87284" lon="4.72585">
        <ele>194</ele>
        <time>2018-02-02T09:57:31Z</time>
      </trkpt>
      <trkpt lat="45.87277" lon="4.72577">
        <ele>194</ele>
        <time>2018-02-02T09:57:33Z</time>
      </trkpt>
      <trkpt lat="45.87272" lon="4.72573">
        <ele>194</ele>
        <time>2018-02-02T09:57:34Z</time>
      </trkpt>
      <trkpt lat="45.87265" lon="4.72566">
        <ele>195</ele>
        <time>2018-02-02T09:57:36Z</time>
      </trkpt>
      <trkpt lat="45.87264" lon="4.72562">
        <ele>194</ele>
        <time>2018-02-02T09:57:37Z</time>
      </trkpt>
      <trkpt lat="45.87259" lon="4.72552">
        <ele>194</ele>
        <time>2018-02-02T09:57:40Z</time>
      </trkpt>
      <trkpt lat="45.87257" lon="4.7255">
        <ele>194</ele>
        <time>2018-02-02T09:57:41Z</time>
      </trkpt>
      <trkpt lat="45.87253" lon="4.7254">
        <ele>194</ele>
        <time>2018-02-02T09:57:47Z</time>
      </trkpt>
      <trkpt lat="45.87253" lon="4.72537">
        <ele>194</ele>
        <time>2018-02-02T09:57:48Z</time>
      </trkpt>
      <trkpt lat="45.8725" lon="4.72529">
        <ele>193</ele>
        <time>2018-02-02T09:57:50Z</time>
      </trkpt>
      <trkpt lat="45.87247" lon="4.72526">
        <ele>196</ele>
        <time>2018-02-02T09:57:51Z</time>
      </trkpt>
      <trkpt lat="45.87241" lon="4.72518">
        <ele>196</ele>
        <time>2018-02-02T09:57:53Z</time>
      </trkpt>
      <trkpt lat="45.87238" lon="4.72513">
        <ele>196</ele>
        <time>2018-02-02T09:57:54Z</time>
      </trkpt>
      <trkpt lat="45.87236" lon="4.72508">
        <ele>196</ele>
        <time>2018-02-02T09:57:55Z</time>
      </trkpt>
      <trkpt lat="45.87233" lon="4.72503">
        <ele>196</ele>
        <time>2018-02-02T09:57:56Z</time>
      </trkpt>
      <trkpt lat="45.87227" lon="4.72493">
        <ele>194</ele>
        <time>2018-02-02T09:57:58Z</time>
      </trkpt>
      <trkpt lat="45.87225" lon="4.72488">
        <ele>194</ele>
        <time>2018-02-02T09:57:59Z</time>
      </trkpt>
      <trkpt lat="45.87219" lon="4.72481">
        <ele>194</ele>
        <time>2018-02-02T09:58:01Z</time>
      </trkpt>
      <trkpt lat="45.87217" lon="4.72477">
        <ele>194</ele>
        <time>2018-02-02T09:58:02Z</time>
      </trkpt>
      <trkpt lat="45.87212" lon="4.72469">
        <ele>194</ele>
        <time>2018-02-02T09:58:04Z</time>
      </trkpt>
      <trkpt lat="45.8721" lon="4.72465">
        <ele>194</ele>
        <time>2018-02-02T09:58:05Z</time>
      </trkpt>
      <trkpt lat="45.87205" lon="4.72456">
        <ele>194</ele>
        <time>2018-02-02T09:58:07Z</time>
      </trkpt>
      <trkpt lat="45.87203" lon="4.72452">
        <ele>194</ele>
        <time>2018-02-02T09:58:08Z</time>
      </trkpt>
      <trkpt lat="45.87197" lon="4.72444">
        <ele>194</ele>
        <time>2018-02-02T09:58:10Z</time>
      </trkpt>
      <trkpt lat="45.87194" lon="4.7244">
        <ele>194</ele>
        <time>2018-02-02T09:58:11Z</time>
      </trkpt>
      <trkpt lat="45.87189" lon="4.72432">
        <ele>194</ele>
        <time>2018-02-02T09:58:13Z</time>
      </trkpt>
      <trkpt lat="45.87187" lon="4.72429">
        <ele>194</ele>
        <time>2018-02-02T09:58:14Z</time>
      </trkpt>
      <trkpt lat="45.87181" lon="4.7242">
        <ele>194</ele>
        <time>2018-02-02T09:58:17Z</time>
      </trkpt>
      <trkpt lat="45.87178" lon="4.72418">
        <ele>194</ele>
        <time>2018-02-02T09:58:18Z</time>
      </trkpt>
      <trkpt lat="45.87173" lon="4.72412">
        <ele>193</ele>
        <time>2018-02-02T09:58:20Z</time>
      </trkpt>
      <trkpt lat="45.87171" lon="4.72407">
        <ele>192</ele>
        <time>2018-02-02T09:58:21Z</time>
      </trkpt>
      <trkpt lat="45.87167" lon="4.72398">
        <ele>191</ele>
        <time>2018-02-02T09:58:23Z</time>
      </trkpt>
      <trkpt lat="45.87164" lon="4.72392">
        <ele>197</ele>
        <time>2018-02-02T09:58:24Z</time>
      </trkpt>
      <trkpt lat="45.87161" lon="4.72386">
        <ele>197</ele>
        <time>2018-02-02T09:58:25Z</time>
      </trkpt>
      <trkpt lat="45.87158" lon="4.72379">
        <ele>197</ele>
        <time>2018-02-02T09:58:26Z</time>
      </trkpt>
      <trkpt lat="45.87156" lon="4.72372">
        <ele>197</ele>
        <time>2018-02-02T09:58:27Z</time>
      </trkpt>
      <trkpt lat="45.87153" lon="4.72366">
        <ele>197</ele>
        <time>2018-02-02T09:58:28Z</time>
      </trkpt>
      <trkpt lat="45.8715" lon="4.7236">
        <ele>196</ele>
        <time>2018-02-02T09:58:29Z</time>
      </trkpt>
      <trkpt lat="45.87148" lon="4.72355">
        <ele>196</ele>
        <time>2018-02-02T09:58:30Z</time>
      </trkpt>
      <trkpt lat="45.87145" lon="4.72349">
        <ele>196</ele>
        <time>2018-02-02T09:58:31Z</time>
      </trkpt>
      <trkpt lat="45.87143" lon="4.72344">
        <ele>196</ele>
        <time>2018-02-02T09:58:32Z</time>
      </trkpt>
      <trkpt lat="45.8714" lon="4.72338">
        <ele>197</ele>
        <time>2018-02-02T09:58:33Z</time>
      </trkpt>
      <trkpt lat="45.87137" lon="4.72333">
        <ele>195</ele>
        <time>2018-02-02T09:58:34Z</time>
      </trkpt>
      <trkpt lat="45.87133" lon="4.72323">
        <ele>196</ele>
        <time>2018-02-02T09:58:36Z</time>
      </trkpt>
      <trkpt lat="45.8713" lon="4.72318">
        <ele>196</ele>
        <time>2018-02-02T09:58:37Z</time>
      </trkpt>
      <trkpt lat="45.87128" lon="4.72313">
        <ele>196</ele>
        <time>2018-02-02T09:58:38Z</time>
      </trkpt>
      <trkpt lat="45.87125" lon="4.72306">
        <ele>196</ele>
        <time>2018-02-02T09:58:39Z</time>
      </trkpt>
      <trkpt lat="45.87123" lon="4.723">
        <ele>196</ele>
        <time>2018-02-02T09:58:40Z</time>
      </trkpt>
      <trkpt lat="45.87119" lon="4.72294">
        <ele>197</ele>
        <time>2018-02-02T09:58:41Z</time>
      </trkpt>
      <trkpt lat="45.87116" lon="4.72288">
        <ele>197</ele>
        <time>2018-02-02T09:58:42Z</time>
      </trkpt>
      <trkpt lat="45.87111" lon="4.72282">
        <ele>197</ele>
        <time>2018-02-02T09:58:43Z</time>
      </trkpt>
      <trkpt lat="45.87108" lon="4.72277">
        <ele>197</ele>
        <time>2018-02-02T09:58:44Z</time>
      </trkpt>
      <trkpt lat="45.87104" lon="4.72271">
        <ele>197</ele>
        <time>2018-02-02T09:58:45Z</time>
      </trkpt>
      <trkpt lat="45.87099" lon="4.72266">
        <ele>197</ele>
        <time>2018-02-02T09:58:46Z</time>
      </trkpt>
      <trkpt lat="45.87095" lon="4.72261">
        <ele>198</ele>
        <time>2018-02-02T09:58:47Z</time>
      </trkpt>
      <trkpt lat="45.8709" lon="4.72255">
        <ele>198</ele>
        <time>2018-02-02T09:58:48Z</time>
      </trkpt>
      <trkpt lat="45.87086" lon="4.7225">
        <ele>199</ele>
        <time>2018-02-02T09:58:49Z</time>
      </trkpt>
      <trkpt lat="45.87082" lon="4.72245">
        <ele>199</ele>
        <time>2018-02-02T09:58:50Z</time>
      </trkpt>
      <trkpt lat="45.87078" lon="4.7224">
        <ele>200</ele>
        <time>2018-02-02T09:58:51Z</time>
      </trkpt>
      <trkpt lat="45.87073" lon="4.72236">
        <ele>200</ele>
        <time>2018-02-02T09:58:52Z</time>
      </trkpt>
      <trkpt lat="45.87069" lon="4.72232">
        <ele>200</ele>
        <time>2018-02-02T09:58:53Z</time>
      </trkpt>
      <trkpt lat="45.87064" lon="4.72227">
        <ele>200</ele>
        <time>2018-02-02T09:58:54Z</time>
      </trkpt>
      <trkpt lat="45.8706" lon="4.72223">
        <ele>200</ele>
        <time>2018-02-02T09:58:55Z</time>
      </trkpt>
      <trkpt lat="45.87056" lon="4.72219">
        <ele>200</ele>
        <time>2018-02-02T09:58:56Z</time>
      </trkpt>
      <trkpt lat="45.87051" lon="4.72216">
        <ele>200</ele>
        <time>2018-02-02T09:58:57Z</time>
      </trkpt>
      <trkpt lat="45.87046" lon="4.72212">
        <ele>201</ele>
        <time>2018-02-02T09:58:58Z</time>
      </trkpt>
      <trkpt lat="45.8704" lon="4.72209">
        <ele>201</ele>
        <time>2018-02-02T09:58:59Z</time>
      </trkpt>
      <trkpt lat="45.87035" lon="4.72207">
        <ele>201</ele>
        <time>2018-02-02T09:59:00Z</time>
      </trkpt>
      <trkpt lat="45.8703" lon="4.72203">
        <ele>201</ele>
        <time>2018-02-02T09:59:01Z</time>
      </trkpt>
      <trkpt lat="45.87025" lon="4.72198">
        <ele>201</ele>
        <time>2018-02-02T09:59:02Z</time>
      </trkpt>
      <trkpt lat="45.87021" lon="4.72194">
        <ele>201</ele>
        <time>2018-02-02T09:59:03Z</time>
      </trkpt>
      <trkpt lat="45.87016" lon="4.7219">
        <ele>201</ele>
        <time>2018-02-02T09:59:04Z</time>
      </trkpt>
      <trkpt lat="45.87011" lon="4.72186">
        <ele>201</ele>
        <time>2018-02-02T09:59:05Z</time>
      </trkpt>
      <trkpt lat="45.87006" lon="4.72183">
        <ele>201</ele>
        <time>2018-02-02T09:59:06Z</time>
      </trkpt>
      <trkpt lat="45.87001" lon="4.72179">
        <ele>201</ele>
        <time>2018-02-02T09:59:07Z</time>
      </trkpt>
      <trkpt lat="45.86995" lon="4.72174">
        <ele>205</ele>
        <time>2018-02-02T09:59:08Z</time>
      </trkpt>
      <trkpt lat="45.86991" lon="4.72171">
        <ele>205</ele>
        <time>2018-02-02T09:59:09Z</time>
      </trkpt>
      <trkpt lat="45.86986" lon="4.72167">
        <ele>206</ele>
        <time>2018-02-02T09:59:10Z</time>
      </trkpt>
      <trkpt lat="45.86982" lon="4.72164">
        <ele>201</ele>
        <time>2018-02-02T09:59:11Z</time>
      </trkpt>
      <trkpt lat="45.86977" lon="4.7216">
        <ele>201</ele>
        <time>2018-02-02T09:59:12Z</time>
      </trkpt>
      <trkpt lat="45.86972" lon="4.72158">
        <ele>201</ele>
        <time>2018-02-02T09:59:13Z</time>
      </trkpt>
      <trkpt lat="45.86968" lon="4.72155">
        <ele>201</ele>
        <time>2018-02-02T09:59:14Z</time>
      </trkpt>
      <trkpt lat="45.86963" lon="4.72152">
        <ele>201</ele>
        <time>2018-02-02T09:59:15Z</time>
      </trkpt>
      <trkpt lat="45.86959" lon="4.7215">
        <ele>201</ele>
        <time>2018-02-02T09:59:16Z</time>
      </trkpt>
      <trkpt lat="45.86954" lon="4.72147">
        <ele>201</ele>
        <time>2018-02-02T09:59:17Z</time>
      </trkpt>
      <trkpt lat="45.86949" lon="4.72144">
        <ele>201</ele>
        <time>2018-02-02T09:59:18Z</time>
      </trkpt>
      <trkpt lat="45.86945" lon="4.72141">
        <ele>201</ele>
        <time>2018-02-02T09:59:19Z</time>
      </trkpt>
      <trkpt lat="45.8694" lon="4.72137">
        <ele>201</ele>
        <time>2018-02-02T09:59:20Z</time>
      </trkpt>
      <trkpt lat="45.86935" lon="4.72134">
        <ele>201</ele>
        <time>2018-02-02T09:59:21Z</time>
      </trkpt>
      <trkpt lat="45.86931" lon="4.72132">
        <ele>201</ele>
        <time>2018-02-02T09:59:22Z</time>
      </trkpt>
      <trkpt lat="45.86925" lon="4.7213">
        <ele>201</ele>
        <time>2018-02-02T09:59:23Z</time>
      </trkpt>
      <trkpt lat="45.86921" lon="4.72127">
        <ele>200</ele>
        <time>2018-02-02T09:59:24Z</time>
      </trkpt>
      <trkpt lat="45.86915" lon="4.72125">
        <ele>202</ele>
        <time>2018-02-02T09:59:25Z</time>
      </trkpt>
      <trkpt lat="45.8691" lon="4.72123">
        <ele>202</ele>
        <time>2018-02-02T09:59:26Z</time>
      </trkpt>
      <trkpt lat="45.86905" lon="4.7212">
        <ele>201</ele>
        <time>2018-02-02T09:59:27Z</time>
      </trkpt>
      <trkpt lat="45.86899" lon="4.72118">
        <ele>201</ele>
        <time>2018-02-02T09:59:28Z</time>
      </trkpt>
      <trkpt lat="45.86893" lon="4.72116">
        <ele>201</ele>
        <time>2018-02-02T09:59:29Z</time>
      </trkpt>
      <trkpt lat="45.86888" lon="4.72113">
        <ele>201</ele>
        <time>2018-02-02T09:59:30Z</time>
      </trkpt>
      <trkpt lat="45.86882" lon="4.72111">
        <ele>201</ele>
        <time>2018-02-02T09:59:31Z</time>
      </trkpt>
      <trkpt lat="45.86877" lon="4.7211">
        <ele>201</ele>
        <time>2018-02-02T09:59:32Z</time>
      </trkpt>
      <trkpt lat="45.86871" lon="4.72109">
        <ele>201</ele>
        <time>2018-02-02T09:59:33Z</time>
      </trkpt>
      <trkpt lat="45.86866" lon="4.72107">
        <ele>200</ele>
        <time>2018-02-02T09:59:34Z</time>
      </trkpt>
      <trkpt lat="45.8686" lon="4.72104">
        <ele>200</ele>
        <time>2018-02-02T09:59:35Z</time>
      </trkpt>
      <trkpt lat="45.86856" lon="4.72103">
        <ele>200</ele>
        <time>2018-02-02T09:59:36Z</time>
      </trkpt>
      <trkpt lat="45.86851" lon="4.72102">
        <ele>199</ele>
        <time>2018-02-02T09:59:37Z</time>
      </trkpt>
      <trkpt lat="45.86846" lon="4.721">
        <ele>199</ele>
        <time>2018-02-02T09:59:38Z</time>
      </trkpt>
      <trkpt lat="45.86841" lon="4.72098">
        <ele>198</ele>
        <time>2018-02-02T09:59:39Z</time>
      </trkpt>
      <trkpt lat="45.86837" lon="4.72095">
        <ele>197</ele>
        <time>2018-02-02T09:59:40Z</time>
      </trkpt>
      <trkpt lat="45.86832" lon="4.72093">
        <ele>197</ele>
        <time>2018-02-02T09:59:41Z</time>
      </trkpt>
      <trkpt lat="45.86827" lon="4.72093">
        <ele>198</ele>
        <time>2018-02-02T09:59:42Z</time>
      </trkpt>
      <trkpt lat="45.86822" lon="4.7209">
        <ele>198</ele>
        <time>2018-02-02T09:59:43Z</time>
      </trkpt>
      <trkpt lat="45.86816" lon="4.72089">
        <ele>199</ele>
        <time>2018-02-02T09:59:44Z</time>
      </trkpt>
      <trkpt lat="45.8681" lon="4.72087">
        <ele>200</ele>
        <time>2018-02-02T09:59:45Z</time>
      </trkpt>
      <trkpt lat="45.86805" lon="4.72085">
        <ele>200</ele>
        <time>2018-02-02T09:59:46Z</time>
      </trkpt>
      <trkpt lat="45.868" lon="4.72084">
        <ele>201</ele>
        <time>2018-02-02T09:59:47Z</time>
      </trkpt>
      <trkpt lat="45.86795" lon="4.72082">
        <ele>194</ele>
        <time>2018-02-02T09:59:48Z</time>
      </trkpt>
      <trkpt lat="45.86789" lon="4.72079">
        <ele>194</ele>
        <time>2018-02-02T09:59:49Z</time>
      </trkpt>
      <trkpt lat="45.86784" lon="4.72078">
        <ele>194</ele>
        <time>2018-02-02T09:59:50Z</time>
      </trkpt>
      <trkpt lat="45.8678" lon="4.72073">
        <ele>194</ele>
        <time>2018-02-02T09:59:51Z</time>
      </trkpt>
      <trkpt lat="45.86775" lon="4.72071">
        <ele>195</ele>
        <time>2018-02-02T09:59:52Z</time>
      </trkpt>
      <trkpt lat="45.86769" lon="4.72068">
        <ele>195</ele>
        <time>2018-02-02T09:59:53Z</time>
      </trkpt>
      <trkpt lat="45.86761" lon="4.72065">
        <ele>195</ele>
        <time>2018-02-02T09:59:55Z</time>
      </trkpt>
      <trkpt lat="45.86756" lon="4.72063">
        <ele>195</ele>
        <time>2018-02-02T09:59:56Z</time>
      </trkpt>
      <trkpt lat="45.86751" lon="4.72061">
        <ele>195</ele>
        <time>2018-02-02T09:59:57Z</time>
      </trkpt>
      <trkpt lat="45.86747" lon="4.72057">
        <ele>197</ele>
        <time>2018-02-02T09:59:58Z</time>
      </trkpt>
      <trkpt lat="45.86743" lon="4.72055">
        <ele>197</ele>
        <time>2018-02-02T09:59:59Z</time>
      </trkpt>
      <trkpt lat="45.86739" lon="4.72052">
        <ele>197</ele>
        <time>2018-02-02T10:00:00Z</time>
      </trkpt>
      <trkpt lat="45.86734" lon="4.72049">
        <ele>197</ele>
        <time>2018-02-02T10:00:01Z</time>
      </trkpt>
      <trkpt lat="45.86729" lon="4.72046">
        <ele>197</ele>
        <time>2018-02-02T10:00:02Z</time>
      </trkpt>
      <trkpt lat="45.86725" lon="4.72044">
        <ele>197</ele>
        <time>2018-02-02T10:00:03Z</time>
      </trkpt>
      <trkpt lat="45.8672" lon="4.7204">
        <ele>197</ele>
        <time>2018-02-02T10:00:04Z</time>
      </trkpt>
      <trkpt lat="45.86716" lon="4.72037">
        <ele>197</ele>
        <time>2018-02-02T10:00:05Z</time>
      </trkpt>
      <trkpt lat="45.86711" lon="4.72035">
        <ele>197</ele>
        <time>2018-02-02T10:00:06Z</time>
      </trkpt>
      <trkpt lat="45.86706" lon="4.72032">
        <ele>197</ele>
        <time>2018-02-02T10:00:07Z</time>
      </trkpt>
      <trkpt lat="45.86702" lon="4.72029">
        <ele>197</ele>
        <time>2018-02-02T10:00:08Z</time>
      </trkpt>
      <trkpt lat="45.86697" lon="4.72026">
        <ele>197</ele>
        <time>2018-02-02T10:00:09Z</time>
      </trkpt>
      <trkpt lat="45.86693" lon="4.72022">
        <ele>197</ele>
        <time>2018-02-02T10:00:10Z</time>
      </trkpt>
      <trkpt lat="45.86688" lon="4.72018">
        <ele>196</ele>
        <time>2018-02-02T10:00:11Z</time>
      </trkpt>
      <trkpt lat="45.86684" lon="4.72015">
        <ele>196</ele>
        <time>2018-02-02T10:00:12Z</time>
      </trkpt>
      <trkpt lat="45.8668" lon="4.72012">
        <ele>196</ele>
        <time>2018-02-02T10:00:13Z</time>
      </trkpt>
      <trkpt lat="45.86676" lon="4.72009">
        <ele>196</ele>
        <time>2018-02-02T10:00:14Z</time>
      </trkpt>
      <trkpt lat="45.86672" lon="4.72006">
        <ele>196</ele>
        <time>2018-02-02T10:00:15Z</time>
      </trkpt>
      <trkpt lat="45.86668" lon="4.72002">
        <ele>195</ele>
        <time>2018-02-02T10:00:16Z</time>
      </trkpt>
      <trkpt lat="45.86663" lon="4.71999">
        <ele>195</ele>
        <time>2018-02-02T10:00:17Z</time>
      </trkpt>
      <trkpt lat="45.86659" lon="4.71996">
        <ele>195</ele>
        <time>2018-02-02T10:00:18Z</time>
      </trkpt>
      <trkpt lat="45.86654" lon="4.71992">
        <ele>195</ele>
        <time>2018-02-02T10:00:19Z</time>
      </trkpt>
      <trkpt lat="45.86649" lon="4.71989">
        <ele>195</ele>
        <time>2018-02-02T10:00:20Z</time>
      </trkpt>
      <trkpt lat="45.86645" lon="4.71984">
        <ele>195</ele>
        <time>2018-02-02T10:00:21Z</time>
      </trkpt>
      <trkpt lat="45.86641" lon="4.71981">
        <ele>195</ele>
        <time>2018-02-02T10:00:22Z</time>
      </trkpt>
      <trkpt lat="45.86637" lon="4.71977">
        <ele>195</ele>
        <time>2018-02-02T10:00:23Z</time>
      </trkpt>
      <trkpt lat="45.86632" lon="4.71973">
        <ele>195</ele>
        <time>2018-02-02T10:00:24Z</time>
      </trkpt>
      <trkpt lat="45.86627" lon="4.71969">
        <ele>195</ele>
        <time>2018-02-02T10:00:25Z</time>
      </trkpt>
      <trkpt lat="45.86623" lon="4.71964">
        <ele>195</ele>
        <time>2018-02-02T10:00:26Z</time>
      </trkpt>
      <trkpt lat="45.86618" lon="4.7196">
        <ele>195</ele>
        <time>2018-02-02T10:00:27Z</time>
      </trkpt>
      <trkpt lat="45.86614" lon="4.71957">
        <ele>194</ele>
        <time>2018-02-02T10:00:28Z</time>
      </trkpt>
      <trkpt lat="45.86609" lon="4.71954">
        <ele>194</ele>
        <time>2018-02-02T10:00:29Z</time>
      </trkpt>
      <trkpt lat="45.86604" lon="4.71951">
        <ele>194</ele>
        <time>2018-02-02T10:00:30Z</time>
      </trkpt>
      <trkpt lat="45.866" lon="4.71947">
        <ele>194</ele>
        <time>2018-02-02T10:00:31Z</time>
      </trkpt>
      <trkpt lat="45.86595" lon="4.71943">
        <ele>194</ele>
        <time>2018-02-02T10:00:32Z</time>
      </trkpt>
      <trkpt lat="45.8659" lon="4.7194">
        <ele>194</ele>
        <time>2018-02-02T10:00:33Z</time>
      </trkpt>
      <trkpt lat="45.86586" lon="4.71937">
        <ele>194</ele>
        <time>2018-02-02T10:00:34Z</time>
      </trkpt>
      <trkpt lat="45.86582" lon="4.71934">
        <ele>195</ele>
        <time>2018-02-02T10:00:35Z</time>
      </trkpt>
      <trkpt lat="45.86577" lon="4.7193">
        <ele>195</ele>
        <time>2018-02-02T10:00:36Z</time>
      </trkpt>
      <trkpt lat="45.86572" lon="4.71926">
        <ele>195</ele>
        <time>2018-02-02T10:00:37Z</time>
      </trkpt>
      <trkpt lat="45.86569" lon="4.7192">
        <ele>195</ele>
        <time>2018-02-02T10:00:38Z</time>
      </trkpt>
      <trkpt lat="45.86564" lon="4.71916">
        <ele>195</ele>
        <time>2018-02-02T10:00:39Z</time>
      </trkpt>
      <trkpt lat="45.86559" lon="4.71912">
        <ele>195</ele>
        <time>2018-02-02T10:00:40Z</time>
      </trkpt>
      <trkpt lat="45.86554" lon="4.71908">
        <ele>195</ele>
        <time>2018-02-02T10:00:41Z</time>
      </trkpt>
      <trkpt lat="45.86549" lon="4.71905">
        <ele>195</ele>
        <time>2018-02-02T10:00:42Z</time>
      </trkpt>
      <trkpt lat="45.86544" lon="4.71902">
        <ele>195</ele>
        <time>2018-02-02T10:00:43Z</time>
      </trkpt>
      <trkpt lat="45.86539" lon="4.71898">
        <ele>195</ele>
        <time>2018-02-02T10:00:44Z</time>
      </trkpt>
      <trkpt lat="45.86534" lon="4.71895">
        <ele>195</ele>
        <time>2018-02-02T10:00:45Z</time>
      </trkpt>
      <trkpt lat="45.8653" lon="4.7189">
        <ele>195</ele>
        <time>2018-02-02T10:00:46Z</time>
      </trkpt>
      <trkpt lat="45.86526" lon="4.71886">
        <ele>195</ele>
        <time>2018-02-02T10:00:47Z</time>
      </trkpt>
      <trkpt lat="45.86522" lon="4.71882">
        <ele>195</ele>
        <time>2018-02-02T10:00:48Z</time>
      </trkpt>
      <trkpt lat="45.86518" lon="4.71878">
        <ele>195</ele>
        <time>2018-02-02T10:00:49Z</time>
      </trkpt>
      <trkpt lat="45.86513" lon="4.71875">
        <ele>195</ele>
        <time>2018-02-02T10:00:50Z</time>
      </trkpt>
      <trkpt lat="45.86509" lon="4.71871">
        <ele>195</ele>
        <time>2018-02-02T10:00:51Z</time>
      </trkpt>
      <trkpt lat="45.86504" lon="4.71868">
        <ele>195</ele>
        <time>2018-02-02T10:00:52Z</time>
      </trkpt>
      <trkpt lat="45.86499" lon="4.71864">
        <ele>198</ele>
        <time>2018-02-02T10:00:53Z</time>
      </trkpt>
      <trkpt lat="45.86494" lon="4.7186">
        <ele>198</ele>
        <time>2018-02-02T10:00:54Z</time>
      </trkpt>
      <trkpt lat="45.86489" lon="4.71857">
        <ele>198</ele>
        <time>2018-02-02T10:00:55Z</time>
      </trkpt>
      <trkpt lat="45.86484" lon="4.71855">
        <ele>198</ele>
        <time>2018-02-02T10:00:56Z</time>
      </trkpt>
      <trkpt lat="45.86479" lon="4.7185">
        <ele>198</ele>
        <time>2018-02-02T10:00:57Z</time>
      </trkpt>
      <trkpt lat="45.86474" lon="4.71846">
        <ele>198</ele>
        <time>2018-02-02T10:00:58Z</time>
      </trkpt>
      <trkpt lat="45.86469" lon="4.71842">
        <ele>199</ele>
        <time>2018-02-02T10:00:59Z</time>
      </trkpt>
      <trkpt lat="45.86464" lon="4.71838">
        <ele>199</ele>
        <time>2018-02-02T10:01:00Z</time>
      </trkpt>
      <trkpt lat="45.8646" lon="4.71835">
        <ele>199</ele>
        <time>2018-02-02T10:01:01Z</time>
      </trkpt>
      <trkpt lat="45.86455" lon="4.71831">
        <ele>197</ele>
        <time>2018-02-02T10:01:02Z</time>
      </trkpt>
      <trkpt lat="45.8645" lon="4.71828">
        <ele>197</ele>
        <time>2018-02-02T10:01:03Z</time>
      </trkpt>
      <trkpt lat="45.86445" lon="4.71825">
        <ele>197</ele>
        <time>2018-02-02T10:01:04Z</time>
      </trkpt>
      <trkpt lat="45.8644" lon="4.71822">
        <ele>198</ele>
        <time>2018-02-02T10:01:05Z</time>
      </trkpt>
      <trkpt lat="45.86435" lon="4.71818">
        <ele>198</ele>
        <time>2018-02-02T10:01:06Z</time>
      </trkpt>
      <trkpt lat="45.8643" lon="4.71813">
        <ele>198</ele>
        <time>2018-02-02T10:01:07Z</time>
      </trkpt>
      <trkpt lat="45.86425" lon="4.7181">
        <ele>198</ele>
        <time>2018-02-02T10:01:08Z</time>
      </trkpt>
      <trkpt lat="45.8642" lon="4.71807">
        <ele>197</ele>
        <time>2018-02-02T10:01:09Z</time>
      </trkpt>
      <trkpt lat="45.86416" lon="4.71802">
        <ele>199</ele>
        <time>2018-02-02T10:01:10Z</time>
      </trkpt>
      <trkpt lat="45.86411" lon="4.71799">
        <ele>199</ele>
        <time>2018-02-02T10:01:11Z</time>
      </trkpt>
      <trkpt lat="45.86407" lon="4.71796">
        <ele>199</ele>
        <time>2018-02-02T10:01:12Z</time>
      </trkpt>
      <trkpt lat="45.86402" lon="4.71793">
        <ele>199</ele>
        <time>2018-02-02T10:01:13Z</time>
      </trkpt>
      <trkpt lat="45.86397" lon="4.71789">
        <ele>198</ele>
        <time>2018-02-02T10:01:14Z</time>
      </trkpt>
      <trkpt lat="45.86392" lon="4.71786">
        <ele>198</ele>
        <time>2018-02-02T10:01:15Z</time>
      </trkpt>
      <trkpt lat="45.86387" lon="4.71782">
        <ele>198</ele>
        <time>2018-02-02T10:01:16Z</time>
      </trkpt>
      <trkpt lat="45.86383" lon="4.71778">
        <ele>198</ele>
        <time>2018-02-02T10:01:17Z</time>
      </trkpt>
      <trkpt lat="45.86379" lon="4.71775">
        <ele>198</ele>
        <time>2018-02-02T10:01:18Z</time>
      </trkpt>
      <trkpt lat="45.86375" lon="4.71771">
        <ele>198</ele>
        <time>2018-02-02T10:01:19Z</time>
      </trkpt>
      <trkpt lat="45.86371" lon="4.71768">
        <ele>198</ele>
        <time>2018-02-02T10:01:20Z</time>
      </trkpt>
      <trkpt lat="45.86367" lon="4.71764">
        <ele>198</ele>
        <time>2018-02-02T10:01:21Z</time>
      </trkpt>
      <trkpt lat="45.86363" lon="4.7176">
        <ele>198</ele>
        <time>2018-02-02T10:01:22Z</time>
      </trkpt>
      <trkpt lat="45.86359" lon="4.71757">
        <ele>198</ele>
        <time>2018-02-02T10:01:23Z</time>
      </trkpt>
      <trkpt lat="45.86354" lon="4.71754">
        <ele>197</ele>
        <time>2018-02-02T10:01:24Z</time>
      </trkpt>
      <trkpt lat="45.86349" lon="4.71751">
        <ele>197</ele>
        <time>2018-02-02T10:01:25Z</time>
      </trkpt>
      <trkpt lat="45.86344" lon="4.71748">
        <ele>195</ele>
        <time>2018-02-02T10:01:26Z</time>
      </trkpt>
      <trkpt lat="45.8634" lon="4.71744">
        <ele>195</ele>
        <time>2018-02-02T10:01:27Z</time>
      </trkpt>
      <trkpt lat="45.86335" lon="4.71741">
        <ele>195</ele>
        <time>2018-02-02T10:01:28Z</time>
      </trkpt>
      <trkpt lat="45.86332" lon="4.71737">
        <ele>196</ele>
        <time>2018-02-02T10:01:29Z</time>
      </trkpt>
      <trkpt lat="45.86327" lon="4.71733">
        <ele>196</ele>
        <time>2018-02-02T10:01:30Z</time>
      </trkpt>
      <trkpt lat="45.86323" lon="4.71729">
        <ele>196</ele>
        <time>2018-02-02T10:01:31Z</time>
      </trkpt>
      <trkpt lat="45.86318" lon="4.71724">
        <ele>196</ele>
        <time>2018-02-02T10:01:32Z</time>
      </trkpt>
      <trkpt lat="45.86314" lon="4.71721">
        <ele>196</ele>
        <time>2018-02-02T10:01:33Z</time>
      </trkpt>
      <trkpt lat="45.8631" lon="4.71717">
        <ele>196</ele>
        <time>2018-02-02T10:01:34Z</time>
      </trkpt>
      <trkpt lat="45.86305" lon="4.71713">
        <ele>195</ele>
        <time>2018-02-02T10:01:35Z</time>
      </trkpt>
      <trkpt lat="45.86301" lon="4.7171">
        <ele>195</ele>
        <time>2018-02-02T10:01:36Z</time>
      </trkpt>
      <trkpt lat="45.86296" lon="4.71707">
        <ele>195</ele>
        <time>2018-02-02T10:01:37Z</time>
      </trkpt>
      <trkpt lat="45.86292" lon="4.71703">
        <ele>195</ele>
        <time>2018-02-02T10:01:38Z</time>
      </trkpt>
      <trkpt lat="45.86288" lon="4.717">
        <ele>195</ele>
        <time>2018-02-02T10:01:39Z</time>
      </trkpt>
      <trkpt lat="45.86284" lon="4.71697">
        <ele>195</ele>
        <time>2018-02-02T10:01:40Z</time>
      </trkpt>
      <trkpt lat="45.86279" lon="4.71693">
        <ele>195</ele>
        <time>2018-02-02T10:01:41Z</time>
      </trkpt>
      <trkpt lat="45.86275" lon="4.7169">
        <ele>195</ele>
        <time>2018-02-02T10:01:42Z</time>
      </trkpt>
      <trkpt lat="45.8627" lon="4.71687">
        <ele>195</ele>
        <time>2018-02-02T10:01:43Z</time>
      </trkpt>
      <trkpt lat="45.86266" lon="4.71684">
        <ele>195</ele>
        <time>2018-02-02T10:01:44Z</time>
      </trkpt>
      <trkpt lat="45.86262" lon="4.7168">
        <ele>195</ele>
        <time>2018-02-02T10:01:45Z</time>
      </trkpt>
      <trkpt lat="45.86257" lon="4.71676">
        <ele>195</ele>
        <time>2018-02-02T10:01:46Z</time>
      </trkpt>
      <trkpt lat="45.8625" lon="4.71669">
        <ele>195</ele>
        <time>2018-02-02T10:01:48Z</time>
      </trkpt>
      <trkpt lat="45.86246" lon="4.71666">
        <ele>195</ele>
        <time>2018-02-02T10:01:49Z</time>
      </trkpt>
      <trkpt lat="45.86242" lon="4.71663">
        <ele>195</ele>
        <time>2018-02-02T10:01:50Z</time>
      </trkpt>
      <trkpt lat="45.86238" lon="4.7166">
        <ele>195</ele>
        <time>2018-02-02T10:01:51Z</time>
      </trkpt>
      <trkpt lat="45.86234" lon="4.71657">
        <ele>195</ele>
        <time>2018-02-02T10:01:52Z</time>
      </trkpt>
      <trkpt lat="45.8623" lon="4.71652">
        <ele>195</ele>
        <time>2018-02-02T10:01:53Z</time>
      </trkpt>
      <trkpt lat="45.86225" lon="4.71648">
        <ele>195</ele>
        <time>2018-02-02T10:01:54Z</time>
      </trkpt>
      <trkpt lat="45.86221" lon="4.71645">
        <ele>195</ele>
        <time>2018-02-02T10:01:55Z</time>
      </trkpt>
      <trkpt lat="45.86215" lon="4.71637">
        <ele>195</ele>
        <time>2018-02-02T10:01:57Z</time>
      </trkpt>
      <trkpt lat="45.86213" lon="4.71633">
        <ele>195</ele>
        <time>2018-02-02T10:01:58Z</time>
      </trkpt>
      <trkpt lat="45.86211" lon="4.71621">
        <ele>195</ele>
        <time>2018-02-02T10:02:00Z</time>
      </trkpt>
      <trkpt lat="45.86209" lon="4.71615">
        <ele>195</ele>
        <time>2018-02-02T10:02:01Z</time>
      </trkpt>
      <trkpt lat="45.86204" lon="4.71605">
        <ele>195</ele>
        <time>2018-02-02T10:02:03Z</time>
      </trkpt>
      <trkpt lat="45.86201" lon="4.716">
        <ele>195</ele>
        <time>2018-02-02T10:02:04Z</time>
      </trkpt>
      <trkpt lat="45.86197" lon="4.71596">
        <ele>195</ele>
        <time>2018-02-02T10:02:05Z</time>
      </trkpt>
      <trkpt lat="45.86193" lon="4.71592">
        <ele>195</ele>
        <time>2018-02-02T10:02:06Z</time>
      </trkpt>
      <trkpt lat="45.86189" lon="4.71588">
        <ele>195</ele>
        <time>2018-02-02T10:02:07Z</time>
      </trkpt>
      <trkpt lat="45.86186" lon="4.71583">
        <ele>195</ele>
        <time>2018-02-02T10:02:08Z</time>
      </trkpt>
      <trkpt lat="45.86179" lon="4.71576">
        <ele>196</ele>
        <time>2018-02-02T10:02:10Z</time>
      </trkpt>
      <trkpt lat="45.86175" lon="4.7157">
        <ele>196</ele>
        <time>2018-02-02T10:02:11Z</time>
      </trkpt>
      <trkpt lat="45.8617" lon="4.7156">
        <ele>195</ele>
        <time>2018-02-02T10:02:13Z</time>
      </trkpt>
      <trkpt lat="45.86166" lon="4.71555">
        <ele>196</ele>
        <time>2018-02-02T10:02:14Z</time>
      </trkpt>
      <trkpt lat="45.86164" lon="4.7155">
        <ele>196</ele>
        <time>2018-02-02T10:02:15Z</time>
      </trkpt>
      <trkpt lat="45.8616" lon="4.71544">
        <ele>196</ele>
        <time>2018-02-02T10:02:16Z</time>
      </trkpt>
      <trkpt lat="45.86157" lon="4.71539">
        <ele>195</ele>
        <time>2018-02-02T10:02:17Z</time>
      </trkpt>
      <trkpt lat="45.86154" lon="4.71533">
        <ele>195</ele>
        <time>2018-02-02T10:02:18Z</time>
      </trkpt>
      <trkpt lat="45.86152" lon="4.71527">
        <ele>195</ele>
        <time>2018-02-02T10:02:19Z</time>
      </trkpt>
      <trkpt lat="45.86149" lon="4.71521">
        <ele>195</ele>
        <time>2018-02-02T10:02:20Z</time>
      </trkpt>
      <trkpt lat="45.86146" lon="4.71516">
        <ele>195</ele>
        <time>2018-02-02T10:02:21Z</time>
      </trkpt>
      <trkpt lat="45.86143" lon="4.71509">
        <ele>195</ele>
        <time>2018-02-02T10:02:22Z</time>
      </trkpt>
      <trkpt lat="45.8614" lon="4.71502">
        <ele>195</ele>
        <time>2018-02-02T10:02:23Z</time>
      </trkpt>
      <trkpt lat="45.86136" lon="4.71496">
        <ele>195</ele>
        <time>2018-02-02T10:02:24Z</time>
      </trkpt>
      <trkpt lat="45.86134" lon="4.71488">
        <ele>195</ele>
        <time>2018-02-02T10:02:25Z</time>
      </trkpt>
      <trkpt lat="45.86132" lon="4.71481">
        <ele>195</ele>
        <time>2018-02-02T10:02:26Z</time>
      </trkpt>
      <trkpt lat="45.8613" lon="4.71475">
        <ele>195</ele>
        <time>2018-02-02T10:02:27Z</time>
      </trkpt>
      <trkpt lat="45.86127" lon="4.7147">
        <ele>195</ele>
        <time>2018-02-02T10:02:28Z</time>
      </trkpt>
      <trkpt lat="45.86124" lon="4.71459">
        <ele>195</ele>
        <time>2018-02-02T10:02:30Z</time>
      </trkpt>
      <trkpt lat="45.86123" lon="4.71456">
        <ele>195</ele>
        <time>2018-02-02T10:02:31Z</time>
      </trkpt>
      <trkpt lat="45.86121" lon="4.71449">
        <ele>195</ele>
        <time>2018-02-02T10:02:32Z</time>
      </trkpt>
      <trkpt lat="45.86121" lon="4.71441">
        <ele>195</ele>
        <time>2018-02-02T10:02:33Z</time>
      </trkpt>
      <trkpt lat="45.86119" lon="4.71429">
        <ele>195</ele>
        <time>2018-02-02T10:02:35Z</time>
      </trkpt>
      <trkpt lat="45.86119" lon="4.71422">
        <ele>195</ele>
        <time>2018-02-02T10:02:36Z</time>
      </trkpt>
      <trkpt lat="45.86119" lon="4.71415">
        <ele>196</ele>
        <time>2018-02-02T10:02:37Z</time>
      </trkpt>
      <trkpt lat="45.86116" lon="4.71407">
        <ele>196</ele>
        <time>2018-02-02T10:02:38Z</time>
      </trkpt>
      <trkpt lat="45.86116" lon="4.714">
        <ele>196</ele>
        <time>2018-02-02T10:02:39Z</time>
      </trkpt>
      <trkpt lat="45.86115" lon="4.71393">
        <ele>196</ele>
        <time>2018-02-02T10:02:40Z</time>
      </trkpt>
      <trkpt lat="45.86114" lon="4.71386">
        <ele>196</ele>
        <time>2018-02-02T10:02:41Z</time>
      </trkpt>
      <trkpt lat="45.86114" lon="4.7138">
        <ele>196</ele>
        <time>2018-02-02T10:02:42Z</time>
      </trkpt>
      <trkpt lat="45.86113" lon="4.71372">
        <ele>196</ele>
        <time>2018-02-02T10:02:43Z</time>
      </trkpt>
      <trkpt lat="45.86112" lon="4.71365">
        <ele>196</ele>
        <time>2018-02-02T10:02:44Z</time>
      </trkpt>
      <trkpt lat="45.86112" lon="4.71358">
        <ele>196</ele>
        <time>2018-02-02T10:02:45Z</time>
      </trkpt>
      <trkpt lat="45.86111" lon="4.71351">
        <ele>196</ele>
        <time>2018-02-02T10:02:46Z</time>
      </trkpt>
      <trkpt lat="45.8611" lon="4.71344">
        <ele>196</ele>
        <time>2018-02-02T10:02:47Z</time>
      </trkpt>
      <trkpt lat="45.8611" lon="4.71336">
        <ele>196</ele>
        <time>2018-02-02T10:02:48Z</time>
      </trkpt>
      <trkpt lat="45.86108" lon="4.71328">
        <ele>196</ele>
        <time>2018-02-02T10:02:49Z</time>
      </trkpt>
      <trkpt lat="45.86106" lon="4.71321">
        <ele>196</ele>
        <time>2018-02-02T10:02:50Z</time>
      </trkpt>
      <trkpt lat="45.86105" lon="4.71315">
        <ele>196</ele>
        <time>2018-02-02T10:02:51Z</time>
      </trkpt>
      <trkpt lat="45.86103" lon="4.71308">
        <ele>197</ele>
        <time>2018-02-02T10:02:52Z</time>
      </trkpt>
      <trkpt lat="45.86102" lon="4.71301">
        <ele>197</ele>
        <time>2018-02-02T10:02:53Z</time>
      </trkpt>
      <trkpt lat="45.86101" lon="4.71295">
        <ele>197</ele>
        <time>2018-02-02T10:02:54Z</time>
      </trkpt>
      <trkpt lat="45.861" lon="4.71284">
        <ele>197</ele>
        <time>2018-02-02T10:02:56Z</time>
      </trkpt>
      <trkpt lat="45.86098" lon="4.71278">
        <ele>197</ele>
        <time>2018-02-02T10:02:57Z</time>
      </trkpt>
      <trkpt lat="45.86092" lon="4.71268">
        <ele>197</ele>
        <time>2018-02-02T10:02:59Z</time>
      </trkpt>
      <trkpt lat="45.86088" lon="4.71263">
        <ele>197</ele>
        <time>2018-02-02T10:03:00Z</time>
      </trkpt>
      <trkpt lat="45.86084" lon="4.71254">
        <ele>198</ele>
        <time>2018-02-02T10:03:02Z</time>
      </trkpt>
      <trkpt lat="45.86082" lon="4.71249">
        <ele>198</ele>
        <time>2018-02-02T10:03:03Z</time>
      </trkpt>
      <trkpt lat="45.86081" lon="4.71236">
        <ele>198</ele>
        <time>2018-02-02T10:03:05Z</time>
      </trkpt>
      <trkpt lat="45.86082" lon="4.7123">
        <ele>198</ele>
        <time>2018-02-02T10:03:06Z</time>
      </trkpt>
      <trkpt lat="45.86083" lon="4.71223">
        <ele>198</ele>
        <time>2018-02-02T10:03:07Z</time>
      </trkpt>
      <trkpt lat="45.86083" lon="4.71216">
        <ele>197</ele>
        <time>2018-02-02T10:03:08Z</time>
      </trkpt>
      <trkpt lat="45.86083" lon="4.71208">
        <ele>197</ele>
        <time>2018-02-02T10:03:09Z</time>
      </trkpt>
      <trkpt lat="45.86084" lon="4.71202">
        <ele>197</ele>
        <time>2018-02-02T10:03:10Z</time>
      </trkpt>
      <trkpt lat="45.86086" lon="4.71196">
        <ele>197</ele>
        <time>2018-02-02T10:03:11Z</time>
      </trkpt>
      <trkpt lat="45.86088" lon="4.71189">
        <ele>197</ele>
        <time>2018-02-02T10:03:12Z</time>
      </trkpt>
      <trkpt lat="45.86088" lon="4.71183">
        <ele>197</ele>
        <time>2018-02-02T10:03:13Z</time>
      </trkpt>
      <trkpt lat="45.86089" lon="4.71176">
        <ele>197</ele>
        <time>2018-02-02T10:03:14Z</time>
      </trkpt>
      <trkpt lat="45.86091" lon="4.71164">
        <ele>197</ele>
        <time>2018-02-02T10:03:16Z</time>
      </trkpt>
      <trkpt lat="45.8609" lon="4.71156">
        <ele>197</ele>
        <time>2018-02-02T10:03:17Z</time>
      </trkpt>
      <trkpt lat="45.86089" lon="4.71151">
        <ele>197</ele>
        <time>2018-02-02T10:03:18Z</time>
      </trkpt>
      <trkpt lat="45.86086" lon="4.71144">
        <ele>197</ele>
        <time>2018-02-02T10:03:19Z</time>
      </trkpt>
      <trkpt lat="45.86078" lon="4.71138">
        <ele>197</ele>
        <time>2018-02-02T10:03:21Z</time>
      </trkpt>
      <trkpt lat="45.86075" lon="4.71137">
        <ele>197</ele>
        <time>2018-02-02T10:03:22Z</time>
      </trkpt>
      <trkpt lat="45.8607" lon="4.71137">
        <ele>197</ele>
        <time>2018-02-02T10:03:23Z</time>
      </trkpt>
      <trkpt lat="45.86066" lon="4.71132">
        <ele>197</ele>
        <time>2018-02-02T10:03:24Z</time>
      </trkpt>
      <trkpt lat="45.86063" lon="4.71127">
        <ele>197</ele>
        <time>2018-02-02T10:03:25Z</time>
      </trkpt>
      <trkpt lat="45.86059" lon="4.71123">
        <ele>197</ele>
        <time>2018-02-02T10:03:26Z</time>
      </trkpt>
      <trkpt lat="45.86056" lon="4.71117">
        <ele>197</ele>
        <time>2018-02-02T10:03:27Z</time>
      </trkpt>
      <trkpt lat="45.86052" lon="4.71111">
        <ele>197</ele>
        <time>2018-02-02T10:03:28Z</time>
      </trkpt>
      <trkpt lat="45.86049" lon="4.71106">
        <ele>197</ele>
        <time>2018-02-02T10:03:29Z</time>
      </trkpt>
      <trkpt lat="45.86045" lon="4.711">
        <ele>197</ele>
        <time>2018-02-02T10:03:30Z</time>
      </trkpt>
      <trkpt lat="45.8604" lon="4.7109">
        <ele>197</ele>
        <time>2018-02-02T10:03:32Z</time>
      </trkpt>
      <trkpt lat="45.86039" lon="4.71084">
        <ele>197</ele>
        <time>2018-02-02T10:03:33Z</time>
      </trkpt>
      <trkpt lat="45.86037" lon="4.71077">
        <ele>197</ele>
        <time>2018-02-02T10:03:34Z</time>
      </trkpt>
      <trkpt lat="45.86035" lon="4.7107">
        <ele>197</ele>
        <time>2018-02-02T10:03:35Z</time>
      </trkpt>
      <trkpt lat="45.86033" lon="4.71062">
        <ele>197</ele>
        <time>2018-02-02T10:03:36Z</time>
      </trkpt>
      <trkpt lat="45.86032" lon="4.71055">
        <ele>197</ele>
        <time>2018-02-02T10:03:37Z</time>
      </trkpt>
      <trkpt lat="45.8603" lon="4.71049">
        <ele>197</ele>
        <time>2018-02-02T10:03:38Z</time>
      </trkpt>
      <trkpt lat="45.86028" lon="4.71043">
        <ele>197</ele>
        <time>2018-02-02T10:03:39Z</time>
      </trkpt>
      <trkpt lat="45.86027" lon="4.71037">
        <ele>197</ele>
        <time>2018-02-02T10:03:40Z</time>
      </trkpt>
      <trkpt lat="45.86025" lon="4.71031">
        <ele>197</ele>
        <time>2018-02-02T10:03:41Z</time>
      </trkpt>
      <trkpt lat="45.86023" lon="4.71021">
        <ele>197</ele>
        <time>2018-02-02T10:03:43Z</time>
      </trkpt>
      <trkpt lat="45.8602" lon="4.71017">
        <ele>197</ele>
        <time>2018-02-02T10:03:44Z</time>
      </trkpt>
      <trkpt lat="45.86016" lon="4.71013">
        <ele>197</ele>
        <time>2018-02-02T10:03:45Z</time>
      </trkpt>
      <trkpt lat="45.86012" lon="4.71007">
        <ele>197</ele>
        <time>2018-02-02T10:03:46Z</time>
      </trkpt>
      <trkpt lat="45.86009" lon="4.71002">
        <ele>197</ele>
        <time>2018-02-02T10:03:47Z</time>
      </trkpt>
      <trkpt lat="45.86006" lon="4.70997">
        <ele>197</ele>
        <time>2018-02-02T10:03:48Z</time>
      </trkpt>
      <trkpt lat="45.86002" lon="4.70992">
        <ele>197</ele>
        <time>2018-02-02T10:03:49Z</time>
      </trkpt>
      <trkpt lat="45.85997" lon="4.70988">
        <ele>197</ele>
        <time>2018-02-02T10:03:50Z</time>
      </trkpt>
      <trkpt lat="45.85992" lon="4.70984">
        <ele>197</ele>
        <time>2018-02-02T10:03:51Z</time>
      </trkpt>
      <trkpt lat="45.85987" lon="4.7098">
        <ele>197</ele>
        <time>2018-02-02T10:03:52Z</time>
      </trkpt>
      <trkpt lat="45.85982" lon="4.70977">
        <ele>197</ele>
        <time>2018-02-02T10:03:53Z</time>
      </trkpt>
      <trkpt lat="45.85978" lon="4.70975">
        <ele>197</ele>
        <time>2018-02-02T10:03:54Z</time>
      </trkpt>
      <trkpt lat="45.85973" lon="4.70973">
        <ele>197</ele>
        <time>2018-02-02T10:03:55Z</time>
      </trkpt>
      <trkpt lat="45.85969" lon="4.70972">
        <ele>197</ele>
        <time>2018-02-02T10:03:56Z</time>
      </trkpt>
      <trkpt lat="45.8596" lon="4.70969">
        <ele>197</ele>
        <time>2018-02-02T10:03:58Z</time>
      </trkpt>
      <trkpt lat="45.85956" lon="4.70968">
        <ele>197</ele>
        <time>2018-02-02T10:03:59Z</time>
      </trkpt>
      <trkpt lat="45.85948" lon="4.70968">
        <ele>197</ele>
        <time>2018-02-02T10:04:01Z</time>
      </trkpt>
      <trkpt lat="45.85944" lon="4.70966">
        <ele>197</ele>
        <time>2018-02-02T10:04:02Z</time>
      </trkpt>
      <trkpt lat="45.85939" lon="4.70958">
        <ele>197</ele>
        <time>2018-02-02T10:04:04Z</time>
      </trkpt>
      <trkpt lat="45.85939" lon="4.70952">
        <ele>197</ele>
        <time>2018-02-02T10:04:05Z</time>
      </trkpt>
      <trkpt lat="45.8594" lon="4.70942">
        <ele>197</ele>
        <time>2018-02-02T10:04:07Z</time>
      </trkpt>
      <trkpt lat="45.85941" lon="4.70935">
        <ele>197</ele>
        <time>2018-02-02T10:04:08Z</time>
      </trkpt>
      <trkpt lat="45.85943" lon="4.70929">
        <ele>197</ele>
        <time>2018-02-02T10:04:09Z</time>
      </trkpt>
      <trkpt lat="45.85944" lon="4.70922">
        <ele>197</ele>
        <time>2018-02-02T10:04:10Z</time>
      </trkpt>
      <trkpt lat="45.85946" lon="4.70915">
        <ele>197</ele>
        <time>2018-02-02T10:04:11Z</time>
      </trkpt>
      <trkpt lat="45.85948" lon="4.70909">
        <ele>197</ele>
        <time>2018-02-02T10:04:12Z</time>
      </trkpt>
      <trkpt lat="45.85952" lon="4.70898">
        <ele>197</ele>
        <time>2018-02-02T10:04:14Z</time>
      </trkpt>
      <trkpt lat="45.85954" lon="4.70891">
        <ele>197</ele>
        <time>2018-02-02T10:04:15Z</time>
      </trkpt>
      <trkpt lat="45.85955" lon="4.70885">
        <ele>197</ele>
        <time>2018-02-02T10:04:16Z</time>
      </trkpt>
      <trkpt lat="45.85957" lon="4.70877">
        <ele>197</ele>
        <time>2018-02-02T10:04:17Z</time>
      </trkpt>
      <trkpt lat="45.85959" lon="4.70871">
        <ele>196</ele>
        <time>2018-02-02T10:04:18Z</time>
      </trkpt>
      <trkpt lat="45.85959" lon="4.70864">
        <ele>196</ele>
        <time>2018-02-02T10:04:19Z</time>
      </trkpt>
      <trkpt lat="45.85961" lon="4.70857">
        <ele>196</ele>
        <time>2018-02-02T10:04:20Z</time>
      </trkpt>
      <trkpt lat="45.85961" lon="4.7085">
        <ele>196</ele>
        <time>2018-02-02T10:04:21Z</time>
      </trkpt>
      <trkpt lat="45.85961" lon="4.70844">
        <ele>196</ele>
        <time>2018-02-02T10:04:22Z</time>
      </trkpt>
      <trkpt lat="45.8596" lon="4.70837">
        <ele>196</ele>
        <time>2018-02-02T10:04:23Z</time>
      </trkpt>
      <trkpt lat="45.85959" lon="4.70831">
        <ele>196</ele>
        <time>2018-02-02T10:04:24Z</time>
      </trkpt>
      <trkpt lat="45.85958" lon="4.70824">
        <ele>195</ele>
        <time>2018-02-02T10:04:25Z</time>
      </trkpt>
      <trkpt lat="45.85956" lon="4.70812">
        <ele>195</ele>
        <time>2018-02-02T10:04:27Z</time>
      </trkpt>
      <trkpt lat="45.85956" lon="4.70807">
        <ele>195</ele>
        <time>2018-02-02T10:04:28Z</time>
      </trkpt>
      <trkpt lat="45.85955" lon="4.70801">
        <ele>195</ele>
        <time>2018-02-02T10:04:29Z</time>
      </trkpt>
      <trkpt lat="45.85955" lon="4.70794">
        <ele>195</ele>
        <time>2018-02-02T10:04:30Z</time>
      </trkpt>
      <trkpt lat="45.85955" lon="4.70785">
        <ele>195</ele>
        <time>2018-02-02T10:04:31Z</time>
      </trkpt>
      <trkpt lat="45.85955" lon="4.70779">
        <ele>195</ele>
        <time>2018-02-02T10:04:32Z</time>
      </trkpt>
      <trkpt lat="45.85956" lon="4.70771">
        <ele>195</ele>
        <time>2018-02-02T10:04:33Z</time>
      </trkpt>
      <trkpt lat="45.85957" lon="4.70764">
        <ele>195</ele>
        <time>2018-02-02T10:04:34Z</time>
      </trkpt>
      <trkpt lat="45.85957" lon="4.70753">
        <ele>195</ele>
        <time>2018-02-02T10:04:36Z</time>
      </trkpt>
      <trkpt lat="45.85958" lon="4.70745">
        <ele>194</ele>
        <time>2018-02-02T10:04:37Z</time>
      </trkpt>
      <trkpt lat="45.85959" lon="4.70736">
        <ele>194</ele>
        <time>2018-02-02T10:04:38Z</time>
      </trkpt>
      <trkpt lat="45.8596" lon="4.70729">
        <ele>194</ele>
        <time>2018-02-02T10:04:39Z</time>
      </trkpt>
      <trkpt lat="45.85961" lon="4.70722">
        <ele>194</ele>
        <time>2018-02-02T10:04:40Z</time>
      </trkpt>
      <trkpt lat="45.85961" lon="4.70715">
        <ele>194</ele>
        <time>2018-02-02T10:04:41Z</time>
      </trkpt>
      <trkpt lat="45.85962" lon="4.70708">
        <ele>194</ele>
        <time>2018-02-02T10:04:42Z</time>
      </trkpt>
      <trkpt lat="45.85962" lon="4.70701">
        <ele>194</ele>
        <time>2018-02-02T10:04:43Z</time>
      </trkpt>
      <trkpt lat="45.85962" lon="4.70695">
        <ele>194</ele>
        <time>2018-02-02T10:04:44Z</time>
      </trkpt>
      <trkpt lat="45.8596" lon="4.70688">
        <ele>194</ele>
        <time>2018-02-02T10:04:45Z</time>
      </trkpt>
      <trkpt lat="45.85958" lon="4.70682">
        <ele>194</ele>
        <time>2018-02-02T10:04:46Z</time>
      </trkpt>
      <trkpt lat="45.85955" lon="4.70674">
        <ele>194</ele>
        <time>2018-02-02T10:04:47Z</time>
      </trkpt>
      <trkpt lat="45.85952" lon="4.70668">
        <ele>194</ele>
        <time>2018-02-02T10:04:48Z</time>
      </trkpt>
      <trkpt lat="45.85948" lon="4.70661">
        <ele>194</ele>
        <time>2018-02-02T10:04:49Z</time>
      </trkpt>
      <trkpt lat="45.85944" lon="4.70654">
        <ele>194</ele>
        <time>2018-02-02T10:04:50Z</time>
      </trkpt>
      <trkpt lat="45.8594" lon="4.70648">
        <ele>194</ele>
        <time>2018-02-02T10:04:51Z</time>
      </trkpt>
      <trkpt lat="45.85938" lon="4.70642">
        <ele>194</ele>
        <time>2018-02-02T10:04:52Z</time>
      </trkpt>
      <trkpt lat="45.85934" lon="4.70636">
        <ele>194</ele>
        <time>2018-02-02T10:04:53Z</time>
      </trkpt>
      <trkpt lat="45.85931" lon="4.7063">
        <ele>194</ele>
        <time>2018-02-02T10:04:54Z</time>
      </trkpt>
      <trkpt lat="45.85928" lon="4.70624">
        <ele>194</ele>
        <time>2018-02-02T10:04:55Z</time>
      </trkpt>
      <trkpt lat="45.85925" lon="4.70619">
        <ele>194</ele>
        <time>2018-02-02T10:04:56Z</time>
      </trkpt>
      <trkpt lat="45.85922" lon="4.70614">
        <ele>194</ele>
        <time>2018-02-02T10:04:57Z</time>
      </trkpt>
      <trkpt lat="45.85919" lon="4.70609">
        <ele>194</ele>
        <time>2018-02-02T10:04:58Z</time>
      </trkpt>
      <trkpt lat="45.85915" lon="4.70603">
        <ele>195</ele>
        <time>2018-02-02T10:04:59Z</time>
      </trkpt>
      <trkpt lat="45.85912" lon="4.70599">
        <ele>195</ele>
        <time>2018-02-02T10:05:00Z</time>
      </trkpt>
      <trkpt lat="45.85908" lon="4.70594">
        <ele>195</ele>
        <time>2018-02-02T10:05:01Z</time>
      </trkpt>
      <trkpt lat="45.85904" lon="4.7059">
        <ele>195</ele>
        <time>2018-02-02T10:05:02Z</time>
      </trkpt>
      <trkpt lat="45.859" lon="4.70587">
        <ele>195</ele>
        <time>2018-02-02T10:05:03Z</time>
      </trkpt>
      <trkpt lat="45.85895" lon="4.70584">
        <ele>195</ele>
        <time>2018-02-02T10:05:04Z</time>
      </trkpt>
      <trkpt lat="45.8589" lon="4.70582">
        <ele>195</ele>
        <time>2018-02-02T10:05:05Z</time>
      </trkpt>
      <trkpt lat="45.85885" lon="4.70581">
        <ele>195</ele>
        <time>2018-02-02T10:05:06Z</time>
      </trkpt>
      <trkpt lat="45.85881" lon="4.7058">
        <ele>195</ele>
        <time>2018-02-02T10:05:07Z</time>
      </trkpt>
      <trkpt lat="45.85876" lon="4.70577">
        <ele>195</ele>
        <time>2018-02-02T10:05:08Z</time>
      </trkpt>
      <trkpt lat="45.85871" lon="4.70575">
        <ele>195</ele>
        <time>2018-02-02T10:05:09Z</time>
      </trkpt>
      <trkpt lat="45.85863" lon="4.70573">
        <ele>195</ele>
        <time>2018-02-02T10:05:11Z</time>
      </trkpt>
      <trkpt lat="45.85858" lon="4.70572">
        <ele>195</ele>
        <time>2018-02-02T10:05:12Z</time>
      </trkpt>
      <trkpt lat="45.85854" lon="4.70569">
        <ele>195</ele>
        <time>2018-02-02T10:05:13Z</time>
      </trkpt>
      <trkpt lat="45.85848" lon="4.70568">
        <ele>195</ele>
        <time>2018-02-02T10:05:14Z</time>
      </trkpt>
      <trkpt lat="45.85843" lon="4.70566">
        <ele>195</ele>
        <time>2018-02-02T10:05:15Z</time>
      </trkpt>
      <trkpt lat="45.85838" lon="4.70565">
        <ele>195</ele>
        <time>2018-02-02T10:05:16Z</time>
      </trkpt>
      <trkpt lat="45.85833" lon="4.70563">
        <ele>195</ele>
        <time>2018-02-02T10:05:17Z</time>
      </trkpt>
      <trkpt lat="45.85829" lon="4.70561">
        <ele>195</ele>
        <time>2018-02-02T10:05:18Z</time>
      </trkpt>
      <trkpt lat="45.85825" lon="4.70558">
        <ele>195</ele>
        <time>2018-02-02T10:05:19Z</time>
      </trkpt>
      <trkpt lat="45.85821" lon="4.70556">
        <ele>195</ele>
        <time>2018-02-02T10:05:20Z</time>
      </trkpt>
      <trkpt lat="45.85813" lon="4.70552">
        <ele>195</ele>
        <time>2018-02-02T10:05:22Z</time>
      </trkpt>
      <trkpt lat="45.85808" lon="4.70551">
        <ele>195</ele>
        <time>2018-02-02T10:05:23Z</time>
      </trkpt>
      <trkpt lat="45.85799" lon="4.70548">
        <ele>195</ele>
        <time>2018-02-02T10:05:25Z</time>
      </trkpt>
      <trkpt lat="45.85795" lon="4.70546">
        <ele>195</ele>
        <time>2018-02-02T10:05:26Z</time>
      </trkpt>
      <trkpt lat="45.85791" lon="4.70542">
        <ele>196</ele>
        <time>2018-02-02T10:05:27Z</time>
      </trkpt>
      <trkpt lat="45.85787" lon="4.70538">
        <ele>196</ele>
        <time>2018-02-02T10:05:28Z</time>
      </trkpt>
      <trkpt lat="45.85779" lon="4.70533">
        <ele>196</ele>
        <time>2018-02-02T10:05:30Z</time>
      </trkpt>
      <trkpt lat="45.85774" lon="4.70531">
        <ele>196</ele>
        <time>2018-02-02T10:05:31Z</time>
      </trkpt>
      <trkpt lat="45.85769" lon="4.70525">
        <ele>196</ele>
        <time>2018-02-02T10:05:32Z</time>
      </trkpt>
      <trkpt lat="45.85765" lon="4.70522">
        <ele>196</ele>
        <time>2018-02-02T10:05:33Z</time>
      </trkpt>
      <trkpt lat="45.85761" lon="4.70519">
        <ele>196</ele>
        <time>2018-02-02T10:05:34Z</time>
      </trkpt>
      <trkpt lat="45.85756" lon="4.70514">
        <ele>196</ele>
        <time>2018-02-02T10:05:35Z</time>
      </trkpt>
      <trkpt lat="45.85752" lon="4.70511">
        <ele>196</ele>
        <time>2018-02-02T10:05:36Z</time>
      </trkpt>
      <trkpt lat="45.85747" lon="4.70508">
        <ele>196</ele>
        <time>2018-02-02T10:05:37Z</time>
      </trkpt>
      <trkpt lat="45.85743" lon="4.70506">
        <ele>196</ele>
        <time>2018-02-02T10:05:38Z</time>
      </trkpt>
      <trkpt lat="45.85739" lon="4.705">
        <ele>196</ele>
        <time>2018-02-02T10:05:39Z</time>
      </trkpt>
      <trkpt lat="45.85734" lon="4.7049">
        <ele>196</ele>
        <time>2018-02-02T10:05:41Z</time>
      </trkpt>
      <trkpt lat="45.85733" lon="4.70485">
        <ele>196</ele>
        <time>2018-02-02T10:05:42Z</time>
      </trkpt>
      <trkpt lat="45.85729" lon="4.70476">
        <ele>196</ele>
        <time>2018-02-02T10:05:44Z</time>
      </trkpt>
      <trkpt lat="45.85727" lon="4.70471">
        <ele>196</ele>
        <time>2018-02-02T10:05:45Z</time>
      </trkpt>
      <trkpt lat="45.85727" lon="4.70464">
        <ele>196</ele>
        <time>2018-02-02T10:05:46Z</time>
      </trkpt>
      <trkpt lat="45.85726" lon="4.70458">
        <ele>196</ele>
        <time>2018-02-02T10:05:47Z</time>
      </trkpt>
      <trkpt lat="45.85725" lon="4.70452">
        <ele>196</ele>
        <time>2018-02-02T10:05:48Z</time>
      </trkpt>
      <trkpt lat="45.85724" lon="4.70445">
        <ele>196</ele>
        <time>2018-02-02T10:05:49Z</time>
      </trkpt>
      <trkpt lat="45.85723" lon="4.70438">
        <ele>196</ele>
        <time>2018-02-02T10:05:50Z</time>
      </trkpt>
      <trkpt lat="45.85721" lon="4.70431">
        <ele>196</ele>
        <time>2018-02-02T10:05:51Z</time>
      </trkpt>
      <trkpt lat="45.8572" lon="4.70425">
        <ele>196</ele>
        <time>2018-02-02T10:05:52Z</time>
      </trkpt>
      <trkpt lat="45.85719" lon="4.70416">
        <ele>196</ele>
        <time>2018-02-02T10:05:53Z</time>
      </trkpt>
      <trkpt lat="45.85717" lon="4.70409">
        <ele>196</ele>
        <time>2018-02-02T10:05:54Z</time>
      </trkpt>
      <trkpt lat="45.85716" lon="4.70402">
        <ele>196</ele>
        <time>2018-02-02T10:05:55Z</time>
      </trkpt>
      <trkpt lat="45.85715" lon="4.70395">
        <ele>196</ele>
        <time>2018-02-02T10:05:56Z</time>
      </trkpt>
      <trkpt lat="45.85713" lon="4.70388">
        <ele>196</ele>
        <time>2018-02-02T10:05:57Z</time>
      </trkpt>
      <trkpt lat="45.85713" lon="4.7038">
        <ele>196</ele>
        <time>2018-02-02T10:05:58Z</time>
      </trkpt>
      <trkpt lat="45.85712" lon="4.70371">
        <ele>196</ele>
        <time>2018-02-02T10:05:59Z</time>
      </trkpt>
      <trkpt lat="45.85711" lon="4.70363">
        <ele>196</ele>
        <time>2018-02-02T10:06:00Z</time>
      </trkpt>
      <trkpt lat="45.8571" lon="4.70356">
        <ele>196</ele>
        <time>2018-02-02T10:06:01Z</time>
      </trkpt>
      <trkpt lat="45.8571" lon="4.70349">
        <ele>196</ele>
        <time>2018-02-02T10:06:02Z</time>
      </trkpt>
      <trkpt lat="45.85709" lon="4.70341">
        <ele>196</ele>
        <time>2018-02-02T10:06:03Z</time>
      </trkpt>
      <trkpt lat="45.85708" lon="4.70334">
        <ele>196</ele>
        <time>2018-02-02T10:06:04Z</time>
      </trkpt>
      <trkpt lat="45.85707" lon="4.70325">
        <ele>197</ele>
        <time>2018-02-02T10:06:05Z</time>
      </trkpt>
      <trkpt lat="45.85706" lon="4.70317">
        <ele>197</ele>
        <time>2018-02-02T10:06:06Z</time>
      </trkpt>
      <trkpt lat="45.85705" lon="4.70308">
        <ele>197</ele>
        <time>2018-02-02T10:06:07Z</time>
      </trkpt>
      <trkpt lat="45.85705" lon="4.703">
        <ele>197</ele>
        <time>2018-02-02T10:06:08Z</time>
      </trkpt>
      <trkpt lat="45.85703" lon="4.70292">
        <ele>197</ele>
        <time>2018-02-02T10:06:09Z</time>
      </trkpt>
      <trkpt lat="45.85702" lon="4.70283">
        <ele>197</ele>
        <time>2018-02-02T10:06:10Z</time>
      </trkpt>
      <trkpt lat="45.85701" lon="4.70275">
        <ele>197</ele>
        <time>2018-02-02T10:06:11Z</time>
      </trkpt>
      <trkpt lat="45.85701" lon="4.70268">
        <ele>197</ele>
        <time>2018-02-02T10:06:12Z</time>
      </trkpt>
      <trkpt lat="45.857" lon="4.7026">
        <ele>197</ele>
        <time>2018-02-02T10:06:13Z</time>
      </trkpt>
      <trkpt lat="45.85699" lon="4.70253">
        <ele>197</ele>
        <time>2018-02-02T10:06:14Z</time>
      </trkpt>
      <trkpt lat="45.85698" lon="4.70246">
        <ele>197</ele>
        <time>2018-02-02T10:06:15Z</time>
      </trkpt>
      <trkpt lat="45.85697" lon="4.70239">
        <ele>197</ele>
        <time>2018-02-02T10:06:16Z</time>
      </trkpt>
      <trkpt lat="45.85696" lon="4.70231">
        <ele>197</ele>
        <time>2018-02-02T10:06:17Z</time>
      </trkpt>
      <trkpt lat="45.85696" lon="4.70224">
        <ele>197</ele>
        <time>2018-02-02T10:06:18Z</time>
      </trkpt>
      <trkpt lat="45.85695" lon="4.70216">
        <ele>197</ele>
        <time>2018-02-02T10:06:19Z</time>
      </trkpt>
      <trkpt lat="45.85694" lon="4.70209">
        <ele>197</ele>
        <time>2018-02-02T10:06:20Z</time>
      </trkpt>
      <trkpt lat="45.85692" lon="4.70202">
        <ele>197</ele>
        <time>2018-02-02T10:06:21Z</time>
      </trkpt>
      <trkpt lat="45.85688" lon="4.70193">
        <ele>197</ele>
        <time>2018-02-02T10:06:23Z</time>
      </trkpt>
      <trkpt lat="45.85685" lon="4.70187">
        <ele>197</ele>
        <time>2018-02-02T10:06:24Z</time>
      </trkpt>
      <trkpt lat="45.85684" lon="4.70176">
        <ele>197</ele>
        <time>2018-02-02T10:06:25Z</time>
      </trkpt>
      <trkpt lat="45.85682" lon="4.70169">
        <ele>197</ele>
        <time>2018-02-02T10:06:26Z</time>
      </trkpt>
      <trkpt lat="45.85681" lon="4.70162">
        <ele>197</ele>
        <time>2018-02-02T10:06:27Z</time>
      </trkpt>
      <trkpt lat="45.85679" lon="4.70154">
        <ele>197</ele>
        <time>2018-02-02T10:06:28Z</time>
      </trkpt>
      <trkpt lat="45.85675" lon="4.70147">
        <ele>197</ele>
        <time>2018-02-02T10:06:29Z</time>
      </trkpt>
      <trkpt lat="45.85675" lon="4.70139">
        <ele>197</ele>
        <time>2018-02-02T10:06:30Z</time>
      </trkpt>
      <trkpt lat="45.85675" lon="4.7013">
        <ele>197</ele>
        <time>2018-02-02T10:06:31Z</time>
      </trkpt>
      <trkpt lat="45.85675" lon="4.70123">
        <ele>197</ele>
        <time>2018-02-02T10:06:32Z</time>
      </trkpt>
      <trkpt lat="45.85674" lon="4.70114">
        <ele>197</ele>
        <time>2018-02-02T10:06:33Z</time>
      </trkpt>
      <trkpt lat="45.85673" lon="4.70106">
        <ele>196</ele>
        <time>2018-02-02T10:06:34Z</time>
      </trkpt>
      <trkpt lat="45.85673" lon="4.70098">
        <ele>196</ele>
        <time>2018-02-02T10:06:35Z</time>
      </trkpt>
      <trkpt lat="45.85674" lon="4.70091">
        <ele>196</ele>
        <time>2018-02-02T10:06:36Z</time>
      </trkpt>
      <trkpt lat="45.85675" lon="4.70084">
        <ele>196</ele>
        <time>2018-02-02T10:06:37Z</time>
      </trkpt>
      <trkpt lat="45.85678" lon="4.70076">
        <ele>196</ele>
        <time>2018-02-02T10:06:38Z</time>
      </trkpt>
      <trkpt lat="45.85679" lon="4.70069">
        <ele>196</ele>
        <time>2018-02-02T10:06:39Z</time>
      </trkpt>
      <trkpt lat="45.85681" lon="4.70063">
        <ele>196</ele>
        <time>2018-02-02T10:06:40Z</time>
      </trkpt>
      <trkpt lat="45.85683" lon="4.70052">
        <ele>195</ele>
        <time>2018-02-02T10:06:42Z</time>
      </trkpt>
      <trkpt lat="45.85685" lon="4.70047">
        <ele>195</ele>
        <time>2018-02-02T10:06:43Z</time>
      </trkpt>
      <trkpt lat="45.85688" lon="4.70035">
        <ele>195</ele>
        <time>2018-02-02T10:06:45Z</time>
      </trkpt>
      <trkpt lat="45.8569" lon="4.70027">
        <ele>195</ele>
        <time>2018-02-02T10:06:46Z</time>
      </trkpt>
      <trkpt lat="45.85691" lon="4.70014">
        <ele>195</ele>
        <time>2018-02-02T10:06:48Z</time>
      </trkpt>
      <trkpt lat="45.85692" lon="4.70007">
        <ele>195</ele>
        <time>2018-02-02T10:06:49Z</time>
      </trkpt>
      <trkpt lat="45.85692" lon="4.69998">
        <ele>195</ele>
        <time>2018-02-02T10:06:50Z</time>
      </trkpt>
      <trkpt lat="45.85692" lon="4.69989">
        <ele>195</ele>
        <time>2018-02-02T10:06:51Z</time>
      </trkpt>
      <trkpt lat="45.85691" lon="4.69981">
        <ele>195</ele>
        <time>2018-02-02T10:06:52Z</time>
      </trkpt>
      <trkpt lat="45.85691" lon="4.69971">
        <ele>195</ele>
        <time>2018-02-02T10:06:53Z</time>
      </trkpt>
      <trkpt lat="45.85689" lon="4.69963">
        <ele>195</ele>
        <time>2018-02-02T10:06:54Z</time>
      </trkpt>
      <trkpt lat="45.85687" lon="4.69954">
        <ele>195</ele>
        <time>2018-02-02T10:06:55Z</time>
      </trkpt>
      <trkpt lat="45.85685" lon="4.69946">
        <ele>195</ele>
        <time>2018-02-02T10:06:56Z</time>
      </trkpt>
      <trkpt lat="45.85682" lon="4.69937">
        <ele>195</ele>
        <time>2018-02-02T10:06:57Z</time>
      </trkpt>
      <trkpt lat="45.8568" lon="4.69929">
        <ele>195</ele>
        <time>2018-02-02T10:06:58Z</time>
      </trkpt>
      <trkpt lat="45.85678" lon="4.69919">
        <ele>195</ele>
        <time>2018-02-02T10:06:59Z</time>
      </trkpt>
      <trkpt lat="45.85676" lon="4.69911">
        <ele>195</ele>
        <time>2018-02-02T10:07:00Z</time>
      </trkpt>
      <trkpt lat="45.85673" lon="4.69903">
        <ele>195</ele>
        <time>2018-02-02T10:07:01Z</time>
      </trkpt>
      <trkpt lat="45.85672" lon="4.69897">
        <ele>195</ele>
        <time>2018-02-02T10:07:02Z</time>
      </trkpt>
      <trkpt lat="45.85669" lon="4.6989">
        <ele>195</ele>
        <time>2018-02-02T10:07:03Z</time>
      </trkpt>
      <trkpt lat="45.85668" lon="4.69881">
        <ele>195</ele>
        <time>2018-02-02T10:07:04Z</time>
      </trkpt>
      <trkpt lat="45.85668" lon="4.69869">
        <ele>195</ele>
        <time>2018-02-02T10:07:05Z</time>
      </trkpt>
      <trkpt lat="45.85668" lon="4.6986">
        <ele>195</ele>
        <time>2018-02-02T10:07:06Z</time>
      </trkpt>
      <trkpt lat="45.85667" lon="4.69852">
        <ele>195</ele>
        <time>2018-02-02T10:07:07Z</time>
      </trkpt>
      <trkpt lat="45.85665" lon="4.69843">
        <ele>195</ele>
        <time>2018-02-02T10:07:08Z</time>
      </trkpt>
      <trkpt lat="45.85663" lon="4.69835">
        <ele>195</ele>
        <time>2018-02-02T10:07:09Z</time>
      </trkpt>
      <trkpt lat="45.85662" lon="4.69827">
        <ele>195</ele>
        <time>2018-02-02T10:07:10Z</time>
      </trkpt>
      <trkpt lat="45.85662" lon="4.69817">
        <ele>195</ele>
        <time>2018-02-02T10:07:11Z</time>
      </trkpt>
      <trkpt lat="45.85661" lon="4.69809">
        <ele>195</ele>
        <time>2018-02-02T10:07:12Z</time>
      </trkpt>
      <trkpt lat="45.8566" lon="4.698">
        <ele>195</ele>
        <time>2018-02-02T10:07:13Z</time>
      </trkpt>
      <trkpt lat="45.85659" lon="4.69793">
        <ele>195</ele>
        <time>2018-02-02T10:07:14Z</time>
      </trkpt>
      <trkpt lat="45.85658" lon="4.69785">
        <ele>195</ele>
        <time>2018-02-02T10:07:15Z</time>
      </trkpt>
      <trkpt lat="45.85657" lon="4.69777">
        <ele>195</ele>
        <time>2018-02-02T10:07:16Z</time>
      </trkpt>
      <trkpt lat="45.85656" lon="4.69769">
        <ele>195</ele>
        <time>2018-02-02T10:07:17Z</time>
      </trkpt>
      <trkpt lat="45.85656" lon="4.69762">
        <ele>195</ele>
        <time>2018-02-02T10:07:18Z</time>
      </trkpt>
      <trkpt lat="45.85655" lon="4.69754">
        <ele>195</ele>
        <time>2018-02-02T10:07:19Z</time>
      </trkpt>
      <trkpt lat="45.85654" lon="4.69747">
        <ele>195</ele>
        <time>2018-02-02T10:07:20Z</time>
      </trkpt>
      <trkpt lat="45.85654" lon="4.69739">
        <ele>195</ele>
        <time>2018-02-02T10:07:21Z</time>
      </trkpt>
      <trkpt lat="45.85653" lon="4.69731">
        <ele>195</ele>
        <time>2018-02-02T10:07:22Z</time>
      </trkpt>
      <trkpt lat="45.85652" lon="4.69724">
        <ele>195</ele>
        <time>2018-02-02T10:07:23Z</time>
      </trkpt>
      <trkpt lat="45.85652" lon="4.69715">
        <ele>196</ele>
        <time>2018-02-02T10:07:24Z</time>
      </trkpt>
      <trkpt lat="45.85651" lon="4.69707">
        <ele>196</ele>
        <time>2018-02-02T10:07:25Z</time>
      </trkpt>
      <trkpt lat="45.8565" lon="4.69699">
        <ele>196</ele>
        <time>2018-02-02T10:07:26Z</time>
      </trkpt>
      <trkpt lat="45.85649" lon="4.69693">
        <ele>196</ele>
        <time>2018-02-02T10:07:27Z</time>
      </trkpt>
      <trkpt lat="45.85649" lon="4.69685">
        <ele>196</ele>
        <time>2018-02-02T10:07:28Z</time>
      </trkpt>
      <trkpt lat="45.85646" lon="4.69676">
        <ele>196</ele>
        <time>2018-02-02T10:07:29Z</time>
      </trkpt>
      <trkpt lat="45.85645" lon="4.69669">
        <ele>196</ele>
        <time>2018-02-02T10:07:30Z</time>
      </trkpt>
      <trkpt lat="45.85644" lon="4.69661">
        <ele>197</ele>
        <time>2018-02-02T10:07:31Z</time>
      </trkpt>
      <trkpt lat="45.85645" lon="4.69653">
        <ele>197</ele>
        <time>2018-02-02T10:07:32Z</time>
      </trkpt>
      <trkpt lat="45.85644" lon="4.69646">
        <ele>197</ele>
        <time>2018-02-02T10:07:33Z</time>
      </trkpt>
      <trkpt lat="45.85643" lon="4.6964">
        <ele>197</ele>
        <time>2018-02-02T10:07:34Z</time>
      </trkpt>
      <trkpt lat="45.85643" lon="4.69632">
        <ele>197</ele>
        <time>2018-02-02T10:07:35Z</time>
      </trkpt>
      <trkpt lat="45.85643" lon="4.69624">
        <ele>197</ele>
        <time>2018-02-02T10:07:36Z</time>
      </trkpt>
      <trkpt lat="45.85643" lon="4.69617">
        <ele>197</ele>
        <time>2018-02-02T10:07:37Z</time>
      </trkpt>
      <trkpt lat="45.85642" lon="4.6961">
        <ele>197</ele>
        <time>2018-02-02T10:07:38Z</time>
      </trkpt>
      <trkpt lat="45.85641" lon="4.69602">
        <ele>197</ele>
        <time>2018-02-02T10:07:39Z</time>
      </trkpt>
      <trkpt lat="45.85641" lon="4.69596">
        <ele>197</ele>
        <time>2018-02-02T10:07:40Z</time>
      </trkpt>
      <trkpt lat="45.8564" lon="4.69589">
        <ele>197</ele>
        <time>2018-02-02T10:07:41Z</time>
      </trkpt>
      <trkpt lat="45.8564" lon="4.69583">
        <ele>198</ele>
        <time>2018-02-02T10:07:42Z</time>
      </trkpt>
      <trkpt lat="45.8564" lon="4.69575">
        <ele>198</ele>
        <time>2018-02-02T10:07:43Z</time>
      </trkpt>
      <trkpt lat="45.85639" lon="4.69569">
        <ele>198</ele>
        <time>2018-02-02T10:07:44Z</time>
      </trkpt>
      <trkpt lat="45.8564" lon="4.69561">
        <ele>198</ele>
        <time>2018-02-02T10:07:45Z</time>
      </trkpt>
      <trkpt lat="45.85638" lon="4.69554">
        <ele>198</ele>
        <time>2018-02-02T10:07:46Z</time>
      </trkpt>
      <trkpt lat="45.85637" lon="4.69547">
        <ele>198</ele>
        <time>2018-02-02T10:07:47Z</time>
      </trkpt>
      <trkpt lat="45.85637" lon="4.69539">
        <ele>198</ele>
        <time>2018-02-02T10:07:48Z</time>
      </trkpt>
      <trkpt lat="45.85635" lon="4.69532">
        <ele>198</ele>
        <time>2018-02-02T10:07:49Z</time>
      </trkpt>
      <trkpt lat="45.85635" lon="4.69524">
        <ele>198</ele>
        <time>2018-02-02T10:07:50Z</time>
      </trkpt>
      <trkpt lat="45.85635" lon="4.69516">
        <ele>198</ele>
        <time>2018-02-02T10:07:51Z</time>
      </trkpt>
      <trkpt lat="45.85635" lon="4.6951">
        <ele>198</ele>
        <time>2018-02-02T10:07:52Z</time>
      </trkpt>
      <trkpt lat="45.85634" lon="4.69503">
        <ele>198</ele>
        <time>2018-02-02T10:07:53Z</time>
      </trkpt>
      <trkpt lat="45.85633" lon="4.69496">
        <ele>198</ele>
        <time>2018-02-02T10:07:54Z</time>
      </trkpt>
      <trkpt lat="45.85633" lon="4.69489">
        <ele>198</ele>
        <time>2018-02-02T10:07:55Z</time>
      </trkpt>
      <trkpt lat="45.85633" lon="4.69482">
        <ele>198</ele>
        <time>2018-02-02T10:07:56Z</time>
      </trkpt>
      <trkpt lat="45.85632" lon="4.69475">
        <ele>198</ele>
        <time>2018-02-02T10:07:57Z</time>
      </trkpt>
      <trkpt lat="45.8563" lon="4.69462">
        <ele>198</ele>
        <time>2018-02-02T10:07:59Z</time>
      </trkpt>
      <trkpt lat="45.8563" lon="4.69456">
        <ele>198</ele>
        <time>2018-02-02T10:08:00Z</time>
      </trkpt>
      <trkpt lat="45.8563" lon="4.69449">
        <ele>198</ele>
        <time>2018-02-02T10:08:01Z</time>
      </trkpt>
      <trkpt lat="45.85629" lon="4.69443">
        <ele>198</ele>
        <time>2018-02-02T10:08:02Z</time>
      </trkpt>
      <trkpt lat="45.85628" lon="4.6943">
        <ele>198</ele>
        <time>2018-02-02T10:08:04Z</time>
      </trkpt>
      <trkpt lat="45.85626" lon="4.69423">
        <ele>198</ele>
        <time>2018-02-02T10:08:05Z</time>
      </trkpt>
      <trkpt lat="45.85625" lon="4.69417">
        <ele>198</ele>
        <time>2018-02-02T10:08:06Z</time>
      </trkpt>
      <trkpt lat="45.85624" lon="4.6941">
        <ele>198</ele>
        <time>2018-02-02T10:08:07Z</time>
      </trkpt>
      <trkpt lat="45.85623" lon="4.69403">
        <ele>198</ele>
        <time>2018-02-02T10:08:08Z</time>
      </trkpt>
      <trkpt lat="45.85623" lon="4.69396">
        <ele>198</ele>
        <time>2018-02-02T10:08:09Z</time>
      </trkpt>
      <trkpt lat="45.85621" lon="4.69388">
        <ele>198</ele>
        <time>2018-02-02T10:08:10Z</time>
      </trkpt>
      <trkpt lat="45.85619" lon="4.69382">
        <ele>198</ele>
        <time>2018-02-02T10:08:11Z</time>
      </trkpt>
      <trkpt lat="45.85619" lon="4.69375">
        <ele>198</ele>
        <time>2018-02-02T10:08:12Z</time>
      </trkpt>
      <trkpt lat="45.85618" lon="4.69368">
        <ele>198</ele>
        <time>2018-02-02T10:08:13Z</time>
      </trkpt>
      <trkpt lat="45.85617" lon="4.69361">
        <ele>198</ele>
        <time>2018-02-02T10:08:14Z</time>
      </trkpt>
      <trkpt lat="45.85617" lon="4.69354">
        <ele>198</ele>
        <time>2018-02-02T10:08:15Z</time>
      </trkpt>
      <trkpt lat="45.85616" lon="4.69346">
        <ele>198</ele>
        <time>2018-02-02T10:08:16Z</time>
      </trkpt>
      <trkpt lat="45.85616" lon="4.69339">
        <ele>198</ele>
        <time>2018-02-02T10:08:17Z</time>
      </trkpt>
      <trkpt lat="45.85615" lon="4.69327">
        <ele>198</ele>
        <time>2018-02-02T10:08:19Z</time>
      </trkpt>
      <trkpt lat="45.85613" lon="4.6932">
        <ele>198</ele>
        <time>2018-02-02T10:08:20Z</time>
      </trkpt>
      <trkpt lat="45.85613" lon="4.69307">
        <ele>198</ele>
        <time>2018-02-02T10:08:22Z</time>
      </trkpt>
      <trkpt lat="45.85612" lon="4.693">
        <ele>198</ele>
        <time>2018-02-02T10:08:23Z</time>
      </trkpt>
      <trkpt lat="45.85611" lon="4.69292">
        <ele>198</ele>
        <time>2018-02-02T10:08:24Z</time>
      </trkpt>
      <trkpt lat="45.85611" lon="4.69285">
        <ele>198</ele>
        <time>2018-02-02T10:08:25Z</time>
      </trkpt>
      <trkpt lat="45.85613" lon="4.69274">
        <ele>198</ele>
        <time>2018-02-02T10:08:27Z</time>
      </trkpt>
      <trkpt lat="45.85613" lon="4.69266">
        <ele>198</ele>
        <time>2018-02-02T10:08:28Z</time>
      </trkpt>
      <trkpt lat="45.85613" lon="4.69259">
        <ele>198</ele>
        <time>2018-02-02T10:08:29Z</time>
      </trkpt>
      <trkpt lat="45.85612" lon="4.69253">
        <ele>198</ele>
        <time>2018-02-02T10:08:30Z</time>
      </trkpt>
      <trkpt lat="45.85608" lon="4.69242">
        <ele>199</ele>
        <time>2018-02-02T10:08:32Z</time>
      </trkpt>
      <trkpt lat="45.85605" lon="4.69236">
        <ele>199</ele>
        <time>2018-02-02T10:08:33Z</time>
      </trkpt>
      <trkpt lat="45.85604" lon="4.69228">
        <ele>199</ele>
        <time>2018-02-02T10:08:34Z</time>
      </trkpt>
      <trkpt lat="45.85603" lon="4.69221">
        <ele>199</ele>
        <time>2018-02-02T10:08:35Z</time>
      </trkpt>
      <trkpt lat="45.85602" lon="4.69214">
        <ele>199</ele>
        <time>2018-02-02T10:08:36Z</time>
      </trkpt>
      <trkpt lat="45.85602" lon="4.69206">
        <ele>199</ele>
        <time>2018-02-02T10:08:37Z</time>
      </trkpt>
      <trkpt lat="45.85602" lon="4.69198">
        <ele>199</ele>
        <time>2018-02-02T10:08:38Z</time>
      </trkpt>
      <trkpt lat="45.85602" lon="4.69188">
        <ele>199</ele>
        <time>2018-02-02T10:08:39Z</time>
      </trkpt>
      <trkpt lat="45.85601" lon="4.6918">
        <ele>199</ele>
        <time>2018-02-02T10:08:40Z</time>
      </trkpt>
      <trkpt lat="45.85601" lon="4.69173">
        <ele>199</ele>
        <time>2018-02-02T10:08:41Z</time>
      </trkpt>
      <trkpt lat="45.85598" lon="4.69164">
        <ele>199</ele>
        <time>2018-02-02T10:08:42Z</time>
      </trkpt>
      <trkpt lat="45.85598" lon="4.69157">
        <ele>199</ele>
        <time>2018-02-02T10:08:43Z</time>
      </trkpt>
      <trkpt lat="45.85597" lon="4.69151">
        <ele>199</ele>
        <time>2018-02-02T10:08:44Z</time>
      </trkpt>
      <trkpt lat="45.85595" lon="4.69144">
        <ele>199</ele>
        <time>2018-02-02T10:08:45Z</time>
      </trkpt>
      <trkpt lat="45.85595" lon="4.69136">
        <ele>199</ele>
        <time>2018-02-02T10:08:46Z</time>
      </trkpt>
      <trkpt lat="45.85595" lon="4.69128">
        <ele>198</ele>
        <time>2018-02-02T10:08:47Z</time>
      </trkpt>
      <trkpt lat="45.85595" lon="4.69119">
        <ele>198</ele>
        <time>2018-02-02T10:08:48Z</time>
      </trkpt>
      <trkpt lat="45.85594" lon="4.69112">
        <ele>199</ele>
        <time>2018-02-02T10:08:49Z</time>
      </trkpt>
      <trkpt lat="45.85593" lon="4.69105">
        <ele>199</ele>
        <time>2018-02-02T10:08:50Z</time>
      </trkpt>
      <trkpt lat="45.85593" lon="4.69098">
        <ele>199</ele>
        <time>2018-02-02T10:08:51Z</time>
      </trkpt>
      <trkpt lat="45.85592" lon="4.6909">
        <ele>199</ele>
        <time>2018-02-02T10:08:52Z</time>
      </trkpt>
      <trkpt lat="45.85591" lon="4.69083">
        <ele>199</ele>
        <time>2018-02-02T10:08:53Z</time>
      </trkpt>
      <trkpt lat="45.85591" lon="4.69076">
        <ele>199</ele>
        <time>2018-02-02T10:08:54Z</time>
      </trkpt>
      <trkpt lat="45.8559" lon="4.69068">
        <ele>199</ele>
        <time>2018-02-02T10:08:55Z</time>
      </trkpt>
      <trkpt lat="45.8559" lon="4.69061">
        <ele>199</ele>
        <time>2018-02-02T10:08:56Z</time>
      </trkpt>
      <trkpt lat="45.85589" lon="4.69054">
        <ele>199</ele>
        <time>2018-02-02T10:08:57Z</time>
      </trkpt>
      <trkpt lat="45.85589" lon="4.69048">
        <ele>199</ele>
        <time>2018-02-02T10:08:58Z</time>
      </trkpt>
      <trkpt lat="45.85589" lon="4.6904">
        <ele>199</ele>
        <time>2018-02-02T10:08:59Z</time>
      </trkpt>
      <trkpt lat="45.85588" lon="4.69034">
        <ele>199</ele>
        <time>2018-02-02T10:09:00Z</time>
      </trkpt>
      <trkpt lat="45.85587" lon="4.69027">
        <ele>199</ele>
        <time>2018-02-02T10:09:01Z</time>
      </trkpt>
      <trkpt lat="45.85586" lon="4.6902">
        <ele>199</ele>
        <time>2018-02-02T10:09:02Z</time>
      </trkpt>
      <trkpt lat="45.85586" lon="4.69013">
        <ele>200</ele>
        <time>2018-02-02T10:09:03Z</time>
      </trkpt>
      <trkpt lat="45.85585" lon="4.69006">
        <ele>200</ele>
        <time>2018-02-02T10:09:04Z</time>
      </trkpt>
      <trkpt lat="45.85585" lon="4.68999">
        <ele>200</ele>
        <time>2018-02-02T10:09:05Z</time>
      </trkpt>
      <trkpt lat="45.85583" lon="4.68991">
        <ele>200</ele>
        <time>2018-02-02T10:09:06Z</time>
      </trkpt>
      <trkpt lat="45.85582" lon="4.68984">
        <ele>200</ele>
        <time>2018-02-02T10:09:07Z</time>
      </trkpt>
      <trkpt lat="45.85581" lon="4.68977">
        <ele>200</ele>
        <time>2018-02-02T10:09:08Z</time>
      </trkpt>
      <trkpt lat="45.8558" lon="4.68971">
        <ele>200</ele>
        <time>2018-02-02T10:09:09Z</time>
      </trkpt>
      <trkpt lat="45.85579" lon="4.68964">
        <ele>200</ele>
        <time>2018-02-02T10:09:10Z</time>
      </trkpt>
      <trkpt lat="45.8558" lon="4.68956">
        <ele>200</ele>
        <time>2018-02-02T10:09:11Z</time>
      </trkpt>
      <trkpt lat="45.85579" lon="4.6895">
        <ele>200</ele>
        <time>2018-02-02T10:09:12Z</time>
      </trkpt>
      <trkpt lat="45.85579" lon="4.68943">
        <ele>200</ele>
        <time>2018-02-02T10:09:13Z</time>
      </trkpt>
      <trkpt lat="45.85578" lon="4.68937">
        <ele>200</ele>
        <time>2018-02-02T10:09:14Z</time>
      </trkpt>
      <trkpt lat="45.85576" lon="4.6893">
        <ele>200</ele>
        <time>2018-02-02T10:09:15Z</time>
      </trkpt>
      <trkpt lat="45.85576" lon="4.68922">
        <ele>200</ele>
        <time>2018-02-02T10:09:16Z</time>
      </trkpt>
      <trkpt lat="45.85576" lon="4.68915">
        <ele>200</ele>
        <time>2018-02-02T10:09:17Z</time>
      </trkpt>
      <trkpt lat="45.85575" lon="4.68907">
        <ele>200</ele>
        <time>2018-02-02T10:09:18Z</time>
      </trkpt>
      <trkpt lat="45.85574" lon="4.68899">
        <ele>200</ele>
        <time>2018-02-02T10:09:19Z</time>
      </trkpt>
      <trkpt lat="45.85574" lon="4.68891">
        <ele>200</ele>
        <time>2018-02-02T10:09:20Z</time>
      </trkpt>
      <trkpt lat="45.85573" lon="4.68885">
        <ele>200</ele>
        <time>2018-02-02T10:09:21Z</time>
      </trkpt>
      <trkpt lat="45.85573" lon="4.68877">
        <ele>200</ele>
        <time>2018-02-02T10:09:22Z</time>
      </trkpt>
      <trkpt lat="45.85573" lon="4.6887">
        <ele>200</ele>
        <time>2018-02-02T10:09:23Z</time>
      </trkpt>
      <trkpt lat="45.85573" lon="4.68863">
        <ele>200</ele>
        <time>2018-02-02T10:09:24Z</time>
      </trkpt>
      <trkpt lat="45.85572" lon="4.68856">
        <ele>200</ele>
        <time>2018-02-02T10:09:25Z</time>
      </trkpt>
      <trkpt lat="45.85571" lon="4.68849">
        <ele>200</ele>
        <time>2018-02-02T10:09:26Z</time>
      </trkpt>
      <trkpt lat="45.85571" lon="4.68842">
        <ele>200</ele>
        <time>2018-02-02T10:09:27Z</time>
      </trkpt>
      <trkpt lat="45.8557" lon="4.68835">
        <ele>200</ele>
        <time>2018-02-02T10:09:28Z</time>
      </trkpt>
      <trkpt lat="45.85569" lon="4.68828">
        <ele>200</ele>
        <time>2018-02-02T10:09:29Z</time>
      </trkpt>
      <trkpt lat="45.85567" lon="4.68816">
        <ele>200</ele>
        <time>2018-02-02T10:09:31Z</time>
      </trkpt>
      <trkpt lat="45.85567" lon="4.68811">
        <ele>200</ele>
        <time>2018-02-02T10:09:32Z</time>
      </trkpt>
      <trkpt lat="45.85565" lon="4.68799">
        <ele>200</ele>
        <time>2018-02-02T10:09:35Z</time>
      </trkpt>
      <trkpt lat="45.85565" lon="4.68796">
        <ele>200</ele>
        <time>2018-02-02T10:09:36Z</time>
      </trkpt>
      <trkpt lat="45.85564" lon="4.68784">
        <ele>200</ele>
        <time>2018-02-02T10:09:40Z</time>
      </trkpt>
      <trkpt lat="45.85564" lon="4.68782">
        <ele>200</ele>
        <time>2018-02-02T10:09:41Z</time>
      </trkpt>
      <trkpt lat="45.85565" lon="4.68773">
        <ele>200</ele>
        <time>2018-02-02T10:09:51Z</time>
      </trkpt>
      <trkpt lat="45.85564" lon="4.68769">
        <ele>200</ele>
        <time>2018-02-02T10:09:52Z</time>
      </trkpt>
      <trkpt lat="45.85563" lon="4.68757">
        <ele>200</ele>
        <time>2018-02-02T10:09:55Z</time>
      </trkpt>
      <trkpt lat="45.85563" lon="4.68751">
        <ele>200</ele>
        <time>2018-02-02T10:09:56Z</time>
      </trkpt>
      <trkpt lat="45.85563" lon="4.68739">
        <ele>200</ele>
        <time>2018-02-02T10:09:58Z</time>
      </trkpt>
      <trkpt lat="45.85562" lon="4.68732">
        <ele>200</ele>
        <time>2018-02-02T10:09:59Z</time>
      </trkpt>
      <trkpt lat="45.85561" lon="4.68724">
        <ele>200</ele>
        <time>2018-02-02T10:10:00Z</time>
      </trkpt>
      <trkpt lat="45.8556" lon="4.68718">
        <ele>200</ele>
        <time>2018-02-02T10:10:01Z</time>
      </trkpt>
      <trkpt lat="45.85559" lon="4.68706">
        <ele>200</ele>
        <time>2018-02-02T10:10:03Z</time>
      </trkpt>
      <trkpt lat="45.85558" lon="4.68699">
        <ele>200</ele>
        <time>2018-02-02T10:10:04Z</time>
      </trkpt>
      <trkpt lat="45.85557" lon="4.68692">
        <ele>200</ele>
        <time>2018-02-02T10:10:05Z</time>
      </trkpt>
      <trkpt lat="45.85557" lon="4.68685">
        <ele>200</ele>
        <time>2018-02-02T10:10:06Z</time>
      </trkpt>
      <trkpt lat="45.85556" lon="4.68678">
        <ele>200</ele>
        <time>2018-02-02T10:10:07Z</time>
      </trkpt>
      <trkpt lat="45.85556" lon="4.68671">
        <ele>200</ele>
        <time>2018-02-02T10:10:08Z</time>
      </trkpt>
      <trkpt lat="45.85555" lon="4.68664">
        <ele>200</ele>
        <time>2018-02-02T10:10:09Z</time>
      </trkpt>
      <trkpt lat="45.85554" lon="4.68657">
        <ele>200</ele>
        <time>2018-02-02T10:10:10Z</time>
      </trkpt>
      <trkpt lat="45.85553" lon="4.68644">
        <ele>201</ele>
        <time>2018-02-02T10:10:12Z</time>
      </trkpt>
      <trkpt lat="45.85552" lon="4.68639">
        <ele>201</ele>
        <time>2018-02-02T10:10:13Z</time>
      </trkpt>
      <trkpt lat="45.8555" lon="4.68628">
        <ele>201</ele>
        <time>2018-02-02T10:10:15Z</time>
      </trkpt>
      <trkpt lat="45.8555" lon="4.68621">
        <ele>201</ele>
        <time>2018-02-02T10:10:16Z</time>
      </trkpt>
      <trkpt lat="45.85549" lon="4.68614">
        <ele>201</ele>
        <time>2018-02-02T10:10:17Z</time>
      </trkpt>
      <trkpt lat="45.85548" lon="4.68607">
        <ele>201</ele>
        <time>2018-02-02T10:10:18Z</time>
      </trkpt>
      <trkpt lat="45.85547" lon="4.686">
        <ele>201</ele>
        <time>2018-02-02T10:10:19Z</time>
      </trkpt>
      <trkpt lat="45.85547" lon="4.6859">
        <ele>201</ele>
        <time>2018-02-02T10:10:20Z</time>
      </trkpt>
      <trkpt lat="45.85545" lon="4.68578">
        <ele>201</ele>
        <time>2018-02-02T10:10:22Z</time>
      </trkpt>
      <trkpt lat="45.85544" lon="4.68571">
        <ele>201</ele>
        <time>2018-02-02T10:10:23Z</time>
      </trkpt>
      <trkpt lat="45.85544" lon="4.68564">
        <ele>201</ele>
        <time>2018-02-02T10:10:24Z</time>
      </trkpt>
      <trkpt lat="45.85544" lon="4.68558">
        <ele>201</ele>
        <time>2018-02-02T10:10:25Z</time>
      </trkpt>
      <trkpt lat="45.85542" lon="4.68546">
        <ele>201</ele>
        <time>2018-02-02T10:10:27Z</time>
      </trkpt>
      <trkpt lat="45.85541" lon="4.68539">
        <ele>201</ele>
        <time>2018-02-02T10:10:28Z</time>
      </trkpt>
      <trkpt lat="45.8554" lon="4.68531">
        <ele>201</ele>
        <time>2018-02-02T10:10:29Z</time>
      </trkpt>
      <trkpt lat="45.85539" lon="4.68524">
        <ele>201</ele>
        <time>2018-02-02T10:10:30Z</time>
      </trkpt>
      <trkpt lat="45.85538" lon="4.68515">
        <ele>201</ele>
        <time>2018-02-02T10:10:31Z</time>
      </trkpt>
      <trkpt lat="45.85538" lon="4.68509">
        <ele>201</ele>
        <time>2018-02-02T10:10:32Z</time>
      </trkpt>
      <trkpt lat="45.85537" lon="4.68502">
        <ele>201</ele>
        <time>2018-02-02T10:10:33Z</time>
      </trkpt>
      <trkpt lat="45.85537" lon="4.68494">
        <ele>200</ele>
        <time>2018-02-02T10:10:34Z</time>
      </trkpt>
      <trkpt lat="45.85536" lon="4.68487">
        <ele>200</ele>
        <time>2018-02-02T10:10:35Z</time>
      </trkpt>
      <trkpt lat="45.85535" lon="4.68479">
        <ele>200</ele>
        <time>2018-02-02T10:10:36Z</time>
      </trkpt>
      <trkpt lat="45.85534" lon="4.68472">
        <ele>200</ele>
        <time>2018-02-02T10:10:37Z</time>
      </trkpt>
      <trkpt lat="45.85534" lon="4.68465">
        <ele>200</ele>
        <time>2018-02-02T10:10:38Z</time>
      </trkpt>
      <trkpt lat="45.85533" lon="4.68457">
        <ele>200</ele>
        <time>2018-02-02T10:10:39Z</time>
      </trkpt>
      <trkpt lat="45.85533" lon="4.6845">
        <ele>200</ele>
        <time>2018-02-02T10:10:40Z</time>
      </trkpt>
      <trkpt lat="45.85532" lon="4.68443">
        <ele>200</ele>
        <time>2018-02-02T10:10:41Z</time>
      </trkpt>
      <trkpt lat="45.85531" lon="4.68435">
        <ele>200</ele>
        <time>2018-02-02T10:10:42Z</time>
      </trkpt>
      <trkpt lat="45.85531" lon="4.68428">
        <ele>200</ele>
        <time>2018-02-02T10:10:43Z</time>
      </trkpt>
      <trkpt lat="45.85531" lon="4.68422">
        <ele>200</ele>
        <time>2018-02-02T10:10:44Z</time>
      </trkpt>
      <trkpt lat="45.85529" lon="4.68415">
        <ele>200</ele>
        <time>2018-02-02T10:10:45Z</time>
      </trkpt>
      <trkpt lat="45.85528" lon="4.68408">
        <ele>200</ele>
        <time>2018-02-02T10:10:46Z</time>
      </trkpt>
      <trkpt lat="45.85528" lon="4.68402">
        <ele>200</ele>
        <time>2018-02-02T10:10:47Z</time>
      </trkpt>
      <trkpt lat="45.85527" lon="4.68394">
        <ele>200</ele>
        <time>2018-02-02T10:10:48Z</time>
      </trkpt>
      <trkpt lat="45.85526" lon="4.68387">
        <ele>200</ele>
        <time>2018-02-02T10:10:49Z</time>
      </trkpt>
      <trkpt lat="45.85525" lon="4.6838">
        <ele>201</ele>
        <time>2018-02-02T10:10:50Z</time>
      </trkpt>
      <trkpt lat="45.85525" lon="4.68368">
        <ele>201</ele>
        <time>2018-02-02T10:10:52Z</time>
      </trkpt>
      <trkpt lat="45.85523" lon="4.68361">
        <ele>201</ele>
        <time>2018-02-02T10:10:53Z</time>
      </trkpt>
      <trkpt lat="45.85523" lon="4.68349">
        <ele>201</ele>
        <time>2018-02-02T10:10:55Z</time>
      </trkpt>
      <trkpt lat="45.85524" lon="4.68343">
        <ele>201</ele>
        <time>2018-02-02T10:10:56Z</time>
      </trkpt>
      <trkpt lat="45.85523" lon="4.68335">
        <ele>201</ele>
        <time>2018-02-02T10:10:57Z</time>
      </trkpt>
      <trkpt lat="45.85522" lon="4.68327">
        <ele>202</ele>
        <time>2018-02-02T10:10:58Z</time>
      </trkpt>
      <trkpt lat="45.85521" lon="4.6832">
        <ele>202</ele>
        <time>2018-02-02T10:10:59Z</time>
      </trkpt>
      <trkpt lat="45.85521" lon="4.68313">
        <ele>202</ele>
        <time>2018-02-02T10:11:00Z</time>
      </trkpt>
      <trkpt lat="45.85521" lon="4.68307">
        <ele>202</ele>
        <time>2018-02-02T10:11:01Z</time>
      </trkpt>
      <trkpt lat="45.85519" lon="4.683">
        <ele>202</ele>
        <time>2018-02-02T10:11:02Z</time>
      </trkpt>
      <trkpt lat="45.85517" lon="4.68292">
        <ele>202</ele>
        <time>2018-02-02T10:11:03Z</time>
      </trkpt>
      <trkpt lat="45.85518" lon="4.68285">
        <ele>202</ele>
        <time>2018-02-02T10:11:04Z</time>
      </trkpt>
      <trkpt lat="45.85517" lon="4.68278">
        <ele>202</ele>
        <time>2018-02-02T10:11:05Z</time>
      </trkpt>
      <trkpt lat="45.85517" lon="4.68271">
        <ele>202</ele>
        <time>2018-02-02T10:11:06Z</time>
      </trkpt>
      <trkpt lat="45.85515" lon="4.68264">
        <ele>202</ele>
        <time>2018-02-02T10:11:07Z</time>
      </trkpt>
      <trkpt lat="45.85514" lon="4.68256">
        <ele>203</ele>
        <time>2018-02-02T10:11:08Z</time>
      </trkpt>
      <trkpt lat="45.85513" lon="4.68248">
        <ele>203</ele>
        <time>2018-02-02T10:11:09Z</time>
      </trkpt>
      <trkpt lat="45.85512" lon="4.68241">
        <ele>203</ele>
        <time>2018-02-02T10:11:10Z</time>
      </trkpt>
      <trkpt lat="45.85513" lon="4.68232">
        <ele>203</ele>
        <time>2018-02-02T10:11:11Z</time>
      </trkpt>
      <trkpt lat="45.85514" lon="4.68227">
        <ele>203</ele>
        <time>2018-02-02T10:11:12Z</time>
      </trkpt>
      <trkpt lat="45.85513" lon="4.68219">
        <ele>203</ele>
        <time>2018-02-02T10:11:13Z</time>
      </trkpt>
      <trkpt lat="45.85513" lon="4.68214">
        <ele>203</ele>
        <time>2018-02-02T10:11:14Z</time>
      </trkpt>
      <trkpt lat="45.85511" lon="4.68201">
        <ele>203</ele>
        <time>2018-02-02T10:11:16Z</time>
      </trkpt>
      <trkpt lat="45.8551" lon="4.68195">
        <ele>203</ele>
        <time>2018-02-02T10:11:17Z</time>
      </trkpt>
      <trkpt lat="45.85508" lon="4.68183">
        <ele>203</ele>
        <time>2018-02-02T10:11:19Z</time>
      </trkpt>
      <trkpt lat="45.85507" lon="4.68177">
        <ele>204</ele>
        <time>2018-02-02T10:11:20Z</time>
      </trkpt>
      <trkpt lat="45.85507" lon="4.6817">
        <ele>204</ele>
        <time>2018-02-02T10:11:21Z</time>
      </trkpt>
      <trkpt lat="45.85506" lon="4.68163">
        <ele>204</ele>
        <time>2018-02-02T10:11:22Z</time>
      </trkpt>
      <trkpt lat="45.85506" lon="4.68157">
        <ele>204</ele>
        <time>2018-02-02T10:11:23Z</time>
      </trkpt>
      <trkpt lat="45.85505" lon="4.6815">
        <ele>203</ele>
        <time>2018-02-02T10:11:24Z</time>
      </trkpt>
      <trkpt lat="45.85505" lon="4.68138">
        <ele>203</ele>
        <time>2018-02-02T10:11:26Z</time>
      </trkpt>
      <trkpt lat="45.85506" lon="4.68132">
        <ele>203</ele>
        <time>2018-02-02T10:11:27Z</time>
      </trkpt>
      <trkpt lat="45.85505" lon="4.68121">
        <ele>203</ele>
        <time>2018-02-02T10:11:29Z</time>
      </trkpt>
      <trkpt lat="45.85504" lon="4.68115">
        <ele>203</ele>
        <time>2018-02-02T10:11:30Z</time>
      </trkpt>
      <trkpt lat="45.85502" lon="4.68104">
        <ele>203</ele>
        <time>2018-02-02T10:11:32Z</time>
      </trkpt>
      <trkpt lat="45.85502" lon="4.68099">
        <ele>203</ele>
        <time>2018-02-02T10:11:33Z</time>
      </trkpt>
      <trkpt lat="45.855" lon="4.68087">
        <ele>204</ele>
        <time>2018-02-02T10:11:35Z</time>
      </trkpt>
      <trkpt lat="45.85499" lon="4.68082">
        <ele>204</ele>
        <time>2018-02-02T10:11:36Z</time>
      </trkpt>
      <trkpt lat="45.85497" lon="4.68071">
        <ele>205</ele>
        <time>2018-02-02T10:11:38Z</time>
      </trkpt>
      <trkpt lat="45.85496" lon="4.68065">
        <ele>206</ele>
        <time>2018-02-02T10:11:39Z</time>
      </trkpt>
      <trkpt lat="45.85495" lon="4.68053">
        <ele>206</ele>
        <time>2018-02-02T10:11:41Z</time>
      </trkpt>
      <trkpt lat="45.85494" lon="4.68048">
        <ele>206</ele>
        <time>2018-02-02T10:11:42Z</time>
      </trkpt>
      <trkpt lat="45.85492" lon="4.68037">
        <ele>207</ele>
        <time>2018-02-02T10:11:44Z</time>
      </trkpt>
      <trkpt lat="45.85491" lon="4.68032">
        <ele>207</ele>
        <time>2018-02-02T10:11:45Z</time>
      </trkpt>
      <trkpt lat="45.85491" lon="4.68021">
        <ele>207</ele>
        <time>2018-02-02T10:11:47Z</time>
      </trkpt>
      <trkpt lat="45.85492" lon="4.68016">
        <ele>207</ele>
        <time>2018-02-02T10:11:48Z</time>
      </trkpt>
      <trkpt lat="45.85495" lon="4.68005">
        <ele>206</ele>
        <time>2018-02-02T10:11:50Z</time>
      </trkpt>
      <trkpt lat="45.85501" lon="4.68001">
        <ele>206</ele>
        <time>2018-02-02T10:11:51Z</time>
      </trkpt>
      <trkpt lat="45.85506" lon="4.67994">
        <ele>206</ele>
        <time>2018-02-02T10:11:52Z</time>
      </trkpt>
      <trkpt lat="45.8551" lon="4.67989">
        <ele>206</ele>
        <time>2018-02-02T10:11:53Z</time>
      </trkpt>
      <trkpt lat="45.85515" lon="4.67984">
        <ele>206</ele>
        <time>2018-02-02T10:11:54Z</time>
      </trkpt>
      <trkpt lat="45.85519" lon="4.6798">
        <ele>206</ele>
        <time>2018-02-02T10:11:55Z</time>
      </trkpt>
      <trkpt lat="45.85523" lon="4.67977">
        <ele>205</ele>
        <time>2018-02-02T10:11:56Z</time>
      </trkpt>
      <trkpt lat="45.85527" lon="4.67974">
        <ele>205</ele>
        <time>2018-02-02T10:11:57Z</time>
      </trkpt>
      <trkpt lat="45.85531" lon="4.67971">
        <ele>205</ele>
        <time>2018-02-02T10:11:58Z</time>
      </trkpt>
      <trkpt lat="45.85536" lon="4.67963">
        <ele>205</ele>
        <time>2018-02-02T10:11:59Z</time>
      </trkpt>
      <trkpt lat="45.8554" lon="4.67959">
        <ele>205</ele>
        <time>2018-02-02T10:12:00Z</time>
      </trkpt>
      <trkpt lat="45.85544" lon="4.67956">
        <ele>205</ele>
        <time>2018-02-02T10:12:01Z</time>
      </trkpt>
      <trkpt lat="45.85548" lon="4.6795">
        <ele>205</ele>
        <time>2018-02-02T10:12:02Z</time>
      </trkpt>
      <trkpt lat="45.85552" lon="4.67946">
        <ele>205</ele>
        <time>2018-02-02T10:12:03Z</time>
      </trkpt>
      <trkpt lat="45.85558" lon="4.67939">
        <ele>205</ele>
        <time>2018-02-02T10:12:05Z</time>
      </trkpt>
      <trkpt lat="45.85561" lon="4.67935">
        <ele>205</ele>
        <time>2018-02-02T10:12:06Z</time>
      </trkpt>
      <trkpt lat="45.85568" lon="4.6793">
        <ele>205</ele>
        <time>2018-02-02T10:12:08Z</time>
      </trkpt>
      <trkpt lat="45.85572" lon="4.67926">
        <ele>205</ele>
        <time>2018-02-02T10:12:09Z</time>
      </trkpt>
      <trkpt lat="45.85575" lon="4.6792">
        <ele>204</ele>
        <time>2018-02-02T10:12:10Z</time>
      </trkpt>
      <trkpt lat="45.85576" lon="4.67913">
        <ele>205</ele>
        <time>2018-02-02T10:12:11Z</time>
      </trkpt>
      <trkpt lat="45.85574" lon="4.67907">
        <ele>205</ele>
        <time>2018-02-02T10:12:12Z</time>
      </trkpt>
      <trkpt lat="45.85575" lon="4.67899">
        <ele>206</ele>
        <time>2018-02-02T10:12:13Z</time>
      </trkpt>
      <trkpt lat="45.85575" lon="4.67892">
        <ele>206</ele>
        <time>2018-02-02T10:12:14Z</time>
      </trkpt>
      <trkpt lat="45.85576" lon="4.67885">
        <ele>206</ele>
        <time>2018-02-02T10:12:15Z</time>
      </trkpt>
      <trkpt lat="45.85574" lon="4.67878">
        <ele>206</ele>
        <time>2018-02-02T10:12:16Z</time>
      </trkpt>
      <trkpt lat="45.85574" lon="4.67868">
        <ele>207</ele>
        <time>2018-02-02T10:12:17Z</time>
      </trkpt>
      <trkpt lat="45.85573" lon="4.67861">
        <ele>207</ele>
        <time>2018-02-02T10:12:18Z</time>
      </trkpt>
      <trkpt lat="45.85573" lon="4.67853">
        <ele>206</ele>
        <time>2018-02-02T10:12:19Z</time>
      </trkpt>
      <trkpt lat="45.85574" lon="4.67841">
        <ele>206</ele>
        <time>2018-02-02T10:12:21Z</time>
      </trkpt>
      <trkpt lat="45.85576" lon="4.67832">
        <ele>206</ele>
        <time>2018-02-02T10:12:22Z</time>
      </trkpt>
      <trkpt lat="45.85581" lon="4.67821">
        <ele>206</ele>
        <time>2018-02-02T10:12:23Z</time>
      </trkpt>
      <trkpt lat="45.85583" lon="4.67812">
        <ele>206</ele>
        <time>2018-02-02T10:12:24Z</time>
      </trkpt>
      <trkpt lat="45.85584" lon="4.67804">
        <ele>209</ele>
        <time>2018-02-02T10:12:25Z</time>
      </trkpt>
      <trkpt lat="45.85586" lon="4.67796">
        <ele>210</ele>
        <time>2018-02-02T10:12:26Z</time>
      </trkpt>
      <trkpt lat="45.85587" lon="4.67787">
        <ele>209</ele>
        <time>2018-02-02T10:12:27Z</time>
      </trkpt>
      <trkpt lat="45.85589" lon="4.6778">
        <ele>209</ele>
        <time>2018-02-02T10:12:28Z</time>
      </trkpt>
      <trkpt lat="45.85591" lon="4.67775">
        <ele>209</ele>
        <time>2018-02-02T10:12:29Z</time>
      </trkpt>
      <trkpt lat="45.85593" lon="4.67768">
        <ele>208</ele>
        <time>2018-02-02T10:12:30Z</time>
      </trkpt>
      <trkpt lat="45.85596" lon="4.67761">
        <ele>208</ele>
        <time>2018-02-02T10:12:31Z</time>
      </trkpt>
      <trkpt lat="45.856" lon="4.67755">
        <ele>208</ele>
        <time>2018-02-02T10:12:32Z</time>
      </trkpt>
      <trkpt lat="45.85603" lon="4.67748">
        <ele>207</ele>
        <time>2018-02-02T10:12:33Z</time>
      </trkpt>
      <trkpt lat="45.85606" lon="4.67741">
        <ele>207</ele>
        <time>2018-02-02T10:12:34Z</time>
      </trkpt>
      <trkpt lat="45.8561" lon="4.67734">
        <ele>208</ele>
        <time>2018-02-02T10:12:35Z</time>
      </trkpt>
      <trkpt lat="45.85614" lon="4.67728">
        <ele>209</ele>
        <time>2018-02-02T10:12:36Z</time>
      </trkpt>
      <trkpt lat="45.85619" lon="4.67718">
        <ele>209</ele>
        <time>2018-02-02T10:12:37Z</time>
      </trkpt>
      <trkpt lat="45.85622" lon="4.67712">
        <ele>209</ele>
        <time>2018-02-02T10:12:38Z</time>
      </trkpt>
      <trkpt lat="45.85626" lon="4.67707">
        <ele>209</ele>
        <time>2018-02-02T10:12:39Z</time>
      </trkpt>
      <trkpt lat="45.85632" lon="4.677">
        <ele>209</ele>
        <time>2018-02-02T10:12:40Z</time>
      </trkpt>
      <trkpt lat="45.85637" lon="4.67694">
        <ele>209</ele>
        <time>2018-02-02T10:12:41Z</time>
      </trkpt>
      <trkpt lat="45.85643" lon="4.67688">
        <ele>209</ele>
        <time>2018-02-02T10:12:42Z</time>
      </trkpt>
      <trkpt lat="45.8565" lon="4.67684">
        <ele>209</ele>
        <time>2018-02-02T10:12:43Z</time>
      </trkpt>
      <trkpt lat="45.85656" lon="4.67678">
        <ele>209</ele>
        <time>2018-02-02T10:12:44Z</time>
      </trkpt>
      <trkpt lat="45.85661" lon="4.67674">
        <ele>209</ele>
        <time>2018-02-02T10:12:45Z</time>
      </trkpt>
      <trkpt lat="45.85667" lon="4.67668">
        <ele>209</ele>
        <time>2018-02-02T10:12:46Z</time>
      </trkpt>
      <trkpt lat="45.85672" lon="4.67664">
        <ele>209</ele>
        <time>2018-02-02T10:12:47Z</time>
      </trkpt>
      <trkpt lat="45.85677" lon="4.67663">
        <ele>210</ele>
        <time>2018-02-02T10:12:48Z</time>
      </trkpt>
      <trkpt lat="45.85682" lon="4.6766">
        <ele>210</ele>
        <time>2018-02-02T10:12:49Z</time>
      </trkpt>
      <trkpt lat="45.85687" lon="4.67658">
        <ele>210</ele>
        <time>2018-02-02T10:12:50Z</time>
      </trkpt>
      <trkpt lat="45.85692" lon="4.67654">
        <ele>211</ele>
        <time>2018-02-02T10:12:51Z</time>
      </trkpt>
      <trkpt lat="45.85697" lon="4.67651">
        <ele>211</ele>
        <time>2018-02-02T10:12:52Z</time>
      </trkpt>
      <trkpt lat="45.85701" lon="4.67648">
        <ele>211</ele>
        <time>2018-02-02T10:12:53Z</time>
      </trkpt>
      <trkpt lat="45.85709" lon="4.67643">
        <ele>211</ele>
        <time>2018-02-02T10:12:55Z</time>
      </trkpt>
      <trkpt lat="45.85715" lon="4.67638">
        <ele>212</ele>
        <time>2018-02-02T10:12:56Z</time>
      </trkpt>
      <trkpt lat="45.8572" lon="4.67634">
        <ele>212</ele>
        <time>2018-02-02T10:12:57Z</time>
      </trkpt>
      <trkpt lat="45.85726" lon="4.67629">
        <ele>212</ele>
        <time>2018-02-02T10:12:58Z</time>
      </trkpt>
      <trkpt lat="45.85731" lon="4.67627">
        <ele>212</ele>
        <time>2018-02-02T10:12:59Z</time>
      </trkpt>
      <trkpt lat="45.85736" lon="4.67625">
        <ele>211</ele>
        <time>2018-02-02T10:13:00Z</time>
      </trkpt>
      <trkpt lat="45.85742" lon="4.67621">
        <ele>211</ele>
        <time>2018-02-02T10:13:01Z</time>
      </trkpt>
      <trkpt lat="45.85747" lon="4.67618">
        <ele>211</ele>
        <time>2018-02-02T10:13:02Z</time>
      </trkpt>
      <trkpt lat="45.85752" lon="4.67613">
        <ele>217</ele>
        <time>2018-02-02T10:13:03Z</time>
      </trkpt>
      <trkpt lat="45.85756" lon="4.6761">
        <ele>217</ele>
        <time>2018-02-02T10:13:04Z</time>
      </trkpt>
      <trkpt lat="45.85762" lon="4.67607">
        <ele>217</ele>
        <time>2018-02-02T10:13:05Z</time>
      </trkpt>
      <trkpt lat="45.85766" lon="4.67601">
        <ele>216</ele>
        <time>2018-02-02T10:13:06Z</time>
      </trkpt>
      <trkpt lat="45.8577" lon="4.67596">
        <ele>216</ele>
        <time>2018-02-02T10:13:07Z</time>
      </trkpt>
      <trkpt lat="45.85775" lon="4.67591">
        <ele>217</ele>
        <time>2018-02-02T10:13:08Z</time>
      </trkpt>
      <trkpt lat="45.8578" lon="4.67588">
        <ele>218</ele>
        <time>2018-02-02T10:13:09Z</time>
      </trkpt>
      <trkpt lat="45.85785" lon="4.67583">
        <ele>210</ele>
        <time>2018-02-02T10:13:10Z</time>
      </trkpt>
      <trkpt lat="45.8579" lon="4.67579">
        <ele>211</ele>
        <time>2018-02-02T10:13:11Z</time>
      </trkpt>
      <trkpt lat="45.85794" lon="4.67574">
        <ele>211</ele>
        <time>2018-02-02T10:13:12Z</time>
      </trkpt>
      <trkpt lat="45.85798" lon="4.67571">
        <ele>211</ele>
        <time>2018-02-02T10:13:13Z</time>
      </trkpt>
      <trkpt lat="45.85801" lon="4.67565">
        <ele>212</ele>
        <time>2018-02-02T10:13:14Z</time>
      </trkpt>
      <trkpt lat="45.85805" lon="4.6756">
        <ele>212</ele>
        <time>2018-02-02T10:13:15Z</time>
      </trkpt>
      <trkpt lat="45.85809" lon="4.67554">
        <ele>211</ele>
        <time>2018-02-02T10:13:16Z</time>
      </trkpt>
      <trkpt lat="45.85812" lon="4.67549">
        <ele>211</ele>
        <time>2018-02-02T10:13:17Z</time>
      </trkpt>
      <trkpt lat="45.85816" lon="4.67545">
        <ele>211</ele>
        <time>2018-02-02T10:13:18Z</time>
      </trkpt>
      <trkpt lat="45.85821" lon="4.67537">
        <ele>210</ele>
        <time>2018-02-02T10:13:21Z</time>
      </trkpt>
      <trkpt lat="45.85824" lon="4.67533">
        <ele>210</ele>
        <time>2018-02-02T10:13:22Z</time>
      </trkpt>
      <trkpt lat="45.85828" lon="4.67523">
        <ele>209</ele>
        <time>2018-02-02T10:13:24Z</time>
      </trkpt>
      <trkpt lat="45.85831" lon="4.67517">
        <ele>208</ele>
        <time>2018-02-02T10:13:25Z</time>
      </trkpt>
      <trkpt lat="45.85834" lon="4.67511">
        <ele>213</ele>
        <time>2018-02-02T10:13:26Z</time>
      </trkpt>
      <trkpt lat="45.85838" lon="4.67501">
        <ele>210</ele>
        <time>2018-02-02T10:13:27Z</time>
      </trkpt>
      <trkpt lat="45.85843" lon="4.67491">
        <ele>210</ele>
        <time>2018-02-02T10:13:29Z</time>
      </trkpt>
      <trkpt lat="45.85845" lon="4.67484">
        <ele>211</ele>
        <time>2018-02-02T10:13:30Z</time>
      </trkpt>
      <trkpt lat="45.85847" lon="4.67478">
        <ele>212</ele>
        <time>2018-02-02T10:13:31Z</time>
      </trkpt>
      <trkpt lat="45.85853" lon="4.67465">
        <ele>213</ele>
        <time>2018-02-02T10:13:32Z</time>
      </trkpt>
      <trkpt lat="45.85856" lon="4.67456">
        <ele>213</ele>
        <time>2018-02-02T10:13:33Z</time>
      </trkpt>
      <trkpt lat="45.85858" lon="4.67449">
        <ele>213</ele>
        <time>2018-02-02T10:13:34Z</time>
      </trkpt>
      <trkpt lat="45.8586" lon="4.67441">
        <ele>212</ele>
        <time>2018-02-02T10:13:35Z</time>
      </trkpt>
      <trkpt lat="45.85861" lon="4.67436">
        <ele>212</ele>
        <time>2018-02-02T10:13:36Z</time>
      </trkpt>
      <trkpt lat="45.85862" lon="4.6743">
        <ele>212</ele>
        <time>2018-02-02T10:13:37Z</time>
      </trkpt>
      <trkpt lat="45.85864" lon="4.67421">
        <ele>212</ele>
        <time>2018-02-02T10:13:38Z</time>
      </trkpt>
      <trkpt lat="45.85865" lon="4.67414">
        <ele>209</ele>
        <time>2018-02-02T10:13:39Z</time>
      </trkpt>
      <trkpt lat="45.85866" lon="4.67408">
        <ele>209</ele>
        <time>2018-02-02T10:13:40Z</time>
      </trkpt>
      <trkpt lat="45.85867" lon="4.674">
        <ele>209</ele>
        <time>2018-02-02T10:13:41Z</time>
      </trkpt>
      <trkpt lat="45.85868" lon="4.67392">
        <ele>209</ele>
        <time>2018-02-02T10:13:42Z</time>
      </trkpt>
      <trkpt lat="45.8587" lon="4.67384">
        <ele>209</ele>
        <time>2018-02-02T10:13:43Z</time>
      </trkpt>
      <trkpt lat="45.85871" lon="4.67378">
        <ele>209</ele>
        <time>2018-02-02T10:13:44Z</time>
      </trkpt>
      <trkpt lat="45.85871" lon="4.67371">
        <ele>209</ele>
        <time>2018-02-02T10:13:45Z</time>
      </trkpt>
      <trkpt lat="45.85871" lon="4.67364">
        <ele>209</ele>
        <time>2018-02-02T10:13:46Z</time>
      </trkpt>
      <trkpt lat="45.85872" lon="4.67357">
        <ele>208</ele>
        <time>2018-02-02T10:13:47Z</time>
      </trkpt>
      <trkpt lat="45.85873" lon="4.6735">
        <ele>208</ele>
        <time>2018-02-02T10:13:48Z</time>
      </trkpt>
      <trkpt lat="45.85876" lon="4.67343">
        <ele>208</ele>
        <time>2018-02-02T10:13:49Z</time>
      </trkpt>
      <trkpt lat="45.85876" lon="4.67336">
        <ele>208</ele>
        <time>2018-02-02T10:13:50Z</time>
      </trkpt>
      <trkpt lat="45.85877" lon="4.67329">
        <ele>206</ele>
        <time>2018-02-02T10:13:51Z</time>
      </trkpt>
      <trkpt lat="45.85878" lon="4.67321">
        <ele>206</ele>
        <time>2018-02-02T10:13:52Z</time>
      </trkpt>
      <trkpt lat="45.85878" lon="4.67313">
        <ele>206</ele>
        <time>2018-02-02T10:13:53Z</time>
      </trkpt>
      <trkpt lat="45.85878" lon="4.67305">
        <ele>206</ele>
        <time>2018-02-02T10:13:54Z</time>
      </trkpt>
      <trkpt lat="45.85878" lon="4.67298">
        <ele>205</ele>
        <time>2018-02-02T10:13:55Z</time>
      </trkpt>
      <trkpt lat="45.8588" lon="4.6729">
        <ele>205</ele>
        <time>2018-02-02T10:13:56Z</time>
      </trkpt>
      <trkpt lat="45.85881" lon="4.67283">
        <ele>205</ele>
        <time>2018-02-02T10:13:57Z</time>
      </trkpt>
      <trkpt lat="45.85881" lon="4.67275">
        <ele>205</ele>
        <time>2018-02-02T10:13:58Z</time>
      </trkpt>
      <trkpt lat="45.85882" lon="4.67269">
        <ele>205</ele>
        <time>2018-02-02T10:13:59Z</time>
      </trkpt>
      <trkpt lat="45.85883" lon="4.67263">
        <ele>205</ele>
        <time>2018-02-02T10:14:00Z</time>
      </trkpt>
      <trkpt lat="45.85883" lon="4.67256">
        <ele>205</ele>
        <time>2018-02-02T10:14:01Z</time>
      </trkpt>
      <trkpt lat="45.85883" lon="4.67249">
        <ele>204</ele>
        <time>2018-02-02T10:14:02Z</time>
      </trkpt>
      <trkpt lat="45.85883" lon="4.67243">
        <ele>204</ele>
        <time>2018-02-02T10:14:03Z</time>
      </trkpt>
      <trkpt lat="45.85884" lon="4.67235">
        <ele>204</ele>
        <time>2018-02-02T10:14:04Z</time>
      </trkpt>
      <trkpt lat="45.85884" lon="4.67223">
        <ele>204</ele>
        <time>2018-02-02T10:14:06Z</time>
      </trkpt>
      <trkpt lat="45.85884" lon="4.67216">
        <ele>204</ele>
        <time>2018-02-02T10:14:07Z</time>
      </trkpt>
      <trkpt lat="45.85885" lon="4.67208">
        <ele>204</ele>
        <time>2018-02-02T10:14:08Z</time>
      </trkpt>
      <trkpt lat="45.85886" lon="4.67201">
        <ele>204</ele>
        <time>2018-02-02T10:14:09Z</time>
      </trkpt>
      <trkpt lat="45.85888" lon="4.67193">
        <ele>204</ele>
        <time>2018-02-02T10:14:10Z</time>
      </trkpt>
      <trkpt lat="45.85888" lon="4.67186">
        <ele>204</ele>
        <time>2018-02-02T10:14:11Z</time>
      </trkpt>
      <trkpt lat="45.85889" lon="4.67178">
        <ele>204</ele>
        <time>2018-02-02T10:14:12Z</time>
      </trkpt>
      <trkpt lat="45.85889" lon="4.67171">
        <ele>205</ele>
        <time>2018-02-02T10:14:13Z</time>
      </trkpt>
      <trkpt lat="45.8589" lon="4.67163">
        <ele>204</ele>
        <time>2018-02-02T10:14:14Z</time>
      </trkpt>
      <trkpt lat="45.85892" lon="4.67154">
        <ele>204</ele>
        <time>2018-02-02T10:14:15Z</time>
      </trkpt>
      <trkpt lat="45.85894" lon="4.67146">
        <ele>204</ele>
        <time>2018-02-02T10:14:16Z</time>
      </trkpt>
      <trkpt lat="45.85895" lon="4.67138">
        <ele>204</ele>
        <time>2018-02-02T10:14:17Z</time>
      </trkpt>
      <trkpt lat="45.85896" lon="4.67131">
        <ele>204</ele>
        <time>2018-02-02T10:14:18Z</time>
      </trkpt>
      <trkpt lat="45.85898" lon="4.67123">
        <ele>204</ele>
        <time>2018-02-02T10:14:19Z</time>
      </trkpt>
      <trkpt lat="45.85899" lon="4.67116">
        <ele>204</ele>
        <time>2018-02-02T10:14:20Z</time>
      </trkpt>
      <trkpt lat="45.85899" lon="4.67109">
        <ele>204</ele>
        <time>2018-02-02T10:14:21Z</time>
      </trkpt>
      <trkpt lat="45.859" lon="4.67102">
        <ele>204</ele>
        <time>2018-02-02T10:14:22Z</time>
      </trkpt>
      <trkpt lat="45.85901" lon="4.67095">
        <ele>204</ele>
        <time>2018-02-02T10:14:23Z</time>
      </trkpt>
      <trkpt lat="45.85902" lon="4.67088">
        <ele>204</ele>
        <time>2018-02-02T10:14:24Z</time>
      </trkpt>
      <trkpt lat="45.85903" lon="4.67081">
        <ele>204</ele>
        <time>2018-02-02T10:14:25Z</time>
      </trkpt>
      <trkpt lat="45.85904" lon="4.67074">
        <ele>204</ele>
        <time>2018-02-02T10:14:26Z</time>
      </trkpt>
      <trkpt lat="45.85904" lon="4.67068">
        <ele>205</ele>
        <time>2018-02-02T10:14:27Z</time>
      </trkpt>
      <trkpt lat="45.85904" lon="4.67061">
        <ele>205</ele>
        <time>2018-02-02T10:14:28Z</time>
      </trkpt>
      <trkpt lat="45.85907" lon="4.67053">
        <ele>205</ele>
        <time>2018-02-02T10:14:29Z</time>
      </trkpt>
      <trkpt lat="45.85908" lon="4.67046">
        <ele>205</ele>
        <time>2018-02-02T10:14:30Z</time>
      </trkpt>
      <trkpt lat="45.8591" lon="4.67039">
        <ele>205</ele>
        <time>2018-02-02T10:14:31Z</time>
      </trkpt>
      <trkpt lat="45.85912" lon="4.67026">
        <ele>205</ele>
        <time>2018-02-02T10:14:33Z</time>
      </trkpt>
      <trkpt lat="45.85913" lon="4.6702">
        <ele>205</ele>
        <time>2018-02-02T10:14:34Z</time>
      </trkpt>
      <trkpt lat="45.85915" lon="4.6701">
        <ele>206</ele>
        <time>2018-02-02T10:14:36Z</time>
      </trkpt>
      <trkpt lat="45.85916" lon="4.67005">
        <ele>206</ele>
        <time>2018-02-02T10:14:37Z</time>
      </trkpt>
      <trkpt lat="45.85919" lon="4.66995">
        <ele>207</ele>
        <time>2018-02-02T10:14:39Z</time>
      </trkpt>
      <trkpt lat="45.85921" lon="4.66991">
        <ele>207</ele>
        <time>2018-02-02T10:14:40Z</time>
      </trkpt>
      <trkpt lat="45.85926" lon="4.66982">
        <ele>208</ele>
        <time>2018-02-02T10:14:42Z</time>
      </trkpt>
      <trkpt lat="45.85928" lon="4.66976">
        <ele>208</ele>
        <time>2018-02-02T10:14:43Z</time>
      </trkpt>
      <trkpt lat="45.85929" lon="4.66969">
        <ele>209</ele>
        <time>2018-02-02T10:14:44Z</time>
      </trkpt>
      <trkpt lat="45.85928" lon="4.66963">
        <ele>209</ele>
        <time>2018-02-02T10:14:45Z</time>
      </trkpt>
      <trkpt lat="45.85927" lon="4.66956">
        <ele>209</ele>
        <time>2018-02-02T10:14:46Z</time>
      </trkpt>
      <trkpt lat="45.85926" lon="4.66949">
        <ele>209</ele>
        <time>2018-02-02T10:14:47Z</time>
      </trkpt>
      <trkpt lat="45.85925" lon="4.66941">
        <ele>209</ele>
        <time>2018-02-02T10:14:48Z</time>
      </trkpt>
      <trkpt lat="45.85925" lon="4.66933">
        <ele>208</ele>
        <time>2018-02-02T10:14:49Z</time>
      </trkpt>
      <trkpt lat="45.85926" lon="4.66925">
        <ele>208</ele>
        <time>2018-02-02T10:14:50Z</time>
      </trkpt>
      <trkpt lat="45.85927" lon="4.66918">
        <ele>208</ele>
        <time>2018-02-02T10:14:51Z</time>
      </trkpt>
      <trkpt lat="45.85929" lon="4.66912">
        <ele>209</ele>
        <time>2018-02-02T10:14:52Z</time>
      </trkpt>
      <trkpt lat="45.8593" lon="4.66905">
        <ele>209</ele>
        <time>2018-02-02T10:14:53Z</time>
      </trkpt>
      <trkpt lat="45.85932" lon="4.66899">
        <ele>209</ele>
        <time>2018-02-02T10:14:54Z</time>
      </trkpt>
      <trkpt lat="45.85935" lon="4.66888">
        <ele>210</ele>
        <time>2018-02-02T10:14:55Z</time>
      </trkpt>
      <trkpt lat="45.85937" lon="4.66881">
        <ele>210</ele>
        <time>2018-02-02T10:14:56Z</time>
      </trkpt>
      <trkpt lat="45.85939" lon="4.66873">
        <ele>210</ele>
        <time>2018-02-02T10:14:57Z</time>
      </trkpt>
      <trkpt lat="45.85941" lon="4.66865">
        <ele>210</ele>
        <time>2018-02-02T10:14:58Z</time>
      </trkpt>
      <trkpt lat="45.85943" lon="4.66857">
        <ele>210</ele>
        <time>2018-02-02T10:14:59Z</time>
      </trkpt>
      <trkpt lat="45.85945" lon="4.66851">
        <ele>210</ele>
        <time>2018-02-02T10:15:00Z</time>
      </trkpt>
      <trkpt lat="45.85947" lon="4.66845">
        <ele>210</ele>
        <time>2018-02-02T10:15:01Z</time>
      </trkpt>
      <trkpt lat="45.85948" lon="4.66838">
        <ele>211</ele>
        <time>2018-02-02T10:15:02Z</time>
      </trkpt>
      <trkpt lat="45.8595" lon="4.66831">
        <ele>212</ele>
        <time>2018-02-02T10:15:03Z</time>
      </trkpt>
      <trkpt lat="45.85953" lon="4.66823">
        <ele>212</ele>
        <time>2018-02-02T10:15:04Z</time>
      </trkpt>
      <trkpt lat="45.85954" lon="4.66818">
        <ele>213</ele>
        <time>2018-02-02T10:15:05Z</time>
      </trkpt>
      <trkpt lat="45.85955" lon="4.66806">
        <ele>213</ele>
        <time>2018-02-02T10:15:07Z</time>
      </trkpt>
      <trkpt lat="45.85955" lon="4.668">
        <ele>213</ele>
        <time>2018-02-02T10:15:08Z</time>
      </trkpt>
      <trkpt lat="45.85957" lon="4.66794">
        <ele>213</ele>
        <time>2018-02-02T10:15:09Z</time>
      </trkpt>
      <trkpt lat="45.8596" lon="4.66786">
        <ele>213</ele>
        <time>2018-02-02T10:15:10Z</time>
      </trkpt>
      <trkpt lat="45.85961" lon="4.6678">
        <ele>214</ele>
        <time>2018-02-02T10:15:11Z</time>
      </trkpt>
      <trkpt lat="45.85964" lon="4.66771">
        <ele>214</ele>
        <time>2018-02-02T10:15:12Z</time>
      </trkpt>
      <trkpt lat="45.85967" lon="4.66759">
        <ele>214</ele>
        <time>2018-02-02T10:15:14Z</time>
      </trkpt>
      <trkpt lat="45.8597" lon="4.66753">
        <ele>214</ele>
        <time>2018-02-02T10:15:15Z</time>
      </trkpt>
      <trkpt lat="45.85973" lon="4.66746">
        <ele>216</ele>
        <time>2018-02-02T10:15:16Z</time>
      </trkpt>
      <trkpt lat="45.85975" lon="4.6674">
        <ele>216</ele>
        <time>2018-02-02T10:15:17Z</time>
      </trkpt>
      <trkpt lat="45.85979" lon="4.66732">
        <ele>216</ele>
        <time>2018-02-02T10:15:19Z</time>
      </trkpt>
      <trkpt lat="45.85983" lon="4.66724">
        <ele>216</ele>
        <time>2018-02-02T10:15:20Z</time>
      </trkpt>
      <trkpt lat="45.85986" lon="4.66716">
        <ele>215</ele>
        <time>2018-02-02T10:15:21Z</time>
      </trkpt>
      <trkpt lat="45.85991" lon="4.66707">
        <ele>215</ele>
        <time>2018-02-02T10:15:22Z</time>
      </trkpt>
      <trkpt lat="45.85995" lon="4.66701">
        <ele>215</ele>
        <time>2018-02-02T10:15:23Z</time>
      </trkpt>
      <trkpt lat="45.85999" lon="4.66696">
        <ele>214</ele>
        <time>2018-02-02T10:15:24Z</time>
      </trkpt>
      <trkpt lat="45.86004" lon="4.6669">
        <ele>218</ele>
        <time>2018-02-02T10:15:25Z</time>
      </trkpt>
      <trkpt lat="45.8601" lon="4.66684">
        <ele>217</ele>
        <time>2018-02-02T10:15:26Z</time>
      </trkpt>
      <trkpt lat="45.86015" lon="4.66677">
        <ele>217</ele>
        <time>2018-02-02T10:15:27Z</time>
      </trkpt>
      <trkpt lat="45.8602" lon="4.6667">
        <ele>217</ele>
        <time>2018-02-02T10:15:28Z</time>
      </trkpt>
      <trkpt lat="45.86025" lon="4.66664">
        <ele>213</ele>
        <time>2018-02-02T10:15:29Z</time>
      </trkpt>
      <trkpt lat="45.8603" lon="4.66658">
        <ele>214</ele>
        <time>2018-02-02T10:15:30Z</time>
      </trkpt>
      <trkpt lat="45.86036" lon="4.66651">
        <ele>214</ele>
        <time>2018-02-02T10:15:31Z</time>
      </trkpt>
      <trkpt lat="45.86041" lon="4.66645">
        <ele>214</ele>
        <time>2018-02-02T10:15:32Z</time>
      </trkpt>
      <trkpt lat="45.86046" lon="4.66639">
        <ele>214</ele>
        <time>2018-02-02T10:15:33Z</time>
      </trkpt>
      <trkpt lat="45.86052" lon="4.66634">
        <ele>214</ele>
        <time>2018-02-02T10:15:34Z</time>
      </trkpt>
      <trkpt lat="45.86058" lon="4.66628">
        <ele>214</ele>
        <time>2018-02-02T10:15:35Z</time>
      </trkpt>
      <trkpt lat="45.86063" lon="4.66624">
        <ele>214</ele>
        <time>2018-02-02T10:15:36Z</time>
      </trkpt>
      <trkpt lat="45.86068" lon="4.66618">
        <ele>214</ele>
        <time>2018-02-02T10:15:37Z</time>
      </trkpt>
      <trkpt lat="45.86074" lon="4.66614">
        <ele>213</ele>
        <time>2018-02-02T10:15:38Z</time>
      </trkpt>
      <trkpt lat="45.86078" lon="4.66611">
        <ele>213</ele>
        <time>2018-02-02T10:15:39Z</time>
      </trkpt>
      <trkpt lat="45.86085" lon="4.66607">
        <ele>218</ele>
        <time>2018-02-02T10:15:40Z</time>
      </trkpt>
      <trkpt lat="45.86091" lon="4.66603">
        <ele>218</ele>
        <time>2018-02-02T10:15:41Z</time>
      </trkpt>
      <trkpt lat="45.86097" lon="4.666">
        <ele>218</ele>
        <time>2018-02-02T10:15:42Z</time>
      </trkpt>
      <trkpt lat="45.86103" lon="4.66597">
        <ele>219</ele>
        <time>2018-02-02T10:15:43Z</time>
      </trkpt>
      <trkpt lat="45.86109" lon="4.66594">
        <ele>219</ele>
        <time>2018-02-02T10:15:44Z</time>
      </trkpt>
      <trkpt lat="45.86116" lon="4.66591">
        <ele>220</ele>
        <time>2018-02-02T10:15:45Z</time>
      </trkpt>
      <trkpt lat="45.86121" lon="4.66586">
        <ele>221</ele>
        <time>2018-02-02T10:15:46Z</time>
      </trkpt>
      <trkpt lat="45.86127" lon="4.66583">
        <ele>214</ele>
        <time>2018-02-02T10:15:47Z</time>
      </trkpt>
      <trkpt lat="45.86133" lon="4.66578">
        <ele>215</ele>
        <time>2018-02-02T10:15:48Z</time>
      </trkpt>
      <trkpt lat="45.86138" lon="4.66572">
        <ele>215</ele>
        <time>2018-02-02T10:15:49Z</time>
      </trkpt>
      <trkpt lat="45.86144" lon="4.66567">
        <ele>215</ele>
        <time>2018-02-02T10:15:50Z</time>
      </trkpt>
      <trkpt lat="45.86149" lon="4.6656">
        <ele>215</ele>
        <time>2018-02-02T10:15:51Z</time>
      </trkpt>
      <trkpt lat="45.86155" lon="4.66553">
        <ele>215</ele>
        <time>2018-02-02T10:15:52Z</time>
      </trkpt>
      <trkpt lat="45.8616" lon="4.66547">
        <ele>214</ele>
        <time>2018-02-02T10:15:53Z</time>
      </trkpt>
      <trkpt lat="45.86165" lon="4.66541">
        <ele>214</ele>
        <time>2018-02-02T10:15:54Z</time>
      </trkpt>
      <trkpt lat="45.86169" lon="4.66534">
        <ele>219</ele>
        <time>2018-02-02T10:15:55Z</time>
      </trkpt>
      <trkpt lat="45.86174" lon="4.66526">
        <ele>218</ele>
        <time>2018-02-02T10:15:56Z</time>
      </trkpt>
      <trkpt lat="45.86179" lon="4.66518">
        <ele>217</ele>
        <time>2018-02-02T10:15:57Z</time>
      </trkpt>
      <trkpt lat="45.86182" lon="4.6651">
        <ele>216</ele>
        <time>2018-02-02T10:15:58Z</time>
      </trkpt>
      <trkpt lat="45.86188" lon="4.66503">
        <ele>216</ele>
        <time>2018-02-02T10:15:59Z</time>
      </trkpt>
      <trkpt lat="45.86192" lon="4.66495">
        <ele>212</ele>
        <time>2018-02-02T10:16:00Z</time>
      </trkpt>
      <trkpt lat="45.86196" lon="4.66487">
        <ele>213</ele>
        <time>2018-02-02T10:16:01Z</time>
      </trkpt>
      <trkpt lat="45.86199" lon="4.66479">
        <ele>213</ele>
        <time>2018-02-02T10:16:02Z</time>
      </trkpt>
      <trkpt lat="45.86203" lon="4.6647">
        <ele>213</ele>
        <time>2018-02-02T10:16:03Z</time>
      </trkpt>
      <trkpt lat="45.86208" lon="4.66462">
        <ele>213</ele>
        <time>2018-02-02T10:16:04Z</time>
      </trkpt>
      <trkpt lat="45.86212" lon="4.66454">
        <ele>213</ele>
        <time>2018-02-02T10:16:05Z</time>
      </trkpt>
      <trkpt lat="45.86216" lon="4.66447">
        <ele>213</ele>
        <time>2018-02-02T10:16:06Z</time>
      </trkpt>
      <trkpt lat="45.86221" lon="4.6644">
        <ele>213</ele>
        <time>2018-02-02T10:16:07Z</time>
      </trkpt>
      <trkpt lat="45.86225" lon="4.66432">
        <ele>213</ele>
        <time>2018-02-02T10:16:08Z</time>
      </trkpt>
      <trkpt lat="45.86229" lon="4.66424">
        <ele>214</ele>
        <time>2018-02-02T10:16:09Z</time>
      </trkpt>
      <trkpt lat="45.86233" lon="4.6642">
        <ele>214</ele>
        <time>2018-02-02T10:16:10Z</time>
      </trkpt>
      <trkpt lat="45.86236" lon="4.66413">
        <ele>213</ele>
        <time>2018-02-02T10:16:11Z</time>
      </trkpt>
      <trkpt lat="45.86241" lon="4.66404">
        <ele>213</ele>
        <time>2018-02-02T10:16:12Z</time>
      </trkpt>
      <trkpt lat="45.86244" lon="4.66396">
        <ele>213</ele>
        <time>2018-02-02T10:16:13Z</time>
      </trkpt>
      <trkpt lat="45.86248" lon="4.6639">
        <ele>212</ele>
        <time>2018-02-02T10:16:14Z</time>
      </trkpt>
      <trkpt lat="45.86252" lon="4.66381">
        <ele>216</ele>
        <time>2018-02-02T10:16:15Z</time>
      </trkpt>
      <trkpt lat="45.86256" lon="4.66375">
        <ele>216</ele>
        <time>2018-02-02T10:16:16Z</time>
      </trkpt>
      <trkpt lat="45.8626" lon="4.66367">
        <ele>216</ele>
        <time>2018-02-02T10:16:17Z</time>
      </trkpt>
      <trkpt lat="45.86264" lon="4.6636">
        <ele>216</ele>
        <time>2018-02-02T10:16:18Z</time>
      </trkpt>
      <trkpt lat="45.86268" lon="4.66355">
        <ele>216</ele>
        <time>2018-02-02T10:16:19Z</time>
      </trkpt>
      <trkpt lat="45.86273" lon="4.66349">
        <ele>216</ele>
        <time>2018-02-02T10:16:20Z</time>
      </trkpt>
      <trkpt lat="45.86276" lon="4.66342">
        <ele>216</ele>
        <time>2018-02-02T10:16:21Z</time>
      </trkpt>
      <trkpt lat="45.86282" lon="4.66335">
        <ele>216</ele>
        <time>2018-02-02T10:16:22Z</time>
      </trkpt>
      <trkpt lat="45.86285" lon="4.66328">
        <ele>214</ele>
        <time>2018-02-02T10:16:23Z</time>
      </trkpt>
      <trkpt lat="45.86288" lon="4.66324">
        <ele>214</ele>
        <time>2018-02-02T10:16:24Z</time>
      </trkpt>
      <trkpt lat="45.86292" lon="4.66318">
        <ele>214</ele>
        <time>2018-02-02T10:16:25Z</time>
      </trkpt>
      <trkpt lat="45.86296" lon="4.66312">
        <ele>215</ele>
        <time>2018-02-02T10:16:26Z</time>
      </trkpt>
      <trkpt lat="45.86301" lon="4.66306">
        <ele>215</ele>
        <time>2018-02-02T10:16:27Z</time>
      </trkpt>
      <trkpt lat="45.86305" lon="4.663">
        <ele>215</ele>
        <time>2018-02-02T10:16:28Z</time>
      </trkpt>
      <trkpt lat="45.86309" lon="4.66294">
        <ele>214</ele>
        <time>2018-02-02T10:16:29Z</time>
      </trkpt>
      <trkpt lat="45.86315" lon="4.66288">
        <ele>214</ele>
        <time>2018-02-02T10:16:30Z</time>
      </trkpt>
      <trkpt lat="45.8632" lon="4.66283">
        <ele>214</ele>
        <time>2018-02-02T10:16:31Z</time>
      </trkpt>
      <trkpt lat="45.86325" lon="4.66278">
        <ele>214</ele>
        <time>2018-02-02T10:16:32Z</time>
      </trkpt>
      <trkpt lat="45.86331" lon="4.66273">
        <ele>214</ele>
        <time>2018-02-02T10:16:33Z</time>
      </trkpt>
      <trkpt lat="45.86337" lon="4.6627">
        <ele>217</ele>
        <time>2018-02-02T10:16:34Z</time>
      </trkpt>
      <trkpt lat="45.86343" lon="4.66265">
        <ele>217</ele>
        <time>2018-02-02T10:16:35Z</time>
      </trkpt>
      <trkpt lat="45.86348" lon="4.66261">
        <ele>217</ele>
        <time>2018-02-02T10:16:36Z</time>
      </trkpt>
      <trkpt lat="45.86353" lon="4.66256">
        <ele>217</ele>
        <time>2018-02-02T10:16:37Z</time>
      </trkpt>
      <trkpt lat="45.86358" lon="4.66253">
        <ele>218</ele>
        <time>2018-02-02T10:16:38Z</time>
      </trkpt>
      <trkpt lat="45.86363" lon="4.66246">
        <ele>213</ele>
        <time>2018-02-02T10:16:39Z</time>
      </trkpt>
      <trkpt lat="45.86369" lon="4.66243">
        <ele>213</ele>
        <time>2018-02-02T10:16:40Z</time>
      </trkpt>
      <trkpt lat="45.86375" lon="4.66242">
        <ele>214</ele>
        <time>2018-02-02T10:16:41Z</time>
      </trkpt>
      <trkpt lat="45.86381" lon="4.6624">
        <ele>214</ele>
        <time>2018-02-02T10:16:42Z</time>
      </trkpt>
      <trkpt lat="45.86387" lon="4.66237">
        <ele>214</ele>
        <time>2018-02-02T10:16:43Z</time>
      </trkpt>
      <trkpt lat="45.86393" lon="4.66235">
        <ele>215</ele>
        <time>2018-02-02T10:16:44Z</time>
      </trkpt>
      <trkpt lat="45.86399" lon="4.66233">
        <ele>215</ele>
        <time>2018-02-02T10:16:45Z</time>
      </trkpt>
      <trkpt lat="45.86404" lon="4.6623">
        <ele>215</ele>
        <time>2018-02-02T10:16:46Z</time>
      </trkpt>
      <trkpt lat="45.86411" lon="4.66226">
        <ele>215</ele>
        <time>2018-02-02T10:16:47Z</time>
      </trkpt>
      <trkpt lat="45.86416" lon="4.66223">
        <ele>215</ele>
        <time>2018-02-02T10:16:48Z</time>
      </trkpt>
      <trkpt lat="45.86423" lon="4.66222">
        <ele>218</ele>
        <time>2018-02-02T10:16:49Z</time>
      </trkpt>
      <trkpt lat="45.86429" lon="4.6622">
        <ele>218</ele>
        <time>2018-02-02T10:16:50Z</time>
      </trkpt>
      <trkpt lat="45.86435" lon="4.66219">
        <ele>218</ele>
        <time>2018-02-02T10:16:51Z</time>
      </trkpt>
      <trkpt lat="45.86441" lon="4.66217">
        <ele>218</ele>
        <time>2018-02-02T10:16:52Z</time>
      </trkpt>
      <trkpt lat="45.86446" lon="4.66214">
        <ele>218</ele>
        <time>2018-02-02T10:16:53Z</time>
      </trkpt>
      <trkpt lat="45.86453" lon="4.66213">
        <ele>218</ele>
        <time>2018-02-02T10:16:54Z</time>
      </trkpt>
      <trkpt lat="45.86458" lon="4.66212">
        <ele>218</ele>
        <time>2018-02-02T10:16:55Z</time>
      </trkpt>
      <trkpt lat="45.86464" lon="4.66211">
        <ele>218</ele>
        <time>2018-02-02T10:16:56Z</time>
      </trkpt>
      <trkpt lat="45.86469" lon="4.66208">
        <ele>218</ele>
        <time>2018-02-02T10:16:57Z</time>
      </trkpt>
      <trkpt lat="45.86475" lon="4.66208">
        <ele>218</ele>
        <time>2018-02-02T10:16:58Z</time>
      </trkpt>
      <trkpt lat="45.8648" lon="4.66207">
        <ele>218</ele>
        <time>2018-02-02T10:16:59Z</time>
      </trkpt>
      <trkpt lat="45.86485" lon="4.66205">
        <ele>218</ele>
        <time>2018-02-02T10:17:00Z</time>
      </trkpt>
      <trkpt lat="45.8649" lon="4.66201">
        <ele>218</ele>
        <time>2018-02-02T10:17:01Z</time>
      </trkpt>
      <trkpt lat="45.86495" lon="4.66202">
        <ele>218</ele>
        <time>2018-02-02T10:17:02Z</time>
      </trkpt>
      <trkpt lat="45.86501" lon="4.66197">
        <ele>223</ele>
        <time>2018-02-02T10:17:03Z</time>
      </trkpt>
      <trkpt lat="45.86506" lon="4.66194">
        <ele>223</ele>
        <time>2018-02-02T10:17:04Z</time>
      </trkpt>
      <trkpt lat="45.86511" lon="4.6619">
        <ele>223</ele>
        <time>2018-02-02T10:17:05Z</time>
      </trkpt>
      <trkpt lat="45.86516" lon="4.66187">
        <ele>223</ele>
        <time>2018-02-02T10:17:06Z</time>
      </trkpt>
      <trkpt lat="45.86521" lon="4.66184">
        <ele>223</ele>
        <time>2018-02-02T10:17:07Z</time>
      </trkpt>
      <trkpt lat="45.86527" lon="4.6618">
        <ele>223</ele>
        <time>2018-02-02T10:17:08Z</time>
      </trkpt>
      <trkpt lat="45.86532" lon="4.66175">
        <ele>224</ele>
        <time>2018-02-02T10:17:09Z</time>
      </trkpt>
      <trkpt lat="45.86538" lon="4.66172">
        <ele>225</ele>
        <time>2018-02-02T10:17:10Z</time>
      </trkpt>
      <trkpt lat="45.86543" lon="4.66169">
        <ele>225</ele>
        <time>2018-02-02T10:17:11Z</time>
      </trkpt>
      <trkpt lat="45.86549" lon="4.66166">
        <ele>218</ele>
        <time>2018-02-02T10:17:12Z</time>
      </trkpt>
      <trkpt lat="45.86554" lon="4.6616">
        <ele>219</ele>
        <time>2018-02-02T10:17:13Z</time>
      </trkpt>
      <trkpt lat="45.86558" lon="4.66155">
        <ele>219</ele>
        <time>2018-02-02T10:17:14Z</time>
      </trkpt>
      <trkpt lat="45.86563" lon="4.66149">
        <ele>219</ele>
        <time>2018-02-02T10:17:15Z</time>
      </trkpt>
      <trkpt lat="45.86568" lon="4.66145">
        <ele>219</ele>
        <time>2018-02-02T10:17:16Z</time>
      </trkpt>
      <trkpt lat="45.86573" lon="4.6614">
        <ele>219</ele>
        <time>2018-02-02T10:17:17Z</time>
      </trkpt>
      <trkpt lat="45.86578" lon="4.66136">
        <ele>218</ele>
        <time>2018-02-02T10:17:18Z</time>
      </trkpt>
      <trkpt lat="45.86584" lon="4.66131">
        <ele>224</ele>
        <time>2018-02-02T10:17:19Z</time>
      </trkpt>
      <trkpt lat="45.86589" lon="4.66127">
        <ele>224</ele>
        <time>2018-02-02T10:17:20Z</time>
      </trkpt>
      <trkpt lat="45.86595" lon="4.66122">
        <ele>223</ele>
        <time>2018-02-02T10:17:21Z</time>
      </trkpt>
      <trkpt lat="45.86601" lon="4.66118">
        <ele>223</ele>
        <time>2018-02-02T10:17:22Z</time>
      </trkpt>
      <trkpt lat="45.86606" lon="4.66114">
        <ele>223</ele>
        <time>2018-02-02T10:17:23Z</time>
      </trkpt>
      <trkpt lat="45.86612" lon="4.66111">
        <ele>223</ele>
        <time>2018-02-02T10:17:24Z</time>
      </trkpt>
      <trkpt lat="45.86617" lon="4.66107">
        <ele>223</ele>
        <time>2018-02-02T10:17:25Z</time>
      </trkpt>
      <trkpt lat="45.86622" lon="4.66104">
        <ele>223</ele>
        <time>2018-02-02T10:17:26Z</time>
      </trkpt>
      <trkpt lat="45.86627" lon="4.66103">
        <ele>223</ele>
        <time>2018-02-02T10:17:27Z</time>
      </trkpt>
      <trkpt lat="45.86633" lon="4.661">
        <ele>223</ele>
        <time>2018-02-02T10:17:28Z</time>
      </trkpt>
      <trkpt lat="45.86638" lon="4.66095">
        <ele>223</ele>
        <time>2018-02-02T10:17:29Z</time>
      </trkpt>
      <trkpt lat="45.86644" lon="4.66092">
        <ele>223</ele>
        <time>2018-02-02T10:17:30Z</time>
      </trkpt>
      <trkpt lat="45.86649" lon="4.6609">
        <ele>222</ele>
        <time>2018-02-02T10:17:31Z</time>
      </trkpt>
      <trkpt lat="45.86655" lon="4.66089">
        <ele>222</ele>
        <time>2018-02-02T10:17:32Z</time>
      </trkpt>
      <trkpt lat="45.8666" lon="4.66087">
        <ele>221</ele>
        <time>2018-02-02T10:17:33Z</time>
      </trkpt>
      <trkpt lat="45.86666" lon="4.66086">
        <ele>220</ele>
        <time>2018-02-02T10:17:34Z</time>
      </trkpt>
      <trkpt lat="45.86671" lon="4.66084">
        <ele>223</ele>
        <time>2018-02-02T10:17:35Z</time>
      </trkpt>
      <trkpt lat="45.86676" lon="4.66084">
        <ele>226</ele>
        <time>2018-02-02T10:17:36Z</time>
      </trkpt>
      <trkpt lat="45.86685" lon="4.66083">
        <ele>221</ele>
        <time>2018-02-02T10:17:38Z</time>
      </trkpt>
      <trkpt lat="45.8669" lon="4.66078">
        <ele>222</ele>
        <time>2018-02-02T10:17:39Z</time>
      </trkpt>
      <trkpt lat="45.86694" lon="4.66075">
        <ele>222</ele>
        <time>2018-02-02T10:17:40Z</time>
      </trkpt>
      <trkpt lat="45.86699" lon="4.66074">
        <ele>223</ele>
        <time>2018-02-02T10:17:41Z</time>
      </trkpt>
      <trkpt lat="45.86705" lon="4.66069">
        <ele>223</ele>
        <time>2018-02-02T10:17:42Z</time>
      </trkpt>
      <trkpt lat="45.8671" lon="4.66066">
        <ele>224</ele>
        <time>2018-02-02T10:17:43Z</time>
      </trkpt>
      <trkpt lat="45.86714" lon="4.66062">
        <ele>224</ele>
        <time>2018-02-02T10:17:44Z</time>
      </trkpt>
      <trkpt lat="45.86719" lon="4.66058">
        <ele>224</ele>
        <time>2018-02-02T10:17:45Z</time>
      </trkpt>
      <trkpt lat="45.86724" lon="4.66055">
        <ele>224</ele>
        <time>2018-02-02T10:17:46Z</time>
      </trkpt>
      <trkpt lat="45.86729" lon="4.66052">
        <ele>224</ele>
        <time>2018-02-02T10:17:47Z</time>
      </trkpt>
      <trkpt lat="45.86734" lon="4.66049">
        <ele>224</ele>
        <time>2018-02-02T10:17:48Z</time>
      </trkpt>
      <trkpt lat="45.8674" lon="4.66045">
        <ele>224</ele>
        <time>2018-02-02T10:17:49Z</time>
      </trkpt>
      <trkpt lat="45.86745" lon="4.6604">
        <ele>223</ele>
        <time>2018-02-02T10:17:50Z</time>
      </trkpt>
      <trkpt lat="45.8675" lon="4.66034">
        <ele>232</ele>
        <time>2018-02-02T10:17:51Z</time>
      </trkpt>
      <trkpt lat="45.86755" lon="4.6603">
        <ele>231</ele>
        <time>2018-02-02T10:17:52Z</time>
      </trkpt>
      <trkpt lat="45.86759" lon="4.66025">
        <ele>230</ele>
        <time>2018-02-02T10:17:53Z</time>
      </trkpt>
      <trkpt lat="45.86764" lon="4.66022">
        <ele>230</ele>
        <time>2018-02-02T10:17:54Z</time>
      </trkpt>
      <trkpt lat="45.86768" lon="4.66018">
        <ele>230</ele>
        <time>2018-02-02T10:17:55Z</time>
      </trkpt>
      <trkpt lat="45.86772" lon="4.66012">
        <ele>230</ele>
        <time>2018-02-02T10:17:56Z</time>
      </trkpt>
      <trkpt lat="45.86777" lon="4.66009">
        <ele>230</ele>
        <time>2018-02-02T10:17:57Z</time>
      </trkpt>
      <trkpt lat="45.86781" lon="4.66003">
        <ele>231</ele>
        <time>2018-02-02T10:17:58Z</time>
      </trkpt>
      <trkpt lat="45.86785" lon="4.65998">
        <ele>222</ele>
        <time>2018-02-02T10:17:59Z</time>
      </trkpt>
      <trkpt lat="45.86789" lon="4.65993">
        <ele>222</ele>
        <time>2018-02-02T10:18:00Z</time>
      </trkpt>
      <trkpt lat="45.86792" lon="4.65989">
        <ele>223</ele>
        <time>2018-02-02T10:18:01Z</time>
      </trkpt>
      <trkpt lat="45.86796" lon="4.65985">
        <ele>223</ele>
        <time>2018-02-02T10:18:02Z</time>
      </trkpt>
      <trkpt lat="45.86799" lon="4.65979">
        <ele>223</ele>
        <time>2018-02-02T10:18:03Z</time>
      </trkpt>
      <trkpt lat="45.86802" lon="4.65974">
        <ele>223</ele>
        <time>2018-02-02T10:18:04Z</time>
      </trkpt>
      <trkpt lat="45.86805" lon="4.65969">
        <ele>223</ele>
        <time>2018-02-02T10:18:05Z</time>
      </trkpt>
      <trkpt lat="45.86808" lon="4.65964">
        <ele>223</ele>
        <time>2018-02-02T10:18:06Z</time>
      </trkpt>
      <trkpt lat="45.86811" lon="4.65959">
        <ele>223</ele>
        <time>2018-02-02T10:18:07Z</time>
      </trkpt>
      <trkpt lat="45.86814" lon="4.65953">
        <ele>223</ele>
        <time>2018-02-02T10:18:08Z</time>
      </trkpt>
      <trkpt lat="45.86816" lon="4.65947">
        <ele>222</ele>
        <time>2018-02-02T10:18:09Z</time>
      </trkpt>
      <trkpt lat="45.86819" lon="4.6594">
        <ele>222</ele>
        <time>2018-02-02T10:18:10Z</time>
      </trkpt>
      <trkpt lat="45.86823" lon="4.65934">
        <ele>222</ele>
        <time>2018-02-02T10:18:11Z</time>
      </trkpt>
      <trkpt lat="45.86828" lon="4.65926">
        <ele>221</ele>
        <time>2018-02-02T10:18:13Z</time>
      </trkpt>
      <trkpt lat="45.86831" lon="4.65919">
        <ele>221</ele>
        <time>2018-02-02T10:18:14Z</time>
      </trkpt>
      <trkpt lat="45.86835" lon="4.65911">
        <ele>223</ele>
        <time>2018-02-02T10:18:15Z</time>
      </trkpt>
      <trkpt lat="45.8684" lon="4.65904">
        <ele>225</ele>
        <time>2018-02-02T10:18:16Z</time>
      </trkpt>
      <trkpt lat="45.86843" lon="4.65897">
        <ele>226</ele>
        <time>2018-02-02T10:18:17Z</time>
      </trkpt>
      <trkpt lat="45.86846" lon="4.65892">
        <ele>226</ele>
        <time>2018-02-02T10:18:18Z</time>
      </trkpt>
      <trkpt lat="45.86848" lon="4.65885">
        <ele>226</ele>
        <time>2018-02-02T10:18:19Z</time>
      </trkpt>
      <trkpt lat="45.86851" lon="4.65881">
        <ele>226</ele>
        <time>2018-02-02T10:18:20Z</time>
      </trkpt>
      <trkpt lat="45.86853" lon="4.65876">
        <ele>226</ele>
        <time>2018-02-02T10:18:21Z</time>
      </trkpt>
      <trkpt lat="45.86855" lon="4.65869">
        <ele>226</ele>
        <time>2018-02-02T10:18:22Z</time>
      </trkpt>
      <trkpt lat="45.86859" lon="4.6586">
        <ele>226</ele>
        <time>2018-02-02T10:18:23Z</time>
      </trkpt>
      <trkpt lat="45.86861" lon="4.65855">
        <ele>225</ele>
        <time>2018-02-02T10:18:24Z</time>
      </trkpt>
      <trkpt lat="45.86863" lon="4.65848">
        <ele>225</ele>
        <time>2018-02-02T10:18:25Z</time>
      </trkpt>
      <trkpt lat="45.86865" lon="4.65841">
        <ele>225</ele>
        <time>2018-02-02T10:18:26Z</time>
      </trkpt>
      <trkpt lat="45.86868" lon="4.65834">
        <ele>226</ele>
        <time>2018-02-02T10:18:27Z</time>
      </trkpt>
      <trkpt lat="45.8687" lon="4.65828">
        <ele>222</ele>
        <time>2018-02-02T10:18:28Z</time>
      </trkpt>
      <trkpt lat="45.86872" lon="4.65822">
        <ele>222</ele>
        <time>2018-02-02T10:18:29Z</time>
      </trkpt>
      <trkpt lat="45.86874" lon="4.65815">
        <ele>222</ele>
        <time>2018-02-02T10:18:30Z</time>
      </trkpt>
      <trkpt lat="45.86875" lon="4.65809">
        <ele>222</ele>
        <time>2018-02-02T10:18:31Z</time>
      </trkpt>
      <trkpt lat="45.86877" lon="4.65801">
        <ele>222</ele>
        <time>2018-02-02T10:18:32Z</time>
      </trkpt>
      <trkpt lat="45.86877" lon="4.65795">
        <ele>222</ele>
        <time>2018-02-02T10:18:33Z</time>
      </trkpt>
      <trkpt lat="45.86879" lon="4.65788">
        <ele>222</ele>
        <time>2018-02-02T10:18:34Z</time>
      </trkpt>
      <trkpt lat="45.86881" lon="4.6578">
        <ele>223</ele>
        <time>2018-02-02T10:18:35Z</time>
      </trkpt>
      <trkpt lat="45.8688" lon="4.65773">
        <ele>222</ele>
        <time>2018-02-02T10:18:36Z</time>
      </trkpt>
      <trkpt lat="45.86882" lon="4.65763">
        <ele>223</ele>
        <time>2018-02-02T10:18:37Z</time>
      </trkpt>
      <trkpt lat="45.86882" lon="4.65757">
        <ele>223</ele>
        <time>2018-02-02T10:18:38Z</time>
      </trkpt>
      <trkpt lat="45.86884" lon="4.65747">
        <ele>222</ele>
        <time>2018-02-02T10:18:39Z</time>
      </trkpt>
      <trkpt lat="45.86885" lon="4.65738">
        <ele>222</ele>
        <time>2018-02-02T10:18:40Z</time>
      </trkpt>
      <trkpt lat="45.86887" lon="4.6573">
        <ele>222</ele>
        <time>2018-02-02T10:18:41Z</time>
      </trkpt>
      <trkpt lat="45.86887" lon="4.65721">
        <ele>222</ele>
        <time>2018-02-02T10:18:42Z</time>
      </trkpt>
      <trkpt lat="45.86888" lon="4.65712">
        <ele>222</ele>
        <time>2018-02-02T10:18:43Z</time>
      </trkpt>
      <trkpt lat="45.86889" lon="4.65703">
        <ele>223</ele>
        <time>2018-02-02T10:18:44Z</time>
      </trkpt>
      <trkpt lat="45.8689" lon="4.65694">
        <ele>223</ele>
        <time>2018-02-02T10:18:45Z</time>
      </trkpt>
      <trkpt lat="45.86891" lon="4.65685">
        <ele>223</ele>
        <time>2018-02-02T10:18:46Z</time>
      </trkpt>
      <trkpt lat="45.86892" lon="4.65676">
        <ele>224</ele>
        <time>2018-02-02T10:18:47Z</time>
      </trkpt>
      <trkpt lat="45.86892" lon="4.65667">
        <ele>224</ele>
        <time>2018-02-02T10:18:48Z</time>
      </trkpt>
      <trkpt lat="45.86893" lon="4.65658">
        <ele>224</ele>
        <time>2018-02-02T10:18:49Z</time>
      </trkpt>
      <trkpt lat="45.86894" lon="4.6565">
        <ele>224</ele>
        <time>2018-02-02T10:18:50Z</time>
      </trkpt>
      <trkpt lat="45.86895" lon="4.65639">
        <ele>223</ele>
        <time>2018-02-02T10:18:51Z</time>
      </trkpt>
      <trkpt lat="45.86897" lon="4.6563">
        <ele>223</ele>
        <time>2018-02-02T10:18:52Z</time>
      </trkpt>
      <trkpt lat="45.86898" lon="4.65621">
        <ele>223</ele>
        <time>2018-02-02T10:18:53Z</time>
      </trkpt>
      <trkpt lat="45.86899" lon="4.65612">
        <ele>223</ele>
        <time>2018-02-02T10:18:54Z</time>
      </trkpt>
      <trkpt lat="45.86901" lon="4.65603">
        <ele>223</ele>
        <time>2018-02-02T10:18:55Z</time>
      </trkpt>
      <trkpt lat="45.86903" lon="4.65594">
        <ele>223</ele>
        <time>2018-02-02T10:18:56Z</time>
      </trkpt>
      <trkpt lat="45.86905" lon="4.65585">
        <ele>224</ele>
        <time>2018-02-02T10:18:57Z</time>
      </trkpt>
      <trkpt lat="45.86908" lon="4.65576">
        <ele>223</ele>
        <time>2018-02-02T10:18:58Z</time>
      </trkpt>
      <trkpt lat="45.8691" lon="4.65568">
        <ele>221</ele>
        <time>2018-02-02T10:18:59Z</time>
      </trkpt>
      <trkpt lat="45.86913" lon="4.6556">
        <ele>220</ele>
        <time>2018-02-02T10:19:00Z</time>
      </trkpt>
      <trkpt lat="45.86916" lon="4.6555">
        <ele>219</ele>
        <time>2018-02-02T10:19:01Z</time>
      </trkpt>
      <trkpt lat="45.86919" lon="4.65542">
        <ele>230</ele>
        <time>2018-02-02T10:19:02Z</time>
      </trkpt>
      <trkpt lat="45.86924" lon="4.65532">
        <ele>229</ele>
        <time>2018-02-02T10:19:03Z</time>
      </trkpt>
      <trkpt lat="45.86927" lon="4.65524">
        <ele>228</ele>
        <time>2018-02-02T10:19:04Z</time>
      </trkpt>
      <trkpt lat="45.86931" lon="4.65516">
        <ele>227</ele>
        <time>2018-02-02T10:19:05Z</time>
      </trkpt>
      <trkpt lat="45.86935" lon="4.65509">
        <ele>227</ele>
        <time>2018-02-02T10:19:06Z</time>
      </trkpt>
      <trkpt lat="45.8694" lon="4.65501">
        <ele>227</ele>
        <time>2018-02-02T10:19:07Z</time>
      </trkpt>
      <trkpt lat="45.86944" lon="4.65494">
        <ele>222</ele>
        <time>2018-02-02T10:19:08Z</time>
      </trkpt>
      <trkpt lat="45.86948" lon="4.65486">
        <ele>222</ele>
        <time>2018-02-02T10:19:09Z</time>
      </trkpt>
      <trkpt lat="45.86952" lon="4.6548">
        <ele>223</ele>
        <time>2018-02-02T10:19:10Z</time>
      </trkpt>
      <trkpt lat="45.86957" lon="4.65474">
        <ele>223</ele>
        <time>2018-02-02T10:19:11Z</time>
      </trkpt>
      <trkpt lat="45.86962" lon="4.65465">
        <ele>223</ele>
        <time>2018-02-02T10:19:12Z</time>
      </trkpt>
      <trkpt lat="45.86966" lon="4.6546">
        <ele>223</ele>
        <time>2018-02-02T10:19:13Z</time>
      </trkpt>
      <trkpt lat="45.8697" lon="4.65454">
        <ele>223</ele>
        <time>2018-02-02T10:19:14Z</time>
      </trkpt>
      <trkpt lat="45.86974" lon="4.65449">
        <ele>222</ele>
        <time>2018-02-02T10:19:15Z</time>
      </trkpt>
      <trkpt lat="45.86979" lon="4.65442">
        <ele>222</ele>
        <time>2018-02-02T10:19:16Z</time>
      </trkpt>
      <trkpt lat="45.86984" lon="4.6544">
        <ele>222</ele>
        <time>2018-02-02T10:19:17Z</time>
      </trkpt>
      <trkpt lat="45.86987" lon="4.65433">
        <ele>222</ele>
        <time>2018-02-02T10:19:18Z</time>
      </trkpt>
      <trkpt lat="45.86992" lon="4.65429">
        <ele>222</ele>
        <time>2018-02-02T10:19:19Z</time>
      </trkpt>
      <trkpt lat="45.86995" lon="4.65422">
        <ele>221</ele>
        <time>2018-02-02T10:19:20Z</time>
      </trkpt>
      <trkpt lat="45.87" lon="4.65418">
        <ele>221</ele>
        <time>2018-02-02T10:19:21Z</time>
      </trkpt>
      <trkpt lat="45.87003" lon="4.65411">
        <ele>222</ele>
        <time>2018-02-02T10:19:22Z</time>
      </trkpt>
      <trkpt lat="45.87007" lon="4.65404">
        <ele>223</ele>
        <time>2018-02-02T10:19:23Z</time>
      </trkpt>
      <trkpt lat="45.87012" lon="4.65399">
        <ele>223</ele>
        <time>2018-02-02T10:19:24Z</time>
      </trkpt>
      <trkpt lat="45.87016" lon="4.65392">
        <ele>223</ele>
        <time>2018-02-02T10:19:25Z</time>
      </trkpt>
      <trkpt lat="45.8702" lon="4.65385">
        <ele>223</ele>
        <time>2018-02-02T10:19:26Z</time>
      </trkpt>
      <trkpt lat="45.87024" lon="4.65378">
        <ele>223</ele>
        <time>2018-02-02T10:19:27Z</time>
      </trkpt>
      <trkpt lat="45.87029" lon="4.65374">
        <ele>223</ele>
        <time>2018-02-02T10:19:28Z</time>
      </trkpt>
      <trkpt lat="45.87033" lon="4.65369">
        <ele>223</ele>
        <time>2018-02-02T10:19:29Z</time>
      </trkpt>
      <trkpt lat="45.87036" lon="4.65365">
        <ele>223</ele>
        <time>2018-02-02T10:19:30Z</time>
      </trkpt>
      <trkpt lat="45.8704" lon="4.65361">
        <ele>223</ele>
        <time>2018-02-02T10:19:31Z</time>
      </trkpt>
      <trkpt lat="45.87042" lon="4.65355">
        <ele>223</ele>
        <time>2018-02-02T10:19:32Z</time>
      </trkpt>
      <trkpt lat="45.87047" lon="4.65349">
        <ele>223</ele>
        <time>2018-02-02T10:19:33Z</time>
      </trkpt>
      <trkpt lat="45.8705" lon="4.65343">
        <ele>223</ele>
        <time>2018-02-02T10:19:34Z</time>
      </trkpt>
      <trkpt lat="45.87054" lon="4.65337">
        <ele>223</ele>
        <time>2018-02-02T10:19:35Z</time>
      </trkpt>
      <trkpt lat="45.87057" lon="4.65329">
        <ele>218</ele>
        <time>2018-02-02T10:19:36Z</time>
      </trkpt>
      <trkpt lat="45.8706" lon="4.65323">
        <ele>218</ele>
        <time>2018-02-02T10:19:37Z</time>
      </trkpt>
      <trkpt lat="45.87064" lon="4.65314">
        <ele>218</ele>
        <time>2018-02-02T10:19:38Z</time>
      </trkpt>
      <trkpt lat="45.87066" lon="4.65308">
        <ele>217</ele>
        <time>2018-02-02T10:19:39Z</time>
      </trkpt>
      <trkpt lat="45.87069" lon="4.65301">
        <ele>217</ele>
        <time>2018-02-02T10:19:40Z</time>
      </trkpt>
      <trkpt lat="45.87073" lon="4.65292">
        <ele>216</ele>
        <time>2018-02-02T10:19:41Z</time>
      </trkpt>
      <trkpt lat="45.87076" lon="4.65286">
        <ele>216</ele>
        <time>2018-02-02T10:19:42Z</time>
      </trkpt>
      <trkpt lat="45.87079" lon="4.65279">
        <ele>215</ele>
        <time>2018-02-02T10:19:43Z</time>
      </trkpt>
      <trkpt lat="45.87083" lon="4.65269">
        <ele>215</ele>
        <time>2018-02-02T10:19:44Z</time>
      </trkpt>
      <trkpt lat="45.87086" lon="4.65262">
        <ele>220</ele>
        <time>2018-02-02T10:19:45Z</time>
      </trkpt>
      <trkpt lat="45.87089" lon="4.65257">
        <ele>219</ele>
        <time>2018-02-02T10:19:46Z</time>
      </trkpt>
      <trkpt lat="45.87093" lon="4.65253">
        <ele>219</ele>
        <time>2018-02-02T10:19:47Z</time>
      </trkpt>
      <trkpt lat="45.87096" lon="4.65246">
        <ele>216</ele>
        <time>2018-02-02T10:19:48Z</time>
      </trkpt>
      <trkpt lat="45.87101" lon="4.65241">
        <ele>218</ele>
        <time>2018-02-02T10:19:49Z</time>
      </trkpt>
      <trkpt lat="45.87103" lon="4.65235">
        <ele>218</ele>
        <time>2018-02-02T10:19:50Z</time>
      </trkpt>
      <trkpt lat="45.87108" lon="4.6523">
        <ele>219</ele>
        <time>2018-02-02T10:19:51Z</time>
      </trkpt>
      <trkpt lat="45.87112" lon="4.65225">
        <ele>219</ele>
        <time>2018-02-02T10:19:52Z</time>
      </trkpt>
      <trkpt lat="45.87115" lon="4.65219">
        <ele>220</ele>
        <time>2018-02-02T10:19:53Z</time>
      </trkpt>
      <trkpt lat="45.87119" lon="4.65212">
        <ele>220</ele>
        <time>2018-02-02T10:19:54Z</time>
      </trkpt>
      <trkpt lat="45.87123" lon="4.65206">
        <ele>220</ele>
        <time>2018-02-02T10:19:55Z</time>
      </trkpt>
      <trkpt lat="45.87127" lon="4.65201">
        <ele>220</ele>
        <time>2018-02-02T10:19:56Z</time>
      </trkpt>
      <trkpt lat="45.8713" lon="4.65196">
        <ele>220</ele>
        <time>2018-02-02T10:19:57Z</time>
      </trkpt>
      <trkpt lat="45.87134" lon="4.65191">
        <ele>220</ele>
        <time>2018-02-02T10:19:58Z</time>
      </trkpt>
      <trkpt lat="45.87137" lon="4.65186">
        <ele>220</ele>
        <time>2018-02-02T10:19:59Z</time>
      </trkpt>
      <trkpt lat="45.87141" lon="4.6518">
        <ele>220</ele>
        <time>2018-02-02T10:20:00Z</time>
      </trkpt>
      <trkpt lat="45.87145" lon="4.65177">
        <ele>220</ele>
        <time>2018-02-02T10:20:01Z</time>
      </trkpt>
      <trkpt lat="45.87149" lon="4.65173">
        <ele>220</ele>
        <time>2018-02-02T10:20:02Z</time>
      </trkpt>
      <trkpt lat="45.87153" lon="4.65168">
        <ele>220</ele>
        <time>2018-02-02T10:20:03Z</time>
      </trkpt>
      <trkpt lat="45.87158" lon="4.65164">
        <ele>218</ele>
        <time>2018-02-02T10:20:04Z</time>
      </trkpt>
      <trkpt lat="45.87163" lon="4.65159">
        <ele>218</ele>
        <time>2018-02-02T10:20:05Z</time>
      </trkpt>
      <trkpt lat="45.87166" lon="4.65154">
        <ele>217</ele>
        <time>2018-02-02T10:20:06Z</time>
      </trkpt>
      <trkpt lat="45.87171" lon="4.65149">
        <ele>221</ele>
        <time>2018-02-02T10:20:07Z</time>
      </trkpt>
      <trkpt lat="45.87175" lon="4.65145">
        <ele>221</ele>
        <time>2018-02-02T10:20:08Z</time>
      </trkpt>
      <trkpt lat="45.87179" lon="4.65143">
        <ele>221</ele>
        <time>2018-02-02T10:20:09Z</time>
      </trkpt>
      <trkpt lat="45.87182" lon="4.65137">
        <ele>221</ele>
        <time>2018-02-02T10:20:10Z</time>
      </trkpt>
      <trkpt lat="45.87186" lon="4.65133">
        <ele>221</ele>
        <time>2018-02-02T10:20:11Z</time>
      </trkpt>
      <trkpt lat="45.8719" lon="4.6513">
        <ele>221</ele>
        <time>2018-02-02T10:20:12Z</time>
      </trkpt>
      <trkpt lat="45.87195" lon="4.65126">
        <ele>221</ele>
        <time>2018-02-02T10:20:13Z</time>
      </trkpt>
      <trkpt lat="45.87199" lon="4.65121">
        <ele>221</ele>
        <time>2018-02-02T10:20:14Z</time>
      </trkpt>
      <trkpt lat="45.87204" lon="4.65117">
        <ele>221</ele>
        <time>2018-02-02T10:20:15Z</time>
      </trkpt>
      <trkpt lat="45.87209" lon="4.65112">
        <ele>221</ele>
        <time>2018-02-02T10:20:16Z</time>
      </trkpt>
      <trkpt lat="45.87213" lon="4.65109">
        <ele>221</ele>
        <time>2018-02-02T10:20:17Z</time>
      </trkpt>
      <trkpt lat="45.87219" lon="4.65107">
        <ele>221</ele>
        <time>2018-02-02T10:20:18Z</time>
      </trkpt>
      <trkpt lat="45.87223" lon="4.65102">
        <ele>221</ele>
        <time>2018-02-02T10:20:19Z</time>
      </trkpt>
      <trkpt lat="45.87228" lon="4.65101">
        <ele>221</ele>
        <time>2018-02-02T10:20:20Z</time>
      </trkpt>
      <trkpt lat="45.87232" lon="4.65097">
        <ele>220</ele>
        <time>2018-02-02T10:20:21Z</time>
      </trkpt>
      <trkpt lat="45.87237" lon="4.65092">
        <ele>220</ele>
        <time>2018-02-02T10:20:22Z</time>
      </trkpt>
      <trkpt lat="45.87241" lon="4.65088">
        <ele>219</ele>
        <time>2018-02-02T10:20:23Z</time>
      </trkpt>
      <trkpt lat="45.87246" lon="4.65085">
        <ele>219</ele>
        <time>2018-02-02T10:20:24Z</time>
      </trkpt>
      <trkpt lat="45.8725" lon="4.65082">
        <ele>218</ele>
        <time>2018-02-02T10:20:25Z</time>
      </trkpt>
      <trkpt lat="45.87254" lon="4.65077">
        <ele>219</ele>
        <time>2018-02-02T10:20:26Z</time>
      </trkpt>
      <trkpt lat="45.87258" lon="4.65075">
        <ele>219</ele>
        <time>2018-02-02T10:20:27Z</time>
      </trkpt>
      <trkpt lat="45.87263" lon="4.65069">
        <ele>219</ele>
        <time>2018-02-02T10:20:28Z</time>
      </trkpt>
      <trkpt lat="45.87268" lon="4.65065">
        <ele>219</ele>
        <time>2018-02-02T10:20:29Z</time>
      </trkpt>
      <trkpt lat="45.87272" lon="4.65063">
        <ele>219</ele>
        <time>2018-02-02T10:20:30Z</time>
      </trkpt>
      <trkpt lat="45.87276" lon="4.65058">
        <ele>220</ele>
        <time>2018-02-02T10:20:31Z</time>
      </trkpt>
      <trkpt lat="45.8728" lon="4.65054">
        <ele>220</ele>
        <time>2018-02-02T10:20:32Z</time>
      </trkpt>
      <trkpt lat="45.87285" lon="4.65049">
        <ele>220</ele>
        <time>2018-02-02T10:20:33Z</time>
      </trkpt>
      <trkpt lat="45.87288" lon="4.65043">
        <ele>220</ele>
        <time>2018-02-02T10:20:34Z</time>
      </trkpt>
      <trkpt lat="45.87292" lon="4.65038">
        <ele>220</ele>
        <time>2018-02-02T10:20:35Z</time>
      </trkpt>
      <trkpt lat="45.87296" lon="4.65032">
        <ele>219</ele>
        <time>2018-02-02T10:20:36Z</time>
      </trkpt>
      <trkpt lat="45.873" lon="4.65025">
        <ele>219</ele>
        <time>2018-02-02T10:20:37Z</time>
      </trkpt>
      <trkpt lat="45.87305" lon="4.6502">
        <ele>219</ele>
        <time>2018-02-02T10:20:38Z</time>
      </trkpt>
      <trkpt lat="45.87309" lon="4.65013">
        <ele>219</ele>
        <time>2018-02-02T10:20:39Z</time>
      </trkpt>
      <trkpt lat="45.87313" lon="4.65006">
        <ele>219</ele>
        <time>2018-02-02T10:20:40Z</time>
      </trkpt>
      <trkpt lat="45.87317" lon="4.65">
        <ele>215</ele>
        <time>2018-02-02T10:20:41Z</time>
      </trkpt>
      <trkpt lat="45.8732" lon="4.64993">
        <ele>216</ele>
        <time>2018-02-02T10:20:42Z</time>
      </trkpt>
      <trkpt lat="45.87323" lon="4.64987">
        <ele>215</ele>
        <time>2018-02-02T10:20:43Z</time>
      </trkpt>
      <trkpt lat="45.87327" lon="4.6498">
        <ele>215</ele>
        <time>2018-02-02T10:20:44Z</time>
      </trkpt>
      <trkpt lat="45.8733" lon="4.64972">
        <ele>214</ele>
        <time>2018-02-02T10:20:45Z</time>
      </trkpt>
      <trkpt lat="45.87333" lon="4.64966">
        <ele>219</ele>
        <time>2018-02-02T10:20:46Z</time>
      </trkpt>
      <trkpt lat="45.87336" lon="4.6496">
        <ele>218</ele>
        <time>2018-02-02T10:20:47Z</time>
      </trkpt>
      <trkpt lat="45.87339" lon="4.64954">
        <ele>218</ele>
        <time>2018-02-02T10:20:48Z</time>
      </trkpt>
      <trkpt lat="45.87344" lon="4.64947">
        <ele>218</ele>
        <time>2018-02-02T10:20:49Z</time>
      </trkpt>
      <trkpt lat="45.87348" lon="4.6494">
        <ele>217</ele>
        <time>2018-02-02T10:20:50Z</time>
      </trkpt>
      <trkpt lat="45.87352" lon="4.64934">
        <ele>217</ele>
        <time>2018-02-02T10:20:51Z</time>
      </trkpt>
      <trkpt lat="45.87355" lon="4.64928">
        <ele>217</ele>
        <time>2018-02-02T10:20:52Z</time>
      </trkpt>
      <trkpt lat="45.87359" lon="4.64922">
        <ele>217</ele>
        <time>2018-02-02T10:20:53Z</time>
      </trkpt>
      <trkpt lat="45.87363" lon="4.64915">
        <ele>214</ele>
        <time>2018-02-02T10:20:54Z</time>
      </trkpt>
      <trkpt lat="45.87366" lon="4.64907">
        <ele>214</ele>
        <time>2018-02-02T10:20:55Z</time>
      </trkpt>
      <trkpt lat="45.8737" lon="4.64903">
        <ele>215</ele>
        <time>2018-02-02T10:20:56Z</time>
      </trkpt>
      <trkpt lat="45.87375" lon="4.64896">
        <ele>215</ele>
        <time>2018-02-02T10:20:57Z</time>
      </trkpt>
      <trkpt lat="45.87379" lon="4.64891">
        <ele>215</ele>
        <time>2018-02-02T10:20:58Z</time>
      </trkpt>
      <trkpt lat="45.87383" lon="4.64886">
        <ele>215</ele>
        <time>2018-02-02T10:20:59Z</time>
      </trkpt>
      <trkpt lat="45.87389" lon="4.64882">
        <ele>215</ele>
        <time>2018-02-02T10:21:00Z</time>
      </trkpt>
      <trkpt lat="45.87394" lon="4.64876">
        <ele>215</ele>
        <time>2018-02-02T10:21:01Z</time>
      </trkpt>
      <trkpt lat="45.87399" lon="4.64873">
        <ele>215</ele>
        <time>2018-02-02T10:21:02Z</time>
      </trkpt>
      <trkpt lat="45.87403" lon="4.64866">
        <ele>215</ele>
        <time>2018-02-02T10:21:03Z</time>
      </trkpt>
      <trkpt lat="45.87407" lon="4.64861">
        <ele>215</ele>
        <time>2018-02-02T10:21:04Z</time>
      </trkpt>
      <trkpt lat="45.87411" lon="4.64857">
        <ele>215</ele>
        <time>2018-02-02T10:21:05Z</time>
      </trkpt>
      <trkpt lat="45.87416" lon="4.64853">
        <ele>215</ele>
        <time>2018-02-02T10:21:06Z</time>
      </trkpt>
      <trkpt lat="45.8742" lon="4.64847">
        <ele>218</ele>
        <time>2018-02-02T10:21:07Z</time>
      </trkpt>
      <trkpt lat="45.87423" lon="4.64843">
        <ele>217</ele>
        <time>2018-02-02T10:21:08Z</time>
      </trkpt>
      <trkpt lat="45.87429" lon="4.64833">
        <ele>215</ele>
        <time>2018-02-02T10:21:10Z</time>
      </trkpt>
      <trkpt lat="45.87433" lon="4.64828">
        <ele>215</ele>
        <time>2018-02-02T10:21:11Z</time>
      </trkpt>
      <trkpt lat="45.87437" lon="4.64824">
        <ele>215</ele>
        <time>2018-02-02T10:21:12Z</time>
      </trkpt>
      <trkpt lat="45.8744" lon="4.64819">
        <ele>215</ele>
        <time>2018-02-02T10:21:13Z</time>
      </trkpt>
      <trkpt lat="45.87443" lon="4.64814">
        <ele>215</ele>
        <time>2018-02-02T10:21:14Z</time>
      </trkpt>
      <trkpt lat="45.87447" lon="4.64811">
        <ele>215</ele>
        <time>2018-02-02T10:21:15Z</time>
      </trkpt>
      <trkpt lat="45.87451" lon="4.64805">
        <ele>214</ele>
        <time>2018-02-02T10:21:16Z</time>
      </trkpt>
      <trkpt lat="45.87455" lon="4.64801">
        <ele>214</ele>
        <time>2018-02-02T10:21:17Z</time>
      </trkpt>
      <trkpt lat="45.87459" lon="4.64795">
        <ele>214</ele>
        <time>2018-02-02T10:21:18Z</time>
      </trkpt>
      <trkpt lat="45.87463" lon="4.6479">
        <ele>214</ele>
        <time>2018-02-02T10:21:19Z</time>
      </trkpt>
      <trkpt lat="45.87469" lon="4.64782">
        <ele>214</ele>
        <time>2018-02-02T10:21:21Z</time>
      </trkpt>
      <trkpt lat="45.87471" lon="4.64776">
        <ele>214</ele>
        <time>2018-02-02T10:21:22Z</time>
      </trkpt>
      <trkpt lat="45.87474" lon="4.64771">
        <ele>214</ele>
        <time>2018-02-02T10:21:23Z</time>
      </trkpt>
      <trkpt lat="45.87478" lon="4.64766">
        <ele>214</ele>
        <time>2018-02-02T10:21:24Z</time>
      </trkpt>
      <trkpt lat="45.87482" lon="4.64761">
        <ele>214</ele>
        <time>2018-02-02T10:21:25Z</time>
      </trkpt>
      <trkpt lat="45.87486" lon="4.64756">
        <ele>214</ele>
        <time>2018-02-02T10:21:26Z</time>
      </trkpt>
      <trkpt lat="45.8749" lon="4.64752">
        <ele>213</ele>
        <time>2018-02-02T10:21:27Z</time>
      </trkpt>
      <trkpt lat="45.87494" lon="4.64746">
        <ele>213</ele>
        <time>2018-02-02T10:21:28Z</time>
      </trkpt>
      <trkpt lat="45.87498" lon="4.64741">
        <ele>213</ele>
        <time>2018-02-02T10:21:29Z</time>
      </trkpt>
      <trkpt lat="45.875" lon="4.64736">
        <ele>213</ele>
        <time>2018-02-02T10:21:30Z</time>
      </trkpt>
      <trkpt lat="45.87505" lon="4.64731">
        <ele>213</ele>
        <time>2018-02-02T10:21:31Z</time>
      </trkpt>
      <trkpt lat="45.87508" lon="4.64726">
        <ele>213</ele>
        <time>2018-02-02T10:21:32Z</time>
      </trkpt>
      <trkpt lat="45.87511" lon="4.64723">
        <ele>213</ele>
        <time>2018-02-02T10:21:33Z</time>
      </trkpt>
      <trkpt lat="45.87515" lon="4.64718">
        <ele>212</ele>
        <time>2018-02-02T10:21:34Z</time>
      </trkpt>
      <trkpt lat="45.87519" lon="4.64711">
        <ele>212</ele>
        <time>2018-02-02T10:21:35Z</time>
      </trkpt>
      <trkpt lat="45.87523" lon="4.64706">
        <ele>212</ele>
        <time>2018-02-02T10:21:36Z</time>
      </trkpt>
      <trkpt lat="45.87526" lon="4.64701">
        <ele>212</ele>
        <time>2018-02-02T10:21:37Z</time>
      </trkpt>
      <trkpt lat="45.8753" lon="4.64697">
        <ele>212</ele>
        <time>2018-02-02T10:21:38Z</time>
      </trkpt>
      <trkpt lat="45.87533" lon="4.64693">
        <ele>212</ele>
        <time>2018-02-02T10:21:39Z</time>
      </trkpt>
      <trkpt lat="45.87537" lon="4.64688">
        <ele>212</ele>
        <time>2018-02-02T10:21:40Z</time>
      </trkpt>
      <trkpt lat="45.8754" lon="4.64683">
        <ele>212</ele>
        <time>2018-02-02T10:21:41Z</time>
      </trkpt>
      <trkpt lat="45.87543" lon="4.64679">
        <ele>212</ele>
        <time>2018-02-02T10:21:42Z</time>
      </trkpt>
      <trkpt lat="45.8755" lon="4.6467">
        <ele>212</ele>
        <time>2018-02-02T10:21:44Z</time>
      </trkpt>
      <trkpt lat="45.87553" lon="4.64666">
        <ele>212</ele>
        <time>2018-02-02T10:21:45Z</time>
      </trkpt>
      <trkpt lat="45.87557" lon="4.64662">
        <ele>212</ele>
        <time>2018-02-02T10:21:46Z</time>
      </trkpt>
      <trkpt lat="45.8756" lon="4.64657">
        <ele>212</ele>
        <time>2018-02-02T10:21:47Z</time>
      </trkpt>
      <trkpt lat="45.87564" lon="4.64651">
        <ele>212</ele>
        <time>2018-02-02T10:21:48Z</time>
      </trkpt>
      <trkpt lat="45.87567" lon="4.64646">
        <ele>212</ele>
        <time>2018-02-02T10:21:49Z</time>
      </trkpt>
      <trkpt lat="45.87571" lon="4.64642">
        <ele>212</ele>
        <time>2018-02-02T10:21:50Z</time>
      </trkpt>
      <trkpt lat="45.87574" lon="4.64636">
        <ele>212</ele>
        <time>2018-02-02T10:21:51Z</time>
      </trkpt>
      <trkpt lat="45.87578" lon="4.6463">
        <ele>212</ele>
        <time>2018-02-02T10:21:52Z</time>
      </trkpt>
      <trkpt lat="45.87582" lon="4.64627">
        <ele>212</ele>
        <time>2018-02-02T10:21:53Z</time>
      </trkpt>
      <trkpt lat="45.87588" lon="4.64619">
        <ele>212</ele>
        <time>2018-02-02T10:21:55Z</time>
      </trkpt>
      <trkpt lat="45.87592" lon="4.64614">
        <ele>212</ele>
        <time>2018-02-02T10:21:56Z</time>
      </trkpt>
      <trkpt lat="45.87595" lon="4.64608">
        <ele>212</ele>
        <time>2018-02-02T10:21:57Z</time>
      </trkpt>
      <trkpt lat="45.87599" lon="4.64603">
        <ele>212</ele>
        <time>2018-02-02T10:21:58Z</time>
      </trkpt>
      <trkpt lat="45.87603" lon="4.64598">
        <ele>212</ele>
        <time>2018-02-02T10:21:59Z</time>
      </trkpt>
      <trkpt lat="45.87608" lon="4.64593">
        <ele>212</ele>
        <time>2018-02-02T10:22:00Z</time>
      </trkpt>
      <trkpt lat="45.87611" lon="4.64589">
        <ele>212</ele>
        <time>2018-02-02T10:22:01Z</time>
      </trkpt>
      <trkpt lat="45.87615" lon="4.64584">
        <ele>212</ele>
        <time>2018-02-02T10:22:02Z</time>
      </trkpt>
      <trkpt lat="45.87618" lon="4.64579">
        <ele>212</ele>
        <time>2018-02-02T10:22:03Z</time>
      </trkpt>
      <trkpt lat="45.87622" lon="4.64575">
        <ele>212</ele>
        <time>2018-02-02T10:22:04Z</time>
      </trkpt>
      <trkpt lat="45.87626" lon="4.6457">
        <ele>212</ele>
        <time>2018-02-02T10:22:05Z</time>
      </trkpt>
      <trkpt lat="45.87629" lon="4.64566">
        <ele>212</ele>
        <time>2018-02-02T10:22:06Z</time>
      </trkpt>
      <trkpt lat="45.87634" lon="4.6456">
        <ele>212</ele>
        <time>2018-02-02T10:22:08Z</time>
      </trkpt>
      <trkpt lat="45.87637" lon="4.64556">
        <ele>212</ele>
        <time>2018-02-02T10:22:09Z</time>
      </trkpt>
      <trkpt lat="45.87643" lon="4.64548">
        <ele>212</ele>
        <time>2018-02-02T10:22:11Z</time>
      </trkpt>
      <trkpt lat="45.87646" lon="4.64543">
        <ele>213</ele>
        <time>2018-02-02T10:22:12Z</time>
      </trkpt>
      <trkpt lat="45.87649" lon="4.64537">
        <ele>213</ele>
        <time>2018-02-02T10:22:13Z</time>
      </trkpt>
      <trkpt lat="45.87653" lon="4.64533">
        <ele>213</ele>
        <time>2018-02-02T10:22:14Z</time>
      </trkpt>
      <trkpt lat="45.87656" lon="4.64529">
        <ele>213</ele>
        <time>2018-02-02T10:22:15Z</time>
      </trkpt>
      <trkpt lat="45.8766" lon="4.64525">
        <ele>213</ele>
        <time>2018-02-02T10:22:16Z</time>
      </trkpt>
      <trkpt lat="45.87663" lon="4.64521">
        <ele>213</ele>
        <time>2018-02-02T10:22:17Z</time>
      </trkpt>
      <trkpt lat="45.87666" lon="4.64516">
        <ele>213</ele>
        <time>2018-02-02T10:22:18Z</time>
      </trkpt>
      <trkpt lat="45.87672" lon="4.64506">
        <ele>214</ele>
        <time>2018-02-02T10:22:20Z</time>
      </trkpt>
      <trkpt lat="45.87674" lon="4.64502">
        <ele>214</ele>
        <time>2018-02-02T10:22:21Z</time>
      </trkpt>
      <trkpt lat="45.8768" lon="4.64494">
        <ele>214</ele>
        <time>2018-02-02T10:22:23Z</time>
      </trkpt>
      <trkpt lat="45.87683" lon="4.64499">
        <ele>214</ele>
        <time>2018-02-02T10:22:24Z</time>
      </trkpt>
      <trkpt lat="45.87687" lon="4.6451">
        <ele>215</ele>
        <time>2018-02-02T10:22:26Z</time>
      </trkpt>
      <trkpt lat="45.87689" lon="4.64513">
        <ele>215</ele>
        <time>2018-02-02T10:22:27Z</time>
      </trkpt>
      <trkpt lat="45.87696" lon="4.64522">
        <ele>215</ele>
        <time>2018-02-02T10:22:29Z</time>
      </trkpt>
      <trkpt lat="45.87698" lon="4.64525">
        <ele>215</ele>
        <time>2018-02-02T10:22:30Z</time>
      </trkpt>
      <trkpt lat="45.87704" lon="4.64533">
        <ele>216</ele>
        <time>2018-02-02T10:22:32Z</time>
      </trkpt>
      <trkpt lat="45.87707" lon="4.64537">
        <ele>216</ele>
        <time>2018-02-02T10:22:33Z</time>
      </trkpt>
      <trkpt lat="45.8771" lon="4.64542">
        <ele>216</ele>
        <time>2018-02-02T10:22:34Z</time>
      </trkpt>
      <trkpt lat="45.87714" lon="4.64546">
        <ele>216</ele>
        <time>2018-02-02T10:22:35Z</time>
      </trkpt>
      <trkpt lat="45.87716" lon="4.64552">
        <ele>216</ele>
        <time>2018-02-02T10:22:36Z</time>
      </trkpt>
      <trkpt lat="45.87718" lon="4.64558">
        <ele>216</ele>
        <time>2018-02-02T10:22:37Z</time>
      </trkpt>
      <trkpt lat="45.87718" lon="4.64569">
        <ele>217</ele>
        <time>2018-02-02T10:22:39Z</time>
      </trkpt>
      <trkpt lat="45.87719" lon="4.64575">
        <ele>217</ele>
        <time>2018-02-02T10:22:40Z</time>
      </trkpt>
      <trkpt lat="45.8772" lon="4.64585">
        <ele>217</ele>
        <time>2018-02-02T10:22:42Z</time>
      </trkpt>
      <trkpt lat="45.8772" lon="4.6459">
        <ele>217</ele>
        <time>2018-02-02T10:22:43Z</time>
      </trkpt>
      <trkpt lat="45.8772" lon="4.646">
        <ele>217</ele>
        <time>2018-02-02T10:22:45Z</time>
      </trkpt>
      <trkpt lat="45.8772" lon="4.64606">
        <ele>217</ele>
        <time>2018-02-02T10:22:46Z</time>
      </trkpt>
      <trkpt lat="45.87724" lon="4.64617">
        <ele>217</ele>
        <time>2018-02-02T10:22:48Z</time>
      </trkpt>
      <trkpt lat="45.87725" lon="4.64622">
        <ele>217</ele>
        <time>2018-02-02T10:22:49Z</time>
      </trkpt>
      <trkpt lat="45.87729" lon="4.64634">
        <ele>217</ele>
        <time>2018-02-02T10:22:51Z</time>
      </trkpt>
      <trkpt lat="45.8773" lon="4.64639">
        <ele>217</ele>
        <time>2018-02-02T10:22:52Z</time>
      </trkpt>
      <trkpt lat="45.87729" lon="4.64649">
        <ele>217</ele>
        <time>2018-02-02T10:22:54Z</time>
      </trkpt>
      <trkpt lat="45.87728" lon="4.64654">
        <ele>217</ele>
        <time>2018-02-02T10:22:55Z</time>
      </trkpt>
      <trkpt lat="45.87726" lon="4.64665">
        <ele>217</ele>
        <time>2018-02-02T10:22:57Z</time>
      </trkpt>
      <trkpt lat="45.87725" lon="4.64671">
        <ele>216</ele>
        <time>2018-02-02T10:22:58Z</time>
      </trkpt>
      <trkpt lat="45.87723" lon="4.64683">
        <ele>216</ele>
        <time>2018-02-02T10:23:00Z</time>
      </trkpt>
      <trkpt lat="45.87722" lon="4.64689">
        <ele>216</ele>
        <time>2018-02-02T10:23:01Z</time>
      </trkpt>
      <trkpt lat="45.87722" lon="4.64696">
        <ele>215</ele>
        <time>2018-02-02T10:23:02Z</time>
      </trkpt>
      <trkpt lat="45.87722" lon="4.64702">
        <ele>215</ele>
        <time>2018-02-02T10:23:03Z</time>
      </trkpt>
      <trkpt lat="45.87722" lon="4.64709">
        <ele>215</ele>
        <time>2018-02-02T10:23:04Z</time>
      </trkpt>
      <trkpt lat="45.87723" lon="4.64715">
        <ele>215</ele>
        <time>2018-02-02T10:23:05Z</time>
      </trkpt>
      <trkpt lat="45.87724" lon="4.64728">
        <ele>215</ele>
        <time>2018-02-02T10:23:07Z</time>
      </trkpt>
      <trkpt lat="45.87726" lon="4.64734">
        <ele>214</ele>
        <time>2018-02-02T10:23:08Z</time>
      </trkpt>
      <trkpt lat="45.87729" lon="4.64744">
        <ele>214</ele>
        <time>2018-02-02T10:23:10Z</time>
      </trkpt>
      <trkpt lat="45.8773" lon="4.6475">
        <ele>214</ele>
        <time>2018-02-02T10:23:11Z</time>
      </trkpt>
      <trkpt lat="45.87732" lon="4.64761">
        <ele>213</ele>
        <time>2018-02-02T10:23:13Z</time>
      </trkpt>
      <trkpt lat="45.87733" lon="4.64767">
        <ele>213</ele>
        <time>2018-02-02T10:23:14Z</time>
      </trkpt>
      <trkpt lat="45.87734" lon="4.64777">
        <ele>213</ele>
        <time>2018-02-02T10:23:16Z</time>
      </trkpt>
      <trkpt lat="45.87735" lon="4.64782">
        <ele>213</ele>
        <time>2018-02-02T10:23:17Z</time>
      </trkpt>
      <trkpt lat="45.87739" lon="4.64791">
        <ele>213</ele>
        <time>2018-02-02T10:23:19Z</time>
      </trkpt>
      <trkpt lat="45.87741" lon="4.64795">
        <ele>214</ele>
        <time>2018-02-02T10:23:20Z</time>
      </trkpt>
      <trkpt lat="45.87747" lon="4.64803">
        <ele>214</ele>
        <time>2018-02-02T10:23:22Z</time>
      </trkpt>
      <trkpt lat="45.8775" lon="4.64806">
        <ele>214</ele>
        <time>2018-02-02T10:23:23Z</time>
      </trkpt>
      <trkpt lat="45.87754" lon="4.64815">
        <ele>214</ele>
        <time>2018-02-02T10:23:25Z</time>
      </trkpt>
      <trkpt lat="45.87757" lon="4.6482">
        <ele>214</ele>
        <time>2018-02-02T10:23:26Z</time>
      </trkpt>
      <trkpt lat="45.87761" lon="4.64828">
        <ele>214</ele>
        <time>2018-02-02T10:23:28Z</time>
      </trkpt>
      <trkpt lat="45.87764" lon="4.64831">
        <ele>214</ele>
        <time>2018-02-02T10:23:29Z</time>
      </trkpt>
      <trkpt lat="45.87768" lon="4.64837">
        <ele>216</ele>
        <time>2018-02-02T10:23:31Z</time>
      </trkpt>
      <trkpt lat="45.87771" lon="4.6484">
        <ele>217</ele>
        <time>2018-02-02T10:23:32Z</time>
      </trkpt>
      <trkpt lat="45.87776" lon="4.6485">
        <ele>217</ele>
        <time>2018-02-02T10:23:35Z</time>
      </trkpt>
      <trkpt lat="45.87777" lon="4.64853">
        <ele>217</ele>
        <time>2018-02-02T10:23:36Z</time>
      </trkpt>
      <trkpt lat="45.87781" lon="4.64862">
        <ele>218</ele>
        <time>2018-02-02T10:23:39Z</time>
      </trkpt>
      <trkpt lat="45.87782" lon="4.64865">
        <ele>218</ele>
        <time>2018-02-02T10:23:40Z</time>
      </trkpt>
      <trkpt lat="45.87787" lon="4.64873">
        <ele>218</ele>
        <time>2018-02-02T10:23:43Z</time>
      </trkpt>
      <trkpt lat="45.87789" lon="4.64876">
        <ele>219</ele>
        <time>2018-02-02T10:23:44Z</time>
      </trkpt>
      <trkpt lat="45.87794" lon="4.64883">
        <ele>219</ele>
        <time>2018-02-02T10:23:47Z</time>
      </trkpt>
      <trkpt lat="45.87796" lon="4.64885">
        <ele>219</ele>
        <time>2018-02-02T10:23:48Z</time>
      </trkpt>
      <trkpt lat="45.878" lon="4.64897">
        <ele>219</ele>
        <time>2018-02-02T10:23:52Z</time>
      </trkpt>
      <trkpt lat="45.878" lon="4.64899">
        <ele>220</ele>
        <time>2018-02-02T10:23:53Z</time>
      </trkpt>
      <trkpt lat="45.87805" lon="4.64908">
        <ele>220</ele>
        <time>2018-02-02T10:23:57Z</time>
      </trkpt>
      <trkpt lat="45.87807" lon="4.64911">
        <ele>220</ele>
        <time>2018-02-02T10:23:58Z</time>
      </trkpt>
      <trkpt lat="45.8781" lon="4.64921">
        <ele>224</ele>
        <time>2018-02-02T10:24:02Z</time>
      </trkpt>
      <trkpt lat="45.87812" lon="4.64924">
        <ele>224</ele>
        <time>2018-02-02T10:24:03Z</time>
      </trkpt>
      <trkpt lat="45.87815" lon="4.64932">
        <ele>224</ele>
        <time>2018-02-02T10:24:06Z</time>
      </trkpt>
      <trkpt lat="45.87816" lon="4.64935">
        <ele>225</ele>
        <time>2018-02-02T10:24:07Z</time>
      </trkpt>
      <trkpt lat="45.87822" lon="4.64944">
        <ele>225</ele>
        <time>2018-02-02T10:24:11Z</time>
      </trkpt>
      <trkpt lat="45.87824" lon="4.64946">
        <ele>225</ele>
        <time>2018-02-02T10:24:12Z</time>
      </trkpt>
      <trkpt lat="45.87829" lon="4.64952">
        <ele>226</ele>
        <time>2018-02-02T10:24:15Z</time>
      </trkpt>
      <trkpt lat="45.87831" lon="4.64954">
        <ele>226</ele>
        <time>2018-02-02T10:24:16Z</time>
      </trkpt>
      <trkpt lat="45.87837" lon="4.64961">
        <ele>228</ele>
        <time>2018-02-02T10:24:20Z</time>
      </trkpt>
      <trkpt lat="45.87838" lon="4.64963">
        <ele>228</ele>
        <time>2018-02-02T10:24:21Z</time>
      </trkpt>
      <trkpt lat="45.87845" lon="4.64969">
        <ele>229</ele>
        <time>2018-02-02T10:24:25Z</time>
      </trkpt>
      <trkpt lat="45.87846" lon="4.64971">
        <ele>229</ele>
        <time>2018-02-02T10:24:26Z</time>
      </trkpt>
      <trkpt lat="45.87854" lon="4.64978">
        <ele>229</ele>
        <time>2018-02-02T10:24:30Z</time>
      </trkpt>
      <trkpt lat="45.87856" lon="4.64979">
        <ele>229</ele>
        <time>2018-02-02T10:24:31Z</time>
      </trkpt>
      <trkpt lat="45.87864" lon="4.64983">
        <ele>230</ele>
        <time>2018-02-02T10:24:35Z</time>
      </trkpt>
      <trkpt lat="45.87866" lon="4.64984">
        <ele>230</ele>
        <time>2018-02-02T10:24:36Z</time>
      </trkpt>
      <trkpt lat="45.87873" lon="4.64988">
        <ele>230</ele>
        <time>2018-02-02T10:24:40Z</time>
      </trkpt>
      <trkpt lat="45.87874" lon="4.64989">
        <ele>230</ele>
        <time>2018-02-02T10:24:41Z</time>
      </trkpt>
      <trkpt lat="45.87882" lon="4.64991">
        <ele>231</ele>
        <time>2018-02-02T10:24:45Z</time>
      </trkpt>
      <trkpt lat="45.87884" lon="4.64992">
        <ele>231</ele>
        <time>2018-02-02T10:24:46Z</time>
      </trkpt>
      <trkpt lat="45.87891" lon="4.64993">
        <ele>232</ele>
        <time>2018-02-02T10:24:50Z</time>
      </trkpt>
      <trkpt lat="45.87893" lon="4.64994">
        <ele>232</ele>
        <time>2018-02-02T10:24:51Z</time>
      </trkpt>
      <trkpt lat="45.87902" lon="4.64995">
        <ele>233</ele>
        <time>2018-02-02T10:24:56Z</time>
      </trkpt>
      <trkpt lat="45.87903" lon="4.64995">
        <ele>234</ele>
        <time>2018-02-02T10:24:57Z</time>
      </trkpt>
      <trkpt lat="45.87911" lon="4.64995">
        <ele>235</ele>
        <time>2018-02-02T10:25:01Z</time>
      </trkpt>
      <trkpt lat="45.87914" lon="4.64995">
        <ele>235</ele>
        <time>2018-02-02T10:25:02Z</time>
      </trkpt>
      <trkpt lat="45.87922" lon="4.64991">
        <ele>237</ele>
        <time>2018-02-02T10:25:06Z</time>
      </trkpt>
      <trkpt lat="45.87923" lon="4.64991">
        <ele>237</ele>
        <time>2018-02-02T10:25:07Z</time>
      </trkpt>
      <trkpt lat="45.87932" lon="4.6499">
        <ele>237</ele>
        <time>2018-02-02T10:25:11Z</time>
      </trkpt>
      <trkpt lat="45.87934" lon="4.64989">
        <ele>237</ele>
        <time>2018-02-02T10:25:12Z</time>
      </trkpt>
      <trkpt lat="45.8794" lon="4.64982">
        <ele>237</ele>
        <time>2018-02-02T10:25:16Z</time>
      </trkpt>
      <trkpt lat="45.87942" lon="4.6498">
        <ele>237</ele>
        <time>2018-02-02T10:25:17Z</time>
      </trkpt>
      <trkpt lat="45.87948" lon="4.64976">
        <ele>237</ele>
        <time>2018-02-02T10:25:21Z</time>
      </trkpt>
      <trkpt lat="45.8795" lon="4.64974">
        <ele>238</ele>
        <time>2018-02-02T10:25:22Z</time>
      </trkpt>
      <trkpt lat="45.87957" lon="4.64969">
        <ele>238</ele>
        <time>2018-02-02T10:25:26Z</time>
      </trkpt>
      <trkpt lat="45.87959" lon="4.64968">
        <ele>238</ele>
        <time>2018-02-02T10:25:27Z</time>
      </trkpt>
      <trkpt lat="45.87967" lon="4.64963">
        <ele>238</ele>
        <time>2018-02-02T10:25:32Z</time>
      </trkpt>
      <trkpt lat="45.87968" lon="4.64962">
        <ele>238</ele>
        <time>2018-02-02T10:25:33Z</time>
      </trkpt>
      <trkpt lat="45.87976" lon="4.64957">
        <ele>238</ele>
        <time>2018-02-02T10:25:39Z</time>
      </trkpt>
      <trkpt lat="45.87977" lon="4.64955">
        <ele>238</ele>
        <time>2018-02-02T10:25:40Z</time>
      </trkpt>
      <trkpt lat="45.87984" lon="4.64948">
        <ele>237</ele>
        <time>2018-02-02T10:25:44Z</time>
      </trkpt>
      <trkpt lat="45.87986" lon="4.64947">
        <ele>237</ele>
        <time>2018-02-02T10:25:45Z</time>
      </trkpt>
      <trkpt lat="45.87993" lon="4.64943">
        <ele>237</ele>
        <time>2018-02-02T10:25:49Z</time>
      </trkpt>
      <trkpt lat="45.87994" lon="4.64941">
        <ele>237</ele>
        <time>2018-02-02T10:25:50Z</time>
      </trkpt>
      <trkpt lat="45.88001" lon="4.64935">
        <ele>243</ele>
        <time>2018-02-02T10:25:54Z</time>
      </trkpt>
      <trkpt lat="45.88002" lon="4.64933">
        <ele>243</ele>
        <time>2018-02-02T10:25:55Z</time>
      </trkpt>
      <trkpt lat="45.88008" lon="4.64925">
        <ele>241</ele>
        <time>2018-02-02T10:25:59Z</time>
      </trkpt>
      <trkpt lat="45.88009" lon="4.64924">
        <ele>241</ele>
        <time>2018-02-02T10:26:00Z</time>
      </trkpt>
      <trkpt lat="45.88017" lon="4.64919">
        <ele>243</ele>
        <time>2018-02-02T10:26:05Z</time>
      </trkpt>
      <trkpt lat="45.88018" lon="4.64918">
        <ele>244</ele>
        <time>2018-02-02T10:26:06Z</time>
      </trkpt>
      <trkpt lat="45.88026" lon="4.64912">
        <ele>238</ele>
        <time>2018-02-02T10:26:12Z</time>
      </trkpt>
      <trkpt lat="45.88027" lon="4.64911">
        <ele>238</ele>
        <time>2018-02-02T10:26:13Z</time>
      </trkpt>
      <trkpt lat="45.88033" lon="4.64902">
        <ele>238</ele>
        <time>2018-02-02T10:26:18Z</time>
      </trkpt>
      <trkpt lat="45.88035" lon="4.64901">
        <ele>239</ele>
        <time>2018-02-02T10:26:19Z</time>
      </trkpt>
      <trkpt lat="45.88043" lon="4.64895">
        <ele>239</ele>
        <time>2018-02-02T10:26:24Z</time>
      </trkpt>
      <trkpt lat="45.88044" lon="4.64894">
        <ele>239</ele>
        <time>2018-02-02T10:26:25Z</time>
      </trkpt>
      <trkpt lat="45.8805" lon="4.64887">
        <ele>240</ele>
        <time>2018-02-02T10:26:30Z</time>
      </trkpt>
      <trkpt lat="45.88052" lon="4.64885">
        <ele>240</ele>
        <time>2018-02-02T10:26:31Z</time>
      </trkpt>
      <trkpt lat="45.88057" lon="4.64879">
        <ele>239</ele>
        <time>2018-02-02T10:26:36Z</time>
      </trkpt>
      <trkpt lat="45.88059" lon="4.64877">
        <ele>239</ele>
        <time>2018-02-02T10:26:37Z</time>
      </trkpt>
      <trkpt lat="45.88067" lon="4.64873">
        <ele>239</ele>
        <time>2018-02-02T10:26:42Z</time>
      </trkpt>
      <trkpt lat="45.88068" lon="4.64873">
        <ele>240</ele>
        <time>2018-02-02T10:26:43Z</time>
      </trkpt>
      <trkpt lat="45.88075" lon="4.64868">
        <ele>239</ele>
        <time>2018-02-02T10:26:48Z</time>
      </trkpt>
      <trkpt lat="45.88077" lon="4.64867">
        <ele>239</ele>
        <time>2018-02-02T10:26:49Z</time>
      </trkpt>
      <trkpt lat="45.88085" lon="4.64863">
        <ele>246</ele>
        <time>2018-02-02T10:26:54Z</time>
      </trkpt>
      <trkpt lat="45.88087" lon="4.64862">
        <ele>246</ele>
        <time>2018-02-02T10:26:55Z</time>
      </trkpt>
      <trkpt lat="45.88094" lon="4.64863">
        <ele>246</ele>
        <time>2018-02-02T10:26:59Z</time>
      </trkpt>
      <trkpt lat="45.88097" lon="4.64863">
        <ele>246</ele>
        <time>2018-02-02T10:27:00Z</time>
      </trkpt>
      <trkpt lat="45.88105" lon="4.6486">
        <ele>246</ele>
        <time>2018-02-02T10:27:05Z</time>
      </trkpt>
      <trkpt lat="45.88106" lon="4.64858">
        <ele>246</ele>
        <time>2018-02-02T10:27:06Z</time>
      </trkpt>
      <trkpt lat="45.88114" lon="4.64855">
        <ele>247</ele>
        <time>2018-02-02T10:27:11Z</time>
      </trkpt>
      <trkpt lat="45.88115" lon="4.64856">
        <ele>247</ele>
        <time>2018-02-02T10:27:12Z</time>
      </trkpt>
      <trkpt lat="45.88123" lon="4.64854">
        <ele>247</ele>
        <time>2018-02-02T10:27:17Z</time>
      </trkpt>
      <trkpt lat="45.88125" lon="4.64854">
        <ele>247</ele>
        <time>2018-02-02T10:27:18Z</time>
      </trkpt>
      <trkpt lat="45.88134" lon="4.64852">
        <ele>248</ele>
        <time>2018-02-02T10:27:23Z</time>
      </trkpt>
      <trkpt lat="45.88136" lon="4.64851">
        <ele>248</ele>
        <time>2018-02-02T10:27:24Z</time>
      </trkpt>
      <trkpt lat="45.88143" lon="4.64848">
        <ele>248</ele>
        <time>2018-02-02T10:27:28Z</time>
      </trkpt>
      <trkpt lat="45.88144" lon="4.64847">
        <ele>248</ele>
        <time>2018-02-02T10:27:29Z</time>
      </trkpt>
      <trkpt lat="45.88152" lon="4.64847">
        <ele>247</ele>
        <time>2018-02-02T10:27:33Z</time>
      </trkpt>
      <trkpt lat="45.88154" lon="4.64847">
        <ele>247</ele>
        <time>2018-02-02T10:27:34Z</time>
      </trkpt>
      <trkpt lat="45.88163" lon="4.64847">
        <ele>247</ele>
        <time>2018-02-02T10:27:39Z</time>
      </trkpt>
      <trkpt lat="45.88164" lon="4.64847">
        <ele>247</ele>
        <time>2018-02-02T10:27:40Z</time>
      </trkpt>
      <trkpt lat="45.88173" lon="4.64846">
        <ele>251</ele>
        <time>2018-02-02T10:27:45Z</time>
      </trkpt>
      <trkpt lat="45.88175" lon="4.64846">
        <ele>251</ele>
        <time>2018-02-02T10:27:46Z</time>
      </trkpt>
      <trkpt lat="45.88183" lon="4.64842">
        <ele>252</ele>
        <time>2018-02-02T10:27:51Z</time>
      </trkpt>
      <trkpt lat="45.88184" lon="4.64842">
        <ele>252</ele>
        <time>2018-02-02T10:27:52Z</time>
      </trkpt>
      <trkpt lat="45.88193" lon="4.64842">
        <ele>254</ele>
        <time>2018-02-02T10:27:58Z</time>
      </trkpt>
      <trkpt lat="45.88195" lon="4.6484">
        <ele>254</ele>
        <time>2018-02-02T10:27:59Z</time>
      </trkpt>
      <trkpt lat="45.88202" lon="4.64836">
        <ele>255</ele>
        <time>2018-02-02T10:28:03Z</time>
      </trkpt>
      <trkpt lat="45.88203" lon="4.64835">
        <ele>255</ele>
        <time>2018-02-02T10:28:04Z</time>
      </trkpt>
      <trkpt lat="45.88212" lon="4.64834">
        <ele>256</ele>
        <time>2018-02-02T10:28:09Z</time>
      </trkpt>
      <trkpt lat="45.88213" lon="4.64833">
        <ele>247</ele>
        <time>2018-02-02T10:28:10Z</time>
      </trkpt>
      <trkpt lat="45.88221" lon="4.6483">
        <ele>248</ele>
        <time>2018-02-02T10:28:15Z</time>
      </trkpt>
      <trkpt lat="45.88222" lon="4.6483">
        <ele>248</ele>
        <time>2018-02-02T10:28:16Z</time>
      </trkpt>
      <trkpt lat="45.88231" lon="4.6483">
        <ele>250</ele>
        <time>2018-02-02T10:28:22Z</time>
      </trkpt>
      <trkpt lat="45.88232" lon="4.64829">
        <ele>250</ele>
        <time>2018-02-02T10:28:23Z</time>
      </trkpt>
      <trkpt lat="45.8824" lon="4.64824">
        <ele>251</ele>
        <time>2018-02-02T10:28:29Z</time>
      </trkpt>
      <trkpt lat="45.88241" lon="4.64823">
        <ele>251</ele>
        <time>2018-02-02T10:28:30Z</time>
      </trkpt>
      <trkpt lat="45.8825" lon="4.64824">
        <ele>253</ele>
        <time>2018-02-02T10:28:36Z</time>
      </trkpt>
      <trkpt lat="45.88251" lon="4.64824">
        <ele>257</ele>
        <time>2018-02-02T10:28:37Z</time>
      </trkpt>
      <trkpt lat="45.8826" lon="4.64822">
        <ele>257</ele>
        <time>2018-02-02T10:28:44Z</time>
      </trkpt>
      <trkpt lat="45.88261" lon="4.64821">
        <ele>257</ele>
        <time>2018-02-02T10:28:45Z</time>
      </trkpt>
      <trkpt lat="45.88269" lon="4.64816">
        <ele>257</ele>
        <time>2018-02-02T10:28:50Z</time>
      </trkpt>
      <trkpt lat="45.88271" lon="4.64816">
        <ele>257</ele>
        <time>2018-02-02T10:28:51Z</time>
      </trkpt>
      <trkpt lat="45.88279" lon="4.64814">
        <ele>258</ele>
        <time>2018-02-02T10:28:56Z</time>
      </trkpt>
      <trkpt lat="45.88281" lon="4.64814">
        <ele>258</ele>
        <time>2018-02-02T10:28:57Z</time>
      </trkpt>
      <trkpt lat="45.88287" lon="4.64809">
        <ele>258</ele>
        <time>2018-02-02T10:29:01Z</time>
      </trkpt>
      <trkpt lat="45.88289" lon="4.64808">
        <ele>258</ele>
        <time>2018-02-02T10:29:02Z</time>
      </trkpt>
      <trkpt lat="45.88296" lon="4.64804">
        <ele>259</ele>
        <time>2018-02-02T10:29:06Z</time>
      </trkpt>
      <trkpt lat="45.88298" lon="4.64804">
        <ele>259</ele>
        <time>2018-02-02T10:29:07Z</time>
      </trkpt>
      <trkpt lat="45.88306" lon="4.64804">
        <ele>260</ele>
        <time>2018-02-02T10:29:13Z</time>
      </trkpt>
      <trkpt lat="45.88307" lon="4.64805">
        <ele>260</ele>
        <time>2018-02-02T10:29:14Z</time>
      </trkpt>
      <trkpt lat="45.88315" lon="4.64804">
        <ele>261</ele>
        <time>2018-02-02T10:29:20Z</time>
      </trkpt>
      <trkpt lat="45.88316" lon="4.64803">
        <ele>261</ele>
        <time>2018-02-02T10:29:21Z</time>
      </trkpt>
      <trkpt lat="45.88323" lon="4.64797">
        <ele>260</ele>
        <time>2018-02-02T10:29:25Z</time>
      </trkpt>
      <trkpt lat="45.88324" lon="4.64796">
        <ele>260</ele>
        <time>2018-02-02T10:29:26Z</time>
      </trkpt>
      <trkpt lat="45.88332" lon="4.6479">
        <ele>260</ele>
        <time>2018-02-02T10:29:30Z</time>
      </trkpt>
      <trkpt lat="45.88334" lon="4.6479">
        <ele>266</ele>
        <time>2018-02-02T10:29:31Z</time>
      </trkpt>
      <trkpt lat="45.88341" lon="4.6479">
        <ele>266</ele>
        <time>2018-02-02T10:29:36Z</time>
      </trkpt>
      <trkpt lat="45.88343" lon="4.6479">
        <ele>266</ele>
        <time>2018-02-02T10:29:37Z</time>
      </trkpt>
      <trkpt lat="45.8835" lon="4.6479">
        <ele>266</ele>
        <time>2018-02-02T10:29:41Z</time>
      </trkpt>
      <trkpt lat="45.88352" lon="4.64789">
        <ele>266</ele>
        <time>2018-02-02T10:29:42Z</time>
      </trkpt>
      <trkpt lat="45.8836" lon="4.64788">
        <ele>267</ele>
        <time>2018-02-02T10:29:47Z</time>
      </trkpt>
      <trkpt lat="45.88362" lon="4.64788">
        <ele>267</ele>
        <time>2018-02-02T10:29:48Z</time>
      </trkpt>
      <trkpt lat="45.8837" lon="4.64783">
        <ele>266</ele>
        <time>2018-02-02T10:29:53Z</time>
      </trkpt>
      <trkpt lat="45.88372" lon="4.64782">
        <ele>266</ele>
        <time>2018-02-02T10:29:54Z</time>
      </trkpt>
      <trkpt lat="45.8838" lon="4.64779">
        <ele>266</ele>
        <time>2018-02-02T10:29:58Z</time>
      </trkpt>
      <trkpt lat="45.88382" lon="4.64779">
        <ele>267</ele>
        <time>2018-02-02T10:29:59Z</time>
      </trkpt>
      <trkpt lat="45.88389" lon="4.64778">
        <ele>267</ele>
        <time>2018-02-02T10:30:02Z</time>
      </trkpt>
      <trkpt lat="45.88392" lon="4.64778">
        <ele>267</ele>
        <time>2018-02-02T10:30:03Z</time>
      </trkpt>
      <trkpt lat="45.88399" lon="4.64773">
        <ele>266</ele>
        <time>2018-02-02T10:30:06Z</time>
      </trkpt>
      <trkpt lat="45.884" lon="4.64773">
        <ele>266</ele>
        <time>2018-02-02T10:30:07Z</time>
      </trkpt>
      <trkpt lat="45.88408" lon="4.64774">
        <ele>266</ele>
        <time>2018-02-02T10:30:11Z</time>
      </trkpt>
      <trkpt lat="45.8841" lon="4.64775">
        <ele>266</ele>
        <time>2018-02-02T10:30:12Z</time>
      </trkpt>
      <trkpt lat="45.88418" lon="4.64776">
        <ele>269</ele>
        <time>2018-02-02T10:30:17Z</time>
      </trkpt>
      <trkpt lat="45.8842" lon="4.64775">
        <ele>269</ele>
        <time>2018-02-02T10:30:18Z</time>
      </trkpt>
      <trkpt lat="45.88429" lon="4.64773">
        <ele>269</ele>
        <time>2018-02-02T10:30:23Z</time>
      </trkpt>
      <trkpt lat="45.88431" lon="4.64773">
        <ele>269</ele>
        <time>2018-02-02T10:30:24Z</time>
      </trkpt>
      <trkpt lat="45.88439" lon="4.64773">
        <ele>270</ele>
        <time>2018-02-02T10:30:29Z</time>
      </trkpt>
      <trkpt lat="45.88441" lon="4.64773">
        <ele>270</ele>
        <time>2018-02-02T10:30:30Z</time>
      </trkpt>
      <trkpt lat="45.88449" lon="4.64774">
        <ele>270</ele>
        <time>2018-02-02T10:30:35Z</time>
      </trkpt>
      <trkpt lat="45.88451" lon="4.64774">
        <ele>271</ele>
        <time>2018-02-02T10:30:36Z</time>
      </trkpt>
      <trkpt lat="45.88459" lon="4.64772">
        <ele>271</ele>
        <time>2018-02-02T10:30:42Z</time>
      </trkpt>
      <trkpt lat="45.88461" lon="4.64772">
        <ele>271</ele>
        <time>2018-02-02T10:30:43Z</time>
      </trkpt>
      <trkpt lat="45.8847" lon="4.64771">
        <ele>271</ele>
        <time>2018-02-02T10:30:47Z</time>
      </trkpt>
      <trkpt lat="45.88472" lon="4.64771">
        <ele>271</ele>
        <time>2018-02-02T10:30:48Z</time>
      </trkpt>
      <trkpt lat="45.88479" lon="4.6477">
        <ele>271</ele>
        <time>2018-02-02T10:30:51Z</time>
      </trkpt>
      <trkpt lat="45.88482" lon="4.64769">
        <ele>270</ele>
        <time>2018-02-02T10:30:52Z</time>
      </trkpt>
      <trkpt lat="45.8849" lon="4.64769">
        <ele>270</ele>
        <time>2018-02-02T10:30:56Z</time>
      </trkpt>
      <trkpt lat="45.88492" lon="4.64769">
        <ele>270</ele>
        <time>2018-02-02T10:30:57Z</time>
      </trkpt>
      <trkpt lat="45.88501" lon="4.64767">
        <ele>270</ele>
        <time>2018-02-02T10:31:02Z</time>
      </trkpt>
      <trkpt lat="45.88502" lon="4.64767">
        <ele>270</ele>
        <time>2018-02-02T10:31:03Z</time>
      </trkpt>
      <trkpt lat="45.8851" lon="4.64766">
        <ele>270</ele>
        <time>2018-02-02T10:31:07Z</time>
      </trkpt>
      <trkpt lat="45.88512" lon="4.64765">
        <ele>270</ele>
        <time>2018-02-02T10:31:08Z</time>
      </trkpt>
      <trkpt lat="45.88521" lon="4.64768">
        <ele>270</ele>
        <time>2018-02-02T10:31:12Z</time>
      </trkpt>
      <trkpt lat="45.88523" lon="4.64768">
        <ele>270</ele>
        <time>2018-02-02T10:31:13Z</time>
      </trkpt>
      <trkpt lat="45.8853" lon="4.64769">
        <ele>271</ele>
        <time>2018-02-02T10:31:17Z</time>
      </trkpt>
      <trkpt lat="45.88532" lon="4.6477">
        <ele>271</ele>
        <time>2018-02-02T10:31:18Z</time>
      </trkpt>
      <trkpt lat="45.88538" lon="4.64777">
        <ele>271</ele>
        <time>2018-02-02T10:31:23Z</time>
      </trkpt>
      <trkpt lat="45.88539" lon="4.64779">
        <ele>271</ele>
        <time>2018-02-02T10:31:24Z</time>
      </trkpt>
      <trkpt lat="45.88544" lon="4.64787">
        <ele>271</ele>
        <time>2018-02-02T10:31:28Z</time>
      </trkpt>
      <trkpt lat="45.88546" lon="4.64789">
        <ele>271</ele>
        <time>2018-02-02T10:31:29Z</time>
      </trkpt>
      <trkpt lat="45.88551" lon="4.64797">
        <ele>272</ele>
        <time>2018-02-02T10:31:33Z</time>
      </trkpt>
      <trkpt lat="45.88552" lon="4.648">
        <ele>272</ele>
        <time>2018-02-02T10:31:34Z</time>
      </trkpt>
      <trkpt lat="45.88556" lon="4.6481">
        <ele>272</ele>
        <time>2018-02-02T10:31:38Z</time>
      </trkpt>
      <trkpt lat="45.88557" lon="4.64812">
        <ele>272</ele>
        <time>2018-02-02T10:31:39Z</time>
      </trkpt>
      <trkpt lat="45.88557" lon="4.64824">
        <ele>273</ele>
        <time>2018-02-02T10:31:43Z</time>
      </trkpt>
      <trkpt lat="45.88557" lon="4.64827">
        <ele>273</ele>
        <time>2018-02-02T10:31:44Z</time>
      </trkpt>
      <trkpt lat="45.88556" lon="4.6484">
        <ele>276</ele>
        <time>2018-02-02T10:31:48Z</time>
      </trkpt>
      <trkpt lat="45.88556" lon="4.64843">
        <ele>276</ele>
        <time>2018-02-02T10:31:49Z</time>
      </trkpt>
      <trkpt lat="45.88554" lon="4.64855">
        <ele>276</ele>
        <time>2018-02-02T10:31:53Z</time>
      </trkpt>
      <trkpt lat="45.88553" lon="4.64858">
        <ele>276</ele>
        <time>2018-02-02T10:31:54Z</time>
      </trkpt>
      <trkpt lat="45.88551" lon="4.6487">
        <ele>277</ele>
        <time>2018-02-02T10:31:58Z</time>
      </trkpt>
      <trkpt lat="45.88551" lon="4.64873">
        <ele>277</ele>
        <time>2018-02-02T10:31:59Z</time>
      </trkpt>
      <trkpt lat="45.8855" lon="4.64885">
        <ele>277</ele>
        <time>2018-02-02T10:32:03Z</time>
      </trkpt>
      <trkpt lat="45.88549" lon="4.64887">
        <ele>277</ele>
        <time>2018-02-02T10:32:04Z</time>
      </trkpt>
      <trkpt lat="45.88547" lon="4.649">
        <ele>277</ele>
        <time>2018-02-02T10:32:08Z</time>
      </trkpt>
      <trkpt lat="45.88547" lon="4.64903">
        <ele>277</ele>
        <time>2018-02-02T10:32:09Z</time>
      </trkpt>
      <trkpt lat="45.88544" lon="4.64914">
        <ele>277</ele>
        <time>2018-02-02T10:32:13Z</time>
      </trkpt>
      <trkpt lat="45.88543" lon="4.64916">
        <ele>277</ele>
        <time>2018-02-02T10:32:14Z</time>
      </trkpt>
      <trkpt lat="45.88541" lon="4.64928">
        <ele>280</ele>
        <time>2018-02-02T10:32:18Z</time>
      </trkpt>
      <trkpt lat="45.88541" lon="4.64931">
        <ele>280</ele>
        <time>2018-02-02T10:32:19Z</time>
      </trkpt>
      <trkpt lat="45.8854" lon="4.64943">
        <ele>280</ele>
        <time>2018-02-02T10:32:23Z</time>
      </trkpt>
      <trkpt lat="45.88539" lon="4.64946">
        <ele>280</ele>
        <time>2018-02-02T10:32:24Z</time>
      </trkpt>
      <trkpt lat="45.88538" lon="4.64957">
        <ele>281</ele>
        <time>2018-02-02T10:32:28Z</time>
      </trkpt>
      <trkpt lat="45.88537" lon="4.64959">
        <ele>281</ele>
        <time>2018-02-02T10:32:29Z</time>
      </trkpt>
      <trkpt lat="45.88535" lon="4.64969">
        <ele>281</ele>
        <time>2018-02-02T10:32:32Z</time>
      </trkpt>
      <trkpt lat="45.88535" lon="4.64972">
        <ele>281</ele>
        <time>2018-02-02T10:32:33Z</time>
      </trkpt>
      <trkpt lat="45.88533" lon="4.64984">
        <ele>282</ele>
        <time>2018-02-02T10:32:37Z</time>
      </trkpt>
      <trkpt lat="45.88533" lon="4.64987">
        <ele>282</ele>
        <time>2018-02-02T10:32:38Z</time>
      </trkpt>
      <trkpt lat="45.88532" lon="4.64998">
        <ele>282</ele>
        <time>2018-02-02T10:32:42Z</time>
      </trkpt>
      <trkpt lat="45.88531" lon="4.65001">
        <ele>284</ele>
        <time>2018-02-02T10:32:43Z</time>
      </trkpt>
      <trkpt lat="45.88529" lon="4.65012">
        <ele>285</ele>
        <time>2018-02-02T10:32:48Z</time>
      </trkpt>
      <trkpt lat="45.88528" lon="4.65014">
        <ele>285</ele>
        <time>2018-02-02T10:32:49Z</time>
      </trkpt>
      <trkpt lat="45.88525" lon="4.65023">
        <ele>285</ele>
        <time>2018-02-02T10:32:53Z</time>
      </trkpt>
      <trkpt lat="45.88524" lon="4.65026">
        <ele>285</ele>
        <time>2018-02-02T10:32:54Z</time>
      </trkpt>
      <trkpt lat="45.88522" lon="4.65038">
        <ele>285</ele>
        <time>2018-02-02T10:32:58Z</time>
      </trkpt>
      <trkpt lat="45.88521" lon="4.65041">
        <ele>285</ele>
        <time>2018-02-02T10:32:59Z</time>
      </trkpt>
      <trkpt lat="45.88519" lon="4.6505">
        <ele>285</ele>
        <time>2018-02-02T10:33:02Z</time>
      </trkpt>
      <trkpt lat="45.88518" lon="4.65053">
        <ele>285</ele>
        <time>2018-02-02T10:33:03Z</time>
      </trkpt>
      <trkpt lat="45.88515" lon="4.65064">
        <ele>286</ele>
        <time>2018-02-02T10:33:07Z</time>
      </trkpt>
      <trkpt lat="45.88514" lon="4.65067">
        <ele>286</ele>
        <time>2018-02-02T10:33:08Z</time>
      </trkpt>
      <trkpt lat="45.8851" lon="4.65077">
        <ele>288</ele>
        <time>2018-02-02T10:33:12Z</time>
      </trkpt>
      <trkpt lat="45.88509" lon="4.65079">
        <ele>288</ele>
        <time>2018-02-02T10:33:13Z</time>
      </trkpt>
      <trkpt lat="45.88503" lon="4.65088">
        <ele>289</ele>
        <time>2018-02-02T10:33:17Z</time>
      </trkpt>
      <trkpt lat="45.88502" lon="4.65091">
        <ele>289</ele>
        <time>2018-02-02T10:33:18Z</time>
      </trkpt>
      <trkpt lat="45.88499" lon="4.65101">
        <ele>292</ele>
        <time>2018-02-02T10:33:23Z</time>
      </trkpt>
      <trkpt lat="45.88498" lon="4.65103">
        <ele>292</ele>
        <time>2018-02-02T10:33:24Z</time>
      </trkpt>
      <trkpt lat="45.88493" lon="4.65113">
        <ele>293</ele>
        <time>2018-02-02T10:33:29Z</time>
      </trkpt>
      <trkpt lat="45.88492" lon="4.65115">
        <ele>293</ele>
        <time>2018-02-02T10:33:30Z</time>
      </trkpt>
      <trkpt lat="45.88486" lon="4.65123">
        <ele>293</ele>
        <time>2018-02-02T10:33:35Z</time>
      </trkpt>
      <trkpt lat="45.88484" lon="4.65124">
        <ele>293</ele>
        <time>2018-02-02T10:33:36Z</time>
      </trkpt>
      <trkpt lat="45.88477" lon="4.65131">
        <ele>294</ele>
        <time>2018-02-02T10:33:41Z</time>
      </trkpt>
      <trkpt lat="45.88475" lon="4.65132">
        <ele>294</ele>
        <time>2018-02-02T10:33:42Z</time>
      </trkpt>
      <trkpt lat="45.88468" lon="4.6514">
        <ele>294</ele>
        <time>2018-02-02T10:33:47Z</time>
      </trkpt>
      <trkpt lat="45.88467" lon="4.65141">
        <ele>294</ele>
        <time>2018-02-02T10:33:48Z</time>
      </trkpt>
      <trkpt lat="45.8846" lon="4.65148">
        <ele>294</ele>
        <time>2018-02-02T10:33:53Z</time>
      </trkpt>
      <trkpt lat="45.88459" lon="4.6515">
        <ele>295</ele>
        <time>2018-02-02T10:33:54Z</time>
      </trkpt>
      <trkpt lat="45.88452" lon="4.65155">
        <ele>295</ele>
        <time>2018-02-02T10:33:59Z</time>
      </trkpt>
      <trkpt lat="45.88451" lon="4.65156">
        <ele>295</ele>
        <time>2018-02-02T10:34:00Z</time>
      </trkpt>
      <trkpt lat="45.88443" lon="4.65161">
        <ele>296</ele>
        <time>2018-02-02T10:34:05Z</time>
      </trkpt>
      <trkpt lat="45.88442" lon="4.65163">
        <ele>296</ele>
        <time>2018-02-02T10:34:06Z</time>
      </trkpt>
      <trkpt lat="45.88437" lon="4.65173">
        <ele>297</ele>
        <time>2018-02-02T10:34:11Z</time>
      </trkpt>
      <trkpt lat="45.88437" lon="4.65175">
        <ele>297</ele>
        <time>2018-02-02T10:34:12Z</time>
      </trkpt>
      <trkpt lat="45.88431" lon="4.65182">
        <ele>298</ele>
        <time>2018-02-02T10:34:16Z</time>
      </trkpt>
      <trkpt lat="45.8843" lon="4.65184">
        <ele>298</ele>
        <time>2018-02-02T10:34:17Z</time>
      </trkpt>
      <trkpt lat="45.88423" lon="4.6519">
        <ele>298</ele>
        <time>2018-02-02T10:34:21Z</time>
      </trkpt>
      <trkpt lat="45.88422" lon="4.6519">
        <ele>298</ele>
        <time>2018-02-02T10:34:22Z</time>
      </trkpt>
      <trkpt lat="45.88414" lon="4.65198">
        <ele>299</ele>
        <time>2018-02-02T10:34:28Z</time>
      </trkpt>
      <trkpt lat="45.88413" lon="4.65199">
        <ele>299</ele>
        <time>2018-02-02T10:34:29Z</time>
      </trkpt>
      <trkpt lat="45.88406" lon="4.65204">
        <ele>300</ele>
        <time>2018-02-02T10:34:34Z</time>
      </trkpt>
      <trkpt lat="45.88405" lon="4.65206">
        <ele>300</ele>
        <time>2018-02-02T10:34:35Z</time>
      </trkpt>
      <trkpt lat="45.88399" lon="4.65213">
        <ele>300</ele>
        <time>2018-02-02T10:34:40Z</time>
      </trkpt>
      <trkpt lat="45.88397" lon="4.65215">
        <ele>300</ele>
        <time>2018-02-02T10:34:41Z</time>
      </trkpt>
      <trkpt lat="45.8839" lon="4.65223">
        <ele>300</ele>
        <time>2018-02-02T10:34:46Z</time>
      </trkpt>
      <trkpt lat="45.88389" lon="4.65224">
        <ele>300</ele>
        <time>2018-02-02T10:34:47Z</time>
      </trkpt>
      <trkpt lat="45.88383" lon="4.65232">
        <ele>300</ele>
        <time>2018-02-02T10:34:52Z</time>
      </trkpt>
      <trkpt lat="45.88381" lon="4.65233">
        <ele>300</ele>
        <time>2018-02-02T10:34:53Z</time>
      </trkpt>
      <trkpt lat="45.88373" lon="4.65238">
        <ele>300</ele>
        <time>2018-02-02T10:34:57Z</time>
      </trkpt>
      <trkpt lat="45.88372" lon="4.6524">
        <ele>300</ele>
        <time>2018-02-02T10:34:58Z</time>
      </trkpt>
      <trkpt lat="45.88364" lon="4.65247">
        <ele>300</ele>
        <time>2018-02-02T10:35:03Z</time>
      </trkpt>
      <trkpt lat="45.88363" lon="4.65249">
        <ele>300</ele>
        <time>2018-02-02T10:35:04Z</time>
      </trkpt>
      <trkpt lat="45.88355" lon="4.65255">
        <ele>301</ele>
        <time>2018-02-02T10:35:08Z</time>
      </trkpt>
      <trkpt lat="45.88354" lon="4.65256">
        <ele>301</ele>
        <time>2018-02-02T10:35:09Z</time>
      </trkpt>
      <trkpt lat="45.88347" lon="4.65263">
        <ele>301</ele>
        <time>2018-02-02T10:35:14Z</time>
      </trkpt>
      <trkpt lat="45.88345" lon="4.65264">
        <ele>301</ele>
        <time>2018-02-02T10:35:15Z</time>
      </trkpt>
      <trkpt lat="45.88338" lon="4.6527">
        <ele>301</ele>
        <time>2018-02-02T10:35:19Z</time>
      </trkpt>
      <trkpt lat="45.88337" lon="4.65271">
        <ele>301</ele>
        <time>2018-02-02T10:35:20Z</time>
      </trkpt>
      <trkpt lat="45.8833" lon="4.65276">
        <ele>303</ele>
        <time>2018-02-02T10:35:24Z</time>
      </trkpt>
      <trkpt lat="45.88329" lon="4.65278">
        <ele>304</ele>
        <time>2018-02-02T10:35:25Z</time>
      </trkpt>
      <trkpt lat="45.88324" lon="4.65286">
        <ele>304</ele>
        <time>2018-02-02T10:35:29Z</time>
      </trkpt>
      <trkpt lat="45.88323" lon="4.65289">
        <ele>304</ele>
        <time>2018-02-02T10:35:30Z</time>
      </trkpt>
      <trkpt lat="45.88317" lon="4.65296">
        <ele>304</ele>
        <time>2018-02-02T10:35:34Z</time>
      </trkpt>
      <trkpt lat="45.88317" lon="4.65298">
        <ele>304</ele>
        <time>2018-02-02T10:35:35Z</time>
      </trkpt>
      <trkpt lat="45.88312" lon="4.65307">
        <ele>305</ele>
        <time>2018-02-02T10:35:39Z</time>
      </trkpt>
      <trkpt lat="45.88311" lon="4.65309">
        <ele>305</ele>
        <time>2018-02-02T10:35:40Z</time>
      </trkpt>
      <trkpt lat="45.88307" lon="4.65319">
        <ele>305</ele>
        <time>2018-02-02T10:35:44Z</time>
      </trkpt>
      <trkpt lat="45.88306" lon="4.65321">
        <ele>305</ele>
        <time>2018-02-02T10:35:45Z</time>
      </trkpt>
      <trkpt lat="45.88303" lon="4.65332">
        <ele>305</ele>
        <time>2018-02-02T10:35:50Z</time>
      </trkpt>
      <trkpt lat="45.88302" lon="4.65335">
        <ele>307</ele>
        <time>2018-02-02T10:35:51Z</time>
      </trkpt>
      <trkpt lat="45.88299" lon="4.65344">
        <ele>307</ele>
        <time>2018-02-02T10:35:55Z</time>
      </trkpt>
      <trkpt lat="45.88298" lon="4.65346">
        <ele>307</ele>
        <time>2018-02-02T10:35:56Z</time>
      </trkpt>
      <trkpt lat="45.88295" lon="4.65357">
        <ele>307</ele>
        <time>2018-02-02T10:36:01Z</time>
      </trkpt>
      <trkpt lat="45.88294" lon="4.65359">
        <ele>307</ele>
        <time>2018-02-02T10:36:02Z</time>
      </trkpt>
      <trkpt lat="45.88292" lon="4.65369">
        <ele>308</ele>
        <time>2018-02-02T10:36:06Z</time>
      </trkpt>
      <trkpt lat="45.88292" lon="4.65372">
        <ele>308</ele>
        <time>2018-02-02T10:36:07Z</time>
      </trkpt>
      <trkpt lat="45.88289" lon="4.65382">
        <ele>308</ele>
        <time>2018-02-02T10:36:12Z</time>
      </trkpt>
      <trkpt lat="45.88288" lon="4.65385">
        <ele>308</ele>
        <time>2018-02-02T10:36:13Z</time>
      </trkpt>
      <trkpt lat="45.88284" lon="4.65394">
        <ele>308</ele>
        <time>2018-02-02T10:36:17Z</time>
      </trkpt>
      <trkpt lat="45.88283" lon="4.65396">
        <ele>308</ele>
        <time>2018-02-02T10:36:18Z</time>
      </trkpt>
      <trkpt lat="45.88279" lon="4.65407">
        <ele>309</ele>
        <time>2018-02-02T10:36:23Z</time>
      </trkpt>
      <trkpt lat="45.88278" lon="4.65409">
        <ele>309</ele>
        <time>2018-02-02T10:36:24Z</time>
      </trkpt>
      <trkpt lat="45.88275" lon="4.6542">
        <ele>310</ele>
        <time>2018-02-02T10:36:29Z</time>
      </trkpt>
      <trkpt lat="45.88274" lon="4.65422">
        <ele>310</ele>
        <time>2018-02-02T10:36:30Z</time>
      </trkpt>
      <trkpt lat="45.88271" lon="4.65432">
        <ele>311</ele>
        <time>2018-02-02T10:36:35Z</time>
      </trkpt>
      <trkpt lat="45.8827" lon="4.65433">
        <ele>311</ele>
        <time>2018-02-02T10:36:36Z</time>
      </trkpt>
      <trkpt lat="45.88265" lon="4.65443">
        <ele>311</ele>
        <time>2018-02-02T10:36:41Z</time>
      </trkpt>
      <trkpt lat="45.88264" lon="4.65446">
        <ele>311</ele>
        <time>2018-02-02T10:36:42Z</time>
      </trkpt>
      <trkpt lat="45.88261" lon="4.65455">
        <ele>311</ele>
        <time>2018-02-02T10:36:47Z</time>
      </trkpt>
      <trkpt lat="45.8826" lon="4.65458">
        <ele>311</ele>
        <time>2018-02-02T10:36:48Z</time>
      </trkpt>
      <trkpt lat="45.88256" lon="4.65467">
        <ele>312</ele>
        <time>2018-02-02T10:36:52Z</time>
      </trkpt>
      <trkpt lat="45.88255" lon="4.65469">
        <ele>312</ele>
        <time>2018-02-02T10:36:53Z</time>
      </trkpt>
      <trkpt lat="45.88251" lon="4.65479">
        <ele>312</ele>
        <time>2018-02-02T10:36:57Z</time>
      </trkpt>
      <trkpt lat="45.8825" lon="4.65481">
        <ele>313</ele>
        <time>2018-02-02T10:36:58Z</time>
      </trkpt>
      <trkpt lat="45.88247" lon="4.65492">
        <ele>316</ele>
        <time>2018-02-02T10:37:02Z</time>
      </trkpt>
      <trkpt lat="45.88246" lon="4.65494">
        <ele>315</ele>
        <time>2018-02-02T10:37:03Z</time>
      </trkpt>
      <trkpt lat="45.88242" lon="4.65506">
        <ele>317</ele>
        <time>2018-02-02T10:37:07Z</time>
      </trkpt>
      <trkpt lat="45.88241" lon="4.65509">
        <ele>317</ele>
        <time>2018-02-02T10:37:08Z</time>
      </trkpt>
      <trkpt lat="45.88238" lon="4.65519">
        <ele>318</ele>
        <time>2018-02-02T10:37:12Z</time>
      </trkpt>
      <trkpt lat="45.88237" lon="4.65522">
        <ele>319</ele>
        <time>2018-02-02T10:37:13Z</time>
      </trkpt>
      <trkpt lat="45.88234" lon="4.65532">
        <ele>319</ele>
        <time>2018-02-02T10:37:17Z</time>
      </trkpt>
      <trkpt lat="45.88233" lon="4.65534">
        <ele>319</ele>
        <time>2018-02-02T10:37:18Z</time>
      </trkpt>
      <trkpt lat="45.88228" lon="4.65544">
        <ele>320</ele>
        <time>2018-02-02T10:37:22Z</time>
      </trkpt>
      <trkpt lat="45.88228" lon="4.65547">
        <ele>320</ele>
        <time>2018-02-02T10:37:23Z</time>
      </trkpt>
      <trkpt lat="45.88225" lon="4.65558">
        <ele>320</ele>
        <time>2018-02-02T10:37:27Z</time>
      </trkpt>
      <trkpt lat="45.88224" lon="4.65561">
        <ele>320</ele>
        <time>2018-02-02T10:37:28Z</time>
      </trkpt>
      <trkpt lat="45.88222" lon="4.65571">
        <ele>320</ele>
        <time>2018-02-02T10:37:31Z</time>
      </trkpt>
      <trkpt lat="45.88221" lon="4.65573">
        <ele>320</ele>
        <time>2018-02-02T10:37:32Z</time>
      </trkpt>
      <trkpt lat="45.88218" lon="4.65582">
        <ele>321</ele>
        <time>2018-02-02T10:37:35Z</time>
      </trkpt>
      <trkpt lat="45.88217" lon="4.65585">
        <ele>321</ele>
        <time>2018-02-02T10:37:36Z</time>
      </trkpt>
      <trkpt lat="45.88214" lon="4.65597">
        <ele>321</ele>
        <time>2018-02-02T10:37:40Z</time>
      </trkpt>
      <trkpt lat="45.88213" lon="4.65599">
        <ele>321</ele>
        <time>2018-02-02T10:37:41Z</time>
      </trkpt>
      <trkpt lat="45.88208" lon="4.65609">
        <ele>321</ele>
        <time>2018-02-02T10:37:45Z</time>
      </trkpt>
      <trkpt lat="45.88207" lon="4.65612">
        <ele>321</ele>
        <time>2018-02-02T10:37:46Z</time>
      </trkpt>
      <trkpt lat="45.88203" lon="4.65623">
        <ele>321</ele>
        <time>2018-02-02T10:37:50Z</time>
      </trkpt>
      <trkpt lat="45.88202" lon="4.65626">
        <ele>321</ele>
        <time>2018-02-02T10:37:51Z</time>
      </trkpt>
      <trkpt lat="45.882" lon="4.65637">
        <ele>321</ele>
        <time>2018-02-02T10:37:55Z</time>
      </trkpt>
      <trkpt lat="45.88199" lon="4.6564">
        <ele>321</ele>
        <time>2018-02-02T10:37:56Z</time>
      </trkpt>
      <trkpt lat="45.88195" lon="4.65651">
        <ele>322</ele>
        <time>2018-02-02T10:38:00Z</time>
      </trkpt>
      <trkpt lat="45.88194" lon="4.65653">
        <ele>322</ele>
        <time>2018-02-02T10:38:01Z</time>
      </trkpt>
      <trkpt lat="45.88189" lon="4.65663">
        <ele>322</ele>
        <time>2018-02-02T10:38:05Z</time>
      </trkpt>
      <trkpt lat="45.88188" lon="4.65665">
        <ele>322</ele>
        <time>2018-02-02T10:38:06Z</time>
      </trkpt>
      <trkpt lat="45.88183" lon="4.65673">
        <ele>322</ele>
        <time>2018-02-02T10:38:10Z</time>
      </trkpt>
      <trkpt lat="45.88182" lon="4.65675">
        <ele>322</ele>
        <time>2018-02-02T10:38:11Z</time>
      </trkpt>
      <trkpt lat="45.88177" lon="4.65685">
        <ele>322</ele>
        <time>2018-02-02T10:38:15Z</time>
      </trkpt>
      <trkpt lat="45.88176" lon="4.65687">
        <ele>322</ele>
        <time>2018-02-02T10:38:16Z</time>
      </trkpt>
      <trkpt lat="45.88172" lon="4.65697">
        <ele>322</ele>
        <time>2018-02-02T10:38:20Z</time>
      </trkpt>
      <trkpt lat="45.88171" lon="4.65699">
        <ele>322</ele>
        <time>2018-02-02T10:38:21Z</time>
      </trkpt>
      <trkpt lat="45.88164" lon="4.65708">
        <ele>331</ele>
        <time>2018-02-02T10:38:25Z</time>
      </trkpt>
      <trkpt lat="45.88163" lon="4.6571">
        <ele>331</ele>
        <time>2018-02-02T10:38:26Z</time>
      </trkpt>
      <trkpt lat="45.88159" lon="4.65721">
        <ele>331</ele>
        <time>2018-02-02T10:38:30Z</time>
      </trkpt>
      <trkpt lat="45.88157" lon="4.65723">
        <ele>331</ele>
        <time>2018-02-02T10:38:31Z</time>
      </trkpt>
      <trkpt lat="45.88152" lon="4.65732">
        <ele>331</ele>
        <time>2018-02-02T10:38:35Z</time>
      </trkpt>
      <trkpt lat="45.8815" lon="4.65734">
        <ele>331</ele>
        <time>2018-02-02T10:38:36Z</time>
      </trkpt>
      <trkpt lat="45.88144" lon="4.65742">
        <ele>331</ele>
        <time>2018-02-02T10:38:40Z</time>
      </trkpt>
      <trkpt lat="45.88143" lon="4.65743">
        <ele>331</ele>
        <time>2018-02-02T10:38:41Z</time>
      </trkpt>
      <trkpt lat="45.88137" lon="4.6575">
        <ele>332</ele>
        <time>2018-02-02T10:38:45Z</time>
      </trkpt>
      <trkpt lat="45.88135" lon="4.65752">
        <ele>331</ele>
        <time>2018-02-02T10:38:46Z</time>
      </trkpt>
      <trkpt lat="45.88129" lon="4.65757">
        <ele>332</ele>
        <time>2018-02-02T10:38:50Z</time>
      </trkpt>
      <trkpt lat="45.88127" lon="4.65759">
        <ele>333</ele>
        <time>2018-02-02T10:38:51Z</time>
      </trkpt>
      <trkpt lat="45.8812" lon="4.65765">
        <ele>333</ele>
        <time>2018-02-02T10:38:55Z</time>
      </trkpt>
      <trkpt lat="45.88119" lon="4.65767">
        <ele>334</ele>
        <time>2018-02-02T10:38:56Z</time>
      </trkpt>
      <trkpt lat="45.88113" lon="4.65776">
        <ele>334</ele>
        <time>2018-02-02T10:39:00Z</time>
      </trkpt>
      <trkpt lat="45.88111" lon="4.65777">
        <ele>334</ele>
        <time>2018-02-02T10:39:01Z</time>
      </trkpt>
      <trkpt lat="45.88104" lon="4.65785">
        <ele>334</ele>
        <time>2018-02-02T10:39:05Z</time>
      </trkpt>
      <trkpt lat="45.88102" lon="4.65787">
        <ele>334</ele>
        <time>2018-02-02T10:39:06Z</time>
      </trkpt>
      <trkpt lat="45.88096" lon="4.65793">
        <ele>334</ele>
        <time>2018-02-02T10:39:10Z</time>
      </trkpt>
      <trkpt lat="45.88093" lon="4.65795">
        <ele>334</ele>
        <time>2018-02-02T10:39:11Z</time>
      </trkpt>
      <trkpt lat="45.88087" lon="4.658">
        <ele>334</ele>
        <time>2018-02-02T10:39:14Z</time>
      </trkpt>
      <trkpt lat="45.88085" lon="4.65801">
        <ele>334</ele>
        <time>2018-02-02T10:39:15Z</time>
      </trkpt>
      <trkpt lat="45.88078" lon="4.65806">
        <ele>341</ele>
        <time>2018-02-02T10:39:18Z</time>
      </trkpt>
      <trkpt lat="45.88077" lon="4.65807">
        <ele>341</ele>
        <time>2018-02-02T10:39:19Z</time>
      </trkpt>
      <trkpt lat="45.88069" lon="4.65812">
        <ele>341</ele>
        <time>2018-02-02T10:39:23Z</time>
      </trkpt>
      <trkpt lat="45.88067" lon="4.65813">
        <ele>341</ele>
        <time>2018-02-02T10:39:24Z</time>
      </trkpt>
      <trkpt lat="45.8806" lon="4.65819">
        <ele>341</ele>
        <time>2018-02-02T10:39:28Z</time>
      </trkpt>
      <trkpt lat="45.88058" lon="4.6582">
        <ele>341</ele>
        <time>2018-02-02T10:39:29Z</time>
      </trkpt>
      <trkpt lat="45.88051" lon="4.65824">
        <ele>342</ele>
        <time>2018-02-02T10:39:32Z</time>
      </trkpt>
      <trkpt lat="45.88049" lon="4.65825">
        <ele>342</ele>
        <time>2018-02-02T10:39:33Z</time>
      </trkpt>
      <trkpt lat="45.88041" lon="4.65831">
        <ele>343</ele>
        <time>2018-02-02T10:39:37Z</time>
      </trkpt>
      <trkpt lat="45.88039" lon="4.65832">
        <ele>343</ele>
        <time>2018-02-02T10:39:38Z</time>
      </trkpt>
      <trkpt lat="45.88032" lon="4.65838">
        <ele>338</ele>
        <time>2018-02-02T10:39:42Z</time>
      </trkpt>
      <trkpt lat="45.8803" lon="4.65838">
        <ele>338</ele>
        <time>2018-02-02T10:39:43Z</time>
      </trkpt>
      <trkpt lat="45.88022" lon="4.65843">
        <ele>339</ele>
        <time>2018-02-02T10:39:46Z</time>
      </trkpt>
      <trkpt lat="45.8802" lon="4.65845">
        <ele>339</ele>
        <time>2018-02-02T10:39:47Z</time>
      </trkpt>
      <trkpt lat="45.88014" lon="4.65849">
        <ele>340</ele>
        <time>2018-02-02T10:39:50Z</time>
      </trkpt>
      <trkpt lat="45.88012" lon="4.6585">
        <ele>340</ele>
        <time>2018-02-02T10:39:51Z</time>
      </trkpt>
      <trkpt lat="45.88004" lon="4.65854">
        <ele>340</ele>
        <time>2018-02-02T10:39:54Z</time>
      </trkpt>
      <trkpt lat="45.88002" lon="4.65856">
        <ele>340</ele>
        <time>2018-02-02T10:39:55Z</time>
      </trkpt>
      <trkpt lat="45.87995" lon="4.65863">
        <ele>344</ele>
        <time>2018-02-02T10:39:58Z</time>
      </trkpt>
      <trkpt lat="45.87992" lon="4.65865">
        <ele>344</ele>
        <time>2018-02-02T10:39:59Z</time>
      </trkpt>
      <trkpt lat="45.87986" lon="4.65871">
        <ele>343</ele>
        <time>2018-02-02T10:40:02Z</time>
      </trkpt>
      <trkpt lat="45.87984" lon="4.65873">
        <ele>343</ele>
        <time>2018-02-02T10:40:03Z</time>
      </trkpt>
      <trkpt lat="45.87978" lon="4.65883">
        <ele>343</ele>
        <time>2018-02-02T10:40:06Z</time>
      </trkpt>
      <trkpt lat="45.87976" lon="4.65886">
        <ele>343</ele>
        <time>2018-02-02T10:40:07Z</time>
      </trkpt>
      <trkpt lat="45.87972" lon="4.65895">
        <ele>342</ele>
        <time>2018-02-02T10:40:10Z</time>
      </trkpt>
      <trkpt lat="45.8797" lon="4.65897">
        <ele>342</ele>
        <time>2018-02-02T10:40:11Z</time>
      </trkpt>
      <trkpt lat="45.87965" lon="4.65905">
        <ele>342</ele>
        <time>2018-02-02T10:40:14Z</time>
      </trkpt>
      <trkpt lat="45.87963" lon="4.65909">
        <ele>342</ele>
        <time>2018-02-02T10:40:15Z</time>
      </trkpt>
      <trkpt lat="45.87958" lon="4.65916">
        <ele>343</ele>
        <time>2018-02-02T10:40:17Z</time>
      </trkpt>
      <trkpt lat="45.87956" lon="4.6592">
        <ele>340</ele>
        <time>2018-02-02T10:40:18Z</time>
      </trkpt>
      <trkpt lat="45.87951" lon="4.65928">
        <ele>340</ele>
        <time>2018-02-02T10:40:21Z</time>
      </trkpt>
      <trkpt lat="45.87949" lon="4.6593">
        <ele>341</ele>
        <time>2018-02-02T10:40:22Z</time>
      </trkpt>
      <trkpt lat="45.87944" lon="4.65938">
        <ele>341</ele>
        <time>2018-02-02T10:40:25Z</time>
      </trkpt>
      <trkpt lat="45.87942" lon="4.65941">
        <ele>341</ele>
        <time>2018-02-02T10:40:26Z</time>
      </trkpt>
      <trkpt lat="45.87939" lon="4.6595">
        <ele>341</ele>
        <time>2018-02-02T10:40:29Z</time>
      </trkpt>
      <trkpt lat="45.87939" lon="4.65953">
        <ele>341</ele>
        <time>2018-02-02T10:40:30Z</time>
      </trkpt>
      <trkpt lat="45.87936" lon="4.65965">
        <ele>341</ele>
        <time>2018-02-02T10:40:34Z</time>
      </trkpt>
      <trkpt lat="45.87935" lon="4.65968">
        <ele>341</ele>
        <time>2018-02-02T10:40:35Z</time>
      </trkpt>
      <trkpt lat="45.87934" lon="4.65978">
        <ele>341</ele>
        <time>2018-02-02T10:40:38Z</time>
      </trkpt>
      <trkpt lat="45.87933" lon="4.6598">
        <ele>341</ele>
        <time>2018-02-02T10:40:39Z</time>
      </trkpt>
      <trkpt lat="45.87929" lon="4.65991">
        <ele>342</ele>
        <time>2018-02-02T10:40:43Z</time>
      </trkpt>
      <trkpt lat="45.87928" lon="4.65994">
        <ele>342</ele>
        <time>2018-02-02T10:40:44Z</time>
      </trkpt>
      <trkpt lat="45.87926" lon="4.66005">
        <ele>342</ele>
        <time>2018-02-02T10:40:48Z</time>
      </trkpt>
      <trkpt lat="45.87926" lon="4.66008">
        <ele>342</ele>
        <time>2018-02-02T10:40:49Z</time>
      </trkpt>
      <trkpt lat="45.87926" lon="4.66021">
        <ele>342</ele>
        <time>2018-02-02T10:40:53Z</time>
      </trkpt>
      <trkpt lat="45.87926" lon="4.66023">
        <ele>342</ele>
        <time>2018-02-02T10:40:54Z</time>
      </trkpt>
      <trkpt lat="45.87926" lon="4.66034">
        <ele>342</ele>
        <time>2018-02-02T10:40:58Z</time>
      </trkpt>
      <trkpt lat="45.87925" lon="4.66037">
        <ele>342</ele>
        <time>2018-02-02T10:40:59Z</time>
      </trkpt>
      <trkpt lat="45.87923" lon="4.66048">
        <ele>342</ele>
        <time>2018-02-02T10:41:03Z</time>
      </trkpt>
      <trkpt lat="45.87923" lon="4.66051">
        <ele>342</ele>
        <time>2018-02-02T10:41:04Z</time>
      </trkpt>
      <trkpt lat="45.87924" lon="4.66061">
        <ele>342</ele>
        <time>2018-02-02T10:41:07Z</time>
      </trkpt>
      <trkpt lat="45.87925" lon="4.66064">
        <ele>343</ele>
        <time>2018-02-02T10:41:08Z</time>
      </trkpt>
      <trkpt lat="45.87924" lon="4.66077">
        <ele>343</ele>
        <time>2018-02-02T10:41:12Z</time>
      </trkpt>
      <trkpt lat="45.87923" lon="4.6608">
        <ele>343</ele>
        <time>2018-02-02T10:41:13Z</time>
      </trkpt>
      <trkpt lat="45.87924" lon="4.66091">
        <ele>345</ele>
        <time>2018-02-02T10:41:17Z</time>
      </trkpt>
      <trkpt lat="45.87925" lon="4.66094">
        <ele>345</ele>
        <time>2018-02-02T10:41:18Z</time>
      </trkpt>
      <trkpt lat="45.87926" lon="4.66106">
        <ele>346</ele>
        <time>2018-02-02T10:41:22Z</time>
      </trkpt>
      <trkpt lat="45.87926" lon="4.66109">
        <ele>347</ele>
        <time>2018-02-02T10:41:23Z</time>
      </trkpt>
      <trkpt lat="45.87926" lon="4.66121">
        <ele>348</ele>
        <time>2018-02-02T10:41:27Z</time>
      </trkpt>
      <trkpt lat="45.87926" lon="4.66124">
        <ele>348</ele>
        <time>2018-02-02T10:41:28Z</time>
      </trkpt>
      <trkpt lat="45.87929" lon="4.66134">
        <ele>349</ele>
        <time>2018-02-02T10:41:32Z</time>
      </trkpt>
      <trkpt lat="45.87931" lon="4.66136">
        <ele>349</ele>
        <time>2018-02-02T10:41:33Z</time>
      </trkpt>
      <trkpt lat="45.87938" lon="4.66139">
        <ele>349</ele>
        <time>2018-02-02T10:41:36Z</time>
      </trkpt>
      <trkpt lat="45.87941" lon="4.6614">
        <ele>349</ele>
        <time>2018-02-02T10:41:37Z</time>
      </trkpt>
      <trkpt lat="45.87947" lon="4.6614">
        <ele>349</ele>
        <time>2018-02-02T10:41:39Z</time>
      </trkpt>
      <trkpt lat="45.8795" lon="4.6614">
        <ele>348</ele>
        <time>2018-02-02T10:41:40Z</time>
      </trkpt>
      <trkpt lat="45.87959" lon="4.66139">
        <ele>348</ele>
        <time>2018-02-02T10:41:43Z</time>
      </trkpt>
      <trkpt lat="45.87961" lon="4.66139">
        <ele>348</ele>
        <time>2018-02-02T10:41:44Z</time>
      </trkpt>
      <trkpt lat="45.87969" lon="4.6614">
        <ele>348</ele>
        <time>2018-02-02T10:41:47Z</time>
      </trkpt>
      <trkpt lat="45.87972" lon="4.6614">
        <ele>348</ele>
        <time>2018-02-02T10:41:48Z</time>
      </trkpt>
      <trkpt lat="45.87978" lon="4.6614">
        <ele>348</ele>
        <time>2018-02-02T10:41:50Z</time>
      </trkpt>
      <trkpt lat="45.87982" lon="4.66139">
        <ele>348</ele>
        <time>2018-02-02T10:41:51Z</time>
      </trkpt>
      <trkpt lat="45.87988" lon="4.66139">
        <ele>348</ele>
        <time>2018-02-02T10:41:53Z</time>
      </trkpt>
      <trkpt lat="45.87992" lon="4.66139">
        <ele>348</ele>
        <time>2018-02-02T10:41:54Z</time>
      </trkpt>
      <trkpt lat="45.87998" lon="4.66139">
        <ele>348</ele>
        <time>2018-02-02T10:41:56Z</time>
      </trkpt>
      <trkpt lat="45.88001" lon="4.66139">
        <ele>348</ele>
        <time>2018-02-02T10:41:57Z</time>
      </trkpt>
      <trkpt lat="45.88008" lon="4.66139">
        <ele>348</ele>
        <time>2018-02-02T10:41:59Z</time>
      </trkpt>
      <trkpt lat="45.88011" lon="4.66139">
        <ele>348</ele>
        <time>2018-02-02T10:42:00Z</time>
      </trkpt>
      <trkpt lat="45.88018" lon="4.66139">
        <ele>348</ele>
        <time>2018-02-02T10:42:02Z</time>
      </trkpt>
      <trkpt lat="45.88021" lon="4.66139">
        <ele>348</ele>
        <time>2018-02-02T10:42:03Z</time>
      </trkpt>
      <trkpt lat="45.88027" lon="4.66138">
        <ele>348</ele>
        <time>2018-02-02T10:42:05Z</time>
      </trkpt>
      <trkpt lat="45.8803" lon="4.66139">
        <ele>348</ele>
        <time>2018-02-02T10:42:06Z</time>
      </trkpt>
      <trkpt lat="45.88039" lon="4.66138">
        <ele>347</ele>
        <time>2018-02-02T10:42:09Z</time>
      </trkpt>
      <trkpt lat="45.88043" lon="4.66138">
        <ele>347</ele>
        <time>2018-02-02T10:42:10Z</time>
      </trkpt>
      <trkpt lat="45.8805" lon="4.66138">
        <ele>348</ele>
        <time>2018-02-02T10:42:12Z</time>
      </trkpt>
      <trkpt lat="45.88054" lon="4.66137">
        <ele>348</ele>
        <time>2018-02-02T10:42:13Z</time>
      </trkpt>
      <trkpt lat="45.88062" lon="4.66137">
        <ele>348</ele>
        <time>2018-02-02T10:42:15Z</time>
      </trkpt>
      <trkpt lat="45.88065" lon="4.66137">
        <ele>348</ele>
        <time>2018-02-02T10:42:16Z</time>
      </trkpt>
      <trkpt lat="45.88071" lon="4.66137">
        <ele>348</ele>
        <time>2018-02-02T10:42:18Z</time>
      </trkpt>
      <trkpt lat="45.88075" lon="4.66137">
        <ele>348</ele>
        <time>2018-02-02T10:42:19Z</time>
      </trkpt>
      <trkpt lat="45.88081" lon="4.66135">
        <ele>348</ele>
        <time>2018-02-02T10:42:22Z</time>
      </trkpt>
      <trkpt lat="45.88084" lon="4.66135">
        <ele>349</ele>
        <time>2018-02-02T10:42:23Z</time>
      </trkpt>
      <trkpt lat="45.8809" lon="4.66134">
        <ele>349</ele>
        <time>2018-02-02T10:42:25Z</time>
      </trkpt>
      <trkpt lat="45.88093" lon="4.66133">
        <ele>349</ele>
        <time>2018-02-02T10:42:26Z</time>
      </trkpt>
      <trkpt lat="45.881" lon="4.66133">
        <ele>348</ele>
        <time>2018-02-02T10:42:28Z</time>
      </trkpt>
      <trkpt lat="45.88103" lon="4.66132">
        <ele>348</ele>
        <time>2018-02-02T10:42:29Z</time>
      </trkpt>
      <trkpt lat="45.8811" lon="4.66131">
        <ele>348</ele>
        <time>2018-02-02T10:42:31Z</time>
      </trkpt>
      <trkpt lat="45.88114" lon="4.66131">
        <ele>348</ele>
        <time>2018-02-02T10:42:32Z</time>
      </trkpt>
      <trkpt lat="45.88121" lon="4.6613">
        <ele>348</ele>
        <time>2018-02-02T10:42:34Z</time>
      </trkpt>
      <trkpt lat="45.88124" lon="4.66129">
        <ele>349</ele>
        <time>2018-02-02T10:42:35Z</time>
      </trkpt>
      <trkpt lat="45.8813" lon="4.66128">
        <ele>349</ele>
        <time>2018-02-02T10:42:37Z</time>
      </trkpt>
      <trkpt lat="45.88133" lon="4.66128">
        <ele>349</ele>
        <time>2018-02-02T10:42:38Z</time>
      </trkpt>
      <trkpt lat="45.8814" lon="4.66128">
        <ele>349</ele>
        <time>2018-02-02T10:42:40Z</time>
      </trkpt>
      <trkpt lat="45.88143" lon="4.66128">
        <ele>349</ele>
        <time>2018-02-02T10:42:41Z</time>
      </trkpt>
      <trkpt lat="45.8815" lon="4.66128">
        <ele>349</ele>
        <time>2018-02-02T10:42:43Z</time>
      </trkpt>
      <trkpt lat="45.88154" lon="4.66127">
        <ele>349</ele>
        <time>2018-02-02T10:42:44Z</time>
      </trkpt>
      <trkpt lat="45.88161" lon="4.66125">
        <ele>349</ele>
        <time>2018-02-02T10:42:46Z</time>
      </trkpt>
      <trkpt lat="45.88165" lon="4.66124">
        <ele>349</ele>
        <time>2018-02-02T10:42:47Z</time>
      </trkpt>
      <trkpt lat="45.88172" lon="4.66124">
        <ele>349</ele>
        <time>2018-02-02T10:42:49Z</time>
      </trkpt>
      <trkpt lat="45.88175" lon="4.66124">
        <ele>349</ele>
        <time>2018-02-02T10:42:50Z</time>
      </trkpt>
      <trkpt lat="45.88183" lon="4.66123">
        <ele>349</ele>
        <time>2018-02-02T10:42:53Z</time>
      </trkpt>
      <trkpt lat="45.88186" lon="4.66123">
        <ele>349</ele>
        <time>2018-02-02T10:42:54Z</time>
      </trkpt>
      <trkpt lat="45.88194" lon="4.66123">
        <ele>349</ele>
        <time>2018-02-02T10:42:57Z</time>
      </trkpt>
      <trkpt lat="45.88197" lon="4.66123">
        <ele>349</ele>
        <time>2018-02-02T10:42:58Z</time>
      </trkpt>
      <trkpt lat="45.88205" lon="4.66126">
        <ele>349</ele>
        <time>2018-02-02T10:43:01Z</time>
      </trkpt>
      <trkpt lat="45.88208" lon="4.66126">
        <ele>349</ele>
        <time>2018-02-02T10:43:02Z</time>
      </trkpt>
      <trkpt lat="45.88216" lon="4.66127">
        <ele>349</ele>
        <time>2018-02-02T10:43:05Z</time>
      </trkpt>
      <trkpt lat="45.88218" lon="4.66127">
        <ele>349</ele>
        <time>2018-02-02T10:43:06Z</time>
      </trkpt>
      <trkpt lat="45.88225" lon="4.66128">
        <ele>349</ele>
        <time>2018-02-02T10:43:09Z</time>
      </trkpt>
      <trkpt lat="45.88228" lon="4.66128">
        <ele>349</ele>
        <time>2018-02-02T10:43:10Z</time>
      </trkpt>
      <trkpt lat="45.88235" lon="4.66129">
        <ele>350</ele>
        <time>2018-02-02T10:43:13Z</time>
      </trkpt>
      <trkpt lat="45.88238" lon="4.66129">
        <ele>350</ele>
        <time>2018-02-02T10:43:14Z</time>
      </trkpt>
      <trkpt lat="45.88245" lon="4.66131">
        <ele>350</ele>
        <time>2018-02-02T10:43:17Z</time>
      </trkpt>
      <trkpt lat="45.88248" lon="4.66131">
        <ele>350</ele>
        <time>2018-02-02T10:43:18Z</time>
      </trkpt>
      <trkpt lat="45.88255" lon="4.66131">
        <ele>351</ele>
        <time>2018-02-02T10:43:21Z</time>
      </trkpt>
      <trkpt lat="45.88258" lon="4.66131">
        <ele>351</ele>
        <time>2018-02-02T10:43:22Z</time>
      </trkpt>
      <trkpt lat="45.88266" lon="4.66132">
        <ele>351</ele>
        <time>2018-02-02T10:43:25Z</time>
      </trkpt>
      <trkpt lat="45.88269" lon="4.66132">
        <ele>351</ele>
        <time>2018-02-02T10:43:26Z</time>
      </trkpt>
      <trkpt lat="45.88277" lon="4.66133">
        <ele>352</ele>
        <time>2018-02-02T10:43:29Z</time>
      </trkpt>
      <trkpt lat="45.8828" lon="4.66134">
        <ele>352</ele>
        <time>2018-02-02T10:43:30Z</time>
      </trkpt>
      <trkpt lat="45.88288" lon="4.66134">
        <ele>352</ele>
        <time>2018-02-02T10:43:33Z</time>
      </trkpt>
      <trkpt lat="45.88291" lon="4.66135">
        <ele>352</ele>
        <time>2018-02-02T10:43:34Z</time>
      </trkpt>
      <trkpt lat="45.88297" lon="4.66137">
        <ele>353</ele>
        <time>2018-02-02T10:43:36Z</time>
      </trkpt>
      <trkpt lat="45.883" lon="4.66137">
        <ele>353</ele>
        <time>2018-02-02T10:43:37Z</time>
      </trkpt>
      <trkpt lat="45.88308" lon="4.66138">
        <ele>353</ele>
        <time>2018-02-02T10:43:40Z</time>
      </trkpt>
      <trkpt lat="45.88311" lon="4.66139">
        <ele>353</ele>
        <time>2018-02-02T10:43:41Z</time>
      </trkpt>
      <trkpt lat="45.88319" lon="4.66139">
        <ele>354</ele>
        <time>2018-02-02T10:43:44Z</time>
      </trkpt>
      <trkpt lat="45.88322" lon="4.66139">
        <ele>354</ele>
        <time>2018-02-02T10:43:45Z</time>
      </trkpt>
      <trkpt lat="45.88331" lon="4.6614">
        <ele>354</ele>
        <time>2018-02-02T10:43:48Z</time>
      </trkpt>
      <trkpt lat="45.88333" lon="4.6614">
        <ele>354</ele>
        <time>2018-02-02T10:43:49Z</time>
      </trkpt>
      <trkpt lat="45.88342" lon="4.66141">
        <ele>357</ele>
        <time>2018-02-02T10:43:52Z</time>
      </trkpt>
      <trkpt lat="45.88345" lon="4.66141">
        <ele>357</ele>
        <time>2018-02-02T10:43:53Z</time>
      </trkpt>
      <trkpt lat="45.88353" lon="4.66141">
        <ele>357</ele>
        <time>2018-02-02T10:43:56Z</time>
      </trkpt>
      <trkpt lat="45.88356" lon="4.66141">
        <ele>357</ele>
        <time>2018-02-02T10:43:57Z</time>
      </trkpt>
      <trkpt lat="45.88363" lon="4.66142">
        <ele>357</ele>
        <time>2018-02-02T10:44:00Z</time>
      </trkpt>
      <trkpt lat="45.88365" lon="4.66142">
        <ele>357</ele>
        <time>2018-02-02T10:44:01Z</time>
      </trkpt>
      <trkpt lat="45.88373" lon="4.66144">
        <ele>357</ele>
        <time>2018-02-02T10:44:04Z</time>
      </trkpt>
      <trkpt lat="45.88375" lon="4.66144">
        <ele>357</ele>
        <time>2018-02-02T10:44:05Z</time>
      </trkpt>
      <trkpt lat="45.88382" lon="4.66143">
        <ele>357</ele>
        <time>2018-02-02T10:44:08Z</time>
      </trkpt>
      <trkpt lat="45.88384" lon="4.66143">
        <ele>357</ele>
        <time>2018-02-02T10:44:09Z</time>
      </trkpt>
      <trkpt lat="45.88393" lon="4.66142">
        <ele>358</ele>
        <time>2018-02-02T10:44:13Z</time>
      </trkpt>
      <trkpt lat="45.88395" lon="4.66142">
        <ele>358</ele>
        <time>2018-02-02T10:44:14Z</time>
      </trkpt>
      <trkpt lat="45.88403" lon="4.66142">
        <ele>358</ele>
        <time>2018-02-02T10:44:18Z</time>
      </trkpt>
      <trkpt lat="45.88405" lon="4.66143">
        <ele>358</ele>
        <time>2018-02-02T10:44:19Z</time>
      </trkpt>
      <trkpt lat="45.88412" lon="4.66143">
        <ele>359</ele>
        <time>2018-02-02T10:44:23Z</time>
      </trkpt>
      <trkpt lat="45.88414" lon="4.66143">
        <ele>359</ele>
        <time>2018-02-02T10:44:24Z</time>
      </trkpt>
      <trkpt lat="45.88422" lon="4.66143">
        <ele>361</ele>
        <time>2018-02-02T10:44:28Z</time>
      </trkpt>
      <trkpt lat="45.88424" lon="4.66144">
        <ele>361</ele>
        <time>2018-02-02T10:44:29Z</time>
      </trkpt>
      <trkpt lat="45.88432" lon="4.66146">
        <ele>361</ele>
        <time>2018-02-02T10:44:34Z</time>
      </trkpt>
      <trkpt lat="45.88434" lon="4.66146">
        <ele>361</ele>
        <time>2018-02-02T10:44:35Z</time>
      </trkpt>
      <trkpt lat="45.88441" lon="4.66147">
        <ele>361</ele>
        <time>2018-02-02T10:44:40Z</time>
      </trkpt>
      <trkpt lat="45.88443" lon="4.66147">
        <ele>361</ele>
        <time>2018-02-02T10:44:41Z</time>
      </trkpt>
      <trkpt lat="45.8845" lon="4.66147">
        <ele>361</ele>
        <time>2018-02-02T10:44:45Z</time>
      </trkpt>
      <trkpt lat="45.88452" lon="4.66147">
        <ele>361</ele>
        <time>2018-02-02T10:44:46Z</time>
      </trkpt>
      <trkpt lat="45.8846" lon="4.66148">
        <ele>361</ele>
        <time>2018-02-02T10:44:50Z</time>
      </trkpt>
      <trkpt lat="45.88462" lon="4.66149">
        <ele>361</ele>
        <time>2018-02-02T10:44:51Z</time>
      </trkpt>
      <trkpt lat="45.88469" lon="4.66149">
        <ele>362</ele>
        <time>2018-02-02T10:44:55Z</time>
      </trkpt>
      <trkpt lat="45.88471" lon="4.66149">
        <ele>362</ele>
        <time>2018-02-02T10:44:56Z</time>
      </trkpt>
      <trkpt lat="45.88479" lon="4.6615">
        <ele>362</ele>
        <time>2018-02-02T10:45:01Z</time>
      </trkpt>
      <trkpt lat="45.88481" lon="4.6615">
        <ele>362</ele>
        <time>2018-02-02T10:45:02Z</time>
      </trkpt>
      <trkpt lat="45.88487" lon="4.66155">
        <ele>363</ele>
        <time>2018-02-02T10:45:06Z</time>
      </trkpt>
      <trkpt lat="45.88489" lon="4.66156">
        <ele>364</ele>
        <time>2018-02-02T10:45:07Z</time>
      </trkpt>
      <trkpt lat="45.88495" lon="4.66161">
        <ele>365</ele>
        <time>2018-02-02T10:45:11Z</time>
      </trkpt>
      <trkpt lat="45.88497" lon="4.66162">
        <ele>366</ele>
        <time>2018-02-02T10:45:12Z</time>
      </trkpt>
      <trkpt lat="45.88504" lon="4.66167">
        <ele>368</ele>
        <time>2018-02-02T10:45:17Z</time>
      </trkpt>
      <trkpt lat="45.88506" lon="4.66169">
        <ele>368</ele>
        <time>2018-02-02T10:45:18Z</time>
      </trkpt>
      <trkpt lat="45.88513" lon="4.66174">
        <ele>368</ele>
        <time>2018-02-02T10:45:22Z</time>
      </trkpt>
      <trkpt lat="45.88515" lon="4.66174">
        <ele>368</ele>
        <time>2018-02-02T10:45:23Z</time>
      </trkpt>
      <trkpt lat="45.88522" lon="4.6618">
        <ele>369</ele>
        <time>2018-02-02T10:45:27Z</time>
      </trkpt>
      <trkpt lat="45.88524" lon="4.66182">
        <ele>369</ele>
        <time>2018-02-02T10:45:28Z</time>
      </trkpt>
      <trkpt lat="45.8853" lon="4.66189">
        <ele>369</ele>
        <time>2018-02-02T10:45:32Z</time>
      </trkpt>
      <trkpt lat="45.88531" lon="4.6619">
        <ele>369</ele>
        <time>2018-02-02T10:45:33Z</time>
      </trkpt>
      <trkpt lat="45.88538" lon="4.66195">
        <ele>369</ele>
        <time>2018-02-02T10:45:37Z</time>
      </trkpt>
      <trkpt lat="45.8854" lon="4.66197">
        <ele>369</ele>
        <time>2018-02-02T10:45:38Z</time>
      </trkpt>
      <trkpt lat="45.88547" lon="4.66203">
        <ele>370</ele>
        <time>2018-02-02T10:45:42Z</time>
      </trkpt>
      <trkpt lat="45.88549" lon="4.66204">
        <ele>370</ele>
        <time>2018-02-02T10:45:43Z</time>
      </trkpt>
      <trkpt lat="45.88556" lon="4.66211">
        <ele>370</ele>
        <time>2018-02-02T10:45:47Z</time>
      </trkpt>
      <trkpt lat="45.88557" lon="4.66213">
        <ele>370</ele>
        <time>2018-02-02T10:45:48Z</time>
      </trkpt>
      <trkpt lat="45.88564" lon="4.66218">
        <ele>370</ele>
        <time>2018-02-02T10:45:52Z</time>
      </trkpt>
      <trkpt lat="45.88566" lon="4.6622">
        <ele>370</ele>
        <time>2018-02-02T10:45:53Z</time>
      </trkpt>
      <trkpt lat="45.88572" lon="4.66226">
        <ele>370</ele>
        <time>2018-02-02T10:45:57Z</time>
      </trkpt>
      <trkpt lat="45.88574" lon="4.66228">
        <ele>370</ele>
        <time>2018-02-02T10:45:58Z</time>
      </trkpt>
      <trkpt lat="45.8858" lon="4.66235">
        <ele>370</ele>
        <time>2018-02-02T10:46:02Z</time>
      </trkpt>
      <trkpt lat="45.88582" lon="4.66237">
        <ele>371</ele>
        <time>2018-02-02T10:46:03Z</time>
      </trkpt>
      <trkpt lat="45.88588" lon="4.66246">
        <ele>369</ele>
        <time>2018-02-02T10:46:07Z</time>
      </trkpt>
      <trkpt lat="45.88589" lon="4.66248">
        <ele>369</ele>
        <time>2018-02-02T10:46:08Z</time>
      </trkpt>
      <trkpt lat="45.88595" lon="4.66255">
        <ele>371</ele>
        <time>2018-02-02T10:46:12Z</time>
      </trkpt>
      <trkpt lat="45.88596" lon="4.66258">
        <ele>371</ele>
        <time>2018-02-02T10:46:13Z</time>
      </trkpt>
      <trkpt lat="45.88601" lon="4.66268">
        <ele>372</ele>
        <time>2018-02-02T10:46:17Z</time>
      </trkpt>
      <trkpt lat="45.88603" lon="4.66271">
        <ele>372</ele>
        <time>2018-02-02T10:46:18Z</time>
      </trkpt>
      <trkpt lat="45.88608" lon="4.6628">
        <ele>372</ele>
        <time>2018-02-02T10:46:22Z</time>
      </trkpt>
      <trkpt lat="45.88609" lon="4.66282">
        <ele>372</ele>
        <time>2018-02-02T10:46:23Z</time>
      </trkpt>
      <trkpt lat="45.88616" lon="4.6629">
        <ele>372</ele>
        <time>2018-02-02T10:46:27Z</time>
      </trkpt>
      <trkpt lat="45.88617" lon="4.66292">
        <ele>372</ele>
        <time>2018-02-02T10:46:28Z</time>
      </trkpt>
      <trkpt lat="45.88622" lon="4.66302">
        <ele>373</ele>
        <time>2018-02-02T10:46:32Z</time>
      </trkpt>
      <trkpt lat="45.88624" lon="4.66304">
        <ele>373</ele>
        <time>2018-02-02T10:46:33Z</time>
      </trkpt>
      <trkpt lat="45.88628" lon="4.66315">
        <ele>373</ele>
        <time>2018-02-02T10:46:37Z</time>
      </trkpt>
      <trkpt lat="45.8863" lon="4.66317">
        <ele>373</ele>
        <time>2018-02-02T10:46:38Z</time>
      </trkpt>
      <trkpt lat="45.88634" lon="4.66325">
        <ele>373</ele>
        <time>2018-02-02T10:46:41Z</time>
      </trkpt>
      <trkpt lat="45.88636" lon="4.66327">
        <ele>373</ele>
        <time>2018-02-02T10:46:42Z</time>
      </trkpt>
      <trkpt lat="45.88642" lon="4.66335">
        <ele>378</ele>
        <time>2018-02-02T10:46:46Z</time>
      </trkpt>
      <trkpt lat="45.88644" lon="4.66338">
        <ele>378</ele>
        <time>2018-02-02T10:46:47Z</time>
      </trkpt>
      <trkpt lat="45.88649" lon="4.66347">
        <ele>378</ele>
        <time>2018-02-02T10:46:50Z</time>
      </trkpt>
      <trkpt lat="45.8865" lon="4.66349">
        <ele>378</ele>
        <time>2018-02-02T10:46:51Z</time>
      </trkpt>
      <trkpt lat="45.88654" lon="4.66358">
        <ele>379</ele>
        <time>2018-02-02T10:46:54Z</time>
      </trkpt>
      <trkpt lat="45.88655" lon="4.6636">
        <ele>379</ele>
        <time>2018-02-02T10:46:55Z</time>
      </trkpt>
      <trkpt lat="45.88662" lon="4.66368">
        <ele>380</ele>
        <time>2018-02-02T10:46:59Z</time>
      </trkpt>
      <trkpt lat="45.88663" lon="4.6637">
        <ele>380</ele>
        <time>2018-02-02T10:47:00Z</time>
      </trkpt>
      <trkpt lat="45.88669" lon="4.66377">
        <ele>376</ele>
        <time>2018-02-02T10:47:04Z</time>
      </trkpt>
      <trkpt lat="45.88671" lon="4.66379">
        <ele>377</ele>
        <time>2018-02-02T10:47:05Z</time>
      </trkpt>
      <trkpt lat="45.88676" lon="4.66385">
        <ele>377</ele>
        <time>2018-02-02T10:47:08Z</time>
      </trkpt>
      <trkpt lat="45.88678" lon="4.66387">
        <ele>377</ele>
        <time>2018-02-02T10:47:09Z</time>
      </trkpt>
      <trkpt lat="45.88684" lon="4.66392">
        <ele>378</ele>
        <time>2018-02-02T10:47:12Z</time>
      </trkpt>
      <trkpt lat="45.88686" lon="4.66394">
        <ele>378</ele>
        <time>2018-02-02T10:47:13Z</time>
      </trkpt>
      <trkpt lat="45.88692" lon="4.66399">
        <ele>378</ele>
        <time>2018-02-02T10:47:16Z</time>
      </trkpt>
      <trkpt lat="45.88694" lon="4.66401">
        <ele>378</ele>
        <time>2018-02-02T10:47:17Z</time>
      </trkpt>
      <trkpt lat="45.88701" lon="4.66409">
        <ele>378</ele>
        <time>2018-02-02T10:47:21Z</time>
      </trkpt>
      <trkpt lat="45.88703" lon="4.6641">
        <ele>378</ele>
        <time>2018-02-02T10:47:22Z</time>
      </trkpt>
      <trkpt lat="45.8871" lon="4.66418">
        <ele>383</ele>
        <time>2018-02-02T10:47:26Z</time>
      </trkpt>
      <trkpt lat="45.88711" lon="4.6642">
        <ele>383</ele>
        <time>2018-02-02T10:47:27Z</time>
      </trkpt>
      <trkpt lat="45.88718" lon="4.66426">
        <ele>383</ele>
        <time>2018-02-02T10:47:31Z</time>
      </trkpt>
      <trkpt lat="45.8872" lon="4.66428">
        <ele>383</ele>
        <time>2018-02-02T10:47:32Z</time>
      </trkpt>
      <trkpt lat="45.88726" lon="4.66436">
        <ele>383</ele>
        <time>2018-02-02T10:47:36Z</time>
      </trkpt>
      <trkpt lat="45.88728" lon="4.66438">
        <ele>383</ele>
        <time>2018-02-02T10:47:37Z</time>
      </trkpt>
      <trkpt lat="45.88734" lon="4.66445">
        <ele>383</ele>
        <time>2018-02-02T10:47:41Z</time>
      </trkpt>
      <trkpt lat="45.88736" lon="4.66447">
        <ele>383</ele>
        <time>2018-02-02T10:47:42Z</time>
      </trkpt>
      <trkpt lat="45.88741" lon="4.66455">
        <ele>384</ele>
        <time>2018-02-02T10:47:46Z</time>
      </trkpt>
      <trkpt lat="45.88743" lon="4.66457">
        <ele>384</ele>
        <time>2018-02-02T10:47:47Z</time>
      </trkpt>
      <trkpt lat="45.88749" lon="4.66464">
        <ele>384</ele>
        <time>2018-02-02T10:47:51Z</time>
      </trkpt>
      <trkpt lat="45.88751" lon="4.66466">
        <ele>382</ele>
        <time>2018-02-02T10:47:52Z</time>
      </trkpt>
      <trkpt lat="45.88757" lon="4.66474">
        <ele>383</ele>
        <time>2018-02-02T10:47:57Z</time>
      </trkpt>
      <trkpt lat="45.88759" lon="4.66477">
        <ele>383</ele>
        <time>2018-02-02T10:47:58Z</time>
      </trkpt>
      <trkpt lat="45.88765" lon="4.66484">
        <ele>383</ele>
        <time>2018-02-02T10:48:03Z</time>
      </trkpt>
      <trkpt lat="45.88766" lon="4.66486">
        <ele>383</ele>
        <time>2018-02-02T10:48:04Z</time>
      </trkpt>
      <trkpt lat="45.88772" lon="4.66493">
        <ele>383</ele>
        <time>2018-02-02T10:48:08Z</time>
      </trkpt>
      <trkpt lat="45.88773" lon="4.66495">
        <ele>384</ele>
        <time>2018-02-02T10:48:09Z</time>
      </trkpt>
      <trkpt lat="45.88778" lon="4.66503">
        <ele>389</ele>
        <time>2018-02-02T10:48:13Z</time>
      </trkpt>
      <trkpt lat="45.88779" lon="4.66505">
        <ele>390</ele>
        <time>2018-02-02T10:48:14Z</time>
      </trkpt>
      <trkpt lat="45.88786" lon="4.66511">
        <ele>390</ele>
        <time>2018-02-02T10:48:18Z</time>
      </trkpt>
      <trkpt lat="45.88787" lon="4.66513">
        <ele>390</ele>
        <time>2018-02-02T10:48:19Z</time>
      </trkpt>
      <trkpt lat="45.88794" lon="4.66519">
        <ele>390</ele>
        <time>2018-02-02T10:48:23Z</time>
      </trkpt>
      <trkpt lat="45.88796" lon="4.6652">
        <ele>390</ele>
        <time>2018-02-02T10:48:24Z</time>
      </trkpt>
      <trkpt lat="45.88802" lon="4.66527">
        <ele>390</ele>
        <time>2018-02-02T10:48:28Z</time>
      </trkpt>
      <trkpt lat="45.88803" lon="4.66529">
        <ele>390</ele>
        <time>2018-02-02T10:48:29Z</time>
      </trkpt>
      <trkpt lat="45.8881" lon="4.66534">
        <ele>391</ele>
        <time>2018-02-02T10:48:33Z</time>
      </trkpt>
      <trkpt lat="45.88811" lon="4.66536">
        <ele>391</ele>
        <time>2018-02-02T10:48:34Z</time>
      </trkpt>
      <trkpt lat="45.88819" lon="4.66541">
        <ele>391</ele>
        <time>2018-02-02T10:48:39Z</time>
      </trkpt>
      <trkpt lat="45.88821" lon="4.66542">
        <ele>391</ele>
        <time>2018-02-02T10:48:40Z</time>
      </trkpt>
      <trkpt lat="45.88828" lon="4.66545">
        <ele>391</ele>
        <time>2018-02-02T10:48:44Z</time>
      </trkpt>
      <trkpt lat="45.8883" lon="4.66545">
        <ele>392</ele>
        <time>2018-02-02T10:48:45Z</time>
      </trkpt>
      <trkpt lat="45.88838" lon="4.66549">
        <ele>390</ele>
        <time>2018-02-02T10:48:49Z</time>
      </trkpt>
      <trkpt lat="45.88839" lon="4.66551">
        <ele>390</ele>
        <time>2018-02-02T10:48:50Z</time>
      </trkpt>
      <trkpt lat="45.88846" lon="4.66555">
        <ele>391</ele>
        <time>2018-02-02T10:48:54Z</time>
      </trkpt>
      <trkpt lat="45.88848" lon="4.66556">
        <ele>391</ele>
        <time>2018-02-02T10:48:55Z</time>
      </trkpt>
      <trkpt lat="45.88855" lon="4.6656">
        <ele>391</ele>
        <time>2018-02-02T10:48:59Z</time>
      </trkpt>
      <trkpt lat="45.88857" lon="4.66561">
        <ele>391</ele>
        <time>2018-02-02T10:49:00Z</time>
      </trkpt>
      <trkpt lat="45.88863" lon="4.66567">
        <ele>391</ele>
        <time>2018-02-02T10:49:04Z</time>
      </trkpt>
      <trkpt lat="45.88865" lon="4.66568">
        <ele>391</ele>
        <time>2018-02-02T10:49:05Z</time>
      </trkpt>
      <trkpt lat="45.88871" lon="4.66577">
        <ele>391</ele>
        <time>2018-02-02T10:49:10Z</time>
      </trkpt>
      <trkpt lat="45.88872" lon="4.66579">
        <ele>391</ele>
        <time>2018-02-02T10:49:11Z</time>
      </trkpt>
      <trkpt lat="45.88878" lon="4.66587">
        <ele>399</ele>
        <time>2018-02-02T10:49:15Z</time>
      </trkpt>
      <trkpt lat="45.88879" lon="4.66589">
        <ele>399</ele>
        <time>2018-02-02T10:49:16Z</time>
      </trkpt>
      <trkpt lat="45.88883" lon="4.66598">
        <ele>399</ele>
        <time>2018-02-02T10:49:20Z</time>
      </trkpt>
      <trkpt lat="45.88885" lon="4.666">
        <ele>399</ele>
        <time>2018-02-02T10:49:21Z</time>
      </trkpt>
      <trkpt lat="45.8889" lon="4.66608">
        <ele>400</ele>
        <time>2018-02-02T10:49:26Z</time>
      </trkpt>
      <trkpt lat="45.88891" lon="4.6661">
        <ele>400</ele>
        <time>2018-02-02T10:49:27Z</time>
      </trkpt>
      <trkpt lat="45.88897" lon="4.66619">
        <ele>400</ele>
        <time>2018-02-02T10:49:32Z</time>
      </trkpt>
      <trkpt lat="45.88898" lon="4.66621">
        <ele>401</ele>
        <time>2018-02-02T10:49:33Z</time>
      </trkpt>
      <trkpt lat="45.88902" lon="4.6663">
        <ele>401</ele>
        <time>2018-02-02T10:49:38Z</time>
      </trkpt>
      <trkpt lat="45.88903" lon="4.66632">
        <ele>401</ele>
        <time>2018-02-02T10:49:39Z</time>
      </trkpt>
      <trkpt lat="45.88909" lon="4.66639">
        <ele>402</ele>
        <time>2018-02-02T10:49:44Z</time>
      </trkpt>
      <trkpt lat="45.8891" lon="4.66641">
        <ele>402</ele>
        <time>2018-02-02T10:49:45Z</time>
      </trkpt>
      <trkpt lat="45.88915" lon="4.66647">
        <ele>403</ele>
        <time>2018-02-02T10:49:49Z</time>
      </trkpt>
      <trkpt lat="45.88917" lon="4.66649">
        <ele>402</ele>
        <time>2018-02-02T10:49:50Z</time>
      </trkpt>
      <trkpt lat="45.88923" lon="4.66656">
        <ele>403</ele>
        <time>2018-02-02T10:49:54Z</time>
      </trkpt>
      <trkpt lat="45.88925" lon="4.66658">
        <ele>403</ele>
        <time>2018-02-02T10:49:55Z</time>
      </trkpt>
      <trkpt lat="45.88932" lon="4.66663">
        <ele>403</ele>
        <time>2018-02-02T10:49:59Z</time>
      </trkpt>
      <trkpt lat="45.88933" lon="4.66664">
        <ele>403</ele>
        <time>2018-02-02T10:50:00Z</time>
      </trkpt>
      <trkpt lat="45.8894" lon="4.66671">
        <ele>408</ele>
        <time>2018-02-02T10:50:05Z</time>
      </trkpt>
      <trkpt lat="45.88942" lon="4.66672">
        <ele>408</ele>
        <time>2018-02-02T10:50:06Z</time>
      </trkpt>
      <trkpt lat="45.88949" lon="4.66677">
        <ele>408</ele>
        <time>2018-02-02T10:50:10Z</time>
      </trkpt>
      <trkpt lat="45.88951" lon="4.66678">
        <ele>408</ele>
        <time>2018-02-02T10:50:11Z</time>
      </trkpt>
      <trkpt lat="45.88957" lon="4.66684">
        <ele>408</ele>
        <time>2018-02-02T10:50:15Z</time>
      </trkpt>
      <trkpt lat="45.88959" lon="4.66685">
        <ele>408</ele>
        <time>2018-02-02T10:50:16Z</time>
      </trkpt>
      <trkpt lat="45.88965" lon="4.6669">
        <ele>408</ele>
        <time>2018-02-02T10:50:20Z</time>
      </trkpt>
      <trkpt lat="45.88967" lon="4.66691">
        <ele>409</ele>
        <time>2018-02-02T10:50:21Z</time>
      </trkpt>
      <trkpt lat="45.88974" lon="4.66697">
        <ele>409</ele>
        <time>2018-02-02T10:50:25Z</time>
      </trkpt>
      <trkpt lat="45.88975" lon="4.66698">
        <ele>409</ele>
        <time>2018-02-02T10:50:26Z</time>
      </trkpt>
      <trkpt lat="45.88983" lon="4.66703">
        <ele>409</ele>
        <time>2018-02-02T10:50:30Z</time>
      </trkpt>
      <trkpt lat="45.88985" lon="4.66705">
        <ele>409</ele>
        <time>2018-02-02T10:50:31Z</time>
      </trkpt>
      <trkpt lat="45.88993" lon="4.66707">
        <ele>409</ele>
        <time>2018-02-02T10:50:34Z</time>
      </trkpt>
      <trkpt lat="45.88995" lon="4.66708">
        <ele>409</ele>
        <time>2018-02-02T10:50:35Z</time>
      </trkpt>
      <trkpt lat="45.89003" lon="4.66711">
        <ele>407</ele>
        <time>2018-02-02T10:50:39Z</time>
      </trkpt>
      <trkpt lat="45.89005" lon="4.66711">
        <ele>407</ele>
        <time>2018-02-02T10:50:40Z</time>
      </trkpt>
      <trkpt lat="45.89013" lon="4.66713">
        <ele>407</ele>
        <time>2018-02-02T10:50:46Z</time>
      </trkpt>
      <trkpt lat="45.89014" lon="4.66713">
        <ele>407</ele>
        <time>2018-02-02T10:50:47Z</time>
      </trkpt>
      <trkpt lat="45.89022" lon="4.66716">
        <ele>407</ele>
        <time>2018-02-02T10:50:51Z</time>
      </trkpt>
      <trkpt lat="45.89024" lon="4.66717">
        <ele>407</ele>
        <time>2018-02-02T10:50:52Z</time>
      </trkpt>
      <trkpt lat="45.89031" lon="4.66722">
        <ele>407</ele>
        <time>2018-02-02T10:50:55Z</time>
      </trkpt>
      <trkpt lat="45.89033" lon="4.66723">
        <ele>407</ele>
        <time>2018-02-02T10:50:56Z</time>
      </trkpt>
      <trkpt lat="45.89039" lon="4.66727">
        <ele>407</ele>
        <time>2018-02-02T10:50:59Z</time>
      </trkpt>
      <trkpt lat="45.89041" lon="4.66728">
        <ele>407</ele>
        <time>2018-02-02T10:51:00Z</time>
      </trkpt>
      <trkpt lat="45.89049" lon="4.66732">
        <ele>407</ele>
        <time>2018-02-02T10:51:03Z</time>
      </trkpt>
      <trkpt lat="45.89052" lon="4.66734">
        <ele>407</ele>
        <time>2018-02-02T10:51:04Z</time>
      </trkpt>
      <trkpt lat="45.89058" lon="4.66738">
        <ele>407</ele>
        <time>2018-02-02T10:51:07Z</time>
      </trkpt>
      <trkpt lat="45.8906" lon="4.6674">
        <ele>407</ele>
        <time>2018-02-02T10:51:08Z</time>
      </trkpt>
      <trkpt lat="45.89065" lon="4.66747">
        <ele>407</ele>
        <time>2018-02-02T10:51:11Z</time>
      </trkpt>
      <trkpt lat="45.89067" lon="4.6675">
        <ele>411</ele>
        <time>2018-02-02T10:51:12Z</time>
      </trkpt>
      <trkpt lat="45.89073" lon="4.66757">
        <ele>411</ele>
        <time>2018-02-02T10:51:15Z</time>
      </trkpt>
      <trkpt lat="45.89075" lon="4.66759">
        <ele>411</ele>
        <time>2018-02-02T10:51:16Z</time>
      </trkpt>
      <trkpt lat="45.89082" lon="4.66763">
        <ele>411</ele>
        <time>2018-02-02T10:51:19Z</time>
      </trkpt>
      <trkpt lat="45.89085" lon="4.66765">
        <ele>409</ele>
        <time>2018-02-02T10:51:20Z</time>
      </trkpt>
      <trkpt lat="45.89093" lon="4.66771">
        <ele>410</ele>
        <time>2018-02-02T10:51:24Z</time>
      </trkpt>
      <trkpt lat="45.89095" lon="4.66773">
        <ele>410</ele>
        <time>2018-02-02T10:51:25Z</time>
      </trkpt>
      <trkpt lat="45.89102" lon="4.6678">
        <ele>410</ele>
        <time>2018-02-02T10:51:28Z</time>
      </trkpt>
      <trkpt lat="45.89105" lon="4.66782">
        <ele>410</ele>
        <time>2018-02-02T10:51:29Z</time>
      </trkpt>
      <trkpt lat="45.89111" lon="4.66789">
        <ele>410</ele>
        <time>2018-02-02T10:51:32Z</time>
      </trkpt>
      <trkpt lat="45.89112" lon="4.66791">
        <ele>410</ele>
        <time>2018-02-02T10:51:33Z</time>
      </trkpt>
      <trkpt lat="45.89118" lon="4.668">
        <ele>410</ele>
        <time>2018-02-02T10:51:39Z</time>
      </trkpt>
      <trkpt lat="45.89119" lon="4.66801">
        <ele>410</ele>
        <time>2018-02-02T10:51:40Z</time>
      </trkpt>
      <trkpt lat="45.89126" lon="4.66805">
        <ele>410</ele>
        <time>2018-02-02T10:51:44Z</time>
      </trkpt>
      <trkpt lat="45.89127" lon="4.66808">
        <ele>411</ele>
        <time>2018-02-02T10:51:45Z</time>
      </trkpt>
      <trkpt lat="45.89127" lon="4.66819">
        <ele>411</ele>
        <time>2018-02-02T10:51:49Z</time>
      </trkpt>
      <trkpt lat="45.89126" lon="4.66821">
        <ele>411</ele>
        <time>2018-02-02T10:51:50Z</time>
      </trkpt>
      <trkpt lat="45.89132" lon="4.66817">
        <ele>411</ele>
        <time>2018-02-02T10:57:21Z</time>
      </trkpt>
      <trkpt lat="45.89133" lon="4.66817">
        <ele>411</ele>
        <time>2018-02-02T10:57:22Z</time>
      </trkpt>
      <trkpt lat="45.89132" lon="4.66816">
        <ele>411</ele>
        <time>2018-02-02T11:02:14Z</time>
      </trkpt>
      <trkpt lat="45.89132" lon="4.66816">
        <ele>411</ele>
        <time>2018-02-02T11:02:15Z</time>
      </trkpt>
      <trkpt lat="45.89126" lon="4.66823">
        <ele>411</ele>
        <time>2018-02-02T11:04:03Z</time>
      </trkpt>
      <trkpt lat="45.89125" lon="4.66825">
        <ele>411</ele>
        <time>2018-02-02T11:04:04Z</time>
      </trkpt>
      <trkpt lat="45.8913" lon="4.66819">
        <ele>411</ele>
        <time>2018-02-02T11:04:50Z</time>
      </trkpt>
      <trkpt lat="45.89133" lon="4.66816">
        <ele>411</ele>
        <time>2018-02-02T11:04:51Z</time>
      </trkpt>
      <trkpt lat="45.89138" lon="4.66809">
        <ele>411</ele>
        <time>2018-02-02T11:04:54Z</time>
      </trkpt>
      <trkpt lat="45.89142" lon="4.66813">
        <ele>411</ele>
        <time>2018-02-02T11:04:55Z</time>
      </trkpt>
      <trkpt lat="45.89149" lon="4.66816">
        <ele>411</ele>
        <time>2018-02-02T11:04:57Z</time>
      </trkpt>
      <trkpt lat="45.89152" lon="4.6682">
        <ele>412</ele>
        <time>2018-02-02T11:04:58Z</time>
      </trkpt>
      <trkpt lat="45.89156" lon="4.66829">
        <ele>412</ele>
        <time>2018-02-02T11:05:00Z</time>
      </trkpt>
      <trkpt lat="45.89156" lon="4.66833">
        <ele>413</ele>
        <time>2018-02-02T11:05:01Z</time>
      </trkpt>
      <trkpt lat="45.89155" lon="4.66842">
        <ele>414</ele>
        <time>2018-02-02T11:05:03Z</time>
      </trkpt>
      <trkpt lat="45.89155" lon="4.66846">
        <ele>414</ele>
        <time>2018-02-02T11:05:04Z</time>
      </trkpt>
      <trkpt lat="45.89155" lon="4.66855">
        <ele>414</ele>
        <time>2018-02-02T11:05:06Z</time>
      </trkpt>
      <trkpt lat="45.89155" lon="4.6686">
        <ele>414</ele>
        <time>2018-02-02T11:05:07Z</time>
      </trkpt>
      <trkpt lat="45.89155" lon="4.66871">
        <ele>414</ele>
        <time>2018-02-02T11:05:09Z</time>
      </trkpt>
      <trkpt lat="45.89156" lon="4.66877">
        <ele>414</ele>
        <time>2018-02-02T11:05:10Z</time>
      </trkpt>
      <trkpt lat="45.89158" lon="4.66887">
        <ele>414</ele>
        <time>2018-02-02T11:05:12Z</time>
      </trkpt>
      <trkpt lat="45.89159" lon="4.66892">
        <ele>414</ele>
        <time>2018-02-02T11:05:13Z</time>
      </trkpt>
      <trkpt lat="45.89162" lon="4.66902">
        <ele>415</ele>
        <time>2018-02-02T11:05:15Z</time>
      </trkpt>
      <trkpt lat="45.89164" lon="4.66907">
        <ele>415</ele>
        <time>2018-02-02T11:05:16Z</time>
      </trkpt>
      <trkpt lat="45.89167" lon="4.66917">
        <ele>415</ele>
        <time>2018-02-02T11:05:18Z</time>
      </trkpt>
      <trkpt lat="45.89168" lon="4.66922">
        <ele>415</ele>
        <time>2018-02-02T11:05:19Z</time>
      </trkpt>
      <trkpt lat="45.89171" lon="4.66933">
        <ele>415</ele>
        <time>2018-02-02T11:05:21Z</time>
      </trkpt>
      <trkpt lat="45.89172" lon="4.66939">
        <ele>415</ele>
        <time>2018-02-02T11:05:22Z</time>
      </trkpt>
      <trkpt lat="45.89175" lon="4.66948">
        <ele>415</ele>
        <time>2018-02-02T11:05:24Z</time>
      </trkpt>
      <trkpt lat="45.89176" lon="4.66952">
        <ele>415</ele>
        <time>2018-02-02T11:05:25Z</time>
      </trkpt>
      <trkpt lat="45.89178" lon="4.66961">
        <ele>415</ele>
        <time>2018-02-02T11:05:27Z</time>
      </trkpt>
      <trkpt lat="45.89179" lon="4.66965">
        <ele>415</ele>
        <time>2018-02-02T11:05:28Z</time>
      </trkpt>
      <trkpt lat="45.89181" lon="4.66976">
        <ele>415</ele>
        <time>2018-02-02T11:05:30Z</time>
      </trkpt>
      <trkpt lat="45.89182" lon="4.66981">
        <ele>414</ele>
        <time>2018-02-02T11:05:31Z</time>
      </trkpt>
      <trkpt lat="45.89184" lon="4.66992">
        <ele>414</ele>
        <time>2018-02-02T11:05:33Z</time>
      </trkpt>
      <trkpt lat="45.89185" lon="4.66997">
        <ele>414</ele>
        <time>2018-02-02T11:05:34Z</time>
      </trkpt>
      <trkpt lat="45.89187" lon="4.67007">
        <ele>413</ele>
        <time>2018-02-02T11:05:36Z</time>
      </trkpt>
      <trkpt lat="45.89188" lon="4.67011">
        <ele>413</ele>
        <time>2018-02-02T11:05:37Z</time>
      </trkpt>
      <trkpt lat="45.89191" lon="4.67021">
        <ele>413</ele>
        <time>2018-02-02T11:05:39Z</time>
      </trkpt>
      <trkpt lat="45.89192" lon="4.67026">
        <ele>413</ele>
        <time>2018-02-02T11:05:40Z</time>
      </trkpt>
      <trkpt lat="45.89195" lon="4.67037">
        <ele>413</ele>
        <time>2018-02-02T11:05:42Z</time>
      </trkpt>
      <trkpt lat="45.89196" lon="4.67042">
        <ele>413</ele>
        <time>2018-02-02T11:05:43Z</time>
      </trkpt>
      <trkpt lat="45.89199" lon="4.67053">
        <ele>412</ele>
        <time>2018-02-02T11:05:45Z</time>
      </trkpt>
      <trkpt lat="45.892" lon="4.67058">
        <ele>412</ele>
        <time>2018-02-02T11:05:46Z</time>
      </trkpt>
      <trkpt lat="45.89204" lon="4.67068">
        <ele>412</ele>
        <time>2018-02-02T11:05:48Z</time>
      </trkpt>
      <trkpt lat="45.89206" lon="4.67072">
        <ele>412</ele>
        <time>2018-02-02T11:05:49Z</time>
      </trkpt>
      <trkpt lat="45.8921" lon="4.67083">
        <ele>413</ele>
        <time>2018-02-02T11:05:51Z</time>
      </trkpt>
      <trkpt lat="45.89213" lon="4.67088">
        <ele>410</ele>
        <time>2018-02-02T11:05:52Z</time>
      </trkpt>
      <trkpt lat="45.89216" lon="4.67094">
        <ele>411</ele>
        <time>2018-02-02T11:05:53Z</time>
      </trkpt>
      <trkpt lat="45.89219" lon="4.67099">
        <ele>411</ele>
        <time>2018-02-02T11:05:54Z</time>
      </trkpt>
      <trkpt lat="45.89224" lon="4.67109">
        <ele>411</ele>
        <time>2018-02-02T11:05:56Z</time>
      </trkpt>
      <trkpt lat="45.89225" lon="4.67115">
        <ele>411</ele>
        <time>2018-02-02T11:05:57Z</time>
      </trkpt>
      <trkpt lat="45.89228" lon="4.67119">
        <ele>411</ele>
        <time>2018-02-02T11:05:58Z</time>
      </trkpt>
      <trkpt lat="45.89231" lon="4.67125">
        <ele>411</ele>
        <time>2018-02-02T11:05:59Z</time>
      </trkpt>
      <trkpt lat="45.89237" lon="4.67134">
        <ele>411</ele>
        <time>2018-02-02T11:06:01Z</time>
      </trkpt>
      <trkpt lat="45.8924" lon="4.6714">
        <ele>411</ele>
        <time>2018-02-02T11:06:02Z</time>
      </trkpt>
      <trkpt lat="45.89243" lon="4.67144">
        <ele>411</ele>
        <time>2018-02-02T11:06:03Z</time>
      </trkpt>
      <trkpt lat="45.89247" lon="4.67149">
        <ele>411</ele>
        <time>2018-02-02T11:06:04Z</time>
      </trkpt>
      <trkpt lat="45.89252" lon="4.67154">
        <ele>415</ele>
        <time>2018-02-02T11:06:05Z</time>
      </trkpt>
      <trkpt lat="45.89256" lon="4.6716">
        <ele>414</ele>
        <time>2018-02-02T11:06:06Z</time>
      </trkpt>
      <trkpt lat="45.8926" lon="4.67165">
        <ele>414</ele>
        <time>2018-02-02T11:06:07Z</time>
      </trkpt>
      <trkpt lat="45.89263" lon="4.6717">
        <ele>412</ele>
        <time>2018-02-02T11:06:08Z</time>
      </trkpt>
      <trkpt lat="45.89268" lon="4.67173">
        <ele>412</ele>
        <time>2018-02-02T11:06:09Z</time>
      </trkpt>
      <trkpt lat="45.89272" lon="4.67178">
        <ele>412</ele>
        <time>2018-02-02T11:06:10Z</time>
      </trkpt>
      <trkpt lat="45.89276" lon="4.67181">
        <ele>412</ele>
        <time>2018-02-02T11:06:11Z</time>
      </trkpt>
      <trkpt lat="45.8928" lon="4.67185">
        <ele>412</ele>
        <time>2018-02-02T11:06:12Z</time>
      </trkpt>
      <trkpt lat="45.89284" lon="4.67189">
        <ele>412</ele>
        <time>2018-02-02T11:06:13Z</time>
      </trkpt>
      <trkpt lat="45.89288" lon="4.67191">
        <ele>412</ele>
        <time>2018-02-02T11:06:14Z</time>
      </trkpt>
      <trkpt lat="45.89295" lon="4.67196">
        <ele>412</ele>
        <time>2018-02-02T11:06:16Z</time>
      </trkpt>
      <trkpt lat="45.89299" lon="4.67198">
        <ele>412</ele>
        <time>2018-02-02T11:06:17Z</time>
      </trkpt>
      <trkpt lat="45.89304" lon="4.67201">
        <ele>412</ele>
        <time>2018-02-02T11:06:18Z</time>
      </trkpt>
      <trkpt lat="45.89308" lon="4.67204">
        <ele>412</ele>
        <time>2018-02-02T11:06:19Z</time>
      </trkpt>
      <trkpt lat="45.89313" lon="4.67205">
        <ele>412</ele>
        <time>2018-02-02T11:06:20Z</time>
      </trkpt>
      <trkpt lat="45.89318" lon="4.67208">
        <ele>412</ele>
        <time>2018-02-02T11:06:21Z</time>
      </trkpt>
      <trkpt lat="45.89322" lon="4.67211">
        <ele>411</ele>
        <time>2018-02-02T11:06:22Z</time>
      </trkpt>
      <trkpt lat="45.89326" lon="4.67212">
        <ele>411</ele>
        <time>2018-02-02T11:06:23Z</time>
      </trkpt>
      <trkpt lat="45.89331" lon="4.67214">
        <ele>411</ele>
        <time>2018-02-02T11:06:24Z</time>
      </trkpt>
      <trkpt lat="45.89336" lon="4.67216">
        <ele>415</ele>
        <time>2018-02-02T11:06:25Z</time>
      </trkpt>
      <trkpt lat="45.8934" lon="4.67219">
        <ele>415</ele>
        <time>2018-02-02T11:06:26Z</time>
      </trkpt>
      <trkpt lat="45.89345" lon="4.67222">
        <ele>415</ele>
        <time>2018-02-02T11:06:27Z</time>
      </trkpt>
      <trkpt lat="45.8935" lon="4.67226">
        <ele>415</ele>
        <time>2018-02-02T11:06:28Z</time>
      </trkpt>
      <trkpt lat="45.89354" lon="4.6723">
        <ele>415</ele>
        <time>2018-02-02T11:06:29Z</time>
      </trkpt>
      <trkpt lat="45.89359" lon="4.67235">
        <ele>415</ele>
        <time>2018-02-02T11:06:30Z</time>
      </trkpt>
      <trkpt lat="45.89362" lon="4.67241">
        <ele>415</ele>
        <time>2018-02-02T11:06:31Z</time>
      </trkpt>
      <trkpt lat="45.89367" lon="4.67247">
        <ele>415</ele>
        <time>2018-02-02T11:06:32Z</time>
      </trkpt>
      <trkpt lat="45.8937" lon="4.67253">
        <ele>409</ele>
        <time>2018-02-02T11:06:33Z</time>
      </trkpt>
      <trkpt lat="45.89374" lon="4.67259">
        <ele>409</ele>
        <time>2018-02-02T11:06:34Z</time>
      </trkpt>
      <trkpt lat="45.89377" lon="4.67265">
        <ele>409</ele>
        <time>2018-02-02T11:06:35Z</time>
      </trkpt>
      <trkpt lat="45.89381" lon="4.67271">
        <ele>409</ele>
        <time>2018-02-02T11:06:36Z</time>
      </trkpt>
      <trkpt lat="45.89384" lon="4.67275">
        <ele>409</ele>
        <time>2018-02-02T11:06:37Z</time>
      </trkpt>
      <trkpt lat="45.89386" lon="4.67281">
        <ele>409</ele>
        <time>2018-02-02T11:06:38Z</time>
      </trkpt>
      <trkpt lat="45.89389" lon="4.67287">
        <ele>408</ele>
        <time>2018-02-02T11:06:39Z</time>
      </trkpt>
      <trkpt lat="45.89392" lon="4.67292">
        <ele>408</ele>
        <time>2018-02-02T11:06:40Z</time>
      </trkpt>
      <trkpt lat="45.89396" lon="4.67297">
        <ele>408</ele>
        <time>2018-02-02T11:06:41Z</time>
      </trkpt>
      <trkpt lat="45.894" lon="4.67301">
        <ele>408</ele>
        <time>2018-02-02T11:06:42Z</time>
      </trkpt>
      <trkpt lat="45.89404" lon="4.67306">
        <ele>408</ele>
        <time>2018-02-02T11:06:43Z</time>
      </trkpt>
      <trkpt lat="45.89408" lon="4.67312">
        <ele>408</ele>
        <time>2018-02-02T11:06:44Z</time>
      </trkpt>
      <trkpt lat="45.89412" lon="4.67317">
        <ele>407</ele>
        <time>2018-02-02T11:06:45Z</time>
      </trkpt>
      <trkpt lat="45.89416" lon="4.67323">
        <ele>407</ele>
        <time>2018-02-02T11:06:46Z</time>
      </trkpt>
      <trkpt lat="45.89421" lon="4.67329">
        <ele>409</ele>
        <time>2018-02-02T11:06:47Z</time>
      </trkpt>
      <trkpt lat="45.89426" lon="4.67333">
        <ele>407</ele>
        <time>2018-02-02T11:06:48Z</time>
      </trkpt>
      <trkpt lat="45.8943" lon="4.67338">
        <ele>407</ele>
        <time>2018-02-02T11:06:49Z</time>
      </trkpt>
      <trkpt lat="45.89435" lon="4.67344">
        <ele>407</ele>
        <time>2018-02-02T11:06:50Z</time>
      </trkpt>
      <trkpt lat="45.8944" lon="4.67348">
        <ele>407</ele>
        <time>2018-02-02T11:06:51Z</time>
      </trkpt>
      <trkpt lat="45.89445" lon="4.67354">
        <ele>407</ele>
        <time>2018-02-02T11:06:52Z</time>
      </trkpt>
      <trkpt lat="45.8945" lon="4.67358">
        <ele>408</ele>
        <time>2018-02-02T11:06:53Z</time>
      </trkpt>
      <trkpt lat="45.89455" lon="4.67364">
        <ele>408</ele>
        <time>2018-02-02T11:06:54Z</time>
      </trkpt>
      <trkpt lat="45.8946" lon="4.67369">
        <ele>407</ele>
        <time>2018-02-02T11:06:55Z</time>
      </trkpt>
      <trkpt lat="45.89466" lon="4.67375">
        <ele>407</ele>
        <time>2018-02-02T11:06:56Z</time>
      </trkpt>
      <trkpt lat="45.89473" lon="4.6738">
        <ele>407</ele>
        <time>2018-02-02T11:06:57Z</time>
      </trkpt>
      <trkpt lat="45.89479" lon="4.67384">
        <ele>407</ele>
        <time>2018-02-02T11:06:58Z</time>
      </trkpt>
      <trkpt lat="45.89485" lon="4.67389">
        <ele>407</ele>
        <time>2018-02-02T11:06:59Z</time>
      </trkpt>
      <trkpt lat="45.89491" lon="4.67394">
        <ele>406</ele>
        <time>2018-02-02T11:07:00Z</time>
      </trkpt>
      <trkpt lat="45.89496" lon="4.67399">
        <ele>406</ele>
        <time>2018-02-02T11:07:01Z</time>
      </trkpt>
      <trkpt lat="45.89502" lon="4.67402">
        <ele>408</ele>
        <time>2018-02-02T11:07:02Z</time>
      </trkpt>
      <trkpt lat="45.89509" lon="4.67406">
        <ele>408</ele>
        <time>2018-02-02T11:07:03Z</time>
      </trkpt>
      <trkpt lat="45.89515" lon="4.67412">
        <ele>408</ele>
        <time>2018-02-02T11:07:04Z</time>
      </trkpt>
      <trkpt lat="45.89521" lon="4.67415">
        <ele>409</ele>
        <time>2018-02-02T11:07:05Z</time>
      </trkpt>
      <trkpt lat="45.89525" lon="4.6742">
        <ele>402</ele>
        <time>2018-02-02T11:07:06Z</time>
      </trkpt>
      <trkpt lat="45.89531" lon="4.67422">
        <ele>402</ele>
        <time>2018-02-02T11:07:07Z</time>
      </trkpt>
      <trkpt lat="45.89536" lon="4.67426">
        <ele>402</ele>
        <time>2018-02-02T11:07:08Z</time>
      </trkpt>
      <trkpt lat="45.89544" lon="4.67428">
        <ele>402</ele>
        <time>2018-02-02T11:07:09Z</time>
      </trkpt>
      <trkpt lat="45.89549" lon="4.67429">
        <ele>402</ele>
        <time>2018-02-02T11:07:10Z</time>
      </trkpt>
      <trkpt lat="45.89555" lon="4.67431">
        <ele>403</ele>
        <time>2018-02-02T11:07:11Z</time>
      </trkpt>
      <trkpt lat="45.89561" lon="4.67433">
        <ele>403</ele>
        <time>2018-02-02T11:07:12Z</time>
      </trkpt>
      <trkpt lat="45.89565" lon="4.67433">
        <ele>403</ele>
        <time>2018-02-02T11:07:13Z</time>
      </trkpt>
      <trkpt lat="45.89573" lon="4.67436">
        <ele>404</ele>
        <time>2018-02-02T11:07:14Z</time>
      </trkpt>
      <trkpt lat="45.8958" lon="4.67438">
        <ele>404</ele>
        <time>2018-02-02T11:07:15Z</time>
      </trkpt>
      <trkpt lat="45.89586" lon="4.67441">
        <ele>405</ele>
        <time>2018-02-02T11:07:16Z</time>
      </trkpt>
      <trkpt lat="45.89593" lon="4.67443">
        <ele>405</ele>
        <time>2018-02-02T11:07:17Z</time>
      </trkpt>
      <trkpt lat="45.89599" lon="4.67445">
        <ele>404</ele>
        <time>2018-02-02T11:07:18Z</time>
      </trkpt>
      <trkpt lat="45.89605" lon="4.67447">
        <ele>404</ele>
        <time>2018-02-02T11:07:19Z</time>
      </trkpt>
      <trkpt lat="45.89612" lon="4.67449">
        <ele>404</ele>
        <time>2018-02-02T11:07:20Z</time>
      </trkpt>
      <trkpt lat="45.89619" lon="4.67451">
        <ele>404</ele>
        <time>2018-02-02T11:07:21Z</time>
      </trkpt>
      <trkpt lat="45.89625" lon="4.67454">
        <ele>404</ele>
        <time>2018-02-02T11:07:22Z</time>
      </trkpt>
      <trkpt lat="45.89631" lon="4.67457">
        <ele>403</ele>
        <time>2018-02-02T11:07:23Z</time>
      </trkpt>
      <trkpt lat="45.89638" lon="4.6746">
        <ele>403</ele>
        <time>2018-02-02T11:07:24Z</time>
      </trkpt>
      <trkpt lat="45.89644" lon="4.67463">
        <ele>403</ele>
        <time>2018-02-02T11:07:25Z</time>
      </trkpt>
      <trkpt lat="45.8965" lon="4.67465">
        <ele>403</ele>
        <time>2018-02-02T11:07:26Z</time>
      </trkpt>
      <trkpt lat="45.89657" lon="4.67467">
        <ele>403</ele>
        <time>2018-02-02T11:07:27Z</time>
      </trkpt>
      <trkpt lat="45.89662" lon="4.67471">
        <ele>403</ele>
        <time>2018-02-02T11:07:28Z</time>
      </trkpt>
      <trkpt lat="45.89668" lon="4.67471">
        <ele>403</ele>
        <time>2018-02-02T11:07:29Z</time>
      </trkpt>
      <trkpt lat="45.89676" lon="4.67474">
        <ele>403</ele>
        <time>2018-02-02T11:07:30Z</time>
      </trkpt>
      <trkpt lat="45.89683" lon="4.67477">
        <ele>402</ele>
        <time>2018-02-02T11:07:31Z</time>
      </trkpt>
      <trkpt lat="45.89689" lon="4.67479">
        <ele>402</ele>
        <time>2018-02-02T11:07:32Z</time>
      </trkpt>
      <trkpt lat="45.89696" lon="4.67481">
        <ele>402</ele>
        <time>2018-02-02T11:07:33Z</time>
      </trkpt>
      <trkpt lat="45.89703" lon="4.67483">
        <ele>402</ele>
        <time>2018-02-02T11:07:34Z</time>
      </trkpt>
      <trkpt lat="45.8971" lon="4.67485">
        <ele>402</ele>
        <time>2018-02-02T11:07:35Z</time>
      </trkpt>
      <trkpt lat="45.89717" lon="4.67487">
        <ele>402</ele>
        <time>2018-02-02T11:07:36Z</time>
      </trkpt>
      <trkpt lat="45.89725" lon="4.67489">
        <ele>402</ele>
        <time>2018-02-02T11:07:37Z</time>
      </trkpt>
      <trkpt lat="45.89732" lon="4.67492">
        <ele>401</ele>
        <time>2018-02-02T11:07:38Z</time>
      </trkpt>
      <trkpt lat="45.89739" lon="4.67492">
        <ele>401</ele>
        <time>2018-02-02T11:07:39Z</time>
      </trkpt>
      <trkpt lat="45.89746" lon="4.67493">
        <ele>400</ele>
        <time>2018-02-02T11:07:40Z</time>
      </trkpt>
      <trkpt lat="45.89754" lon="4.67493">
        <ele>399</ele>
        <time>2018-02-02T11:07:41Z</time>
      </trkpt>
      <trkpt lat="45.89761" lon="4.67492">
        <ele>399</ele>
        <time>2018-02-02T11:07:42Z</time>
      </trkpt>
      <trkpt lat="45.89768" lon="4.67492">
        <ele>399</ele>
        <time>2018-02-02T11:07:43Z</time>
      </trkpt>
      <trkpt lat="45.89777" lon="4.67493">
        <ele>399</ele>
        <time>2018-02-02T11:07:44Z</time>
      </trkpt>
      <trkpt lat="45.89783" lon="4.6749">
        <ele>399</ele>
        <time>2018-02-02T11:07:45Z</time>
      </trkpt>
      <trkpt lat="45.89789" lon="4.67487">
        <ele>399</ele>
        <time>2018-02-02T11:07:46Z</time>
      </trkpt>
      <trkpt lat="45.89796" lon="4.67483">
        <ele>399</ele>
        <time>2018-02-02T11:07:47Z</time>
      </trkpt>
      <trkpt lat="45.89802" lon="4.67477">
        <ele>399</ele>
        <time>2018-02-02T11:07:48Z</time>
      </trkpt>
      <trkpt lat="45.89809" lon="4.67469">
        <ele>399</ele>
        <time>2018-02-02T11:07:49Z</time>
      </trkpt>
      <trkpt lat="45.89813" lon="4.6746">
        <ele>399</ele>
        <time>2018-02-02T11:07:50Z</time>
      </trkpt>
      <trkpt lat="45.89817" lon="4.6745">
        <ele>399</ele>
        <time>2018-02-02T11:07:51Z</time>
      </trkpt>
      <trkpt lat="45.89819" lon="4.67439">
        <ele>399</ele>
        <time>2018-02-02T11:07:52Z</time>
      </trkpt>
      <trkpt lat="45.89821" lon="4.67428">
        <ele>398</ele>
        <time>2018-02-02T11:07:53Z</time>
      </trkpt>
      <trkpt lat="45.89823" lon="4.67417">
        <ele>398</ele>
        <time>2018-02-02T11:07:54Z</time>
      </trkpt>
      <trkpt lat="45.89824" lon="4.67405">
        <ele>401</ele>
        <time>2018-02-02T11:07:55Z</time>
      </trkpt>
      <trkpt lat="45.89826" lon="4.67396">
        <ele>403</ele>
        <time>2018-02-02T11:07:56Z</time>
      </trkpt>
      <trkpt lat="45.8983" lon="4.67387">
        <ele>403</ele>
        <time>2018-02-02T11:07:57Z</time>
      </trkpt>
      <trkpt lat="45.89835" lon="4.67378">
        <ele>398</ele>
        <time>2018-02-02T11:07:58Z</time>
      </trkpt>
      <trkpt lat="45.8984" lon="4.67371">
        <ele>399</ele>
        <time>2018-02-02T11:07:59Z</time>
      </trkpt>
      <trkpt lat="45.89845" lon="4.67364">
        <ele>399</ele>
        <time>2018-02-02T11:08:00Z</time>
      </trkpt>
      <trkpt lat="45.89848" lon="4.67356">
        <ele>400</ele>
        <time>2018-02-02T11:08:01Z</time>
      </trkpt>
      <trkpt lat="45.89856" lon="4.67355">
        <ele>399</ele>
        <time>2018-02-02T11:08:02Z</time>
      </trkpt>
      <trkpt lat="45.89863" lon="4.67352">
        <ele>399</ele>
        <time>2018-02-02T11:08:03Z</time>
      </trkpt>
      <trkpt lat="45.89869" lon="4.6735">
        <ele>399</ele>
        <time>2018-02-02T11:08:04Z</time>
      </trkpt>
      <trkpt lat="45.89876" lon="4.67351">
        <ele>398</ele>
        <time>2018-02-02T11:08:05Z</time>
      </trkpt>
      <trkpt lat="45.89884" lon="4.6735">
        <ele>398</ele>
        <time>2018-02-02T11:08:06Z</time>
      </trkpt>
      <trkpt lat="45.89893" lon="4.67352">
        <ele>398</ele>
        <time>2018-02-02T11:08:07Z</time>
      </trkpt>
      <trkpt lat="45.89899" lon="4.67354">
        <ele>398</ele>
        <time>2018-02-02T11:08:08Z</time>
      </trkpt>
      <trkpt lat="45.89907" lon="4.67356">
        <ele>398</ele>
        <time>2018-02-02T11:08:09Z</time>
      </trkpt>
      <trkpt lat="45.89915" lon="4.6736">
        <ele>397</ele>
        <time>2018-02-02T11:08:10Z</time>
      </trkpt>
      <trkpt lat="45.89922" lon="4.67363">
        <ele>395</ele>
        <time>2018-02-02T11:08:11Z</time>
      </trkpt>
      <trkpt lat="45.89932" lon="4.67363">
        <ele>395</ele>
        <time>2018-02-02T11:08:12Z</time>
      </trkpt>
      <trkpt lat="45.89939" lon="4.67365">
        <ele>394</ele>
        <time>2018-02-02T11:08:13Z</time>
      </trkpt>
      <trkpt lat="45.89946" lon="4.67367">
        <ele>394</ele>
        <time>2018-02-02T11:08:14Z</time>
      </trkpt>
      <trkpt lat="45.89954" lon="4.67369">
        <ele>394</ele>
        <time>2018-02-02T11:08:15Z</time>
      </trkpt>
      <trkpt lat="45.89962" lon="4.6737">
        <ele>394</ele>
        <time>2018-02-02T11:08:16Z</time>
      </trkpt>
      <trkpt lat="45.89969" lon="4.67373">
        <ele>394</ele>
        <time>2018-02-02T11:08:17Z</time>
      </trkpt>
      <trkpt lat="45.89977" lon="4.67375">
        <ele>394</ele>
        <time>2018-02-02T11:08:18Z</time>
      </trkpt>
      <trkpt lat="45.89986" lon="4.6738">
        <ele>393</ele>
        <time>2018-02-02T11:08:19Z</time>
      </trkpt>
      <trkpt lat="45.89994" lon="4.67385">
        <ele>392</ele>
        <time>2018-02-02T11:08:20Z</time>
      </trkpt>
      <trkpt lat="45.90002" lon="4.67389">
        <ele>394</ele>
        <time>2018-02-02T11:08:21Z</time>
      </trkpt>
      <trkpt lat="45.9001" lon="4.67394">
        <ele>394</ele>
        <time>2018-02-02T11:08:22Z</time>
      </trkpt>
      <trkpt lat="45.90019" lon="4.67401">
        <ele>393</ele>
        <time>2018-02-02T11:08:23Z</time>
      </trkpt>
      <trkpt lat="45.90026" lon="4.67407">
        <ele>394</ele>
        <time>2018-02-02T11:08:24Z</time>
      </trkpt>
      <trkpt lat="45.90034" lon="4.67413">
        <ele>394</ele>
        <time>2018-02-02T11:08:25Z</time>
      </trkpt>
      <trkpt lat="45.90041" lon="4.67421">
        <ele>385</ele>
        <time>2018-02-02T11:08:26Z</time>
      </trkpt>
      <trkpt lat="45.90048" lon="4.67428">
        <ele>385</ele>
        <time>2018-02-02T11:08:27Z</time>
      </trkpt>
      <trkpt lat="45.90056" lon="4.67436">
        <ele>385</ele>
        <time>2018-02-02T11:08:28Z</time>
      </trkpt>
      <trkpt lat="45.90062" lon="4.67443">
        <ele>385</ele>
        <time>2018-02-02T11:08:29Z</time>
      </trkpt>
      <trkpt lat="45.90069" lon="4.6745">
        <ele>384</ele>
        <time>2018-02-02T11:08:30Z</time>
      </trkpt>
      <trkpt lat="45.90075" lon="4.67457">
        <ele>383</ele>
        <time>2018-02-02T11:08:31Z</time>
      </trkpt>
      <trkpt lat="45.90081" lon="4.67464">
        <ele>382</ele>
        <time>2018-02-02T11:08:32Z</time>
      </trkpt>
      <trkpt lat="45.90087" lon="4.67471">
        <ele>386</ele>
        <time>2018-02-02T11:08:33Z</time>
      </trkpt>
      <trkpt lat="45.90093" lon="4.67478">
        <ele>385</ele>
        <time>2018-02-02T11:08:34Z</time>
      </trkpt>
      <trkpt lat="45.90098" lon="4.67486">
        <ele>384</ele>
        <time>2018-02-02T11:08:35Z</time>
      </trkpt>
      <trkpt lat="45.90104" lon="4.67493">
        <ele>384</ele>
        <time>2018-02-02T11:08:36Z</time>
      </trkpt>
      <trkpt lat="45.90109" lon="4.675">
        <ele>377</ele>
        <time>2018-02-02T11:08:37Z</time>
      </trkpt>
      <trkpt lat="45.90114" lon="4.67508">
        <ele>377</ele>
        <time>2018-02-02T11:08:38Z</time>
      </trkpt>
      <trkpt lat="45.90119" lon="4.67515">
        <ele>378</ele>
        <time>2018-02-02T11:08:39Z</time>
      </trkpt>
      <trkpt lat="45.90123" lon="4.67523">
        <ele>378</ele>
        <time>2018-02-02T11:08:40Z</time>
      </trkpt>
      <trkpt lat="45.90128" lon="4.67531">
        <ele>377</ele>
        <time>2018-02-02T11:08:41Z</time>
      </trkpt>
      <trkpt lat="45.90133" lon="4.6754">
        <ele>377</ele>
        <time>2018-02-02T11:08:42Z</time>
      </trkpt>
      <trkpt lat="45.90137" lon="4.67548">
        <ele>377</ele>
        <time>2018-02-02T11:08:43Z</time>
      </trkpt>
      <trkpt lat="45.90143" lon="4.67555">
        <ele>377</ele>
        <time>2018-02-02T11:08:44Z</time>
      </trkpt>
      <trkpt lat="45.90147" lon="4.67564">
        <ele>376</ele>
        <time>2018-02-02T11:08:45Z</time>
      </trkpt>
      <trkpt lat="45.90152" lon="4.67572">
        <ele>376</ele>
        <time>2018-02-02T11:08:46Z</time>
      </trkpt>
      <trkpt lat="45.90157" lon="4.67579">
        <ele>376</ele>
        <time>2018-02-02T11:08:47Z</time>
      </trkpt>
      <trkpt lat="45.90163" lon="4.67585">
        <ele>375</ele>
        <time>2018-02-02T11:08:48Z</time>
      </trkpt>
      <trkpt lat="45.90169" lon="4.67592">
        <ele>376</ele>
        <time>2018-02-02T11:08:49Z</time>
      </trkpt>
      <trkpt lat="45.90174" lon="4.67598">
        <ele>376</ele>
        <time>2018-02-02T11:08:50Z</time>
      </trkpt>
      <trkpt lat="45.9018" lon="4.67604">
        <ele>376</ele>
        <time>2018-02-02T11:08:51Z</time>
      </trkpt>
      <trkpt lat="45.90187" lon="4.6761">
        <ele>376</ele>
        <time>2018-02-02T11:08:52Z</time>
      </trkpt>
      <trkpt lat="45.90193" lon="4.67617">
        <ele>376</ele>
        <time>2018-02-02T11:08:53Z</time>
      </trkpt>
      <trkpt lat="45.90198" lon="4.67624">
        <ele>376</ele>
        <time>2018-02-02T11:08:54Z</time>
      </trkpt>
      <trkpt lat="45.90204" lon="4.67631">
        <ele>376</ele>
        <time>2018-02-02T11:08:55Z</time>
      </trkpt>
      <trkpt lat="45.9021" lon="4.67638">
        <ele>375</ele>
        <time>2018-02-02T11:08:56Z</time>
      </trkpt>
      <trkpt lat="45.90216" lon="4.67644">
        <ele>375</ele>
        <time>2018-02-02T11:08:57Z</time>
      </trkpt>
      <trkpt lat="45.90222" lon="4.6765">
        <ele>375</ele>
        <time>2018-02-02T11:08:58Z</time>
      </trkpt>
      <trkpt lat="45.90227" lon="4.67657">
        <ele>375</ele>
        <time>2018-02-02T11:08:59Z</time>
      </trkpt>
      <trkpt lat="45.90233" lon="4.67663">
        <ele>375</ele>
        <time>2018-02-02T11:09:00Z</time>
      </trkpt>
      <trkpt lat="45.90239" lon="4.67668">
        <ele>373</ele>
        <time>2018-02-02T11:09:01Z</time>
      </trkpt>
      <trkpt lat="45.90245" lon="4.67671">
        <ele>373</ele>
        <time>2018-02-02T11:09:02Z</time>
      </trkpt>
      <trkpt lat="45.9025" lon="4.67675">
        <ele>374</ele>
        <time>2018-02-02T11:09:03Z</time>
      </trkpt>
      <trkpt lat="45.90256" lon="4.67678">
        <ele>374</ele>
        <time>2018-02-02T11:09:04Z</time>
      </trkpt>
      <trkpt lat="45.90261" lon="4.67681">
        <ele>374</ele>
        <time>2018-02-02T11:09:05Z</time>
      </trkpt>
      <trkpt lat="45.90267" lon="4.67684">
        <ele>374</ele>
        <time>2018-02-02T11:09:06Z</time>
      </trkpt>
      <trkpt lat="45.90272" lon="4.67687">
        <ele>374</ele>
        <time>2018-02-02T11:09:07Z</time>
      </trkpt>
      <trkpt lat="45.90279" lon="4.67689">
        <ele>374</ele>
        <time>2018-02-02T11:09:08Z</time>
      </trkpt>
      <trkpt lat="45.90285" lon="4.67692">
        <ele>374</ele>
        <time>2018-02-02T11:09:09Z</time>
      </trkpt>
      <trkpt lat="45.90291" lon="4.67694">
        <ele>374</ele>
        <time>2018-02-02T11:09:10Z</time>
      </trkpt>
      <trkpt lat="45.90298" lon="4.67697">
        <ele>374</ele>
        <time>2018-02-02T11:09:11Z</time>
      </trkpt>
      <trkpt lat="45.90305" lon="4.677">
        <ele>374</ele>
        <time>2018-02-02T11:09:12Z</time>
      </trkpt>
      <trkpt lat="45.90311" lon="4.67703">
        <ele>374</ele>
        <time>2018-02-02T11:09:13Z</time>
      </trkpt>
      <trkpt lat="45.90318" lon="4.67705">
        <ele>374</ele>
        <time>2018-02-02T11:09:14Z</time>
      </trkpt>
      <trkpt lat="45.90326" lon="4.67708">
        <ele>374</ele>
        <time>2018-02-02T11:09:15Z</time>
      </trkpt>
      <trkpt lat="45.90333" lon="4.67709">
        <ele>373</ele>
        <time>2018-02-02T11:09:16Z</time>
      </trkpt>
      <trkpt lat="45.90339" lon="4.67713">
        <ele>372</ele>
        <time>2018-02-02T11:09:17Z</time>
      </trkpt>
      <trkpt lat="45.90345" lon="4.67715">
        <ele>372</ele>
        <time>2018-02-02T11:09:18Z</time>
      </trkpt>
      <trkpt lat="45.90352" lon="4.67718">
        <ele>371</ele>
        <time>2018-02-02T11:09:19Z</time>
      </trkpt>
      <trkpt lat="45.90359" lon="4.6772">
        <ele>371</ele>
        <time>2018-02-02T11:09:20Z</time>
      </trkpt>
      <trkpt lat="45.90367" lon="4.67723">
        <ele>371</ele>
        <time>2018-02-02T11:09:21Z</time>
      </trkpt>
      <trkpt lat="45.90373" lon="4.67726">
        <ele>370</ele>
        <time>2018-02-02T11:09:22Z</time>
      </trkpt>
      <trkpt lat="45.9038" lon="4.67728">
        <ele>370</ele>
        <time>2018-02-02T11:09:23Z</time>
      </trkpt>
      <trkpt lat="45.90386" lon="4.67731">
        <ele>370</ele>
        <time>2018-02-02T11:09:24Z</time>
      </trkpt>
      <trkpt lat="45.90394" lon="4.67734">
        <ele>369</ele>
        <time>2018-02-02T11:09:25Z</time>
      </trkpt>
      <trkpt lat="45.90401" lon="4.67736">
        <ele>368</ele>
        <time>2018-02-02T11:09:26Z</time>
      </trkpt>
      <trkpt lat="45.90408" lon="4.67738">
        <ele>368</ele>
        <time>2018-02-02T11:09:27Z</time>
      </trkpt>
      <trkpt lat="45.90416" lon="4.6774">
        <ele>367</ele>
        <time>2018-02-02T11:09:28Z</time>
      </trkpt>
      <trkpt lat="45.90424" lon="4.67744">
        <ele>366</ele>
        <time>2018-02-02T11:09:29Z</time>
      </trkpt>
      <trkpt lat="45.90432" lon="4.67748">
        <ele>366</ele>
        <time>2018-02-02T11:09:30Z</time>
      </trkpt>
      <trkpt lat="45.90439" lon="4.6775">
        <ele>364</ele>
        <time>2018-02-02T11:09:31Z</time>
      </trkpt>
      <trkpt lat="45.90447" lon="4.67753">
        <ele>364</ele>
        <time>2018-02-02T11:09:32Z</time>
      </trkpt>
      <trkpt lat="45.90453" lon="4.67756">
        <ele>364</ele>
        <time>2018-02-02T11:09:33Z</time>
      </trkpt>
      <trkpt lat="45.9046" lon="4.67759">
        <ele>364</ele>
        <time>2018-02-02T11:09:34Z</time>
      </trkpt>
      <trkpt lat="45.90468" lon="4.67761">
        <ele>364</ele>
        <time>2018-02-02T11:09:35Z</time>
      </trkpt>
      <trkpt lat="45.90475" lon="4.67763">
        <ele>364</ele>
        <time>2018-02-02T11:09:36Z</time>
      </trkpt>
      <trkpt lat="45.90482" lon="4.67765">
        <ele>364</ele>
        <time>2018-02-02T11:09:37Z</time>
      </trkpt>
      <trkpt lat="45.90489" lon="4.67769">
        <ele>364</ele>
        <time>2018-02-02T11:09:38Z</time>
      </trkpt>
      <trkpt lat="45.90495" lon="4.67771">
        <ele>364</ele>
        <time>2018-02-02T11:09:39Z</time>
      </trkpt>
      <trkpt lat="45.90502" lon="4.67774">
        <ele>364</ele>
        <time>2018-02-02T11:09:40Z</time>
      </trkpt>
      <trkpt lat="45.90508" lon="4.67776">
        <ele>365</ele>
        <time>2018-02-02T11:09:41Z</time>
      </trkpt>
      <trkpt lat="45.90514" lon="4.67777">
        <ele>365</ele>
        <time>2018-02-02T11:09:42Z</time>
      </trkpt>
      <trkpt lat="45.90521" lon="4.6778">
        <ele>365</ele>
        <time>2018-02-02T11:09:43Z</time>
      </trkpt>
      <trkpt lat="45.90526" lon="4.67782">
        <ele>365</ele>
        <time>2018-02-02T11:09:44Z</time>
      </trkpt>
      <trkpt lat="45.90532" lon="4.67783">
        <ele>365</ele>
        <time>2018-02-02T11:09:45Z</time>
      </trkpt>
      <trkpt lat="45.90537" lon="4.67785">
        <ele>365</ele>
        <time>2018-02-02T11:09:46Z</time>
      </trkpt>
      <trkpt lat="45.90543" lon="4.67789">
        <ele>365</ele>
        <time>2018-02-02T11:09:47Z</time>
      </trkpt>
      <trkpt lat="45.90549" lon="4.67791">
        <ele>365</ele>
        <time>2018-02-02T11:09:48Z</time>
      </trkpt>
      <trkpt lat="45.90554" lon="4.67792">
        <ele>365</ele>
        <time>2018-02-02T11:09:49Z</time>
      </trkpt>
      <trkpt lat="45.90559" lon="4.67793">
        <ele>365</ele>
        <time>2018-02-02T11:09:50Z</time>
      </trkpt>
      <trkpt lat="45.90564" lon="4.67794">
        <ele>365</ele>
        <time>2018-02-02T11:09:51Z</time>
      </trkpt>
      <trkpt lat="45.9057" lon="4.67796">
        <ele>365</ele>
        <time>2018-02-02T11:09:52Z</time>
      </trkpt>
      <trkpt lat="45.90574" lon="4.67798">
        <ele>366</ele>
        <time>2018-02-02T11:09:53Z</time>
      </trkpt>
      <trkpt lat="45.90579" lon="4.67799">
        <ele>366</ele>
        <time>2018-02-02T11:09:54Z</time>
      </trkpt>
      <trkpt lat="45.90584" lon="4.67799">
        <ele>367</ele>
        <time>2018-02-02T11:09:55Z</time>
      </trkpt>
      <trkpt lat="45.90589" lon="4.67799">
        <ele>367</ele>
        <time>2018-02-02T11:09:56Z</time>
      </trkpt>
      <trkpt lat="45.90594" lon="4.67799">
        <ele>367</ele>
        <time>2018-02-02T11:09:57Z</time>
      </trkpt>
      <trkpt lat="45.90599" lon="4.67799">
        <ele>367</ele>
        <time>2018-02-02T11:09:58Z</time>
      </trkpt>
      <trkpt lat="45.90604" lon="4.67799">
        <ele>367</ele>
        <time>2018-02-02T11:09:59Z</time>
      </trkpt>
      <trkpt lat="45.90609" lon="4.67799">
        <ele>367</ele>
        <time>2018-02-02T11:10:00Z</time>
      </trkpt>
      <trkpt lat="45.90614" lon="4.67798">
        <ele>367</ele>
        <time>2018-02-02T11:10:01Z</time>
      </trkpt>
      <trkpt lat="45.90618" lon="4.67799">
        <ele>367</ele>
        <time>2018-02-02T11:10:02Z</time>
      </trkpt>
      <trkpt lat="45.90623" lon="4.67799">
        <ele>367</ele>
        <time>2018-02-02T11:10:03Z</time>
      </trkpt>
      <trkpt lat="45.90628" lon="4.678">
        <ele>367</ele>
        <time>2018-02-02T11:10:04Z</time>
      </trkpt>
      <trkpt lat="45.90633" lon="4.678">
        <ele>367</ele>
        <time>2018-02-02T11:10:05Z</time>
      </trkpt>
      <trkpt lat="45.90639" lon="4.678">
        <ele>367</ele>
        <time>2018-02-02T11:10:06Z</time>
      </trkpt>
      <trkpt lat="45.90643" lon="4.67801">
        <ele>368</ele>
        <time>2018-02-02T11:10:07Z</time>
      </trkpt>
      <trkpt lat="45.90648" lon="4.678">
        <ele>368</ele>
        <time>2018-02-02T11:10:08Z</time>
      </trkpt>
      <trkpt lat="45.90653" lon="4.67801">
        <ele>368</ele>
        <time>2018-02-02T11:10:09Z</time>
      </trkpt>
      <trkpt lat="45.90658" lon="4.67801">
        <ele>368</ele>
        <time>2018-02-02T11:10:10Z</time>
      </trkpt>
      <trkpt lat="45.90662" lon="4.67801">
        <ele>368</ele>
        <time>2018-02-02T11:10:11Z</time>
      </trkpt>
      <trkpt lat="45.90668" lon="4.67801">
        <ele>368</ele>
        <time>2018-02-02T11:10:12Z</time>
      </trkpt>
      <trkpt lat="45.90672" lon="4.67802">
        <ele>368</ele>
        <time>2018-02-02T11:10:13Z</time>
      </trkpt>
      <trkpt lat="45.90677" lon="4.67803">
        <ele>368</ele>
        <time>2018-02-02T11:10:14Z</time>
      </trkpt>
      <trkpt lat="45.90682" lon="4.67803">
        <ele>368</ele>
        <time>2018-02-02T11:10:15Z</time>
      </trkpt>
      <trkpt lat="45.90687" lon="4.67804">
        <ele>368</ele>
        <time>2018-02-02T11:10:16Z</time>
      </trkpt>
      <trkpt lat="45.90692" lon="4.67805">
        <ele>368</ele>
        <time>2018-02-02T11:10:17Z</time>
      </trkpt>
      <trkpt lat="45.90696" lon="4.67805">
        <ele>368</ele>
        <time>2018-02-02T11:10:18Z</time>
      </trkpt>
      <trkpt lat="45.90701" lon="4.67808">
        <ele>368</ele>
        <time>2018-02-02T11:10:19Z</time>
      </trkpt>
      <trkpt lat="45.90706" lon="4.67809">
        <ele>368</ele>
        <time>2018-02-02T11:10:20Z</time>
      </trkpt>
      <trkpt lat="45.90711" lon="4.6781">
        <ele>368</ele>
        <time>2018-02-02T11:10:21Z</time>
      </trkpt>
      <trkpt lat="45.90716" lon="4.67812">
        <ele>369</ele>
        <time>2018-02-02T11:10:22Z</time>
      </trkpt>
      <trkpt lat="45.90724" lon="4.67815">
        <ele>369</ele>
        <time>2018-02-02T11:10:24Z</time>
      </trkpt>
      <trkpt lat="45.90728" lon="4.67818">
        <ele>369</ele>
        <time>2018-02-02T11:10:25Z</time>
      </trkpt>
      <trkpt lat="45.90732" lon="4.6782">
        <ele>369</ele>
        <time>2018-02-02T11:10:26Z</time>
      </trkpt>
      <trkpt lat="45.90736" lon="4.67823">
        <ele>369</ele>
        <time>2018-02-02T11:10:27Z</time>
      </trkpt>
      <trkpt lat="45.90745" lon="4.67826">
        <ele>370</ele>
        <time>2018-02-02T11:10:29Z</time>
      </trkpt>
      <trkpt lat="45.90749" lon="4.67828">
        <ele>370</ele>
        <time>2018-02-02T11:10:30Z</time>
      </trkpt>
      <trkpt lat="45.90753" lon="4.6783">
        <ele>370</ele>
        <time>2018-02-02T11:10:31Z</time>
      </trkpt>
      <trkpt lat="45.90758" lon="4.67833">
        <ele>370</ele>
        <time>2018-02-02T11:10:32Z</time>
      </trkpt>
      <trkpt lat="45.90762" lon="4.67835">
        <ele>371</ele>
        <time>2018-02-02T11:10:33Z</time>
      </trkpt>
      <trkpt lat="45.90767" lon="4.67836">
        <ele>371</ele>
        <time>2018-02-02T11:10:34Z</time>
      </trkpt>
      <trkpt lat="45.90772" lon="4.67838">
        <ele>371</ele>
        <time>2018-02-02T11:10:35Z</time>
      </trkpt>
      <trkpt lat="45.90776" lon="4.6784">
        <ele>371</ele>
        <time>2018-02-02T11:10:36Z</time>
      </trkpt>
      <trkpt lat="45.90781" lon="4.67841">
        <ele>371</ele>
        <time>2018-02-02T11:10:37Z</time>
      </trkpt>
      <trkpt lat="45.90786" lon="4.67843">
        <ele>371</ele>
        <time>2018-02-02T11:10:38Z</time>
      </trkpt>
      <trkpt lat="45.9079" lon="4.67844">
        <ele>371</ele>
        <time>2018-02-02T11:10:39Z</time>
      </trkpt>
      <trkpt lat="45.90795" lon="4.67846">
        <ele>371</ele>
        <time>2018-02-02T11:10:40Z</time>
      </trkpt>
      <trkpt lat="45.90803" lon="4.67846">
        <ele>371</ele>
        <time>2018-02-02T11:10:42Z</time>
      </trkpt>
      <trkpt lat="45.90807" lon="4.67847">
        <ele>371</ele>
        <time>2018-02-02T11:10:43Z</time>
      </trkpt>
      <trkpt lat="45.90815" lon="4.67852">
        <ele>371</ele>
        <time>2018-02-02T11:10:45Z</time>
      </trkpt>
      <trkpt lat="45.90821" lon="4.67853">
        <ele>371</ele>
        <time>2018-02-02T11:10:46Z</time>
      </trkpt>
      <trkpt lat="45.90825" lon="4.67854">
        <ele>371</ele>
        <time>2018-02-02T11:10:47Z</time>
      </trkpt>
      <trkpt lat="45.9083" lon="4.67856">
        <ele>371</ele>
        <time>2018-02-02T11:10:48Z</time>
      </trkpt>
      <trkpt lat="45.90838" lon="4.67859">
        <ele>370</ele>
        <time>2018-02-02T11:10:50Z</time>
      </trkpt>
      <trkpt lat="45.90841" lon="4.67861">
        <ele>370</ele>
        <time>2018-02-02T11:10:51Z</time>
      </trkpt>
      <trkpt lat="45.90849" lon="4.67864">
        <ele>370</ele>
        <time>2018-02-02T11:10:53Z</time>
      </trkpt>
      <trkpt lat="45.90854" lon="4.67866">
        <ele>370</ele>
        <time>2018-02-02T11:10:54Z</time>
      </trkpt>
      <trkpt lat="45.90862" lon="4.67869">
        <ele>370</ele>
        <time>2018-02-02T11:10:56Z</time>
      </trkpt>
      <trkpt lat="45.90865" lon="4.67871">
        <ele>370</ele>
        <time>2018-02-02T11:10:57Z</time>
      </trkpt>
      <trkpt lat="45.9087" lon="4.67872">
        <ele>370</ele>
        <time>2018-02-02T11:10:58Z</time>
      </trkpt>
      <trkpt lat="45.90874" lon="4.67875">
        <ele>370</ele>
        <time>2018-02-02T11:10:59Z</time>
      </trkpt>
      <trkpt lat="45.90879" lon="4.67877">
        <ele>370</ele>
        <time>2018-02-02T11:11:00Z</time>
      </trkpt>
      <trkpt lat="45.90883" lon="4.67878">
        <ele>370</ele>
        <time>2018-02-02T11:11:01Z</time>
      </trkpt>
      <trkpt lat="45.90892" lon="4.67883">
        <ele>370</ele>
        <time>2018-02-02T11:11:03Z</time>
      </trkpt>
      <trkpt lat="45.90896" lon="4.67884">
        <ele>370</ele>
        <time>2018-02-02T11:11:04Z</time>
      </trkpt>
      <trkpt lat="45.90903" lon="4.67887">
        <ele>370</ele>
        <time>2018-02-02T11:11:06Z</time>
      </trkpt>
      <trkpt lat="45.90908" lon="4.67889">
        <ele>370</ele>
        <time>2018-02-02T11:11:07Z</time>
      </trkpt>
      <trkpt lat="45.90915" lon="4.67892">
        <ele>370</ele>
        <time>2018-02-02T11:11:09Z</time>
      </trkpt>
      <trkpt lat="45.90919" lon="4.67894">
        <ele>370</ele>
        <time>2018-02-02T11:11:10Z</time>
      </trkpt>
      <trkpt lat="45.90927" lon="4.67896">
        <ele>370</ele>
        <time>2018-02-02T11:11:12Z</time>
      </trkpt>
      <trkpt lat="45.90931" lon="4.67898">
        <ele>370</ele>
        <time>2018-02-02T11:11:13Z</time>
      </trkpt>
      <trkpt lat="45.9094" lon="4.67901">
        <ele>370</ele>
        <time>2018-02-02T11:11:15Z</time>
      </trkpt>
      <trkpt lat="45.90944" lon="4.67902">
        <ele>370</ele>
        <time>2018-02-02T11:11:16Z</time>
      </trkpt>
      <trkpt lat="45.90951" lon="4.67905">
        <ele>370</ele>
        <time>2018-02-02T11:11:18Z</time>
      </trkpt>
      <trkpt lat="45.90955" lon="4.67907">
        <ele>370</ele>
        <time>2018-02-02T11:11:19Z</time>
      </trkpt>
      <trkpt lat="45.90963" lon="4.6791">
        <ele>370</ele>
        <time>2018-02-02T11:11:21Z</time>
      </trkpt>
      <trkpt lat="45.90966" lon="4.67911">
        <ele>370</ele>
        <time>2018-02-02T11:11:22Z</time>
      </trkpt>
      <trkpt lat="45.90974" lon="4.67915">
        <ele>370</ele>
        <time>2018-02-02T11:11:24Z</time>
      </trkpt>
      <trkpt lat="45.90977" lon="4.67916">
        <ele>370</ele>
        <time>2018-02-02T11:11:25Z</time>
      </trkpt>
      <trkpt lat="45.90984" lon="4.67919">
        <ele>372</ele>
        <time>2018-02-02T11:11:27Z</time>
      </trkpt>
      <trkpt lat="45.90988" lon="4.67921">
        <ele>372</ele>
        <time>2018-02-02T11:11:28Z</time>
      </trkpt>
      <trkpt lat="45.90996" lon="4.67925">
        <ele>372</ele>
        <time>2018-02-02T11:11:30Z</time>
      </trkpt>
      <trkpt lat="45.90999" lon="4.67927">
        <ele>372</ele>
        <time>2018-02-02T11:11:31Z</time>
      </trkpt>
      <trkpt lat="45.91007" lon="4.6793">
        <ele>373</ele>
        <time>2018-02-02T11:11:33Z</time>
      </trkpt>
      <trkpt lat="45.9101" lon="4.67932">
        <ele>373</ele>
        <time>2018-02-02T11:11:34Z</time>
      </trkpt>
      <trkpt lat="45.91018" lon="4.67935">
        <ele>374</ele>
        <time>2018-02-02T11:11:36Z</time>
      </trkpt>
      <trkpt lat="45.91021" lon="4.67937">
        <ele>374</ele>
        <time>2018-02-02T11:11:37Z</time>
      </trkpt>
      <trkpt lat="45.91028" lon="4.67941">
        <ele>374</ele>
        <time>2018-02-02T11:11:39Z</time>
      </trkpt>
      <trkpt lat="45.91031" lon="4.67943">
        <ele>374</ele>
        <time>2018-02-02T11:11:40Z</time>
      </trkpt>
      <trkpt lat="45.91038" lon="4.67946">
        <ele>374</ele>
        <time>2018-02-02T11:11:42Z</time>
      </trkpt>
      <trkpt lat="45.91041" lon="4.67947">
        <ele>374</ele>
        <time>2018-02-02T11:11:43Z</time>
      </trkpt>
      <trkpt lat="45.91048" lon="4.6795">
        <ele>375</ele>
        <time>2018-02-02T11:11:45Z</time>
      </trkpt>
      <trkpt lat="45.91051" lon="4.67951">
        <ele>375</ele>
        <time>2018-02-02T11:11:46Z</time>
      </trkpt>
      <trkpt lat="45.91058" lon="4.67954">
        <ele>375</ele>
        <time>2018-02-02T11:11:48Z</time>
      </trkpt>
      <trkpt lat="45.91061" lon="4.67955">
        <ele>375</ele>
        <time>2018-02-02T11:11:49Z</time>
      </trkpt>
      <trkpt lat="45.91067" lon="4.67957">
        <ele>375</ele>
        <time>2018-02-02T11:11:51Z</time>
      </trkpt>
      <trkpt lat="45.91071" lon="4.67958">
        <ele>375</ele>
        <time>2018-02-02T11:11:52Z</time>
      </trkpt>
      <trkpt lat="45.91077" lon="4.6796">
        <ele>375</ele>
        <time>2018-02-02T11:11:54Z</time>
      </trkpt>
      <trkpt lat="45.9108" lon="4.67961">
        <ele>375</ele>
        <time>2018-02-02T11:11:55Z</time>
      </trkpt>
      <trkpt lat="45.91087" lon="4.67963">
        <ele>377</ele>
        <time>2018-02-02T11:11:57Z</time>
      </trkpt>
      <trkpt lat="45.9109" lon="4.67964">
        <ele>377</ele>
        <time>2018-02-02T11:11:58Z</time>
      </trkpt>
      <trkpt lat="45.91097" lon="4.67965">
        <ele>377</ele>
        <time>2018-02-02T11:12:00Z</time>
      </trkpt>
      <trkpt lat="45.911" lon="4.67966">
        <ele>377</ele>
        <time>2018-02-02T11:12:01Z</time>
      </trkpt>
      <trkpt lat="45.91108" lon="4.67969">
        <ele>377</ele>
        <time>2018-02-02T11:12:04Z</time>
      </trkpt>
      <trkpt lat="45.91111" lon="4.67969">
        <ele>377</ele>
        <time>2018-02-02T11:12:05Z</time>
      </trkpt>
      <trkpt lat="45.91119" lon="4.67972">
        <ele>377</ele>
        <time>2018-02-02T11:12:08Z</time>
      </trkpt>
      <trkpt lat="45.91122" lon="4.67973">
        <ele>377</ele>
        <time>2018-02-02T11:12:09Z</time>
      </trkpt>
      <trkpt lat="45.9113" lon="4.67975">
        <ele>377</ele>
        <time>2018-02-02T11:12:12Z</time>
      </trkpt>
      <trkpt lat="45.91133" lon="4.67976">
        <ele>377</ele>
        <time>2018-02-02T11:12:13Z</time>
      </trkpt>
      <trkpt lat="45.91141" lon="4.67979">
        <ele>378</ele>
        <time>2018-02-02T11:12:16Z</time>
      </trkpt>
      <trkpt lat="45.91144" lon="4.6798">
        <ele>378</ele>
        <time>2018-02-02T11:12:17Z</time>
      </trkpt>
      <trkpt lat="45.91152" lon="4.67983">
        <ele>378</ele>
        <time>2018-02-02T11:12:20Z</time>
      </trkpt>
      <trkpt lat="45.91155" lon="4.67984">
        <ele>379</ele>
        <time>2018-02-02T11:12:21Z</time>
      </trkpt>
      <trkpt lat="45.91163" lon="4.67988">
        <ele>379</ele>
        <time>2018-02-02T11:12:24Z</time>
      </trkpt>
      <trkpt lat="45.91166" lon="4.67989">
        <ele>379</ele>
        <time>2018-02-02T11:12:25Z</time>
      </trkpt>
      <trkpt lat="45.91174" lon="4.67993">
        <ele>380</ele>
        <time>2018-02-02T11:12:28Z</time>
      </trkpt>
      <trkpt lat="45.91176" lon="4.67995">
        <ele>380</ele>
        <time>2018-02-02T11:12:29Z</time>
      </trkpt>
      <trkpt lat="45.91184" lon="4.68">
        <ele>380</ele>
        <time>2018-02-02T11:12:32Z</time>
      </trkpt>
      <trkpt lat="45.91186" lon="4.68001">
        <ele>382</ele>
        <time>2018-02-02T11:12:33Z</time>
      </trkpt>
      <trkpt lat="45.91194" lon="4.68006">
        <ele>383</ele>
        <time>2018-02-02T11:12:36Z</time>
      </trkpt>
      <trkpt lat="45.91197" lon="4.68008">
        <ele>383</ele>
        <time>2018-02-02T11:12:37Z</time>
      </trkpt>
      <trkpt lat="45.91204" lon="4.68013">
        <ele>383</ele>
        <time>2018-02-02T11:12:40Z</time>
      </trkpt>
      <trkpt lat="45.91206" lon="4.68015">
        <ele>383</ele>
        <time>2018-02-02T11:12:41Z</time>
      </trkpt>
      <trkpt lat="45.91213" lon="4.68019">
        <ele>383</ele>
        <time>2018-02-02T11:12:44Z</time>
      </trkpt>
      <trkpt lat="45.91216" lon="4.6802">
        <ele>383</ele>
        <time>2018-02-02T11:12:45Z</time>
      </trkpt>
      <trkpt lat="45.91222" lon="4.68023">
        <ele>384</ele>
        <time>2018-02-02T11:12:47Z</time>
      </trkpt>
      <trkpt lat="45.91225" lon="4.68024">
        <ele>384</ele>
        <time>2018-02-02T11:12:48Z</time>
      </trkpt>
      <trkpt lat="45.91233" lon="4.68026">
        <ele>384</ele>
        <time>2018-02-02T11:12:51Z</time>
      </trkpt>
      <trkpt lat="45.91236" lon="4.68027">
        <ele>384</ele>
        <time>2018-02-02T11:12:52Z</time>
      </trkpt>
      <trkpt lat="45.91242" lon="4.6803">
        <ele>384</ele>
        <time>2018-02-02T11:12:54Z</time>
      </trkpt>
      <trkpt lat="45.91245" lon="4.68031">
        <ele>384</ele>
        <time>2018-02-02T11:12:55Z</time>
      </trkpt>
      <trkpt lat="45.91253" lon="4.68036">
        <ele>385</ele>
        <time>2018-02-02T11:12:58Z</time>
      </trkpt>
      <trkpt lat="45.91256" lon="4.68037">
        <ele>385</ele>
        <time>2018-02-02T11:12:59Z</time>
      </trkpt>
      <trkpt lat="45.91262" lon="4.68039">
        <ele>385</ele>
        <time>2018-02-02T11:13:01Z</time>
      </trkpt>
      <trkpt lat="45.91265" lon="4.68041">
        <ele>385</ele>
        <time>2018-02-02T11:13:02Z</time>
      </trkpt>
      <trkpt lat="45.91271" lon="4.68044">
        <ele>385</ele>
        <time>2018-02-02T11:13:04Z</time>
      </trkpt>
      <trkpt lat="45.91274" lon="4.68045">
        <ele>385</ele>
        <time>2018-02-02T11:13:05Z</time>
      </trkpt>
      <trkpt lat="45.91281" lon="4.68046">
        <ele>385</ele>
        <time>2018-02-02T11:13:07Z</time>
      </trkpt>
      <trkpt lat="45.91284" lon="4.68048">
        <ele>385</ele>
        <time>2018-02-02T11:13:08Z</time>
      </trkpt>
      <trkpt lat="45.9129" lon="4.68051">
        <ele>385</ele>
        <time>2018-02-02T11:13:10Z</time>
      </trkpt>
      <trkpt lat="45.91294" lon="4.68052">
        <ele>385</ele>
        <time>2018-02-02T11:13:11Z</time>
      </trkpt>
      <trkpt lat="45.913" lon="4.68056">
        <ele>385</ele>
        <time>2018-02-02T11:13:13Z</time>
      </trkpt>
      <trkpt lat="45.91303" lon="4.68058">
        <ele>385</ele>
        <time>2018-02-02T11:13:14Z</time>
      </trkpt>
      <trkpt lat="45.91309" lon="4.68062">
        <ele>385</ele>
        <time>2018-02-02T11:13:16Z</time>
      </trkpt>
      <trkpt lat="45.91312" lon="4.68063">
        <ele>385</ele>
        <time>2018-02-02T11:13:17Z</time>
      </trkpt>
      <trkpt lat="45.91318" lon="4.68066">
        <ele>385</ele>
        <time>2018-02-02T11:13:19Z</time>
      </trkpt>
      <trkpt lat="45.91322" lon="4.68068">
        <ele>385</ele>
        <time>2018-02-02T11:13:20Z</time>
      </trkpt>
      <trkpt lat="45.91329" lon="4.68072">
        <ele>385</ele>
        <time>2018-02-02T11:13:22Z</time>
      </trkpt>
      <trkpt lat="45.91333" lon="4.68073">
        <ele>385</ele>
        <time>2018-02-02T11:13:23Z</time>
      </trkpt>
      <trkpt lat="45.9134" lon="4.68077">
        <ele>385</ele>
        <time>2018-02-02T11:13:25Z</time>
      </trkpt>
      <trkpt lat="45.91344" lon="4.68079">
        <ele>385</ele>
        <time>2018-02-02T11:13:26Z</time>
      </trkpt>
      <trkpt lat="45.91351" lon="4.68083">
        <ele>385</ele>
        <time>2018-02-02T11:13:28Z</time>
      </trkpt>
      <trkpt lat="45.91355" lon="4.68085">
        <ele>386</ele>
        <time>2018-02-02T11:13:29Z</time>
      </trkpt>
      <trkpt lat="45.91362" lon="4.68088">
        <ele>386</ele>
        <time>2018-02-02T11:13:31Z</time>
      </trkpt>
      <trkpt lat="45.91365" lon="4.68089">
        <ele>386</ele>
        <time>2018-02-02T11:13:32Z</time>
      </trkpt>
      <trkpt lat="45.91372" lon="4.68092">
        <ele>386</ele>
        <time>2018-02-02T11:13:34Z</time>
      </trkpt>
      <trkpt lat="45.91375" lon="4.68093">
        <ele>386</ele>
        <time>2018-02-02T11:13:35Z</time>
      </trkpt>
      <trkpt lat="45.91383" lon="4.68094">
        <ele>386</ele>
        <time>2018-02-02T11:13:37Z</time>
      </trkpt>
      <trkpt lat="45.91387" lon="4.68095">
        <ele>386</ele>
        <time>2018-02-02T11:13:38Z</time>
      </trkpt>
      <trkpt lat="45.91395" lon="4.68095">
        <ele>386</ele>
        <time>2018-02-02T11:13:40Z</time>
      </trkpt>
      <trkpt lat="45.91399" lon="4.68095">
        <ele>386</ele>
        <time>2018-02-02T11:13:41Z</time>
      </trkpt>
      <trkpt lat="45.91407" lon="4.68093">
        <ele>386</ele>
        <time>2018-02-02T11:13:43Z</time>
      </trkpt>
      <trkpt lat="45.91411" lon="4.68093">
        <ele>386</ele>
        <time>2018-02-02T11:13:44Z</time>
      </trkpt>
      <trkpt lat="45.9142" lon="4.68091">
        <ele>385</ele>
        <time>2018-02-02T11:13:46Z</time>
      </trkpt>
      <trkpt lat="45.91424" lon="4.6809">
        <ele>385</ele>
        <time>2018-02-02T11:13:47Z</time>
      </trkpt>
      <trkpt lat="45.91433" lon="4.68092">
        <ele>385</ele>
        <time>2018-02-02T11:13:49Z</time>
      </trkpt>
      <trkpt lat="45.91436" lon="4.68093">
        <ele>385</ele>
        <time>2018-02-02T11:13:50Z</time>
      </trkpt>
      <trkpt lat="45.91441" lon="4.68094">
        <ele>385</ele>
        <time>2018-02-02T11:13:51Z</time>
      </trkpt>
      <trkpt lat="45.91446" lon="4.68095">
        <ele>384</ele>
        <time>2018-02-02T11:13:52Z</time>
      </trkpt>
      <trkpt lat="45.91451" lon="4.68097">
        <ele>384</ele>
        <time>2018-02-02T11:13:53Z</time>
      </trkpt>
      <trkpt lat="45.91456" lon="4.681">
        <ele>384</ele>
        <time>2018-02-02T11:13:54Z</time>
      </trkpt>
      <trkpt lat="45.91461" lon="4.68102">
        <ele>384</ele>
        <time>2018-02-02T11:13:55Z</time>
      </trkpt>
      <trkpt lat="45.91467" lon="4.68105">
        <ele>384</ele>
        <time>2018-02-02T11:13:56Z</time>
      </trkpt>
      <trkpt lat="45.91472" lon="4.68108">
        <ele>384</ele>
        <time>2018-02-02T11:13:57Z</time>
      </trkpt>
      <trkpt lat="45.91477" lon="4.68112">
        <ele>384</ele>
        <time>2018-02-02T11:13:58Z</time>
      </trkpt>
      <trkpt lat="45.91483" lon="4.68116">
        <ele>383</ele>
        <time>2018-02-02T11:13:59Z</time>
      </trkpt>
      <trkpt lat="45.91489" lon="4.68119">
        <ele>383</ele>
        <time>2018-02-02T11:14:00Z</time>
      </trkpt>
      <trkpt lat="45.91495" lon="4.68123">
        <ele>383</ele>
        <time>2018-02-02T11:14:01Z</time>
      </trkpt>
      <trkpt lat="45.915" lon="4.68127">
        <ele>380</ele>
        <time>2018-02-02T11:14:02Z</time>
      </trkpt>
      <trkpt lat="45.91507" lon="4.68129">
        <ele>380</ele>
        <time>2018-02-02T11:14:03Z</time>
      </trkpt>
      <trkpt lat="45.91512" lon="4.68133">
        <ele>380</ele>
        <time>2018-02-02T11:14:04Z</time>
      </trkpt>
      <trkpt lat="45.91519" lon="4.68136">
        <ele>380</ele>
        <time>2018-02-02T11:14:05Z</time>
      </trkpt>
      <trkpt lat="45.91526" lon="4.68139">
        <ele>380</ele>
        <time>2018-02-02T11:14:06Z</time>
      </trkpt>
      <trkpt lat="45.91532" lon="4.68143">
        <ele>379</ele>
        <time>2018-02-02T11:14:07Z</time>
      </trkpt>
      <trkpt lat="45.91539" lon="4.68145">
        <ele>379</ele>
        <time>2018-02-02T11:14:08Z</time>
      </trkpt>
      <trkpt lat="45.91546" lon="4.68149">
        <ele>379</ele>
        <time>2018-02-02T11:14:09Z</time>
      </trkpt>
      <trkpt lat="45.91553" lon="4.68152">
        <ele>379</ele>
        <time>2018-02-02T11:14:10Z</time>
      </trkpt>
      <trkpt lat="45.91561" lon="4.68156">
        <ele>379</ele>
        <time>2018-02-02T11:14:11Z</time>
      </trkpt>
      <trkpt lat="45.91568" lon="4.6816">
        <ele>378</ele>
        <time>2018-02-02T11:14:12Z</time>
      </trkpt>
      <trkpt lat="45.91575" lon="4.68164">
        <ele>378</ele>
        <time>2018-02-02T11:14:13Z</time>
      </trkpt>
      <trkpt lat="45.91582" lon="4.68169">
        <ele>378</ele>
        <time>2018-02-02T11:14:14Z</time>
      </trkpt>
      <trkpt lat="45.9159" lon="4.68174">
        <ele>377</ele>
        <time>2018-02-02T11:14:15Z</time>
      </trkpt>
      <trkpt lat="45.91598" lon="4.68181">
        <ele>376</ele>
        <time>2018-02-02T11:14:16Z</time>
      </trkpt>
      <trkpt lat="45.91605" lon="4.68187">
        <ele>376</ele>
        <time>2018-02-02T11:14:17Z</time>
      </trkpt>
      <trkpt lat="45.91612" lon="4.68192">
        <ele>375</ele>
        <time>2018-02-02T11:14:18Z</time>
      </trkpt>
      <trkpt lat="45.91619" lon="4.68197">
        <ele>375</ele>
        <time>2018-02-02T11:14:19Z</time>
      </trkpt>
      <trkpt lat="45.91627" lon="4.68202">
        <ele>375</ele>
        <time>2018-02-02T11:14:20Z</time>
      </trkpt>
      <trkpt lat="45.91634" lon="4.68207">
        <ele>375</ele>
        <time>2018-02-02T11:14:21Z</time>
      </trkpt>
      <trkpt lat="45.91641" lon="4.68211">
        <ele>374</ele>
        <time>2018-02-02T11:14:22Z</time>
      </trkpt>
      <trkpt lat="45.91648" lon="4.68216">
        <ele>374</ele>
        <time>2018-02-02T11:14:23Z</time>
      </trkpt>
      <trkpt lat="45.91655" lon="4.68222">
        <ele>374</ele>
        <time>2018-02-02T11:14:24Z</time>
      </trkpt>
      <trkpt lat="45.91662" lon="4.68227">
        <ele>374</ele>
        <time>2018-02-02T11:14:25Z</time>
      </trkpt>
      <trkpt lat="45.91669" lon="4.68232">
        <ele>371</ele>
        <time>2018-02-02T11:14:26Z</time>
      </trkpt>
      <trkpt lat="45.91677" lon="4.68236">
        <ele>372</ele>
        <time>2018-02-02T11:14:27Z</time>
      </trkpt>
      <trkpt lat="45.91683" lon="4.68242">
        <ele>371</ele>
        <time>2018-02-02T11:14:28Z</time>
      </trkpt>
      <trkpt lat="45.9169" lon="4.68246">
        <ele>371</ele>
        <time>2018-02-02T11:14:29Z</time>
      </trkpt>
      <trkpt lat="45.91696" lon="4.6825">
        <ele>373</ele>
        <time>2018-02-02T11:14:30Z</time>
      </trkpt>
      <trkpt lat="45.91703" lon="4.68254">
        <ele>373</ele>
        <time>2018-02-02T11:14:31Z</time>
      </trkpt>
      <trkpt lat="45.9171" lon="4.68257">
        <ele>373</ele>
        <time>2018-02-02T11:14:32Z</time>
      </trkpt>
      <trkpt lat="45.91718" lon="4.68259">
        <ele>373</ele>
        <time>2018-02-02T11:14:33Z</time>
      </trkpt>
      <trkpt lat="45.91724" lon="4.6826">
        <ele>372</ele>
        <time>2018-02-02T11:14:34Z</time>
      </trkpt>
      <trkpt lat="45.9173" lon="4.68261">
        <ele>372</ele>
        <time>2018-02-02T11:14:35Z</time>
      </trkpt>
      <trkpt lat="45.91736" lon="4.68263">
        <ele>372</ele>
        <time>2018-02-02T11:14:36Z</time>
      </trkpt>
      <trkpt lat="45.91742" lon="4.68264">
        <ele>372</ele>
        <time>2018-02-02T11:14:37Z</time>
      </trkpt>
      <trkpt lat="45.91747" lon="4.68267">
        <ele>372</ele>
        <time>2018-02-02T11:14:38Z</time>
      </trkpt>
      <trkpt lat="45.91752" lon="4.68269">
        <ele>372</ele>
        <time>2018-02-02T11:14:39Z</time>
      </trkpt>
      <trkpt lat="45.91757" lon="4.68271">
        <ele>372</ele>
        <time>2018-02-02T11:14:40Z</time>
      </trkpt>
      <trkpt lat="45.91761" lon="4.68273">
        <ele>372</ele>
        <time>2018-02-02T11:14:41Z</time>
      </trkpt>
      <trkpt lat="45.91767" lon="4.68273">
        <ele>372</ele>
        <time>2018-02-02T11:14:42Z</time>
      </trkpt>
      <trkpt lat="45.91771" lon="4.68275">
        <ele>372</ele>
        <time>2018-02-02T11:14:43Z</time>
      </trkpt>
      <trkpt lat="45.91776" lon="4.68275">
        <ele>372</ele>
        <time>2018-02-02T11:14:44Z</time>
      </trkpt>
      <trkpt lat="45.91781" lon="4.68276">
        <ele>372</ele>
        <time>2018-02-02T11:14:45Z</time>
      </trkpt>
      <trkpt lat="45.91786" lon="4.68276">
        <ele>372</ele>
        <time>2018-02-02T11:14:46Z</time>
      </trkpt>
      <trkpt lat="45.91792" lon="4.68278">
        <ele>373</ele>
        <time>2018-02-02T11:14:47Z</time>
      </trkpt>
      <trkpt lat="45.91796" lon="4.68279">
        <ele>373</ele>
        <time>2018-02-02T11:14:48Z</time>
      </trkpt>
      <trkpt lat="45.91803" lon="4.68282">
        <ele>373</ele>
        <time>2018-02-02T11:14:50Z</time>
      </trkpt>
      <trkpt lat="45.91808" lon="4.68283">
        <ele>373</ele>
        <time>2018-02-02T11:14:51Z</time>
      </trkpt>
      <trkpt lat="45.91816" lon="4.68284">
        <ele>373</ele>
        <time>2018-02-02T11:14:53Z</time>
      </trkpt>
      <trkpt lat="45.91821" lon="4.68285">
        <ele>373</ele>
        <time>2018-02-02T11:14:54Z</time>
      </trkpt>
      <trkpt lat="45.91829" lon="4.68287">
        <ele>373</ele>
        <time>2018-02-02T11:14:56Z</time>
      </trkpt>
      <trkpt lat="45.91833" lon="4.68289">
        <ele>373</ele>
        <time>2018-02-02T11:14:57Z</time>
      </trkpt>
      <trkpt lat="45.91841" lon="4.6829">
        <ele>375</ele>
        <time>2018-02-02T11:14:59Z</time>
      </trkpt>
      <trkpt lat="45.91845" lon="4.68291">
        <ele>375</ele>
        <time>2018-02-02T11:15:00Z</time>
      </trkpt>
      <trkpt lat="45.91852" lon="4.68292">
        <ele>375</ele>
        <time>2018-02-02T11:15:02Z</time>
      </trkpt>
      <trkpt lat="45.91856" lon="4.68293">
        <ele>375</ele>
        <time>2018-02-02T11:15:03Z</time>
      </trkpt>
      <trkpt lat="45.91864" lon="4.68294">
        <ele>376</ele>
        <time>2018-02-02T11:15:05Z</time>
      </trkpt>
      <trkpt lat="45.91868" lon="4.68295">
        <ele>376</ele>
        <time>2018-02-02T11:15:06Z</time>
      </trkpt>
      <trkpt lat="45.91876" lon="4.68295">
        <ele>376</ele>
        <time>2018-02-02T11:15:08Z</time>
      </trkpt>
      <trkpt lat="45.9188" lon="4.68295">
        <ele>376</ele>
        <time>2018-02-02T11:15:09Z</time>
      </trkpt>
      <trkpt lat="45.91889" lon="4.68295">
        <ele>376</ele>
        <time>2018-02-02T11:15:11Z</time>
      </trkpt>
      <trkpt lat="45.91893" lon="4.68295">
        <ele>376</ele>
        <time>2018-02-02T11:15:12Z</time>
      </trkpt>
      <trkpt lat="45.919" lon="4.68296">
        <ele>377</ele>
        <time>2018-02-02T11:15:14Z</time>
      </trkpt>
      <trkpt lat="45.91904" lon="4.68296">
        <ele>377</ele>
        <time>2018-02-02T11:15:15Z</time>
      </trkpt>
      <trkpt lat="45.91912" lon="4.68297">
        <ele>377</ele>
        <time>2018-02-02T11:15:17Z</time>
      </trkpt>
      <trkpt lat="45.91916" lon="4.68298">
        <ele>377</ele>
        <time>2018-02-02T11:15:18Z</time>
      </trkpt>
      <trkpt lat="45.91924" lon="4.683">
        <ele>379</ele>
        <time>2018-02-02T11:15:20Z</time>
      </trkpt>
      <trkpt lat="45.91927" lon="4.68301">
        <ele>379</ele>
        <time>2018-02-02T11:15:21Z</time>
      </trkpt>
      <trkpt lat="45.91935" lon="4.68304">
        <ele>379</ele>
        <time>2018-02-02T11:15:23Z</time>
      </trkpt>
      <trkpt lat="45.91939" lon="4.68305">
        <ele>379</ele>
        <time>2018-02-02T11:15:24Z</time>
      </trkpt>
      <trkpt lat="45.91946" lon="4.68306">
        <ele>379</ele>
        <time>2018-02-02T11:15:26Z</time>
      </trkpt>
      <trkpt lat="45.9195" lon="4.68307">
        <ele>379</ele>
        <time>2018-02-02T11:15:27Z</time>
      </trkpt>
      <trkpt lat="45.91957" lon="4.68308">
        <ele>380</ele>
        <time>2018-02-02T11:15:29Z</time>
      </trkpt>
      <trkpt lat="45.91961" lon="4.68309">
        <ele>380</ele>
        <time>2018-02-02T11:15:30Z</time>
      </trkpt>
      <trkpt lat="45.91968" lon="4.68311">
        <ele>380</ele>
        <time>2018-02-02T11:15:32Z</time>
      </trkpt>
      <trkpt lat="45.91971" lon="4.68312">
        <ele>380</ele>
        <time>2018-02-02T11:15:33Z</time>
      </trkpt>
      <trkpt lat="45.91978" lon="4.68314">
        <ele>380</ele>
        <time>2018-02-02T11:15:35Z</time>
      </trkpt>
      <trkpt lat="45.91982" lon="4.68315">
        <ele>380</ele>
        <time>2018-02-02T11:15:36Z</time>
      </trkpt>
      <trkpt lat="45.91989" lon="4.68317">
        <ele>381</ele>
        <time>2018-02-02T11:15:38Z</time>
      </trkpt>
      <trkpt lat="45.91992" lon="4.68318">
        <ele>381</ele>
        <time>2018-02-02T11:15:39Z</time>
      </trkpt>
      <trkpt lat="45.92" lon="4.68321">
        <ele>381</ele>
        <time>2018-02-02T11:15:41Z</time>
      </trkpt>
      <trkpt lat="45.92003" lon="4.68321">
        <ele>381</ele>
        <time>2018-02-02T11:15:42Z</time>
      </trkpt>
      <trkpt lat="45.92009" lon="4.68322">
        <ele>381</ele>
        <time>2018-02-02T11:15:44Z</time>
      </trkpt>
      <trkpt lat="45.92013" lon="4.68323">
        <ele>381</ele>
        <time>2018-02-02T11:15:45Z</time>
      </trkpt>
      <trkpt lat="45.9202" lon="4.68322">
        <ele>380</ele>
        <time>2018-02-02T11:15:47Z</time>
      </trkpt>
      <trkpt lat="45.92023" lon="4.68322">
        <ele>380</ele>
        <time>2018-02-02T11:15:48Z</time>
      </trkpt>
      <trkpt lat="45.92031" lon="4.68321">
        <ele>380</ele>
        <time>2018-02-02T11:15:50Z</time>
      </trkpt>
      <trkpt lat="45.92035" lon="4.68322">
        <ele>380</ele>
        <time>2018-02-02T11:15:51Z</time>
      </trkpt>
      <trkpt lat="45.92043" lon="4.68323">
        <ele>380</ele>
        <time>2018-02-02T11:15:53Z</time>
      </trkpt>
      <trkpt lat="45.92048" lon="4.68324">
        <ele>380</ele>
        <time>2018-02-02T11:15:54Z</time>
      </trkpt>
      <trkpt lat="45.92056" lon="4.68326">
        <ele>380</ele>
        <time>2018-02-02T11:15:56Z</time>
      </trkpt>
      <trkpt lat="45.9206" lon="4.68327">
        <ele>380</ele>
        <time>2018-02-02T11:15:57Z</time>
      </trkpt>
      <trkpt lat="45.92068" lon="4.6833">
        <ele>380</ele>
        <time>2018-02-02T11:15:59Z</time>
      </trkpt>
      <trkpt lat="45.92072" lon="4.68331">
        <ele>381</ele>
        <time>2018-02-02T11:16:00Z</time>
      </trkpt>
      <trkpt lat="45.9208" lon="4.68334">
        <ele>382</ele>
        <time>2018-02-02T11:16:02Z</time>
      </trkpt>
      <trkpt lat="45.92083" lon="4.68335">
        <ele>382</ele>
        <time>2018-02-02T11:16:03Z</time>
      </trkpt>
      <trkpt lat="45.9209" lon="4.68338">
        <ele>382</ele>
        <time>2018-02-02T11:16:05Z</time>
      </trkpt>
      <trkpt lat="45.92094" lon="4.68339">
        <ele>383</ele>
        <time>2018-02-02T11:16:06Z</time>
      </trkpt>
      <trkpt lat="45.92102" lon="4.68341">
        <ele>383</ele>
        <time>2018-02-02T11:16:08Z</time>
      </trkpt>
      <trkpt lat="45.92106" lon="4.68343">
        <ele>383</ele>
        <time>2018-02-02T11:16:09Z</time>
      </trkpt>
      <trkpt lat="45.92114" lon="4.68348">
        <ele>383</ele>
        <time>2018-02-02T11:16:11Z</time>
      </trkpt>
      <trkpt lat="45.92118" lon="4.68351">
        <ele>383</ele>
        <time>2018-02-02T11:16:12Z</time>
      </trkpt>
      <trkpt lat="45.92125" lon="4.68357">
        <ele>383</ele>
        <time>2018-02-02T11:16:14Z</time>
      </trkpt>
      <trkpt lat="45.92129" lon="4.6836">
        <ele>383</ele>
        <time>2018-02-02T11:16:15Z</time>
      </trkpt>
      <trkpt lat="45.92136" lon="4.68367">
        <ele>383</ele>
        <time>2018-02-02T11:16:17Z</time>
      </trkpt>
      <trkpt lat="45.9214" lon="4.6837">
        <ele>383</ele>
        <time>2018-02-02T11:16:18Z</time>
      </trkpt>
      <trkpt lat="45.92147" lon="4.68377">
        <ele>384</ele>
        <time>2018-02-02T11:16:20Z</time>
      </trkpt>
      <trkpt lat="45.9215" lon="4.68381">
        <ele>384</ele>
        <time>2018-02-02T11:16:21Z</time>
      </trkpt>
      <trkpt lat="45.92157" lon="4.68387">
        <ele>384</ele>
        <time>2018-02-02T11:16:23Z</time>
      </trkpt>
      <trkpt lat="45.9216" lon="4.68391">
        <ele>384</ele>
        <time>2018-02-02T11:16:24Z</time>
      </trkpt>
      <trkpt lat="45.92165" lon="4.68399">
        <ele>385</ele>
        <time>2018-02-02T11:16:26Z</time>
      </trkpt>
      <trkpt lat="45.92168" lon="4.68403">
        <ele>384</ele>
        <time>2018-02-02T11:16:27Z</time>
      </trkpt>
      <trkpt lat="45.92174" lon="4.68412">
        <ele>385</ele>
        <time>2018-02-02T11:16:29Z</time>
      </trkpt>
      <trkpt lat="45.92178" lon="4.68416">
        <ele>384</ele>
        <time>2018-02-02T11:16:30Z</time>
      </trkpt>
      <trkpt lat="45.92182" lon="4.6842">
        <ele>386</ele>
        <time>2018-02-02T11:16:31Z</time>
      </trkpt>
      <trkpt lat="45.92186" lon="4.68423">
        <ele>386</ele>
        <time>2018-02-02T11:16:32Z</time>
      </trkpt>
      <trkpt lat="45.92193" lon="4.68427">
        <ele>386</ele>
        <time>2018-02-02T11:16:34Z</time>
      </trkpt>
      <trkpt lat="45.92197" lon="4.68429">
        <ele>386</ele>
        <time>2018-02-02T11:16:35Z</time>
      </trkpt>
      <trkpt lat="45.92201" lon="4.68431">
        <ele>386</ele>
        <time>2018-02-02T11:16:36Z</time>
      </trkpt>
      <trkpt lat="45.92206" lon="4.68433">
        <ele>386</ele>
        <time>2018-02-02T11:16:37Z</time>
      </trkpt>
      <trkpt lat="45.92212" lon="4.68438">
        <ele>386</ele>
        <time>2018-02-02T11:16:39Z</time>
      </trkpt>
      <trkpt lat="45.92216" lon="4.68442">
        <ele>386</ele>
        <time>2018-02-02T11:16:40Z</time>
      </trkpt>
      <trkpt lat="45.92223" lon="4.68447">
        <ele>386</ele>
        <time>2018-02-02T11:16:42Z</time>
      </trkpt>
      <trkpt lat="45.92227" lon="4.68451">
        <ele>386</ele>
        <time>2018-02-02T11:16:43Z</time>
      </trkpt>
      <trkpt lat="45.92234" lon="4.68459">
        <ele>386</ele>
        <time>2018-02-02T11:16:45Z</time>
      </trkpt>
      <trkpt lat="45.92237" lon="4.68463">
        <ele>386</ele>
        <time>2018-02-02T11:16:46Z</time>
      </trkpt>
      <trkpt lat="45.92243" lon="4.68469">
        <ele>386</ele>
        <time>2018-02-02T11:16:48Z</time>
      </trkpt>
      <trkpt lat="45.92244" lon="4.68472">
        <ele>386</ele>
        <time>2018-02-02T11:16:49Z</time>
      </trkpt>
      <trkpt lat="45.9225" lon="4.68479">
        <ele>386</ele>
        <time>2018-02-02T11:16:51Z</time>
      </trkpt>
      <trkpt lat="45.92253" lon="4.68482">
        <ele>385</ele>
        <time>2018-02-02T11:16:52Z</time>
      </trkpt>
      <trkpt lat="45.9226" lon="4.68487">
        <ele>385</ele>
        <time>2018-02-02T11:16:54Z</time>
      </trkpt>
      <trkpt lat="45.92263" lon="4.6849">
        <ele>385</ele>
        <time>2018-02-02T11:16:55Z</time>
      </trkpt>
      <trkpt lat="45.9227" lon="4.68497">
        <ele>384</ele>
        <time>2018-02-02T11:16:57Z</time>
      </trkpt>
      <trkpt lat="45.92273" lon="4.68501">
        <ele>387</ele>
        <time>2018-02-02T11:16:58Z</time>
      </trkpt>
      <trkpt lat="45.9228" lon="4.68508">
        <ele>388</ele>
        <time>2018-02-02T11:17:00Z</time>
      </trkpt>
      <trkpt lat="45.92284" lon="4.68511">
        <ele>387</ele>
        <time>2018-02-02T11:17:01Z</time>
      </trkpt>
      <trkpt lat="45.92291" lon="4.68518">
        <ele>387</ele>
        <time>2018-02-02T11:17:03Z</time>
      </trkpt>
      <trkpt lat="45.92295" lon="4.68521">
        <ele>387</ele>
        <time>2018-02-02T11:17:04Z</time>
      </trkpt>
      <trkpt lat="45.92299" lon="4.68525">
        <ele>387</ele>
        <time>2018-02-02T11:17:05Z</time>
      </trkpt>
      <trkpt lat="45.92303" lon="4.6853">
        <ele>388</ele>
        <time>2018-02-02T11:17:06Z</time>
      </trkpt>
      <trkpt lat="45.92311" lon="4.68535">
        <ele>388</ele>
        <time>2018-02-02T11:17:08Z</time>
      </trkpt>
      <trkpt lat="45.92315" lon="4.68538">
        <ele>388</ele>
        <time>2018-02-02T11:17:09Z</time>
      </trkpt>
      <trkpt lat="45.92322" lon="4.68544">
        <ele>388</ele>
        <time>2018-02-02T11:17:11Z</time>
      </trkpt>
      <trkpt lat="45.92326" lon="4.68547">
        <ele>388</ele>
        <time>2018-02-02T11:17:12Z</time>
      </trkpt>
      <trkpt lat="45.9233" lon="4.68549">
        <ele>388</ele>
        <time>2018-02-02T11:17:13Z</time>
      </trkpt>
      <trkpt lat="45.92335" lon="4.68553">
        <ele>385</ele>
        <time>2018-02-02T11:17:14Z</time>
      </trkpt>
      <trkpt lat="45.92339" lon="4.68556">
        <ele>385</ele>
        <time>2018-02-02T11:17:15Z</time>
      </trkpt>
      <trkpt lat="45.92344" lon="4.68559">
        <ele>386</ele>
        <time>2018-02-02T11:17:16Z</time>
      </trkpt>
      <trkpt lat="45.92352" lon="4.68564">
        <ele>385</ele>
        <time>2018-02-02T11:17:18Z</time>
      </trkpt>
      <trkpt lat="45.92356" lon="4.68568">
        <ele>385</ele>
        <time>2018-02-02T11:17:19Z</time>
      </trkpt>
      <trkpt lat="45.92363" lon="4.68572">
        <ele>385</ele>
        <time>2018-02-02T11:17:21Z</time>
      </trkpt>
      <trkpt lat="45.92367" lon="4.68576">
        <ele>385</ele>
        <time>2018-02-02T11:17:22Z</time>
      </trkpt>
      <trkpt lat="45.92372" lon="4.68579">
        <ele>384</ele>
        <time>2018-02-02T11:17:23Z</time>
      </trkpt>
      <trkpt lat="45.92377" lon="4.68581">
        <ele>384</ele>
        <time>2018-02-02T11:17:24Z</time>
      </trkpt>
      <trkpt lat="45.92381" lon="4.68585">
        <ele>387</ele>
        <time>2018-02-02T11:17:25Z</time>
      </trkpt>
      <trkpt lat="45.92385" lon="4.6859">
        <ele>387</ele>
        <time>2018-02-02T11:17:26Z</time>
      </trkpt>
      <trkpt lat="45.9239" lon="4.68594">
        <ele>386</ele>
        <time>2018-02-02T11:17:27Z</time>
      </trkpt>
      <trkpt lat="45.92397" lon="4.68594">
        <ele>386</ele>
        <time>2018-02-02T11:17:28Z</time>
      </trkpt>
      <trkpt lat="45.92403" lon="4.68596">
        <ele>385</ele>
        <time>2018-02-02T11:17:29Z</time>
      </trkpt>
      <trkpt lat="45.92409" lon="4.68599">
        <ele>385</ele>
        <time>2018-02-02T11:17:30Z</time>
      </trkpt>
      <trkpt lat="45.92415" lon="4.68603">
        <ele>385</ele>
        <time>2018-02-02T11:17:31Z</time>
      </trkpt>
      <trkpt lat="45.92418" lon="4.68606">
        <ele>381</ele>
        <time>2018-02-02T11:17:32Z</time>
      </trkpt>
      <trkpt lat="45.92424" lon="4.68609">
        <ele>381</ele>
        <time>2018-02-02T11:17:33Z</time>
      </trkpt>
      <trkpt lat="45.9243" lon="4.68612">
        <ele>381</ele>
        <time>2018-02-02T11:17:34Z</time>
      </trkpt>
      <trkpt lat="45.92436" lon="4.68616">
        <ele>381</ele>
        <time>2018-02-02T11:17:35Z</time>
      </trkpt>
      <trkpt lat="45.92443" lon="4.6862">
        <ele>381</ele>
        <time>2018-02-02T11:17:36Z</time>
      </trkpt>
      <trkpt lat="45.92449" lon="4.68623">
        <ele>380</ele>
        <time>2018-02-02T11:17:37Z</time>
      </trkpt>
      <trkpt lat="45.92455" lon="4.68626">
        <ele>380</ele>
        <time>2018-02-02T11:17:38Z</time>
      </trkpt>
      <trkpt lat="45.92462" lon="4.68631">
        <ele>380</ele>
        <time>2018-02-02T11:17:39Z</time>
      </trkpt>
      <trkpt lat="45.9247" lon="4.68634">
        <ele>380</ele>
        <time>2018-02-02T11:17:40Z</time>
      </trkpt>
      <trkpt lat="45.92477" lon="4.68636">
        <ele>379</ele>
        <time>2018-02-02T11:17:41Z</time>
      </trkpt>
      <trkpt lat="45.92485" lon="4.68639">
        <ele>379</ele>
        <time>2018-02-02T11:17:42Z</time>
      </trkpt>
      <trkpt lat="45.92492" lon="4.6864">
        <ele>379</ele>
        <time>2018-02-02T11:17:43Z</time>
      </trkpt>
      <trkpt lat="45.925" lon="4.68641">
        <ele>379</ele>
        <time>2018-02-02T11:17:44Z</time>
      </trkpt>
      <trkpt lat="45.92506" lon="4.68643">
        <ele>376</ele>
        <time>2018-02-02T11:17:45Z</time>
      </trkpt>
      <trkpt lat="45.92515" lon="4.68645">
        <ele>375</ele>
        <time>2018-02-02T11:17:46Z</time>
      </trkpt>
      <trkpt lat="45.92523" lon="4.68647">
        <ele>375</ele>
        <time>2018-02-02T11:17:47Z</time>
      </trkpt>
      <trkpt lat="45.9253" lon="4.68648">
        <ele>375</ele>
        <time>2018-02-02T11:17:48Z</time>
      </trkpt>
      <trkpt lat="45.92537" lon="4.68649">
        <ele>375</ele>
        <time>2018-02-02T11:17:49Z</time>
      </trkpt>
      <trkpt lat="45.92543" lon="4.68652">
        <ele>374</ele>
        <time>2018-02-02T11:17:50Z</time>
      </trkpt>
      <trkpt lat="45.9255" lon="4.68653">
        <ele>374</ele>
        <time>2018-02-02T11:17:51Z</time>
      </trkpt>
      <trkpt lat="45.92556" lon="4.68653">
        <ele>374</ele>
        <time>2018-02-02T11:17:52Z</time>
      </trkpt>
      <trkpt lat="45.92561" lon="4.6865">
        <ele>374</ele>
        <time>2018-02-02T11:17:53Z</time>
      </trkpt>
      <trkpt lat="45.92566" lon="4.68648">
        <ele>374</ele>
        <time>2018-02-02T11:17:54Z</time>
      </trkpt>
      <trkpt lat="45.92571" lon="4.68646">
        <ele>374</ele>
        <time>2018-02-02T11:17:55Z</time>
      </trkpt>
      <trkpt lat="45.92576" lon="4.68644">
        <ele>374</ele>
        <time>2018-02-02T11:17:56Z</time>
      </trkpt>
      <trkpt lat="45.92584" lon="4.68639">
        <ele>370</ele>
        <time>2018-02-02T11:17:58Z</time>
      </trkpt>
      <trkpt lat="45.92585" lon="4.68637">
        <ele>370</ele>
        <time>2018-02-02T11:17:59Z</time>
      </trkpt>
      <trkpt lat="45.9259" lon="4.68636">
        <ele>370</ele>
        <time>2018-02-02T11:18:00Z</time>
      </trkpt>
      <trkpt lat="45.92594" lon="4.68634">
        <ele>370</ele>
        <time>2018-02-02T11:18:01Z</time>
      </trkpt>
      <trkpt lat="45.926" lon="4.6863">
        <ele>369</ele>
        <time>2018-02-02T11:18:05Z</time>
      </trkpt>
      <trkpt lat="45.92605" lon="4.68631">
        <ele>369</ele>
        <time>2018-02-02T11:18:06Z</time>
      </trkpt>
      <trkpt lat="45.9261" lon="4.68631">
        <ele>369</ele>
        <time>2018-02-02T11:18:07Z</time>
      </trkpt>
      <trkpt lat="45.92615" lon="4.6863">
        <ele>369</ele>
        <time>2018-02-02T11:18:08Z</time>
      </trkpt>
      <trkpt lat="45.92622" lon="4.68628">
        <ele>368</ele>
        <time>2018-02-02T11:18:10Z</time>
      </trkpt>
      <trkpt lat="45.92624" lon="4.68626">
        <ele>368</ele>
        <time>2018-02-02T11:18:11Z</time>
      </trkpt>
      <trkpt lat="45.92632" lon="4.68619">
        <ele>368</ele>
        <time>2018-02-02T11:18:14Z</time>
      </trkpt>
      <trkpt lat="45.92634" lon="4.68617">
        <ele>368</ele>
        <time>2018-02-02T11:18:15Z</time>
      </trkpt>
      <trkpt lat="45.92641" lon="4.68613">
        <ele>368</ele>
        <time>2018-02-02T11:18:17Z</time>
      </trkpt>
      <trkpt lat="45.92646" lon="4.68611">
        <ele>367</ele>
        <time>2018-02-02T11:18:18Z</time>
      </trkpt>
      <trkpt lat="45.92655" lon="4.68611">
        <ele>367</ele>
        <time>2018-02-02T11:18:19Z</time>
      </trkpt>
      <trkpt lat="45.92659" lon="4.6861">
        <ele>367</ele>
        <time>2018-02-02T11:18:20Z</time>
      </trkpt>
      <trkpt lat="45.92664" lon="4.68608">
        <ele>367</ele>
        <time>2018-02-02T11:18:21Z</time>
      </trkpt>
      <trkpt lat="45.92669" lon="4.68606">
        <ele>364</ele>
        <time>2018-02-02T11:18:22Z</time>
      </trkpt>
      <trkpt lat="45.92677" lon="4.68601">
        <ele>364</ele>
        <time>2018-02-02T11:18:24Z</time>
      </trkpt>
      <trkpt lat="45.92681" lon="4.686">
        <ele>364</ele>
        <time>2018-02-02T11:18:25Z</time>
      </trkpt>
      <trkpt lat="45.92688" lon="4.68598">
        <ele>364</ele>
        <time>2018-02-02T11:18:27Z</time>
      </trkpt>
      <trkpt lat="45.92692" lon="4.68596">
        <ele>364</ele>
        <time>2018-02-02T11:18:28Z</time>
      </trkpt>
      <trkpt lat="45.92697" lon="4.68595">
        <ele>364</ele>
        <time>2018-02-02T11:18:29Z</time>
      </trkpt>
      <trkpt lat="45.92703" lon="4.68593">
        <ele>364</ele>
        <time>2018-02-02T11:18:30Z</time>
      </trkpt>
      <trkpt lat="45.92707" lon="4.68591">
        <ele>364</ele>
        <time>2018-02-02T11:18:31Z</time>
      </trkpt>
      <trkpt lat="45.92713" lon="4.68588">
        <ele>364</ele>
        <time>2018-02-02T11:18:32Z</time>
      </trkpt>
      <trkpt lat="45.92718" lon="4.68586">
        <ele>364</ele>
        <time>2018-02-02T11:18:33Z</time>
      </trkpt>
      <trkpt lat="45.92725" lon="4.68585">
        <ele>364</ele>
        <time>2018-02-02T11:18:34Z</time>
      </trkpt>
      <trkpt lat="45.92732" lon="4.68583">
        <ele>366</ele>
        <time>2018-02-02T11:18:35Z</time>
      </trkpt>
      <trkpt lat="45.92736" lon="4.68582">
        <ele>366</ele>
        <time>2018-02-02T11:18:36Z</time>
      </trkpt>
      <trkpt lat="45.92743" lon="4.6858">
        <ele>366</ele>
        <time>2018-02-02T11:18:37Z</time>
      </trkpt>
      <trkpt lat="45.92749" lon="4.6858">
        <ele>366</ele>
        <time>2018-02-02T11:18:38Z</time>
      </trkpt>
      <trkpt lat="45.92755" lon="4.6858">
        <ele>366</ele>
        <time>2018-02-02T11:18:39Z</time>
      </trkpt>
      <trkpt lat="45.92763" lon="4.68579">
        <ele>365</ele>
        <time>2018-02-02T11:18:40Z</time>
      </trkpt>
      <trkpt lat="45.9277" lon="4.68578">
        <ele>365</ele>
        <time>2018-02-02T11:18:41Z</time>
      </trkpt>
      <trkpt lat="45.92776" lon="4.68578">
        <ele>365</ele>
        <time>2018-02-02T11:18:42Z</time>
      </trkpt>
      <trkpt lat="45.92783" lon="4.68577">
        <ele>365</ele>
        <time>2018-02-02T11:18:43Z</time>
      </trkpt>
      <trkpt lat="45.92789" lon="4.68578">
        <ele>364</ele>
        <time>2018-02-02T11:18:44Z</time>
      </trkpt>
      <trkpt lat="45.92796" lon="4.68579">
        <ele>364</ele>
        <time>2018-02-02T11:18:45Z</time>
      </trkpt>
      <trkpt lat="45.92802" lon="4.6858">
        <ele>364</ele>
        <time>2018-02-02T11:18:46Z</time>
      </trkpt>
      <trkpt lat="45.92809" lon="4.68581">
        <ele>363</ele>
        <time>2018-02-02T11:18:47Z</time>
      </trkpt>
      <trkpt lat="45.92815" lon="4.68582">
        <ele>363</ele>
        <time>2018-02-02T11:18:48Z</time>
      </trkpt>
      <trkpt lat="45.92822" lon="4.68583">
        <ele>362</ele>
        <time>2018-02-02T11:18:49Z</time>
      </trkpt>
      <trkpt lat="45.9283" lon="4.68584">
        <ele>361</ele>
        <time>2018-02-02T11:18:50Z</time>
      </trkpt>
      <trkpt lat="45.92836" lon="4.68585">
        <ele>361</ele>
        <time>2018-02-02T11:18:51Z</time>
      </trkpt>
      <trkpt lat="45.92843" lon="4.68586">
        <ele>360</ele>
        <time>2018-02-02T11:18:52Z</time>
      </trkpt>
      <trkpt lat="45.92851" lon="4.68587">
        <ele>359</ele>
        <time>2018-02-02T11:18:53Z</time>
      </trkpt>
      <trkpt lat="45.92858" lon="4.68589">
        <ele>359</ele>
        <time>2018-02-02T11:18:54Z</time>
      </trkpt>
      <trkpt lat="45.92865" lon="4.6859">
        <ele>359</ele>
        <time>2018-02-02T11:18:55Z</time>
      </trkpt>
      <trkpt lat="45.92872" lon="4.6859">
        <ele>359</ele>
        <time>2018-02-02T11:18:56Z</time>
      </trkpt>
      <trkpt lat="45.92879" lon="4.68593">
        <ele>358</ele>
        <time>2018-02-02T11:18:57Z</time>
      </trkpt>
      <trkpt lat="45.92885" lon="4.68594">
        <ele>358</ele>
        <time>2018-02-02T11:18:58Z</time>
      </trkpt>
      <trkpt lat="45.92893" lon="4.68597">
        <ele>358</ele>
        <time>2018-02-02T11:18:59Z</time>
      </trkpt>
      <trkpt lat="45.929" lon="4.68598">
        <ele>358</ele>
        <time>2018-02-02T11:19:00Z</time>
      </trkpt>
      <trkpt lat="45.92907" lon="4.686">
        <ele>358</ele>
        <time>2018-02-02T11:19:01Z</time>
      </trkpt>
      <trkpt lat="45.92914" lon="4.686">
        <ele>358</ele>
        <time>2018-02-02T11:19:02Z</time>
      </trkpt>
      <trkpt lat="45.92921" lon="4.68601">
        <ele>359</ele>
        <time>2018-02-02T11:19:03Z</time>
      </trkpt>
      <trkpt lat="45.92928" lon="4.68602">
        <ele>358</ele>
        <time>2018-02-02T11:19:04Z</time>
      </trkpt>
      <trkpt lat="45.92934" lon="4.68602">
        <ele>358</ele>
        <time>2018-02-02T11:19:05Z</time>
      </trkpt>
      <trkpt lat="45.92941" lon="4.68605">
        <ele>358</ele>
        <time>2018-02-02T11:19:06Z</time>
      </trkpt>
      <trkpt lat="45.92948" lon="4.68604">
        <ele>358</ele>
        <time>2018-02-02T11:19:07Z</time>
      </trkpt>
      <trkpt lat="45.92955" lon="4.68606">
        <ele>358</ele>
        <time>2018-02-02T11:19:08Z</time>
      </trkpt>
      <trkpt lat="45.92964" lon="4.68607">
        <ele>358</ele>
        <time>2018-02-02T11:19:09Z</time>
      </trkpt>
      <trkpt lat="45.92971" lon="4.68608">
        <ele>358</ele>
        <time>2018-02-02T11:19:10Z</time>
      </trkpt>
      <trkpt lat="45.92978" lon="4.68611">
        <ele>358</ele>
        <time>2018-02-02T11:19:11Z</time>
      </trkpt>
      <trkpt lat="45.92984" lon="4.68612">
        <ele>358</ele>
        <time>2018-02-02T11:19:12Z</time>
      </trkpt>
      <trkpt lat="45.92991" lon="4.68614">
        <ele>358</ele>
        <time>2018-02-02T11:19:13Z</time>
      </trkpt>
      <trkpt lat="45.92999" lon="4.68615">
        <ele>358</ele>
        <time>2018-02-02T11:19:14Z</time>
      </trkpt>
      <trkpt lat="45.93006" lon="4.68617">
        <ele>356</ele>
        <time>2018-02-02T11:19:15Z</time>
      </trkpt>
      <trkpt lat="45.93011" lon="4.68618">
        <ele>356</ele>
        <time>2018-02-02T11:19:16Z</time>
      </trkpt>
      <trkpt lat="45.93018" lon="4.68618">
        <ele>356</ele>
        <time>2018-02-02T11:19:17Z</time>
      </trkpt>
      <trkpt lat="45.93024" lon="4.6862">
        <ele>356</ele>
        <time>2018-02-02T11:19:18Z</time>
      </trkpt>
      <trkpt lat="45.93031" lon="4.68622">
        <ele>355</ele>
        <time>2018-02-02T11:19:19Z</time>
      </trkpt>
      <trkpt lat="45.93037" lon="4.68625">
        <ele>355</ele>
        <time>2018-02-02T11:19:20Z</time>
      </trkpt>
      <trkpt lat="45.93048" lon="4.68627">
        <ele>355</ele>
        <time>2018-02-02T11:19:21Z</time>
      </trkpt>
      <trkpt lat="45.93055" lon="4.68629">
        <ele>354</ele>
        <time>2018-02-02T11:19:22Z</time>
      </trkpt>
      <trkpt lat="45.93062" lon="4.6863">
        <ele>354</ele>
        <time>2018-02-02T11:19:23Z</time>
      </trkpt>
      <trkpt lat="45.93069" lon="4.68631">
        <ele>354</ele>
        <time>2018-02-02T11:19:24Z</time>
      </trkpt>
      <trkpt lat="45.93077" lon="4.68633">
        <ele>354</ele>
        <time>2018-02-02T11:19:25Z</time>
      </trkpt>
      <trkpt lat="45.93084" lon="4.68635">
        <ele>349</ele>
        <time>2018-02-02T11:19:26Z</time>
      </trkpt>
      <trkpt lat="45.93092" lon="4.68637">
        <ele>349</ele>
        <time>2018-02-02T11:19:27Z</time>
      </trkpt>
      <trkpt lat="45.931" lon="4.68639">
        <ele>349</ele>
        <time>2018-02-02T11:19:28Z</time>
      </trkpt>
      <trkpt lat="45.93109" lon="4.68642">
        <ele>349</ele>
        <time>2018-02-02T11:19:29Z</time>
      </trkpt>
      <trkpt lat="45.93118" lon="4.68644">
        <ele>348</ele>
        <time>2018-02-02T11:19:30Z</time>
      </trkpt>
      <trkpt lat="45.93126" lon="4.68646">
        <ele>348</ele>
        <time>2018-02-02T11:19:31Z</time>
      </trkpt>
      <trkpt lat="45.93134" lon="4.68648">
        <ele>348</ele>
        <time>2018-02-02T11:19:32Z</time>
      </trkpt>
      <trkpt lat="45.93144" lon="4.6865">
        <ele>347</ele>
        <time>2018-02-02T11:19:33Z</time>
      </trkpt>
      <trkpt lat="45.93153" lon="4.68653">
        <ele>347</ele>
        <time>2018-02-02T11:19:34Z</time>
      </trkpt>
      <trkpt lat="45.93163" lon="4.68656">
        <ele>347</ele>
        <time>2018-02-02T11:19:35Z</time>
      </trkpt>
      <trkpt lat="45.93173" lon="4.68659">
        <ele>345</ele>
        <time>2018-02-02T11:19:36Z</time>
      </trkpt>
      <trkpt lat="45.93182" lon="4.6866">
        <ele>345</ele>
        <time>2018-02-02T11:19:37Z</time>
      </trkpt>
      <trkpt lat="45.93192" lon="4.68662">
        <ele>345</ele>
        <time>2018-02-02T11:19:38Z</time>
      </trkpt>
      <trkpt lat="45.93201" lon="4.68665">
        <ele>345</ele>
        <time>2018-02-02T11:19:39Z</time>
      </trkpt>
      <trkpt lat="45.9321" lon="4.68667">
        <ele>345</ele>
        <time>2018-02-02T11:19:40Z</time>
      </trkpt>
      <trkpt lat="45.9322" lon="4.68668">
        <ele>345</ele>
        <time>2018-02-02T11:19:41Z</time>
      </trkpt>
      <trkpt lat="45.93229" lon="4.6867">
        <ele>345</ele>
        <time>2018-02-02T11:19:42Z</time>
      </trkpt>
      <trkpt lat="45.93237" lon="4.68673">
        <ele>345</ele>
        <time>2018-02-02T11:19:43Z</time>
      </trkpt>
      <trkpt lat="45.93246" lon="4.68675">
        <ele>344</ele>
        <time>2018-02-02T11:19:44Z</time>
      </trkpt>
      <trkpt lat="45.93254" lon="4.68677">
        <ele>344</ele>
        <time>2018-02-02T11:19:45Z</time>
      </trkpt>
      <trkpt lat="45.93262" lon="4.68679">
        <ele>344</ele>
        <time>2018-02-02T11:19:46Z</time>
      </trkpt>
      <trkpt lat="45.9327" lon="4.6868">
        <ele>344</ele>
        <time>2018-02-02T11:19:47Z</time>
      </trkpt>
      <trkpt lat="45.93278" lon="4.68682">
        <ele>344</ele>
        <time>2018-02-02T11:19:48Z</time>
      </trkpt>
      <trkpt lat="45.93286" lon="4.68685">
        <ele>344</ele>
        <time>2018-02-02T11:19:49Z</time>
      </trkpt>
      <trkpt lat="45.93294" lon="4.68687">
        <ele>344</ele>
        <time>2018-02-02T11:19:50Z</time>
      </trkpt>
      <trkpt lat="45.93302" lon="4.68689">
        <ele>344</ele>
        <time>2018-02-02T11:19:51Z</time>
      </trkpt>
      <trkpt lat="45.9331" lon="4.6869">
        <ele>344</ele>
        <time>2018-02-02T11:19:52Z</time>
      </trkpt>
      <trkpt lat="45.93318" lon="4.68691">
        <ele>344</ele>
        <time>2018-02-02T11:19:53Z</time>
      </trkpt>
      <trkpt lat="45.93325" lon="4.68693">
        <ele>344</ele>
        <time>2018-02-02T11:19:54Z</time>
      </trkpt>
      <trkpt lat="45.93331" lon="4.68694">
        <ele>344</ele>
        <time>2018-02-02T11:19:55Z</time>
      </trkpt>
      <trkpt lat="45.93337" lon="4.68693">
        <ele>344</ele>
        <time>2018-02-02T11:19:56Z</time>
      </trkpt>
      <trkpt lat="45.93344" lon="4.68694">
        <ele>344</ele>
        <time>2018-02-02T11:19:57Z</time>
      </trkpt>
      <trkpt lat="45.9335" lon="4.68696">
        <ele>344</ele>
        <time>2018-02-02T11:19:58Z</time>
      </trkpt>
      <trkpt lat="45.93357" lon="4.68698">
        <ele>344</ele>
        <time>2018-02-02T11:19:59Z</time>
      </trkpt>
      <trkpt lat="45.93363" lon="4.687">
        <ele>344</ele>
        <time>2018-02-02T11:20:00Z</time>
      </trkpt>
      <trkpt lat="45.93369" lon="4.68701">
        <ele>344</ele>
        <time>2018-02-02T11:20:01Z</time>
      </trkpt>
      <trkpt lat="45.93375" lon="4.68702">
        <ele>344</ele>
        <time>2018-02-02T11:20:02Z</time>
      </trkpt>
      <trkpt lat="45.9338" lon="4.68703">
        <ele>344</ele>
        <time>2018-02-02T11:20:03Z</time>
      </trkpt>
      <trkpt lat="45.93385" lon="4.68704">
        <ele>344</ele>
        <time>2018-02-02T11:20:04Z</time>
      </trkpt>
      <trkpt lat="45.9339" lon="4.68705">
        <ele>344</ele>
        <time>2018-02-02T11:20:05Z</time>
      </trkpt>
      <trkpt lat="45.93394" lon="4.68706">
        <ele>344</ele>
        <time>2018-02-02T11:20:06Z</time>
      </trkpt>
      <trkpt lat="45.934" lon="4.68708">
        <ele>344</ele>
        <time>2018-02-02T11:20:07Z</time>
      </trkpt>
      <trkpt lat="45.93406" lon="4.6871">
        <ele>343</ele>
        <time>2018-02-02T11:20:08Z</time>
      </trkpt>
      <trkpt lat="45.93412" lon="4.68711">
        <ele>343</ele>
        <time>2018-02-02T11:20:09Z</time>
      </trkpt>
      <trkpt lat="45.93417" lon="4.68712">
        <ele>343</ele>
        <time>2018-02-02T11:20:10Z</time>
      </trkpt>
      <trkpt lat="45.93423" lon="4.68713">
        <ele>343</ele>
        <time>2018-02-02T11:20:11Z</time>
      </trkpt>
      <trkpt lat="45.93429" lon="4.68715">
        <ele>343</ele>
        <time>2018-02-02T11:20:12Z</time>
      </trkpt>
      <trkpt lat="45.93435" lon="4.68716">
        <ele>343</ele>
        <time>2018-02-02T11:20:13Z</time>
      </trkpt>
      <trkpt lat="45.9344" lon="4.68718">
        <ele>343</ele>
        <time>2018-02-02T11:20:14Z</time>
      </trkpt>
      <trkpt lat="45.93446" lon="4.68719">
        <ele>343</ele>
        <time>2018-02-02T11:20:15Z</time>
      </trkpt>
      <trkpt lat="45.93452" lon="4.6872">
        <ele>342</ele>
        <time>2018-02-02T11:20:16Z</time>
      </trkpt>
      <trkpt lat="45.93458" lon="4.68721">
        <ele>342</ele>
        <time>2018-02-02T11:20:17Z</time>
      </trkpt>
      <trkpt lat="45.93464" lon="4.68723">
        <ele>342</ele>
        <time>2018-02-02T11:20:18Z</time>
      </trkpt>
      <trkpt lat="45.93469" lon="4.68725">
        <ele>342</ele>
        <time>2018-02-02T11:20:19Z</time>
      </trkpt>
      <trkpt lat="45.93475" lon="4.68726">
        <ele>342</ele>
        <time>2018-02-02T11:20:20Z</time>
      </trkpt>
      <trkpt lat="45.9348" lon="4.68727">
        <ele>342</ele>
        <time>2018-02-02T11:20:21Z</time>
      </trkpt>
      <trkpt lat="45.93487" lon="4.68729">
        <ele>342</ele>
        <time>2018-02-02T11:20:22Z</time>
      </trkpt>
      <trkpt lat="45.93492" lon="4.68731">
        <ele>342</ele>
        <time>2018-02-02T11:20:23Z</time>
      </trkpt>
      <trkpt lat="45.93498" lon="4.68731">
        <ele>342</ele>
        <time>2018-02-02T11:20:24Z</time>
      </trkpt>
      <trkpt lat="45.93503" lon="4.68732">
        <ele>342</ele>
        <time>2018-02-02T11:20:25Z</time>
      </trkpt>
      <trkpt lat="45.93508" lon="4.68733">
        <ele>342</ele>
        <time>2018-02-02T11:20:26Z</time>
      </trkpt>
      <trkpt lat="45.93514" lon="4.68735">
        <ele>342</ele>
        <time>2018-02-02T11:20:27Z</time>
      </trkpt>
      <trkpt lat="45.93519" lon="4.68737">
        <ele>342</ele>
        <time>2018-02-02T11:20:28Z</time>
      </trkpt>
      <trkpt lat="45.93525" lon="4.68738">
        <ele>342</ele>
        <time>2018-02-02T11:20:29Z</time>
      </trkpt>
      <trkpt lat="45.93531" lon="4.68739">
        <ele>342</ele>
        <time>2018-02-02T11:20:30Z</time>
      </trkpt>
      <trkpt lat="45.93536" lon="4.68741">
        <ele>342</ele>
        <time>2018-02-02T11:20:31Z</time>
      </trkpt>
      <trkpt lat="45.93541" lon="4.68742">
        <ele>342</ele>
        <time>2018-02-02T11:20:32Z</time>
      </trkpt>
      <trkpt lat="45.93547" lon="4.68743">
        <ele>342</ele>
        <time>2018-02-02T11:20:33Z</time>
      </trkpt>
      <trkpt lat="45.93553" lon="4.68745">
        <ele>342</ele>
        <time>2018-02-02T11:20:34Z</time>
      </trkpt>
      <trkpt lat="45.93558" lon="4.68747">
        <ele>342</ele>
        <time>2018-02-02T11:20:35Z</time>
      </trkpt>
      <trkpt lat="45.93564" lon="4.68749">
        <ele>343</ele>
        <time>2018-02-02T11:20:36Z</time>
      </trkpt>
      <trkpt lat="45.93569" lon="4.6875">
        <ele>343</ele>
        <time>2018-02-02T11:20:37Z</time>
      </trkpt>
      <trkpt lat="45.93575" lon="4.68752">
        <ele>344</ele>
        <time>2018-02-02T11:20:38Z</time>
      </trkpt>
      <trkpt lat="45.93581" lon="4.68753">
        <ele>344</ele>
        <time>2018-02-02T11:20:39Z</time>
      </trkpt>
      <trkpt lat="45.93587" lon="4.68755">
        <ele>344</ele>
        <time>2018-02-02T11:20:40Z</time>
      </trkpt>
      <trkpt lat="45.93594" lon="4.68756">
        <ele>344</ele>
        <time>2018-02-02T11:20:41Z</time>
      </trkpt>
      <trkpt lat="45.936" lon="4.68758">
        <ele>344</ele>
        <time>2018-02-02T11:20:42Z</time>
      </trkpt>
      <trkpt lat="45.93605" lon="4.68759">
        <ele>344</ele>
        <time>2018-02-02T11:20:43Z</time>
      </trkpt>
      <trkpt lat="45.93611" lon="4.6876">
        <ele>344</ele>
        <time>2018-02-02T11:20:44Z</time>
      </trkpt>
      <trkpt lat="45.93617" lon="4.68761">
        <ele>343</ele>
        <time>2018-02-02T11:20:45Z</time>
      </trkpt>
      <trkpt lat="45.93622" lon="4.68763">
        <ele>343</ele>
        <time>2018-02-02T11:20:46Z</time>
      </trkpt>
      <trkpt lat="45.93628" lon="4.68765">
        <ele>343</ele>
        <time>2018-02-02T11:20:47Z</time>
      </trkpt>
      <trkpt lat="45.93633" lon="4.68768">
        <ele>343</ele>
        <time>2018-02-02T11:20:48Z</time>
      </trkpt>
      <trkpt lat="45.93639" lon="4.6877">
        <ele>343</ele>
        <time>2018-02-02T11:20:49Z</time>
      </trkpt>
      <trkpt lat="45.93644" lon="4.68773">
        <ele>343</ele>
        <time>2018-02-02T11:20:50Z</time>
      </trkpt>
      <trkpt lat="45.93649" lon="4.68776">
        <ele>343</ele>
        <time>2018-02-02T11:20:51Z</time>
      </trkpt>
      <trkpt lat="45.93654" lon="4.68776">
        <ele>343</ele>
        <time>2018-02-02T11:20:52Z</time>
      </trkpt>
      <trkpt lat="45.93659" lon="4.68776">
        <ele>343</ele>
        <time>2018-02-02T11:20:53Z</time>
      </trkpt>
      <trkpt lat="45.93665" lon="4.68775">
        <ele>343</ele>
        <time>2018-02-02T11:20:54Z</time>
      </trkpt>
      <trkpt lat="45.9367" lon="4.68777">
        <ele>342</ele>
        <time>2018-02-02T11:20:55Z</time>
      </trkpt>
      <trkpt lat="45.93676" lon="4.68779">
        <ele>342</ele>
        <time>2018-02-02T11:20:56Z</time>
      </trkpt>
      <trkpt lat="45.93681" lon="4.68779">
        <ele>342</ele>
        <time>2018-02-02T11:20:57Z</time>
      </trkpt>
      <trkpt lat="45.93687" lon="4.68781">
        <ele>342</ele>
        <time>2018-02-02T11:20:58Z</time>
      </trkpt>
      <trkpt lat="45.93692" lon="4.68782">
        <ele>342</ele>
        <time>2018-02-02T11:20:59Z</time>
      </trkpt>
      <trkpt lat="45.93698" lon="4.68784">
        <ele>342</ele>
        <time>2018-02-02T11:21:00Z</time>
      </trkpt>
      <trkpt lat="45.93703" lon="4.68786">
        <ele>342</ele>
        <time>2018-02-02T11:21:01Z</time>
      </trkpt>
      <trkpt lat="45.9371" lon="4.68788">
        <ele>342</ele>
        <time>2018-02-02T11:21:02Z</time>
      </trkpt>
      <trkpt lat="45.93715" lon="4.6879">
        <ele>342</ele>
        <time>2018-02-02T11:21:03Z</time>
      </trkpt>
      <trkpt lat="45.9372" lon="4.68791">
        <ele>342</ele>
        <time>2018-02-02T11:21:04Z</time>
      </trkpt>
      <trkpt lat="45.93725" lon="4.68793">
        <ele>342</ele>
        <time>2018-02-02T11:21:05Z</time>
      </trkpt>
      <trkpt lat="45.9373" lon="4.68794">
        <ele>342</ele>
        <time>2018-02-02T11:21:06Z</time>
      </trkpt>
      <trkpt lat="45.93734" lon="4.68795">
        <ele>342</ele>
        <time>2018-02-02T11:21:07Z</time>
      </trkpt>
      <trkpt lat="45.93739" lon="4.68796">
        <ele>342</ele>
        <time>2018-02-02T11:21:08Z</time>
      </trkpt>
      <trkpt lat="45.93744" lon="4.68797">
        <ele>342</ele>
        <time>2018-02-02T11:21:09Z</time>
      </trkpt>
      <trkpt lat="45.93749" lon="4.68799">
        <ele>342</ele>
        <time>2018-02-02T11:21:10Z</time>
      </trkpt>
      <trkpt lat="45.93753" lon="4.68801">
        <ele>341</ele>
        <time>2018-02-02T11:21:11Z</time>
      </trkpt>
      <trkpt lat="45.93759" lon="4.68802">
        <ele>341</ele>
        <time>2018-02-02T11:21:12Z</time>
      </trkpt>
      <trkpt lat="45.93765" lon="4.68804">
        <ele>341</ele>
        <time>2018-02-02T11:21:13Z</time>
      </trkpt>
      <trkpt lat="45.93769" lon="4.68806">
        <ele>341</ele>
        <time>2018-02-02T11:21:14Z</time>
      </trkpt>
      <trkpt lat="45.93775" lon="4.68807">
        <ele>341</ele>
        <time>2018-02-02T11:21:15Z</time>
      </trkpt>
      <trkpt lat="45.93781" lon="4.6881">
        <ele>341</ele>
        <time>2018-02-02T11:21:16Z</time>
      </trkpt>
      <trkpt lat="45.93786" lon="4.68812">
        <ele>341</ele>
        <time>2018-02-02T11:21:17Z</time>
      </trkpt>
      <trkpt lat="45.93791" lon="4.68817">
        <ele>341</ele>
        <time>2018-02-02T11:21:18Z</time>
      </trkpt>
      <trkpt lat="45.93797" lon="4.6882">
        <ele>341</ele>
        <time>2018-02-02T11:21:19Z</time>
      </trkpt>
      <trkpt lat="45.93802" lon="4.68824">
        <ele>341</ele>
        <time>2018-02-02T11:21:20Z</time>
      </trkpt>
      <trkpt lat="45.93807" lon="4.68826">
        <ele>341</ele>
        <time>2018-02-02T11:21:21Z</time>
      </trkpt>
      <trkpt lat="45.93812" lon="4.68829">
        <ele>341</ele>
        <time>2018-02-02T11:21:22Z</time>
      </trkpt>
      <trkpt lat="45.93816" lon="4.68832">
        <ele>341</ele>
        <time>2018-02-02T11:21:23Z</time>
      </trkpt>
      <trkpt lat="45.93821" lon="4.68836">
        <ele>342</ele>
        <time>2018-02-02T11:21:24Z</time>
      </trkpt>
      <trkpt lat="45.93827" lon="4.68839">
        <ele>342</ele>
        <time>2018-02-02T11:21:25Z</time>
      </trkpt>
      <trkpt lat="45.93831" lon="4.68842">
        <ele>342</ele>
        <time>2018-02-02T11:21:26Z</time>
      </trkpt>
      <trkpt lat="45.93836" lon="4.68845">
        <ele>342</ele>
        <time>2018-02-02T11:21:27Z</time>
      </trkpt>
      <trkpt lat="45.93841" lon="4.68847">
        <ele>342</ele>
        <time>2018-02-02T11:21:28Z</time>
      </trkpt>
      <trkpt lat="45.93845" lon="4.6885">
        <ele>342</ele>
        <time>2018-02-02T11:21:29Z</time>
      </trkpt>
      <trkpt lat="45.9385" lon="4.68854">
        <ele>342</ele>
        <time>2018-02-02T11:21:30Z</time>
      </trkpt>
      <trkpt lat="45.93854" lon="4.68859">
        <ele>342</ele>
        <time>2018-02-02T11:21:31Z</time>
      </trkpt>
      <trkpt lat="45.9386" lon="4.68862">
        <ele>342</ele>
        <time>2018-02-02T11:21:32Z</time>
      </trkpt>
      <trkpt lat="45.93865" lon="4.68865">
        <ele>342</ele>
        <time>2018-02-02T11:21:33Z</time>
      </trkpt>
      <trkpt lat="45.9387" lon="4.68868">
        <ele>342</ele>
        <time>2018-02-02T11:21:34Z</time>
      </trkpt>
      <trkpt lat="45.93876" lon="4.68872">
        <ele>343</ele>
        <time>2018-02-02T11:21:35Z</time>
      </trkpt>
      <trkpt lat="45.93881" lon="4.68875">
        <ele>342</ele>
        <time>2018-02-02T11:21:36Z</time>
      </trkpt>
      <trkpt lat="45.93887" lon="4.68878">
        <ele>342</ele>
        <time>2018-02-02T11:21:37Z</time>
      </trkpt>
      <trkpt lat="45.93892" lon="4.68882">
        <ele>342</ele>
        <time>2018-02-02T11:21:38Z</time>
      </trkpt>
      <trkpt lat="45.93897" lon="4.68884">
        <ele>342</ele>
        <time>2018-02-02T11:21:39Z</time>
      </trkpt>
      <trkpt lat="45.93902" lon="4.68887">
        <ele>342</ele>
        <time>2018-02-02T11:21:40Z</time>
      </trkpt>
      <trkpt lat="45.93909" lon="4.68889">
        <ele>342</ele>
        <time>2018-02-02T11:21:41Z</time>
      </trkpt>
      <trkpt lat="45.93915" lon="4.68891">
        <ele>342</ele>
        <time>2018-02-02T11:21:42Z</time>
      </trkpt>
      <trkpt lat="45.9392" lon="4.68893">
        <ele>342</ele>
        <time>2018-02-02T11:21:43Z</time>
      </trkpt>
      <trkpt lat="45.93926" lon="4.68894">
        <ele>342</ele>
        <time>2018-02-02T11:21:44Z</time>
      </trkpt>
      <trkpt lat="45.93932" lon="4.68896">
        <ele>342</ele>
        <time>2018-02-02T11:21:45Z</time>
      </trkpt>
      <trkpt lat="45.93937" lon="4.68898">
        <ele>342</ele>
        <time>2018-02-02T11:21:46Z</time>
      </trkpt>
      <trkpt lat="45.93942" lon="4.68899">
        <ele>342</ele>
        <time>2018-02-02T11:21:47Z</time>
      </trkpt>
      <trkpt lat="45.93948" lon="4.68901">
        <ele>342</ele>
        <time>2018-02-02T11:21:48Z</time>
      </trkpt>
      <trkpt lat="45.93954" lon="4.68903">
        <ele>342</ele>
        <time>2018-02-02T11:21:49Z</time>
      </trkpt>
      <trkpt lat="45.93959" lon="4.68904">
        <ele>342</ele>
        <time>2018-02-02T11:21:50Z</time>
      </trkpt>
      <trkpt lat="45.93964" lon="4.68906">
        <ele>342</ele>
        <time>2018-02-02T11:21:51Z</time>
      </trkpt>
      <trkpt lat="45.9397" lon="4.68909">
        <ele>342</ele>
        <time>2018-02-02T11:21:52Z</time>
      </trkpt>
      <trkpt lat="45.93975" lon="4.6891">
        <ele>342</ele>
        <time>2018-02-02T11:21:53Z</time>
      </trkpt>
      <trkpt lat="45.9398" lon="4.68912">
        <ele>342</ele>
        <time>2018-02-02T11:21:54Z</time>
      </trkpt>
      <trkpt lat="45.93985" lon="4.68915">
        <ele>342</ele>
        <time>2018-02-02T11:21:55Z</time>
      </trkpt>
      <trkpt lat="45.93991" lon="4.68917">
        <ele>342</ele>
        <time>2018-02-02T11:21:56Z</time>
      </trkpt>
      <trkpt lat="45.93996" lon="4.68918">
        <ele>342</ele>
        <time>2018-02-02T11:21:57Z</time>
      </trkpt>
      <trkpt lat="45.94001" lon="4.6892">
        <ele>342</ele>
        <time>2018-02-02T11:21:58Z</time>
      </trkpt>
      <trkpt lat="45.94007" lon="4.68922">
        <ele>342</ele>
        <time>2018-02-02T11:21:59Z</time>
      </trkpt>
      <trkpt lat="45.94013" lon="4.68924">
        <ele>342</ele>
        <time>2018-02-02T11:22:00Z</time>
      </trkpt>
      <trkpt lat="45.9402" lon="4.68926">
        <ele>341</ele>
        <time>2018-02-02T11:22:01Z</time>
      </trkpt>
      <trkpt lat="45.94026" lon="4.68928">
        <ele>341</ele>
        <time>2018-02-02T11:22:02Z</time>
      </trkpt>
      <trkpt lat="45.94032" lon="4.6893">
        <ele>341</ele>
        <time>2018-02-02T11:22:03Z</time>
      </trkpt>
      <trkpt lat="45.94039" lon="4.68933">
        <ele>341</ele>
        <time>2018-02-02T11:22:04Z</time>
      </trkpt>
      <trkpt lat="45.94044" lon="4.68936">
        <ele>341</ele>
        <time>2018-02-02T11:22:05Z</time>
      </trkpt>
      <trkpt lat="45.9405" lon="4.68939">
        <ele>341</ele>
        <time>2018-02-02T11:22:06Z</time>
      </trkpt>
      <trkpt lat="45.94055" lon="4.68944">
        <ele>341</ele>
        <time>2018-02-02T11:22:07Z</time>
      </trkpt>
      <trkpt lat="45.94061" lon="4.68947">
        <ele>341</ele>
        <time>2018-02-02T11:22:08Z</time>
      </trkpt>
      <trkpt lat="45.94068" lon="4.6895">
        <ele>341</ele>
        <time>2018-02-02T11:22:09Z</time>
      </trkpt>
      <trkpt lat="45.94074" lon="4.68951">
        <ele>341</ele>
        <time>2018-02-02T11:22:10Z</time>
      </trkpt>
      <trkpt lat="45.9408" lon="4.68951">
        <ele>341</ele>
        <time>2018-02-02T11:22:11Z</time>
      </trkpt>
      <trkpt lat="45.94085" lon="4.68952">
        <ele>340</ele>
        <time>2018-02-02T11:22:12Z</time>
      </trkpt>
      <trkpt lat="45.94091" lon="4.68953">
        <ele>340</ele>
        <time>2018-02-02T11:22:13Z</time>
      </trkpt>
      <trkpt lat="45.94097" lon="4.68954">
        <ele>340</ele>
        <time>2018-02-02T11:22:14Z</time>
      </trkpt>
      <trkpt lat="45.94102" lon="4.68957">
        <ele>340</ele>
        <time>2018-02-02T11:22:15Z</time>
      </trkpt>
      <trkpt lat="45.94107" lon="4.68959">
        <ele>340</ele>
        <time>2018-02-02T11:22:16Z</time>
      </trkpt>
      <trkpt lat="45.94112" lon="4.6896">
        <ele>340</ele>
        <time>2018-02-02T11:22:17Z</time>
      </trkpt>
      <trkpt lat="45.94118" lon="4.68962">
        <ele>340</ele>
        <time>2018-02-02T11:22:18Z</time>
      </trkpt>
      <trkpt lat="45.94124" lon="4.68964">
        <ele>340</ele>
        <time>2018-02-02T11:22:19Z</time>
      </trkpt>
      <trkpt lat="45.9413" lon="4.68965">
        <ele>340</ele>
        <time>2018-02-02T11:22:20Z</time>
      </trkpt>
      <trkpt lat="45.94136" lon="4.68966">
        <ele>340</ele>
        <time>2018-02-02T11:22:21Z</time>
      </trkpt>
      <trkpt lat="45.94143" lon="4.68968">
        <ele>340</ele>
        <time>2018-02-02T11:22:22Z</time>
      </trkpt>
      <trkpt lat="45.94149" lon="4.68969">
        <ele>340</ele>
        <time>2018-02-02T11:22:23Z</time>
      </trkpt>
      <trkpt lat="45.94156" lon="4.68971">
        <ele>340</ele>
        <time>2018-02-02T11:22:24Z</time>
      </trkpt>
      <trkpt lat="45.94163" lon="4.68973">
        <ele>340</ele>
        <time>2018-02-02T11:22:25Z</time>
      </trkpt>
      <trkpt lat="45.9417" lon="4.68976">
        <ele>339</ele>
        <time>2018-02-02T11:22:26Z</time>
      </trkpt>
      <trkpt lat="45.94175" lon="4.68978">
        <ele>339</ele>
        <time>2018-02-02T11:22:27Z</time>
      </trkpt>
      <trkpt lat="45.94182" lon="4.6898">
        <ele>339</ele>
        <time>2018-02-02T11:22:28Z</time>
      </trkpt>
      <trkpt lat="45.94189" lon="4.68981">
        <ele>338</ele>
        <time>2018-02-02T11:22:29Z</time>
      </trkpt>
      <trkpt lat="45.94193" lon="4.68984">
        <ele>338</ele>
        <time>2018-02-02T11:22:30Z</time>
      </trkpt>
      <trkpt lat="45.94199" lon="4.68985">
        <ele>338</ele>
        <time>2018-02-02T11:22:31Z</time>
      </trkpt>
      <trkpt lat="45.94204" lon="4.68988">
        <ele>338</ele>
        <time>2018-02-02T11:22:32Z</time>
      </trkpt>
      <trkpt lat="45.94209" lon="4.6899">
        <ele>338</ele>
        <time>2018-02-02T11:22:33Z</time>
      </trkpt>
      <trkpt lat="45.94215" lon="4.68991">
        <ele>338</ele>
        <time>2018-02-02T11:22:34Z</time>
      </trkpt>
      <trkpt lat="45.9422" lon="4.68993">
        <ele>338</ele>
        <time>2018-02-02T11:22:35Z</time>
      </trkpt>
      <trkpt lat="45.94225" lon="4.68994">
        <ele>338</ele>
        <time>2018-02-02T11:22:36Z</time>
      </trkpt>
      <trkpt lat="45.9423" lon="4.68996">
        <ele>338</ele>
        <time>2018-02-02T11:22:37Z</time>
      </trkpt>
      <trkpt lat="45.94236" lon="4.68997">
        <ele>338</ele>
        <time>2018-02-02T11:22:38Z</time>
      </trkpt>
      <trkpt lat="45.94241" lon="4.68998">
        <ele>338</ele>
        <time>2018-02-02T11:22:39Z</time>
      </trkpt>
      <trkpt lat="45.94246" lon="4.69">
        <ele>338</ele>
        <time>2018-02-02T11:22:40Z</time>
      </trkpt>
      <trkpt lat="45.94252" lon="4.69001">
        <ele>338</ele>
        <time>2018-02-02T11:22:41Z</time>
      </trkpt>
      <trkpt lat="45.94257" lon="4.69003">
        <ele>338</ele>
        <time>2018-02-02T11:22:42Z</time>
      </trkpt>
      <trkpt lat="45.94262" lon="4.69004">
        <ele>338</ele>
        <time>2018-02-02T11:22:43Z</time>
      </trkpt>
      <trkpt lat="45.94267" lon="4.69003">
        <ele>337</ele>
        <time>2018-02-02T11:22:44Z</time>
      </trkpt>
      <trkpt lat="45.94273" lon="4.69003">
        <ele>337</ele>
        <time>2018-02-02T11:22:45Z</time>
      </trkpt>
      <trkpt lat="45.94278" lon="4.69005">
        <ele>337</ele>
        <time>2018-02-02T11:22:46Z</time>
      </trkpt>
      <trkpt lat="45.94284" lon="4.69005">
        <ele>337</ele>
        <time>2018-02-02T11:22:47Z</time>
      </trkpt>
      <trkpt lat="45.94289" lon="4.69006">
        <ele>337</ele>
        <time>2018-02-02T11:22:48Z</time>
      </trkpt>
      <trkpt lat="45.94294" lon="4.69007">
        <ele>337</ele>
        <time>2018-02-02T11:22:49Z</time>
      </trkpt>
      <trkpt lat="45.943" lon="4.69009">
        <ele>337</ele>
        <time>2018-02-02T11:22:50Z</time>
      </trkpt>
      <trkpt lat="45.94306" lon="4.69009">
        <ele>337</ele>
        <time>2018-02-02T11:22:51Z</time>
      </trkpt>
      <trkpt lat="45.94312" lon="4.69009">
        <ele>337</ele>
        <time>2018-02-02T11:22:52Z</time>
      </trkpt>
      <trkpt lat="45.94317" lon="4.69009">
        <ele>337</ele>
        <time>2018-02-02T11:22:53Z</time>
      </trkpt>
      <trkpt lat="45.94323" lon="4.6901">
        <ele>337</ele>
        <time>2018-02-02T11:22:54Z</time>
      </trkpt>
      <trkpt lat="45.94329" lon="4.69011">
        <ele>337</ele>
        <time>2018-02-02T11:22:55Z</time>
      </trkpt>
      <trkpt lat="45.94334" lon="4.69012">
        <ele>337</ele>
        <time>2018-02-02T11:22:56Z</time>
      </trkpt>
      <trkpt lat="45.9434" lon="4.69012">
        <ele>337</ele>
        <time>2018-02-02T11:22:57Z</time>
      </trkpt>
      <trkpt lat="45.94344" lon="4.69011">
        <ele>338</ele>
        <time>2018-02-02T11:22:58Z</time>
      </trkpt>
      <trkpt lat="45.9435" lon="4.69012">
        <ele>338</ele>
        <time>2018-02-02T11:22:59Z</time>
      </trkpt>
      <trkpt lat="45.94354" lon="4.69012">
        <ele>338</ele>
        <time>2018-02-02T11:23:00Z</time>
      </trkpt>
      <trkpt lat="45.94363" lon="4.69012">
        <ele>338</ele>
        <time>2018-02-02T11:23:02Z</time>
      </trkpt>
      <trkpt lat="45.94367" lon="4.69012">
        <ele>338</ele>
        <time>2018-02-02T11:23:03Z</time>
      </trkpt>
      <trkpt lat="45.94372" lon="4.69012">
        <ele>338</ele>
        <time>2018-02-02T11:23:04Z</time>
      </trkpt>
      <trkpt lat="45.94378" lon="4.69011">
        <ele>338</ele>
        <time>2018-02-02T11:23:05Z</time>
      </trkpt>
      <trkpt lat="45.94383" lon="4.6901">
        <ele>338</ele>
        <time>2018-02-02T11:23:06Z</time>
      </trkpt>
      <trkpt lat="45.94389" lon="4.6901">
        <ele>338</ele>
        <time>2018-02-02T11:23:07Z</time>
      </trkpt>
      <trkpt lat="45.94397" lon="4.6901">
        <ele>339</ele>
        <time>2018-02-02T11:23:09Z</time>
      </trkpt>
      <trkpt lat="45.94402" lon="4.69011">
        <ele>339</ele>
        <time>2018-02-02T11:23:10Z</time>
      </trkpt>
      <trkpt lat="45.94406" lon="4.69011">
        <ele>339</ele>
        <time>2018-02-02T11:23:11Z</time>
      </trkpt>
      <trkpt lat="45.94411" lon="4.69011">
        <ele>339</ele>
        <time>2018-02-02T11:23:12Z</time>
      </trkpt>
      <trkpt lat="45.94416" lon="4.69011">
        <ele>339</ele>
        <time>2018-02-02T11:23:13Z</time>
      </trkpt>
      <trkpt lat="45.9442" lon="4.69012">
        <ele>340</ele>
        <time>2018-02-02T11:23:14Z</time>
      </trkpt>
      <trkpt lat="45.94425" lon="4.69012">
        <ele>340</ele>
        <time>2018-02-02T11:23:15Z</time>
      </trkpt>
      <trkpt lat="45.9443" lon="4.69012">
        <ele>340</ele>
        <time>2018-02-02T11:23:16Z</time>
      </trkpt>
      <trkpt lat="45.94434" lon="4.69012">
        <ele>340</ele>
        <time>2018-02-02T11:23:17Z</time>
      </trkpt>
      <trkpt lat="45.94439" lon="4.69012">
        <ele>340</ele>
        <time>2018-02-02T11:23:18Z</time>
      </trkpt>
      <trkpt lat="45.94444" lon="4.69012">
        <ele>340</ele>
        <time>2018-02-02T11:23:19Z</time>
      </trkpt>
      <trkpt lat="45.9445" lon="4.69012">
        <ele>340</ele>
        <time>2018-02-02T11:23:20Z</time>
      </trkpt>
      <trkpt lat="45.94454" lon="4.69011">
        <ele>340</ele>
        <time>2018-02-02T11:23:21Z</time>
      </trkpt>
      <trkpt lat="45.94459" lon="4.69012">
        <ele>341</ele>
        <time>2018-02-02T11:23:22Z</time>
      </trkpt>
      <trkpt lat="45.94464" lon="4.69012">
        <ele>341</ele>
        <time>2018-02-02T11:23:23Z</time>
      </trkpt>
      <trkpt lat="45.94469" lon="4.69013">
        <ele>341</ele>
        <time>2018-02-02T11:23:24Z</time>
      </trkpt>
      <trkpt lat="45.94474" lon="4.69014">
        <ele>341</ele>
        <time>2018-02-02T11:23:25Z</time>
      </trkpt>
      <trkpt lat="45.94478" lon="4.69014">
        <ele>341</ele>
        <time>2018-02-02T11:23:26Z</time>
      </trkpt>
      <trkpt lat="45.94484" lon="4.69015">
        <ele>341</ele>
        <time>2018-02-02T11:23:27Z</time>
      </trkpt>
      <trkpt lat="45.94488" lon="4.69016">
        <ele>341</ele>
        <time>2018-02-02T11:23:28Z</time>
      </trkpt>
      <trkpt lat="45.94493" lon="4.69018">
        <ele>341</ele>
        <time>2018-02-02T11:23:29Z</time>
      </trkpt>
      <trkpt lat="45.94499" lon="4.6902">
        <ele>341</ele>
        <time>2018-02-02T11:23:30Z</time>
      </trkpt>
      <trkpt lat="45.94504" lon="4.69022">
        <ele>342</ele>
        <time>2018-02-02T11:23:31Z</time>
      </trkpt>
      <trkpt lat="45.94509" lon="4.69023">
        <ele>342</ele>
        <time>2018-02-02T11:23:32Z</time>
      </trkpt>
      <trkpt lat="45.94514" lon="4.69024">
        <ele>342</ele>
        <time>2018-02-02T11:23:33Z</time>
      </trkpt>
      <trkpt lat="45.94519" lon="4.69025">
        <ele>342</ele>
        <time>2018-02-02T11:23:34Z</time>
      </trkpt>
      <trkpt lat="45.94527" lon="4.69027">
        <ele>342</ele>
        <time>2018-02-02T11:23:36Z</time>
      </trkpt>
      <trkpt lat="45.94532" lon="4.69028">
        <ele>342</ele>
        <time>2018-02-02T11:23:37Z</time>
      </trkpt>
      <trkpt lat="45.94536" lon="4.6903">
        <ele>342</ele>
        <time>2018-02-02T11:23:38Z</time>
      </trkpt>
      <trkpt lat="45.94541" lon="4.69031">
        <ele>342</ele>
        <time>2018-02-02T11:23:39Z</time>
      </trkpt>
      <trkpt lat="45.94546" lon="4.69032">
        <ele>342</ele>
        <time>2018-02-02T11:23:40Z</time>
      </trkpt>
      <trkpt lat="45.94551" lon="4.69034">
        <ele>342</ele>
        <time>2018-02-02T11:23:41Z</time>
      </trkpt>
      <trkpt lat="45.94556" lon="4.69035">
        <ele>342</ele>
        <time>2018-02-02T11:23:42Z</time>
      </trkpt>
      <trkpt lat="45.94561" lon="4.69037">
        <ele>342</ele>
        <time>2018-02-02T11:23:43Z</time>
      </trkpt>
      <trkpt lat="45.94566" lon="4.69039">
        <ele>342</ele>
        <time>2018-02-02T11:23:44Z</time>
      </trkpt>
      <trkpt lat="45.94572" lon="4.6904">
        <ele>342</ele>
        <time>2018-02-02T11:23:45Z</time>
      </trkpt>
      <trkpt lat="45.94577" lon="4.69041">
        <ele>342</ele>
        <time>2018-02-02T11:23:46Z</time>
      </trkpt>
      <trkpt lat="45.94582" lon="4.69042">
        <ele>342</ele>
        <time>2018-02-02T11:23:47Z</time>
      </trkpt>
      <trkpt lat="45.94587" lon="4.69044">
        <ele>342</ele>
        <time>2018-02-02T11:23:48Z</time>
      </trkpt>
      <trkpt lat="45.94592" lon="4.69046">
        <ele>342</ele>
        <time>2018-02-02T11:23:49Z</time>
      </trkpt>
      <trkpt lat="45.94597" lon="4.69048">
        <ele>342</ele>
        <time>2018-02-02T11:23:50Z</time>
      </trkpt>
      <trkpt lat="45.94602" lon="4.69049">
        <ele>342</ele>
        <time>2018-02-02T11:23:51Z</time>
      </trkpt>
      <trkpt lat="45.94607" lon="4.69051">
        <ele>342</ele>
        <time>2018-02-02T11:23:52Z</time>
      </trkpt>
      <trkpt lat="45.94613" lon="4.69053">
        <ele>342</ele>
        <time>2018-02-02T11:23:53Z</time>
      </trkpt>
      <trkpt lat="45.94617" lon="4.69054">
        <ele>342</ele>
        <time>2018-02-02T11:23:54Z</time>
      </trkpt>
      <trkpt lat="45.94623" lon="4.69055">
        <ele>342</ele>
        <time>2018-02-02T11:23:55Z</time>
      </trkpt>
      <trkpt lat="45.94628" lon="4.69057">
        <ele>342</ele>
        <time>2018-02-02T11:23:56Z</time>
      </trkpt>
      <trkpt lat="45.94634" lon="4.69059">
        <ele>342</ele>
        <time>2018-02-02T11:23:57Z</time>
      </trkpt>
      <trkpt lat="45.94639" lon="4.69061">
        <ele>342</ele>
        <time>2018-02-02T11:23:58Z</time>
      </trkpt>
      <trkpt lat="45.94645" lon="4.69064">
        <ele>342</ele>
        <time>2018-02-02T11:23:59Z</time>
      </trkpt>
      <trkpt lat="45.94651" lon="4.69065">
        <ele>342</ele>
        <time>2018-02-02T11:24:00Z</time>
      </trkpt>
      <trkpt lat="45.94657" lon="4.69066">
        <ele>342</ele>
        <time>2018-02-02T11:24:01Z</time>
      </trkpt>
      <trkpt lat="45.94662" lon="4.69068">
        <ele>342</ele>
        <time>2018-02-02T11:24:02Z</time>
      </trkpt>
      <trkpt lat="45.94667" lon="4.6907">
        <ele>342</ele>
        <time>2018-02-02T11:24:03Z</time>
      </trkpt>
      <trkpt lat="45.94672" lon="4.69072">
        <ele>342</ele>
        <time>2018-02-02T11:24:04Z</time>
      </trkpt>
      <trkpt lat="45.94677" lon="4.69074">
        <ele>342</ele>
        <time>2018-02-02T11:24:05Z</time>
      </trkpt>
      <trkpt lat="45.94682" lon="4.69075">
        <ele>342</ele>
        <time>2018-02-02T11:24:06Z</time>
      </trkpt>
      <trkpt lat="45.94687" lon="4.69077">
        <ele>342</ele>
        <time>2018-02-02T11:24:07Z</time>
      </trkpt>
      <trkpt lat="45.94693" lon="4.69079">
        <ele>342</ele>
        <time>2018-02-02T11:24:08Z</time>
      </trkpt>
      <trkpt lat="45.94698" lon="4.69079">
        <ele>342</ele>
        <time>2018-02-02T11:24:09Z</time>
      </trkpt>
      <trkpt lat="45.94704" lon="4.69081">
        <ele>342</ele>
        <time>2018-02-02T11:24:10Z</time>
      </trkpt>
      <trkpt lat="45.94708" lon="4.69082">
        <ele>343</ele>
        <time>2018-02-02T11:24:11Z</time>
      </trkpt>
      <trkpt lat="45.94713" lon="4.69084">
        <ele>344</ele>
        <time>2018-02-02T11:24:12Z</time>
      </trkpt>
      <trkpt lat="45.94717" lon="4.69086">
        <ele>344</ele>
        <time>2018-02-02T11:24:13Z</time>
      </trkpt>
      <trkpt lat="45.94722" lon="4.69088">
        <ele>344</ele>
        <time>2018-02-02T11:24:14Z</time>
      </trkpt>
      <trkpt lat="45.94727" lon="4.6909">
        <ele>344</ele>
        <time>2018-02-02T11:24:15Z</time>
      </trkpt>
      <trkpt lat="45.94732" lon="4.69092">
        <ele>344</ele>
        <time>2018-02-02T11:24:16Z</time>
      </trkpt>
      <trkpt lat="45.94737" lon="4.69094">
        <ele>344</ele>
        <time>2018-02-02T11:24:17Z</time>
      </trkpt>
      <trkpt lat="45.94743" lon="4.69095">
        <ele>344</ele>
        <time>2018-02-02T11:24:18Z</time>
      </trkpt>
      <trkpt lat="45.94748" lon="4.69097">
        <ele>345</ele>
        <time>2018-02-02T11:24:19Z</time>
      </trkpt>
      <trkpt lat="45.94753" lon="4.69098">
        <ele>345</ele>
        <time>2018-02-02T11:24:20Z</time>
      </trkpt>
      <trkpt lat="45.94757" lon="4.691">
        <ele>345</ele>
        <time>2018-02-02T11:24:21Z</time>
      </trkpt>
      <trkpt lat="45.94762" lon="4.69102">
        <ele>344</ele>
        <time>2018-02-02T11:24:22Z</time>
      </trkpt>
      <trkpt lat="45.94767" lon="4.69103">
        <ele>344</ele>
        <time>2018-02-02T11:24:23Z</time>
      </trkpt>
      <trkpt lat="45.94772" lon="4.69104">
        <ele>344</ele>
        <time>2018-02-02T11:24:24Z</time>
      </trkpt>
      <trkpt lat="45.94777" lon="4.69106">
        <ele>344</ele>
        <time>2018-02-02T11:24:25Z</time>
      </trkpt>
      <trkpt lat="45.94782" lon="4.69108">
        <ele>344</ele>
        <time>2018-02-02T11:24:26Z</time>
      </trkpt>
      <trkpt lat="45.94787" lon="4.6911">
        <ele>344</ele>
        <time>2018-02-02T11:24:27Z</time>
      </trkpt>
      <trkpt lat="45.94792" lon="4.69112">
        <ele>344</ele>
        <time>2018-02-02T11:24:28Z</time>
      </trkpt>
      <trkpt lat="45.94798" lon="4.69112">
        <ele>344</ele>
        <time>2018-02-02T11:24:29Z</time>
      </trkpt>
      <trkpt lat="45.94803" lon="4.69114">
        <ele>344</ele>
        <time>2018-02-02T11:24:30Z</time>
      </trkpt>
      <trkpt lat="45.94807" lon="4.69117">
        <ele>344</ele>
        <time>2018-02-02T11:24:31Z</time>
      </trkpt>
      <trkpt lat="45.94811" lon="4.69119">
        <ele>344</ele>
        <time>2018-02-02T11:24:32Z</time>
      </trkpt>
      <trkpt lat="45.94817" lon="4.69119">
        <ele>344</ele>
        <time>2018-02-02T11:24:33Z</time>
      </trkpt>
      <trkpt lat="45.94825" lon="4.69123">
        <ele>344</ele>
        <time>2018-02-02T11:24:35Z</time>
      </trkpt>
      <trkpt lat="45.94829" lon="4.69125">
        <ele>344</ele>
        <time>2018-02-02T11:24:36Z</time>
      </trkpt>
      <trkpt lat="45.94836" lon="4.69129">
        <ele>342</ele>
        <time>2018-02-02T11:24:38Z</time>
      </trkpt>
      <trkpt lat="45.94841" lon="4.69131">
        <ele>342</ele>
        <time>2018-02-02T11:24:39Z</time>
      </trkpt>
      <trkpt lat="45.94845" lon="4.69133">
        <ele>342</ele>
        <time>2018-02-02T11:24:40Z</time>
      </trkpt>
      <trkpt lat="45.9485" lon="4.69136">
        <ele>342</ele>
        <time>2018-02-02T11:24:41Z</time>
      </trkpt>
      <trkpt lat="45.94854" lon="4.69137">
        <ele>342</ele>
        <time>2018-02-02T11:24:42Z</time>
      </trkpt>
      <trkpt lat="45.9486" lon="4.69138">
        <ele>342</ele>
        <time>2018-02-02T11:24:43Z</time>
      </trkpt>
      <trkpt lat="45.94865" lon="4.6914">
        <ele>342</ele>
        <time>2018-02-02T11:24:44Z</time>
      </trkpt>
      <trkpt lat="45.9487" lon="4.69142">
        <ele>342</ele>
        <time>2018-02-02T11:24:45Z</time>
      </trkpt>
      <trkpt lat="45.94875" lon="4.69144">
        <ele>342</ele>
        <time>2018-02-02T11:24:46Z</time>
      </trkpt>
      <trkpt lat="45.9488" lon="4.69145">
        <ele>342</ele>
        <time>2018-02-02T11:24:47Z</time>
      </trkpt>
      <trkpt lat="45.94885" lon="4.69148">
        <ele>342</ele>
        <time>2018-02-02T11:24:48Z</time>
      </trkpt>
      <trkpt lat="45.9489" lon="4.6915">
        <ele>342</ele>
        <time>2018-02-02T11:24:49Z</time>
      </trkpt>
      <trkpt lat="45.94895" lon="4.69154">
        <ele>342</ele>
        <time>2018-02-02T11:24:50Z</time>
      </trkpt>
      <trkpt lat="45.949" lon="4.69157">
        <ele>342</ele>
        <time>2018-02-02T11:24:51Z</time>
      </trkpt>
      <trkpt lat="45.94906" lon="4.6916">
        <ele>342</ele>
        <time>2018-02-02T11:24:52Z</time>
      </trkpt>
      <trkpt lat="45.94911" lon="4.69163">
        <ele>342</ele>
        <time>2018-02-02T11:24:53Z</time>
      </trkpt>
      <trkpt lat="45.94917" lon="4.69165">
        <ele>342</ele>
        <time>2018-02-02T11:24:54Z</time>
      </trkpt>
      <trkpt lat="45.94923" lon="4.69168">
        <ele>342</ele>
        <time>2018-02-02T11:24:55Z</time>
      </trkpt>
      <trkpt lat="45.94928" lon="4.69172">
        <ele>341</ele>
        <time>2018-02-02T11:24:56Z</time>
      </trkpt>
      <trkpt lat="45.94934" lon="4.69176">
        <ele>341</ele>
        <time>2018-02-02T11:24:57Z</time>
      </trkpt>
      <trkpt lat="45.94941" lon="4.6918">
        <ele>341</ele>
        <time>2018-02-02T11:24:58Z</time>
      </trkpt>
      <trkpt lat="45.94946" lon="4.69184">
        <ele>340</ele>
        <time>2018-02-02T11:24:59Z</time>
      </trkpt>
      <trkpt lat="45.94954" lon="4.69186">
        <ele>340</ele>
        <time>2018-02-02T11:25:00Z</time>
      </trkpt>
      <trkpt lat="45.94959" lon="4.69191">
        <ele>340</ele>
        <time>2018-02-02T11:25:01Z</time>
      </trkpt>
      <trkpt lat="45.94965" lon="4.69197">
        <ele>340</ele>
        <time>2018-02-02T11:25:02Z</time>
      </trkpt>
      <trkpt lat="45.94971" lon="4.69202">
        <ele>340</ele>
        <time>2018-02-02T11:25:03Z</time>
      </trkpt>
      <trkpt lat="45.94977" lon="4.69208">
        <ele>340</ele>
        <time>2018-02-02T11:25:04Z</time>
      </trkpt>
      <trkpt lat="45.94983" lon="4.69213">
        <ele>340</ele>
        <time>2018-02-02T11:25:05Z</time>
      </trkpt>
      <trkpt lat="45.9499" lon="4.69217">
        <ele>340</ele>
        <time>2018-02-02T11:25:06Z</time>
      </trkpt>
      <trkpt lat="45.94995" lon="4.69219">
        <ele>340</ele>
        <time>2018-02-02T11:25:07Z</time>
      </trkpt>
      <trkpt lat="45.95001" lon="4.69223">
        <ele>337</ele>
        <time>2018-02-02T11:25:08Z</time>
      </trkpt>
      <trkpt lat="45.95008" lon="4.69226">
        <ele>337</ele>
        <time>2018-02-02T11:25:09Z</time>
      </trkpt>
      <trkpt lat="45.95015" lon="4.69232">
        <ele>337</ele>
        <time>2018-02-02T11:25:10Z</time>
      </trkpt>
      <trkpt lat="45.95022" lon="4.69237">
        <ele>337</ele>
        <time>2018-02-02T11:25:11Z</time>
      </trkpt>
      <trkpt lat="45.95029" lon="4.69243">
        <ele>337</ele>
        <time>2018-02-02T11:25:12Z</time>
      </trkpt>
      <trkpt lat="45.95035" lon="4.69249">
        <ele>336</ele>
        <time>2018-02-02T11:25:13Z</time>
      </trkpt>
      <trkpt lat="45.95042" lon="4.69255">
        <ele>337</ele>
        <time>2018-02-02T11:25:14Z</time>
      </trkpt>
      <trkpt lat="45.95049" lon="4.69263">
        <ele>337</ele>
        <time>2018-02-02T11:25:15Z</time>
      </trkpt>
      <trkpt lat="45.95055" lon="4.6927">
        <ele>336</ele>
        <time>2018-02-02T11:25:16Z</time>
      </trkpt>
      <trkpt lat="45.95062" lon="4.69277">
        <ele>336</ele>
        <time>2018-02-02T11:25:17Z</time>
      </trkpt>
      <trkpt lat="45.95069" lon="4.69284">
        <ele>336</ele>
        <time>2018-02-02T11:25:18Z</time>
      </trkpt>
      <trkpt lat="45.95075" lon="4.6929">
        <ele>336</ele>
        <time>2018-02-02T11:25:19Z</time>
      </trkpt>
      <trkpt lat="45.95081" lon="4.69297">
        <ele>336</ele>
        <time>2018-02-02T11:25:20Z</time>
      </trkpt>
      <trkpt lat="45.95086" lon="4.69302">
        <ele>334</ele>
        <time>2018-02-02T11:25:21Z</time>
      </trkpt>
      <trkpt lat="45.95092" lon="4.69308">
        <ele>334</ele>
        <time>2018-02-02T11:25:22Z</time>
      </trkpt>
      <trkpt lat="45.95098" lon="4.69313">
        <ele>334</ele>
        <time>2018-02-02T11:25:23Z</time>
      </trkpt>
      <trkpt lat="45.95103" lon="4.69319">
        <ele>334</ele>
        <time>2018-02-02T11:25:24Z</time>
      </trkpt>
      <trkpt lat="45.95108" lon="4.69324">
        <ele>334</ele>
        <time>2018-02-02T11:25:25Z</time>
      </trkpt>
      <trkpt lat="45.95113" lon="4.6933">
        <ele>334</ele>
        <time>2018-02-02T11:25:26Z</time>
      </trkpt>
      <trkpt lat="45.95118" lon="4.69335">
        <ele>336</ele>
        <time>2018-02-02T11:25:27Z</time>
      </trkpt>
      <trkpt lat="45.95121" lon="4.6934">
        <ele>336</ele>
        <time>2018-02-02T11:25:28Z</time>
      </trkpt>
      <trkpt lat="45.95126" lon="4.69345">
        <ele>337</ele>
        <time>2018-02-02T11:25:29Z</time>
      </trkpt>
      <trkpt lat="45.95132" lon="4.69348">
        <ele>337</ele>
        <time>2018-02-02T11:25:30Z</time>
      </trkpt>
      <trkpt lat="45.95136" lon="4.69353">
        <ele>337</ele>
        <time>2018-02-02T11:25:31Z</time>
      </trkpt>
      <trkpt lat="45.95141" lon="4.69358">
        <ele>337</ele>
        <time>2018-02-02T11:25:32Z</time>
      </trkpt>
      <trkpt lat="45.95145" lon="4.69362">
        <ele>337</ele>
        <time>2018-02-02T11:25:33Z</time>
      </trkpt>
      <trkpt lat="45.95149" lon="4.69366">
        <ele>337</ele>
        <time>2018-02-02T11:25:34Z</time>
      </trkpt>
      <trkpt lat="45.95153" lon="4.69369">
        <ele>337</ele>
        <time>2018-02-02T11:25:35Z</time>
      </trkpt>
      <trkpt lat="45.95157" lon="4.69372">
        <ele>337</ele>
        <time>2018-02-02T11:25:36Z</time>
      </trkpt>
      <trkpt lat="45.95161" lon="4.69377">
        <ele>337</ele>
        <time>2018-02-02T11:25:37Z</time>
      </trkpt>
      <trkpt lat="45.95165" lon="4.69381">
        <ele>337</ele>
        <time>2018-02-02T11:25:38Z</time>
      </trkpt>
      <trkpt lat="45.95169" lon="4.69384">
        <ele>337</ele>
        <time>2018-02-02T11:25:39Z</time>
      </trkpt>
      <trkpt lat="45.95174" lon="4.69388">
        <ele>337</ele>
        <time>2018-02-02T11:25:40Z</time>
      </trkpt>
      <trkpt lat="45.95178" lon="4.69392">
        <ele>337</ele>
        <time>2018-02-02T11:25:41Z</time>
      </trkpt>
      <trkpt lat="45.95182" lon="4.69396">
        <ele>337</ele>
        <time>2018-02-02T11:25:42Z</time>
      </trkpt>
      <trkpt lat="45.95186" lon="4.69399">
        <ele>337</ele>
        <time>2018-02-02T11:25:43Z</time>
      </trkpt>
      <trkpt lat="45.9519" lon="4.69402">
        <ele>337</ele>
        <time>2018-02-02T11:25:44Z</time>
      </trkpt>
      <trkpt lat="45.95194" lon="4.69406">
        <ele>337</ele>
        <time>2018-02-02T11:25:45Z</time>
      </trkpt>
      <trkpt lat="45.95198" lon="4.69409">
        <ele>337</ele>
        <time>2018-02-02T11:25:46Z</time>
      </trkpt>
      <trkpt lat="45.95203" lon="4.69412">
        <ele>337</ele>
        <time>2018-02-02T11:25:47Z</time>
      </trkpt>
      <trkpt lat="45.95207" lon="4.69415">
        <ele>337</ele>
        <time>2018-02-02T11:25:48Z</time>
      </trkpt>
      <trkpt lat="45.95212" lon="4.69417">
        <ele>340</ele>
        <time>2018-02-02T11:25:49Z</time>
      </trkpt>
      <trkpt lat="45.95217" lon="4.69419">
        <ele>340</ele>
        <time>2018-02-02T11:25:50Z</time>
      </trkpt>
      <trkpt lat="45.95222" lon="4.69422">
        <ele>340</ele>
        <time>2018-02-02T11:25:51Z</time>
      </trkpt>
      <trkpt lat="45.95226" lon="4.69425">
        <ele>340</ele>
        <time>2018-02-02T11:25:52Z</time>
      </trkpt>
      <trkpt lat="45.95231" lon="4.69427">
        <ele>340</ele>
        <time>2018-02-02T11:25:53Z</time>
      </trkpt>
      <trkpt lat="45.95236" lon="4.69429">
        <ele>340</ele>
        <time>2018-02-02T11:25:54Z</time>
      </trkpt>
      <trkpt lat="45.95241" lon="4.69431">
        <ele>340</ele>
        <time>2018-02-02T11:25:55Z</time>
      </trkpt>
      <trkpt lat="45.95246" lon="4.69433">
        <ele>340</ele>
        <time>2018-02-02T11:25:56Z</time>
      </trkpt>
      <trkpt lat="45.95252" lon="4.69436">
        <ele>339</ele>
        <time>2018-02-02T11:25:57Z</time>
      </trkpt>
      <trkpt lat="45.9526" lon="4.6944">
        <ele>339</ele>
        <time>2018-02-02T11:25:59Z</time>
      </trkpt>
      <trkpt lat="45.95263" lon="4.69441">
        <ele>339</ele>
        <time>2018-02-02T11:26:00Z</time>
      </trkpt>
      <trkpt lat="45.95268" lon="4.69443">
        <ele>339</ele>
        <time>2018-02-02T11:26:01Z</time>
      </trkpt>
      <trkpt lat="45.95272" lon="4.69445">
        <ele>339</ele>
        <time>2018-02-02T11:26:02Z</time>
      </trkpt>
      <trkpt lat="45.95277" lon="4.69447">
        <ele>339</ele>
        <time>2018-02-02T11:26:03Z</time>
      </trkpt>
      <trkpt lat="45.95283" lon="4.69449">
        <ele>339</ele>
        <time>2018-02-02T11:26:04Z</time>
      </trkpt>
      <trkpt lat="45.95287" lon="4.69451">
        <ele>339</ele>
        <time>2018-02-02T11:26:05Z</time>
      </trkpt>
      <trkpt lat="45.95291" lon="4.69453">
        <ele>339</ele>
        <time>2018-02-02T11:26:06Z</time>
      </trkpt>
      <trkpt lat="45.95299" lon="4.69457">
        <ele>339</ele>
        <time>2018-02-02T11:26:08Z</time>
      </trkpt>
      <trkpt lat="45.95304" lon="4.69459">
        <ele>339</ele>
        <time>2018-02-02T11:26:09Z</time>
      </trkpt>
      <trkpt lat="45.95308" lon="4.69461">
        <ele>339</ele>
        <time>2018-02-02T11:26:10Z</time>
      </trkpt>
      <trkpt lat="45.95313" lon="4.69464">
        <ele>339</ele>
        <time>2018-02-02T11:26:11Z</time>
      </trkpt>
      <trkpt lat="45.95318" lon="4.69466">
        <ele>339</ele>
        <time>2018-02-02T11:26:12Z</time>
      </trkpt>
      <trkpt lat="45.95323" lon="4.69469">
        <ele>339</ele>
        <time>2018-02-02T11:26:13Z</time>
      </trkpt>
      <trkpt lat="45.95328" lon="4.69472">
        <ele>339</ele>
        <time>2018-02-02T11:26:14Z</time>
      </trkpt>
      <trkpt lat="45.95333" lon="4.69474">
        <ele>337</ele>
        <time>2018-02-02T11:26:15Z</time>
      </trkpt>
      <trkpt lat="45.95339" lon="4.69476">
        <ele>337</ele>
        <time>2018-02-02T11:26:16Z</time>
      </trkpt>
      <trkpt lat="45.95344" lon="4.6948">
        <ele>337</ele>
        <time>2018-02-02T11:26:17Z</time>
      </trkpt>
      <trkpt lat="45.95349" lon="4.69483">
        <ele>338</ele>
        <time>2018-02-02T11:26:18Z</time>
      </trkpt>
      <trkpt lat="45.95355" lon="4.69487">
        <ele>337</ele>
        <time>2018-02-02T11:26:19Z</time>
      </trkpt>
      <trkpt lat="45.95361" lon="4.6949">
        <ele>337</ele>
        <time>2018-02-02T11:26:20Z</time>
      </trkpt>
      <trkpt lat="45.95366" lon="4.69494">
        <ele>337</ele>
        <time>2018-02-02T11:26:21Z</time>
      </trkpt>
      <trkpt lat="45.9537" lon="4.69498">
        <ele>337</ele>
        <time>2018-02-02T11:26:22Z</time>
      </trkpt>
      <trkpt lat="45.95376" lon="4.69502">
        <ele>340</ele>
        <time>2018-02-02T11:26:23Z</time>
      </trkpt>
      <trkpt lat="45.95381" lon="4.69504">
        <ele>340</ele>
        <time>2018-02-02T11:26:24Z</time>
      </trkpt>
      <trkpt lat="45.95386" lon="4.69508">
        <ele>340</ele>
        <time>2018-02-02T11:26:25Z</time>
      </trkpt>
      <trkpt lat="45.95391" lon="4.69511">
        <ele>340</ele>
        <time>2018-02-02T11:26:26Z</time>
      </trkpt>
      <trkpt lat="45.95395" lon="4.69516">
        <ele>339</ele>
        <time>2018-02-02T11:26:27Z</time>
      </trkpt>
      <trkpt lat="45.954" lon="4.69519">
        <ele>339</ele>
        <time>2018-02-02T11:26:28Z</time>
      </trkpt>
      <trkpt lat="45.95406" lon="4.69523">
        <ele>339</ele>
        <time>2018-02-02T11:26:29Z</time>
      </trkpt>
      <trkpt lat="45.9541" lon="4.69526">
        <ele>339</ele>
        <time>2018-02-02T11:26:30Z</time>
      </trkpt>
      <trkpt lat="45.95415" lon="4.6953">
        <ele>339</ele>
        <time>2018-02-02T11:26:31Z</time>
      </trkpt>
      <trkpt lat="45.95421" lon="4.69534">
        <ele>337</ele>
        <time>2018-02-02T11:26:32Z</time>
      </trkpt>
      <trkpt lat="45.95426" lon="4.69537">
        <ele>337</ele>
        <time>2018-02-02T11:26:33Z</time>
      </trkpt>
      <trkpt lat="45.95431" lon="4.6954">
        <ele>337</ele>
        <time>2018-02-02T11:26:34Z</time>
      </trkpt>
      <trkpt lat="45.95436" lon="4.69542">
        <ele>337</ele>
        <time>2018-02-02T11:26:35Z</time>
      </trkpt>
      <trkpt lat="45.95442" lon="4.69546">
        <ele>337</ele>
        <time>2018-02-02T11:26:36Z</time>
      </trkpt>
      <trkpt lat="45.95447" lon="4.69548">
        <ele>337</ele>
        <time>2018-02-02T11:26:37Z</time>
      </trkpt>
      <trkpt lat="45.95453" lon="4.69551">
        <ele>337</ele>
        <time>2018-02-02T11:26:38Z</time>
      </trkpt>
      <trkpt lat="45.95458" lon="4.69553">
        <ele>337</ele>
        <time>2018-02-02T11:26:39Z</time>
      </trkpt>
      <trkpt lat="45.95464" lon="4.69556">
        <ele>337</ele>
        <time>2018-02-02T11:26:40Z</time>
      </trkpt>
      <trkpt lat="45.95469" lon="4.69558">
        <ele>337</ele>
        <time>2018-02-02T11:26:41Z</time>
      </trkpt>
      <trkpt lat="45.95475" lon="4.6956">
        <ele>337</ele>
        <time>2018-02-02T11:26:42Z</time>
      </trkpt>
      <trkpt lat="45.9548" lon="4.69562">
        <ele>337</ele>
        <time>2018-02-02T11:26:43Z</time>
      </trkpt>
      <trkpt lat="45.95485" lon="4.69565">
        <ele>337</ele>
        <time>2018-02-02T11:26:44Z</time>
      </trkpt>
      <trkpt lat="45.95491" lon="4.69567">
        <ele>337</ele>
        <time>2018-02-02T11:26:45Z</time>
      </trkpt>
      <trkpt lat="45.95497" lon="4.6957">
        <ele>337</ele>
        <time>2018-02-02T11:26:46Z</time>
      </trkpt>
      <trkpt lat="45.95503" lon="4.69572">
        <ele>335</ele>
        <time>2018-02-02T11:26:47Z</time>
      </trkpt>
      <trkpt lat="45.95509" lon="4.69575">
        <ele>335</ele>
        <time>2018-02-02T11:26:48Z</time>
      </trkpt>
      <trkpt lat="45.95514" lon="4.69577">
        <ele>334</ele>
        <time>2018-02-02T11:26:49Z</time>
      </trkpt>
      <trkpt lat="45.9552" lon="4.6958">
        <ele>334</ele>
        <time>2018-02-02T11:26:50Z</time>
      </trkpt>
      <trkpt lat="45.95526" lon="4.69582">
        <ele>333</ele>
        <time>2018-02-02T11:26:51Z</time>
      </trkpt>
      <trkpt lat="45.95533" lon="4.69585">
        <ele>332</ele>
        <time>2018-02-02T11:26:52Z</time>
      </trkpt>
      <trkpt lat="45.95539" lon="4.69588">
        <ele>332</ele>
        <time>2018-02-02T11:26:53Z</time>
      </trkpt>
      <trkpt lat="45.95545" lon="4.69591">
        <ele>331</ele>
        <time>2018-02-02T11:26:54Z</time>
      </trkpt>
      <trkpt lat="45.95552" lon="4.69593">
        <ele>331</ele>
        <time>2018-02-02T11:26:55Z</time>
      </trkpt>
      <trkpt lat="45.95559" lon="4.69596">
        <ele>330</ele>
        <time>2018-02-02T11:26:56Z</time>
      </trkpt>
      <trkpt lat="45.95566" lon="4.69599">
        <ele>330</ele>
        <time>2018-02-02T11:26:57Z</time>
      </trkpt>
      <trkpt lat="45.95573" lon="4.69602">
        <ele>330</ele>
        <time>2018-02-02T11:26:58Z</time>
      </trkpt>
      <trkpt lat="45.95579" lon="4.69604">
        <ele>330</ele>
        <time>2018-02-02T11:26:59Z</time>
      </trkpt>
      <trkpt lat="45.95586" lon="4.69607">
        <ele>328</ele>
        <time>2018-02-02T11:27:00Z</time>
      </trkpt>
      <trkpt lat="45.95594" lon="4.69611">
        <ele>328</ele>
        <time>2018-02-02T11:27:01Z</time>
      </trkpt>
      <trkpt lat="45.95601" lon="4.69614">
        <ele>328</ele>
        <time>2018-02-02T11:27:02Z</time>
      </trkpt>
      <trkpt lat="45.95607" lon="4.69617">
        <ele>328</ele>
        <time>2018-02-02T11:27:03Z</time>
      </trkpt>
      <trkpt lat="45.95615" lon="4.69621">
        <ele>328</ele>
        <time>2018-02-02T11:27:04Z</time>
      </trkpt>
      <trkpt lat="45.95621" lon="4.69625">
        <ele>328</ele>
        <time>2018-02-02T11:27:05Z</time>
      </trkpt>
      <trkpt lat="45.95628" lon="4.69627">
        <ele>328</ele>
        <time>2018-02-02T11:27:06Z</time>
      </trkpt>
      <trkpt lat="45.95634" lon="4.69631">
        <ele>328</ele>
        <time>2018-02-02T11:27:07Z</time>
      </trkpt>
      <trkpt lat="45.95642" lon="4.69634">
        <ele>328</ele>
        <time>2018-02-02T11:27:08Z</time>
      </trkpt>
      <trkpt lat="45.95649" lon="4.69637">
        <ele>328</ele>
        <time>2018-02-02T11:27:09Z</time>
      </trkpt>
      <trkpt lat="45.95656" lon="4.6964">
        <ele>327</ele>
        <time>2018-02-02T11:27:10Z</time>
      </trkpt>
      <trkpt lat="45.95663" lon="4.69642">
        <ele>327</ele>
        <time>2018-02-02T11:27:11Z</time>
      </trkpt>
      <trkpt lat="45.95669" lon="4.69644">
        <ele>326</ele>
        <time>2018-02-02T11:27:12Z</time>
      </trkpt>
      <trkpt lat="45.95675" lon="4.69647">
        <ele>326</ele>
        <time>2018-02-02T11:27:13Z</time>
      </trkpt>
      <trkpt lat="45.95682" lon="4.6965">
        <ele>326</ele>
        <time>2018-02-02T11:27:14Z</time>
      </trkpt>
      <trkpt lat="45.9569" lon="4.69651">
        <ele>326</ele>
        <time>2018-02-02T11:27:15Z</time>
      </trkpt>
      <trkpt lat="45.95696" lon="4.69654">
        <ele>326</ele>
        <time>2018-02-02T11:27:16Z</time>
      </trkpt>
      <trkpt lat="45.95703" lon="4.69657">
        <ele>326</ele>
        <time>2018-02-02T11:27:17Z</time>
      </trkpt>
      <trkpt lat="45.9571" lon="4.69659">
        <ele>326</ele>
        <time>2018-02-02T11:27:18Z</time>
      </trkpt>
      <trkpt lat="45.95718" lon="4.69662">
        <ele>326</ele>
        <time>2018-02-02T11:27:19Z</time>
      </trkpt>
      <trkpt lat="45.95725" lon="4.69665">
        <ele>326</ele>
        <time>2018-02-02T11:27:20Z</time>
      </trkpt>
      <trkpt lat="45.95732" lon="4.69668">
        <ele>326</ele>
        <time>2018-02-02T11:27:21Z</time>
      </trkpt>
      <trkpt lat="45.95739" lon="4.69671">
        <ele>326</ele>
        <time>2018-02-02T11:27:22Z</time>
      </trkpt>
      <trkpt lat="45.95745" lon="4.69673">
        <ele>326</ele>
        <time>2018-02-02T11:27:23Z</time>
      </trkpt>
      <trkpt lat="45.9575" lon="4.69678">
        <ele>326</ele>
        <time>2018-02-02T11:27:24Z</time>
      </trkpt>
      <trkpt lat="45.95756" lon="4.69682">
        <ele>326</ele>
        <time>2018-02-02T11:27:25Z</time>
      </trkpt>
      <trkpt lat="45.95761" lon="4.69685">
        <ele>326</ele>
        <time>2018-02-02T11:27:26Z</time>
      </trkpt>
      <trkpt lat="45.95767" lon="4.69686">
        <ele>326</ele>
        <time>2018-02-02T11:27:27Z</time>
      </trkpt>
      <trkpt lat="45.95773" lon="4.69687">
        <ele>326</ele>
        <time>2018-02-02T11:27:28Z</time>
      </trkpt>
      <trkpt lat="45.95777" lon="4.69692">
        <ele>326</ele>
        <time>2018-02-02T11:27:29Z</time>
      </trkpt>
      <trkpt lat="45.95782" lon="4.69696">
        <ele>326</ele>
        <time>2018-02-02T11:27:30Z</time>
      </trkpt>
      <trkpt lat="45.95787" lon="4.69702">
        <ele>326</ele>
        <time>2018-02-02T11:27:31Z</time>
      </trkpt>
      <trkpt lat="45.95791" lon="4.69707">
        <ele>326</ele>
        <time>2018-02-02T11:27:32Z</time>
      </trkpt>
      <trkpt lat="45.95796" lon="4.69714">
        <ele>326</ele>
        <time>2018-02-02T11:27:33Z</time>
      </trkpt>
      <trkpt lat="45.95799" lon="4.6972">
        <ele>326</ele>
        <time>2018-02-02T11:27:34Z</time>
      </trkpt>
      <trkpt lat="45.95804" lon="4.69726">
        <ele>326</ele>
        <time>2018-02-02T11:27:35Z</time>
      </trkpt>
      <trkpt lat="45.95808" lon="4.69733">
        <ele>326</ele>
        <time>2018-02-02T11:27:36Z</time>
      </trkpt>
      <trkpt lat="45.95812" lon="4.69738">
        <ele>327</ele>
        <time>2018-02-02T11:27:37Z</time>
      </trkpt>
      <trkpt lat="45.95815" lon="4.69743">
        <ele>327</ele>
        <time>2018-02-02T11:27:38Z</time>
      </trkpt>
      <trkpt lat="45.95818" lon="4.6975">
        <ele>327</ele>
        <time>2018-02-02T11:27:39Z</time>
      </trkpt>
      <trkpt lat="45.95821" lon="4.69757">
        <ele>328</ele>
        <time>2018-02-02T11:27:40Z</time>
      </trkpt>
      <trkpt lat="45.95824" lon="4.69762">
        <ele>328</ele>
        <time>2018-02-02T11:27:41Z</time>
      </trkpt>
      <trkpt lat="45.95828" lon="4.69768">
        <ele>328</ele>
        <time>2018-02-02T11:27:42Z</time>
      </trkpt>
      <trkpt lat="45.95832" lon="4.69773">
        <ele>328</ele>
        <time>2018-02-02T11:27:43Z</time>
      </trkpt>
      <trkpt lat="45.95835" lon="4.69778">
        <ele>327</ele>
        <time>2018-02-02T11:27:44Z</time>
      </trkpt>
      <trkpt lat="45.95838" lon="4.69784">
        <ele>327</ele>
        <time>2018-02-02T11:27:45Z</time>
      </trkpt>
      <trkpt lat="45.95841" lon="4.69789">
        <ele>327</ele>
        <time>2018-02-02T11:27:46Z</time>
      </trkpt>
      <trkpt lat="45.95844" lon="4.69795">
        <ele>327</ele>
        <time>2018-02-02T11:27:47Z</time>
      </trkpt>
      <trkpt lat="45.95847" lon="4.69801">
        <ele>327</ele>
        <time>2018-02-02T11:27:48Z</time>
      </trkpt>
      <trkpt lat="45.9585" lon="4.69807">
        <ele>328</ele>
        <time>2018-02-02T11:27:49Z</time>
      </trkpt>
      <trkpt lat="45.95853" lon="4.69813">
        <ele>328</ele>
        <time>2018-02-02T11:27:50Z</time>
      </trkpt>
      <trkpt lat="45.95856" lon="4.69819">
        <ele>328</ele>
        <time>2018-02-02T11:27:51Z</time>
      </trkpt>
      <trkpt lat="45.95858" lon="4.69825">
        <ele>328</ele>
        <time>2018-02-02T11:27:52Z</time>
      </trkpt>
      <trkpt lat="45.95861" lon="4.69831">
        <ele>328</ele>
        <time>2018-02-02T11:27:53Z</time>
      </trkpt>
      <trkpt lat="45.95863" lon="4.69839">
        <ele>329</ele>
        <time>2018-02-02T11:27:54Z</time>
      </trkpt>
      <trkpt lat="45.95866" lon="4.69844">
        <ele>329</ele>
        <time>2018-02-02T11:27:55Z</time>
      </trkpt>
      <trkpt lat="45.95868" lon="4.6985">
        <ele>329</ele>
        <time>2018-02-02T11:27:56Z</time>
      </trkpt>
      <trkpt lat="45.9587" lon="4.69856">
        <ele>329</ele>
        <time>2018-02-02T11:27:57Z</time>
      </trkpt>
      <trkpt lat="45.95874" lon="4.69868">
        <ele>329</ele>
        <time>2018-02-02T11:27:59Z</time>
      </trkpt>
      <trkpt lat="45.95876" lon="4.69875">
        <ele>329</ele>
        <time>2018-02-02T11:28:00Z</time>
      </trkpt>
      <trkpt lat="45.95877" lon="4.69881">
        <ele>329</ele>
        <time>2018-02-02T11:28:01Z</time>
      </trkpt>
      <trkpt lat="45.9588" lon="4.69888">
        <ele>329</ele>
        <time>2018-02-02T11:28:02Z</time>
      </trkpt>
      <trkpt lat="45.95881" lon="4.69895">
        <ele>329</ele>
        <time>2018-02-02T11:28:03Z</time>
      </trkpt>
      <trkpt lat="45.95883" lon="4.69901">
        <ele>329</ele>
        <time>2018-02-02T11:28:04Z</time>
      </trkpt>
      <trkpt lat="45.95885" lon="4.69907">
        <ele>329</ele>
        <time>2018-02-02T11:28:05Z</time>
      </trkpt>
      <trkpt lat="45.95887" lon="4.69914">
        <ele>329</ele>
        <time>2018-02-02T11:28:06Z</time>
      </trkpt>
      <trkpt lat="45.95888" lon="4.69921">
        <ele>328</ele>
        <time>2018-02-02T11:28:07Z</time>
      </trkpt>
      <trkpt lat="45.9589" lon="4.69928">
        <ele>328</ele>
        <time>2018-02-02T11:28:08Z</time>
      </trkpt>
      <trkpt lat="45.95891" lon="4.69935">
        <ele>328</ele>
        <time>2018-02-02T11:28:09Z</time>
      </trkpt>
      <trkpt lat="45.95892" lon="4.69941">
        <ele>328</ele>
        <time>2018-02-02T11:28:10Z</time>
      </trkpt>
      <trkpt lat="45.95894" lon="4.69947">
        <ele>328</ele>
        <time>2018-02-02T11:28:11Z</time>
      </trkpt>
      <trkpt lat="45.95895" lon="4.69953">
        <ele>328</ele>
        <time>2018-02-02T11:28:12Z</time>
      </trkpt>
      <trkpt lat="45.95897" lon="4.6996">
        <ele>328</ele>
        <time>2018-02-02T11:28:13Z</time>
      </trkpt>
      <trkpt lat="45.95899" lon="4.69966">
        <ele>328</ele>
        <time>2018-02-02T11:28:14Z</time>
      </trkpt>
      <trkpt lat="45.95902" lon="4.69973">
        <ele>328</ele>
        <time>2018-02-02T11:28:15Z</time>
      </trkpt>
      <trkpt lat="45.95904" lon="4.69978">
        <ele>328</ele>
        <time>2018-02-02T11:28:16Z</time>
      </trkpt>
      <trkpt lat="45.95906" lon="4.69991">
        <ele>328</ele>
        <time>2018-02-02T11:28:18Z</time>
      </trkpt>
      <trkpt lat="45.95909" lon="4.69998">
        <ele>328</ele>
        <time>2018-02-02T11:28:19Z</time>
      </trkpt>
      <trkpt lat="45.9591" lon="4.70005">
        <ele>328</ele>
        <time>2018-02-02T11:28:20Z</time>
      </trkpt>
      <trkpt lat="45.95913" lon="4.70012">
        <ele>328</ele>
        <time>2018-02-02T11:28:21Z</time>
      </trkpt>
      <trkpt lat="45.95916" lon="4.70018">
        <ele>328</ele>
        <time>2018-02-02T11:28:22Z</time>
      </trkpt>
      <trkpt lat="45.95919" lon="4.70024">
        <ele>328</ele>
        <time>2018-02-02T11:28:23Z</time>
      </trkpt>
      <trkpt lat="45.95922" lon="4.7003">
        <ele>328</ele>
        <time>2018-02-02T11:28:24Z</time>
      </trkpt>
      <trkpt lat="45.95925" lon="4.70036">
        <ele>328</ele>
        <time>2018-02-02T11:28:25Z</time>
      </trkpt>
      <trkpt lat="45.95929" lon="4.7004">
        <ele>328</ele>
        <time>2018-02-02T11:28:26Z</time>
      </trkpt>
      <trkpt lat="45.95932" lon="4.70046">
        <ele>328</ele>
        <time>2018-02-02T11:28:27Z</time>
      </trkpt>
      <trkpt lat="45.95936" lon="4.7005">
        <ele>328</ele>
        <time>2018-02-02T11:28:28Z</time>
      </trkpt>
      <trkpt lat="45.95939" lon="4.70056">
        <ele>328</ele>
        <time>2018-02-02T11:28:29Z</time>
      </trkpt>
      <trkpt lat="45.95942" lon="4.70061">
        <ele>328</ele>
        <time>2018-02-02T11:28:30Z</time>
      </trkpt>
      <trkpt lat="45.95946" lon="4.70066">
        <ele>328</ele>
        <time>2018-02-02T11:28:31Z</time>
      </trkpt>
      <trkpt lat="45.9595" lon="4.70071">
        <ele>328</ele>
        <time>2018-02-02T11:28:32Z</time>
      </trkpt>
      <trkpt lat="45.95953" lon="4.70076">
        <ele>328</ele>
        <time>2018-02-02T11:28:33Z</time>
      </trkpt>
      <trkpt lat="45.95957" lon="4.70081">
        <ele>328</ele>
        <time>2018-02-02T11:28:34Z</time>
      </trkpt>
      <trkpt lat="45.95961" lon="4.70086">
        <ele>328</ele>
        <time>2018-02-02T11:28:35Z</time>
      </trkpt>
      <trkpt lat="45.95965" lon="4.7009">
        <ele>328</ele>
        <time>2018-02-02T11:28:36Z</time>
      </trkpt>
      <trkpt lat="45.95969" lon="4.70093">
        <ele>328</ele>
        <time>2018-02-02T11:28:37Z</time>
      </trkpt>
      <trkpt lat="45.95973" lon="4.70096">
        <ele>328</ele>
        <time>2018-02-02T11:28:38Z</time>
      </trkpt>
      <trkpt lat="45.95977" lon="4.70102">
        <ele>328</ele>
        <time>2018-02-02T11:28:39Z</time>
      </trkpt>
      <trkpt lat="45.9598" lon="4.70106">
        <ele>328</ele>
        <time>2018-02-02T11:28:40Z</time>
      </trkpt>
      <trkpt lat="45.95985" lon="4.7011">
        <ele>328</ele>
        <time>2018-02-02T11:28:41Z</time>
      </trkpt>
      <trkpt lat="45.95989" lon="4.70115">
        <ele>328</ele>
        <time>2018-02-02T11:28:42Z</time>
      </trkpt>
      <trkpt lat="45.95992" lon="4.70119">
        <ele>328</ele>
        <time>2018-02-02T11:28:43Z</time>
      </trkpt>
      <trkpt lat="45.95996" lon="4.70123">
        <ele>328</ele>
        <time>2018-02-02T11:28:44Z</time>
      </trkpt>
      <trkpt lat="45.96001" lon="4.70127">
        <ele>328</ele>
        <time>2018-02-02T11:28:45Z</time>
      </trkpt>
      <trkpt lat="45.96005" lon="4.70131">
        <ele>328</ele>
        <time>2018-02-02T11:28:46Z</time>
      </trkpt>
      <trkpt lat="45.96009" lon="4.70135">
        <ele>328</ele>
        <time>2018-02-02T11:28:47Z</time>
      </trkpt>
      <trkpt lat="45.96013" lon="4.70139">
        <ele>328</ele>
        <time>2018-02-02T11:28:48Z</time>
      </trkpt>
      <trkpt lat="45.96017" lon="4.70142">
        <ele>329</ele>
        <time>2018-02-02T11:28:49Z</time>
      </trkpt>
      <trkpt lat="45.96021" lon="4.70146">
        <ele>329</ele>
        <time>2018-02-02T11:28:50Z</time>
      </trkpt>
      <trkpt lat="45.96025" lon="4.70151">
        <ele>329</ele>
        <time>2018-02-02T11:28:51Z</time>
      </trkpt>
      <trkpt lat="45.9603" lon="4.70155">
        <ele>329</ele>
        <time>2018-02-02T11:28:52Z</time>
      </trkpt>
      <trkpt lat="45.96035" lon="4.7016">
        <ele>329</ele>
        <time>2018-02-02T11:28:53Z</time>
      </trkpt>
      <trkpt lat="45.9604" lon="4.70165">
        <ele>329</ele>
        <time>2018-02-02T11:28:54Z</time>
      </trkpt>
      <trkpt lat="45.96044" lon="4.7017">
        <ele>327</ele>
        <time>2018-02-02T11:28:55Z</time>
      </trkpt>
      <trkpt lat="45.96049" lon="4.70175">
        <ele>327</ele>
        <time>2018-02-02T11:28:56Z</time>
      </trkpt>
      <trkpt lat="45.96054" lon="4.7018">
        <ele>327</ele>
        <time>2018-02-02T11:28:57Z</time>
      </trkpt>
      <trkpt lat="45.9606" lon="4.70185">
        <ele>327</ele>
        <time>2018-02-02T11:28:58Z</time>
      </trkpt>
      <trkpt lat="45.96065" lon="4.70188">
        <ele>327</ele>
        <time>2018-02-02T11:28:59Z</time>
      </trkpt>
      <trkpt lat="45.9607" lon="4.70193">
        <ele>327</ele>
        <time>2018-02-02T11:29:00Z</time>
      </trkpt>
      <trkpt lat="45.96076" lon="4.70198">
        <ele>327</ele>
        <time>2018-02-02T11:29:01Z</time>
      </trkpt>
      <trkpt lat="45.96081" lon="4.70202">
        <ele>327</ele>
        <time>2018-02-02T11:29:02Z</time>
      </trkpt>
      <trkpt lat="45.96086" lon="4.70206">
        <ele>327</ele>
        <time>2018-02-02T11:29:03Z</time>
      </trkpt>
      <trkpt lat="45.96091" lon="4.7021">
        <ele>327</ele>
        <time>2018-02-02T11:29:04Z</time>
      </trkpt>
      <trkpt lat="45.96097" lon="4.70215">
        <ele>327</ele>
        <time>2018-02-02T11:29:05Z</time>
      </trkpt>
      <trkpt lat="45.96104" lon="4.7022">
        <ele>327</ele>
        <time>2018-02-02T11:29:06Z</time>
      </trkpt>
      <trkpt lat="45.96109" lon="4.70224">
        <ele>327</ele>
        <time>2018-02-02T11:29:07Z</time>
      </trkpt>
      <trkpt lat="45.96115" lon="4.7023">
        <ele>327</ele>
        <time>2018-02-02T11:29:08Z</time>
      </trkpt>
      <trkpt lat="45.96121" lon="4.70235">
        <ele>327</ele>
        <time>2018-02-02T11:29:09Z</time>
      </trkpt>
      <trkpt lat="45.96127" lon="4.70241">
        <ele>327</ele>
        <time>2018-02-02T11:29:10Z</time>
      </trkpt>
      <trkpt lat="45.96133" lon="4.70247">
        <ele>327</ele>
        <time>2018-02-02T11:29:11Z</time>
      </trkpt>
      <trkpt lat="45.96138" lon="4.70254">
        <ele>324</ele>
        <time>2018-02-02T11:29:12Z</time>
      </trkpt>
      <trkpt lat="45.96144" lon="4.7026">
        <ele>324</ele>
        <time>2018-02-02T11:29:13Z</time>
      </trkpt>
      <trkpt lat="45.9615" lon="4.70266">
        <ele>324</ele>
        <time>2018-02-02T11:29:14Z</time>
      </trkpt>
      <trkpt lat="45.96156" lon="4.70272">
        <ele>324</ele>
        <time>2018-02-02T11:29:15Z</time>
      </trkpt>
      <trkpt lat="45.96161" lon="4.70278">
        <ele>323</ele>
        <time>2018-02-02T11:29:16Z</time>
      </trkpt>
      <trkpt lat="45.96165" lon="4.70285">
        <ele>323</ele>
        <time>2018-02-02T11:29:17Z</time>
      </trkpt>
      <trkpt lat="45.96171" lon="4.70291">
        <ele>326</ele>
        <time>2018-02-02T11:29:18Z</time>
      </trkpt>
      <trkpt lat="45.96176" lon="4.70298">
        <ele>326</ele>
        <time>2018-02-02T11:29:19Z</time>
      </trkpt>
      <trkpt lat="45.96181" lon="4.70304">
        <ele>325</ele>
        <time>2018-02-02T11:29:20Z</time>
      </trkpt>
      <trkpt lat="45.96186" lon="4.70311">
        <ele>325</ele>
        <time>2018-02-02T11:29:21Z</time>
      </trkpt>
      <trkpt lat="45.96191" lon="4.70318">
        <ele>325</ele>
        <time>2018-02-02T11:29:22Z</time>
      </trkpt>
      <trkpt lat="45.96196" lon="4.70325">
        <ele>325</ele>
        <time>2018-02-02T11:29:23Z</time>
      </trkpt>
      <trkpt lat="45.962" lon="4.70332">
        <ele>325</ele>
        <time>2018-02-02T11:29:24Z</time>
      </trkpt>
      <trkpt lat="45.96205" lon="4.70338">
        <ele>320</ele>
        <time>2018-02-02T11:29:25Z</time>
      </trkpt>
      <trkpt lat="45.96209" lon="4.70345">
        <ele>321</ele>
        <time>2018-02-02T11:29:26Z</time>
      </trkpt>
      <trkpt lat="45.96214" lon="4.70352">
        <ele>321</ele>
        <time>2018-02-02T11:29:27Z</time>
      </trkpt>
      <trkpt lat="45.96219" lon="4.70359">
        <ele>321</ele>
        <time>2018-02-02T11:29:28Z</time>
      </trkpt>
      <trkpt lat="45.96223" lon="4.70366">
        <ele>321</ele>
        <time>2018-02-02T11:29:29Z</time>
      </trkpt>
      <trkpt lat="45.96227" lon="4.70373">
        <ele>320</ele>
        <time>2018-02-02T11:29:30Z</time>
      </trkpt>
      <trkpt lat="45.96231" lon="4.7038">
        <ele>320</ele>
        <time>2018-02-02T11:29:31Z</time>
      </trkpt>
      <trkpt lat="45.96236" lon="4.70388">
        <ele>320</ele>
        <time>2018-02-02T11:29:32Z</time>
      </trkpt>
      <trkpt lat="45.96241" lon="4.70394">
        <ele>320</ele>
        <time>2018-02-02T11:29:33Z</time>
      </trkpt>
      <trkpt lat="45.96246" lon="4.70401">
        <ele>320</ele>
        <time>2018-02-02T11:29:34Z</time>
      </trkpt>
      <trkpt lat="45.96251" lon="4.70408">
        <ele>323</ele>
        <time>2018-02-02T11:29:35Z</time>
      </trkpt>
      <trkpt lat="45.96256" lon="4.70415">
        <ele>322</ele>
        <time>2018-02-02T11:29:36Z</time>
      </trkpt>
      <trkpt lat="45.9626" lon="4.70421">
        <ele>320</ele>
        <time>2018-02-02T11:29:37Z</time>
      </trkpt>
      <trkpt lat="45.96265" lon="4.70428">
        <ele>321</ele>
        <time>2018-02-02T11:29:38Z</time>
      </trkpt>
      <trkpt lat="45.96268" lon="4.70436">
        <ele>321</ele>
        <time>2018-02-02T11:29:39Z</time>
      </trkpt>
      <trkpt lat="45.96272" lon="4.70443">
        <ele>321</ele>
        <time>2018-02-02T11:29:40Z</time>
      </trkpt>
      <trkpt lat="45.96277" lon="4.70449">
        <ele>321</ele>
        <time>2018-02-02T11:29:41Z</time>
      </trkpt>
      <trkpt lat="45.96282" lon="4.70456">
        <ele>320</ele>
        <time>2018-02-02T11:29:42Z</time>
      </trkpt>
      <trkpt lat="45.96286" lon="4.70462">
        <ele>320</ele>
        <time>2018-02-02T11:29:43Z</time>
      </trkpt>
      <trkpt lat="45.96291" lon="4.70469">
        <ele>320</ele>
        <time>2018-02-02T11:29:44Z</time>
      </trkpt>
      <trkpt lat="45.96295" lon="4.70474">
        <ele>320</ele>
        <time>2018-02-02T11:29:45Z</time>
      </trkpt>
      <trkpt lat="45.963" lon="4.70484">
        <ele>320</ele>
        <time>2018-02-02T11:29:47Z</time>
      </trkpt>
      <trkpt lat="45.96301" lon="4.70486">
        <ele>320</ele>
        <time>2018-02-02T11:29:48Z</time>
      </trkpt>
      <trkpt lat="45.96308" lon="4.70492">
        <ele>320</ele>
        <time>2018-02-02T11:30:25Z</time>
      </trkpt>
      <trkpt lat="45.9631" lon="4.70492">
        <ele>320</ele>
        <time>2018-02-02T11:30:26Z</time>
      </trkpt>
      <trkpt lat="45.96316" lon="4.705">
        <ele>320</ele>
        <time>2018-02-02T11:30:29Z</time>
      </trkpt>
      <trkpt lat="45.96318" lon="4.70503">
        <ele>317</ele>
        <time>2018-02-02T11:30:30Z</time>
      </trkpt>
      <trkpt lat="45.96324" lon="4.70511">
        <ele>317</ele>
        <time>2018-02-02T11:30:32Z</time>
      </trkpt>
      <trkpt lat="45.96326" lon="4.70515">
        <ele>316</ele>
        <time>2018-02-02T11:30:33Z</time>
      </trkpt>
      <trkpt lat="45.9633" lon="4.70521">
        <ele>316</ele>
        <time>2018-02-02T11:30:34Z</time>
      </trkpt>
      <trkpt lat="45.96333" lon="4.70526">
        <ele>315</ele>
        <time>2018-02-02T11:30:35Z</time>
      </trkpt>
      <trkpt lat="45.96337" lon="4.70531">
        <ele>319</ele>
        <time>2018-02-02T11:30:36Z</time>
      </trkpt>
      <trkpt lat="45.96341" lon="4.70535">
        <ele>319</ele>
        <time>2018-02-02T11:30:37Z</time>
      </trkpt>
      <trkpt lat="45.96345" lon="4.7054">
        <ele>318</ele>
        <time>2018-02-02T11:30:38Z</time>
      </trkpt>
      <trkpt lat="45.96349" lon="4.70546">
        <ele>318</ele>
        <time>2018-02-02T11:30:39Z</time>
      </trkpt>
      <trkpt lat="45.96353" lon="4.70551">
        <ele>318</ele>
        <time>2018-02-02T11:30:40Z</time>
      </trkpt>
      <trkpt lat="45.96357" lon="4.70557">
        <ele>318</ele>
        <time>2018-02-02T11:30:41Z</time>
      </trkpt>
      <trkpt lat="45.96361" lon="4.70562">
        <ele>317</ele>
        <time>2018-02-02T11:30:42Z</time>
      </trkpt>
      <trkpt lat="45.96367" lon="4.70569">
        <ele>317</ele>
        <time>2018-02-02T11:30:43Z</time>
      </trkpt>
      <trkpt lat="45.96371" lon="4.70575">
        <ele>318</ele>
        <time>2018-02-02T11:30:44Z</time>
      </trkpt>
      <trkpt lat="45.96377" lon="4.70581">
        <ele>318</ele>
        <time>2018-02-02T11:30:45Z</time>
      </trkpt>
      <trkpt lat="45.96382" lon="4.70587">
        <ele>312</ele>
        <time>2018-02-02T11:30:46Z</time>
      </trkpt>
      <trkpt lat="45.96388" lon="4.70594">
        <ele>312</ele>
        <time>2018-02-02T11:30:47Z</time>
      </trkpt>
      <trkpt lat="45.96393" lon="4.70601">
        <ele>312</ele>
        <time>2018-02-02T11:30:48Z</time>
      </trkpt>
      <trkpt lat="45.96399" lon="4.70608">
        <ele>312</ele>
        <time>2018-02-02T11:30:49Z</time>
      </trkpt>
      <trkpt lat="45.96406" lon="4.70615">
        <ele>312</ele>
        <time>2018-02-02T11:30:50Z</time>
      </trkpt>
      <trkpt lat="45.96412" lon="4.70623">
        <ele>311</ele>
        <time>2018-02-02T11:30:51Z</time>
      </trkpt>
      <trkpt lat="45.96418" lon="4.7063">
        <ele>313</ele>
        <time>2018-02-02T11:30:52Z</time>
      </trkpt>
      <trkpt lat="45.96425" lon="4.70637">
        <ele>313</ele>
        <time>2018-02-02T11:30:53Z</time>
      </trkpt>
      <trkpt lat="45.96432" lon="4.70645">
        <ele>312</ele>
        <time>2018-02-02T11:30:54Z</time>
      </trkpt>
      <trkpt lat="45.96438" lon="4.70652">
        <ele>312</ele>
        <time>2018-02-02T11:30:55Z</time>
      </trkpt>
      <trkpt lat="45.96445" lon="4.7066">
        <ele>312</ele>
        <time>2018-02-02T11:30:56Z</time>
      </trkpt>
      <trkpt lat="45.96452" lon="4.70667">
        <ele>305</ele>
        <time>2018-02-02T11:30:57Z</time>
      </trkpt>
      <trkpt lat="45.96459" lon="4.70674">
        <ele>305</ele>
        <time>2018-02-02T11:30:58Z</time>
      </trkpt>
      <trkpt lat="45.96466" lon="4.7068">
        <ele>305</ele>
        <time>2018-02-02T11:30:59Z</time>
      </trkpt>
      <trkpt lat="45.96474" lon="4.70687">
        <ele>305</ele>
        <time>2018-02-02T11:31:00Z</time>
      </trkpt>
      <trkpt lat="45.96482" lon="4.70694">
        <ele>305</ele>
        <time>2018-02-02T11:31:01Z</time>
      </trkpt>
      <trkpt lat="45.96489" lon="4.707">
        <ele>305</ele>
        <time>2018-02-02T11:31:02Z</time>
      </trkpt>
      <trkpt lat="45.96498" lon="4.70707">
        <ele>304</ele>
        <time>2018-02-02T11:31:03Z</time>
      </trkpt>
      <trkpt lat="45.96506" lon="4.70714">
        <ele>306</ele>
        <time>2018-02-02T11:31:04Z</time>
      </trkpt>
      <trkpt lat="45.96514" lon="4.7072">
        <ele>305</ele>
        <time>2018-02-02T11:31:05Z</time>
      </trkpt>
      <trkpt lat="45.96522" lon="4.70728">
        <ele>305</ele>
        <time>2018-02-02T11:31:06Z</time>
      </trkpt>
      <trkpt lat="45.9653" lon="4.70735">
        <ele>305</ele>
        <time>2018-02-02T11:31:07Z</time>
      </trkpt>
      <trkpt lat="45.96538" lon="4.70741">
        <ele>305</ele>
        <time>2018-02-02T11:31:08Z</time>
      </trkpt>
      <trkpt lat="45.96547" lon="4.70748">
        <ele>305</ele>
        <time>2018-02-02T11:31:09Z</time>
      </trkpt>
      <trkpt lat="45.96555" lon="4.70755">
        <ele>298</ele>
        <time>2018-02-02T11:31:10Z</time>
      </trkpt>
      <trkpt lat="45.96564" lon="4.70762">
        <ele>299</ele>
        <time>2018-02-02T11:31:11Z</time>
      </trkpt>
      <trkpt lat="45.96572" lon="4.70769">
        <ele>299</ele>
        <time>2018-02-02T11:31:12Z</time>
      </trkpt>
      <trkpt lat="45.96581" lon="4.70775">
        <ele>298</ele>
        <time>2018-02-02T11:31:13Z</time>
      </trkpt>
      <trkpt lat="45.96589" lon="4.70781">
        <ele>299</ele>
        <time>2018-02-02T11:31:14Z</time>
      </trkpt>
      <trkpt lat="45.96598" lon="4.70787">
        <ele>299</ele>
        <time>2018-02-02T11:31:15Z</time>
      </trkpt>
      <trkpt lat="45.96606" lon="4.70793">
        <ele>298</ele>
        <time>2018-02-02T11:31:16Z</time>
      </trkpt>
      <trkpt lat="45.96615" lon="4.70799">
        <ele>298</ele>
        <time>2018-02-02T11:31:17Z</time>
      </trkpt>
      <trkpt lat="45.96623" lon="4.70804">
        <ele>298</ele>
        <time>2018-02-02T11:31:18Z</time>
      </trkpt>
      <trkpt lat="45.96631" lon="4.70811">
        <ele>297</ele>
        <time>2018-02-02T11:31:19Z</time>
      </trkpt>
      <trkpt lat="45.9664" lon="4.70817">
        <ele>297</ele>
        <time>2018-02-02T11:31:20Z</time>
      </trkpt>
      <trkpt lat="45.96648" lon="4.70823">
        <ele>297</ele>
        <time>2018-02-02T11:31:21Z</time>
      </trkpt>
      <trkpt lat="45.96657" lon="4.70829">
        <ele>296</ele>
        <time>2018-02-02T11:31:22Z</time>
      </trkpt>
      <trkpt lat="45.96666" lon="4.70835">
        <ele>294</ele>
        <time>2018-02-02T11:31:23Z</time>
      </trkpt>
      <trkpt lat="45.96675" lon="4.70841">
        <ele>293</ele>
        <time>2018-02-02T11:31:24Z</time>
      </trkpt>
      <trkpt lat="45.96683" lon="4.70847">
        <ele>291</ele>
        <time>2018-02-02T11:31:25Z</time>
      </trkpt>
      <trkpt lat="45.96692" lon="4.70853">
        <ele>290</ele>
        <time>2018-02-02T11:31:26Z</time>
      </trkpt>
      <trkpt lat="45.967" lon="4.70858">
        <ele>290</ele>
        <time>2018-02-02T11:31:27Z</time>
      </trkpt>
      <trkpt lat="45.96709" lon="4.70864">
        <ele>289</ele>
        <time>2018-02-02T11:31:28Z</time>
      </trkpt>
      <trkpt lat="45.96718" lon="4.70869">
        <ele>289</ele>
        <time>2018-02-02T11:31:29Z</time>
      </trkpt>
      <trkpt lat="45.96727" lon="4.70876">
        <ele>288</ele>
        <time>2018-02-02T11:31:30Z</time>
      </trkpt>
      <trkpt lat="45.96736" lon="4.70881">
        <ele>288</ele>
        <time>2018-02-02T11:31:31Z</time>
      </trkpt>
      <trkpt lat="45.96743" lon="4.70886">
        <ele>287</ele>
        <time>2018-02-02T11:31:32Z</time>
      </trkpt>
      <trkpt lat="45.96752" lon="4.70892">
        <ele>288</ele>
        <time>2018-02-02T11:31:33Z</time>
      </trkpt>
      <trkpt lat="45.96761" lon="4.70896">
        <ele>287</ele>
        <time>2018-02-02T11:31:34Z</time>
      </trkpt>
      <trkpt lat="45.96769" lon="4.70902">
        <ele>287</ele>
        <time>2018-02-02T11:31:35Z</time>
      </trkpt>
      <trkpt lat="45.96778" lon="4.70907">
        <ele>288</ele>
        <time>2018-02-02T11:31:36Z</time>
      </trkpt>
      <trkpt lat="45.96787" lon="4.70912">
        <ele>288</ele>
        <time>2018-02-02T11:31:37Z</time>
      </trkpt>
      <trkpt lat="45.96796" lon="4.70917">
        <ele>280</ele>
        <time>2018-02-02T11:31:38Z</time>
      </trkpt>
      <trkpt lat="45.96804" lon="4.70922">
        <ele>280</ele>
        <time>2018-02-02T11:31:39Z</time>
      </trkpt>
      <trkpt lat="45.96812" lon="4.70927">
        <ele>281</ele>
        <time>2018-02-02T11:31:40Z</time>
      </trkpt>
      <trkpt lat="45.96821" lon="4.70932">
        <ele>281</ele>
        <time>2018-02-02T11:31:41Z</time>
      </trkpt>
      <trkpt lat="45.9683" lon="4.70938">
        <ele>281</ele>
        <time>2018-02-02T11:31:42Z</time>
      </trkpt>
      <trkpt lat="45.96839" lon="4.70944">
        <ele>281</ele>
        <time>2018-02-02T11:31:43Z</time>
      </trkpt>
      <trkpt lat="45.96848" lon="4.70949">
        <ele>280</ele>
        <time>2018-02-02T11:31:44Z</time>
      </trkpt>
      <trkpt lat="45.96857" lon="4.70955">
        <ele>280</ele>
        <time>2018-02-02T11:31:45Z</time>
      </trkpt>
      <trkpt lat="45.96867" lon="4.70962">
        <ele>279</ele>
        <time>2018-02-02T11:31:46Z</time>
      </trkpt>
      <trkpt lat="45.96876" lon="4.70966">
        <ele>279</ele>
        <time>2018-02-02T11:31:47Z</time>
      </trkpt>
      <trkpt lat="45.96885" lon="4.7097">
        <ele>278</ele>
        <time>2018-02-02T11:31:48Z</time>
      </trkpt>
      <trkpt lat="45.96894" lon="4.70973">
        <ele>278</ele>
        <time>2018-02-02T11:31:49Z</time>
      </trkpt>
      <trkpt lat="45.96904" lon="4.70976">
        <ele>277</ele>
        <time>2018-02-02T11:31:50Z</time>
      </trkpt>
      <trkpt lat="45.96913" lon="4.70979">
        <ele>277</ele>
        <time>2018-02-02T11:31:51Z</time>
      </trkpt>
      <trkpt lat="45.96923" lon="4.70982">
        <ele>275</ele>
        <time>2018-02-02T11:31:52Z</time>
      </trkpt>
      <trkpt lat="45.96932" lon="4.70984">
        <ele>275</ele>
        <time>2018-02-02T11:31:53Z</time>
      </trkpt>
      <trkpt lat="45.96942" lon="4.70986">
        <ele>275</ele>
        <time>2018-02-02T11:31:54Z</time>
      </trkpt>
      <trkpt lat="45.96951" lon="4.70988">
        <ele>275</ele>
        <time>2018-02-02T11:31:55Z</time>
      </trkpt>
      <trkpt lat="45.96961" lon="4.7099">
        <ele>274</ele>
        <time>2018-02-02T11:31:56Z</time>
      </trkpt>
      <trkpt lat="45.96972" lon="4.70991">
        <ele>273</ele>
        <time>2018-02-02T11:31:57Z</time>
      </trkpt>
      <trkpt lat="45.96981" lon="4.70992">
        <ele>272</ele>
        <time>2018-02-02T11:31:58Z</time>
      </trkpt>
      <trkpt lat="45.96991" lon="4.70993">
        <ele>271</ele>
        <time>2018-02-02T11:31:59Z</time>
      </trkpt>
      <trkpt lat="45.97" lon="4.70993">
        <ele>269</ele>
        <time>2018-02-02T11:32:00Z</time>
      </trkpt>
      <trkpt lat="45.9701" lon="4.70993">
        <ele>269</ele>
        <time>2018-02-02T11:32:01Z</time>
      </trkpt>
      <trkpt lat="45.97019" lon="4.70992">
        <ele>269</ele>
        <time>2018-02-02T11:32:02Z</time>
      </trkpt>
      <trkpt lat="45.97029" lon="4.70992">
        <ele>269</ele>
        <time>2018-02-02T11:32:03Z</time>
      </trkpt>
      <trkpt lat="45.97038" lon="4.70992">
        <ele>269</ele>
        <time>2018-02-02T11:32:04Z</time>
      </trkpt>
      <trkpt lat="45.97048" lon="4.7099">
        <ele>269</ele>
        <time>2018-02-02T11:32:05Z</time>
      </trkpt>
      <trkpt lat="45.97058" lon="4.70988">
        <ele>268</ele>
        <time>2018-02-02T11:32:06Z</time>
      </trkpt>
      <trkpt lat="45.97069" lon="4.70987">
        <ele>267</ele>
        <time>2018-02-02T11:32:07Z</time>
      </trkpt>
      <trkpt lat="45.97079" lon="4.70985">
        <ele>267</ele>
        <time>2018-02-02T11:32:08Z</time>
      </trkpt>
      <trkpt lat="45.97089" lon="4.70982">
        <ele>264</ele>
        <time>2018-02-02T11:32:09Z</time>
      </trkpt>
      <trkpt lat="45.97098" lon="4.70979">
        <ele>264</ele>
        <time>2018-02-02T11:32:10Z</time>
      </trkpt>
      <trkpt lat="45.97108" lon="4.70974">
        <ele>264</ele>
        <time>2018-02-02T11:32:11Z</time>
      </trkpt>
      <trkpt lat="45.97118" lon="4.7097">
        <ele>264</ele>
        <time>2018-02-02T11:32:12Z</time>
      </trkpt>
      <trkpt lat="45.97127" lon="4.70966">
        <ele>264</ele>
        <time>2018-02-02T11:32:13Z</time>
      </trkpt>
      <trkpt lat="45.97136" lon="4.70962">
        <ele>263</ele>
        <time>2018-02-02T11:32:14Z</time>
      </trkpt>
      <trkpt lat="45.97148" lon="4.70959">
        <ele>263</ele>
        <time>2018-02-02T11:32:15Z</time>
      </trkpt>
      <trkpt lat="45.97157" lon="4.70954">
        <ele>263</ele>
        <time>2018-02-02T11:32:16Z</time>
      </trkpt>
      <trkpt lat="45.97165" lon="4.70949">
        <ele>263</ele>
        <time>2018-02-02T11:32:17Z</time>
      </trkpt>
      <trkpt lat="45.97173" lon="4.70946">
        <ele>258</ele>
        <time>2018-02-02T11:32:18Z</time>
      </trkpt>
      <trkpt lat="45.97181" lon="4.70941">
        <ele>258</ele>
        <time>2018-02-02T11:32:19Z</time>
      </trkpt>
      <trkpt lat="45.97188" lon="4.70936">
        <ele>258</ele>
        <time>2018-02-02T11:32:20Z</time>
      </trkpt>
      <trkpt lat="45.97196" lon="4.7093">
        <ele>257</ele>
        <time>2018-02-02T11:32:21Z</time>
      </trkpt>
      <trkpt lat="45.97203" lon="4.70924">
        <ele>257</ele>
        <time>2018-02-02T11:32:22Z</time>
      </trkpt>
      <trkpt lat="45.9721" lon="4.70915">
        <ele>260</ele>
        <time>2018-02-02T11:32:23Z</time>
      </trkpt>
      <trkpt lat="45.97218" lon="4.70908">
        <ele>259</ele>
        <time>2018-02-02T11:32:24Z</time>
      </trkpt>
      <trkpt lat="45.97224" lon="4.709">
        <ele>259</ele>
        <time>2018-02-02T11:32:25Z</time>
      </trkpt>
      <trkpt lat="45.97231" lon="4.70892">
        <ele>259</ele>
        <time>2018-02-02T11:32:26Z</time>
      </trkpt>
      <trkpt lat="45.97238" lon="4.70883">
        <ele>259</ele>
        <time>2018-02-02T11:32:27Z</time>
      </trkpt>
      <trkpt lat="45.97245" lon="4.70874">
        <ele>259</ele>
        <time>2018-02-02T11:32:28Z</time>
      </trkpt>
      <trkpt lat="45.97251" lon="4.70863">
        <ele>253</ele>
        <time>2018-02-02T11:32:29Z</time>
      </trkpt>
      <trkpt lat="45.97257" lon="4.70854">
        <ele>253</ele>
        <time>2018-02-02T11:32:30Z</time>
      </trkpt>
      <trkpt lat="45.97263" lon="4.70844">
        <ele>254</ele>
        <time>2018-02-02T11:32:31Z</time>
      </trkpt>
      <trkpt lat="45.9727" lon="4.70834">
        <ele>253</ele>
        <time>2018-02-02T11:32:32Z</time>
      </trkpt>
      <trkpt lat="45.97277" lon="4.70824">
        <ele>255</ele>
        <time>2018-02-02T11:32:33Z</time>
      </trkpt>
      <trkpt lat="45.97284" lon="4.70815">
        <ele>254</ele>
        <time>2018-02-02T11:32:34Z</time>
      </trkpt>
      <trkpt lat="45.9729" lon="4.70807">
        <ele>254</ele>
        <time>2018-02-02T11:32:35Z</time>
      </trkpt>
      <trkpt lat="45.97298" lon="4.708">
        <ele>253</ele>
        <time>2018-02-02T11:32:36Z</time>
      </trkpt>
      <trkpt lat="45.97303" lon="4.70793">
        <ele>253</ele>
        <time>2018-02-02T11:32:37Z</time>
      </trkpt>
      <trkpt lat="45.97309" lon="4.70787">
        <ele>253</ele>
        <time>2018-02-02T11:32:38Z</time>
      </trkpt>
      <trkpt lat="45.97315" lon="4.70782">
        <ele>252</ele>
        <time>2018-02-02T11:32:39Z</time>
      </trkpt>
      <trkpt lat="45.97321" lon="4.70776">
        <ele>252</ele>
        <time>2018-02-02T11:32:40Z</time>
      </trkpt>
      <trkpt lat="45.97329" lon="4.70773">
        <ele>251</ele>
        <time>2018-02-02T11:32:41Z</time>
      </trkpt>
      <trkpt lat="45.97336" lon="4.70769">
        <ele>246</ele>
        <time>2018-02-02T11:32:42Z</time>
      </trkpt>
      <trkpt lat="45.97343" lon="4.70763">
        <ele>246</ele>
        <time>2018-02-02T11:32:43Z</time>
      </trkpt>
      <trkpt lat="45.97352" lon="4.7076">
        <ele>246</ele>
        <time>2018-02-02T11:32:44Z</time>
      </trkpt>
      <trkpt lat="45.97361" lon="4.70756">
        <ele>245</ele>
        <time>2018-02-02T11:32:45Z</time>
      </trkpt>
      <trkpt lat="45.97369" lon="4.70752">
        <ele>244</ele>
        <time>2018-02-02T11:32:46Z</time>
      </trkpt>
      <trkpt lat="45.97376" lon="4.70749">
        <ele>244</ele>
        <time>2018-02-02T11:32:47Z</time>
      </trkpt>
      <trkpt lat="45.97384" lon="4.70749">
        <ele>243</ele>
        <time>2018-02-02T11:32:48Z</time>
      </trkpt>
      <trkpt lat="45.9739" lon="4.70748">
        <ele>243</ele>
        <time>2018-02-02T11:32:49Z</time>
      </trkpt>
      <trkpt lat="45.97397" lon="4.70748">
        <ele>242</ele>
        <time>2018-02-02T11:32:50Z</time>
      </trkpt>
      <trkpt lat="45.97405" lon="4.70749">
        <ele>242</ele>
        <time>2018-02-02T11:32:51Z</time>
      </trkpt>
      <trkpt lat="45.97413" lon="4.7075">
        <ele>241</ele>
        <time>2018-02-02T11:32:52Z</time>
      </trkpt>
      <trkpt lat="45.97422" lon="4.70752">
        <ele>239</ele>
        <time>2018-02-02T11:32:53Z</time>
      </trkpt>
      <trkpt lat="45.97429" lon="4.70753">
        <ele>239</ele>
        <time>2018-02-02T11:32:54Z</time>
      </trkpt>
      <trkpt lat="45.97437" lon="4.70754">
        <ele>238</ele>
        <time>2018-02-02T11:32:55Z</time>
      </trkpt>
      <trkpt lat="45.97445" lon="4.70753">
        <ele>238</ele>
        <time>2018-02-02T11:32:56Z</time>
      </trkpt>
      <trkpt lat="45.97453" lon="4.70753">
        <ele>238</ele>
        <time>2018-02-02T11:32:57Z</time>
      </trkpt>
      <trkpt lat="45.97461" lon="4.70752">
        <ele>237</ele>
        <time>2018-02-02T11:32:58Z</time>
      </trkpt>
      <trkpt lat="45.97468" lon="4.70751">
        <ele>237</ele>
        <time>2018-02-02T11:32:59Z</time>
      </trkpt>
      <trkpt lat="45.97474" lon="4.7075">
        <ele>237</ele>
        <time>2018-02-02T11:33:00Z</time>
      </trkpt>
      <trkpt lat="45.97482" lon="4.70747">
        <ele>237</ele>
        <time>2018-02-02T11:33:01Z</time>
      </trkpt>
      <trkpt lat="45.97491" lon="4.70744">
        <ele>237</ele>
        <time>2018-02-02T11:33:02Z</time>
      </trkpt>
      <trkpt lat="45.97499" lon="4.70743">
        <ele>236</ele>
        <time>2018-02-02T11:33:03Z</time>
      </trkpt>
      <trkpt lat="45.97506" lon="4.70741">
        <ele>235</ele>
        <time>2018-02-02T11:33:04Z</time>
      </trkpt>
      <trkpt lat="45.97514" lon="4.70742">
        <ele>235</ele>
        <time>2018-02-02T11:33:06Z</time>
      </trkpt>
      <trkpt lat="45.9752" lon="4.7074">
        <ele>234</ele>
        <time>2018-02-02T11:33:07Z</time>
      </trkpt>
      <trkpt lat="45.97525" lon="4.70737">
        <ele>234</ele>
        <time>2018-02-02T11:33:08Z</time>
      </trkpt>
      <trkpt lat="45.97534" lon="4.70736">
        <ele>234</ele>
        <time>2018-02-02T11:33:09Z</time>
      </trkpt>
      <trkpt lat="45.97542" lon="4.70736">
        <ele>233</ele>
        <time>2018-02-02T11:33:10Z</time>
      </trkpt>
      <trkpt lat="45.9755" lon="4.70733">
        <ele>233</ele>
        <time>2018-02-02T11:33:11Z</time>
      </trkpt>
      <trkpt lat="45.97557" lon="4.70733">
        <ele>233</ele>
        <time>2018-02-02T11:33:12Z</time>
      </trkpt>
      <trkpt lat="45.97564" lon="4.7073">
        <ele>233</ele>
        <time>2018-02-02T11:33:13Z</time>
      </trkpt>
      <trkpt lat="45.97569" lon="4.7073">
        <ele>233</ele>
        <time>2018-02-02T11:33:14Z</time>
      </trkpt>
      <trkpt lat="45.97575" lon="4.70731">
        <ele>232</ele>
        <time>2018-02-02T11:33:15Z</time>
      </trkpt>
      <trkpt lat="45.97586" lon="4.70732">
        <ele>230</ele>
        <time>2018-02-02T11:33:16Z</time>
      </trkpt>
      <trkpt lat="45.97593" lon="4.70733">
        <ele>229</ele>
        <time>2018-02-02T11:33:17Z</time>
      </trkpt>
      <trkpt lat="45.97602" lon="4.70735">
        <ele>229</ele>
        <time>2018-02-02T11:33:18Z</time>
      </trkpt>
      <trkpt lat="45.97612" lon="4.70736">
        <ele>229</ele>
        <time>2018-02-02T11:33:19Z</time>
      </trkpt>
      <trkpt lat="45.9762" lon="4.7074">
        <ele>228</ele>
        <time>2018-02-02T11:33:20Z</time>
      </trkpt>
      <trkpt lat="45.97627" lon="4.70742">
        <ele>228</ele>
        <time>2018-02-02T11:33:21Z</time>
      </trkpt>
      <trkpt lat="45.97634" lon="4.70745">
        <ele>227</ele>
        <time>2018-02-02T11:33:22Z</time>
      </trkpt>
      <trkpt lat="45.97643" lon="4.70748">
        <ele>227</ele>
        <time>2018-02-02T11:33:23Z</time>
      </trkpt>
      <trkpt lat="45.97652" lon="4.70751">
        <ele>226</ele>
        <time>2018-02-02T11:33:24Z</time>
      </trkpt>
      <trkpt lat="45.9766" lon="4.70755">
        <ele>225</ele>
        <time>2018-02-02T11:33:25Z</time>
      </trkpt>
      <trkpt lat="45.97668" lon="4.70758">
        <ele>224</ele>
        <time>2018-02-02T11:33:26Z</time>
      </trkpt>
      <trkpt lat="45.97676" lon="4.70761">
        <ele>223</ele>
        <time>2018-02-02T11:33:27Z</time>
      </trkpt>
      <trkpt lat="45.97684" lon="4.70764">
        <ele>223</ele>
        <time>2018-02-02T11:33:28Z</time>
      </trkpt>
      <trkpt lat="45.97692" lon="4.70767">
        <ele>223</ele>
        <time>2018-02-02T11:33:29Z</time>
      </trkpt>
      <trkpt lat="45.97701" lon="4.7077">
        <ele>223</ele>
        <time>2018-02-02T11:33:30Z</time>
      </trkpt>
      <trkpt lat="45.97708" lon="4.70773">
        <ele>223</ele>
        <time>2018-02-02T11:33:31Z</time>
      </trkpt>
      <trkpt lat="45.97716" lon="4.70776">
        <ele>222</ele>
        <time>2018-02-02T11:33:32Z</time>
      </trkpt>
      <trkpt lat="45.97723" lon="4.70779">
        <ele>222</ele>
        <time>2018-02-02T11:33:33Z</time>
      </trkpt>
      <trkpt lat="45.97731" lon="4.70783">
        <ele>222</ele>
        <time>2018-02-02T11:33:34Z</time>
      </trkpt>
      <trkpt lat="45.97739" lon="4.70785">
        <ele>222</ele>
        <time>2018-02-02T11:33:35Z</time>
      </trkpt>
      <trkpt lat="45.97744" lon="4.70787">
        <ele>222</ele>
        <time>2018-02-02T11:33:36Z</time>
      </trkpt>
      <trkpt lat="45.9775" lon="4.70789">
        <ele>221</ele>
        <time>2018-02-02T11:33:37Z</time>
      </trkpt>
      <trkpt lat="45.97756" lon="4.7079">
        <ele>221</ele>
        <time>2018-02-02T11:33:38Z</time>
      </trkpt>
      <trkpt lat="45.97762" lon="4.70791">
        <ele>221</ele>
        <time>2018-02-02T11:33:39Z</time>
      </trkpt>
      <trkpt lat="45.97768" lon="4.70793">
        <ele>221</ele>
        <time>2018-02-02T11:33:40Z</time>
      </trkpt>
      <trkpt lat="45.97774" lon="4.70795">
        <ele>221</ele>
        <time>2018-02-02T11:33:41Z</time>
      </trkpt>
      <trkpt lat="45.97779" lon="4.70799">
        <ele>221</ele>
        <time>2018-02-02T11:33:42Z</time>
      </trkpt>
      <trkpt lat="45.97784" lon="4.70801">
        <ele>221</ele>
        <time>2018-02-02T11:33:43Z</time>
      </trkpt>
      <trkpt lat="45.97789" lon="4.70806">
        <ele>221</ele>
        <time>2018-02-02T11:33:44Z</time>
      </trkpt>
      <trkpt lat="45.97795" lon="4.70812">
        <ele>221</ele>
        <time>2018-02-02T11:33:45Z</time>
      </trkpt>
      <trkpt lat="45.978" lon="4.70818">
        <ele>221</ele>
        <time>2018-02-02T11:33:46Z</time>
      </trkpt>
      <trkpt lat="45.97803" lon="4.70826">
        <ele>221</ele>
        <time>2018-02-02T11:33:47Z</time>
      </trkpt>
      <trkpt lat="45.97807" lon="4.70834">
        <ele>220</ele>
        <time>2018-02-02T11:33:48Z</time>
      </trkpt>
      <trkpt lat="45.97809" lon="4.70842">
        <ele>220</ele>
        <time>2018-02-02T11:33:49Z</time>
      </trkpt>
      <trkpt lat="45.97811" lon="4.70851">
        <ele>220</ele>
        <time>2018-02-02T11:33:50Z</time>
      </trkpt>
      <trkpt lat="45.97813" lon="4.7086">
        <ele>220</ele>
        <time>2018-02-02T11:33:51Z</time>
      </trkpt>
      <trkpt lat="45.97814" lon="4.70869">
        <ele>220</ele>
        <time>2018-02-02T11:33:52Z</time>
      </trkpt>
      <trkpt lat="45.97816" lon="4.70878">
        <ele>220</ele>
        <time>2018-02-02T11:33:53Z</time>
      </trkpt>
      <trkpt lat="45.97817" lon="4.70888">
        <ele>220</ele>
        <time>2018-02-02T11:33:54Z</time>
      </trkpt>
      <trkpt lat="45.97817" lon="4.70898">
        <ele>220</ele>
        <time>2018-02-02T11:33:55Z</time>
      </trkpt>
      <trkpt lat="45.97817" lon="4.70908">
        <ele>220</ele>
        <time>2018-02-02T11:33:56Z</time>
      </trkpt>
      <trkpt lat="45.97816" lon="4.70916">
        <ele>219</ele>
        <time>2018-02-02T11:33:57Z</time>
      </trkpt>
      <trkpt lat="45.97817" lon="4.70927">
        <ele>219</ele>
        <time>2018-02-02T11:33:58Z</time>
      </trkpt>
      <trkpt lat="45.97819" lon="4.70937">
        <ele>218</ele>
        <time>2018-02-02T11:33:59Z</time>
      </trkpt>
      <trkpt lat="45.97823" lon="4.70947">
        <ele>218</ele>
        <time>2018-02-02T11:34:00Z</time>
      </trkpt>
      <trkpt lat="45.97828" lon="4.70956">
        <ele>218</ele>
        <time>2018-02-02T11:34:01Z</time>
      </trkpt>
      <trkpt lat="45.9783" lon="4.70967">
        <ele>218</ele>
        <time>2018-02-02T11:34:02Z</time>
      </trkpt>
      <trkpt lat="45.97832" lon="4.7098">
        <ele>217</ele>
        <time>2018-02-02T11:34:03Z</time>
      </trkpt>
      <trkpt lat="45.97833" lon="4.70991">
        <ele>217</ele>
        <time>2018-02-02T11:34:04Z</time>
      </trkpt>
      <trkpt lat="45.97835" lon="4.71002">
        <ele>216</ele>
        <time>2018-02-02T11:34:05Z</time>
      </trkpt>
      <trkpt lat="45.97835" lon="4.71013">
        <ele>216</ele>
        <time>2018-02-02T11:34:06Z</time>
      </trkpt>
      <trkpt lat="45.97837" lon="4.71023">
        <ele>216</ele>
        <time>2018-02-02T11:34:07Z</time>
      </trkpt>
      <trkpt lat="45.97838" lon="4.71034">
        <ele>216</ele>
        <time>2018-02-02T11:34:08Z</time>
      </trkpt>
      <trkpt lat="45.97839" lon="4.71043">
        <ele>215</ele>
        <time>2018-02-02T11:34:09Z</time>
      </trkpt>
      <trkpt lat="45.97839" lon="4.7105">
        <ele>215</ele>
        <time>2018-02-02T11:34:10Z</time>
      </trkpt>
      <trkpt lat="45.97839" lon="4.71056">
        <ele>215</ele>
        <time>2018-02-02T11:34:11Z</time>
      </trkpt>
      <trkpt lat="45.9784" lon="4.71069">
        <ele>215</ele>
        <time>2018-02-02T11:34:15Z</time>
      </trkpt>
      <trkpt lat="45.9784" lon="4.71071">
        <ele>215</ele>
        <time>2018-02-02T11:34:16Z</time>
      </trkpt>
      <trkpt lat="45.97844" lon="4.71083">
        <ele>215</ele>
        <time>2018-02-02T11:34:19Z</time>
      </trkpt>
      <trkpt lat="45.97844" lon="4.71088">
        <ele>214</ele>
        <time>2018-02-02T11:34:20Z</time>
      </trkpt>
      <trkpt lat="45.97843" lon="4.71095">
        <ele>213</ele>
        <time>2018-02-02T11:34:21Z</time>
      </trkpt>
      <trkpt lat="45.97843" lon="4.71103">
        <ele>213</ele>
        <time>2018-02-02T11:34:22Z</time>
      </trkpt>
      <trkpt lat="45.97846" lon="4.71109">
        <ele>213</ele>
        <time>2018-02-02T11:34:23Z</time>
      </trkpt>
      <trkpt lat="45.97847" lon="4.71117">
        <ele>213</ele>
        <time>2018-02-02T11:34:24Z</time>
      </trkpt>
      <trkpt lat="45.97848" lon="4.71126">
        <ele>212</ele>
        <time>2018-02-02T11:34:25Z</time>
      </trkpt>
      <trkpt lat="45.97848" lon="4.71134">
        <ele>212</ele>
        <time>2018-02-02T11:34:26Z</time>
      </trkpt>
      <trkpt lat="45.97849" lon="4.71143">
        <ele>212</ele>
        <time>2018-02-02T11:34:27Z</time>
      </trkpt>
      <trkpt lat="45.97851" lon="4.71152">
        <ele>212</ele>
        <time>2018-02-02T11:34:28Z</time>
      </trkpt>
      <trkpt lat="45.97851" lon="4.7116">
        <ele>212</ele>
        <time>2018-02-02T11:34:29Z</time>
      </trkpt>
      <trkpt lat="45.97851" lon="4.71171">
        <ele>210</ele>
        <time>2018-02-02T11:34:30Z</time>
      </trkpt>
      <trkpt lat="45.9785" lon="4.7118">
        <ele>209</ele>
        <time>2018-02-02T11:34:31Z</time>
      </trkpt>
      <trkpt lat="45.9785" lon="4.71191">
        <ele>209</ele>
        <time>2018-02-02T11:34:32Z</time>
      </trkpt>
      <trkpt lat="45.97851" lon="4.71201">
        <ele>209</ele>
        <time>2018-02-02T11:34:33Z</time>
      </trkpt>
      <trkpt lat="45.97851" lon="4.71211">
        <ele>209</ele>
        <time>2018-02-02T11:34:34Z</time>
      </trkpt>
      <trkpt lat="45.97851" lon="4.71222">
        <ele>208</ele>
        <time>2018-02-02T11:34:35Z</time>
      </trkpt>
      <trkpt lat="45.97851" lon="4.71233">
        <ele>208</ele>
        <time>2018-02-02T11:34:36Z</time>
      </trkpt>
      <trkpt lat="45.97853" lon="4.71243">
        <ele>208</ele>
        <time>2018-02-02T11:34:37Z</time>
      </trkpt>
      <trkpt lat="45.97852" lon="4.71254">
        <ele>207</ele>
        <time>2018-02-02T11:34:38Z</time>
      </trkpt>
      <trkpt lat="45.97853" lon="4.71266">
        <ele>206</ele>
        <time>2018-02-02T11:34:39Z</time>
      </trkpt>
      <trkpt lat="45.97852" lon="4.71277">
        <ele>206</ele>
        <time>2018-02-02T11:34:40Z</time>
      </trkpt>
      <trkpt lat="45.97852" lon="4.71288">
        <ele>206</ele>
        <time>2018-02-02T11:34:41Z</time>
      </trkpt>
      <trkpt lat="45.97851" lon="4.71299">
        <ele>206</ele>
        <time>2018-02-02T11:34:42Z</time>
      </trkpt>
      <trkpt lat="45.97851" lon="4.7131">
        <ele>205</ele>
        <time>2018-02-02T11:34:43Z</time>
      </trkpt>
      <trkpt lat="45.9785" lon="4.71321">
        <ele>205</ele>
        <time>2018-02-02T11:34:44Z</time>
      </trkpt>
      <trkpt lat="45.9785" lon="4.71332">
        <ele>205</ele>
        <time>2018-02-02T11:34:45Z</time>
      </trkpt>
      <trkpt lat="45.97853" lon="4.71345">
        <ele>204</ele>
        <time>2018-02-02T11:34:46Z</time>
      </trkpt>
      <trkpt lat="45.97855" lon="4.71355">
        <ele>204</ele>
        <time>2018-02-02T11:34:47Z</time>
      </trkpt>
      <trkpt lat="45.97856" lon="4.71367">
        <ele>203</ele>
        <time>2018-02-02T11:34:48Z</time>
      </trkpt>
      <trkpt lat="45.97854" lon="4.7138">
        <ele>203</ele>
        <time>2018-02-02T11:34:49Z</time>
      </trkpt>
      <trkpt lat="45.97855" lon="4.71391">
        <ele>203</ele>
        <time>2018-02-02T11:34:50Z</time>
      </trkpt>
      <trkpt lat="45.97856" lon="4.71402">
        <ele>203</ele>
        <time>2018-02-02T11:34:51Z</time>
      </trkpt>
      <trkpt lat="45.97858" lon="4.71412">
        <ele>203</ele>
        <time>2018-02-02T11:34:52Z</time>
      </trkpt>
      <trkpt lat="45.97859" lon="4.71422">
        <ele>201</ele>
        <time>2018-02-02T11:34:53Z</time>
      </trkpt>
      <trkpt lat="45.9786" lon="4.71433">
        <ele>201</ele>
        <time>2018-02-02T11:34:54Z</time>
      </trkpt>
      <trkpt lat="45.97862" lon="4.71445">
        <ele>201</ele>
        <time>2018-02-02T11:34:55Z</time>
      </trkpt>
      <trkpt lat="45.97863" lon="4.71456">
        <ele>201</ele>
        <time>2018-02-02T11:34:56Z</time>
      </trkpt>
      <trkpt lat="45.97865" lon="4.71468">
        <ele>201</ele>
        <time>2018-02-02T11:34:57Z</time>
      </trkpt>
      <trkpt lat="45.97866" lon="4.71479">
        <ele>201</ele>
        <time>2018-02-02T11:34:58Z</time>
      </trkpt>
      <trkpt lat="45.97869" lon="4.7149">
        <ele>201</ele>
        <time>2018-02-02T11:34:59Z</time>
      </trkpt>
      <trkpt lat="45.97871" lon="4.715">
        <ele>201</ele>
        <time>2018-02-02T11:35:00Z</time>
      </trkpt>
      <trkpt lat="45.97873" lon="4.71511">
        <ele>199</ele>
        <time>2018-02-02T11:35:01Z</time>
      </trkpt>
      <trkpt lat="45.97874" lon="4.71522">
        <ele>199</ele>
        <time>2018-02-02T11:35:02Z</time>
      </trkpt>
      <trkpt lat="45.97876" lon="4.71533">
        <ele>199</ele>
        <time>2018-02-02T11:35:03Z</time>
      </trkpt>
      <trkpt lat="45.97878" lon="4.71544">
        <ele>199</ele>
        <time>2018-02-02T11:35:04Z</time>
      </trkpt>
      <trkpt lat="45.97879" lon="4.71555">
        <ele>198</ele>
        <time>2018-02-02T11:35:05Z</time>
      </trkpt>
      <trkpt lat="45.9788" lon="4.71566">
        <ele>198</ele>
        <time>2018-02-02T11:35:06Z</time>
      </trkpt>
      <trkpt lat="45.97881" lon="4.71577">
        <ele>198</ele>
        <time>2018-02-02T11:35:07Z</time>
      </trkpt>
      <trkpt lat="45.97882" lon="4.71587">
        <ele>197</ele>
        <time>2018-02-02T11:35:08Z</time>
      </trkpt>
      <trkpt lat="45.97883" lon="4.71596">
        <ele>197</ele>
        <time>2018-02-02T11:35:09Z</time>
      </trkpt>
      <trkpt lat="45.97884" lon="4.71607">
        <ele>197</ele>
        <time>2018-02-02T11:35:10Z</time>
      </trkpt>
      <trkpt lat="45.97883" lon="4.71618">
        <ele>197</ele>
        <time>2018-02-02T11:35:11Z</time>
      </trkpt>
      <trkpt lat="45.97885" lon="4.71627">
        <ele>197</ele>
        <time>2018-02-02T11:35:12Z</time>
      </trkpt>
      <trkpt lat="45.97885" lon="4.71637">
        <ele>197</ele>
        <time>2018-02-02T11:35:13Z</time>
      </trkpt>
      <trkpt lat="45.97884" lon="4.71645">
        <ele>197</ele>
        <time>2018-02-02T11:35:14Z</time>
      </trkpt>
      <trkpt lat="45.9788" lon="4.71654">
        <ele>197</ele>
        <time>2018-02-02T11:35:15Z</time>
      </trkpt>
      <trkpt lat="45.97877" lon="4.71661">
        <ele>197</ele>
        <time>2018-02-02T11:35:16Z</time>
      </trkpt>
      <trkpt lat="45.97875" lon="4.71668">
        <ele>196</ele>
        <time>2018-02-02T11:35:17Z</time>
      </trkpt>
      <trkpt lat="45.97872" lon="4.71674">
        <ele>196</ele>
        <time>2018-02-02T11:35:18Z</time>
      </trkpt>
      <trkpt lat="45.9787" lon="4.71686">
        <ele>196</ele>
        <time>2018-02-02T11:35:20Z</time>
      </trkpt>
      <trkpt lat="45.97869" lon="4.71691">
        <ele>196</ele>
        <time>2018-02-02T11:35:21Z</time>
      </trkpt>
      <trkpt lat="45.97866" lon="4.71703">
        <ele>196</ele>
        <time>2018-02-02T11:35:23Z</time>
      </trkpt>
      <trkpt lat="45.97864" lon="4.71706">
        <ele>196</ele>
        <time>2018-02-02T11:35:24Z</time>
      </trkpt>
      <trkpt lat="45.9786" lon="4.71717">
        <ele>196</ele>
        <time>2018-02-02T11:35:26Z</time>
      </trkpt>
      <trkpt lat="45.97857" lon="4.71722">
        <ele>196</ele>
        <time>2018-02-02T11:35:27Z</time>
      </trkpt>
      <trkpt lat="45.97853" lon="4.71733">
        <ele>196</ele>
        <time>2018-02-02T11:35:29Z</time>
      </trkpt>
      <trkpt lat="45.97848" lon="4.71738">
        <ele>196</ele>
        <time>2018-02-02T11:35:30Z</time>
      </trkpt>
      <trkpt lat="45.97844" lon="4.7174">
        <ele>195</ele>
        <time>2018-02-02T11:35:31Z</time>
      </trkpt>
      <trkpt lat="45.97839" lon="4.71743">
        <ele>195</ele>
        <time>2018-02-02T11:35:32Z</time>
      </trkpt>
      <trkpt lat="45.97833" lon="4.71742">
        <ele>195</ele>
        <time>2018-02-02T11:35:33Z</time>
      </trkpt>
      <trkpt lat="45.97828" lon="4.71741">
        <ele>196</ele>
        <time>2018-02-02T11:35:34Z</time>
      </trkpt>
      <trkpt lat="45.97823" lon="4.71741">
        <ele>196</ele>
        <time>2018-02-02T11:35:35Z</time>
      </trkpt>
      <trkpt lat="45.97817" lon="4.7174">
        <ele>196</ele>
        <time>2018-02-02T11:35:36Z</time>
      </trkpt>
      <trkpt lat="45.97811" lon="4.7174">
        <ele>196</ele>
        <time>2018-02-02T11:35:37Z</time>
      </trkpt>
      <trkpt lat="45.97806" lon="4.71739">
        <ele>196</ele>
        <time>2018-02-02T11:35:38Z</time>
      </trkpt>
      <trkpt lat="45.97799" lon="4.71739">
        <ele>196</ele>
        <time>2018-02-02T11:35:39Z</time>
      </trkpt>
      <trkpt lat="45.97794" lon="4.71738">
        <ele>196</ele>
        <time>2018-02-02T11:35:40Z</time>
      </trkpt>
      <trkpt lat="45.97788" lon="4.71737">
        <ele>196</ele>
        <time>2018-02-02T11:35:41Z</time>
      </trkpt>
      <trkpt lat="45.97783" lon="4.71737">
        <ele>196</ele>
        <time>2018-02-02T11:35:42Z</time>
      </trkpt>
      <trkpt lat="45.97778" lon="4.71736">
        <ele>196</ele>
        <time>2018-02-02T11:35:43Z</time>
      </trkpt>
      <trkpt lat="45.97774" lon="4.71734">
        <ele>196</ele>
        <time>2018-02-02T11:35:44Z</time>
      </trkpt>
      <trkpt lat="45.97769" lon="4.71733">
        <ele>196</ele>
        <time>2018-02-02T11:35:45Z</time>
      </trkpt>
      <trkpt lat="45.97764" lon="4.71732">
        <ele>196</ele>
        <time>2018-02-02T11:35:46Z</time>
      </trkpt>
      <trkpt lat="45.97761" lon="4.7173">
        <ele>196</ele>
        <time>2018-02-02T11:35:47Z</time>
      </trkpt>
      <trkpt lat="45.97754" lon="4.7173">
        <ele>196</ele>
        <time>2018-02-02T11:35:48Z</time>
      </trkpt>
      <trkpt lat="45.97747" lon="4.71729">
        <ele>196</ele>
        <time>2018-02-02T11:35:50Z</time>
      </trkpt>
      <trkpt lat="45.97742" lon="4.71728">
        <ele>196</ele>
        <time>2018-02-02T11:35:51Z</time>
      </trkpt>
      <trkpt lat="45.97738" lon="4.71728">
        <ele>196</ele>
        <time>2018-02-02T11:35:52Z</time>
      </trkpt>
      <trkpt lat="45.97732" lon="4.71727">
        <ele>196</ele>
        <time>2018-02-02T11:35:53Z</time>
      </trkpt>
      <trkpt lat="45.97726" lon="4.71728">
        <ele>196</ele>
        <time>2018-02-02T11:35:54Z</time>
      </trkpt>
      <trkpt lat="45.97721" lon="4.71728">
        <ele>196</ele>
        <time>2018-02-02T11:35:55Z</time>
      </trkpt>
      <trkpt lat="45.97715" lon="4.71728">
        <ele>196</ele>
        <time>2018-02-02T11:35:56Z</time>
      </trkpt>
      <trkpt lat="45.9771" lon="4.71728">
        <ele>196</ele>
        <time>2018-02-02T11:35:57Z</time>
      </trkpt>
      <trkpt lat="45.97705" lon="4.71728">
        <ele>196</ele>
        <time>2018-02-02T11:35:58Z</time>
      </trkpt>
      <trkpt lat="45.97701" lon="4.71727">
        <ele>196</ele>
        <time>2018-02-02T11:35:59Z</time>
      </trkpt>
      <trkpt lat="45.97695" lon="4.71726">
        <ele>196</ele>
        <time>2018-02-02T11:36:00Z</time>
      </trkpt>
      <trkpt lat="45.9769" lon="4.71725">
        <ele>196</ele>
        <time>2018-02-02T11:36:01Z</time>
      </trkpt>
      <trkpt lat="45.97684" lon="4.71725">
        <ele>196</ele>
        <time>2018-02-02T11:36:02Z</time>
      </trkpt>
      <trkpt lat="45.97677" lon="4.71725">
        <ele>196</ele>
        <time>2018-02-02T11:36:03Z</time>
      </trkpt>
      <trkpt lat="45.9767" lon="4.71724">
        <ele>196</ele>
        <time>2018-02-02T11:36:04Z</time>
      </trkpt>
      <trkpt lat="45.97667" lon="4.71724">
        <ele>196</ele>
        <time>2018-02-02T11:36:05Z</time>
      </trkpt>
      <trkpt lat="45.97661" lon="4.71724">
        <ele>196</ele>
        <time>2018-02-02T11:36:06Z</time>
      </trkpt>
      <trkpt lat="45.97655" lon="4.71724">
        <ele>196</ele>
        <time>2018-02-02T11:36:07Z</time>
      </trkpt>
      <trkpt lat="45.97649" lon="4.71723">
        <ele>196</ele>
        <time>2018-02-02T11:36:08Z</time>
      </trkpt>
      <trkpt lat="45.97643" lon="4.71721">
        <ele>196</ele>
        <time>2018-02-02T11:36:09Z</time>
      </trkpt>
      <trkpt lat="45.97638" lon="4.71719">
        <ele>197</ele>
        <time>2018-02-02T11:36:10Z</time>
      </trkpt>
      <trkpt lat="45.97632" lon="4.71716">
        <ele>197</ele>
        <time>2018-02-02T11:36:11Z</time>
      </trkpt>
      <trkpt lat="45.97626" lon="4.71708">
        <ele>197</ele>
        <time>2018-02-02T11:36:13Z</time>
      </trkpt>
      <trkpt lat="45.97622" lon="4.71706">
        <ele>197</ele>
        <time>2018-02-02T11:36:14Z</time>
      </trkpt>
      <trkpt lat="45.97614" lon="4.71707">
        <ele>197</ele>
        <time>2018-02-02T11:36:16Z</time>
      </trkpt>
      <trkpt lat="45.97609" lon="4.7171">
        <ele>197</ele>
        <time>2018-02-02T11:36:17Z</time>
      </trkpt>
      <trkpt lat="45.97604" lon="4.71713">
        <ele>197</ele>
        <time>2018-02-02T11:36:18Z</time>
      </trkpt>
      <trkpt lat="45.97599" lon="4.71716">
        <ele>197</ele>
        <time>2018-02-02T11:36:19Z</time>
      </trkpt>
      <trkpt lat="45.97593" lon="4.71717">
        <ele>197</ele>
        <time>2018-02-02T11:36:20Z</time>
      </trkpt>
      <trkpt lat="45.97589" lon="4.71718">
        <ele>197</ele>
        <time>2018-02-02T11:36:21Z</time>
      </trkpt>
      <trkpt lat="45.97584" lon="4.71718">
        <ele>197</ele>
        <time>2018-02-02T11:36:22Z</time>
      </trkpt>
      <trkpt lat="45.97578" lon="4.71717">
        <ele>198</ele>
        <time>2018-02-02T11:36:23Z</time>
      </trkpt>
      <trkpt lat="45.97569" lon="4.71718">
        <ele>198</ele>
        <time>2018-02-02T11:36:24Z</time>
      </trkpt>
      <trkpt lat="45.97564" lon="4.71717">
        <ele>198</ele>
        <time>2018-02-02T11:36:25Z</time>
      </trkpt>
      <trkpt lat="45.97558" lon="4.71717">
        <ele>198</ele>
        <time>2018-02-02T11:36:26Z</time>
      </trkpt>
      <trkpt lat="45.97552" lon="4.71716">
        <ele>198</ele>
        <time>2018-02-02T11:36:27Z</time>
      </trkpt>
      <trkpt lat="45.97548" lon="4.71715">
        <ele>198</ele>
        <time>2018-02-02T11:36:28Z</time>
      </trkpt>
      <trkpt lat="45.97541" lon="4.71714">
        <ele>198</ele>
        <time>2018-02-02T11:36:29Z</time>
      </trkpt>
      <trkpt lat="45.97535" lon="4.71714">
        <ele>198</ele>
        <time>2018-02-02T11:36:30Z</time>
      </trkpt>
      <trkpt lat="45.97529" lon="4.71713">
        <ele>198</ele>
        <time>2018-02-02T11:36:31Z</time>
      </trkpt>
      <trkpt lat="45.97524" lon="4.71713">
        <ele>198</ele>
        <time>2018-02-02T11:36:32Z</time>
      </trkpt>
      <trkpt lat="45.97517" lon="4.71713">
        <ele>199</ele>
        <time>2018-02-02T11:36:33Z</time>
      </trkpt>
      <trkpt lat="45.97511" lon="4.71713">
        <ele>199</ele>
        <time>2018-02-02T11:36:34Z</time>
      </trkpt>
      <trkpt lat="45.97504" lon="4.71714">
        <ele>199</ele>
        <time>2018-02-02T11:36:35Z</time>
      </trkpt>
      <trkpt lat="45.97499" lon="4.71715">
        <ele>198</ele>
        <time>2018-02-02T11:36:36Z</time>
      </trkpt>
      <trkpt lat="45.97494" lon="4.71714">
        <ele>198</ele>
        <time>2018-02-02T11:36:37Z</time>
      </trkpt>
      <trkpt lat="45.97489" lon="4.71713">
        <ele>198</ele>
        <time>2018-02-02T11:36:38Z</time>
      </trkpt>
      <trkpt lat="45.97484" lon="4.71713">
        <ele>198</ele>
        <time>2018-02-02T11:36:39Z</time>
      </trkpt>
      <trkpt lat="45.97479" lon="4.71712">
        <ele>198</ele>
        <time>2018-02-02T11:36:40Z</time>
      </trkpt>
      <trkpt lat="45.97473" lon="4.71711">
        <ele>198</ele>
        <time>2018-02-02T11:36:41Z</time>
      </trkpt>
      <trkpt lat="45.97469" lon="4.7171">
        <ele>197</ele>
        <time>2018-02-02T11:36:42Z</time>
      </trkpt>
      <trkpt lat="45.97463" lon="4.7171">
        <ele>197</ele>
        <time>2018-02-02T11:36:43Z</time>
      </trkpt>
      <trkpt lat="45.97457" lon="4.71709">
        <ele>197</ele>
        <time>2018-02-02T11:36:44Z</time>
      </trkpt>
      <trkpt lat="45.97452" lon="4.71708">
        <ele>197</ele>
        <time>2018-02-02T11:36:45Z</time>
      </trkpt>
      <trkpt lat="45.97447" lon="4.71708">
        <ele>197</ele>
        <time>2018-02-02T11:36:46Z</time>
      </trkpt>
      <trkpt lat="45.97441" lon="4.71707">
        <ele>197</ele>
        <time>2018-02-02T11:36:47Z</time>
      </trkpt>
      <trkpt lat="45.97435" lon="4.71707">
        <ele>197</ele>
        <time>2018-02-02T11:36:48Z</time>
      </trkpt>
      <trkpt lat="45.9743" lon="4.71707">
        <ele>197</ele>
        <time>2018-02-02T11:36:49Z</time>
      </trkpt>
      <trkpt lat="45.97425" lon="4.71707">
        <ele>197</ele>
        <time>2018-02-02T11:36:50Z</time>
      </trkpt>
      <trkpt lat="45.97419" lon="4.71707">
        <ele>196</ele>
        <time>2018-02-02T11:36:51Z</time>
      </trkpt>
      <trkpt lat="45.97413" lon="4.71706">
        <ele>195</ele>
        <time>2018-02-02T11:36:52Z</time>
      </trkpt>
      <trkpt lat="45.97407" lon="4.71706">
        <ele>195</ele>
        <time>2018-02-02T11:36:53Z</time>
      </trkpt>
      <trkpt lat="45.97401" lon="4.71705">
        <ele>195</ele>
        <time>2018-02-02T11:36:54Z</time>
      </trkpt>
      <trkpt lat="45.97397" lon="4.71704">
        <ele>195</ele>
        <time>2018-02-02T11:36:55Z</time>
      </trkpt>
      <trkpt lat="45.97391" lon="4.71704">
        <ele>195</ele>
        <time>2018-02-02T11:36:56Z</time>
      </trkpt>
      <trkpt lat="45.97385" lon="4.71705">
        <ele>195</ele>
        <time>2018-02-02T11:36:57Z</time>
      </trkpt>
      <trkpt lat="45.9738" lon="4.71704">
        <ele>195</ele>
        <time>2018-02-02T11:36:58Z</time>
      </trkpt>
      <trkpt lat="45.97376" lon="4.71703">
        <ele>195</ele>
        <time>2018-02-02T11:36:59Z</time>
      </trkpt>
      <trkpt lat="45.97371" lon="4.71702">
        <ele>195</ele>
        <time>2018-02-02T11:37:00Z</time>
      </trkpt>
      <trkpt lat="45.97366" lon="4.71701">
        <ele>195</ele>
        <time>2018-02-02T11:37:01Z</time>
      </trkpt>
      <trkpt lat="45.97359" lon="4.717">
        <ele>195</ele>
        <time>2018-02-02T11:37:02Z</time>
      </trkpt>
      <trkpt lat="45.97355" lon="4.717">
        <ele>196</ele>
        <time>2018-02-02T11:37:03Z</time>
      </trkpt>
      <trkpt lat="45.97348" lon="4.717">
        <ele>196</ele>
        <time>2018-02-02T11:37:04Z</time>
      </trkpt>
      <trkpt lat="45.97342" lon="4.717">
        <ele>196</ele>
        <time>2018-02-02T11:37:05Z</time>
      </trkpt>
      <trkpt lat="45.97333" lon="4.717">
        <ele>196</ele>
        <time>2018-02-02T11:37:07Z</time>
      </trkpt>
      <trkpt lat="45.9733" lon="4.71699">
        <ele>196</ele>
        <time>2018-02-02T11:37:08Z</time>
      </trkpt>
      <trkpt lat="45.97321" lon="4.71695">
        <ele>196</ele>
        <time>2018-02-02T11:37:10Z</time>
      </trkpt>
      <trkpt lat="45.97317" lon="4.71692">
        <ele>196</ele>
        <time>2018-02-02T11:37:11Z</time>
      </trkpt>
      <trkpt lat="45.97313" lon="4.71689">
        <ele>196</ele>
        <time>2018-02-02T11:37:12Z</time>
      </trkpt>
      <trkpt lat="45.97307" lon="4.71688">
        <ele>197</ele>
        <time>2018-02-02T11:37:13Z</time>
      </trkpt>
      <trkpt lat="45.97302" lon="4.71689">
        <ele>197</ele>
        <time>2018-02-02T11:37:14Z</time>
      </trkpt>
      <trkpt lat="45.97298" lon="4.7169">
        <ele>197</ele>
        <time>2018-02-02T11:37:15Z</time>
      </trkpt>
      <trkpt lat="45.97293" lon="4.71692">
        <ele>197</ele>
        <time>2018-02-02T11:37:16Z</time>
      </trkpt>
      <trkpt lat="45.97288" lon="4.71694">
        <ele>197</ele>
        <time>2018-02-02T11:37:17Z</time>
      </trkpt>
      <trkpt lat="45.97282" lon="4.71692">
        <ele>197</ele>
        <time>2018-02-02T11:37:19Z</time>
      </trkpt>
      <trkpt lat="45.97276" lon="4.71692">
        <ele>197</ele>
        <time>2018-02-02T11:37:20Z</time>
      </trkpt>
      <trkpt lat="45.97271" lon="4.71692">
        <ele>197</ele>
        <time>2018-02-02T11:37:21Z</time>
      </trkpt>
      <trkpt lat="45.97266" lon="4.71694">
        <ele>197</ele>
        <time>2018-02-02T11:37:22Z</time>
      </trkpt>
      <trkpt lat="45.97258" lon="4.71693">
        <ele>197</ele>
        <time>2018-02-02T11:37:23Z</time>
      </trkpt>
      <trkpt lat="45.97253" lon="4.71692">
        <ele>197</ele>
        <time>2018-02-02T11:37:24Z</time>
      </trkpt>
      <trkpt lat="45.97247" lon="4.71692">
        <ele>197</ele>
        <time>2018-02-02T11:37:25Z</time>
      </trkpt>
      <trkpt lat="45.97241" lon="4.71692">
        <ele>197</ele>
        <time>2018-02-02T11:37:26Z</time>
      </trkpt>
      <trkpt lat="45.97233" lon="4.7169">
        <ele>197</ele>
        <time>2018-02-02T11:37:27Z</time>
      </trkpt>
      <trkpt lat="45.97226" lon="4.7169">
        <ele>197</ele>
        <time>2018-02-02T11:37:28Z</time>
      </trkpt>
      <trkpt lat="45.97221" lon="4.71689">
        <ele>197</ele>
        <time>2018-02-02T11:37:29Z</time>
      </trkpt>
      <trkpt lat="45.97215" lon="4.71689">
        <ele>197</ele>
        <time>2018-02-02T11:37:30Z</time>
      </trkpt>
      <trkpt lat="45.97209" lon="4.71689">
        <ele>197</ele>
        <time>2018-02-02T11:37:31Z</time>
      </trkpt>
      <trkpt lat="45.97203" lon="4.71689">
        <ele>197</ele>
        <time>2018-02-02T11:37:32Z</time>
      </trkpt>
      <trkpt lat="45.97197" lon="4.71689">
        <ele>197</ele>
        <time>2018-02-02T11:37:33Z</time>
      </trkpt>
      <trkpt lat="45.9719" lon="4.71691">
        <ele>197</ele>
        <time>2018-02-02T11:37:34Z</time>
      </trkpt>
      <trkpt lat="45.97184" lon="4.7169">
        <ele>197</ele>
        <time>2018-02-02T11:37:35Z</time>
      </trkpt>
      <trkpt lat="45.97178" lon="4.7169">
        <ele>197</ele>
        <time>2018-02-02T11:37:36Z</time>
      </trkpt>
      <trkpt lat="45.97172" lon="4.7169">
        <ele>197</ele>
        <time>2018-02-02T11:37:37Z</time>
      </trkpt>
      <trkpt lat="45.97165" lon="4.71689">
        <ele>196</ele>
        <time>2018-02-02T11:37:38Z</time>
      </trkpt>
      <trkpt lat="45.97159" lon="4.71687">
        <ele>196</ele>
        <time>2018-02-02T11:37:39Z</time>
      </trkpt>
      <trkpt lat="45.97152" lon="4.71686">
        <ele>195</ele>
        <time>2018-02-02T11:37:40Z</time>
      </trkpt>
      <trkpt lat="45.97146" lon="4.71686">
        <ele>195</ele>
        <time>2018-02-02T11:37:41Z</time>
      </trkpt>
      <trkpt lat="45.97141" lon="4.71686">
        <ele>195</ele>
        <time>2018-02-02T11:37:42Z</time>
      </trkpt>
      <trkpt lat="45.97134" lon="4.71685">
        <ele>195</ele>
        <time>2018-02-02T11:37:43Z</time>
      </trkpt>
      <trkpt lat="45.97127" lon="4.71686">
        <ele>195</ele>
        <time>2018-02-02T11:37:44Z</time>
      </trkpt>
      <trkpt lat="45.97123" lon="4.71687">
        <ele>195</ele>
        <time>2018-02-02T11:37:45Z</time>
      </trkpt>
      <trkpt lat="45.97116" lon="4.71686">
        <ele>194</ele>
        <time>2018-02-02T11:37:46Z</time>
      </trkpt>
      <trkpt lat="45.9711" lon="4.71686">
        <ele>194</ele>
        <time>2018-02-02T11:37:47Z</time>
      </trkpt>
      <trkpt lat="45.97103" lon="4.71685">
        <ele>194</ele>
        <time>2018-02-02T11:37:48Z</time>
      </trkpt>
      <trkpt lat="45.97098" lon="4.71685">
        <ele>194</ele>
        <time>2018-02-02T11:37:49Z</time>
      </trkpt>
      <trkpt lat="45.97091" lon="4.71683">
        <ele>194</ele>
        <time>2018-02-02T11:37:50Z</time>
      </trkpt>
      <trkpt lat="45.97084" lon="4.71683">
        <ele>194</ele>
        <time>2018-02-02T11:37:51Z</time>
      </trkpt>
      <trkpt lat="45.97078" lon="4.71682">
        <ele>194</ele>
        <time>2018-02-02T11:37:52Z</time>
      </trkpt>
      <trkpt lat="45.97071" lon="4.71681">
        <ele>193</ele>
        <time>2018-02-02T11:37:53Z</time>
      </trkpt>
      <trkpt lat="45.97065" lon="4.71679">
        <ele>193</ele>
        <time>2018-02-02T11:37:54Z</time>
      </trkpt>
      <trkpt lat="45.97059" lon="4.71678">
        <ele>193</ele>
        <time>2018-02-02T11:37:55Z</time>
      </trkpt>
      <trkpt lat="45.97053" lon="4.71677">
        <ele>193</ele>
        <time>2018-02-02T11:37:56Z</time>
      </trkpt>
      <trkpt lat="45.97047" lon="4.71677">
        <ele>193</ele>
        <time>2018-02-02T11:37:57Z</time>
      </trkpt>
      <trkpt lat="45.97041" lon="4.71677">
        <ele>193</ele>
        <time>2018-02-02T11:37:58Z</time>
      </trkpt>
      <trkpt lat="45.97035" lon="4.71677">
        <ele>193</ele>
        <time>2018-02-02T11:37:59Z</time>
      </trkpt>
      <trkpt lat="45.97029" lon="4.71677">
        <ele>193</ele>
        <time>2018-02-02T11:38:00Z</time>
      </trkpt>
      <trkpt lat="45.97024" lon="4.71675">
        <ele>193</ele>
        <time>2018-02-02T11:38:01Z</time>
      </trkpt>
      <trkpt lat="45.97016" lon="4.71676">
        <ele>193</ele>
        <time>2018-02-02T11:38:02Z</time>
      </trkpt>
      <trkpt lat="45.9701" lon="4.71675">
        <ele>193</ele>
        <time>2018-02-02T11:38:03Z</time>
      </trkpt>
      <trkpt lat="45.97004" lon="4.71673">
        <ele>193</ele>
        <time>2018-02-02T11:38:04Z</time>
      </trkpt>
      <trkpt lat="45.96998" lon="4.71672">
        <ele>193</ele>
        <time>2018-02-02T11:38:05Z</time>
      </trkpt>
      <trkpt lat="45.96991" lon="4.71673">
        <ele>193</ele>
        <time>2018-02-02T11:38:06Z</time>
      </trkpt>
      <trkpt lat="45.96984" lon="4.71671">
        <ele>193</ele>
        <time>2018-02-02T11:38:07Z</time>
      </trkpt>
      <trkpt lat="45.96978" lon="4.71671">
        <ele>192</ele>
        <time>2018-02-02T11:38:08Z</time>
      </trkpt>
      <trkpt lat="45.96971" lon="4.71671">
        <ele>192</ele>
        <time>2018-02-02T11:38:09Z</time>
      </trkpt>
      <trkpt lat="45.96965" lon="4.7167">
        <ele>192</ele>
        <time>2018-02-02T11:38:10Z</time>
      </trkpt>
      <trkpt lat="45.96957" lon="4.71669">
        <ele>192</ele>
        <time>2018-02-02T11:38:12Z</time>
      </trkpt>
      <trkpt lat="45.96952" lon="4.71666">
        <ele>195</ele>
        <time>2018-02-02T11:38:13Z</time>
      </trkpt>
      <trkpt lat="45.96945" lon="4.71665">
        <ele>195</ele>
        <time>2018-02-02T11:38:14Z</time>
      </trkpt>
      <trkpt lat="45.96939" lon="4.71664">
        <ele>195</ele>
        <time>2018-02-02T11:38:15Z</time>
      </trkpt>
      <trkpt lat="45.96932" lon="4.71664">
        <ele>195</ele>
        <time>2018-02-02T11:38:16Z</time>
      </trkpt>
      <trkpt lat="45.96925" lon="4.71664">
        <ele>195</ele>
        <time>2018-02-02T11:38:17Z</time>
      </trkpt>
      <trkpt lat="45.96917" lon="4.71663">
        <ele>195</ele>
        <time>2018-02-02T11:38:18Z</time>
      </trkpt>
      <trkpt lat="45.9691" lon="4.71663">
        <ele>195</ele>
        <time>2018-02-02T11:38:19Z</time>
      </trkpt>
      <trkpt lat="45.96904" lon="4.71662">
        <ele>195</ele>
        <time>2018-02-02T11:38:20Z</time>
      </trkpt>
      <trkpt lat="45.96898" lon="4.71662">
        <ele>195</ele>
        <time>2018-02-02T11:38:21Z</time>
      </trkpt>
      <trkpt lat="45.96889" lon="4.71663">
        <ele>195</ele>
        <time>2018-02-02T11:38:22Z</time>
      </trkpt>
      <trkpt lat="45.96882" lon="4.71661">
        <ele>195</ele>
        <time>2018-02-02T11:38:23Z</time>
      </trkpt>
      <trkpt lat="45.96878" lon="4.71658">
        <ele>195</ele>
        <time>2018-02-02T11:38:24Z</time>
      </trkpt>
      <trkpt lat="45.96872" lon="4.71657">
        <ele>195</ele>
        <time>2018-02-02T11:38:25Z</time>
      </trkpt>
      <trkpt lat="45.96865" lon="4.71656">
        <ele>195</ele>
        <time>2018-02-02T11:38:26Z</time>
      </trkpt>
      <trkpt lat="45.96857" lon="4.71655">
        <ele>194</ele>
        <time>2018-02-02T11:38:27Z</time>
      </trkpt>
      <trkpt lat="45.9685" lon="4.71655">
        <ele>194</ele>
        <time>2018-02-02T11:38:28Z</time>
      </trkpt>
      <trkpt lat="45.96843" lon="4.71655">
        <ele>194</ele>
        <time>2018-02-02T11:38:29Z</time>
      </trkpt>
      <trkpt lat="45.96835" lon="4.71654">
        <ele>194</ele>
        <time>2018-02-02T11:38:30Z</time>
      </trkpt>
      <trkpt lat="45.96829" lon="4.71653">
        <ele>193</ele>
        <time>2018-02-02T11:38:31Z</time>
      </trkpt>
      <trkpt lat="45.96823" lon="4.71652">
        <ele>193</ele>
        <time>2018-02-02T11:38:32Z</time>
      </trkpt>
      <trkpt lat="45.96816" lon="4.71651">
        <ele>193</ele>
        <time>2018-02-02T11:38:33Z</time>
      </trkpt>
      <trkpt lat="45.96809" lon="4.71651">
        <ele>193</ele>
        <time>2018-02-02T11:38:34Z</time>
      </trkpt>
      <trkpt lat="45.96802" lon="4.71649">
        <ele>193</ele>
        <time>2018-02-02T11:38:35Z</time>
      </trkpt>
      <trkpt lat="45.96795" lon="4.71649">
        <ele>193</ele>
        <time>2018-02-02T11:38:36Z</time>
      </trkpt>
      <trkpt lat="45.96786" lon="4.71649">
        <ele>192</ele>
        <time>2018-02-02T11:38:37Z</time>
      </trkpt>
      <trkpt lat="45.96779" lon="4.71648">
        <ele>192</ele>
        <time>2018-02-02T11:38:38Z</time>
      </trkpt>
      <trkpt lat="45.96772" lon="4.71647">
        <ele>192</ele>
        <time>2018-02-02T11:38:39Z</time>
      </trkpt>
      <trkpt lat="45.96766" lon="4.71647">
        <ele>192</ele>
        <time>2018-02-02T11:38:40Z</time>
      </trkpt>
      <trkpt lat="45.96759" lon="4.71645">
        <ele>192</ele>
        <time>2018-02-02T11:38:41Z</time>
      </trkpt>
      <trkpt lat="45.96752" lon="4.71645">
        <ele>191</ele>
        <time>2018-02-02T11:38:42Z</time>
      </trkpt>
      <trkpt lat="45.96745" lon="4.71644">
        <ele>190</ele>
        <time>2018-02-02T11:38:43Z</time>
      </trkpt>
      <trkpt lat="45.96738" lon="4.71642">
        <ele>190</ele>
        <time>2018-02-02T11:38:44Z</time>
      </trkpt>
      <trkpt lat="45.96731" lon="4.71641">
        <ele>190</ele>
        <time>2018-02-02T11:38:45Z</time>
      </trkpt>
      <trkpt lat="45.96725" lon="4.71639">
        <ele>190</ele>
        <time>2018-02-02T11:38:46Z</time>
      </trkpt>
      <trkpt lat="45.96718" lon="4.71638">
        <ele>190</ele>
        <time>2018-02-02T11:38:47Z</time>
      </trkpt>
      <trkpt lat="45.96712" lon="4.71638">
        <ele>190</ele>
        <time>2018-02-02T11:38:48Z</time>
      </trkpt>
      <trkpt lat="45.96707" lon="4.71638">
        <ele>190</ele>
        <time>2018-02-02T11:38:49Z</time>
      </trkpt>
      <trkpt lat="45.967" lon="4.71636">
        <ele>190</ele>
        <time>2018-02-02T11:38:50Z</time>
      </trkpt>
      <trkpt lat="45.96693" lon="4.71635">
        <ele>190</ele>
        <time>2018-02-02T11:38:51Z</time>
      </trkpt>
      <trkpt lat="45.96687" lon="4.71635">
        <ele>190</ele>
        <time>2018-02-02T11:38:52Z</time>
      </trkpt>
      <trkpt lat="45.9668" lon="4.71633">
        <ele>190</ele>
        <time>2018-02-02T11:38:53Z</time>
      </trkpt>
      <trkpt lat="45.96674" lon="4.71632">
        <ele>190</ele>
        <time>2018-02-02T11:38:54Z</time>
      </trkpt>
      <trkpt lat="45.96668" lon="4.71633">
        <ele>190</ele>
        <time>2018-02-02T11:38:55Z</time>
      </trkpt>
      <trkpt lat="45.9666" lon="4.71631">
        <ele>188</ele>
        <time>2018-02-02T11:38:56Z</time>
      </trkpt>
      <trkpt lat="45.96652" lon="4.71629">
        <ele>188</ele>
        <time>2018-02-02T11:38:57Z</time>
      </trkpt>
      <trkpt lat="45.96644" lon="4.71627">
        <ele>188</ele>
        <time>2018-02-02T11:38:58Z</time>
      </trkpt>
      <trkpt lat="45.96636" lon="4.71627">
        <ele>188</ele>
        <time>2018-02-02T11:38:59Z</time>
      </trkpt>
      <trkpt lat="45.96629" lon="4.71625">
        <ele>188</ele>
        <time>2018-02-02T11:39:00Z</time>
      </trkpt>
      <trkpt lat="45.96621" lon="4.71625">
        <ele>188</ele>
        <time>2018-02-02T11:39:01Z</time>
      </trkpt>
      <trkpt lat="45.96614" lon="4.71623">
        <ele>188</ele>
        <time>2018-02-02T11:39:02Z</time>
      </trkpt>
      <trkpt lat="45.96607" lon="4.71622">
        <ele>188</ele>
        <time>2018-02-02T11:39:03Z</time>
      </trkpt>
      <trkpt lat="45.96601" lon="4.7162">
        <ele>188</ele>
        <time>2018-02-02T11:39:04Z</time>
      </trkpt>
      <trkpt lat="45.96593" lon="4.7162">
        <ele>187</ele>
        <time>2018-02-02T11:39:05Z</time>
      </trkpt>
      <trkpt lat="45.96587" lon="4.71618">
        <ele>187</ele>
        <time>2018-02-02T11:39:06Z</time>
      </trkpt>
      <trkpt lat="45.96579" lon="4.71617">
        <ele>185</ele>
        <time>2018-02-02T11:39:07Z</time>
      </trkpt>
      <trkpt lat="45.96572" lon="4.71616">
        <ele>185</ele>
        <time>2018-02-02T11:39:08Z</time>
      </trkpt>
      <trkpt lat="45.96565" lon="4.71616">
        <ele>185</ele>
        <time>2018-02-02T11:39:09Z</time>
      </trkpt>
      <trkpt lat="45.96558" lon="4.71614">
        <ele>185</ele>
        <time>2018-02-02T11:39:10Z</time>
      </trkpt>
      <trkpt lat="45.9655" lon="4.71611">
        <ele>185</ele>
        <time>2018-02-02T11:39:11Z</time>
      </trkpt>
      <trkpt lat="45.96542" lon="4.7161">
        <ele>185</ele>
        <time>2018-02-02T11:39:12Z</time>
      </trkpt>
      <trkpt lat="45.96535" lon="4.71608">
        <ele>185</ele>
        <time>2018-02-02T11:39:13Z</time>
      </trkpt>
      <trkpt lat="45.9653" lon="4.71605">
        <ele>185</ele>
        <time>2018-02-02T11:39:14Z</time>
      </trkpt>
      <trkpt lat="45.96524" lon="4.71606">
        <ele>185</ele>
        <time>2018-02-02T11:39:15Z</time>
      </trkpt>
      <trkpt lat="45.96518" lon="4.71606">
        <ele>184</ele>
        <time>2018-02-02T11:39:16Z</time>
      </trkpt>
      <trkpt lat="45.96511" lon="4.71607">
        <ele>184</ele>
        <time>2018-02-02T11:39:17Z</time>
      </trkpt>
      <trkpt lat="45.96503" lon="4.71608">
        <ele>184</ele>
        <time>2018-02-02T11:39:18Z</time>
      </trkpt>
      <trkpt lat="45.96496" lon="4.71606">
        <ele>183</ele>
        <time>2018-02-02T11:39:19Z</time>
      </trkpt>
      <trkpt lat="45.96488" lon="4.71606">
        <ele>183</ele>
        <time>2018-02-02T11:39:20Z</time>
      </trkpt>
      <trkpt lat="45.96482" lon="4.71604">
        <ele>183</ele>
        <time>2018-02-02T11:39:21Z</time>
      </trkpt>
      <trkpt lat="45.96474" lon="4.71602">
        <ele>183</ele>
        <time>2018-02-02T11:39:22Z</time>
      </trkpt>
      <trkpt lat="45.96467" lon="4.71601">
        <ele>183</ele>
        <time>2018-02-02T11:39:23Z</time>
      </trkpt>
      <trkpt lat="45.96461" lon="4.71599">
        <ele>183</ele>
        <time>2018-02-02T11:39:24Z</time>
      </trkpt>
      <trkpt lat="45.96454" lon="4.71598">
        <ele>183</ele>
        <time>2018-02-02T11:39:25Z</time>
      </trkpt>
      <trkpt lat="45.96446" lon="4.71597">
        <ele>183</ele>
        <time>2018-02-02T11:39:26Z</time>
      </trkpt>
      <trkpt lat="45.96439" lon="4.71596">
        <ele>183</ele>
        <time>2018-02-02T11:39:27Z</time>
      </trkpt>
      <trkpt lat="45.96432" lon="4.71595">
        <ele>184</ele>
        <time>2018-02-02T11:39:28Z</time>
      </trkpt>
      <trkpt lat="45.96424" lon="4.71594">
        <ele>184</ele>
        <time>2018-02-02T11:39:29Z</time>
      </trkpt>
      <trkpt lat="45.96417" lon="4.71593">
        <ele>184</ele>
        <time>2018-02-02T11:39:30Z</time>
      </trkpt>
      <trkpt lat="45.96409" lon="4.71592">
        <ele>184</ele>
        <time>2018-02-02T11:39:31Z</time>
      </trkpt>
      <trkpt lat="45.96402" lon="4.71591">
        <ele>183</ele>
        <time>2018-02-02T11:39:32Z</time>
      </trkpt>
      <trkpt lat="45.96395" lon="4.7159">
        <ele>183</ele>
        <time>2018-02-02T11:39:33Z</time>
      </trkpt>
      <trkpt lat="45.96387" lon="4.71589">
        <ele>183</ele>
        <time>2018-02-02T11:39:34Z</time>
      </trkpt>
      <trkpt lat="45.96381" lon="4.71587">
        <ele>183</ele>
        <time>2018-02-02T11:39:35Z</time>
      </trkpt>
      <trkpt lat="45.96374" lon="4.71586">
        <ele>182</ele>
        <time>2018-02-02T11:39:36Z</time>
      </trkpt>
      <trkpt lat="45.96367" lon="4.71584">
        <ele>182</ele>
        <time>2018-02-02T11:39:37Z</time>
      </trkpt>
      <trkpt lat="45.96361" lon="4.71583">
        <ele>185</ele>
        <time>2018-02-02T11:39:38Z</time>
      </trkpt>
      <trkpt lat="45.96355" lon="4.71582">
        <ele>185</ele>
        <time>2018-02-02T11:39:39Z</time>
      </trkpt>
      <trkpt lat="45.96348" lon="4.71582">
        <ele>185</ele>
        <time>2018-02-02T11:39:40Z</time>
      </trkpt>
      <trkpt lat="45.96341" lon="4.71581">
        <ele>184</ele>
        <time>2018-02-02T11:39:41Z</time>
      </trkpt>
      <trkpt lat="45.96336" lon="4.7158">
        <ele>184</ele>
        <time>2018-02-02T11:39:42Z</time>
      </trkpt>
      <trkpt lat="45.96329" lon="4.71579">
        <ele>183</ele>
        <time>2018-02-02T11:39:43Z</time>
      </trkpt>
      <trkpt lat="45.96324" lon="4.71578">
        <ele>184</ele>
        <time>2018-02-02T11:39:44Z</time>
      </trkpt>
      <trkpt lat="45.96317" lon="4.71577">
        <ele>184</ele>
        <time>2018-02-02T11:39:45Z</time>
      </trkpt>
      <trkpt lat="45.96309" lon="4.71577">
        <ele>184</ele>
        <time>2018-02-02T11:39:46Z</time>
      </trkpt>
      <trkpt lat="45.96302" lon="4.71576">
        <ele>184</ele>
        <time>2018-02-02T11:39:47Z</time>
      </trkpt>
      <trkpt lat="45.96294" lon="4.71574">
        <ele>184</ele>
        <time>2018-02-02T11:39:48Z</time>
      </trkpt>
      <trkpt lat="45.96287" lon="4.71573">
        <ele>184</ele>
        <time>2018-02-02T11:39:49Z</time>
      </trkpt>
      <trkpt lat="45.9628" lon="4.71572">
        <ele>184</ele>
        <time>2018-02-02T11:39:50Z</time>
      </trkpt>
      <trkpt lat="45.96273" lon="4.71572">
        <ele>184</ele>
        <time>2018-02-02T11:39:51Z</time>
      </trkpt>
      <trkpt lat="45.96266" lon="4.71571">
        <ele>183</ele>
        <time>2018-02-02T11:39:52Z</time>
      </trkpt>
      <trkpt lat="45.9626" lon="4.7157">
        <ele>183</ele>
        <time>2018-02-02T11:39:53Z</time>
      </trkpt>
      <trkpt lat="45.96253" lon="4.71569">
        <ele>183</ele>
        <time>2018-02-02T11:39:54Z</time>
      </trkpt>
      <trkpt lat="45.96245" lon="4.71567">
        <ele>183</ele>
        <time>2018-02-02T11:39:55Z</time>
      </trkpt>
      <trkpt lat="45.96238" lon="4.71566">
        <ele>183</ele>
        <time>2018-02-02T11:39:56Z</time>
      </trkpt>
      <trkpt lat="45.96231" lon="4.71564">
        <ele>183</ele>
        <time>2018-02-02T11:39:57Z</time>
      </trkpt>
      <trkpt lat="45.96224" lon="4.71564">
        <ele>183</ele>
        <time>2018-02-02T11:39:58Z</time>
      </trkpt>
      <trkpt lat="45.96218" lon="4.71562">
        <ele>183</ele>
        <time>2018-02-02T11:39:59Z</time>
      </trkpt>
      <trkpt lat="45.96211" lon="4.71561">
        <ele>183</ele>
        <time>2018-02-02T11:40:00Z</time>
      </trkpt>
      <trkpt lat="45.96206" lon="4.71559">
        <ele>183</ele>
        <time>2018-02-02T11:40:01Z</time>
      </trkpt>
      <trkpt lat="45.962" lon="4.71556">
        <ele>184</ele>
        <time>2018-02-02T11:40:02Z</time>
      </trkpt>
      <trkpt lat="45.96192" lon="4.71556">
        <ele>183</ele>
        <time>2018-02-02T11:40:03Z</time>
      </trkpt>
      <trkpt lat="45.96185" lon="4.71554">
        <ele>183</ele>
        <time>2018-02-02T11:40:04Z</time>
      </trkpt>
      <trkpt lat="45.96178" lon="4.71552">
        <ele>183</ele>
        <time>2018-02-02T11:40:05Z</time>
      </trkpt>
      <trkpt lat="45.96172" lon="4.71551">
        <ele>183</ele>
        <time>2018-02-02T11:40:06Z</time>
      </trkpt>
      <trkpt lat="45.96166" lon="4.7155">
        <ele>184</ele>
        <time>2018-02-02T11:40:07Z</time>
      </trkpt>
      <trkpt lat="45.96159" lon="4.71548">
        <ele>184</ele>
        <time>2018-02-02T11:40:08Z</time>
      </trkpt>
      <trkpt lat="45.96154" lon="4.71546">
        <ele>184</ele>
        <time>2018-02-02T11:40:09Z</time>
      </trkpt>
      <trkpt lat="45.96144" lon="4.71547">
        <ele>184</ele>
        <time>2018-02-02T11:40:10Z</time>
      </trkpt>
      <trkpt lat="45.96137" lon="4.71547">
        <ele>184</ele>
        <time>2018-02-02T11:40:11Z</time>
      </trkpt>
      <trkpt lat="45.9613" lon="4.71543">
        <ele>185</ele>
        <time>2018-02-02T11:40:12Z</time>
      </trkpt>
      <trkpt lat="45.96123" lon="4.71542">
        <ele>185</ele>
        <time>2018-02-02T11:40:13Z</time>
      </trkpt>
      <trkpt lat="45.96115" lon="4.71541">
        <ele>185</ele>
        <time>2018-02-02T11:40:14Z</time>
      </trkpt>
      <trkpt lat="45.96107" lon="4.7154">
        <ele>185</ele>
        <time>2018-02-02T11:40:15Z</time>
      </trkpt>
      <trkpt lat="45.961" lon="4.71539">
        <ele>185</ele>
        <time>2018-02-02T11:40:16Z</time>
      </trkpt>
      <trkpt lat="45.96094" lon="4.71538">
        <ele>185</ele>
        <time>2018-02-02T11:40:17Z</time>
      </trkpt>
      <trkpt lat="45.96087" lon="4.71537">
        <ele>185</ele>
        <time>2018-02-02T11:40:18Z</time>
      </trkpt>
      <trkpt lat="45.96081" lon="4.71536">
        <ele>186</ele>
        <time>2018-02-02T11:40:19Z</time>
      </trkpt>
      <trkpt lat="45.96074" lon="4.71534">
        <ele>186</ele>
        <time>2018-02-02T11:40:20Z</time>
      </trkpt>
      <trkpt lat="45.96067" lon="4.71532">
        <ele>186</ele>
        <time>2018-02-02T11:40:21Z</time>
      </trkpt>
      <trkpt lat="45.96059" lon="4.7153">
        <ele>186</ele>
        <time>2018-02-02T11:40:22Z</time>
      </trkpt>
      <trkpt lat="45.96053" lon="4.71528">
        <ele>186</ele>
        <time>2018-02-02T11:40:23Z</time>
      </trkpt>
      <trkpt lat="45.96047" lon="4.71526">
        <ele>186</ele>
        <time>2018-02-02T11:40:24Z</time>
      </trkpt>
      <trkpt lat="45.9604" lon="4.71525">
        <ele>186</ele>
        <time>2018-02-02T11:40:25Z</time>
      </trkpt>
      <trkpt lat="45.96033" lon="4.71524">
        <ele>186</ele>
        <time>2018-02-02T11:40:26Z</time>
      </trkpt>
      <trkpt lat="45.96026" lon="4.71524">
        <ele>186</ele>
        <time>2018-02-02T11:40:27Z</time>
      </trkpt>
      <trkpt lat="45.96018" lon="4.71522">
        <ele>186</ele>
        <time>2018-02-02T11:40:28Z</time>
      </trkpt>
      <trkpt lat="45.96012" lon="4.71521">
        <ele>186</ele>
        <time>2018-02-02T11:40:29Z</time>
      </trkpt>
      <trkpt lat="45.96006" lon="4.71519">
        <ele>186</ele>
        <time>2018-02-02T11:40:30Z</time>
      </trkpt>
      <trkpt lat="45.95998" lon="4.71517">
        <ele>186</ele>
        <time>2018-02-02T11:40:31Z</time>
      </trkpt>
      <trkpt lat="45.95992" lon="4.71513">
        <ele>186</ele>
        <time>2018-02-02T11:40:32Z</time>
      </trkpt>
      <trkpt lat="45.95985" lon="4.71511">
        <ele>186</ele>
        <time>2018-02-02T11:40:33Z</time>
      </trkpt>
      <trkpt lat="45.95978" lon="4.71511">
        <ele>185</ele>
        <time>2018-02-02T11:40:34Z</time>
      </trkpt>
      <trkpt lat="45.95971" lon="4.71512">
        <ele>185</ele>
        <time>2018-02-02T11:40:35Z</time>
      </trkpt>
      <trkpt lat="45.95964" lon="4.71514">
        <ele>184</ele>
        <time>2018-02-02T11:40:36Z</time>
      </trkpt>
      <trkpt lat="45.95956" lon="4.71515">
        <ele>184</ele>
        <time>2018-02-02T11:40:37Z</time>
      </trkpt>
      <trkpt lat="45.95948" lon="4.71516">
        <ele>184</ele>
        <time>2018-02-02T11:40:38Z</time>
      </trkpt>
      <trkpt lat="45.9594" lon="4.71517">
        <ele>184</ele>
        <time>2018-02-02T11:40:39Z</time>
      </trkpt>
      <trkpt lat="45.95932" lon="4.71516">
        <ele>184</ele>
        <time>2018-02-02T11:40:40Z</time>
      </trkpt>
      <trkpt lat="45.95924" lon="4.71516">
        <ele>184</ele>
        <time>2018-02-02T11:40:41Z</time>
      </trkpt>
      <trkpt lat="45.95915" lon="4.71516">
        <ele>183</ele>
        <time>2018-02-02T11:40:42Z</time>
      </trkpt>
      <trkpt lat="45.95908" lon="4.71517">
        <ele>183</ele>
        <time>2018-02-02T11:40:43Z</time>
      </trkpt>
      <trkpt lat="45.95898" lon="4.71514">
        <ele>183</ele>
        <time>2018-02-02T11:40:44Z</time>
      </trkpt>
      <trkpt lat="45.9589" lon="4.71514">
        <ele>182</ele>
        <time>2018-02-02T11:40:45Z</time>
      </trkpt>
      <trkpt lat="45.95883" lon="4.71514">
        <ele>182</ele>
        <time>2018-02-02T11:40:46Z</time>
      </trkpt>
      <trkpt lat="45.95874" lon="4.71514">
        <ele>182</ele>
        <time>2018-02-02T11:40:47Z</time>
      </trkpt>
      <trkpt lat="45.95868" lon="4.71514">
        <ele>182</ele>
        <time>2018-02-02T11:40:48Z</time>
      </trkpt>
      <trkpt lat="45.9586" lon="4.71514">
        <ele>182</ele>
        <time>2018-02-02T11:40:49Z</time>
      </trkpt>
      <trkpt lat="45.95853" lon="4.71515">
        <ele>182</ele>
        <time>2018-02-02T11:40:50Z</time>
      </trkpt>
      <trkpt lat="45.95845" lon="4.71515">
        <ele>183</ele>
        <time>2018-02-02T11:40:51Z</time>
      </trkpt>
      <trkpt lat="45.95838" lon="4.71515">
        <ele>183</ele>
        <time>2018-02-02T11:40:52Z</time>
      </trkpt>
      <trkpt lat="45.9583" lon="4.71514">
        <ele>182</ele>
        <time>2018-02-02T11:40:53Z</time>
      </trkpt>
      <trkpt lat="45.95823" lon="4.71513">
        <ele>182</ele>
        <time>2018-02-02T11:40:54Z</time>
      </trkpt>
      <trkpt lat="45.95815" lon="4.71513">
        <ele>182</ele>
        <time>2018-02-02T11:40:55Z</time>
      </trkpt>
      <trkpt lat="45.95807" lon="4.71513">
        <ele>181</ele>
        <time>2018-02-02T11:40:56Z</time>
      </trkpt>
      <trkpt lat="45.958" lon="4.71512">
        <ele>181</ele>
        <time>2018-02-02T11:40:57Z</time>
      </trkpt>
      <trkpt lat="45.95792" lon="4.71512">
        <ele>181</ele>
        <time>2018-02-02T11:40:58Z</time>
      </trkpt>
      <trkpt lat="45.95785" lon="4.71512">
        <ele>181</ele>
        <time>2018-02-02T11:40:59Z</time>
      </trkpt>
      <trkpt lat="45.95778" lon="4.71511">
        <ele>181</ele>
        <time>2018-02-02T11:41:00Z</time>
      </trkpt>
      <trkpt lat="45.95771" lon="4.7151">
        <ele>181</ele>
        <time>2018-02-02T11:41:01Z</time>
      </trkpt>
      <trkpt lat="45.95764" lon="4.71509">
        <ele>181</ele>
        <time>2018-02-02T11:41:02Z</time>
      </trkpt>
      <trkpt lat="45.95756" lon="4.71509">
        <ele>181</ele>
        <time>2018-02-02T11:41:03Z</time>
      </trkpt>
      <trkpt lat="45.9575" lon="4.71509">
        <ele>181</ele>
        <time>2018-02-02T11:41:04Z</time>
      </trkpt>
      <trkpt lat="45.95743" lon="4.71509">
        <ele>181</ele>
        <time>2018-02-02T11:41:05Z</time>
      </trkpt>
      <trkpt lat="45.95736" lon="4.71508">
        <ele>181</ele>
        <time>2018-02-02T11:41:06Z</time>
      </trkpt>
      <trkpt lat="45.95728" lon="4.71508">
        <ele>181</ele>
        <time>2018-02-02T11:41:07Z</time>
      </trkpt>
      <trkpt lat="45.9572" lon="4.71508">
        <ele>180</ele>
        <time>2018-02-02T11:41:08Z</time>
      </trkpt>
      <trkpt lat="45.95712" lon="4.71507">
        <ele>180</ele>
        <time>2018-02-02T11:41:09Z</time>
      </trkpt>
      <trkpt lat="45.95705" lon="4.71507">
        <ele>180</ele>
        <time>2018-02-02T11:41:10Z</time>
      </trkpt>
      <trkpt lat="45.95696" lon="4.71507">
        <ele>180</ele>
        <time>2018-02-02T11:41:11Z</time>
      </trkpt>
      <trkpt lat="45.95689" lon="4.71505">
        <ele>181</ele>
        <time>2018-02-02T11:41:12Z</time>
      </trkpt>
      <trkpt lat="45.95681" lon="4.71505">
        <ele>181</ele>
        <time>2018-02-02T11:41:13Z</time>
      </trkpt>
      <trkpt lat="45.95674" lon="4.71504">
        <ele>181</ele>
        <time>2018-02-02T11:41:14Z</time>
      </trkpt>
      <trkpt lat="45.95665" lon="4.71503">
        <ele>182</ele>
        <time>2018-02-02T11:41:15Z</time>
      </trkpt>
      <trkpt lat="45.95656" lon="4.71502">
        <ele>181</ele>
        <time>2018-02-02T11:41:16Z</time>
      </trkpt>
      <trkpt lat="45.95648" lon="4.71501">
        <ele>180</ele>
        <time>2018-02-02T11:41:17Z</time>
      </trkpt>
      <trkpt lat="45.9564" lon="4.715">
        <ele>180</ele>
        <time>2018-02-02T11:41:18Z</time>
      </trkpt>
      <trkpt lat="45.95633" lon="4.715">
        <ele>182</ele>
        <time>2018-02-02T11:41:19Z</time>
      </trkpt>
      <trkpt lat="45.95624" lon="4.715">
        <ele>181</ele>
        <time>2018-02-02T11:41:20Z</time>
      </trkpt>
      <trkpt lat="45.95617" lon="4.715">
        <ele>181</ele>
        <time>2018-02-02T11:41:21Z</time>
      </trkpt>
      <trkpt lat="45.95609" lon="4.71499">
        <ele>181</ele>
        <time>2018-02-02T11:41:22Z</time>
      </trkpt>
      <trkpt lat="45.95601" lon="4.71498">
        <ele>181</ele>
        <time>2018-02-02T11:41:23Z</time>
      </trkpt>
      <trkpt lat="45.95593" lon="4.71498">
        <ele>181</ele>
        <time>2018-02-02T11:41:24Z</time>
      </trkpt>
      <trkpt lat="45.95585" lon="4.71498">
        <ele>180</ele>
        <time>2018-02-02T11:41:25Z</time>
      </trkpt>
      <trkpt lat="45.95578" lon="4.71497">
        <ele>180</ele>
        <time>2018-02-02T11:41:26Z</time>
      </trkpt>
      <trkpt lat="45.9557" lon="4.71496">
        <ele>180</ele>
        <time>2018-02-02T11:41:27Z</time>
      </trkpt>
      <trkpt lat="45.95561" lon="4.71496">
        <ele>179</ele>
        <time>2018-02-02T11:41:28Z</time>
      </trkpt>
      <trkpt lat="45.95553" lon="4.71496">
        <ele>179</ele>
        <time>2018-02-02T11:41:29Z</time>
      </trkpt>
      <trkpt lat="45.95546" lon="4.71496">
        <ele>179</ele>
        <time>2018-02-02T11:41:30Z</time>
      </trkpt>
      <trkpt lat="45.95538" lon="4.71495">
        <ele>179</ele>
        <time>2018-02-02T11:41:31Z</time>
      </trkpt>
      <trkpt lat="45.9553" lon="4.71495">
        <ele>178</ele>
        <time>2018-02-02T11:41:32Z</time>
      </trkpt>
      <trkpt lat="45.95522" lon="4.71495">
        <ele>178</ele>
        <time>2018-02-02T11:41:33Z</time>
      </trkpt>
      <trkpt lat="45.95515" lon="4.71494">
        <ele>178</ele>
        <time>2018-02-02T11:41:34Z</time>
      </trkpt>
      <trkpt lat="45.95506" lon="4.71494">
        <ele>178</ele>
        <time>2018-02-02T11:41:35Z</time>
      </trkpt>
      <trkpt lat="45.95498" lon="4.71494">
        <ele>177</ele>
        <time>2018-02-02T11:41:36Z</time>
      </trkpt>
      <trkpt lat="45.95489" lon="4.71493">
        <ele>177</ele>
        <time>2018-02-02T11:41:37Z</time>
      </trkpt>
      <trkpt lat="45.95481" lon="4.71493">
        <ele>176</ele>
        <time>2018-02-02T11:41:38Z</time>
      </trkpt>
      <trkpt lat="45.95472" lon="4.71493">
        <ele>176</ele>
        <time>2018-02-02T11:41:39Z</time>
      </trkpt>
      <trkpt lat="45.95464" lon="4.71492">
        <ele>176</ele>
        <time>2018-02-02T11:41:40Z</time>
      </trkpt>
      <trkpt lat="45.95456" lon="4.71491">
        <ele>176</ele>
        <time>2018-02-02T11:41:41Z</time>
      </trkpt>
      <trkpt lat="45.95448" lon="4.71491">
        <ele>176</ele>
        <time>2018-02-02T11:41:42Z</time>
      </trkpt>
      <trkpt lat="45.9544" lon="4.71491">
        <ele>176</ele>
        <time>2018-02-02T11:41:43Z</time>
      </trkpt>
      <trkpt lat="45.95431" lon="4.7149">
        <ele>175</ele>
        <time>2018-02-02T11:41:44Z</time>
      </trkpt>
      <trkpt lat="45.95423" lon="4.71491">
        <ele>175</ele>
        <time>2018-02-02T11:41:45Z</time>
      </trkpt>
      <trkpt lat="45.95415" lon="4.7149">
        <ele>174</ele>
        <time>2018-02-02T11:41:46Z</time>
      </trkpt>
      <trkpt lat="45.95406" lon="4.71489">
        <ele>175</ele>
        <time>2018-02-02T11:41:47Z</time>
      </trkpt>
      <trkpt lat="45.95398" lon="4.71489">
        <ele>175</ele>
        <time>2018-02-02T11:41:48Z</time>
      </trkpt>
      <trkpt lat="45.9539" lon="4.71489">
        <ele>175</ele>
        <time>2018-02-02T11:41:49Z</time>
      </trkpt>
      <trkpt lat="45.95383" lon="4.71488">
        <ele>175</ele>
        <time>2018-02-02T11:41:50Z</time>
      </trkpt>
      <trkpt lat="45.95375" lon="4.71486">
        <ele>175</ele>
        <time>2018-02-02T11:41:51Z</time>
      </trkpt>
      <trkpt lat="45.95368" lon="4.71485">
        <ele>175</ele>
        <time>2018-02-02T11:41:52Z</time>
      </trkpt>
      <trkpt lat="45.95361" lon="4.71484">
        <ele>175</ele>
        <time>2018-02-02T11:41:53Z</time>
      </trkpt>
      <trkpt lat="45.95355" lon="4.71484">
        <ele>175</ele>
        <time>2018-02-02T11:41:54Z</time>
      </trkpt>
      <trkpt lat="45.95349" lon="4.71483">
        <ele>175</ele>
        <time>2018-02-02T11:41:55Z</time>
      </trkpt>
      <trkpt lat="45.95342" lon="4.71483">
        <ele>175</ele>
        <time>2018-02-02T11:41:56Z</time>
      </trkpt>
      <trkpt lat="45.95336" lon="4.71483">
        <ele>175</ele>
        <time>2018-02-02T11:41:57Z</time>
      </trkpt>
      <trkpt lat="45.95329" lon="4.71481">
        <ele>175</ele>
        <time>2018-02-02T11:41:58Z</time>
      </trkpt>
      <trkpt lat="45.95322" lon="4.71482">
        <ele>175</ele>
        <time>2018-02-02T11:41:59Z</time>
      </trkpt>
      <trkpt lat="45.95315" lon="4.7148">
        <ele>175</ele>
        <time>2018-02-02T11:42:00Z</time>
      </trkpt>
      <trkpt lat="45.95309" lon="4.7148">
        <ele>175</ele>
        <time>2018-02-02T11:42:01Z</time>
      </trkpt>
      <trkpt lat="45.95301" lon="4.71479">
        <ele>176</ele>
        <time>2018-02-02T11:42:02Z</time>
      </trkpt>
      <trkpt lat="45.95294" lon="4.71479">
        <ele>176</ele>
        <time>2018-02-02T11:42:03Z</time>
      </trkpt>
      <trkpt lat="45.95287" lon="4.71478">
        <ele>176</ele>
        <time>2018-02-02T11:42:04Z</time>
      </trkpt>
      <trkpt lat="45.9528" lon="4.71478">
        <ele>176</ele>
        <time>2018-02-02T11:42:05Z</time>
      </trkpt>
      <trkpt lat="45.95274" lon="4.71477">
        <ele>176</ele>
        <time>2018-02-02T11:42:06Z</time>
      </trkpt>
      <trkpt lat="45.95268" lon="4.71477">
        <ele>176</ele>
        <time>2018-02-02T11:42:07Z</time>
      </trkpt>
      <trkpt lat="45.95262" lon="4.71476">
        <ele>176</ele>
        <time>2018-02-02T11:42:08Z</time>
      </trkpt>
      <trkpt lat="45.95255" lon="4.71475">
        <ele>176</ele>
        <time>2018-02-02T11:42:09Z</time>
      </trkpt>
      <trkpt lat="45.95249" lon="4.71475">
        <ele>177</ele>
        <time>2018-02-02T11:42:10Z</time>
      </trkpt>
      <trkpt lat="45.95243" lon="4.71474">
        <ele>177</ele>
        <time>2018-02-02T11:42:11Z</time>
      </trkpt>
      <trkpt lat="45.95237" lon="4.71474">
        <ele>177</ele>
        <time>2018-02-02T11:42:12Z</time>
      </trkpt>
      <trkpt lat="45.95232" lon="4.71474">
        <ele>177</ele>
        <time>2018-02-02T11:42:13Z</time>
      </trkpt>
      <trkpt lat="45.95226" lon="4.71473">
        <ele>177</ele>
        <time>2018-02-02T11:42:14Z</time>
      </trkpt>
      <trkpt lat="45.9522" lon="4.71472">
        <ele>177</ele>
        <time>2018-02-02T11:42:15Z</time>
      </trkpt>
      <trkpt lat="45.95215" lon="4.71472">
        <ele>177</ele>
        <time>2018-02-02T11:42:16Z</time>
      </trkpt>
      <trkpt lat="45.95209" lon="4.71472">
        <ele>177</ele>
        <time>2018-02-02T11:42:17Z</time>
      </trkpt>
      <trkpt lat="45.95202" lon="4.71471">
        <ele>177</ele>
        <time>2018-02-02T11:42:18Z</time>
      </trkpt>
      <trkpt lat="45.95195" lon="4.71471">
        <ele>177</ele>
        <time>2018-02-02T11:42:19Z</time>
      </trkpt>
      <trkpt lat="45.95189" lon="4.71471">
        <ele>177</ele>
        <time>2018-02-02T11:42:20Z</time>
      </trkpt>
      <trkpt lat="45.95182" lon="4.7147">
        <ele>177</ele>
        <time>2018-02-02T11:42:21Z</time>
      </trkpt>
      <trkpt lat="45.95176" lon="4.7147">
        <ele>177</ele>
        <time>2018-02-02T11:42:22Z</time>
      </trkpt>
      <trkpt lat="45.95168" lon="4.7147">
        <ele>177</ele>
        <time>2018-02-02T11:42:23Z</time>
      </trkpt>
      <trkpt lat="45.95163" lon="4.7147">
        <ele>178</ele>
        <time>2018-02-02T11:42:24Z</time>
      </trkpt>
      <trkpt lat="45.95157" lon="4.7147">
        <ele>178</ele>
        <time>2018-02-02T11:42:25Z</time>
      </trkpt>
      <trkpt lat="45.95151" lon="4.71469">
        <ele>178</ele>
        <time>2018-02-02T11:42:26Z</time>
      </trkpt>
      <trkpt lat="45.95144" lon="4.71469">
        <ele>178</ele>
        <time>2018-02-02T11:42:27Z</time>
      </trkpt>
      <trkpt lat="45.95137" lon="4.71469">
        <ele>178</ele>
        <time>2018-02-02T11:42:28Z</time>
      </trkpt>
      <trkpt lat="45.95131" lon="4.71468">
        <ele>178</ele>
        <time>2018-02-02T11:42:29Z</time>
      </trkpt>
      <trkpt lat="45.95124" lon="4.71468">
        <ele>178</ele>
        <time>2018-02-02T11:42:30Z</time>
      </trkpt>
      <trkpt lat="45.95118" lon="4.71467">
        <ele>179</ele>
        <time>2018-02-02T11:42:31Z</time>
      </trkpt>
      <trkpt lat="45.95111" lon="4.71468">
        <ele>179</ele>
        <time>2018-02-02T11:42:32Z</time>
      </trkpt>
      <trkpt lat="45.95104" lon="4.71468">
        <ele>179</ele>
        <time>2018-02-02T11:42:33Z</time>
      </trkpt>
      <trkpt lat="45.95099" lon="4.71467">
        <ele>179</ele>
        <time>2018-02-02T11:42:34Z</time>
      </trkpt>
      <trkpt lat="45.95094" lon="4.71466">
        <ele>179</ele>
        <time>2018-02-02T11:42:35Z</time>
      </trkpt>
      <trkpt lat="45.95087" lon="4.71467">
        <ele>179</ele>
        <time>2018-02-02T11:42:36Z</time>
      </trkpt>
      <trkpt lat="45.95081" lon="4.71466">
        <ele>181</ele>
        <time>2018-02-02T11:42:37Z</time>
      </trkpt>
      <trkpt lat="45.95076" lon="4.71466">
        <ele>181</ele>
        <time>2018-02-02T11:42:38Z</time>
      </trkpt>
      <trkpt lat="45.9507" lon="4.71465">
        <ele>181</ele>
        <time>2018-02-02T11:42:39Z</time>
      </trkpt>
      <trkpt lat="45.95064" lon="4.71465">
        <ele>181</ele>
        <time>2018-02-02T11:42:40Z</time>
      </trkpt>
      <trkpt lat="45.95059" lon="4.71465">
        <ele>181</ele>
        <time>2018-02-02T11:42:41Z</time>
      </trkpt>
      <trkpt lat="45.95053" lon="4.71464">
        <ele>181</ele>
        <time>2018-02-02T11:42:42Z</time>
      </trkpt>
      <trkpt lat="45.95047" lon="4.71464">
        <ele>182</ele>
        <time>2018-02-02T11:42:43Z</time>
      </trkpt>
      <trkpt lat="45.95041" lon="4.71462">
        <ele>182</ele>
        <time>2018-02-02T11:42:44Z</time>
      </trkpt>
      <trkpt lat="45.95036" lon="4.71462">
        <ele>182</ele>
        <time>2018-02-02T11:42:45Z</time>
      </trkpt>
      <trkpt lat="45.95031" lon="4.71463">
        <ele>182</ele>
        <time>2018-02-02T11:42:46Z</time>
      </trkpt>
      <trkpt lat="45.95026" lon="4.71463">
        <ele>182</ele>
        <time>2018-02-02T11:42:47Z</time>
      </trkpt>
      <trkpt lat="45.95021" lon="4.71462">
        <ele>182</ele>
        <time>2018-02-02T11:42:48Z</time>
      </trkpt>
      <trkpt lat="45.95016" lon="4.71462">
        <ele>182</ele>
        <time>2018-02-02T11:42:49Z</time>
      </trkpt>
      <trkpt lat="45.9501" lon="4.71462">
        <ele>182</ele>
        <time>2018-02-02T11:42:50Z</time>
      </trkpt>
      <trkpt lat="45.95002" lon="4.7146">
        <ele>182</ele>
        <time>2018-02-02T11:42:52Z</time>
      </trkpt>
      <trkpt lat="45.94998" lon="4.71459">
        <ele>183</ele>
        <time>2018-02-02T11:42:53Z</time>
      </trkpt>
      <trkpt lat="45.94993" lon="4.71457">
        <ele>184</ele>
        <time>2018-02-02T11:42:54Z</time>
      </trkpt>
      <trkpt lat="45.94988" lon="4.71453">
        <ele>184</ele>
        <time>2018-02-02T11:42:55Z</time>
      </trkpt>
      <trkpt lat="45.94984" lon="4.71448">
        <ele>184</ele>
        <time>2018-02-02T11:42:56Z</time>
      </trkpt>
      <trkpt lat="45.94981" lon="4.71443">
        <ele>184</ele>
        <time>2018-02-02T11:42:57Z</time>
      </trkpt>
      <trkpt lat="45.94978" lon="4.71438">
        <ele>185</ele>
        <time>2018-02-02T11:42:58Z</time>
      </trkpt>
      <trkpt lat="45.94974" lon="4.71434">
        <ele>185</ele>
        <time>2018-02-02T11:42:59Z</time>
      </trkpt>
      <trkpt lat="45.94969" lon="4.71431">
        <ele>185</ele>
        <time>2018-02-02T11:43:00Z</time>
      </trkpt>
      <trkpt lat="45.94964" lon="4.71431">
        <ele>185</ele>
        <time>2018-02-02T11:43:01Z</time>
      </trkpt>
      <trkpt lat="45.94959" lon="4.71429">
        <ele>185</ele>
        <time>2018-02-02T11:43:02Z</time>
      </trkpt>
      <trkpt lat="45.94954" lon="4.71433">
        <ele>184</ele>
        <time>2018-02-02T11:43:03Z</time>
      </trkpt>
      <trkpt lat="45.9495" lon="4.71437">
        <ele>184</ele>
        <time>2018-02-02T11:43:04Z</time>
      </trkpt>
      <trkpt lat="45.94946" lon="4.71443">
        <ele>184</ele>
        <time>2018-02-02T11:43:05Z</time>
      </trkpt>
      <trkpt lat="45.94941" lon="4.71448">
        <ele>184</ele>
        <time>2018-02-02T11:43:06Z</time>
      </trkpt>
      <trkpt lat="45.94936" lon="4.71451">
        <ele>184</ele>
        <time>2018-02-02T11:43:07Z</time>
      </trkpt>
      <trkpt lat="45.94931" lon="4.71453">
        <ele>184</ele>
        <time>2018-02-02T11:43:08Z</time>
      </trkpt>
      <trkpt lat="45.94924" lon="4.71453">
        <ele>184</ele>
        <time>2018-02-02T11:43:09Z</time>
      </trkpt>
      <trkpt lat="45.94918" lon="4.71453">
        <ele>184</ele>
        <time>2018-02-02T11:43:10Z</time>
      </trkpt>
      <trkpt lat="45.94911" lon="4.71453">
        <ele>184</ele>
        <time>2018-02-02T11:43:11Z</time>
      </trkpt>
      <trkpt lat="45.94905" lon="4.71453">
        <ele>184</ele>
        <time>2018-02-02T11:43:12Z</time>
      </trkpt>
      <trkpt lat="45.94899" lon="4.71452">
        <ele>184</ele>
        <time>2018-02-02T11:43:13Z</time>
      </trkpt>
      <trkpt lat="45.94893" lon="4.7145">
        <ele>184</ele>
        <time>2018-02-02T11:43:14Z</time>
      </trkpt>
      <trkpt lat="45.94887" lon="4.7145">
        <ele>184</ele>
        <time>2018-02-02T11:43:15Z</time>
      </trkpt>
      <trkpt lat="45.94881" lon="4.71449">
        <ele>184</ele>
        <time>2018-02-02T11:43:16Z</time>
      </trkpt>
      <trkpt lat="45.94875" lon="4.7145">
        <ele>184</ele>
        <time>2018-02-02T11:43:17Z</time>
      </trkpt>
      <trkpt lat="45.94869" lon="4.7145">
        <ele>184</ele>
        <time>2018-02-02T11:43:18Z</time>
      </trkpt>
      <trkpt lat="45.94864" lon="4.71449">
        <ele>184</ele>
        <time>2018-02-02T11:43:19Z</time>
      </trkpt>
      <trkpt lat="45.94858" lon="4.71449">
        <ele>184</ele>
        <time>2018-02-02T11:43:20Z</time>
      </trkpt>
      <trkpt lat="45.94853" lon="4.71448">
        <ele>184</ele>
        <time>2018-02-02T11:43:21Z</time>
      </trkpt>
      <trkpt lat="45.94844" lon="4.71446">
        <ele>184</ele>
        <time>2018-02-02T11:43:23Z</time>
      </trkpt>
      <trkpt lat="45.94839" lon="4.71446">
        <ele>184</ele>
        <time>2018-02-02T11:43:24Z</time>
      </trkpt>
      <trkpt lat="45.94833" lon="4.71446">
        <ele>184</ele>
        <time>2018-02-02T11:43:25Z</time>
      </trkpt>
      <trkpt lat="45.94827" lon="4.71446">
        <ele>184</ele>
        <time>2018-02-02T11:43:26Z</time>
      </trkpt>
      <trkpt lat="45.9482" lon="4.71447">
        <ele>184</ele>
        <time>2018-02-02T11:43:27Z</time>
      </trkpt>
      <trkpt lat="45.94815" lon="4.71447">
        <ele>184</ele>
        <time>2018-02-02T11:43:28Z</time>
      </trkpt>
      <trkpt lat="45.94809" lon="4.71446">
        <ele>184</ele>
        <time>2018-02-02T11:43:29Z</time>
      </trkpt>
      <trkpt lat="45.94804" lon="4.71446">
        <ele>184</ele>
        <time>2018-02-02T11:43:30Z</time>
      </trkpt>
      <trkpt lat="45.94798" lon="4.71445">
        <ele>184</ele>
        <time>2018-02-02T11:43:31Z</time>
      </trkpt>
      <trkpt lat="45.94792" lon="4.71445">
        <ele>183</ele>
        <time>2018-02-02T11:43:32Z</time>
      </trkpt>
      <trkpt lat="45.94787" lon="4.71445">
        <ele>183</ele>
        <time>2018-02-02T11:43:33Z</time>
      </trkpt>
      <trkpt lat="45.94782" lon="4.71445">
        <ele>183</ele>
        <time>2018-02-02T11:43:34Z</time>
      </trkpt>
      <trkpt lat="45.94777" lon="4.71445">
        <ele>183</ele>
        <time>2018-02-02T11:43:35Z</time>
      </trkpt>
      <trkpt lat="45.94771" lon="4.71445">
        <ele>184</ele>
        <time>2018-02-02T11:43:36Z</time>
      </trkpt>
      <trkpt lat="45.94765" lon="4.71444">
        <ele>184</ele>
        <time>2018-02-02T11:43:37Z</time>
      </trkpt>
      <trkpt lat="45.9476" lon="4.71443">
        <ele>184</ele>
        <time>2018-02-02T11:43:38Z</time>
      </trkpt>
      <trkpt lat="45.94753" lon="4.71443">
        <ele>184</ele>
        <time>2018-02-02T11:43:39Z</time>
      </trkpt>
      <trkpt lat="45.94748" lon="4.71443">
        <ele>183</ele>
        <time>2018-02-02T11:43:40Z</time>
      </trkpt>
      <trkpt lat="45.94742" lon="4.71442">
        <ele>183</ele>
        <time>2018-02-02T11:43:41Z</time>
      </trkpt>
      <trkpt lat="45.94736" lon="4.71442">
        <ele>183</ele>
        <time>2018-02-02T11:43:42Z</time>
      </trkpt>
      <trkpt lat="45.9473" lon="4.71441">
        <ele>183</ele>
        <time>2018-02-02T11:43:43Z</time>
      </trkpt>
      <trkpt lat="45.94724" lon="4.7144">
        <ele>183</ele>
        <time>2018-02-02T11:43:44Z</time>
      </trkpt>
      <trkpt lat="45.94718" lon="4.7144">
        <ele>182</ele>
        <time>2018-02-02T11:43:45Z</time>
      </trkpt>
      <trkpt lat="45.94712" lon="4.71439">
        <ele>182</ele>
        <time>2018-02-02T11:43:46Z</time>
      </trkpt>
      <trkpt lat="45.94705" lon="4.71439">
        <ele>182</ele>
        <time>2018-02-02T11:43:47Z</time>
      </trkpt>
      <trkpt lat="45.94699" lon="4.71438">
        <ele>182</ele>
        <time>2018-02-02T11:43:48Z</time>
      </trkpt>
      <trkpt lat="45.94693" lon="4.71438">
        <ele>182</ele>
        <time>2018-02-02T11:43:49Z</time>
      </trkpt>
      <trkpt lat="45.94686" lon="4.71438">
        <ele>182</ele>
        <time>2018-02-02T11:43:50Z</time>
      </trkpt>
      <trkpt lat="45.94678" lon="4.71438">
        <ele>182</ele>
        <time>2018-02-02T11:43:51Z</time>
      </trkpt>
      <trkpt lat="45.94672" lon="4.71438">
        <ele>182</ele>
        <time>2018-02-02T11:43:52Z</time>
      </trkpt>
      <trkpt lat="45.94665" lon="4.71437">
        <ele>182</ele>
        <time>2018-02-02T11:43:53Z</time>
      </trkpt>
      <trkpt lat="45.94656" lon="4.71436">
        <ele>182</ele>
        <time>2018-02-02T11:43:54Z</time>
      </trkpt>
      <trkpt lat="45.94649" lon="4.71435">
        <ele>182</ele>
        <time>2018-02-02T11:43:55Z</time>
      </trkpt>
      <trkpt lat="45.94642" lon="4.71435">
        <ele>182</ele>
        <time>2018-02-02T11:43:56Z</time>
      </trkpt>
      <trkpt lat="45.94635" lon="4.71434">
        <ele>182</ele>
        <time>2018-02-02T11:43:57Z</time>
      </trkpt>
      <trkpt lat="45.94627" lon="4.71433">
        <ele>182</ele>
        <time>2018-02-02T11:43:58Z</time>
      </trkpt>
      <trkpt lat="45.9462" lon="4.71432">
        <ele>182</ele>
        <time>2018-02-02T11:43:59Z</time>
      </trkpt>
      <trkpt lat="45.94614" lon="4.71432">
        <ele>182</ele>
        <time>2018-02-02T11:44:00Z</time>
      </trkpt>
      <trkpt lat="45.94607" lon="4.71432">
        <ele>182</ele>
        <time>2018-02-02T11:44:01Z</time>
      </trkpt>
      <trkpt lat="45.94601" lon="4.71432">
        <ele>182</ele>
        <time>2018-02-02T11:44:02Z</time>
      </trkpt>
      <trkpt lat="45.94594" lon="4.71432">
        <ele>183</ele>
        <time>2018-02-02T11:44:03Z</time>
      </trkpt>
      <trkpt lat="45.94587" lon="4.71433">
        <ele>183</ele>
        <time>2018-02-02T11:44:04Z</time>
      </trkpt>
      <trkpt lat="45.94581" lon="4.71433">
        <ele>183</ele>
        <time>2018-02-02T11:44:05Z</time>
      </trkpt>
      <trkpt lat="45.94575" lon="4.71433">
        <ele>182</ele>
        <time>2018-02-02T11:44:06Z</time>
      </trkpt>
      <trkpt lat="45.94568" lon="4.71433">
        <ele>182</ele>
        <time>2018-02-02T11:44:07Z</time>
      </trkpt>
      <trkpt lat="45.94563" lon="4.71435">
        <ele>182</ele>
        <time>2018-02-02T11:44:08Z</time>
      </trkpt>
      <trkpt lat="45.94557" lon="4.71436">
        <ele>181</ele>
        <time>2018-02-02T11:44:09Z</time>
      </trkpt>
      <trkpt lat="45.9455" lon="4.71438">
        <ele>181</ele>
        <time>2018-02-02T11:44:10Z</time>
      </trkpt>
      <trkpt lat="45.94545" lon="4.7144">
        <ele>181</ele>
        <time>2018-02-02T11:44:11Z</time>
      </trkpt>
      <trkpt lat="45.94539" lon="4.71443">
        <ele>181</ele>
        <time>2018-02-02T11:44:12Z</time>
      </trkpt>
      <trkpt lat="45.94532" lon="4.71446">
        <ele>180</ele>
        <time>2018-02-02T11:44:13Z</time>
      </trkpt>
      <trkpt lat="45.94525" lon="4.71449">
        <ele>180</ele>
        <time>2018-02-02T11:44:14Z</time>
      </trkpt>
      <trkpt lat="45.94518" lon="4.71452">
        <ele>180</ele>
        <time>2018-02-02T11:44:15Z</time>
      </trkpt>
      <trkpt lat="45.94512" lon="4.71454">
        <ele>180</ele>
        <time>2018-02-02T11:44:16Z</time>
      </trkpt>
      <trkpt lat="45.94505" lon="4.71456">
        <ele>180</ele>
        <time>2018-02-02T11:44:17Z</time>
      </trkpt>
      <trkpt lat="45.94499" lon="4.71458">
        <ele>179</ele>
        <time>2018-02-02T11:44:18Z</time>
      </trkpt>
      <trkpt lat="45.94491" lon="4.7146">
        <ele>179</ele>
        <time>2018-02-02T11:44:19Z</time>
      </trkpt>
      <trkpt lat="45.94488" lon="4.71462">
        <ele>179</ele>
        <time>2018-02-02T11:44:20Z</time>
      </trkpt>
      <trkpt lat="45.9448" lon="4.71464">
        <ele>179</ele>
        <time>2018-02-02T11:44:21Z</time>
      </trkpt>
      <trkpt lat="45.94474" lon="4.71467">
        <ele>179</ele>
        <time>2018-02-02T11:44:22Z</time>
      </trkpt>
      <trkpt lat="45.94468" lon="4.7147">
        <ele>179</ele>
        <time>2018-02-02T11:44:23Z</time>
      </trkpt>
      <trkpt lat="45.94462" lon="4.71471">
        <ele>179</ele>
        <time>2018-02-02T11:44:24Z</time>
      </trkpt>
      <trkpt lat="45.94456" lon="4.71474">
        <ele>179</ele>
        <time>2018-02-02T11:44:25Z</time>
      </trkpt>
      <trkpt lat="45.94448" lon="4.71477">
        <ele>179</ele>
        <time>2018-02-02T11:44:26Z</time>
      </trkpt>
      <trkpt lat="45.94443" lon="4.71481">
        <ele>179</ele>
        <time>2018-02-02T11:44:27Z</time>
      </trkpt>
      <trkpt lat="45.94436" lon="4.71482">
        <ele>179</ele>
        <time>2018-02-02T11:44:28Z</time>
      </trkpt>
      <trkpt lat="45.94428" lon="4.71485">
        <ele>178</ele>
        <time>2018-02-02T11:44:29Z</time>
      </trkpt>
      <trkpt lat="45.94423" lon="4.71489">
        <ele>178</ele>
        <time>2018-02-02T11:44:30Z</time>
      </trkpt>
      <trkpt lat="45.94415" lon="4.71491">
        <ele>178</ele>
        <time>2018-02-02T11:44:31Z</time>
      </trkpt>
      <trkpt lat="45.94407" lon="4.71495">
        <ele>178</ele>
        <time>2018-02-02T11:44:32Z</time>
      </trkpt>
      <trkpt lat="45.94399" lon="4.71498">
        <ele>178</ele>
        <time>2018-02-02T11:44:33Z</time>
      </trkpt>
      <trkpt lat="45.94392" lon="4.715">
        <ele>177</ele>
        <time>2018-02-02T11:44:34Z</time>
      </trkpt>
      <trkpt lat="45.94385" lon="4.71502">
        <ele>177</ele>
        <time>2018-02-02T11:44:35Z</time>
      </trkpt>
      <trkpt lat="45.94379" lon="4.71504">
        <ele>177</ele>
        <time>2018-02-02T11:44:36Z</time>
      </trkpt>
      <trkpt lat="45.94372" lon="4.71506">
        <ele>176</ele>
        <time>2018-02-02T11:44:37Z</time>
      </trkpt>
      <trkpt lat="45.94363" lon="4.71508">
        <ele>176</ele>
        <time>2018-02-02T11:44:38Z</time>
      </trkpt>
      <trkpt lat="45.94356" lon="4.71512">
        <ele>176</ele>
        <time>2018-02-02T11:44:39Z</time>
      </trkpt>
      <trkpt lat="45.9435" lon="4.71515">
        <ele>176</ele>
        <time>2018-02-02T11:44:40Z</time>
      </trkpt>
      <trkpt lat="45.94342" lon="4.71518">
        <ele>176</ele>
        <time>2018-02-02T11:44:41Z</time>
      </trkpt>
      <trkpt lat="45.94334" lon="4.71521">
        <ele>176</ele>
        <time>2018-02-02T11:44:42Z</time>
      </trkpt>
      <trkpt lat="45.94327" lon="4.71524">
        <ele>176</ele>
        <time>2018-02-02T11:44:43Z</time>
      </trkpt>
      <trkpt lat="45.94316" lon="4.71528">
        <ele>175</ele>
        <time>2018-02-02T11:44:44Z</time>
      </trkpt>
      <trkpt lat="45.9431" lon="4.71531">
        <ele>175</ele>
        <time>2018-02-02T11:44:45Z</time>
      </trkpt>
      <trkpt lat="45.94303" lon="4.71534">
        <ele>175</ele>
        <time>2018-02-02T11:44:46Z</time>
      </trkpt>
      <trkpt lat="45.94296" lon="4.71538">
        <ele>175</ele>
        <time>2018-02-02T11:44:47Z</time>
      </trkpt>
      <trkpt lat="45.94289" lon="4.71539">
        <ele>175</ele>
        <time>2018-02-02T11:44:48Z</time>
      </trkpt>
      <trkpt lat="45.94282" lon="4.71542">
        <ele>175</ele>
        <time>2018-02-02T11:44:49Z</time>
      </trkpt>
      <trkpt lat="45.94275" lon="4.71544">
        <ele>175</ele>
        <time>2018-02-02T11:44:50Z</time>
      </trkpt>
      <trkpt lat="45.94268" lon="4.71548">
        <ele>175</ele>
        <time>2018-02-02T11:44:51Z</time>
      </trkpt>
      <trkpt lat="45.94261" lon="4.71551">
        <ele>175</ele>
        <time>2018-02-02T11:44:52Z</time>
      </trkpt>
      <trkpt lat="45.94254" lon="4.71554">
        <ele>175</ele>
        <time>2018-02-02T11:44:53Z</time>
      </trkpt>
      <trkpt lat="45.94247" lon="4.71556">
        <ele>174</ele>
        <time>2018-02-02T11:44:54Z</time>
      </trkpt>
      <trkpt lat="45.94239" lon="4.71559">
        <ele>174</ele>
        <time>2018-02-02T11:44:55Z</time>
      </trkpt>
      <trkpt lat="45.94232" lon="4.71562">
        <ele>174</ele>
        <time>2018-02-02T11:44:56Z</time>
      </trkpt>
      <trkpt lat="45.94225" lon="4.71564">
        <ele>174</ele>
        <time>2018-02-02T11:44:57Z</time>
      </trkpt>
      <trkpt lat="45.9422" lon="4.71567">
        <ele>174</ele>
        <time>2018-02-02T11:44:58Z</time>
      </trkpt>
      <trkpt lat="45.94212" lon="4.71569">
        <ele>174</ele>
        <time>2018-02-02T11:44:59Z</time>
      </trkpt>
      <trkpt lat="45.94207" lon="4.71571">
        <ele>174</ele>
        <time>2018-02-02T11:45:00Z</time>
      </trkpt>
      <trkpt lat="45.94201" lon="4.71574">
        <ele>174</ele>
        <time>2018-02-02T11:45:01Z</time>
      </trkpt>
      <trkpt lat="45.94197" lon="4.71577">
        <ele>174</ele>
        <time>2018-02-02T11:45:02Z</time>
      </trkpt>
      <trkpt lat="45.94191" lon="4.7158">
        <ele>174</ele>
        <time>2018-02-02T11:45:03Z</time>
      </trkpt>
      <trkpt lat="45.94186" lon="4.71582">
        <ele>174</ele>
        <time>2018-02-02T11:45:04Z</time>
      </trkpt>
      <trkpt lat="45.94179" lon="4.71585">
        <ele>174</ele>
        <time>2018-02-02T11:45:05Z</time>
      </trkpt>
      <trkpt lat="45.94173" lon="4.71587">
        <ele>174</ele>
        <time>2018-02-02T11:45:06Z</time>
      </trkpt>
      <trkpt lat="45.94166" lon="4.71589">
        <ele>174</ele>
        <time>2018-02-02T11:45:07Z</time>
      </trkpt>
      <trkpt lat="45.9416" lon="4.71592">
        <ele>174</ele>
        <time>2018-02-02T11:45:08Z</time>
      </trkpt>
      <trkpt lat="45.94155" lon="4.71595">
        <ele>173</ele>
        <time>2018-02-02T11:45:09Z</time>
      </trkpt>
      <trkpt lat="45.94149" lon="4.71596">
        <ele>173</ele>
        <time>2018-02-02T11:45:10Z</time>
      </trkpt>
      <trkpt lat="45.94143" lon="4.71598">
        <ele>173</ele>
        <time>2018-02-02T11:45:11Z</time>
      </trkpt>
      <trkpt lat="45.94137" lon="4.716">
        <ele>173</ele>
        <time>2018-02-02T11:45:12Z</time>
      </trkpt>
      <trkpt lat="45.94131" lon="4.71603">
        <ele>173</ele>
        <time>2018-02-02T11:45:13Z</time>
      </trkpt>
      <trkpt lat="45.94125" lon="4.71605">
        <ele>173</ele>
        <time>2018-02-02T11:45:14Z</time>
      </trkpt>
      <trkpt lat="45.94119" lon="4.71606">
        <ele>173</ele>
        <time>2018-02-02T11:45:15Z</time>
      </trkpt>
      <trkpt lat="45.94112" lon="4.71609">
        <ele>173</ele>
        <time>2018-02-02T11:45:16Z</time>
      </trkpt>
      <trkpt lat="45.94106" lon="4.71612">
        <ele>173</ele>
        <time>2018-02-02T11:45:17Z</time>
      </trkpt>
      <trkpt lat="45.94101" lon="4.71614">
        <ele>173</ele>
        <time>2018-02-02T11:45:18Z</time>
      </trkpt>
      <trkpt lat="45.94095" lon="4.71616">
        <ele>173</ele>
        <time>2018-02-02T11:45:19Z</time>
      </trkpt>
      <trkpt lat="45.94089" lon="4.71619">
        <ele>173</ele>
        <time>2018-02-02T11:45:20Z</time>
      </trkpt>
      <trkpt lat="45.94082" lon="4.71622">
        <ele>174</ele>
        <time>2018-02-02T11:45:21Z</time>
      </trkpt>
      <trkpt lat="45.94075" lon="4.71625">
        <ele>174</ele>
        <time>2018-02-02T11:45:22Z</time>
      </trkpt>
      <trkpt lat="45.9407" lon="4.71626">
        <ele>174</ele>
        <time>2018-02-02T11:45:23Z</time>
      </trkpt>
      <trkpt lat="45.94064" lon="4.71628">
        <ele>174</ele>
        <time>2018-02-02T11:45:24Z</time>
      </trkpt>
      <trkpt lat="45.94059" lon="4.7163">
        <ele>174</ele>
        <time>2018-02-02T11:45:25Z</time>
      </trkpt>
      <trkpt lat="45.94054" lon="4.71632">
        <ele>175</ele>
        <time>2018-02-02T11:45:26Z</time>
      </trkpt>
      <trkpt lat="45.94048" lon="4.71634">
        <ele>175</ele>
        <time>2018-02-02T11:45:27Z</time>
      </trkpt>
      <trkpt lat="45.94043" lon="4.71636">
        <ele>175</ele>
        <time>2018-02-02T11:45:28Z</time>
      </trkpt>
      <trkpt lat="45.94038" lon="4.71638">
        <ele>175</ele>
        <time>2018-02-02T11:45:29Z</time>
      </trkpt>
      <trkpt lat="45.94032" lon="4.71639">
        <ele>175</ele>
        <time>2018-02-02T11:45:30Z</time>
      </trkpt>
      <trkpt lat="45.94027" lon="4.71642">
        <ele>175</ele>
        <time>2018-02-02T11:45:31Z</time>
      </trkpt>
      <trkpt lat="45.94024" lon="4.71645">
        <ele>175</ele>
        <time>2018-02-02T11:45:32Z</time>
      </trkpt>
      <trkpt lat="45.9402" lon="4.71647">
        <ele>175</ele>
        <time>2018-02-02T11:45:33Z</time>
      </trkpt>
      <trkpt lat="45.94014" lon="4.71651">
        <ele>176</ele>
        <time>2018-02-02T11:45:34Z</time>
      </trkpt>
      <trkpt lat="45.94008" lon="4.71654">
        <ele>176</ele>
        <time>2018-02-02T11:45:35Z</time>
      </trkpt>
      <trkpt lat="45.94003" lon="4.71656">
        <ele>176</ele>
        <time>2018-02-02T11:45:36Z</time>
      </trkpt>
      <trkpt lat="45.93998" lon="4.71657">
        <ele>177</ele>
        <time>2018-02-02T11:45:37Z</time>
      </trkpt>
      <trkpt lat="45.93993" lon="4.71659">
        <ele>177</ele>
        <time>2018-02-02T11:45:38Z</time>
      </trkpt>
      <trkpt lat="45.93986" lon="4.7166">
        <ele>177</ele>
        <time>2018-02-02T11:45:39Z</time>
      </trkpt>
      <trkpt lat="45.9398" lon="4.7166">
        <ele>177</ele>
        <time>2018-02-02T11:45:40Z</time>
      </trkpt>
      <trkpt lat="45.93975" lon="4.71662">
        <ele>177</ele>
        <time>2018-02-02T11:45:41Z</time>
      </trkpt>
      <trkpt lat="45.93969" lon="4.71663">
        <ele>177</ele>
        <time>2018-02-02T11:45:42Z</time>
      </trkpt>
      <trkpt lat="45.93964" lon="4.71665">
        <ele>177</ele>
        <time>2018-02-02T11:45:43Z</time>
      </trkpt>
      <trkpt lat="45.93959" lon="4.71668">
        <ele>175</ele>
        <time>2018-02-02T11:45:44Z</time>
      </trkpt>
      <trkpt lat="45.93954" lon="4.71668">
        <ele>175</ele>
        <time>2018-02-02T11:45:45Z</time>
      </trkpt>
      <trkpt lat="45.93949" lon="4.71671">
        <ele>175</ele>
        <time>2018-02-02T11:45:46Z</time>
      </trkpt>
      <trkpt lat="45.93944" lon="4.71673">
        <ele>175</ele>
        <time>2018-02-02T11:45:47Z</time>
      </trkpt>
      <trkpt lat="45.93938" lon="4.71675">
        <ele>175</ele>
        <time>2018-02-02T11:45:48Z</time>
      </trkpt>
      <trkpt lat="45.93931" lon="4.71677">
        <ele>175</ele>
        <time>2018-02-02T11:45:49Z</time>
      </trkpt>
      <trkpt lat="45.93925" lon="4.71679">
        <ele>175</ele>
        <time>2018-02-02T11:45:50Z</time>
      </trkpt>
      <trkpt lat="45.9392" lon="4.71681">
        <ele>175</ele>
        <time>2018-02-02T11:45:51Z</time>
      </trkpt>
      <trkpt lat="45.93914" lon="4.71683">
        <ele>175</ele>
        <time>2018-02-02T11:45:52Z</time>
      </trkpt>
      <trkpt lat="45.93909" lon="4.71684">
        <ele>174</ele>
        <time>2018-02-02T11:45:53Z</time>
      </trkpt>
      <trkpt lat="45.93904" lon="4.71686">
        <ele>174</ele>
        <time>2018-02-02T11:45:54Z</time>
      </trkpt>
      <trkpt lat="45.93899" lon="4.71688">
        <ele>174</ele>
        <time>2018-02-02T11:45:55Z</time>
      </trkpt>
      <trkpt lat="45.93893" lon="4.71691">
        <ele>174</ele>
        <time>2018-02-02T11:45:56Z</time>
      </trkpt>
      <trkpt lat="45.93887" lon="4.71693">
        <ele>174</ele>
        <time>2018-02-02T11:45:57Z</time>
      </trkpt>
      <trkpt lat="45.93882" lon="4.71696">
        <ele>174</ele>
        <time>2018-02-02T11:45:58Z</time>
      </trkpt>
      <trkpt lat="45.93875" lon="4.71699">
        <ele>174</ele>
        <time>2018-02-02T11:45:59Z</time>
      </trkpt>
      <trkpt lat="45.9387" lon="4.71702">
        <ele>174</ele>
        <time>2018-02-02T11:46:00Z</time>
      </trkpt>
      <trkpt lat="45.93865" lon="4.71704">
        <ele>174</ele>
        <time>2018-02-02T11:46:01Z</time>
      </trkpt>
      <trkpt lat="45.93859" lon="4.71706">
        <ele>174</ele>
        <time>2018-02-02T11:46:02Z</time>
      </trkpt>
      <trkpt lat="45.93852" lon="4.71709">
        <ele>174</ele>
        <time>2018-02-02T11:46:03Z</time>
      </trkpt>
      <trkpt lat="45.93847" lon="4.71712">
        <ele>174</ele>
        <time>2018-02-02T11:46:04Z</time>
      </trkpt>
      <trkpt lat="45.9384" lon="4.71713">
        <ele>175</ele>
        <time>2018-02-02T11:46:05Z</time>
      </trkpt>
      <trkpt lat="45.93836" lon="4.71715">
        <ele>175</ele>
        <time>2018-02-02T11:46:06Z</time>
      </trkpt>
      <trkpt lat="45.93831" lon="4.71718">
        <ele>175</ele>
        <time>2018-02-02T11:46:07Z</time>
      </trkpt>
      <trkpt lat="45.93825" lon="4.7172">
        <ele>175</ele>
        <time>2018-02-02T11:46:08Z</time>
      </trkpt>
      <trkpt lat="45.93819" lon="4.71722">
        <ele>175</ele>
        <time>2018-02-02T11:46:09Z</time>
      </trkpt>
      <trkpt lat="45.93814" lon="4.71724">
        <ele>175</ele>
        <time>2018-02-02T11:46:10Z</time>
      </trkpt>
      <trkpt lat="45.93808" lon="4.71727">
        <ele>175</ele>
        <time>2018-02-02T11:46:11Z</time>
      </trkpt>
      <trkpt lat="45.93801" lon="4.7173">
        <ele>175</ele>
        <time>2018-02-02T11:46:12Z</time>
      </trkpt>
      <trkpt lat="45.93797" lon="4.71731">
        <ele>175</ele>
        <time>2018-02-02T11:46:13Z</time>
      </trkpt>
      <trkpt lat="45.93791" lon="4.71735">
        <ele>175</ele>
        <time>2018-02-02T11:46:14Z</time>
      </trkpt>
      <trkpt lat="45.93785" lon="4.71737">
        <ele>175</ele>
        <time>2018-02-02T11:46:15Z</time>
      </trkpt>
      <trkpt lat="45.93779" lon="4.71739">
        <ele>175</ele>
        <time>2018-02-02T11:46:16Z</time>
      </trkpt>
      <trkpt lat="45.93774" lon="4.71741">
        <ele>175</ele>
        <time>2018-02-02T11:46:17Z</time>
      </trkpt>
      <trkpt lat="45.93767" lon="4.71743">
        <ele>175</ele>
        <time>2018-02-02T11:46:18Z</time>
      </trkpt>
      <trkpt lat="45.93762" lon="4.71745">
        <ele>175</ele>
        <time>2018-02-02T11:46:19Z</time>
      </trkpt>
      <trkpt lat="45.93753" lon="4.71749">
        <ele>175</ele>
        <time>2018-02-02T11:46:20Z</time>
      </trkpt>
      <trkpt lat="45.93747" lon="4.71751">
        <ele>175</ele>
        <time>2018-02-02T11:46:21Z</time>
      </trkpt>
      <trkpt lat="45.9374" lon="4.71754">
        <ele>175</ele>
        <time>2018-02-02T11:46:22Z</time>
      </trkpt>
      <trkpt lat="45.93735" lon="4.71756">
        <ele>176</ele>
        <time>2018-02-02T11:46:23Z</time>
      </trkpt>
      <trkpt lat="45.93729" lon="4.7176">
        <ele>176</ele>
        <time>2018-02-02T11:46:24Z</time>
      </trkpt>
      <trkpt lat="45.93724" lon="4.71763">
        <ele>176</ele>
        <time>2018-02-02T11:46:25Z</time>
      </trkpt>
      <trkpt lat="45.93719" lon="4.71767">
        <ele>176</ele>
        <time>2018-02-02T11:46:26Z</time>
      </trkpt>
      <trkpt lat="45.93715" lon="4.71773">
        <ele>176</ele>
        <time>2018-02-02T11:46:27Z</time>
      </trkpt>
      <trkpt lat="45.93713" lon="4.7178">
        <ele>176</ele>
        <time>2018-02-02T11:46:28Z</time>
      </trkpt>
      <trkpt lat="45.93711" lon="4.71788">
        <ele>176</ele>
        <time>2018-02-02T11:46:29Z</time>
      </trkpt>
      <trkpt lat="45.93709" lon="4.71797">
        <ele>176</ele>
        <time>2018-02-02T11:46:30Z</time>
      </trkpt>
      <trkpt lat="45.93708" lon="4.71806">
        <ele>176</ele>
        <time>2018-02-02T11:46:31Z</time>
      </trkpt>
      <trkpt lat="45.93706" lon="4.71814">
        <ele>176</ele>
        <time>2018-02-02T11:46:32Z</time>
      </trkpt>
      <trkpt lat="45.93704" lon="4.71823">
        <ele>176</ele>
        <time>2018-02-02T11:46:33Z</time>
      </trkpt>
      <trkpt lat="45.93702" lon="4.71831">
        <ele>176</ele>
        <time>2018-02-02T11:46:34Z</time>
      </trkpt>
      <trkpt lat="45.93698" lon="4.7184">
        <ele>175</ele>
        <time>2018-02-02T11:46:35Z</time>
      </trkpt>
      <trkpt lat="45.93695" lon="4.71847">
        <ele>175</ele>
        <time>2018-02-02T11:46:36Z</time>
      </trkpt>
      <trkpt lat="45.93692" lon="4.71854">
        <ele>175</ele>
        <time>2018-02-02T11:46:37Z</time>
      </trkpt>
      <trkpt lat="45.93688" lon="4.71861">
        <ele>175</ele>
        <time>2018-02-02T11:46:38Z</time>
      </trkpt>
      <trkpt lat="45.93685" lon="4.7187">
        <ele>175</ele>
        <time>2018-02-02T11:46:39Z</time>
      </trkpt>
      <trkpt lat="45.93683" lon="4.71878">
        <ele>175</ele>
        <time>2018-02-02T11:46:40Z</time>
      </trkpt>
      <trkpt lat="45.93682" lon="4.71886">
        <ele>175</ele>
        <time>2018-02-02T11:46:41Z</time>
      </trkpt>
      <trkpt lat="45.93679" lon="4.71894">
        <ele>175</ele>
        <time>2018-02-02T11:46:42Z</time>
      </trkpt>
      <trkpt lat="45.93677" lon="4.71903">
        <ele>175</ele>
        <time>2018-02-02T11:46:43Z</time>
      </trkpt>
      <trkpt lat="45.93673" lon="4.71911">
        <ele>175</ele>
        <time>2018-02-02T11:46:44Z</time>
      </trkpt>
      <trkpt lat="45.93672" lon="4.71921">
        <ele>174</ele>
        <time>2018-02-02T11:46:45Z</time>
      </trkpt>
      <trkpt lat="45.93669" lon="4.71928">
        <ele>174</ele>
        <time>2018-02-02T11:46:46Z</time>
      </trkpt>
      <trkpt lat="45.93665" lon="4.71936">
        <ele>175</ele>
        <time>2018-02-02T11:46:47Z</time>
      </trkpt>
      <trkpt lat="45.93663" lon="4.71944">
        <ele>175</ele>
        <time>2018-02-02T11:46:48Z</time>
      </trkpt>
      <trkpt lat="45.93659" lon="4.71953">
        <ele>175</ele>
        <time>2018-02-02T11:46:49Z</time>
      </trkpt>
      <trkpt lat="45.93656" lon="4.7196">
        <ele>175</ele>
        <time>2018-02-02T11:46:50Z</time>
      </trkpt>
      <trkpt lat="45.93652" lon="4.71968">
        <ele>175</ele>
        <time>2018-02-02T11:46:51Z</time>
      </trkpt>
      <trkpt lat="45.93649" lon="4.71978">
        <ele>175</ele>
        <time>2018-02-02T11:46:52Z</time>
      </trkpt>
      <trkpt lat="45.93646" lon="4.71986">
        <ele>175</ele>
        <time>2018-02-02T11:46:53Z</time>
      </trkpt>
      <trkpt lat="45.93642" lon="4.71995">
        <ele>175</ele>
        <time>2018-02-02T11:46:54Z</time>
      </trkpt>
      <trkpt lat="45.93639" lon="4.72003">
        <ele>174</ele>
        <time>2018-02-02T11:46:55Z</time>
      </trkpt>
      <trkpt lat="45.93634" lon="4.72012">
        <ele>174</ele>
        <time>2018-02-02T11:46:56Z</time>
      </trkpt>
      <trkpt lat="45.93631" lon="4.7202">
        <ele>174</ele>
        <time>2018-02-02T11:46:57Z</time>
      </trkpt>
      <trkpt lat="45.93628" lon="4.72028">
        <ele>175</ele>
        <time>2018-02-02T11:46:58Z</time>
      </trkpt>
      <trkpt lat="45.93625" lon="4.72036">
        <ele>175</ele>
        <time>2018-02-02T11:46:59Z</time>
      </trkpt>
      <trkpt lat="45.93621" lon="4.72043">
        <ele>175</ele>
        <time>2018-02-02T11:47:00Z</time>
      </trkpt>
      <trkpt lat="45.93617" lon="4.72048">
        <ele>175</ele>
        <time>2018-02-02T11:47:01Z</time>
      </trkpt>
      <trkpt lat="45.93615" lon="4.72055">
        <ele>175</ele>
        <time>2018-02-02T11:47:02Z</time>
      </trkpt>
      <trkpt lat="45.93612" lon="4.72062">
        <ele>175</ele>
        <time>2018-02-02T11:47:03Z</time>
      </trkpt>
      <trkpt lat="45.93612" lon="4.72069">
        <ele>175</ele>
        <time>2018-02-02T11:47:04Z</time>
      </trkpt>
      <trkpt lat="45.9361" lon="4.72076">
        <ele>175</ele>
        <time>2018-02-02T11:47:05Z</time>
      </trkpt>
      <trkpt lat="45.93608" lon="4.72084">
        <ele>174</ele>
        <time>2018-02-02T11:47:06Z</time>
      </trkpt>
      <trkpt lat="45.93604" lon="4.72092">
        <ele>174</ele>
        <time>2018-02-02T11:47:07Z</time>
      </trkpt>
      <trkpt lat="45.93601" lon="4.721">
        <ele>174</ele>
        <time>2018-02-02T11:47:08Z</time>
      </trkpt>
      <trkpt lat="45.93599" lon="4.72107">
        <ele>174</ele>
        <time>2018-02-02T11:47:09Z</time>
      </trkpt>
      <trkpt lat="45.93595" lon="4.72115">
        <ele>174</ele>
        <time>2018-02-02T11:47:10Z</time>
      </trkpt>
      <trkpt lat="45.9359" lon="4.7212">
        <ele>174</ele>
        <time>2018-02-02T11:47:11Z</time>
      </trkpt>
      <trkpt lat="45.93587" lon="4.72128">
        <ele>174</ele>
        <time>2018-02-02T11:47:12Z</time>
      </trkpt>
      <trkpt lat="45.93583" lon="4.72135">
        <ele>174</ele>
        <time>2018-02-02T11:47:13Z</time>
      </trkpt>
      <trkpt lat="45.9358" lon="4.72143">
        <ele>174</ele>
        <time>2018-02-02T11:47:14Z</time>
      </trkpt>
      <trkpt lat="45.93578" lon="4.72151">
        <ele>174</ele>
        <time>2018-02-02T11:47:15Z</time>
      </trkpt>
      <trkpt lat="45.93577" lon="4.72159">
        <ele>174</ele>
        <time>2018-02-02T11:47:16Z</time>
      </trkpt>
      <trkpt lat="45.93573" lon="4.72165">
        <ele>173</ele>
        <time>2018-02-02T11:47:17Z</time>
      </trkpt>
      <trkpt lat="45.93571" lon="4.72173">
        <ele>173</ele>
        <time>2018-02-02T11:47:18Z</time>
      </trkpt>
      <trkpt lat="45.93566" lon="4.72181">
        <ele>173</ele>
        <time>2018-02-02T11:47:19Z</time>
      </trkpt>
      <trkpt lat="45.93565" lon="4.72188">
        <ele>173</ele>
        <time>2018-02-02T11:47:20Z</time>
      </trkpt>
      <trkpt lat="45.93561" lon="4.72197">
        <ele>173</ele>
        <time>2018-02-02T11:47:22Z</time>
      </trkpt>
      <trkpt lat="45.93558" lon="4.72201">
        <ele>173</ele>
        <time>2018-02-02T11:47:23Z</time>
      </trkpt>
      <trkpt lat="45.93554" lon="4.72209">
        <ele>173</ele>
        <time>2018-02-02T11:47:24Z</time>
      </trkpt>
      <trkpt lat="45.93549" lon="4.72217">
        <ele>173</ele>
        <time>2018-02-02T11:47:25Z</time>
      </trkpt>
      <trkpt lat="45.93548" lon="4.72224">
        <ele>172</ele>
        <time>2018-02-02T11:47:26Z</time>
      </trkpt>
      <trkpt lat="45.93542" lon="4.72232">
        <ele>172</ele>
        <time>2018-02-02T11:47:27Z</time>
      </trkpt>
      <trkpt lat="45.9354" lon="4.72237">
        <ele>172</ele>
        <time>2018-02-02T11:47:28Z</time>
      </trkpt>
      <trkpt lat="45.93538" lon="4.72243">
        <ele>172</ele>
        <time>2018-02-02T11:47:29Z</time>
      </trkpt>
      <trkpt lat="45.93536" lon="4.7225">
        <ele>172</ele>
        <time>2018-02-02T11:47:30Z</time>
      </trkpt>
      <trkpt lat="45.93535" lon="4.72257">
        <ele>172</ele>
        <time>2018-02-02T11:47:31Z</time>
      </trkpt>
      <trkpt lat="45.93532" lon="4.72264">
        <ele>172</ele>
        <time>2018-02-02T11:47:32Z</time>
      </trkpt>
      <trkpt lat="45.9353" lon="4.7227">
        <ele>172</ele>
        <time>2018-02-02T11:47:33Z</time>
      </trkpt>
      <trkpt lat="45.93527" lon="4.72276">
        <ele>172</ele>
        <time>2018-02-02T11:47:34Z</time>
      </trkpt>
      <trkpt lat="45.93523" lon="4.72283">
        <ele>172</ele>
        <time>2018-02-02T11:47:35Z</time>
      </trkpt>
      <trkpt lat="45.9352" lon="4.7229">
        <ele>172</ele>
        <time>2018-02-02T11:47:36Z</time>
      </trkpt>
      <trkpt lat="45.93518" lon="4.72298">
        <ele>172</ele>
        <time>2018-02-02T11:47:37Z</time>
      </trkpt>
      <trkpt lat="45.93513" lon="4.72304">
        <ele>173</ele>
        <time>2018-02-02T11:47:38Z</time>
      </trkpt>
      <trkpt lat="45.93508" lon="4.7231">
        <ele>173</ele>
        <time>2018-02-02T11:47:39Z</time>
      </trkpt>
      <trkpt lat="45.93504" lon="4.72317">
        <ele>173</ele>
        <time>2018-02-02T11:47:40Z</time>
      </trkpt>
      <trkpt lat="45.935" lon="4.72325">
        <ele>173</ele>
        <time>2018-02-02T11:47:41Z</time>
      </trkpt>
      <trkpt lat="45.93496" lon="4.7233">
        <ele>173</ele>
        <time>2018-02-02T11:47:42Z</time>
      </trkpt>
      <trkpt lat="45.93492" lon="4.72336">
        <ele>173</ele>
        <time>2018-02-02T11:47:43Z</time>
      </trkpt>
      <trkpt lat="45.93487" lon="4.72343">
        <ele>173</ele>
        <time>2018-02-02T11:47:44Z</time>
      </trkpt>
      <trkpt lat="45.93482" lon="4.72348">
        <ele>173</ele>
        <time>2018-02-02T11:47:45Z</time>
      </trkpt>
      <trkpt lat="45.93479" lon="4.72353">
        <ele>173</ele>
        <time>2018-02-02T11:47:46Z</time>
      </trkpt>
      <trkpt lat="45.93475" lon="4.72358">
        <ele>173</ele>
        <time>2018-02-02T11:47:47Z</time>
      </trkpt>
      <trkpt lat="45.93472" lon="4.72362">
        <ele>173</ele>
        <time>2018-02-02T11:47:48Z</time>
      </trkpt>
      <trkpt lat="45.93467" lon="4.72368">
        <ele>173</ele>
        <time>2018-02-02T11:47:49Z</time>
      </trkpt>
      <trkpt lat="45.93464" lon="4.72372">
        <ele>173</ele>
        <time>2018-02-02T11:47:50Z</time>
      </trkpt>
      <trkpt lat="45.93458" lon="4.72376">
        <ele>173</ele>
        <time>2018-02-02T11:47:51Z</time>
      </trkpt>
      <trkpt lat="45.93453" lon="4.7238">
        <ele>173</ele>
        <time>2018-02-02T11:47:52Z</time>
      </trkpt>
      <trkpt lat="45.93447" lon="4.72384">
        <ele>173</ele>
        <time>2018-02-02T11:47:53Z</time>
      </trkpt>
      <trkpt lat="45.93443" lon="4.72388">
        <ele>173</ele>
        <time>2018-02-02T11:47:54Z</time>
      </trkpt>
      <trkpt lat="45.93437" lon="4.72392">
        <ele>173</ele>
        <time>2018-02-02T11:47:55Z</time>
      </trkpt>
      <trkpt lat="45.9343" lon="4.72394">
        <ele>173</ele>
        <time>2018-02-02T11:47:56Z</time>
      </trkpt>
      <trkpt lat="45.93425" lon="4.72397">
        <ele>174</ele>
        <time>2018-02-02T11:47:57Z</time>
      </trkpt>
      <trkpt lat="45.9342" lon="4.724">
        <ele>174</ele>
        <time>2018-02-02T11:47:59Z</time>
      </trkpt>
      <trkpt lat="45.93417" lon="4.72403">
        <ele>174</ele>
        <time>2018-02-02T11:48:00Z</time>
      </trkpt>
      <trkpt lat="45.9341" lon="4.72404">
        <ele>174</ele>
        <time>2018-02-02T11:48:01Z</time>
      </trkpt>
      <trkpt lat="45.93405" lon="4.72404">
        <ele>174</ele>
        <time>2018-02-02T11:48:02Z</time>
      </trkpt>
      <trkpt lat="45.934" lon="4.72404">
        <ele>174</ele>
        <time>2018-02-02T11:48:03Z</time>
      </trkpt>
      <trkpt lat="45.93394" lon="4.72406">
        <ele>174</ele>
        <time>2018-02-02T11:48:04Z</time>
      </trkpt>
      <trkpt lat="45.93388" lon="4.72414">
        <ele>174</ele>
        <time>2018-02-02T11:48:06Z</time>
      </trkpt>
      <trkpt lat="45.93383" lon="4.72422">
        <ele>173</ele>
        <time>2018-02-02T11:48:07Z</time>
      </trkpt>
      <trkpt lat="45.93385" lon="4.72429">
        <ele>173</ele>
        <time>2018-02-02T11:48:08Z</time>
      </trkpt>
      <trkpt lat="45.93385" lon="4.72437">
        <ele>173</ele>
        <time>2018-02-02T11:48:09Z</time>
      </trkpt>
      <trkpt lat="45.93387" lon="4.72444">
        <ele>173</ele>
        <time>2018-02-02T11:48:10Z</time>
      </trkpt>
      <trkpt lat="45.93388" lon="4.72453">
        <ele>173</ele>
        <time>2018-02-02T11:48:11Z</time>
      </trkpt>
      <trkpt lat="45.93387" lon="4.7246">
        <ele>173</ele>
        <time>2018-02-02T11:48:12Z</time>
      </trkpt>
      <trkpt lat="45.93386" lon="4.72466">
        <ele>173</ele>
        <time>2018-02-02T11:48:13Z</time>
      </trkpt>
      <trkpt lat="45.93383" lon="4.7247">
        <ele>173</ele>
        <time>2018-02-02T11:48:14Z</time>
      </trkpt>
      <trkpt lat="45.93378" lon="4.72474">
        <ele>173</ele>
        <time>2018-02-02T11:48:15Z</time>
      </trkpt>
      <trkpt lat="45.93374" lon="4.72479">
        <ele>173</ele>
        <time>2018-02-02T11:48:16Z</time>
      </trkpt>
      <trkpt lat="45.9337" lon="4.72484">
        <ele>173</ele>
        <time>2018-02-02T11:48:17Z</time>
      </trkpt>
      <trkpt lat="45.93365" lon="4.72489">
        <ele>173</ele>
        <time>2018-02-02T11:48:18Z</time>
      </trkpt>
      <trkpt lat="45.9336" lon="4.72495">
        <ele>173</ele>
        <time>2018-02-02T11:48:19Z</time>
      </trkpt>
      <trkpt lat="45.93356" lon="4.725">
        <ele>172</ele>
        <time>2018-02-02T11:48:20Z</time>
      </trkpt>
      <trkpt lat="45.93351" lon="4.72507">
        <ele>172</ele>
        <time>2018-02-02T11:48:21Z</time>
      </trkpt>
      <trkpt lat="45.93346" lon="4.72512">
        <ele>172</ele>
        <time>2018-02-02T11:48:22Z</time>
      </trkpt>
      <trkpt lat="45.93341" lon="4.72518">
        <ele>172</ele>
        <time>2018-02-02T11:48:23Z</time>
      </trkpt>
      <trkpt lat="45.93337" lon="4.72525">
        <ele>172</ele>
        <time>2018-02-02T11:48:24Z</time>
      </trkpt>
      <trkpt lat="45.93333" lon="4.7253">
        <ele>172</ele>
        <time>2018-02-02T11:48:25Z</time>
      </trkpt>
      <trkpt lat="45.93329" lon="4.72537">
        <ele>172</ele>
        <time>2018-02-02T11:48:26Z</time>
      </trkpt>
      <trkpt lat="45.93323" lon="4.72544">
        <ele>172</ele>
        <time>2018-02-02T11:48:27Z</time>
      </trkpt>
      <trkpt lat="45.93318" lon="4.72549">
        <ele>172</ele>
        <time>2018-02-02T11:48:28Z</time>
      </trkpt>
      <trkpt lat="45.93314" lon="4.72555">
        <ele>172</ele>
        <time>2018-02-02T11:48:29Z</time>
      </trkpt>
      <trkpt lat="45.93305" lon="4.7256">
        <ele>172</ele>
        <time>2018-02-02T11:48:30Z</time>
      </trkpt>
      <trkpt lat="45.93301" lon="4.72566">
        <ele>172</ele>
        <time>2018-02-02T11:48:31Z</time>
      </trkpt>
      <trkpt lat="45.93296" lon="4.7257">
        <ele>172</ele>
        <time>2018-02-02T11:48:32Z</time>
      </trkpt>
      <trkpt lat="45.93292" lon="4.72575">
        <ele>171</ele>
        <time>2018-02-02T11:48:33Z</time>
      </trkpt>
      <trkpt lat="45.93288" lon="4.72581">
        <ele>171</ele>
        <time>2018-02-02T11:48:34Z</time>
      </trkpt>
      <trkpt lat="45.93283" lon="4.72586">
        <ele>170</ele>
        <time>2018-02-02T11:48:35Z</time>
      </trkpt>
      <trkpt lat="45.93277" lon="4.72592">
        <ele>170</ele>
        <time>2018-02-02T11:48:36Z</time>
      </trkpt>
      <trkpt lat="45.93273" lon="4.72598">
        <ele>170</ele>
        <time>2018-02-02T11:48:37Z</time>
      </trkpt>
      <trkpt lat="45.93268" lon="4.72603">
        <ele>170</ele>
        <time>2018-02-02T11:48:38Z</time>
      </trkpt>
      <trkpt lat="45.93262" lon="4.72609">
        <ele>170</ele>
        <time>2018-02-02T11:48:39Z</time>
      </trkpt>
      <trkpt lat="45.93258" lon="4.72615">
        <ele>170</ele>
        <time>2018-02-02T11:48:40Z</time>
      </trkpt>
      <trkpt lat="45.93254" lon="4.7262">
        <ele>170</ele>
        <time>2018-02-02T11:48:41Z</time>
      </trkpt>
      <trkpt lat="45.9325" lon="4.72625">
        <ele>170</ele>
        <time>2018-02-02T11:48:42Z</time>
      </trkpt>
      <trkpt lat="45.93245" lon="4.72631">
        <ele>170</ele>
        <time>2018-02-02T11:48:43Z</time>
      </trkpt>
      <trkpt lat="45.9324" lon="4.72636">
        <ele>170</ele>
        <time>2018-02-02T11:48:44Z</time>
      </trkpt>
      <trkpt lat="45.93235" lon="4.72642">
        <ele>170</ele>
        <time>2018-02-02T11:48:45Z</time>
      </trkpt>
      <trkpt lat="45.9323" lon="4.72648">
        <ele>170</ele>
        <time>2018-02-02T11:48:46Z</time>
      </trkpt>
      <trkpt lat="45.93224" lon="4.72654">
        <ele>170</ele>
        <time>2018-02-02T11:48:47Z</time>
      </trkpt>
      <trkpt lat="45.9322" lon="4.72659">
        <ele>170</ele>
        <time>2018-02-02T11:48:48Z</time>
      </trkpt>
      <trkpt lat="45.93217" lon="4.72665">
        <ele>170</ele>
        <time>2018-02-02T11:48:49Z</time>
      </trkpt>
      <trkpt lat="45.93212" lon="4.72671">
        <ele>169</ele>
        <time>2018-02-02T11:48:50Z</time>
      </trkpt>
      <trkpt lat="45.93207" lon="4.72677">
        <ele>169</ele>
        <time>2018-02-02T11:48:51Z</time>
      </trkpt>
      <trkpt lat="45.93203" lon="4.72682">
        <ele>169</ele>
        <time>2018-02-02T11:48:52Z</time>
      </trkpt>
      <trkpt lat="45.93197" lon="4.72688">
        <ele>169</ele>
        <time>2018-02-02T11:48:53Z</time>
      </trkpt>
      <trkpt lat="45.93192" lon="4.72694">
        <ele>169</ele>
        <time>2018-02-02T11:48:54Z</time>
      </trkpt>
      <trkpt lat="45.93186" lon="4.727">
        <ele>169</ele>
        <time>2018-02-02T11:48:55Z</time>
      </trkpt>
      <trkpt lat="45.93181" lon="4.72706">
        <ele>169</ele>
        <time>2018-02-02T11:48:56Z</time>
      </trkpt>
      <trkpt lat="45.93176" lon="4.72711">
        <ele>169</ele>
        <time>2018-02-02T11:48:57Z</time>
      </trkpt>
      <trkpt lat="45.93171" lon="4.72717">
        <ele>170</ele>
        <time>2018-02-02T11:48:58Z</time>
      </trkpt>
      <trkpt lat="45.93167" lon="4.72722">
        <ele>170</ele>
        <time>2018-02-02T11:48:59Z</time>
      </trkpt>
      <trkpt lat="45.93162" lon="4.72728">
        <ele>170</ele>
        <time>2018-02-02T11:49:00Z</time>
      </trkpt>
      <trkpt lat="45.93157" lon="4.72733">
        <ele>170</ele>
        <time>2018-02-02T11:49:01Z</time>
      </trkpt>
      <trkpt lat="45.93151" lon="4.72739">
        <ele>170</ele>
        <time>2018-02-02T11:49:02Z</time>
      </trkpt>
      <trkpt lat="45.93146" lon="4.72744">
        <ele>170</ele>
        <time>2018-02-02T11:49:03Z</time>
      </trkpt>
      <trkpt lat="45.93141" lon="4.7275">
        <ele>170</ele>
        <time>2018-02-02T11:49:04Z</time>
      </trkpt>
      <trkpt lat="45.93137" lon="4.72756">
        <ele>171</ele>
        <time>2018-02-02T11:49:05Z</time>
      </trkpt>
      <trkpt lat="45.93132" lon="4.72762">
        <ele>171</ele>
        <time>2018-02-02T11:49:06Z</time>
      </trkpt>
      <trkpt lat="45.93127" lon="4.72768">
        <ele>171</ele>
        <time>2018-02-02T11:49:07Z</time>
      </trkpt>
      <trkpt lat="45.93122" lon="4.72773">
        <ele>171</ele>
        <time>2018-02-02T11:49:08Z</time>
      </trkpt>
      <trkpt lat="45.93116" lon="4.72781">
        <ele>171</ele>
        <time>2018-02-02T11:49:09Z</time>
      </trkpt>
      <trkpt lat="45.93111" lon="4.72787">
        <ele>171</ele>
        <time>2018-02-02T11:49:10Z</time>
      </trkpt>
      <trkpt lat="45.93107" lon="4.72794">
        <ele>171</ele>
        <time>2018-02-02T11:49:11Z</time>
      </trkpt>
      <trkpt lat="45.93104" lon="4.72799">
        <ele>171</ele>
        <time>2018-02-02T11:49:12Z</time>
      </trkpt>
      <trkpt lat="45.93099" lon="4.72804">
        <ele>171</ele>
        <time>2018-02-02T11:49:13Z</time>
      </trkpt>
      <trkpt lat="45.93095" lon="4.72808">
        <ele>172</ele>
        <time>2018-02-02T11:49:14Z</time>
      </trkpt>
      <trkpt lat="45.93091" lon="4.72813">
        <ele>172</ele>
        <time>2018-02-02T11:49:15Z</time>
      </trkpt>
      <trkpt lat="45.93087" lon="4.72817">
        <ele>172</ele>
        <time>2018-02-02T11:49:16Z</time>
      </trkpt>
      <trkpt lat="45.93082" lon="4.72821">
        <ele>173</ele>
        <time>2018-02-02T11:49:17Z</time>
      </trkpt>
      <trkpt lat="45.93078" lon="4.72825">
        <ele>173</ele>
        <time>2018-02-02T11:49:18Z</time>
      </trkpt>
      <trkpt lat="45.93075" lon="4.7283">
        <ele>173</ele>
        <time>2018-02-02T11:49:20Z</time>
      </trkpt>
      <trkpt lat="45.93066" lon="4.7284">
        <ele>173</ele>
        <time>2018-02-02T11:49:21Z</time>
      </trkpt>
      <trkpt lat="45.93063" lon="4.72844">
        <ele>172</ele>
        <time>2018-02-02T11:49:22Z</time>
      </trkpt>
      <trkpt lat="45.93061" lon="4.72851">
        <ele>172</ele>
        <time>2018-02-02T11:49:23Z</time>
      </trkpt>
      <trkpt lat="45.93055" lon="4.72856">
        <ele>172</ele>
        <time>2018-02-02T11:49:24Z</time>
      </trkpt>
      <trkpt lat="45.9305" lon="4.72859">
        <ele>172</ele>
        <time>2018-02-02T11:49:25Z</time>
      </trkpt>
      <trkpt lat="45.93044" lon="4.72867">
        <ele>172</ele>
        <time>2018-02-02T11:49:26Z</time>
      </trkpt>
      <trkpt lat="45.93041" lon="4.72872">
        <ele>172</ele>
        <time>2018-02-02T11:49:27Z</time>
      </trkpt>
      <trkpt lat="45.93037" lon="4.72879">
        <ele>172</ele>
        <time>2018-02-02T11:49:28Z</time>
      </trkpt>
      <trkpt lat="45.93031" lon="4.72885">
        <ele>172</ele>
        <time>2018-02-02T11:49:29Z</time>
      </trkpt>
      <trkpt lat="45.93027" lon="4.7289">
        <ele>172</ele>
        <time>2018-02-02T11:49:30Z</time>
      </trkpt>
      <trkpt lat="45.93021" lon="4.72896">
        <ele>172</ele>
        <time>2018-02-02T11:49:31Z</time>
      </trkpt>
      <trkpt lat="45.93018" lon="4.72902">
        <ele>172</ele>
        <time>2018-02-02T11:49:32Z</time>
      </trkpt>
      <trkpt lat="45.93013" lon="4.72907">
        <ele>171</ele>
        <time>2018-02-02T11:49:33Z</time>
      </trkpt>
      <trkpt lat="45.93011" lon="4.72913">
        <ele>171</ele>
        <time>2018-02-02T11:49:34Z</time>
      </trkpt>
      <trkpt lat="45.93006" lon="4.72919">
        <ele>171</ele>
        <time>2018-02-02T11:49:35Z</time>
      </trkpt>
      <trkpt lat="45.93" lon="4.72925">
        <ele>170</ele>
        <time>2018-02-02T11:49:36Z</time>
      </trkpt>
      <trkpt lat="45.92995" lon="4.72932">
        <ele>171</ele>
        <time>2018-02-02T11:49:37Z</time>
      </trkpt>
      <trkpt lat="45.9299" lon="4.72938">
        <ele>171</ele>
        <time>2018-02-02T11:49:38Z</time>
      </trkpt>
      <trkpt lat="45.92984" lon="4.72945">
        <ele>171</ele>
        <time>2018-02-02T11:49:39Z</time>
      </trkpt>
      <trkpt lat="45.92978" lon="4.72952">
        <ele>171</ele>
        <time>2018-02-02T11:49:40Z</time>
      </trkpt>
      <trkpt lat="45.92973" lon="4.72958">
        <ele>171</ele>
        <time>2018-02-02T11:49:41Z</time>
      </trkpt>
      <trkpt lat="45.92968" lon="4.72965">
        <ele>171</ele>
        <time>2018-02-02T11:49:42Z</time>
      </trkpt>
      <trkpt lat="45.92962" lon="4.72971">
        <ele>171</ele>
        <time>2018-02-02T11:49:43Z</time>
      </trkpt>
      <trkpt lat="45.92956" lon="4.72977">
        <ele>171</ele>
        <time>2018-02-02T11:49:44Z</time>
      </trkpt>
      <trkpt lat="45.92951" lon="4.72984">
        <ele>171</ele>
        <time>2018-02-02T11:49:45Z</time>
      </trkpt>
      <trkpt lat="45.92946" lon="4.72991">
        <ele>171</ele>
        <time>2018-02-02T11:49:46Z</time>
      </trkpt>
      <trkpt lat="45.92942" lon="4.72996">
        <ele>171</ele>
        <time>2018-02-02T11:49:47Z</time>
      </trkpt>
      <trkpt lat="45.92936" lon="4.73002">
        <ele>171</ele>
        <time>2018-02-02T11:49:48Z</time>
      </trkpt>
      <trkpt lat="45.92932" lon="4.73008">
        <ele>171</ele>
        <time>2018-02-02T11:49:49Z</time>
      </trkpt>
      <trkpt lat="45.92927" lon="4.73014">
        <ele>172</ele>
        <time>2018-02-02T11:49:50Z</time>
      </trkpt>
      <trkpt lat="45.92922" lon="4.73021">
        <ele>172</ele>
        <time>2018-02-02T11:49:51Z</time>
      </trkpt>
      <trkpt lat="45.92917" lon="4.73027">
        <ele>172</ele>
        <time>2018-02-02T11:49:52Z</time>
      </trkpt>
      <trkpt lat="45.92911" lon="4.73033">
        <ele>172</ele>
        <time>2018-02-02T11:49:53Z</time>
      </trkpt>
      <trkpt lat="45.92907" lon="4.73039">
        <ele>172</ele>
        <time>2018-02-02T11:49:54Z</time>
      </trkpt>
      <trkpt lat="45.92902" lon="4.73045">
        <ele>172</ele>
        <time>2018-02-02T11:49:55Z</time>
      </trkpt>
      <trkpt lat="45.92898" lon="4.73051">
        <ele>172</ele>
        <time>2018-02-02T11:49:56Z</time>
      </trkpt>
      <trkpt lat="45.92893" lon="4.73057">
        <ele>172</ele>
        <time>2018-02-02T11:49:57Z</time>
      </trkpt>
      <trkpt lat="45.9289" lon="4.73062">
        <ele>172</ele>
        <time>2018-02-02T11:49:58Z</time>
      </trkpt>
      <trkpt lat="45.92885" lon="4.73068">
        <ele>172</ele>
        <time>2018-02-02T11:49:59Z</time>
      </trkpt>
      <trkpt lat="45.92881" lon="4.73075">
        <ele>172</ele>
        <time>2018-02-02T11:50:00Z</time>
      </trkpt>
      <trkpt lat="45.92876" lon="4.73081">
        <ele>172</ele>
        <time>2018-02-02T11:50:01Z</time>
      </trkpt>
      <trkpt lat="45.92873" lon="4.73086">
        <ele>172</ele>
        <time>2018-02-02T11:50:02Z</time>
      </trkpt>
      <trkpt lat="45.92869" lon="4.73091">
        <ele>172</ele>
        <time>2018-02-02T11:50:03Z</time>
      </trkpt>
      <trkpt lat="45.92864" lon="4.73095">
        <ele>171</ele>
        <time>2018-02-02T11:50:04Z</time>
      </trkpt>
      <trkpt lat="45.9286" lon="4.73097">
        <ele>171</ele>
        <time>2018-02-02T11:50:05Z</time>
      </trkpt>
      <trkpt lat="45.92852" lon="4.73096">
        <ele>171</ele>
        <time>2018-02-02T11:50:07Z</time>
      </trkpt>
      <trkpt lat="45.9285" lon="4.73092">
        <ele>171</ele>
        <time>2018-02-02T11:50:08Z</time>
      </trkpt>
      <trkpt lat="45.92848" lon="4.73081">
        <ele>171</ele>
        <time>2018-02-02T11:50:10Z</time>
      </trkpt>
      <trkpt lat="45.92846" lon="4.73074">
        <ele>171</ele>
        <time>2018-02-02T11:50:11Z</time>
      </trkpt>
      <trkpt lat="45.92845" lon="4.73068">
        <ele>171</ele>
        <time>2018-02-02T11:50:12Z</time>
      </trkpt>
      <trkpt lat="45.92845" lon="4.7306">
        <ele>171</ele>
        <time>2018-02-02T11:50:13Z</time>
      </trkpt>
      <trkpt lat="45.92844" lon="4.73053">
        <ele>171</ele>
        <time>2018-02-02T11:50:14Z</time>
      </trkpt>
      <trkpt lat="45.92842" lon="4.73044">
        <ele>171</ele>
        <time>2018-02-02T11:50:15Z</time>
      </trkpt>
      <trkpt lat="45.9284" lon="4.73038">
        <ele>171</ele>
        <time>2018-02-02T11:50:16Z</time>
      </trkpt>
      <trkpt lat="45.92837" lon="4.7303">
        <ele>171</ele>
        <time>2018-02-02T11:50:17Z</time>
      </trkpt>
      <trkpt lat="45.92835" lon="4.73023">
        <ele>171</ele>
        <time>2018-02-02T11:50:18Z</time>
      </trkpt>
      <trkpt lat="45.92834" lon="4.73016">
        <ele>171</ele>
        <time>2018-02-02T11:50:19Z</time>
      </trkpt>
      <trkpt lat="45.92833" lon="4.73008">
        <ele>170</ele>
        <time>2018-02-02T11:50:20Z</time>
      </trkpt>
      <trkpt lat="45.92833" lon="4.73002">
        <ele>170</ele>
        <time>2018-02-02T11:50:21Z</time>
      </trkpt>
      <trkpt lat="45.92832" lon="4.72995">
        <ele>170</ele>
        <time>2018-02-02T11:50:22Z</time>
      </trkpt>
      <trkpt lat="45.9283" lon="4.72987">
        <ele>170</ele>
        <time>2018-02-02T11:50:23Z</time>
      </trkpt>
      <trkpt lat="45.92829" lon="4.7298">
        <ele>170</ele>
        <time>2018-02-02T11:50:24Z</time>
      </trkpt>
      <trkpt lat="45.92829" lon="4.72973">
        <ele>170</ele>
        <time>2018-02-02T11:50:25Z</time>
      </trkpt>
      <trkpt lat="45.92829" lon="4.72967">
        <ele>170</ele>
        <time>2018-02-02T11:50:26Z</time>
      </trkpt>
      <trkpt lat="45.92828" lon="4.72959">
        <ele>170</ele>
        <time>2018-02-02T11:50:27Z</time>
      </trkpt>
      <trkpt lat="45.92827" lon="4.72953">
        <ele>170</ele>
        <time>2018-02-02T11:50:28Z</time>
      </trkpt>
      <trkpt lat="45.92826" lon="4.72946">
        <ele>170</ele>
        <time>2018-02-02T11:50:29Z</time>
      </trkpt>
      <trkpt lat="45.92826" lon="4.72939">
        <ele>170</ele>
        <time>2018-02-02T11:50:30Z</time>
      </trkpt>
      <trkpt lat="45.92826" lon="4.72931">
        <ele>170</ele>
        <time>2018-02-02T11:50:31Z</time>
      </trkpt>
      <trkpt lat="45.92825" lon="4.72924">
        <ele>170</ele>
        <time>2018-02-02T11:50:32Z</time>
      </trkpt>
      <trkpt lat="45.92824" lon="4.72916">
        <ele>170</ele>
        <time>2018-02-02T11:50:33Z</time>
      </trkpt>
      <trkpt lat="45.92823" lon="4.72909">
        <ele>170</ele>
        <time>2018-02-02T11:50:34Z</time>
      </trkpt>
      <trkpt lat="45.92822" lon="4.72901">
        <ele>170</ele>
        <time>2018-02-02T11:50:35Z</time>
      </trkpt>
      <trkpt lat="45.92821" lon="4.72894">
        <ele>170</ele>
        <time>2018-02-02T11:50:36Z</time>
      </trkpt>
      <trkpt lat="45.9282" lon="4.72886">
        <ele>170</ele>
        <time>2018-02-02T11:50:37Z</time>
      </trkpt>
      <trkpt lat="45.92818" lon="4.72879">
        <ele>170</ele>
        <time>2018-02-02T11:50:38Z</time>
      </trkpt>
      <trkpt lat="45.92816" lon="4.72871">
        <ele>170</ele>
        <time>2018-02-02T11:50:39Z</time>
      </trkpt>
      <trkpt lat="45.92814" lon="4.72864">
        <ele>170</ele>
        <time>2018-02-02T11:50:40Z</time>
      </trkpt>
      <trkpt lat="45.92813" lon="4.72857">
        <ele>170</ele>
        <time>2018-02-02T11:50:41Z</time>
      </trkpt>
      <trkpt lat="45.92812" lon="4.7285">
        <ele>170</ele>
        <time>2018-02-02T11:50:42Z</time>
      </trkpt>
      <trkpt lat="45.92811" lon="4.72843">
        <ele>170</ele>
        <time>2018-02-02T11:50:43Z</time>
      </trkpt>
      <trkpt lat="45.9281" lon="4.72836">
        <ele>170</ele>
        <time>2018-02-02T11:50:44Z</time>
      </trkpt>
      <trkpt lat="45.92809" lon="4.7283">
        <ele>171</ele>
        <time>2018-02-02T11:50:45Z</time>
      </trkpt>
      <trkpt lat="45.92807" lon="4.72823">
        <ele>171</ele>
        <time>2018-02-02T11:50:46Z</time>
      </trkpt>
      <trkpt lat="45.92806" lon="4.72816">
        <ele>171</ele>
        <time>2018-02-02T11:50:47Z</time>
      </trkpt>
      <trkpt lat="45.92805" lon="4.7281">
        <ele>171</ele>
        <time>2018-02-02T11:50:48Z</time>
      </trkpt>
      <trkpt lat="45.92805" lon="4.72804">
        <ele>171</ele>
        <time>2018-02-02T11:50:49Z</time>
      </trkpt>
      <trkpt lat="45.92803" lon="4.72791">
        <ele>171</ele>
        <time>2018-02-02T11:50:51Z</time>
      </trkpt>
      <trkpt lat="45.92798" lon="4.72789">
        <ele>171</ele>
        <time>2018-02-02T11:50:52Z</time>
      </trkpt>
      <trkpt lat="45.92792" lon="4.72788">
        <ele>171</ele>
        <time>2018-02-02T11:50:54Z</time>
      </trkpt>
      <trkpt lat="45.92788" lon="4.7279">
        <ele>170</ele>
        <time>2018-02-02T11:50:55Z</time>
      </trkpt>
      <trkpt lat="45.9278" lon="4.72796">
        <ele>170</ele>
        <time>2018-02-02T11:50:57Z</time>
      </trkpt>
      <trkpt lat="45.92776" lon="4.72799">
        <ele>170</ele>
        <time>2018-02-02T11:50:58Z</time>
      </trkpt>
      <trkpt lat="45.92771" lon="4.72802">
        <ele>170</ele>
        <time>2018-02-02T11:50:59Z</time>
      </trkpt>
      <trkpt lat="45.92766" lon="4.72806">
        <ele>170</ele>
        <time>2018-02-02T11:51:00Z</time>
      </trkpt>
      <trkpt lat="45.92762" lon="4.72808">
        <ele>170</ele>
        <time>2018-02-02T11:51:01Z</time>
      </trkpt>
      <trkpt lat="45.92758" lon="4.72812">
        <ele>170</ele>
        <time>2018-02-02T11:51:02Z</time>
      </trkpt>
      <trkpt lat="45.9275" lon="4.72818">
        <ele>170</ele>
        <time>2018-02-02T11:51:04Z</time>
      </trkpt>
      <trkpt lat="45.92746" lon="4.7282">
        <ele>169</ele>
        <time>2018-02-02T11:51:05Z</time>
      </trkpt>
      <trkpt lat="45.92741" lon="4.72823">
        <ele>169</ele>
        <time>2018-02-02T11:51:06Z</time>
      </trkpt>
      <trkpt lat="45.92736" lon="4.72826">
        <ele>169</ele>
        <time>2018-02-02T11:51:07Z</time>
      </trkpt>
      <trkpt lat="45.92732" lon="4.7283">
        <ele>169</ele>
        <time>2018-02-02T11:51:08Z</time>
      </trkpt>
      <trkpt lat="45.92727" lon="4.72833">
        <ele>169</ele>
        <time>2018-02-02T11:51:09Z</time>
      </trkpt>
      <trkpt lat="45.92721" lon="4.72838">
        <ele>169</ele>
        <time>2018-02-02T11:51:10Z</time>
      </trkpt>
      <trkpt lat="45.92717" lon="4.72843">
        <ele>169</ele>
        <time>2018-02-02T11:51:11Z</time>
      </trkpt>
      <trkpt lat="45.92711" lon="4.72847">
        <ele>169</ele>
        <time>2018-02-02T11:51:12Z</time>
      </trkpt>
      <trkpt lat="45.92705" lon="4.72853">
        <ele>169</ele>
        <time>2018-02-02T11:51:13Z</time>
      </trkpt>
      <trkpt lat="45.927" lon="4.72857">
        <ele>169</ele>
        <time>2018-02-02T11:51:14Z</time>
      </trkpt>
      <trkpt lat="45.92694" lon="4.72861">
        <ele>169</ele>
        <time>2018-02-02T11:51:15Z</time>
      </trkpt>
      <trkpt lat="45.92689" lon="4.72865">
        <ele>169</ele>
        <time>2018-02-02T11:51:16Z</time>
      </trkpt>
      <trkpt lat="45.92684" lon="4.7287">
        <ele>169</ele>
        <time>2018-02-02T11:51:17Z</time>
      </trkpt>
      <trkpt lat="45.92678" lon="4.72874">
        <ele>169</ele>
        <time>2018-02-02T11:51:18Z</time>
      </trkpt>
      <trkpt lat="45.92672" lon="4.72879">
        <ele>170</ele>
        <time>2018-02-02T11:51:19Z</time>
      </trkpt>
      <trkpt lat="45.92667" lon="4.72884">
        <ele>169</ele>
        <time>2018-02-02T11:51:20Z</time>
      </trkpt>
      <trkpt lat="45.92661" lon="4.72889">
        <ele>169</ele>
        <time>2018-02-02T11:51:21Z</time>
      </trkpt>
      <trkpt lat="45.92655" lon="4.72893">
        <ele>169</ele>
        <time>2018-02-02T11:51:22Z</time>
      </trkpt>
      <trkpt lat="45.9265" lon="4.72897">
        <ele>169</ele>
        <time>2018-02-02T11:51:23Z</time>
      </trkpt>
      <trkpt lat="45.92644" lon="4.72901">
        <ele>169</ele>
        <time>2018-02-02T11:51:24Z</time>
      </trkpt>
      <trkpt lat="45.92638" lon="4.72906">
        <ele>169</ele>
        <time>2018-02-02T11:51:25Z</time>
      </trkpt>
      <trkpt lat="45.92631" lon="4.72912">
        <ele>169</ele>
        <time>2018-02-02T11:51:26Z</time>
      </trkpt>
      <trkpt lat="45.92626" lon="4.72917">
        <ele>170</ele>
        <time>2018-02-02T11:51:27Z</time>
      </trkpt>
      <trkpt lat="45.92621" lon="4.72922">
        <ele>169</ele>
        <time>2018-02-02T11:51:28Z</time>
      </trkpt>
      <trkpt lat="45.92616" lon="4.72926">
        <ele>169</ele>
        <time>2018-02-02T11:51:29Z</time>
      </trkpt>
      <trkpt lat="45.92611" lon="4.7293">
        <ele>169</ele>
        <time>2018-02-02T11:51:30Z</time>
      </trkpt>
      <trkpt lat="45.92606" lon="4.72937">
        <ele>169</ele>
        <time>2018-02-02T11:51:31Z</time>
      </trkpt>
      <trkpt lat="45.92601" lon="4.72942">
        <ele>169</ele>
        <time>2018-02-02T11:51:32Z</time>
      </trkpt>
      <trkpt lat="45.92596" lon="4.72948">
        <ele>169</ele>
        <time>2018-02-02T11:51:33Z</time>
      </trkpt>
      <trkpt lat="45.92592" lon="4.72955">
        <ele>169</ele>
        <time>2018-02-02T11:51:34Z</time>
      </trkpt>
      <trkpt lat="45.92588" lon="4.72961">
        <ele>169</ele>
        <time>2018-02-02T11:51:35Z</time>
      </trkpt>
      <trkpt lat="45.92583" lon="4.72966">
        <ele>169</ele>
        <time>2018-02-02T11:51:36Z</time>
      </trkpt>
      <trkpt lat="45.92579" lon="4.72972">
        <ele>169</ele>
        <time>2018-02-02T11:51:37Z</time>
      </trkpt>
      <trkpt lat="45.92574" lon="4.72976">
        <ele>169</ele>
        <time>2018-02-02T11:51:38Z</time>
      </trkpt>
      <trkpt lat="45.92569" lon="4.72981">
        <ele>169</ele>
        <time>2018-02-02T11:51:39Z</time>
      </trkpt>
      <trkpt lat="45.92565" lon="4.72986">
        <ele>169</ele>
        <time>2018-02-02T11:51:40Z</time>
      </trkpt>
      <trkpt lat="45.9256" lon="4.72993">
        <ele>169</ele>
        <time>2018-02-02T11:51:41Z</time>
      </trkpt>
      <trkpt lat="45.92556" lon="4.72997">
        <ele>169</ele>
        <time>2018-02-02T11:51:42Z</time>
      </trkpt>
      <trkpt lat="45.9255" lon="4.73002">
        <ele>169</ele>
        <time>2018-02-02T11:51:43Z</time>
      </trkpt>
      <trkpt lat="45.92545" lon="4.73006">
        <ele>169</ele>
        <time>2018-02-02T11:51:44Z</time>
      </trkpt>
      <trkpt lat="45.9254" lon="4.7301">
        <ele>169</ele>
        <time>2018-02-02T11:51:45Z</time>
      </trkpt>
      <trkpt lat="45.92535" lon="4.73015">
        <ele>169</ele>
        <time>2018-02-02T11:51:46Z</time>
      </trkpt>
      <trkpt lat="45.9253" lon="4.7302">
        <ele>169</ele>
        <time>2018-02-02T11:51:47Z</time>
      </trkpt>
      <trkpt lat="45.92525" lon="4.73025">
        <ele>169</ele>
        <time>2018-02-02T11:51:48Z</time>
      </trkpt>
      <trkpt lat="45.9252" lon="4.73029">
        <ele>169</ele>
        <time>2018-02-02T11:51:49Z</time>
      </trkpt>
      <trkpt lat="45.92514" lon="4.73034">
        <ele>169</ele>
        <time>2018-02-02T11:51:50Z</time>
      </trkpt>
      <trkpt lat="45.92509" lon="4.73038">
        <ele>169</ele>
        <time>2018-02-02T11:51:51Z</time>
      </trkpt>
      <trkpt lat="45.92504" lon="4.73041">
        <ele>169</ele>
        <time>2018-02-02T11:51:52Z</time>
      </trkpt>
      <trkpt lat="45.92499" lon="4.73046">
        <ele>170</ele>
        <time>2018-02-02T11:51:53Z</time>
      </trkpt>
      <trkpt lat="45.92495" lon="4.7305">
        <ele>170</ele>
        <time>2018-02-02T11:51:54Z</time>
      </trkpt>
      <trkpt lat="45.9249" lon="4.73055">
        <ele>170</ele>
        <time>2018-02-02T11:51:55Z</time>
      </trkpt>
      <trkpt lat="45.92484" lon="4.73059">
        <ele>170</ele>
        <time>2018-02-02T11:51:56Z</time>
      </trkpt>
      <trkpt lat="45.9248" lon="4.73063">
        <ele>170</ele>
        <time>2018-02-02T11:51:57Z</time>
      </trkpt>
      <trkpt lat="45.92475" lon="4.73067">
        <ele>170</ele>
        <time>2018-02-02T11:51:58Z</time>
      </trkpt>
      <trkpt lat="45.9247" lon="4.73071">
        <ele>170</ele>
        <time>2018-02-02T11:51:59Z</time>
      </trkpt>
      <trkpt lat="45.92465" lon="4.73075">
        <ele>170</ele>
        <time>2018-02-02T11:52:00Z</time>
      </trkpt>
      <trkpt lat="45.92461" lon="4.73079">
        <ele>170</ele>
        <time>2018-02-02T11:52:01Z</time>
      </trkpt>
      <trkpt lat="45.92456" lon="4.73083">
        <ele>170</ele>
        <time>2018-02-02T11:52:02Z</time>
      </trkpt>
      <trkpt lat="45.92451" lon="4.73086">
        <ele>170</ele>
        <time>2018-02-02T11:52:03Z</time>
      </trkpt>
      <trkpt lat="45.92446" lon="4.73089">
        <ele>170</ele>
        <time>2018-02-02T11:52:04Z</time>
      </trkpt>
      <trkpt lat="45.92441" lon="4.73093">
        <ele>170</ele>
        <time>2018-02-02T11:52:05Z</time>
      </trkpt>
      <trkpt lat="45.92437" lon="4.73096">
        <ele>171</ele>
        <time>2018-02-02T11:52:06Z</time>
      </trkpt>
      <trkpt lat="45.92432" lon="4.731">
        <ele>171</ele>
        <time>2018-02-02T11:52:07Z</time>
      </trkpt>
      <trkpt lat="45.92427" lon="4.73104">
        <ele>171</ele>
        <time>2018-02-02T11:52:08Z</time>
      </trkpt>
      <trkpt lat="45.92422" lon="4.73108">
        <ele>170</ele>
        <time>2018-02-02T11:52:09Z</time>
      </trkpt>
      <trkpt lat="45.92417" lon="4.73113">
        <ele>170</ele>
        <time>2018-02-02T11:52:10Z</time>
      </trkpt>
      <trkpt lat="45.92413" lon="4.73119">
        <ele>171</ele>
        <time>2018-02-02T11:52:11Z</time>
      </trkpt>
      <trkpt lat="45.9241" lon="4.73125">
        <ele>171</ele>
        <time>2018-02-02T11:52:12Z</time>
      </trkpt>
      <trkpt lat="45.92408" lon="4.73132">
        <ele>171</ele>
        <time>2018-02-02T11:52:13Z</time>
      </trkpt>
      <trkpt lat="45.92408" lon="4.7314">
        <ele>171</ele>
        <time>2018-02-02T11:52:14Z</time>
      </trkpt>
      <trkpt lat="45.92407" lon="4.73148">
        <ele>171</ele>
        <time>2018-02-02T11:52:15Z</time>
      </trkpt>
      <trkpt lat="45.92407" lon="4.73155">
        <ele>170</ele>
        <time>2018-02-02T11:52:16Z</time>
      </trkpt>
      <trkpt lat="45.92407" lon="4.73163">
        <ele>170</ele>
        <time>2018-02-02T11:52:17Z</time>
      </trkpt>
      <trkpt lat="45.92407" lon="4.73171">
        <ele>170</ele>
        <time>2018-02-02T11:52:18Z</time>
      </trkpt>
      <trkpt lat="45.92406" lon="4.73179">
        <ele>171</ele>
        <time>2018-02-02T11:52:19Z</time>
      </trkpt>
      <trkpt lat="45.92406" lon="4.73187">
        <ele>171</ele>
        <time>2018-02-02T11:52:20Z</time>
      </trkpt>
      <trkpt lat="45.92406" lon="4.73194">
        <ele>171</ele>
        <time>2018-02-02T11:52:21Z</time>
      </trkpt>
      <trkpt lat="45.92405" lon="4.73202">
        <ele>171</ele>
        <time>2018-02-02T11:52:22Z</time>
      </trkpt>
      <trkpt lat="45.92406" lon="4.73209">
        <ele>171</ele>
        <time>2018-02-02T11:52:23Z</time>
      </trkpt>
      <trkpt lat="45.92406" lon="4.73217">
        <ele>171</ele>
        <time>2018-02-02T11:52:24Z</time>
      </trkpt>
      <trkpt lat="45.92406" lon="4.73224">
        <ele>171</ele>
        <time>2018-02-02T11:52:25Z</time>
      </trkpt>
      <trkpt lat="45.92407" lon="4.73232">
        <ele>171</ele>
        <time>2018-02-02T11:52:26Z</time>
      </trkpt>
      <trkpt lat="45.92407" lon="4.73239">
        <ele>171</ele>
        <time>2018-02-02T11:52:27Z</time>
      </trkpt>
      <trkpt lat="45.92408" lon="4.73247">
        <ele>171</ele>
        <time>2018-02-02T11:52:28Z</time>
      </trkpt>
      <trkpt lat="45.92408" lon="4.73255">
        <ele>171</ele>
        <time>2018-02-02T11:52:29Z</time>
      </trkpt>
      <trkpt lat="45.92409" lon="4.73264">
        <ele>171</ele>
        <time>2018-02-02T11:52:30Z</time>
      </trkpt>
      <trkpt lat="45.92409" lon="4.73273">
        <ele>171</ele>
        <time>2018-02-02T11:52:31Z</time>
      </trkpt>
      <trkpt lat="45.9241" lon="4.73282">
        <ele>171</ele>
        <time>2018-02-02T11:52:32Z</time>
      </trkpt>
      <trkpt lat="45.9241" lon="4.73289">
        <ele>171</ele>
        <time>2018-02-02T11:52:33Z</time>
      </trkpt>
      <trkpt lat="45.92411" lon="4.73298">
        <ele>171</ele>
        <time>2018-02-02T11:52:34Z</time>
      </trkpt>
      <trkpt lat="45.92412" lon="4.73305">
        <ele>171</ele>
        <time>2018-02-02T11:52:35Z</time>
      </trkpt>
      <trkpt lat="45.92412" lon="4.73314">
        <ele>171</ele>
        <time>2018-02-02T11:52:36Z</time>
      </trkpt>
      <trkpt lat="45.92413" lon="4.73322">
        <ele>171</ele>
        <time>2018-02-02T11:52:37Z</time>
      </trkpt>
      <trkpt lat="45.92413" lon="4.7333">
        <ele>171</ele>
        <time>2018-02-02T11:52:38Z</time>
      </trkpt>
      <trkpt lat="45.92414" lon="4.73338">
        <ele>171</ele>
        <time>2018-02-02T11:52:39Z</time>
      </trkpt>
      <trkpt lat="45.92416" lon="4.73347">
        <ele>171</ele>
        <time>2018-02-02T11:52:40Z</time>
      </trkpt>
      <trkpt lat="45.92418" lon="4.73355">
        <ele>171</ele>
        <time>2018-02-02T11:52:41Z</time>
      </trkpt>
      <trkpt lat="45.92419" lon="4.73364">
        <ele>172</ele>
        <time>2018-02-02T11:52:42Z</time>
      </trkpt>
      <trkpt lat="45.9242" lon="4.73372">
        <ele>172</ele>
        <time>2018-02-02T11:52:43Z</time>
      </trkpt>
      <trkpt lat="45.92421" lon="4.73381">
        <ele>172</ele>
        <time>2018-02-02T11:52:44Z</time>
      </trkpt>
      <trkpt lat="45.92423" lon="4.73389">
        <ele>172</ele>
        <time>2018-02-02T11:52:45Z</time>
      </trkpt>
      <trkpt lat="45.92426" lon="4.73398">
        <ele>172</ele>
        <time>2018-02-02T11:52:46Z</time>
      </trkpt>
      <trkpt lat="45.92429" lon="4.73405">
        <ele>172</ele>
        <time>2018-02-02T11:52:47Z</time>
      </trkpt>
      <trkpt lat="45.92432" lon="4.73411">
        <ele>172</ele>
        <time>2018-02-02T11:52:48Z</time>
      </trkpt>
      <trkpt lat="45.92437" lon="4.73416">
        <ele>172</ele>
        <time>2018-02-02T11:52:49Z</time>
      </trkpt>
      <trkpt lat="45.92443" lon="4.73419">
        <ele>173</ele>
        <time>2018-02-02T11:52:50Z</time>
      </trkpt>
      <trkpt lat="45.92448" lon="4.73423">
        <ele>173</ele>
        <time>2018-02-02T11:52:51Z</time>
      </trkpt>
      <trkpt lat="45.92454" lon="4.73427">
        <ele>173</ele>
        <time>2018-02-02T11:52:52Z</time>
      </trkpt>
      <trkpt lat="45.92458" lon="4.73432">
        <ele>173</ele>
        <time>2018-02-02T11:52:53Z</time>
      </trkpt>
      <trkpt lat="45.92462" lon="4.73439">
        <ele>173</ele>
        <time>2018-02-02T11:52:54Z</time>
      </trkpt>
      <trkpt lat="45.92464" lon="4.73447">
        <ele>173</ele>
        <time>2018-02-02T11:52:55Z</time>
      </trkpt>
      <trkpt lat="45.92466" lon="4.73455">
        <ele>173</ele>
        <time>2018-02-02T11:52:56Z</time>
      </trkpt>
      <trkpt lat="45.92468" lon="4.73463">
        <ele>173</ele>
        <time>2018-02-02T11:52:57Z</time>
      </trkpt>
      <trkpt lat="45.92468" lon="4.73472">
        <ele>173</ele>
        <time>2018-02-02T11:52:58Z</time>
      </trkpt>
      <trkpt lat="45.92468" lon="4.7348">
        <ele>173</ele>
        <time>2018-02-02T11:52:59Z</time>
      </trkpt>
      <trkpt lat="45.92468" lon="4.73489">
        <ele>173</ele>
        <time>2018-02-02T11:53:00Z</time>
      </trkpt>
      <trkpt lat="45.92466" lon="4.73497">
        <ele>173</ele>
        <time>2018-02-02T11:53:01Z</time>
      </trkpt>
      <trkpt lat="45.92467" lon="4.73506">
        <ele>174</ele>
        <time>2018-02-02T11:53:02Z</time>
      </trkpt>
      <trkpt lat="45.92467" lon="4.73514">
        <ele>174</ele>
        <time>2018-02-02T11:53:03Z</time>
      </trkpt>
      <trkpt lat="45.92466" lon="4.73522">
        <ele>174</ele>
        <time>2018-02-02T11:53:04Z</time>
      </trkpt>
      <trkpt lat="45.92466" lon="4.73529">
        <ele>174</ele>
        <time>2018-02-02T11:53:05Z</time>
      </trkpt>
      <trkpt lat="45.92466" lon="4.73537">
        <ele>174</ele>
        <time>2018-02-02T11:53:06Z</time>
      </trkpt>
      <trkpt lat="45.92467" lon="4.73544">
        <ele>173</ele>
        <time>2018-02-02T11:53:07Z</time>
      </trkpt>
      <trkpt lat="45.92467" lon="4.73553">
        <ele>173</ele>
        <time>2018-02-02T11:53:08Z</time>
      </trkpt>
      <trkpt lat="45.92467" lon="4.73561">
        <ele>173</ele>
        <time>2018-02-02T11:53:09Z</time>
      </trkpt>
      <trkpt lat="45.92467" lon="4.73569">
        <ele>173</ele>
        <time>2018-02-02T11:53:10Z</time>
      </trkpt>
      <trkpt lat="45.92466" lon="4.73578">
        <ele>173</ele>
        <time>2018-02-02T11:53:11Z</time>
      </trkpt>
      <trkpt lat="45.92467" lon="4.73587">
        <ele>174</ele>
        <time>2018-02-02T11:53:12Z</time>
      </trkpt>
      <trkpt lat="45.92467" lon="4.73597">
        <ele>174</ele>
        <time>2018-02-02T11:53:13Z</time>
      </trkpt>
      <trkpt lat="45.92467" lon="4.73606">
        <ele>174</ele>
        <time>2018-02-02T11:53:14Z</time>
      </trkpt>
      <trkpt lat="45.92468" lon="4.73615">
        <ele>174</ele>
        <time>2018-02-02T11:53:15Z</time>
      </trkpt>
      <trkpt lat="45.92469" lon="4.73623">
        <ele>174</ele>
        <time>2018-02-02T11:53:16Z</time>
      </trkpt>
      <trkpt lat="45.9247" lon="4.73632">
        <ele>174</ele>
        <time>2018-02-02T11:53:17Z</time>
      </trkpt>
      <trkpt lat="45.9247" lon="4.7364">
        <ele>174</ele>
        <time>2018-02-02T11:53:18Z</time>
      </trkpt>
      <trkpt lat="45.92471" lon="4.73648">
        <ele>174</ele>
        <time>2018-02-02T11:53:19Z</time>
      </trkpt>
      <trkpt lat="45.9247" lon="4.73655">
        <ele>174</ele>
        <time>2018-02-02T11:53:20Z</time>
      </trkpt>
      <trkpt lat="45.92469" lon="4.73662">
        <ele>174</ele>
        <time>2018-02-02T11:53:21Z</time>
      </trkpt>
      <trkpt lat="45.92468" lon="4.73669">
        <ele>174</ele>
        <time>2018-02-02T11:53:22Z</time>
      </trkpt>
      <trkpt lat="45.92468" lon="4.73675">
        <ele>174</ele>
        <time>2018-02-02T11:53:23Z</time>
      </trkpt>
      <trkpt lat="45.92463" lon="4.7368">
        <ele>174</ele>
        <time>2018-02-02T11:53:24Z</time>
      </trkpt>
      <trkpt lat="45.92458" lon="4.73687">
        <ele>174</ele>
        <time>2018-02-02T11:53:25Z</time>
      </trkpt>
      <trkpt lat="45.92459" lon="4.73699">
        <ele>174</ele>
        <time>2018-02-02T11:53:28Z</time>
      </trkpt>
      <trkpt lat="45.92459" lon="4.73702">
        <ele>174</ele>
        <time>2018-02-02T11:53:29Z</time>
      </trkpt>
      <trkpt lat="45.92462" lon="4.73709">
        <ele>174</ele>
        <time>2018-02-02T11:54:12.818Z</time>
      </trkpt>
    </trkseg>
  </trk>
</gpx>